<?xml version="1.0" encoding="UTF-8" standalone="no" ?>
<gpx xmlns="http://www.topografix.com/GPX/1/1" xmlns:xsi="http://www.w3.org/2001/XMLSchema-instance" xsi:schemaLocation="http://www.topografix.com/GPX/1/1 http://www.topografix.com/GPX/1/1/gpx.xsd" version="1.1" creator="VisuGPX - https://www.visugpx.com">
  <metadata>
    <name>Tour d'Europe: étape 032</name>
    <desc><![CDATA[Étape 032]]></desc>
  </metadata>
  <trk>
    <name><![CDATA[Tour d'Europe: étape 032]]></name>
    <trkseg>
      <trkpt lat="62.03901" lon="5.52243">
        <ele>46.400652</ele>
        <time>2020-07-30T07:08:01.973Z</time>
      </trkpt>
      <trkpt lat="62.03875" lon="5.5224">
        <ele>46.400652</ele>
        <time>2020-07-30T07:08:03.140Z</time>
      </trkpt>
      <trkpt lat="62.03892" lon="5.52245">
        <ele>46.400652</ele>
        <time>2020-07-30T07:08:05.038Z</time>
      </trkpt>
      <trkpt lat="62.03886" lon="5.52274">
        <ele>46.400652</ele>
        <time>2020-07-30T07:10:19.025Z</time>
      </trkpt>
      <trkpt lat="62.03888" lon="5.52295">
        <ele>46.400652</ele>
        <time>2020-07-30T07:10:23.014Z</time>
      </trkpt>
      <trkpt lat="62.03892" lon="5.52317">
        <ele>46.400652</ele>
        <time>2020-07-30T07:10:27.020Z</time>
      </trkpt>
      <trkpt lat="62.039" lon="5.52329">
        <ele>46.412063</ele>
        <time>2020-07-30T07:10:32.047Z</time>
      </trkpt>
      <trkpt lat="62.03902" lon="5.52347">
        <ele>46.589662</ele>
        <time>2020-07-30T07:10:37.037Z</time>
      </trkpt>
      <trkpt lat="62.03897" lon="5.52371">
        <ele>46.829046</ele>
        <time>2020-07-30T07:10:41.018Z</time>
      </trkpt>
      <trkpt lat="62.03892" lon="5.52389">
        <ele>47.025959</ele>
        <time>2020-07-30T07:10:44.038Z</time>
      </trkpt>
      <trkpt lat="62.03886" lon="5.52409">
        <ele>47.241027</ele>
        <time>2020-07-30T07:10:47.023Z</time>
      </trkpt>
      <trkpt lat="62.0388" lon="5.5243">
        <ele>47.472471</ele>
        <time>2020-07-30T07:10:50.058Z</time>
      </trkpt>
      <trkpt lat="62.03873" lon="5.52452">
        <ele>47.70807</ele>
        <time>2020-07-30T07:10:53.052Z</time>
      </trkpt>
      <trkpt lat="62.03868" lon="5.52474">
        <ele>47.937175</ele>
        <time>2020-07-30T07:10:56.034Z</time>
      </trkpt>
      <trkpt lat="62.03861" lon="5.52495">
        <ele>48.174804</ele>
        <time>2020-07-30T07:10:59.015Z</time>
      </trkpt>
      <trkpt lat="62.03855" lon="5.52516">
        <ele>48.390629</ele>
        <time>2020-07-30T07:11:02.014Z</time>
      </trkpt>
      <trkpt lat="62.0385" lon="5.52535">
        <ele>48.588219</ele>
        <time>2020-07-30T07:11:05.019Z</time>
      </trkpt>
      <trkpt lat="62.03845" lon="5.52552">
        <ele>48.783588</ele>
        <time>2020-07-30T07:11:08.025Z</time>
      </trkpt>
      <trkpt lat="62.0384" lon="5.52571">
        <ele>48.986983</ele>
        <time>2020-07-30T07:11:11.032Z</time>
      </trkpt>
      <trkpt lat="62.03834" lon="5.52589">
        <ele>49.184674</ele>
        <time>2020-07-30T07:11:14.032Z</time>
      </trkpt>
      <trkpt lat="62.03828" lon="5.52607">
        <ele>49.384758</ele>
        <time>2020-07-30T07:11:17.013Z</time>
      </trkpt>
      <trkpt lat="62.03822" lon="5.52624">
        <ele>49.581248</ele>
        <time>2020-07-30T07:11:20.025Z</time>
      </trkpt>
      <trkpt lat="62.03815" lon="5.52642">
        <ele>49.793639</ele>
        <time>2020-07-30T07:11:23.018Z</time>
      </trkpt>
      <trkpt lat="62.0381" lon="5.52662">
        <ele>49.932301</ele>
        <time>2020-07-30T07:11:26.027Z</time>
      </trkpt>
      <trkpt lat="62.03803" lon="5.52681">
        <ele>49.959416</ele>
        <time>2020-07-30T07:11:29.073Z</time>
      </trkpt>
      <trkpt lat="62.03797" lon="5.527">
        <ele>49.987006</ele>
        <time>2020-07-30T07:11:32.023Z</time>
      </trkpt>
      <trkpt lat="62.0379" lon="5.52721">
        <ele>50.016521</ele>
        <time>2020-07-30T07:11:35.057Z</time>
      </trkpt>
      <trkpt lat="62.03783" lon="5.5274">
        <ele>50.045447</ele>
        <time>2020-07-30T07:11:38.021Z</time>
      </trkpt>
      <trkpt lat="62.03776" lon="5.52758">
        <ele>50.072359</ele>
        <time>2020-07-30T07:11:41.026Z</time>
      </trkpt>
      <trkpt lat="62.03769" lon="5.52777">
        <ele>50.100829</ele>
        <time>2020-07-30T07:11:44.023Z</time>
      </trkpt>
      <trkpt lat="62.03761" lon="5.52795">
        <ele>50.12892</ele>
        <time>2020-07-30T07:11:47.056Z</time>
      </trkpt>
      <trkpt lat="62.03754" lon="5.52814">
        <ele>50.158249</ele>
        <time>2020-07-30T07:11:50.026Z</time>
      </trkpt>
      <trkpt lat="62.03746" lon="5.52835">
        <ele>50.189079</ele>
        <time>2020-07-30T07:11:53.038Z</time>
      </trkpt>
      <trkpt lat="62.03738" lon="5.52857">
        <ele>50.22234</ele>
        <time>2020-07-30T07:11:56.039Z</time>
      </trkpt>
      <trkpt lat="62.0373" lon="5.52877">
        <ele>50.253554</ele>
        <time>2020-07-30T07:11:59.043Z</time>
      </trkpt>
      <trkpt lat="62.03721" lon="5.52896">
        <ele>50.284436</ele>
        <time>2020-07-30T07:12:02.040Z</time>
      </trkpt>
      <trkpt lat="62.03712" lon="5.52913">
        <ele>50.313895</ele>
        <time>2020-07-30T07:12:05.017Z</time>
      </trkpt>
      <trkpt lat="62.03703" lon="5.52927">
        <ele>50.342754</ele>
        <time>2020-07-30T07:12:08.030Z</time>
      </trkpt>
      <trkpt lat="62.03693" lon="5.52941">
        <ele>50.396928</ele>
        <time>2020-07-30T07:12:11.029Z</time>
      </trkpt>
      <trkpt lat="62.03688" lon="5.52961">
        <ele>50.805415</ele>
        <time>2020-07-30T07:12:14.033Z</time>
      </trkpt>
      <trkpt lat="62.03681" lon="5.52978">
        <ele>51.195675</ele>
        <time>2020-07-30T07:12:17.019Z</time>
      </trkpt>
      <trkpt lat="62.03672" lon="5.52989">
        <ele>51.588934</ele>
        <time>2020-07-30T07:12:20.024Z</time>
      </trkpt>
      <trkpt lat="62.03663" lon="5.53006">
        <ele>52.0449</ele>
        <time>2020-07-30T07:12:23.057Z</time>
      </trkpt>
      <trkpt lat="62.03655" lon="5.53022">
        <ele>52.4762</ele>
        <time>2020-07-30T07:12:26.023Z</time>
      </trkpt>
      <trkpt lat="62.03646" lon="5.53036">
        <ele>52.894645</ele>
        <time>2020-07-30T07:12:29.040Z</time>
      </trkpt>
      <trkpt lat="62.03637" lon="5.53052">
        <ele>53.341238</ele>
        <time>2020-07-30T07:12:32.052Z</time>
      </trkpt>
      <trkpt lat="62.03627" lon="5.53067">
        <ele>53.816149</ele>
        <time>2020-07-30T07:12:35.034Z</time>
      </trkpt>
      <trkpt lat="62.03617" lon="5.5308">
        <ele>54.252797</ele>
        <time>2020-07-30T07:12:38.022Z</time>
      </trkpt>
      <trkpt lat="62.03609" lon="5.53094">
        <ele>54.65754</ele>
        <time>2020-07-30T07:12:42.064Z</time>
      </trkpt>
      <trkpt lat="62.03611" lon="5.53114">
        <ele>55.030064</ele>
        <time>2020-07-30T07:12:47.020Z</time>
      </trkpt>
      <trkpt lat="62.03622" lon="5.53118">
        <ele>55.45694</ele>
        <time>2020-07-30T07:12:51.056Z</time>
      </trkpt>
      <trkpt lat="62.03633" lon="5.5312">
        <ele>55.861777</ele>
        <time>2020-07-30T07:12:55.019Z</time>
      </trkpt>
      <trkpt lat="62.03643" lon="5.53122">
        <ele>56.25393</ele>
        <time>2020-07-30T07:12:59.020Z</time>
      </trkpt>
      <trkpt lat="62.03652" lon="5.53122">
        <ele>56.595898</ele>
        <time>2020-07-30T07:13:03.019Z</time>
      </trkpt>
      <trkpt lat="62.03663" lon="5.53119">
        <ele>56.997335</ele>
        <time>2020-07-30T07:13:08.030Z</time>
      </trkpt>
      <trkpt lat="62.03673" lon="5.53117">
        <ele>57.375583</ele>
        <time>2020-07-30T07:13:13.016Z</time>
      </trkpt>
      <trkpt lat="62.03683" lon="5.53111">
        <ele>57.767744</ele>
        <time>2020-07-30T07:13:18.052Z</time>
      </trkpt>
      <trkpt lat="62.03691" lon="5.53104">
        <ele>58.122883</ele>
        <time>2020-07-30T07:13:23.035Z</time>
      </trkpt>
      <trkpt lat="62.037" lon="5.53098">
        <ele>58.463743</ele>
        <time>2020-07-30T07:13:28.036Z</time>
      </trkpt>
      <trkpt lat="62.03708" lon="5.53088">
        <ele>58.821765</ele>
        <time>2020-07-30T07:13:33.024Z</time>
      </trkpt>
      <trkpt lat="62.03716" lon="5.53076">
        <ele>59.208985</ele>
        <time>2020-07-30T07:13:38.024Z</time>
      </trkpt>
      <trkpt lat="62.03724" lon="5.53062">
        <ele>59.584913</ele>
        <time>2020-07-30T07:13:43.049Z</time>
      </trkpt>
      <trkpt lat="62.03731" lon="5.5305">
        <ele>59.934424</ele>
        <time>2020-07-30T07:13:48.017Z</time>
      </trkpt>
      <trkpt lat="62.03739" lon="5.53036">
        <ele>60.309747</ele>
        <time>2020-07-30T07:13:53.050Z</time>
      </trkpt>
      <trkpt lat="62.03748" lon="5.53021">
        <ele>60.734597</ele>
        <time>2020-07-30T07:13:58.065Z</time>
      </trkpt>
      <trkpt lat="62.03756" lon="5.53007">
        <ele>61.141153</ele>
        <time>2020-07-30T07:14:03.036Z</time>
      </trkpt>
      <trkpt lat="62.03764" lon="5.52991">
        <ele>61.556958</ele>
        <time>2020-07-30T07:14:08.016Z</time>
      </trkpt>
      <trkpt lat="62.03771" lon="5.52977">
        <ele>61.934608</ele>
        <time>2020-07-30T07:14:12.062Z</time>
      </trkpt>
      <trkpt lat="62.03778" lon="5.52964">
        <ele>62.29137</ele>
        <time>2020-07-30T07:14:16.012Z</time>
      </trkpt>
      <trkpt lat="62.03785" lon="5.5295">
        <ele>62.646629</ele>
        <time>2020-07-30T07:14:20.028Z</time>
      </trkpt>
      <trkpt lat="62.03792" lon="5.52936">
        <ele>63.015034</ele>
        <time>2020-07-30T07:14:24.046Z</time>
      </trkpt>
      <trkpt lat="62.038" lon="5.52923">
        <ele>63.400905</ele>
        <time>2020-07-30T07:14:28.018Z</time>
      </trkpt>
      <trkpt lat="62.03808" lon="5.52909">
        <ele>63.788632</ele>
        <time>2020-07-30T07:14:32.020Z</time>
      </trkpt>
      <trkpt lat="62.03817" lon="5.52897">
        <ele>64.112741</ele>
        <time>2020-07-30T07:14:36.024Z</time>
      </trkpt>
      <trkpt lat="62.03825" lon="5.52885">
        <ele>64.304257</ele>
        <time>2020-07-30T07:14:40.014Z</time>
      </trkpt>
      <trkpt lat="62.03835" lon="5.52872">
        <ele>64.516385</ele>
        <time>2020-07-30T07:14:44.024Z</time>
      </trkpt>
      <trkpt lat="62.03843" lon="5.52862">
        <ele>64.687586</ele>
        <time>2020-07-30T07:14:47.024Z</time>
      </trkpt>
      <trkpt lat="62.03851" lon="5.52851">
        <ele>64.867049</ele>
        <time>2020-07-30T07:14:50.020Z</time>
      </trkpt>
      <trkpt lat="62.03859" lon="5.52841">
        <ele>65.044059</ele>
        <time>2020-07-30T07:14:53.039Z</time>
      </trkpt>
      <trkpt lat="62.03867" lon="5.52833">
        <ele>65.212803</ele>
        <time>2020-07-30T07:14:56.024Z</time>
      </trkpt>
      <trkpt lat="62.03875" lon="5.52824">
        <ele>65.382756</ele>
        <time>2020-07-30T07:14:59.040Z</time>
      </trkpt>
      <trkpt lat="62.03883" lon="5.52814">
        <ele>65.556527</ele>
        <time>2020-07-30T07:15:02.056Z</time>
      </trkpt>
      <trkpt lat="62.03891" lon="5.52805">
        <ele>65.730643</ele>
        <time>2020-07-30T07:15:05.017Z</time>
      </trkpt>
      <trkpt lat="62.03902" lon="5.52794">
        <ele>65.947965</ele>
        <time>2020-07-30T07:15:09.021Z</time>
      </trkpt>
      <trkpt lat="62.03911" lon="5.52784">
        <ele>66.15375</ele>
        <time>2020-07-30T07:15:13.030Z</time>
      </trkpt>
      <trkpt lat="62.03921" lon="5.52776">
        <ele>66.351715</ele>
        <time>2020-07-30T07:15:17.033Z</time>
      </trkpt>
      <trkpt lat="62.03931" lon="5.52768">
        <ele>66.545214</ele>
        <time>2020-07-30T07:15:21.021Z</time>
      </trkpt>
      <trkpt lat="62.03941" lon="5.5276">
        <ele>66.748149</ele>
        <time>2020-07-30T07:15:25.032Z</time>
      </trkpt>
      <trkpt lat="62.03951" lon="5.52753">
        <ele>66.942792</ele>
        <time>2020-07-30T07:15:29.041Z</time>
      </trkpt>
      <trkpt lat="62.0396" lon="5.52747">
        <ele>67.128205</ele>
        <time>2020-07-30T07:15:33.044Z</time>
      </trkpt>
      <trkpt lat="62.0397" lon="5.52742">
        <ele>67.317032</ele>
        <time>2020-07-30T07:15:37.016Z</time>
      </trkpt>
      <trkpt lat="62.0398" lon="5.52736">
        <ele>67.666166</ele>
        <time>2020-07-30T07:15:41.017Z</time>
      </trkpt>
      <trkpt lat="62.03989" lon="5.52732">
        <ele>68.161928</ele>
        <time>2020-07-30T07:15:45.020Z</time>
      </trkpt>
      <trkpt lat="62.03999" lon="5.52726">
        <ele>68.753391</ele>
        <time>2020-07-30T07:15:50.021Z</time>
      </trkpt>
      <trkpt lat="62.0401" lon="5.52721">
        <ele>69.337037</ele>
        <time>2020-07-30T07:15:55.048Z</time>
      </trkpt>
      <trkpt lat="62.0402" lon="5.52717">
        <ele>69.901815</ele>
        <time>2020-07-30T07:16:00.039Z</time>
      </trkpt>
      <trkpt lat="62.04031" lon="5.52713">
        <ele>70.474496</ele>
        <time>2020-07-30T07:16:05.016Z</time>
      </trkpt>
      <trkpt lat="62.04041" lon="5.5271">
        <ele>71.044906</ele>
        <time>2020-07-30T07:16:10.019Z</time>
      </trkpt>
      <trkpt lat="62.04052" lon="5.52708">
        <ele>71.628716</ele>
        <time>2020-07-30T07:16:15.044Z</time>
      </trkpt>
      <trkpt lat="62.04063" lon="5.52706">
        <ele>72.216325</ele>
        <time>2020-07-30T07:16:20.014Z</time>
      </trkpt>
      <trkpt lat="62.04074" lon="5.52705">
        <ele>72.813975</ele>
        <time>2020-07-30T07:16:25.023Z</time>
      </trkpt>
      <trkpt lat="62.04085" lon="5.52705">
        <ele>73.395338</ele>
        <time>2020-07-30T07:16:30.053Z</time>
      </trkpt>
      <trkpt lat="62.04095" lon="5.52704">
        <ele>73.965942</ele>
        <time>2020-07-30T07:16:35.030Z</time>
      </trkpt>
      <trkpt lat="62.04105" lon="5.52704">
        <ele>74.49332</ele>
        <time>2020-07-30T07:16:40.020Z</time>
      </trkpt>
      <trkpt lat="62.04116" lon="5.52705">
        <ele>75.075558</ele>
        <time>2020-07-30T07:16:45.036Z</time>
      </trkpt>
      <trkpt lat="62.04127" lon="5.52706">
        <ele>75.662126</ele>
        <time>2020-07-30T07:16:50.030Z</time>
      </trkpt>
      <trkpt lat="62.04138" lon="5.52709">
        <ele>76.24853</ele>
        <time>2020-07-30T07:16:55.033Z</time>
      </trkpt>
      <trkpt lat="62.04147" lon="5.52711">
        <ele>76.774003</ele>
        <time>2020-07-30T07:17:00.048Z</time>
      </trkpt>
      <trkpt lat="62.04157" lon="5.52713">
        <ele>77.060504</ele>
        <time>2020-07-30T07:17:05.016Z</time>
      </trkpt>
      <trkpt lat="62.04167" lon="5.52715">
        <ele>76.904745</ele>
        <time>2020-07-30T07:17:10.037Z</time>
      </trkpt>
      <trkpt lat="62.04177" lon="5.52721">
        <ele>76.741949</ele>
        <time>2020-07-30T07:17:15.064Z</time>
      </trkpt>
      <trkpt lat="62.04188" lon="5.52719">
        <ele>76.575273</ele>
        <time>2020-07-30T07:17:20.051Z</time>
      </trkpt>
      <trkpt lat="62.04197" lon="5.52725">
        <ele>76.424561</ele>
        <time>2020-07-30T07:17:24.020Z</time>
      </trkpt>
      <trkpt lat="62.04209" lon="5.52729">
        <ele>76.242923</ele>
        <time>2020-07-30T07:17:28.019Z</time>
      </trkpt>
      <trkpt lat="62.0422" lon="5.52732">
        <ele>76.073752</ele>
        <time>2020-07-30T07:17:31.016Z</time>
      </trkpt>
      <trkpt lat="62.04232" lon="5.5274">
        <ele>75.884969</ele>
        <time>2020-07-30T07:17:34.045Z</time>
      </trkpt>
      <trkpt lat="62.04244" lon="5.52749">
        <ele>75.688498</ele>
        <time>2020-07-30T07:17:37.021Z</time>
      </trkpt>
      <trkpt lat="62.04257" lon="5.52758">
        <ele>75.485445</ele>
        <time>2020-07-30T07:17:40.042Z</time>
      </trkpt>
      <trkpt lat="62.04266" lon="5.52765">
        <ele>75.34216</ele>
        <time>2020-07-30T07:17:42.028Z</time>
      </trkpt>
      <trkpt lat="62.04275" lon="5.52773">
        <ele>75.195008</ele>
        <time>2020-07-30T07:17:44.038Z</time>
      </trkpt>
      <trkpt lat="62.04284" lon="5.52781">
        <ele>75.043158</ele>
        <time>2020-07-30T07:17:46.024Z</time>
      </trkpt>
      <trkpt lat="62.04294" lon="5.5279">
        <ele>74.880095</ele>
        <time>2020-07-30T07:17:48.055Z</time>
      </trkpt>
      <trkpt lat="62.04304" lon="5.52801">
        <ele>74.698263</ele>
        <time>2020-07-30T07:17:50.014Z</time>
      </trkpt>
      <trkpt lat="62.04315" lon="5.52814">
        <ele>74.508451</ele>
        <time>2020-07-30T07:17:52.024Z</time>
      </trkpt>
      <trkpt lat="62.04327" lon="5.52829">
        <ele>74.170508</ele>
        <time>2020-07-30T07:17:54.044Z</time>
      </trkpt>
      <trkpt lat="62.0434" lon="5.52843">
        <ele>73.491464</ele>
        <time>2020-07-30T07:17:56.085Z</time>
      </trkpt>
      <trkpt lat="62.04353" lon="5.52858">
        <ele>72.778901</ele>
        <time>2020-07-30T07:17:58.016Z</time>
      </trkpt>
      <trkpt lat="62.04366" lon="5.52873">
        <ele>72.093624</ele>
        <time>2020-07-30T07:18:00.009Z</time>
      </trkpt>
      <trkpt lat="62.04376" lon="5.52884">
        <ele>71.546253</ele>
        <time>2020-07-30T07:18:02.041Z</time>
      </trkpt>
      <trkpt lat="62.04387" lon="5.52895">
        <ele>71.003938</ele>
        <time>2020-07-30T07:18:04.045Z</time>
      </trkpt>
      <trkpt lat="62.04398" lon="5.52906">
        <ele>70.409132</ele>
        <time>2020-07-30T07:18:06.051Z</time>
      </trkpt>
      <trkpt lat="62.04409" lon="5.52917">
        <ele>69.837601</ele>
        <time>2020-07-30T07:18:08.021Z</time>
      </trkpt>
      <trkpt lat="62.04421" lon="5.52927">
        <ele>69.238486</ele>
        <time>2020-07-30T07:18:10.040Z</time>
      </trkpt>
      <trkpt lat="62.04433" lon="5.52937">
        <ele>68.615493</ele>
        <time>2020-07-30T07:18:12.016Z</time>
      </trkpt>
      <trkpt lat="62.04447" lon="5.52947">
        <ele>67.950489</ele>
        <time>2020-07-30T07:18:14.057Z</time>
      </trkpt>
      <trkpt lat="62.04461" lon="5.52957">
        <ele>67.270008</ele>
        <time>2020-07-30T07:18:16.017Z</time>
      </trkpt>
      <trkpt lat="62.04474" lon="5.52967">
        <ele>66.588088</ele>
        <time>2020-07-30T07:18:18.061Z</time>
      </trkpt>
      <trkpt lat="62.04488" lon="5.52976">
        <ele>65.901268</ele>
        <time>2020-07-30T07:18:20.056Z</time>
      </trkpt>
      <trkpt lat="62.04503" lon="5.52983">
        <ele>65.454777</ele>
        <time>2020-07-30T07:18:22.059Z</time>
      </trkpt>
      <trkpt lat="62.04518" lon="5.5299">
        <ele>65.008876</ele>
        <time>2020-07-30T07:18:24.024Z</time>
      </trkpt>
      <trkpt lat="62.04532" lon="5.52996">
        <ele>64.579193</ele>
        <time>2020-07-30T07:18:26.018Z</time>
      </trkpt>
      <trkpt lat="62.04546" lon="5.53002">
        <ele>64.152139</ele>
        <time>2020-07-30T07:18:28.007Z</time>
      </trkpt>
      <trkpt lat="62.0456" lon="5.53007">
        <ele>63.7403</ele>
        <time>2020-07-30T07:18:30.018Z</time>
      </trkpt>
      <trkpt lat="62.04573" lon="5.53011">
        <ele>63.339307</ele>
        <time>2020-07-30T07:18:32.042Z</time>
      </trkpt>
      <trkpt lat="62.04586" lon="5.53015">
        <ele>62.946346</ele>
        <time>2020-07-30T07:18:34.022Z</time>
      </trkpt>
      <trkpt lat="62.04599" lon="5.53019">
        <ele>62.559038</ele>
        <time>2020-07-30T07:18:36.010Z</time>
      </trkpt>
      <trkpt lat="62.04612" lon="5.53023">
        <ele>62.177592</ele>
        <time>2020-07-30T07:18:38.038Z</time>
      </trkpt>
      <trkpt lat="62.04624" lon="5.53028">
        <ele>61.804706</ele>
        <time>2020-07-30T07:18:40.030Z</time>
      </trkpt>
      <trkpt lat="62.04636" lon="5.53031">
        <ele>61.456983</ele>
        <time>2020-07-30T07:18:42.054Z</time>
      </trkpt>
      <trkpt lat="62.04647" lon="5.53036">
        <ele>61.122575</ele>
        <time>2020-07-30T07:18:44.014Z</time>
      </trkpt>
      <trkpt lat="62.04657" lon="5.53039">
        <ele>60.81589</ele>
        <time>2020-07-30T07:18:46.022Z</time>
      </trkpt>
      <trkpt lat="62.04668" lon="5.53041">
        <ele>60.539733</ele>
        <time>2020-07-30T07:18:48.035Z</time>
      </trkpt>
      <trkpt lat="62.04678" lon="5.53041">
        <ele>60.363586</ele>
        <time>2020-07-30T07:18:50.020Z</time>
      </trkpt>
      <trkpt lat="62.04688" lon="5.5304">
        <ele>60.187327</ele>
        <time>2020-07-30T07:18:52.012Z</time>
      </trkpt>
      <trkpt lat="62.04699" lon="5.53039">
        <ele>59.999085</ele>
        <time>2020-07-30T07:18:54.029Z</time>
      </trkpt>
      <trkpt lat="62.0471" lon="5.53037">
        <ele>59.815778</ele>
        <time>2020-07-30T07:18:56.032Z</time>
      </trkpt>
      <trkpt lat="62.04721" lon="5.53033">
        <ele>59.635127</ele>
        <time>2020-07-30T07:18:58.045Z</time>
      </trkpt>
      <trkpt lat="62.04731" lon="5.53029">
        <ele>59.46567</ele>
        <time>2020-07-30T07:19:00.032Z</time>
      </trkpt>
      <trkpt lat="62.04741" lon="5.53023">
        <ele>59.286037</ele>
        <time>2020-07-30T07:19:02.042Z</time>
      </trkpt>
      <trkpt lat="62.04751" lon="5.53015">
        <ele>59.105926</ele>
        <time>2020-07-30T07:19:04.039Z</time>
      </trkpt>
      <trkpt lat="62.04761" lon="5.53008">
        <ele>58.922405</ele>
        <time>2020-07-30T07:19:06.064Z</time>
      </trkpt>
      <trkpt lat="62.04771" lon="5.52999">
        <ele>58.745688</ele>
        <time>2020-07-30T07:19:08.045Z</time>
      </trkpt>
      <trkpt lat="62.0478" lon="5.52993">
        <ele>58.581294</ele>
        <time>2020-07-30T07:19:10.017Z</time>
      </trkpt>
      <trkpt lat="62.04789" lon="5.52987">
        <ele>58.424358</ele>
        <time>2020-07-30T07:19:12.040Z</time>
      </trkpt>
      <trkpt lat="62.04797" lon="5.52981">
        <ele>58.271354</ele>
        <time>2020-07-30T07:19:14.035Z</time>
      </trkpt>
      <trkpt lat="62.0481" lon="5.52972">
        <ele>58.045524</ele>
        <time>2020-07-30T07:19:17.033Z</time>
      </trkpt>
      <trkpt lat="62.04822" lon="5.52962">
        <ele>57.825009</ele>
        <time>2020-07-30T07:19:20.038Z</time>
      </trkpt>
      <trkpt lat="62.04834" lon="5.52953">
        <ele>57.609494</ele>
        <time>2020-07-30T07:19:23.039Z</time>
      </trkpt>
      <trkpt lat="62.04845" lon="5.5294">
        <ele>57.552387</ele>
        <time>2020-07-30T07:19:26.026Z</time>
      </trkpt>
      <trkpt lat="62.04858" lon="5.52929">
        <ele>57.584107</ele>
        <time>2020-07-30T07:19:29.067Z</time>
      </trkpt>
      <trkpt lat="62.0487" lon="5.52921">
        <ele>57.61512</ele>
        <time>2020-07-30T07:19:32.015Z</time>
      </trkpt>
      <trkpt lat="62.04879" lon="5.52915">
        <ele>57.637399</ele>
        <time>2020-07-30T07:19:34.032Z</time>
      </trkpt>
      <trkpt lat="62.04888" lon="5.5291">
        <ele>57.659032</ele>
        <time>2020-07-30T07:19:36.037Z</time>
      </trkpt>
      <trkpt lat="62.04897" lon="5.52904">
        <ele>57.680728</ele>
        <time>2020-07-30T07:19:38.020Z</time>
      </trkpt>
      <trkpt lat="62.04906" lon="5.52898">
        <ele>57.702559</ele>
        <time>2020-07-30T07:19:40.043Z</time>
      </trkpt>
      <trkpt lat="62.04918" lon="5.52888">
        <ele>57.733672</ele>
        <time>2020-07-30T07:19:43.037Z</time>
      </trkpt>
      <trkpt lat="62.0493" lon="5.52877">
        <ele>57.764223</ele>
        <time>2020-07-30T07:19:46.016Z</time>
      </trkpt>
      <trkpt lat="62.04942" lon="5.52866">
        <ele>57.796037</ele>
        <time>2020-07-30T07:19:49.025Z</time>
      </trkpt>
      <trkpt lat="62.04951" lon="5.52858">
        <ele>57.817574</ele>
        <time>2020-07-30T07:19:51.007Z</time>
      </trkpt>
      <trkpt lat="62.04959" lon="5.5285">
        <ele>57.839459</ele>
        <time>2020-07-30T07:19:53.046Z</time>
      </trkpt>
      <trkpt lat="62.04968" lon="5.52842">
        <ele>57.861649</ele>
        <time>2020-07-30T07:19:55.009Z</time>
      </trkpt>
      <trkpt lat="62.04976" lon="5.52834">
        <ele>57.883149</ele>
        <time>2020-07-30T07:19:57.025Z</time>
      </trkpt>
      <trkpt lat="62.04988" lon="5.52822">
        <ele>57.914489</ele>
        <time>2020-07-30T07:20:00.016Z</time>
      </trkpt>
      <trkpt lat="62.05001" lon="5.52809">
        <ele>57.946536</ele>
        <time>2020-07-30T07:20:03.023Z</time>
      </trkpt>
      <trkpt lat="62.05009" lon="5.52801">
        <ele>57.918585</ele>
        <time>2020-07-30T07:20:05.035Z</time>
      </trkpt>
      <trkpt lat="62.05021" lon="5.52788">
        <ele>57.81257</ele>
        <time>2020-07-30T07:20:08.041Z</time>
      </trkpt>
      <trkpt lat="62.05029" lon="5.5278">
        <ele>57.739137</ele>
        <time>2020-07-30T07:20:10.038Z</time>
      </trkpt>
      <trkpt lat="62.05037" lon="5.52771">
        <ele>57.664934</ele>
        <time>2020-07-30T07:20:12.020Z</time>
      </trkpt>
      <trkpt lat="62.05046" lon="5.52763">
        <ele>57.589434</ele>
        <time>2020-07-30T07:20:14.049Z</time>
      </trkpt>
      <trkpt lat="62.05054" lon="5.52754">
        <ele>57.515714</ele>
        <time>2020-07-30T07:20:16.019Z</time>
      </trkpt>
      <trkpt lat="62.05062" lon="5.52747">
        <ele>57.442143</ele>
        <time>2020-07-30T07:20:18.025Z</time>
      </trkpt>
      <trkpt lat="62.05071" lon="5.5274">
        <ele>57.364935</ele>
        <time>2020-07-30T07:20:20.069Z</time>
      </trkpt>
      <trkpt lat="62.05081" lon="5.52733">
        <ele>57.286083</ele>
        <time>2020-07-30T07:20:22.014Z</time>
      </trkpt>
      <trkpt lat="62.0509" lon="5.52727">
        <ele>57.207884</ele>
        <time>2020-07-30T07:20:24.028Z</time>
      </trkpt>
      <trkpt lat="62.05099" lon="5.52722">
        <ele>57.133707</ele>
        <time>2020-07-30T07:20:26.032Z</time>
      </trkpt>
      <trkpt lat="62.05108" lon="5.52718">
        <ele>57.060683</ele>
        <time>2020-07-30T07:20:28.032Z</time>
      </trkpt>
      <trkpt lat="62.0512" lon="5.52712">
        <ele>56.955058</ele>
        <time>2020-07-30T07:20:31.024Z</time>
      </trkpt>
      <trkpt lat="62.05133" lon="5.52706">
        <ele>56.850759</ele>
        <time>2020-07-30T07:20:34.036Z</time>
      </trkpt>
      <trkpt lat="62.05146" lon="5.52703">
        <ele>56.745997</ele>
        <time>2020-07-30T07:20:37.038Z</time>
      </trkpt>
      <trkpt lat="62.05158" lon="5.52699">
        <ele>56.647925</ele>
        <time>2020-07-30T07:20:40.013Z</time>
      </trkpt>
      <trkpt lat="62.0517" lon="5.52698">
        <ele>56.552801</ele>
        <time>2020-07-30T07:20:43.033Z</time>
      </trkpt>
      <trkpt lat="62.05181" lon="5.52698">
        <ele>56.714353</ele>
        <time>2020-07-30T07:20:46.035Z</time>
      </trkpt>
      <trkpt lat="62.05193" lon="5.52701">
        <ele>57.11635</ele>
        <time>2020-07-30T07:20:49.021Z</time>
      </trkpt>
      <trkpt lat="62.05205" lon="5.52704">
        <ele>57.570412</ele>
        <time>2020-07-30T07:20:52.054Z</time>
      </trkpt>
      <trkpt lat="62.05214" lon="5.52709">
        <ele>57.90289</ele>
        <time>2020-07-30T07:20:54.032Z</time>
      </trkpt>
      <trkpt lat="62.05224" lon="5.52712">
        <ele>58.233719</ele>
        <time>2020-07-30T07:20:56.050Z</time>
      </trkpt>
      <trkpt lat="62.05233" lon="5.52717">
        <ele>58.576223</ele>
        <time>2020-07-30T07:20:58.016Z</time>
      </trkpt>
      <trkpt lat="62.05242" lon="5.52722">
        <ele>58.917251</ele>
        <time>2020-07-30T07:21:00.017Z</time>
      </trkpt>
      <trkpt lat="62.05252" lon="5.52729">
        <ele>59.281409</ele>
        <time>2020-07-30T07:21:02.021Z</time>
      </trkpt>
      <trkpt lat="62.05262" lon="5.52736">
        <ele>59.63158</ele>
        <time>2020-07-30T07:21:04.068Z</time>
      </trkpt>
      <trkpt lat="62.05271" lon="5.52743">
        <ele>59.997124</ele>
        <time>2020-07-30T07:21:06.018Z</time>
      </trkpt>
      <trkpt lat="62.05281" lon="5.52748">
        <ele>60.362466</ele>
        <time>2020-07-30T07:21:08.035Z</time>
      </trkpt>
      <trkpt lat="62.05292" lon="5.52752">
        <ele>60.729248</ele>
        <time>2020-07-30T07:21:10.033Z</time>
      </trkpt>
      <trkpt lat="62.05302" lon="5.52756">
        <ele>61.105316</ele>
        <time>2020-07-30T07:21:12.039Z</time>
      </trkpt>
      <trkpt lat="62.05313" lon="5.52759">
        <ele>61.476627</ele>
        <time>2020-07-30T07:21:14.033Z</time>
      </trkpt>
      <trkpt lat="62.05323" lon="5.52761">
        <ele>61.852261</ele>
        <time>2020-07-30T07:21:16.041Z</time>
      </trkpt>
      <trkpt lat="62.05334" lon="5.52761">
        <ele>62.233995</ele>
        <time>2020-07-30T07:21:18.017Z</time>
      </trkpt>
      <trkpt lat="62.05345" lon="5.52761">
        <ele>62.619173</ele>
        <time>2020-07-30T07:21:20.034Z</time>
      </trkpt>
      <trkpt lat="62.05356" lon="5.5276">
        <ele>62.741491</ele>
        <time>2020-07-30T07:21:22.047Z</time>
      </trkpt>
      <trkpt lat="62.05367" lon="5.52758">
        <ele>62.413132</ele>
        <time>2020-07-30T07:21:24.032Z</time>
      </trkpt>
      <trkpt lat="62.05378" lon="5.52754">
        <ele>62.092299</ele>
        <time>2020-07-30T07:21:26.032Z</time>
      </trkpt>
      <trkpt lat="62.05389" lon="5.5275">
        <ele>61.78005</ele>
        <time>2020-07-30T07:21:28.044Z</time>
      </trkpt>
      <trkpt lat="62.05399" lon="5.52744">
        <ele>61.463963</ele>
        <time>2020-07-30T07:21:30.009Z</time>
      </trkpt>
      <trkpt lat="62.0541" lon="5.52738">
        <ele>61.1419</ele>
        <time>2020-07-30T07:21:32.021Z</time>
      </trkpt>
      <trkpt lat="62.05421" lon="5.52729">
        <ele>60.81669</ele>
        <time>2020-07-30T07:21:34.024Z</time>
      </trkpt>
      <trkpt lat="62.05431" lon="5.52721">
        <ele>60.492913</ele>
        <time>2020-07-30T07:21:36.024Z</time>
      </trkpt>
      <trkpt lat="62.05442" lon="5.52713">
        <ele>60.159114</ele>
        <time>2020-07-30T07:21:38.030Z</time>
      </trkpt>
      <trkpt lat="62.05452" lon="5.52704">
        <ele>59.836245</ele>
        <time>2020-07-30T07:21:40.014Z</time>
      </trkpt>
      <trkpt lat="62.05463" lon="5.52695">
        <ele>59.514414</ele>
        <time>2020-07-30T07:21:42.020Z</time>
      </trkpt>
      <trkpt lat="62.05473" lon="5.52685">
        <ele>59.186715</ele>
        <time>2020-07-30T07:21:44.037Z</time>
      </trkpt>
      <trkpt lat="62.05484" lon="5.52676">
        <ele>58.85146</ele>
        <time>2020-07-30T07:21:46.025Z</time>
      </trkpt>
      <trkpt lat="62.05494" lon="5.52667">
        <ele>58.530192</ele>
        <time>2020-07-30T07:21:48.018Z</time>
      </trkpt>
      <trkpt lat="62.05504" lon="5.52658">
        <ele>58.222145</ele>
        <time>2020-07-30T07:21:50.021Z</time>
      </trkpt>
      <trkpt lat="62.05514" lon="5.5265">
        <ele>57.916097</ele>
        <time>2020-07-30T07:21:52.054Z</time>
      </trkpt>
      <trkpt lat="62.05524" lon="5.52642">
        <ele>57.655557</ele>
        <time>2020-07-30T07:21:54.018Z</time>
      </trkpt>
      <trkpt lat="62.05535" lon="5.52634">
        <ele>57.621198</ele>
        <time>2020-07-30T07:21:56.032Z</time>
      </trkpt>
      <trkpt lat="62.05545" lon="5.52625">
        <ele>57.588695</ele>
        <time>2020-07-30T07:21:58.044Z</time>
      </trkpt>
      <trkpt lat="62.05555" lon="5.52617">
        <ele>57.556266</ele>
        <time>2020-07-30T07:22:00.036Z</time>
      </trkpt>
      <trkpt lat="62.05564" lon="5.52608">
        <ele>57.524431</ele>
        <time>2020-07-30T07:22:02.029Z</time>
      </trkpt>
      <trkpt lat="62.05574" lon="5.52599">
        <ele>57.4916</ele>
        <time>2020-07-30T07:22:04.027Z</time>
      </trkpt>
      <trkpt lat="62.05584" lon="5.52589">
        <ele>57.458788</ele>
        <time>2020-07-30T07:22:06.021Z</time>
      </trkpt>
      <trkpt lat="62.05593" lon="5.52579">
        <ele>57.426039</ele>
        <time>2020-07-30T07:22:08.039Z</time>
      </trkpt>
      <trkpt lat="62.05603" lon="5.5257">
        <ele>57.393313</ele>
        <time>2020-07-30T07:22:10.037Z</time>
      </trkpt>
      <trkpt lat="62.05613" lon="5.5256">
        <ele>57.361049</ele>
        <time>2020-07-30T07:22:12.024Z</time>
      </trkpt>
      <trkpt lat="62.05622" lon="5.52551">
        <ele>57.329554</ele>
        <time>2020-07-30T07:22:14.025Z</time>
      </trkpt>
      <trkpt lat="62.05632" lon="5.52543">
        <ele>57.298059</ele>
        <time>2020-07-30T07:22:16.014Z</time>
      </trkpt>
      <trkpt lat="62.05641" lon="5.52536">
        <ele>57.267158</ele>
        <time>2020-07-30T07:22:18.024Z</time>
      </trkpt>
      <trkpt lat="62.05651" lon="5.52529">
        <ele>57.235726</ele>
        <time>2020-07-30T07:22:20.027Z</time>
      </trkpt>
      <trkpt lat="62.05661" lon="5.52522">
        <ele>57.205495</ele>
        <time>2020-07-30T07:22:22.031Z</time>
      </trkpt>
      <trkpt lat="62.0567" lon="5.52515">
        <ele>57.174776</ele>
        <time>2020-07-30T07:22:24.045Z</time>
      </trkpt>
      <trkpt lat="62.0568" lon="5.52509">
        <ele>57.143142</ele>
        <time>2020-07-30T07:22:26.059Z</time>
      </trkpt>
      <trkpt lat="62.0569" lon="5.52503">
        <ele>57.114885</ele>
        <time>2020-07-30T07:22:28.013Z</time>
      </trkpt>
      <trkpt lat="62.057" lon="5.52498">
        <ele>57.118209</ele>
        <time>2020-07-30T07:22:30.046Z</time>
      </trkpt>
      <trkpt lat="62.05709" lon="5.52493">
        <ele>57.12151</ele>
        <time>2020-07-30T07:22:32.035Z</time>
      </trkpt>
      <trkpt lat="62.05719" lon="5.52488">
        <ele>57.124906</ele>
        <time>2020-07-30T07:22:34.043Z</time>
      </trkpt>
      <trkpt lat="62.0573" lon="5.52484">
        <ele>57.128446</ele>
        <time>2020-07-30T07:22:36.010Z</time>
      </trkpt>
      <trkpt lat="62.0574" lon="5.5248">
        <ele>57.131947</ele>
        <time>2020-07-30T07:22:38.016Z</time>
      </trkpt>
      <trkpt lat="62.0575" lon="5.52476">
        <ele>57.135481</ele>
        <time>2020-07-30T07:22:40.044Z</time>
      </trkpt>
      <trkpt lat="62.05761" lon="5.52472">
        <ele>57.139081</ele>
        <time>2020-07-30T07:22:42.015Z</time>
      </trkpt>
      <trkpt lat="62.05772" lon="5.52469">
        <ele>57.142686</ele>
        <time>2020-07-30T07:22:44.030Z</time>
      </trkpt>
      <trkpt lat="62.05782" lon="5.52466">
        <ele>57.146271</ele>
        <time>2020-07-30T07:22:46.025Z</time>
      </trkpt>
      <trkpt lat="62.05792" lon="5.52463">
        <ele>57.149617</ele>
        <time>2020-07-30T07:22:48.045Z</time>
      </trkpt>
      <trkpt lat="62.05802" lon="5.5246">
        <ele>57.152985</ele>
        <time>2020-07-30T07:22:50.033Z</time>
      </trkpt>
      <trkpt lat="62.05812" lon="5.52459">
        <ele>57.15637</ele>
        <time>2020-07-30T07:22:52.036Z</time>
      </trkpt>
      <trkpt lat="62.05822" lon="5.52457">
        <ele>57.159689</ele>
        <time>2020-07-30T07:22:54.043Z</time>
      </trkpt>
      <trkpt lat="62.05832" lon="5.52454">
        <ele>57.162976</ele>
        <time>2020-07-30T07:22:56.029Z</time>
      </trkpt>
      <trkpt lat="62.05842" lon="5.52451">
        <ele>57.166283</ele>
        <time>2020-07-30T07:22:58.061Z</time>
      </trkpt>
      <trkpt lat="62.05851" lon="5.5245">
        <ele>57.169431</ele>
        <time>2020-07-30T07:23:00.015Z</time>
      </trkpt>
      <trkpt lat="62.05861" lon="5.5245">
        <ele>57.172608</ele>
        <time>2020-07-30T07:23:02.030Z</time>
      </trkpt>
      <trkpt lat="62.0587" lon="5.52452">
        <ele>57.169582</ele>
        <time>2020-07-30T07:23:04.017Z</time>
      </trkpt>
      <trkpt lat="62.0588" lon="5.52453">
        <ele>57.154556</ele>
        <time>2020-07-30T07:23:06.016Z</time>
      </trkpt>
      <trkpt lat="62.0589" lon="5.52453">
        <ele>57.139385</ele>
        <time>2020-07-30T07:23:08.023Z</time>
      </trkpt>
      <trkpt lat="62.059" lon="5.52454">
        <ele>57.123449</ele>
        <time>2020-07-30T07:23:10.035Z</time>
      </trkpt>
      <trkpt lat="62.05911" lon="5.52454">
        <ele>57.107368</ele>
        <time>2020-07-30T07:23:12.037Z</time>
      </trkpt>
      <trkpt lat="62.05921" lon="5.52454">
        <ele>57.091894</ele>
        <time>2020-07-30T07:23:14.029Z</time>
      </trkpt>
      <trkpt lat="62.05931" lon="5.52455">
        <ele>57.076115</ele>
        <time>2020-07-30T07:23:16.042Z</time>
      </trkpt>
      <trkpt lat="62.05941" lon="5.52456">
        <ele>57.06048</ele>
        <time>2020-07-30T07:23:18.033Z</time>
      </trkpt>
      <trkpt lat="62.05951" lon="5.52456">
        <ele>57.045318</ele>
        <time>2020-07-30T07:23:20.019Z</time>
      </trkpt>
      <trkpt lat="62.05961" lon="5.52456">
        <ele>57.030309</ele>
        <time>2020-07-30T07:23:22.036Z</time>
      </trkpt>
      <trkpt lat="62.05971" lon="5.52456">
        <ele>57.015452</ele>
        <time>2020-07-30T07:23:24.013Z</time>
      </trkpt>
      <trkpt lat="62.05981" lon="5.52455">
        <ele>57.00041</ele>
        <time>2020-07-30T07:23:26.027Z</time>
      </trkpt>
      <trkpt lat="62.0599" lon="5.52453">
        <ele>56.985644</ele>
        <time>2020-07-30T07:23:28.042Z</time>
      </trkpt>
      <trkpt lat="62.06" lon="5.52451">
        <ele>56.971044</ele>
        <time>2020-07-30T07:23:30.032Z</time>
      </trkpt>
      <trkpt lat="62.06009" lon="5.52448">
        <ele>56.95684</ele>
        <time>2020-07-30T07:23:32.014Z</time>
      </trkpt>
      <trkpt lat="62.06022" lon="5.52444">
        <ele>56.93653</ele>
        <time>2020-07-30T07:23:35.029Z</time>
      </trkpt>
      <trkpt lat="62.06035" lon="5.5244">
        <ele>56.91636</ele>
        <time>2020-07-30T07:23:38.016Z</time>
      </trkpt>
      <trkpt lat="62.06047" lon="5.52435">
        <ele>56.922155</ele>
        <time>2020-07-30T07:23:41.096Z</time>
      </trkpt>
      <trkpt lat="62.06058" lon="5.52431">
        <ele>57.149037</ele>
        <time>2020-07-30T07:23:44.013Z</time>
      </trkpt>
      <trkpt lat="62.0607" lon="5.52428">
        <ele>57.384527</ele>
        <time>2020-07-30T07:23:47.064Z</time>
      </trkpt>
      <trkpt lat="62.06082" lon="5.52425">
        <ele>57.624097</ele>
        <time>2020-07-30T07:23:50.030Z</time>
      </trkpt>
      <trkpt lat="62.06094" lon="5.52421">
        <ele>57.874688</ele>
        <time>2020-07-30T07:23:53.015Z</time>
      </trkpt>
      <trkpt lat="62.06107" lon="5.5242">
        <ele>58.132842</ele>
        <time>2020-07-30T07:23:56.017Z</time>
      </trkpt>
      <trkpt lat="62.06121" lon="5.52421">
        <ele>58.40511</ele>
        <time>2020-07-30T07:23:59.040Z</time>
      </trkpt>
      <trkpt lat="62.0613" lon="5.52424">
        <ele>58.58843</ele>
        <time>2020-07-30T07:24:01.023Z</time>
      </trkpt>
      <trkpt lat="62.06139" lon="5.52427">
        <ele>58.774499</ele>
        <time>2020-07-30T07:24:03.069Z</time>
      </trkpt>
      <trkpt lat="62.06148" lon="5.52429">
        <ele>58.961376</ele>
        <time>2020-07-30T07:24:05.071Z</time>
      </trkpt>
      <trkpt lat="62.06158" lon="5.52434">
        <ele>59.163271</ele>
        <time>2020-07-30T07:24:07.034Z</time>
      </trkpt>
      <trkpt lat="62.06168" lon="5.52439">
        <ele>59.363</ele>
        <time>2020-07-30T07:24:09.040Z</time>
      </trkpt>
      <trkpt lat="62.06178" lon="5.52444">
        <ele>59.564671</ele>
        <time>2020-07-30T07:24:11.014Z</time>
      </trkpt>
      <trkpt lat="62.06188" lon="5.52449">
        <ele>59.772614</ele>
        <time>2020-07-30T07:24:13.026Z</time>
      </trkpt>
      <trkpt lat="62.06198" lon="5.52454">
        <ele>59.97834</ele>
        <time>2020-07-30T07:24:15.044Z</time>
      </trkpt>
      <trkpt lat="62.06208" lon="5.52459">
        <ele>60.193843</ele>
        <time>2020-07-30T07:24:17.029Z</time>
      </trkpt>
      <trkpt lat="62.06219" lon="5.52465">
        <ele>60.418897</ele>
        <time>2020-07-30T07:24:19.045Z</time>
      </trkpt>
      <trkpt lat="62.0623" lon="5.52469">
        <ele>60.515614</ele>
        <time>2020-07-30T07:24:21.025Z</time>
      </trkpt>
      <trkpt lat="62.06241" lon="5.52472">
        <ele>60.545588</ele>
        <time>2020-07-30T07:24:23.047Z</time>
      </trkpt>
      <trkpt lat="62.06251" lon="5.52475">
        <ele>60.574595</ele>
        <time>2020-07-30T07:24:25.020Z</time>
      </trkpt>
      <trkpt lat="62.06261" lon="5.52477">
        <ele>60.601839</ele>
        <time>2020-07-30T07:24:27.024Z</time>
      </trkpt>
      <trkpt lat="62.0627" lon="5.52477">
        <ele>60.628702</ele>
        <time>2020-07-30T07:24:29.050Z</time>
      </trkpt>
      <trkpt lat="62.0628" lon="5.52475">
        <ele>60.654831</ele>
        <time>2020-07-30T07:24:31.032Z</time>
      </trkpt>
      <trkpt lat="62.06289" lon="5.52471">
        <ele>60.680728</ele>
        <time>2020-07-30T07:24:33.052Z</time>
      </trkpt>
      <trkpt lat="62.06298" lon="5.52467">
        <ele>60.707354</ele>
        <time>2020-07-30T07:24:35.048Z</time>
      </trkpt>
      <trkpt lat="62.06307" lon="5.52463">
        <ele>60.733379</ele>
        <time>2020-07-30T07:24:37.019Z</time>
      </trkpt>
      <trkpt lat="62.0632" lon="5.52457">
        <ele>60.770737</ele>
        <time>2020-07-30T07:24:40.018Z</time>
      </trkpt>
      <trkpt lat="62.06333" lon="5.52452">
        <ele>60.806347</ele>
        <time>2020-07-30T07:24:43.052Z</time>
      </trkpt>
      <trkpt lat="62.06345" lon="5.52447">
        <ele>60.840718</ele>
        <time>2020-07-30T07:24:46.024Z</time>
      </trkpt>
      <trkpt lat="62.06357" lon="5.5244">
        <ele>60.874817</ele>
        <time>2020-07-30T07:24:49.024Z</time>
      </trkpt>
      <trkpt lat="62.06369" lon="5.52435">
        <ele>60.908833</ele>
        <time>2020-07-30T07:24:52.033Z</time>
      </trkpt>
      <trkpt lat="62.06381" lon="5.52429">
        <ele>60.94375</ele>
        <time>2020-07-30T07:24:55.028Z</time>
      </trkpt>
      <trkpt lat="62.06391" lon="5.52422">
        <ele>60.972585</ele>
        <time>2020-07-30T07:24:58.033Z</time>
      </trkpt>
      <trkpt lat="62.06402" lon="5.52418">
        <ele>61.022228</ele>
        <time>2020-07-30T07:25:01.024Z</time>
      </trkpt>
      <trkpt lat="62.06414" lon="5.5241">
        <ele>61.174118</ele>
        <time>2020-07-30T07:25:04.057Z</time>
      </trkpt>
      <trkpt lat="62.06424" lon="5.52406">
        <ele>61.283779</ele>
        <time>2020-07-30T07:25:06.036Z</time>
      </trkpt>
      <trkpt lat="62.06433" lon="5.52403">
        <ele>61.397775</ele>
        <time>2020-07-30T07:25:08.019Z</time>
      </trkpt>
      <trkpt lat="62.06443" lon="5.52398">
        <ele>61.517621</ele>
        <time>2020-07-30T07:25:10.034Z</time>
      </trkpt>
      <trkpt lat="62.06453" lon="5.52393">
        <ele>61.633492</ele>
        <time>2020-07-30T07:25:12.013Z</time>
      </trkpt>
      <trkpt lat="62.06463" lon="5.5239">
        <ele>61.747855</ele>
        <time>2020-07-30T07:25:14.043Z</time>
      </trkpt>
      <trkpt lat="62.06473" lon="5.52388">
        <ele>61.862967</ele>
        <time>2020-07-30T07:25:16.029Z</time>
      </trkpt>
      <trkpt lat="62.06483" lon="5.52386">
        <ele>61.974515</ele>
        <time>2020-07-30T07:25:18.012Z</time>
      </trkpt>
      <trkpt lat="62.06492" lon="5.52384">
        <ele>62.084627</ele>
        <time>2020-07-30T07:25:20.022Z</time>
      </trkpt>
      <trkpt lat="62.06501" lon="5.52382">
        <ele>62.193769</ele>
        <time>2020-07-30T07:25:22.051Z</time>
      </trkpt>
      <trkpt lat="62.06511" lon="5.52381">
        <ele>62.302728</ele>
        <time>2020-07-30T07:25:24.018Z</time>
      </trkpt>
      <trkpt lat="62.0652" lon="5.5238">
        <ele>62.406999</ele>
        <time>2020-07-30T07:25:26.042Z</time>
      </trkpt>
      <trkpt lat="62.06533" lon="5.52379">
        <ele>62.561906</ele>
        <time>2020-07-30T07:25:29.041Z</time>
      </trkpt>
      <trkpt lat="62.06542" lon="5.52379">
        <ele>62.668252</ele>
        <time>2020-07-30T07:25:31.011Z</time>
      </trkpt>
      <trkpt lat="62.06551" lon="5.52378">
        <ele>62.772454</ele>
        <time>2020-07-30T07:25:33.025Z</time>
      </trkpt>
      <trkpt lat="62.06561" lon="5.52377">
        <ele>62.877693</ele>
        <time>2020-07-30T07:25:35.011Z</time>
      </trkpt>
      <trkpt lat="62.06573" lon="5.52377">
        <ele>63.025651</ele>
        <time>2020-07-30T07:25:38.028Z</time>
      </trkpt>
      <trkpt lat="62.06587" lon="5.52379">
        <ele>63.326875</ele>
        <time>2020-07-30T07:25:41.015Z</time>
      </trkpt>
      <trkpt lat="62.06599" lon="5.52379">
        <ele>63.682876</ele>
        <time>2020-07-30T07:25:44.038Z</time>
      </trkpt>
      <trkpt lat="62.06612" lon="5.5238">
        <ele>64.044873</ele>
        <time>2020-07-30T07:25:47.032Z</time>
      </trkpt>
      <trkpt lat="62.06625" lon="5.52381">
        <ele>64.423744</ele>
        <time>2020-07-30T07:25:50.025Z</time>
      </trkpt>
      <trkpt lat="62.06639" lon="5.52382">
        <ele>64.79969</ele>
        <time>2020-07-30T07:25:53.037Z</time>
      </trkpt>
      <trkpt lat="62.06651" lon="5.52381">
        <ele>65.152894</ele>
        <time>2020-07-30T07:25:56.013Z</time>
      </trkpt>
      <trkpt lat="62.06664" lon="5.52384">
        <ele>65.516243</ele>
        <time>2020-07-30T07:25:59.048Z</time>
      </trkpt>
      <trkpt lat="62.06677" lon="5.52388">
        <ele>65.884481</ele>
        <time>2020-07-30T07:26:02.053Z</time>
      </trkpt>
      <trkpt lat="62.0669" lon="5.5239">
        <ele>66.243793</ele>
        <time>2020-07-30T07:26:05.061Z</time>
      </trkpt>
      <trkpt lat="62.06702" lon="5.52392">
        <ele>66.592588</ele>
        <time>2020-07-30T07:26:08.045Z</time>
      </trkpt>
      <trkpt lat="62.06712" lon="5.52386">
        <ele>66.88532</ele>
        <time>2020-07-30T07:26:11.021Z</time>
      </trkpt>
      <trkpt lat="62.0672" lon="5.52367">
        <ele>67.218966</ele>
        <time>2020-07-30T07:26:14.054Z</time>
      </trkpt>
      <trkpt lat="62.06727" lon="5.52357">
        <ele>67.474959</ele>
        <time>2020-07-30T07:26:16.047Z</time>
      </trkpt>
      <trkpt lat="62.06739" lon="5.52355">
        <ele>67.808743</ele>
        <time>2020-07-30T07:26:18.069Z</time>
      </trkpt>
      <trkpt lat="62.06751" lon="5.52361">
        <ele>68.154783</ele>
        <time>2020-07-30T07:26:20.033Z</time>
      </trkpt>
      <trkpt lat="62.06762" lon="5.52366">
        <ele>67.808006</ele>
        <time>2020-07-30T07:26:22.044Z</time>
      </trkpt>
      <trkpt lat="62.06772" lon="5.52365">
        <ele>67.499841</ele>
        <time>2020-07-30T07:26:24.033Z</time>
      </trkpt>
      <trkpt lat="62.06782" lon="5.52361">
        <ele>67.174823</ele>
        <time>2020-07-30T07:26:26.075Z</time>
      </trkpt>
      <trkpt lat="62.06792" lon="5.52358">
        <ele>66.840665</ele>
        <time>2020-07-30T07:26:28.031Z</time>
      </trkpt>
      <trkpt lat="62.06803" lon="5.52354">
        <ele>66.503136</ele>
        <time>2020-07-30T07:26:30.015Z</time>
      </trkpt>
      <trkpt lat="62.06812" lon="5.5235">
        <ele>66.192626</ele>
        <time>2020-07-30T07:26:32.016Z</time>
      </trkpt>
      <trkpt lat="62.06821" lon="5.52345">
        <ele>65.893603</ele>
        <time>2020-07-30T07:26:34.023Z</time>
      </trkpt>
      <trkpt lat="62.06835" lon="5.5234">
        <ele>65.470159</ele>
        <time>2020-07-30T07:26:37.016Z</time>
      </trkpt>
      <trkpt lat="62.06847" lon="5.52337">
        <ele>65.083458</ele>
        <time>2020-07-30T07:26:40.018Z</time>
      </trkpt>
      <trkpt lat="62.06859" lon="5.52339">
        <ele>64.701195</ele>
        <time>2020-07-30T07:26:43.038Z</time>
      </trkpt>
      <trkpt lat="62.06872" lon="5.52344">
        <ele>64.278858</ele>
        <time>2020-07-30T07:26:46.029Z</time>
      </trkpt>
      <trkpt lat="62.06881" lon="5.52347">
        <ele>63.974894</ele>
        <time>2020-07-30T07:26:48.024Z</time>
      </trkpt>
      <trkpt lat="62.06891" lon="5.5235">
        <ele>63.663817</ele>
        <time>2020-07-30T07:26:50.034Z</time>
      </trkpt>
      <trkpt lat="62.06901" lon="5.52353">
        <ele>63.346466</ele>
        <time>2020-07-30T07:26:52.025Z</time>
      </trkpt>
      <trkpt lat="62.0691" lon="5.52357">
        <ele>63.035359</ele>
        <time>2020-07-30T07:26:54.034Z</time>
      </trkpt>
      <trkpt lat="62.0692" lon="5.52362">
        <ele>62.730821</ele>
        <time>2020-07-30T07:26:56.039Z</time>
      </trkpt>
      <trkpt lat="62.06928" lon="5.52368">
        <ele>62.445856</ele>
        <time>2020-07-30T07:26:58.033Z</time>
      </trkpt>
      <trkpt lat="62.06937" lon="5.52374">
        <ele>62.211413</ele>
        <time>2020-07-30T07:27:00.031Z</time>
      </trkpt>
      <trkpt lat="62.06946" lon="5.52381">
        <ele>61.966152</ele>
        <time>2020-07-30T07:27:02.019Z</time>
      </trkpt>
      <trkpt lat="62.06955" lon="5.52388">
        <ele>61.729309</ele>
        <time>2020-07-30T07:27:04.020Z</time>
      </trkpt>
      <trkpt lat="62.06967" lon="5.52399">
        <ele>61.387592</ele>
        <time>2020-07-30T07:27:07.062Z</time>
      </trkpt>
      <trkpt lat="62.06979" lon="5.5241">
        <ele>61.062302</ele>
        <time>2020-07-30T07:27:10.055Z</time>
      </trkpt>
      <trkpt lat="62.0699" lon="5.52418">
        <ele>60.760137</ele>
        <time>2020-07-30T07:27:13.031Z</time>
      </trkpt>
      <trkpt lat="62.07001" lon="5.52429">
        <ele>60.460407</ele>
        <time>2020-07-30T07:27:16.033Z</time>
      </trkpt>
      <trkpt lat="62.07012" lon="5.52441">
        <ele>60.150134</ele>
        <time>2020-07-30T07:27:19.042Z</time>
      </trkpt>
      <trkpt lat="62.07022" lon="5.52454">
        <ele>59.840982</ele>
        <time>2020-07-30T07:27:22.079Z</time>
      </trkpt>
      <trkpt lat="62.07033" lon="5.52465">
        <ele>59.533311</ele>
        <time>2020-07-30T07:27:25.015Z</time>
      </trkpt>
      <trkpt lat="62.07044" lon="5.52477">
        <ele>59.224285</ele>
        <time>2020-07-30T07:27:28.019Z</time>
      </trkpt>
      <trkpt lat="62.07054" lon="5.52488">
        <ele>58.923519</ele>
        <time>2020-07-30T07:27:31.012Z</time>
      </trkpt>
      <trkpt lat="62.07064" lon="5.52498">
        <ele>58.642348</ele>
        <time>2020-07-30T07:27:34.023Z</time>
      </trkpt>
      <trkpt lat="62.07074" lon="5.52507">
        <ele>58.360214</ele>
        <time>2020-07-30T07:27:37.033Z</time>
      </trkpt>
      <trkpt lat="62.07084" lon="5.52514">
        <ele>58.088856</ele>
        <time>2020-07-30T07:27:40.072Z</time>
      </trkpt>
      <trkpt lat="62.07094" lon="5.52521">
        <ele>57.887162</ele>
        <time>2020-07-30T07:27:43.015Z</time>
      </trkpt>
      <trkpt lat="62.07104" lon="5.52528">
        <ele>58.084284</ele>
        <time>2020-07-30T07:27:46.030Z</time>
      </trkpt>
      <trkpt lat="62.07115" lon="5.52532">
        <ele>58.295717</ele>
        <time>2020-07-30T07:27:49.030Z</time>
      </trkpt>
      <trkpt lat="62.07127" lon="5.52534">
        <ele>58.539618</ele>
        <time>2020-07-30T07:27:52.114Z</time>
      </trkpt>
      <trkpt lat="62.0714" lon="5.52531">
        <ele>58.792168</ele>
        <time>2020-07-30T07:27:55.033Z</time>
      </trkpt>
      <trkpt lat="62.07149" lon="5.52526">
        <ele>58.969172</ele>
        <time>2020-07-30T07:27:57.023Z</time>
      </trkpt>
      <trkpt lat="62.07158" lon="5.52517">
        <ele>59.160762</ele>
        <time>2020-07-30T07:27:59.044Z</time>
      </trkpt>
      <trkpt lat="62.07169" lon="5.52507">
        <ele>59.376445</ele>
        <time>2020-07-30T07:28:01.042Z</time>
      </trkpt>
      <trkpt lat="62.07178" lon="5.52497">
        <ele>59.576191</ele>
        <time>2020-07-30T07:28:03.081Z</time>
      </trkpt>
      <trkpt lat="62.07187" lon="5.52487">
        <ele>59.767021</ele>
        <time>2020-07-30T07:28:05.050Z</time>
      </trkpt>
      <trkpt lat="62.07195" lon="5.52477">
        <ele>59.959964</ele>
        <time>2020-07-30T07:28:07.029Z</time>
      </trkpt>
      <trkpt lat="62.07204" lon="5.52467">
        <ele>60.14832</ele>
        <time>2020-07-30T07:28:09.030Z</time>
      </trkpt>
      <trkpt lat="62.07215" lon="5.52457">
        <ele>60.381196</ele>
        <time>2020-07-30T07:28:12.038Z</time>
      </trkpt>
      <trkpt lat="62.07226" lon="5.52449">
        <ele>60.59627</ele>
        <time>2020-07-30T07:28:15.032Z</time>
      </trkpt>
      <trkpt lat="62.07236" lon="5.52451">
        <ele>60.794442</ele>
        <time>2020-07-30T07:28:18.060Z</time>
      </trkpt>
      <trkpt lat="62.07247" lon="5.52463">
        <ele>61.029283</ele>
        <time>2020-07-30T07:28:21.039Z</time>
      </trkpt>
      <trkpt lat="62.07257" lon="5.52482">
        <ele>61.279166</ele>
        <time>2020-07-30T07:28:24.027Z</time>
      </trkpt>
      <trkpt lat="62.07265" lon="5.52503">
        <ele>61.476184</ele>
        <time>2020-07-30T07:28:27.024Z</time>
      </trkpt>
      <trkpt lat="62.07273" lon="5.5252">
        <ele>61.648075</ele>
        <time>2020-07-30T07:28:30.018Z</time>
      </trkpt>
      <trkpt lat="62.07285" lon="5.52532">
        <ele>61.842366</ele>
        <time>2020-07-30T07:28:33.028Z</time>
      </trkpt>
      <trkpt lat="62.07294" lon="5.52537">
        <ele>61.978331</ele>
        <time>2020-07-30T07:28:35.020Z</time>
      </trkpt>
      <trkpt lat="62.07306" lon="5.52541">
        <ele>62.171328</ele>
        <time>2020-07-30T07:28:38.039Z</time>
      </trkpt>
      <trkpt lat="62.07319" lon="5.52541">
        <ele>62.360699</ele>
        <time>2020-07-30T07:28:41.018Z</time>
      </trkpt>
      <trkpt lat="62.07332" lon="5.52538">
        <ele>62.550072</ele>
        <time>2020-07-30T07:28:44.037Z</time>
      </trkpt>
      <trkpt lat="62.07344" lon="5.52534">
        <ele>62.736577</ele>
        <time>2020-07-30T07:28:47.060Z</time>
      </trkpt>
      <trkpt lat="62.07356" lon="5.5253">
        <ele>62.915562</ele>
        <time>2020-07-30T07:28:50.032Z</time>
      </trkpt>
      <trkpt lat="62.07367" lon="5.52524">
        <ele>63.085794</ele>
        <time>2020-07-30T07:28:53.049Z</time>
      </trkpt>
      <trkpt lat="62.07377" lon="5.52517">
        <ele>63.247573</ele>
        <time>2020-07-30T07:28:56.026Z</time>
      </trkpt>
      <trkpt lat="62.07387" lon="5.52512">
        <ele>63.389128</ele>
        <time>2020-07-30T07:28:59.023Z</time>
      </trkpt>
      <trkpt lat="62.07397" lon="5.52509">
        <ele>63.541482</ele>
        <time>2020-07-30T07:29:03.021Z</time>
      </trkpt>
      <trkpt lat="62.07406" lon="5.52512">
        <ele>63.676059</ele>
        <time>2020-07-30T07:29:07.021Z</time>
      </trkpt>
      <trkpt lat="62.07414" lon="5.52522">
        <ele>63.813584</ele>
        <time>2020-07-30T07:29:11.036Z</time>
      </trkpt>
      <trkpt lat="62.07421" lon="5.52536">
        <ele>63.962144</ele>
        <time>2020-07-30T07:29:15.044Z</time>
      </trkpt>
      <trkpt lat="62.07429" lon="5.52552">
        <ele>64.102152</ele>
        <time>2020-07-30T07:29:19.064Z</time>
      </trkpt>
      <trkpt lat="62.07436" lon="5.52569">
        <ele>64.231451</ele>
        <time>2020-07-30T07:29:23.040Z</time>
      </trkpt>
      <trkpt lat="62.07443" lon="5.52587">
        <ele>64.363579</ele>
        <time>2020-07-30T07:29:26.050Z</time>
      </trkpt>
      <trkpt lat="62.07448" lon="5.52606">
        <ele>64.488851</ele>
        <time>2020-07-30T07:29:28.042Z</time>
      </trkpt>
      <trkpt lat="62.0745" lon="5.52633">
        <ele>64.643016</ele>
        <time>2020-07-30T07:29:30.038Z</time>
      </trkpt>
      <trkpt lat="62.0745" lon="5.52661">
        <ele>64.806972</ele>
        <time>2020-07-30T07:29:32.053Z</time>
      </trkpt>
      <trkpt lat="62.07448" lon="5.52692">
        <ele>64.983128</ele>
        <time>2020-07-30T07:29:34.026Z</time>
      </trkpt>
      <trkpt lat="62.07443" lon="5.52721">
        <ele>65.161073</ele>
        <time>2020-07-30T07:29:36.043Z</time>
      </trkpt>
      <trkpt lat="62.07436" lon="5.52748">
        <ele>65.341182</ele>
        <time>2020-07-30T07:29:38.036Z</time>
      </trkpt>
      <trkpt lat="62.07428" lon="5.5277">
        <ele>65.500561</ele>
        <time>2020-07-30T07:29:40.067Z</time>
      </trkpt>
      <trkpt lat="62.07421" lon="5.5279">
        <ele>65.639299</ele>
        <time>2020-07-30T07:29:42.018Z</time>
      </trkpt>
      <trkpt lat="62.07416" lon="5.52807">
        <ele>65.755896</ele>
        <time>2020-07-30T07:29:44.033Z</time>
      </trkpt>
      <trkpt lat="62.07409" lon="5.52828">
        <ele>65.899178</ele>
        <time>2020-07-30T07:29:47.021Z</time>
      </trkpt>
      <trkpt lat="62.07405" lon="5.52851">
        <ele>66.041679</ele>
        <time>2020-07-30T07:29:50.058Z</time>
      </trkpt>
      <trkpt lat="62.07401" lon="5.52879">
        <ele>66.188338</ele>
        <time>2020-07-30T07:29:53.018Z</time>
      </trkpt>
      <trkpt lat="62.07399" lon="5.529">
        <ele>66.097119</ele>
        <time>2020-07-30T07:29:55.006Z</time>
      </trkpt>
      <trkpt lat="62.07396" lon="5.52922">
        <ele>66.004468</ele>
        <time>2020-07-30T07:29:57.013Z</time>
      </trkpt>
      <trkpt lat="62.07394" lon="5.52943">
        <ele>65.914269</ele>
        <time>2020-07-30T07:29:59.072Z</time>
      </trkpt>
      <trkpt lat="62.07393" lon="5.52964">
        <ele>65.82377</ele>
        <time>2020-07-30T07:30:01.057Z</time>
      </trkpt>
      <trkpt lat="62.07391" lon="5.52986">
        <ele>65.73396</ele>
        <time>2020-07-30T07:30:03.014Z</time>
      </trkpt>
      <trkpt lat="62.0739" lon="5.53007">
        <ele>65.645167</ele>
        <time>2020-07-30T07:30:05.055Z</time>
      </trkpt>
      <trkpt lat="62.07389" lon="5.53028">
        <ele>65.556573</ele>
        <time>2020-07-30T07:30:07.019Z</time>
      </trkpt>
      <trkpt lat="62.07387" lon="5.53055">
        <ele>65.440465</ele>
        <time>2020-07-30T07:30:10.070Z</time>
      </trkpt>
      <trkpt lat="62.07388" lon="5.5308">
        <ele>65.335811</ele>
        <time>2020-07-30T07:30:13.025Z</time>
      </trkpt>
      <trkpt lat="62.07388" lon="5.53104">
        <ele>65.235418</ele>
        <time>2020-07-30T07:30:16.049Z</time>
      </trkpt>
      <trkpt lat="62.07388" lon="5.53128">
        <ele>65.135041</ele>
        <time>2020-07-30T07:30:19.032Z</time>
      </trkpt>
      <trkpt lat="62.07388" lon="5.53152">
        <ele>65.033792</ele>
        <time>2020-07-30T07:30:22.023Z</time>
      </trkpt>
      <trkpt lat="62.07389" lon="5.53176">
        <ele>64.934509</ele>
        <time>2020-07-30T07:30:25.032Z</time>
      </trkpt>
      <trkpt lat="62.07391" lon="5.53199">
        <ele>64.838218</ele>
        <time>2020-07-30T07:30:28.032Z</time>
      </trkpt>
      <trkpt lat="62.07393" lon="5.53221">
        <ele>64.741676</ele>
        <time>2020-07-30T07:30:31.019Z</time>
      </trkpt>
      <trkpt lat="62.07396" lon="5.53244">
        <ele>64.643989</ele>
        <time>2020-07-30T07:30:34.073Z</time>
      </trkpt>
      <trkpt lat="62.074" lon="5.5327">
        <ele>64.680648</ele>
        <time>2020-07-30T07:30:37.053Z</time>
      </trkpt>
      <trkpt lat="62.07403" lon="5.53291">
        <ele>64.804103</ele>
        <time>2020-07-30T07:30:39.052Z</time>
      </trkpt>
      <trkpt lat="62.07405" lon="5.53313">
        <ele>64.932285</ele>
        <time>2020-07-30T07:30:41.044Z</time>
      </trkpt>
      <trkpt lat="62.07407" lon="5.53334">
        <ele>65.055337</ele>
        <time>2020-07-30T07:30:43.025Z</time>
      </trkpt>
      <trkpt lat="62.07409" lon="5.53356">
        <ele>65.17854</ele>
        <time>2020-07-30T07:30:45.029Z</time>
      </trkpt>
      <trkpt lat="62.0741" lon="5.53375">
        <ele>65.290714</ele>
        <time>2020-07-30T07:30:47.061Z</time>
      </trkpt>
      <trkpt lat="62.07412" lon="5.53402">
        <ele>65.446833</ele>
        <time>2020-07-30T07:30:50.033Z</time>
      </trkpt>
      <trkpt lat="62.07414" lon="5.53427">
        <ele>65.59475</ele>
        <time>2020-07-30T07:30:53.017Z</time>
      </trkpt>
      <trkpt lat="62.07416" lon="5.53453">
        <ele>65.742595</ele>
        <time>2020-07-30T07:30:56.083Z</time>
      </trkpt>
      <trkpt lat="62.07418" lon="5.53479">
        <ele>65.891797</ele>
        <time>2020-07-30T07:30:59.063Z</time>
      </trkpt>
      <trkpt lat="62.07419" lon="5.53504">
        <ele>66.037372</ele>
        <time>2020-07-30T07:31:02.040Z</time>
      </trkpt>
      <trkpt lat="62.07419" lon="5.53528">
        <ele>66.174463</ele>
        <time>2020-07-30T07:31:05.033Z</time>
      </trkpt>
      <trkpt lat="62.07419" lon="5.53551">
        <ele>66.30534</ele>
        <time>2020-07-30T07:31:08.034Z</time>
      </trkpt>
      <trkpt lat="62.0742" lon="5.53574">
        <ele>66.43783</ele>
        <time>2020-07-30T07:31:11.032Z</time>
      </trkpt>
      <trkpt lat="62.07421" lon="5.53597">
        <ele>66.567497</ele>
        <time>2020-07-30T07:31:14.055Z</time>
      </trkpt>
      <trkpt lat="62.07421" lon="5.53621">
        <ele>66.705794</ele>
        <time>2020-07-30T07:31:17.021Z</time>
      </trkpt>
      <trkpt lat="62.07422" lon="5.53644">
        <ele>66.86791</ele>
        <time>2020-07-30T07:31:20.026Z</time>
      </trkpt>
      <trkpt lat="62.07422" lon="5.53666">
        <ele>67.058388</ele>
        <time>2020-07-30T07:31:23.059Z</time>
      </trkpt>
      <trkpt lat="62.07422" lon="5.5369">
        <ele>67.273784</ele>
        <time>2020-07-30T07:31:26.039Z</time>
      </trkpt>
      <trkpt lat="62.07422" lon="5.53716">
        <ele>67.505538</ele>
        <time>2020-07-30T07:31:29.034Z</time>
      </trkpt>
      <trkpt lat="62.07421" lon="5.53742">
        <ele>67.734292</ele>
        <time>2020-07-30T07:31:32.037Z</time>
      </trkpt>
      <trkpt lat="62.07421" lon="5.53768">
        <ele>67.959253</ele>
        <time>2020-07-30T07:31:35.032Z</time>
      </trkpt>
      <trkpt lat="62.07421" lon="5.53792">
        <ele>68.174475</ele>
        <time>2020-07-30T07:31:38.016Z</time>
      </trkpt>
      <trkpt lat="62.0742" lon="5.53816">
        <ele>68.392353</ele>
        <time>2020-07-30T07:31:41.072Z</time>
      </trkpt>
      <trkpt lat="62.0742" lon="5.53841">
        <ele>68.606732</ele>
        <time>2020-07-30T07:31:44.033Z</time>
      </trkpt>
      <trkpt lat="62.0742" lon="5.53863">
        <ele>68.806016</ele>
        <time>2020-07-30T07:31:47.026Z</time>
      </trkpt>
      <trkpt lat="62.0742" lon="5.53883">
        <ele>68.98047</ele>
        <time>2020-07-30T07:31:50.020Z</time>
      </trkpt>
      <trkpt lat="62.0742" lon="5.53906">
        <ele>69.18327</ele>
        <time>2020-07-30T07:31:55.060Z</time>
      </trkpt>
      <trkpt lat="62.0742" lon="5.53929">
        <ele>69.386955</ele>
        <time>2020-07-30T07:32:00.038Z</time>
      </trkpt>
      <trkpt lat="62.07421" lon="5.53953">
        <ele>69.600025</ele>
        <time>2020-07-30T07:32:05.056Z</time>
      </trkpt>
      <trkpt lat="62.07422" lon="5.53977">
        <ele>69.819743</ele>
        <time>2020-07-30T07:32:09.040Z</time>
      </trkpt>
      <trkpt lat="62.07423" lon="5.53997">
        <ele>69.994697</ele>
        <time>2020-07-30T07:32:12.018Z</time>
      </trkpt>
      <trkpt lat="62.07425" lon="5.54022">
        <ele>70.283075</ele>
        <time>2020-07-30T07:32:16.025Z</time>
      </trkpt>
      <trkpt lat="62.07426" lon="5.54043">
        <ele>70.94493</ele>
        <time>2020-07-30T07:32:20.033Z</time>
      </trkpt>
      <trkpt lat="62.07428" lon="5.54065">
        <ele>71.626488</ele>
        <time>2020-07-30T07:32:25.049Z</time>
      </trkpt>
      <trkpt lat="62.07433" lon="5.54086">
        <ele>72.326604</ele>
        <time>2020-07-30T07:32:30.036Z</time>
      </trkpt>
      <trkpt lat="62.07438" lon="5.54104">
        <ele>72.96748</ele>
        <time>2020-07-30T07:32:35.032Z</time>
      </trkpt>
      <trkpt lat="62.07442" lon="5.54124">
        <ele>73.645375</ele>
        <time>2020-07-30T07:32:41.020Z</time>
      </trkpt>
      <trkpt lat="62.07447" lon="5.5414">
        <ele>74.238272</ele>
        <time>2020-07-30T07:32:46.028Z</time>
      </trkpt>
      <trkpt lat="62.07453" lon="5.54158">
        <ele>74.895813</ele>
        <time>2020-07-30T07:32:52.011Z</time>
      </trkpt>
      <trkpt lat="62.07458" lon="5.54176">
        <ele>75.49912</ele>
        <time>2020-07-30T07:32:58.049Z</time>
      </trkpt>
      <trkpt lat="62.07463" lon="5.54195">
        <ele>76.181909</ele>
        <time>2020-07-30T07:33:05.029Z</time>
      </trkpt>
      <trkpt lat="62.07467" lon="5.54214">
        <ele>76.821203</ele>
        <time>2020-07-30T07:33:12.026Z</time>
      </trkpt>
      <trkpt lat="62.07472" lon="5.54232">
        <ele>77.456268</ele>
        <time>2020-07-30T07:33:19.035Z</time>
      </trkpt>
      <trkpt lat="62.07474" lon="5.54254">
        <ele>78.121562</ele>
        <time>2020-07-30T07:33:25.053Z</time>
      </trkpt>
      <trkpt lat="62.07476" lon="5.54273">
        <ele>78.709649</ele>
        <time>2020-07-30T07:33:31.019Z</time>
      </trkpt>
      <trkpt lat="62.07476" lon="5.54292">
        <ele>79.300089</ele>
        <time>2020-07-30T07:33:38.030Z</time>
      </trkpt>
      <trkpt lat="62.07475" lon="5.54312">
        <ele>79.918869</ele>
        <time>2020-07-30T07:33:45.035Z</time>
      </trkpt>
      <trkpt lat="62.07474" lon="5.54333">
        <ele>80.569611</ele>
        <time>2020-07-30T07:33:52.041Z</time>
      </trkpt>
      <trkpt lat="62.07473" lon="5.54353">
        <ele>81.152557</ele>
        <time>2020-07-30T07:33:58.019Z</time>
      </trkpt>
      <trkpt lat="62.07469" lon="5.54373">
        <ele>81.813042</ele>
        <time>2020-07-30T07:34:05.024Z</time>
      </trkpt>
      <trkpt lat="62.07464" lon="5.54389">
        <ele>82.045597</ele>
        <time>2020-07-30T07:34:11.052Z</time>
      </trkpt>
      <trkpt lat="62.07459" lon="5.54406">
        <ele>82.229341</ele>
        <time>2020-07-30T07:34:17.040Z</time>
      </trkpt>
      <trkpt lat="62.07454" lon="5.54423">
        <ele>82.412866</ele>
        <time>2020-07-30T07:34:23.013Z</time>
      </trkpt>
      <trkpt lat="62.07449" lon="5.54441">
        <ele>82.61134</ele>
        <time>2020-07-30T07:34:30.019Z</time>
      </trkpt>
      <trkpt lat="62.07442" lon="5.54458">
        <ele>82.816123</ele>
        <time>2020-07-30T07:34:37.029Z</time>
      </trkpt>
      <trkpt lat="62.07436" lon="5.54474">
        <ele>83.021331</ele>
        <time>2020-07-30T07:34:44.033Z</time>
      </trkpt>
      <trkpt lat="62.07428" lon="5.5449">
        <ele>83.227176</ele>
        <time>2020-07-30T07:34:52.041Z</time>
      </trkpt>
      <trkpt lat="62.07422" lon="5.54504">
        <ele>83.407755</ele>
        <time>2020-07-30T07:34:59.042Z</time>
      </trkpt>
      <trkpt lat="62.07415" lon="5.5452">
        <ele>83.612803</ele>
        <time>2020-07-30T07:35:07.024Z</time>
      </trkpt>
      <trkpt lat="62.07409" lon="5.54537">
        <ele>83.808693</ele>
        <time>2020-07-30T07:35:14.052Z</time>
      </trkpt>
      <trkpt lat="62.07396" lon="5.54577">
        <ele>84.269989</ele>
        <time>2020-07-30T07:35:53.043Z</time>
      </trkpt>
      <trkpt lat="62.07391" lon="5.54595">
        <ele>84.467794</ele>
        <time>2020-07-30T07:35:55.045Z</time>
      </trkpt>
      <trkpt lat="62.07385" lon="5.54615">
        <ele>84.689139</ele>
        <time>2020-07-30T07:35:57.048Z</time>
      </trkpt>
      <trkpt lat="62.07379" lon="5.54634">
        <ele>84.910208</ele>
        <time>2020-07-30T07:35:59.015Z</time>
      </trkpt>
      <trkpt lat="62.07373" lon="5.54652">
        <ele>85.112568</ele>
        <time>2020-07-30T07:36:01.026Z</time>
      </trkpt>
      <trkpt lat="62.07367" lon="5.5467">
        <ele>85.317542</ele>
        <time>2020-07-30T07:36:03.022Z</time>
      </trkpt>
      <trkpt lat="62.07361" lon="5.54688">
        <ele>85.354294</ele>
        <time>2020-07-30T07:36:05.043Z</time>
      </trkpt>
      <trkpt lat="62.07354" lon="5.54706">
        <ele>84.942653</ele>
        <time>2020-07-30T07:36:07.051Z</time>
      </trkpt>
      <trkpt lat="62.07345" lon="5.54724">
        <ele>84.485723</ele>
        <time>2020-07-30T07:36:09.032Z</time>
      </trkpt>
      <trkpt lat="62.07333" lon="5.54742">
        <ele>83.952362</ele>
        <time>2020-07-30T07:36:11.013Z</time>
      </trkpt>
      <trkpt lat="62.0732" lon="5.54761">
        <ele>83.34087</ele>
        <time>2020-07-30T07:36:13.035Z</time>
      </trkpt>
      <trkpt lat="62.07305" lon="5.54782">
        <ele>82.686323</ele>
        <time>2020-07-30T07:36:15.080Z</time>
      </trkpt>
      <trkpt lat="62.07293" lon="5.54806">
        <ele>82.057224</ele>
        <time>2020-07-30T07:36:17.042Z</time>
      </trkpt>
      <trkpt lat="62.07282" lon="5.54832">
        <ele>81.448766</ele>
        <time>2020-07-30T07:36:19.020Z</time>
      </trkpt>
      <trkpt lat="62.07271" lon="5.54856">
        <ele>80.850622</ele>
        <time>2020-07-30T07:36:21.041Z</time>
      </trkpt>
      <trkpt lat="62.0726" lon="5.54881">
        <ele>80.255052</ele>
        <time>2020-07-30T07:36:23.018Z</time>
      </trkpt>
      <trkpt lat="62.0725" lon="5.54907">
        <ele>79.668976</ele>
        <time>2020-07-30T07:36:25.065Z</time>
      </trkpt>
      <trkpt lat="62.0724" lon="5.54932">
        <ele>79.102635</ele>
        <time>2020-07-30T07:36:27.030Z</time>
      </trkpt>
      <trkpt lat="62.07231" lon="5.54956">
        <ele>78.505075</ele>
        <time>2020-07-30T07:36:29.054Z</time>
      </trkpt>
      <trkpt lat="62.07221" lon="5.54981">
        <ele>77.847641</ele>
        <time>2020-07-30T07:36:31.051Z</time>
      </trkpt>
      <trkpt lat="62.07212" lon="5.55005">
        <ele>77.185782</ele>
        <time>2020-07-30T07:36:33.033Z</time>
      </trkpt>
      <trkpt lat="62.07203" lon="5.55031">
        <ele>76.51923</ele>
        <time>2020-07-30T07:36:35.019Z</time>
      </trkpt>
      <trkpt lat="62.07196" lon="5.55061">
        <ele>75.823092</ele>
        <time>2020-07-30T07:36:37.036Z</time>
      </trkpt>
      <trkpt lat="62.07194" lon="5.55094">
        <ele>75.142414</ele>
        <time>2020-07-30T07:36:39.025Z</time>
      </trkpt>
      <trkpt lat="62.07196" lon="5.55129">
        <ele>74.411267</ele>
        <time>2020-07-30T07:36:41.033Z</time>
      </trkpt>
      <trkpt lat="62.07198" lon="5.55165">
        <ele>73.656512</ele>
        <time>2020-07-30T07:36:43.037Z</time>
      </trkpt>
      <trkpt lat="62.072" lon="5.552">
        <ele>72.921535</ele>
        <time>2020-07-30T07:36:45.023Z</time>
      </trkpt>
      <trkpt lat="62.07202" lon="5.55234">
        <ele>72.227969</ele>
        <time>2020-07-30T07:36:47.041Z</time>
      </trkpt>
      <trkpt lat="62.07203" lon="5.55267">
        <ele>71.528016</ele>
        <time>2020-07-30T07:36:49.026Z</time>
      </trkpt>
      <trkpt lat="62.07203" lon="5.55302">
        <ele>70.811055</ele>
        <time>2020-07-30T07:36:51.021Z</time>
      </trkpt>
      <trkpt lat="62.07202" lon="5.55338">
        <ele>70.184125</ele>
        <time>2020-07-30T07:36:53.028Z</time>
      </trkpt>
      <trkpt lat="62.07198" lon="5.55375">
        <ele>69.520355</ele>
        <time>2020-07-30T07:36:55.031Z</time>
      </trkpt>
      <trkpt lat="62.07195" lon="5.55395">
        <ele>69.161496</ele>
        <time>2020-07-30T07:36:56.057Z</time>
      </trkpt>
      <trkpt lat="62.07192" lon="5.55416">
        <ele>68.786663</ele>
        <time>2020-07-30T07:36:57.021Z</time>
      </trkpt>
      <trkpt lat="62.07188" lon="5.55436">
        <ele>68.41528</ele>
        <time>2020-07-30T07:36:58.022Z</time>
      </trkpt>
      <trkpt lat="62.07184" lon="5.55455">
        <ele>68.055397</ele>
        <time>2020-07-30T07:36:59.022Z</time>
      </trkpt>
      <trkpt lat="62.07179" lon="5.55472">
        <ele>67.700299</ele>
        <time>2020-07-30T07:37:00.039Z</time>
      </trkpt>
      <trkpt lat="62.07174" lon="5.55489">
        <ele>67.362877</ele>
        <time>2020-07-30T07:37:01.041Z</time>
      </trkpt>
      <trkpt lat="62.07169" lon="5.55505">
        <ele>67.026534</ele>
        <time>2020-07-30T07:37:02.049Z</time>
      </trkpt>
      <trkpt lat="62.07163" lon="5.55521">
        <ele>66.672542</ele>
        <time>2020-07-30T07:37:03.044Z</time>
      </trkpt>
      <trkpt lat="62.07156" lon="5.55536">
        <ele>66.318339</ele>
        <time>2020-07-30T07:37:04.053Z</time>
      </trkpt>
      <trkpt lat="62.0715" lon="5.55549">
        <ele>65.980107</ele>
        <time>2020-07-30T07:37:05.046Z</time>
      </trkpt>
      <trkpt lat="62.07137" lon="5.55573">
        <ele>65.347455</ele>
        <time>2020-07-30T07:37:07.022Z</time>
      </trkpt>
      <trkpt lat="62.07124" lon="5.55591">
        <ele>64.791609</ele>
        <time>2020-07-30T07:37:09.048Z</time>
      </trkpt>
      <trkpt lat="62.07113" lon="5.55608">
        <ele>64.294773</ele>
        <time>2020-07-30T07:37:11.025Z</time>
      </trkpt>
      <trkpt lat="62.07105" lon="5.55627">
        <ele>64.373453</ele>
        <time>2020-07-30T07:37:13.018Z</time>
      </trkpt>
      <trkpt lat="62.07099" lon="5.55648">
        <ele>64.72426</ele>
        <time>2020-07-30T07:37:15.044Z</time>
      </trkpt>
      <trkpt lat="62.07092" lon="5.55667">
        <ele>65.065434</ele>
        <time>2020-07-30T07:37:17.016Z</time>
      </trkpt>
      <trkpt lat="62.07084" lon="5.55682">
        <ele>65.383398</ele>
        <time>2020-07-30T07:37:19.069Z</time>
      </trkpt>
      <trkpt lat="62.07075" lon="5.55693">
        <ele>65.686749</ele>
        <time>2020-07-30T07:37:21.033Z</time>
      </trkpt>
      <trkpt lat="62.07064" lon="5.55708">
        <ele>66.074166</ele>
        <time>2020-07-30T07:37:24.021Z</time>
      </trkpt>
      <trkpt lat="62.07053" lon="5.5572">
        <ele>66.448638</ele>
        <time>2020-07-30T07:37:27.035Z</time>
      </trkpt>
      <trkpt lat="62.07042" lon="5.55731">
        <ele>66.804853</ele>
        <time>2020-07-30T07:37:30.013Z</time>
      </trkpt>
      <trkpt lat="62.07031" lon="5.5574">
        <ele>67.164078</ele>
        <time>2020-07-30T07:37:33.051Z</time>
      </trkpt>
      <trkpt lat="62.07019" lon="5.55749">
        <ele>67.560011</ele>
        <time>2020-07-30T07:37:36.014Z</time>
      </trkpt>
      <trkpt lat="62.0701" lon="5.55753">
        <ele>67.837924</ele>
        <time>2020-07-30T07:37:38.021Z</time>
      </trkpt>
      <trkpt lat="62.07" lon="5.5576">
        <ele>68.131444</ele>
        <time>2020-07-30T07:37:40.035Z</time>
      </trkpt>
      <trkpt lat="62.06992" lon="5.55772">
        <ele>68.441658</ele>
        <time>2020-07-30T07:37:42.058Z</time>
      </trkpt>
      <trkpt lat="62.06985" lon="5.55785">
        <ele>68.717993</ele>
        <time>2020-07-30T07:37:44.020Z</time>
      </trkpt>
      <trkpt lat="62.06979" lon="5.55803">
        <ele>69.031272</ele>
        <time>2020-07-30T07:37:47.026Z</time>
      </trkpt>
      <trkpt lat="62.06973" lon="5.55819">
        <ele>69.319232</ele>
        <time>2020-07-30T07:37:52.053Z</time>
      </trkpt>
      <trkpt lat="62.06966" lon="5.55835">
        <ele>69.760855</ele>
        <time>2020-07-30T07:38:00.057Z</time>
      </trkpt>
      <trkpt lat="62.0696" lon="5.55852">
        <ele>70.486568</ele>
        <time>2020-07-30T07:38:08.040Z</time>
      </trkpt>
      <trkpt lat="62.06953" lon="5.55865">
        <ele>71.188491</ele>
        <time>2020-07-30T07:38:15.035Z</time>
      </trkpt>
      <trkpt lat="62.06944" lon="5.55872">
        <ele>71.917937</ele>
        <time>2020-07-30T07:38:20.020Z</time>
      </trkpt>
      <trkpt lat="62.06934" lon="5.55871">
        <ele>72.671228</ele>
        <time>2020-07-30T07:38:25.038Z</time>
      </trkpt>
      <trkpt lat="62.06926" lon="5.55863">
        <ele>73.376418</ele>
        <time>2020-07-30T07:38:31.021Z</time>
      </trkpt>
      <trkpt lat="62.06916" lon="5.55854">
        <ele>74.132561</ele>
        <time>2020-07-30T07:38:37.077Z</time>
      </trkpt>
      <trkpt lat="62.06908" lon="5.55846">
        <ele>74.841686</ele>
        <time>2020-07-30T07:38:45.024Z</time>
      </trkpt>
      <trkpt lat="62.06899" lon="5.55836">
        <ele>75.564031</ele>
        <time>2020-07-30T07:38:54.050Z</time>
      </trkpt>
      <trkpt lat="62.0689" lon="5.55829">
        <ele>76.271067</ele>
        <time>2020-07-30T07:39:02.022Z</time>
      </trkpt>
      <trkpt lat="62.06882" lon="5.55823">
        <ele>76.955608</ele>
        <time>2020-07-30T07:39:10.060Z</time>
      </trkpt>
      <trkpt lat="62.06872" lon="5.55819">
        <ele>77.681676</ele>
        <time>2020-07-30T07:39:18.032Z</time>
      </trkpt>
      <trkpt lat="62.06864" lon="5.5581">
        <ele>78.409535</ele>
        <time>2020-07-30T07:39:26.036Z</time>
      </trkpt>
      <trkpt lat="62.06855" lon="5.55801">
        <ele>79.165682</ele>
        <time>2020-07-30T07:39:35.045Z</time>
      </trkpt>
      <trkpt lat="62.06844" lon="5.55807">
        <ele>79.969505</ele>
        <time>2020-07-30T07:39:41.030Z</time>
      </trkpt>
      <trkpt lat="62.06839" lon="5.55828">
        <ele>80.780916</ele>
        <time>2020-07-30T07:39:45.033Z</time>
      </trkpt>
      <trkpt lat="62.06837" lon="5.55847">
        <ele>81.51032</ele>
        <time>2020-07-30T07:39:48.040Z</time>
      </trkpt>
      <trkpt lat="62.06833" lon="5.5587">
        <ele>82.347968</ele>
        <time>2020-07-30T07:39:51.037Z</time>
      </trkpt>
      <trkpt lat="62.06828" lon="5.55895">
        <ele>82.975934</ele>
        <time>2020-07-30T07:39:54.052Z</time>
      </trkpt>
      <trkpt lat="62.06824" lon="5.55912">
        <ele>82.674892</ele>
        <time>2020-07-30T07:39:56.037Z</time>
      </trkpt>
      <trkpt lat="62.0682" lon="5.55932">
        <ele>82.348472</ele>
        <time>2020-07-30T07:39:58.034Z</time>
      </trkpt>
      <trkpt lat="62.06816" lon="5.55952">
        <ele>81.998188</ele>
        <time>2020-07-30T07:40:00.045Z</time>
      </trkpt>
      <trkpt lat="62.06811" lon="5.55974">
        <ele>81.619226</ele>
        <time>2020-07-30T07:40:02.059Z</time>
      </trkpt>
      <trkpt lat="62.06806" lon="5.55997">
        <ele>81.22111</ele>
        <time>2020-07-30T07:40:04.029Z</time>
      </trkpt>
      <trkpt lat="62.06801" lon="5.56022">
        <ele>80.799965</ele>
        <time>2020-07-30T07:40:06.037Z</time>
      </trkpt>
      <trkpt lat="62.06796" lon="5.56048">
        <ele>80.362233</ele>
        <time>2020-07-30T07:40:08.022Z</time>
      </trkpt>
      <trkpt lat="62.0679" lon="5.56074">
        <ele>79.912076</ele>
        <time>2020-07-30T07:40:10.073Z</time>
      </trkpt>
      <trkpt lat="62.06785" lon="5.56101">
        <ele>79.467326</ele>
        <time>2020-07-30T07:40:12.049Z</time>
      </trkpt>
      <trkpt lat="62.0678" lon="5.56128">
        <ele>79.014628</ele>
        <time>2020-07-30T07:40:14.024Z</time>
      </trkpt>
      <trkpt lat="62.06774" lon="5.56154">
        <ele>78.575658</ele>
        <time>2020-07-30T07:40:16.043Z</time>
      </trkpt>
      <trkpt lat="62.06769" lon="5.56178">
        <ele>78.161689</ele>
        <time>2020-07-30T07:40:18.068Z</time>
      </trkpt>
      <trkpt lat="62.06765" lon="5.56201">
        <ele>77.773198</ele>
        <time>2020-07-30T07:40:20.022Z</time>
      </trkpt>
      <trkpt lat="62.0676" lon="5.56222">
        <ele>77.410254</ele>
        <time>2020-07-30T07:40:22.037Z</time>
      </trkpt>
      <trkpt lat="62.06756" lon="5.56242">
        <ele>77.104207</ele>
        <time>2020-07-30T07:40:24.031Z</time>
      </trkpt>
      <trkpt lat="62.06753" lon="5.56261">
        <ele>77.048679</ele>
        <time>2020-07-30T07:40:26.037Z</time>
      </trkpt>
      <trkpt lat="62.0675" lon="5.56279">
        <ele>76.995186</ele>
        <time>2020-07-30T07:40:28.031Z</time>
      </trkpt>
      <trkpt lat="62.06745" lon="5.56304">
        <ele>76.921573</ele>
        <time>2020-07-30T07:40:31.040Z</time>
      </trkpt>
      <trkpt lat="62.06741" lon="5.56328">
        <ele>76.849841</ele>
        <time>2020-07-30T07:40:34.037Z</time>
      </trkpt>
      <trkpt lat="62.06737" lon="5.56353">
        <ele>76.778368</ele>
        <time>2020-07-30T07:40:37.053Z</time>
      </trkpt>
      <trkpt lat="62.06733" lon="5.56375">
        <ele>76.711543</ele>
        <time>2020-07-30T07:40:40.053Z</time>
      </trkpt>
      <trkpt lat="62.06729" lon="5.56398">
        <ele>76.644061</ele>
        <time>2020-07-30T07:40:43.046Z</time>
      </trkpt>
      <trkpt lat="62.06726" lon="5.56422">
        <ele>76.576551</ele>
        <time>2020-07-30T07:40:46.016Z</time>
      </trkpt>
      <trkpt lat="62.06723" lon="5.56444">
        <ele>76.511155</ele>
        <time>2020-07-30T07:40:49.041Z</time>
      </trkpt>
      <trkpt lat="62.06719" lon="5.56467">
        <ele>76.444714</ele>
        <time>2020-07-30T07:40:52.024Z</time>
      </trkpt>
      <trkpt lat="62.06714" lon="5.56489">
        <ele>76.377158</ele>
        <time>2020-07-30T07:40:55.043Z</time>
      </trkpt>
      <trkpt lat="62.06711" lon="5.56512">
        <ele>76.309736</ele>
        <time>2020-07-30T07:40:58.046Z</time>
      </trkpt>
      <trkpt lat="62.06707" lon="5.56537">
        <ele>76.239593</ele>
        <time>2020-07-30T07:41:01.064Z</time>
      </trkpt>
      <trkpt lat="62.06703" lon="5.56561">
        <ele>76.168261</ele>
        <time>2020-07-30T07:41:04.069Z</time>
      </trkpt>
      <trkpt lat="62.067" lon="5.56585">
        <ele>76.097059</ele>
        <time>2020-07-30T07:41:07.020Z</time>
      </trkpt>
      <trkpt lat="62.06696" lon="5.56612">
        <ele>76.121975</ele>
        <time>2020-07-30T07:41:10.027Z</time>
      </trkpt>
      <trkpt lat="62.06692" lon="5.56638">
        <ele>76.324479</ele>
        <time>2020-07-30T07:41:13.047Z</time>
      </trkpt>
      <trkpt lat="62.06688" lon="5.56665">
        <ele>76.525129</ele>
        <time>2020-07-30T07:41:16.045Z</time>
      </trkpt>
      <trkpt lat="62.06684" lon="5.56691">
        <ele>76.729255</ele>
        <time>2020-07-30T07:41:19.027Z</time>
      </trkpt>
      <trkpt lat="62.0668" lon="5.56717">
        <ele>76.931647</ele>
        <time>2020-07-30T07:41:22.032Z</time>
      </trkpt>
      <trkpt lat="62.06675" lon="5.56744">
        <ele>77.136491</ele>
        <time>2020-07-30T07:41:25.037Z</time>
      </trkpt>
      <trkpt lat="62.06671" lon="5.56771">
        <ele>77.344332</ele>
        <time>2020-07-30T07:41:28.073Z</time>
      </trkpt>
      <trkpt lat="62.06667" lon="5.56799">
        <ele>77.55426</ele>
        <time>2020-07-30T07:41:31.039Z</time>
      </trkpt>
      <trkpt lat="62.06665" lon="5.56817">
        <ele>77.696034</ele>
        <time>2020-07-30T07:41:33.037Z</time>
      </trkpt>
      <trkpt lat="62.06661" lon="5.56844">
        <ele>77.899027</ele>
        <time>2020-07-30T07:41:36.057Z</time>
      </trkpt>
      <trkpt lat="62.06658" lon="5.56869">
        <ele>78.090214</ele>
        <time>2020-07-30T07:41:39.033Z</time>
      </trkpt>
      <trkpt lat="62.06654" lon="5.56895">
        <ele>78.28631</ele>
        <time>2020-07-30T07:41:42.054Z</time>
      </trkpt>
      <trkpt lat="62.06652" lon="5.56922">
        <ele>78.484023</ele>
        <time>2020-07-30T07:41:45.019Z</time>
      </trkpt>
      <trkpt lat="62.06649" lon="5.56948">
        <ele>78.678532</ele>
        <time>2020-07-30T07:41:48.062Z</time>
      </trkpt>
      <trkpt lat="62.06646" lon="5.56972">
        <ele>78.84161</ele>
        <time>2020-07-30T07:41:51.052Z</time>
      </trkpt>
      <trkpt lat="62.06643" lon="5.56998">
        <ele>78.778559</ele>
        <time>2020-07-30T07:41:54.065Z</time>
      </trkpt>
      <trkpt lat="62.06641" lon="5.57024">
        <ele>78.712627</ele>
        <time>2020-07-30T07:41:57.024Z</time>
      </trkpt>
      <trkpt lat="62.06638" lon="5.57049">
        <ele>78.649905</ele>
        <time>2020-07-30T07:42:00.038Z</time>
      </trkpt>
      <trkpt lat="62.06636" lon="5.57075">
        <ele>78.586664</ele>
        <time>2020-07-30T07:42:03.037Z</time>
      </trkpt>
      <trkpt lat="62.06635" lon="5.571">
        <ele>78.525265</ele>
        <time>2020-07-30T07:42:06.071Z</time>
      </trkpt>
      <trkpt lat="62.06634" lon="5.57128">
        <ele>78.455739</ele>
        <time>2020-07-30T07:42:09.063Z</time>
      </trkpt>
      <trkpt lat="62.06633" lon="5.57148">
        <ele>78.407588</ele>
        <time>2020-07-30T07:42:11.027Z</time>
      </trkpt>
      <trkpt lat="62.06633" lon="5.57168">
        <ele>78.358981</ele>
        <time>2020-07-30T07:42:13.038Z</time>
      </trkpt>
      <trkpt lat="62.06632" lon="5.57188">
        <ele>78.309051</ele>
        <time>2020-07-30T07:42:15.036Z</time>
      </trkpt>
      <trkpt lat="62.06631" lon="5.5721">
        <ele>78.256724</ele>
        <time>2020-07-30T07:42:17.045Z</time>
      </trkpt>
      <trkpt lat="62.06629" lon="5.57232">
        <ele>78.201249</ele>
        <time>2020-07-30T07:42:19.045Z</time>
      </trkpt>
      <trkpt lat="62.06628" lon="5.57255">
        <ele>78.146072</ele>
        <time>2020-07-30T07:42:21.041Z</time>
      </trkpt>
      <trkpt lat="62.06627" lon="5.57279">
        <ele>78.085206</ele>
        <time>2020-07-30T07:42:23.018Z</time>
      </trkpt>
      <trkpt lat="62.06626" lon="5.57303">
        <ele>78.027409</ele>
        <time>2020-07-30T07:42:25.072Z</time>
      </trkpt>
      <trkpt lat="62.06626" lon="5.57326">
        <ele>77.971273</ele>
        <time>2020-07-30T07:42:27.060Z</time>
      </trkpt>
      <trkpt lat="62.06625" lon="5.57349">
        <ele>77.914684</ele>
        <time>2020-07-30T07:42:29.042Z</time>
      </trkpt>
      <trkpt lat="62.06625" lon="5.57373">
        <ele>77.641174</ele>
        <time>2020-07-30T07:42:31.033Z</time>
      </trkpt>
      <trkpt lat="62.06625" lon="5.57396">
        <ele>77.345614</ele>
        <time>2020-07-30T07:42:33.027Z</time>
      </trkpt>
      <trkpt lat="62.06624" lon="5.57421">
        <ele>77.046032</ele>
        <time>2020-07-30T07:42:35.027Z</time>
      </trkpt>
      <trkpt lat="62.06623" lon="5.57446">
        <ele>76.73534</ele>
        <time>2020-07-30T07:42:37.038Z</time>
      </trkpt>
      <trkpt lat="62.06623" lon="5.5747">
        <ele>76.432284</ele>
        <time>2020-07-30T07:42:39.056Z</time>
      </trkpt>
      <trkpt lat="62.06623" lon="5.57495">
        <ele>76.131699</ele>
        <time>2020-07-30T07:42:41.062Z</time>
      </trkpt>
      <trkpt lat="62.06622" lon="5.57519">
        <ele>75.833586</ele>
        <time>2020-07-30T07:42:43.031Z</time>
      </trkpt>
      <trkpt lat="62.06622" lon="5.57541">
        <ele>75.554202</ele>
        <time>2020-07-30T07:42:45.023Z</time>
      </trkpt>
      <trkpt lat="62.06622" lon="5.57565">
        <ele>75.261208</ele>
        <time>2020-07-30T07:42:47.062Z</time>
      </trkpt>
      <trkpt lat="62.06622" lon="5.57588">
        <ele>74.971922</ele>
        <time>2020-07-30T07:42:49.032Z</time>
      </trkpt>
      <trkpt lat="62.06622" lon="5.57612">
        <ele>74.682637</ele>
        <time>2020-07-30T07:42:51.038Z</time>
      </trkpt>
      <trkpt lat="62.06623" lon="5.57635">
        <ele>74.395242</ele>
        <time>2020-07-30T07:42:53.025Z</time>
      </trkpt>
      <trkpt lat="62.06624" lon="5.57658">
        <ele>74.103763</ele>
        <time>2020-07-30T07:42:55.022Z</time>
      </trkpt>
      <trkpt lat="62.06625" lon="5.57682">
        <ele>73.811807</ele>
        <time>2020-07-30T07:42:57.049Z</time>
      </trkpt>
      <trkpt lat="62.06626" lon="5.57706">
        <ele>73.509743</ele>
        <time>2020-07-30T07:42:59.058Z</time>
      </trkpt>
      <trkpt lat="62.06627" lon="5.57731">
        <ele>73.199971</ele>
        <time>2020-07-30T07:43:01.022Z</time>
      </trkpt>
      <trkpt lat="62.06628" lon="5.57755">
        <ele>73.023481</ele>
        <time>2020-07-30T07:43:03.032Z</time>
      </trkpt>
      <trkpt lat="62.0663" lon="5.57779">
        <ele>72.862651</ele>
        <time>2020-07-30T07:43:05.033Z</time>
      </trkpt>
      <trkpt lat="62.06631" lon="5.57804">
        <ele>72.693885</ele>
        <time>2020-07-30T07:43:07.031Z</time>
      </trkpt>
      <trkpt lat="62.06632" lon="5.57829">
        <ele>72.52826</ele>
        <time>2020-07-30T07:43:09.028Z</time>
      </trkpt>
      <trkpt lat="62.06634" lon="5.57853">
        <ele>72.368937</ele>
        <time>2020-07-30T07:43:11.032Z</time>
      </trkpt>
      <trkpt lat="62.06635" lon="5.57876">
        <ele>72.212597</ele>
        <time>2020-07-30T07:43:13.017Z</time>
      </trkpt>
      <trkpt lat="62.06637" lon="5.57899">
        <ele>72.055979</ele>
        <time>2020-07-30T07:43:15.020Z</time>
      </trkpt>
      <trkpt lat="62.06638" lon="5.57922">
        <ele>71.89926</ele>
        <time>2020-07-30T07:43:17.027Z</time>
      </trkpt>
      <trkpt lat="62.06639" lon="5.57946">
        <ele>71.742542</ele>
        <time>2020-07-30T07:43:19.031Z</time>
      </trkpt>
      <trkpt lat="62.0664" lon="5.57968">
        <ele>71.591156</ele>
        <time>2020-07-30T07:43:21.038Z</time>
      </trkpt>
      <trkpt lat="62.06642" lon="5.57991">
        <ele>71.437391</ele>
        <time>2020-07-30T07:43:23.072Z</time>
      </trkpt>
      <trkpt lat="62.06643" lon="5.58014">
        <ele>71.283409</ele>
        <time>2020-07-30T07:43:25.033Z</time>
      </trkpt>
      <trkpt lat="62.06645" lon="5.58036">
        <ele>71.132023</ele>
        <time>2020-07-30T07:43:27.019Z</time>
      </trkpt>
      <trkpt lat="62.06645" lon="5.58058">
        <ele>70.98704</ele>
        <time>2020-07-30T07:43:29.044Z</time>
      </trkpt>
      <trkpt lat="62.06648" lon="5.58077">
        <ele>70.851856</ele>
        <time>2020-07-30T07:43:31.029Z</time>
      </trkpt>
      <trkpt lat="62.06651" lon="5.58096">
        <ele>70.720476</ele>
        <time>2020-07-30T07:43:33.093Z</time>
      </trkpt>
      <trkpt lat="62.06653" lon="5.58116">
        <ele>70.61824</ele>
        <time>2020-07-30T07:43:35.043Z</time>
      </trkpt>
      <trkpt lat="62.06656" lon="5.58136">
        <ele>70.733747</ele>
        <time>2020-07-30T07:43:37.035Z</time>
      </trkpt>
      <trkpt lat="62.06658" lon="5.58157">
        <ele>70.853031</ele>
        <time>2020-07-30T07:43:39.023Z</time>
      </trkpt>
      <trkpt lat="62.0666" lon="5.58179">
        <ele>70.973473</ele>
        <time>2020-07-30T07:43:41.036Z</time>
      </trkpt>
      <trkpt lat="62.06662" lon="5.582">
        <ele>71.090862</ele>
        <time>2020-07-30T07:43:43.036Z</time>
      </trkpt>
      <trkpt lat="62.06664" lon="5.5822">
        <ele>71.204228</ele>
        <time>2020-07-30T07:43:45.042Z</time>
      </trkpt>
      <trkpt lat="62.06666" lon="5.58239">
        <ele>71.315983</ele>
        <time>2020-07-30T07:43:47.061Z</time>
      </trkpt>
      <trkpt lat="62.06669" lon="5.58259">
        <ele>71.427592</ele>
        <time>2020-07-30T07:43:49.020Z</time>
      </trkpt>
      <trkpt lat="62.06672" lon="5.58278">
        <ele>71.538221</ele>
        <time>2020-07-30T07:43:51.036Z</time>
      </trkpt>
      <trkpt lat="62.06675" lon="5.58296">
        <ele>71.643911</ele>
        <time>2020-07-30T07:43:53.037Z</time>
      </trkpt>
      <trkpt lat="62.06679" lon="5.58323">
        <ele>71.80016</ele>
        <time>2020-07-30T07:43:56.036Z</time>
      </trkpt>
      <trkpt lat="62.06681" lon="5.58342">
        <ele>71.905302</ele>
        <time>2020-07-30T07:43:58.032Z</time>
      </trkpt>
      <trkpt lat="62.06683" lon="5.5836">
        <ele>72.011159</ele>
        <time>2020-07-30T07:44:00.031Z</time>
      </trkpt>
      <trkpt lat="62.06686" lon="5.58385">
        <ele>72.151091</ele>
        <time>2020-07-30T07:44:03.054Z</time>
      </trkpt>
      <trkpt lat="62.0669" lon="5.58409">
        <ele>72.289461</ele>
        <time>2020-07-30T07:44:06.033Z</time>
      </trkpt>
      <trkpt lat="62.06694" lon="5.58432">
        <ele>72.426458</ele>
        <time>2020-07-30T07:44:09.032Z</time>
      </trkpt>
      <trkpt lat="62.06698" lon="5.58456">
        <ele>72.565771</ele>
        <time>2020-07-30T07:44:12.029Z</time>
      </trkpt>
      <trkpt lat="62.06702" lon="5.58478">
        <ele>72.695087</ele>
        <time>2020-07-30T07:44:15.027Z</time>
      </trkpt>
      <trkpt lat="62.06706" lon="5.58499">
        <ele>73.109585</ele>
        <time>2020-07-30T07:44:18.101Z</time>
      </trkpt>
      <trkpt lat="62.0671" lon="5.5852">
        <ele>73.585844</ele>
        <time>2020-07-30T07:44:21.021Z</time>
      </trkpt>
      <trkpt lat="62.06713" lon="5.58541">
        <ele>74.040697</ele>
        <time>2020-07-30T07:44:24.027Z</time>
      </trkpt>
      <trkpt lat="62.06718" lon="5.5856">
        <ele>74.491136</ele>
        <time>2020-07-30T07:44:27.079Z</time>
      </trkpt>
      <trkpt lat="62.06721" lon="5.58579">
        <ele>74.911659</ele>
        <time>2020-07-30T07:44:30.049Z</time>
      </trkpt>
      <trkpt lat="62.06726" lon="5.58602">
        <ele>75.434656</ele>
        <time>2020-07-30T07:44:34.058Z</time>
      </trkpt>
      <trkpt lat="62.06729" lon="5.58625">
        <ele>75.950181</ele>
        <time>2020-07-30T07:44:38.024Z</time>
      </trkpt>
      <trkpt lat="62.06734" lon="5.58647">
        <ele>76.45362</ele>
        <time>2020-07-30T07:44:42.024Z</time>
      </trkpt>
      <trkpt lat="62.06739" lon="5.58667">
        <ele>76.919146</ele>
        <time>2020-07-30T07:44:46.023Z</time>
      </trkpt>
      <trkpt lat="62.06743" lon="5.58688">
        <ele>77.39039</ele>
        <time>2020-07-30T07:44:50.044Z</time>
      </trkpt>
      <trkpt lat="62.06747" lon="5.58707">
        <ele>77.829398</ele>
        <time>2020-07-30T07:44:54.023Z</time>
      </trkpt>
      <trkpt lat="62.06751" lon="5.58726">
        <ele>78.263001</ele>
        <time>2020-07-30T07:44:58.058Z</time>
      </trkpt>
      <trkpt lat="62.06754" lon="5.58744">
        <ele>78.67004</ele>
        <time>2020-07-30T07:45:02.024Z</time>
      </trkpt>
      <trkpt lat="62.06759" lon="5.58765">
        <ele>79.160262</ele>
        <time>2020-07-30T07:45:07.044Z</time>
      </trkpt>
      <trkpt lat="62.06764" lon="5.58786">
        <ele>79.637143</ele>
        <time>2020-07-30T07:45:12.028Z</time>
      </trkpt>
      <trkpt lat="62.06769" lon="5.58807">
        <ele>80.136622</ele>
        <time>2020-07-30T07:45:17.034Z</time>
      </trkpt>
      <trkpt lat="62.06774" lon="5.58827">
        <ele>80.596439</ele>
        <time>2020-07-30T07:45:22.041Z</time>
      </trkpt>
      <trkpt lat="62.06779" lon="5.58845">
        <ele>81.064388</ele>
        <time>2020-07-30T07:45:27.033Z</time>
      </trkpt>
      <trkpt lat="62.06784" lon="5.58862">
        <ele>81.526227</ele>
        <time>2020-07-30T07:45:32.016Z</time>
      </trkpt>
      <trkpt lat="62.0679" lon="5.58878">
        <ele>81.994522</ele>
        <time>2020-07-30T07:45:37.017Z</time>
      </trkpt>
      <trkpt lat="62.06794" lon="5.58896">
        <ele>82.457442</ele>
        <time>2020-07-30T07:45:42.034Z</time>
      </trkpt>
      <trkpt lat="62.06798" lon="5.58914">
        <ele>82.907732</ele>
        <time>2020-07-30T07:45:47.024Z</time>
      </trkpt>
      <trkpt lat="62.06803" lon="5.58931">
        <ele>83.358376</ele>
        <time>2020-07-30T07:45:52.028Z</time>
      </trkpt>
      <trkpt lat="62.06808" lon="5.58946">
        <ele>83.80722</ele>
        <time>2020-07-30T07:45:57.049Z</time>
      </trkpt>
      <trkpt lat="62.06814" lon="5.58962">
        <ele>84.25687</ele>
        <time>2020-07-30T07:46:02.042Z</time>
      </trkpt>
      <trkpt lat="62.0682" lon="5.58979">
        <ele>84.745782</ele>
        <time>2020-07-30T07:46:08.023Z</time>
      </trkpt>
      <trkpt lat="62.06826" lon="5.58995">
        <ele>85.19573</ele>
        <time>2020-07-30T07:46:14.053Z</time>
      </trkpt>
      <trkpt lat="62.06832" lon="5.59013">
        <ele>85.69677</ele>
        <time>2020-07-30T07:46:20.053Z</time>
      </trkpt>
      <trkpt lat="62.06835" lon="5.5903">
        <ele>86.132572</ele>
        <time>2020-07-30T07:46:25.068Z</time>
      </trkpt>
      <trkpt lat="62.06838" lon="5.59051">
        <ele>86.639712</ele>
        <time>2020-07-30T07:46:31.023Z</time>
      </trkpt>
      <trkpt lat="62.06842" lon="5.59073">
        <ele>87.149084</ele>
        <time>2020-07-30T07:46:37.023Z</time>
      </trkpt>
      <trkpt lat="62.06843" lon="5.59093">
        <ele>87.613954</ele>
        <time>2020-07-30T07:46:42.034Z</time>
      </trkpt>
      <trkpt lat="62.06845" lon="5.59114">
        <ele>88.109906</ele>
        <time>2020-07-30T07:46:47.048Z</time>
      </trkpt>
      <trkpt lat="62.06844" lon="5.59138">
        <ele>88.652656</ele>
        <time>2020-07-30T07:46:52.040Z</time>
      </trkpt>
      <trkpt lat="62.06843" lon="5.5916">
        <ele>89.158807</ele>
        <time>2020-07-30T07:46:57.020Z</time>
      </trkpt>
      <trkpt lat="62.0684" lon="5.59181">
        <ele>89.556357</ele>
        <time>2020-07-30T07:47:01.020Z</time>
      </trkpt>
      <trkpt lat="62.06837" lon="5.59205">
        <ele>89.767108</ele>
        <time>2020-07-30T07:47:05.026Z</time>
      </trkpt>
      <trkpt lat="62.06833" lon="5.59222">
        <ele>89.93084</ele>
        <time>2020-07-30T07:47:08.037Z</time>
      </trkpt>
      <trkpt lat="62.06828" lon="5.59238">
        <ele>90.095323</ele>
        <time>2020-07-30T07:47:11.022Z</time>
      </trkpt>
      <trkpt lat="62.06823" lon="5.59254">
        <ele>90.263237</ele>
        <time>2020-07-30T07:47:14.022Z</time>
      </trkpt>
      <trkpt lat="62.06817" lon="5.59269">
        <ele>90.430369</ele>
        <time>2020-07-30T07:47:17.031Z</time>
      </trkpt>
      <trkpt lat="62.0681" lon="5.59284">
        <ele>90.61375</ele>
        <time>2020-07-30T07:47:20.070Z</time>
      </trkpt>
      <trkpt lat="62.06802" lon="5.59299">
        <ele>90.804278</ele>
        <time>2020-07-30T07:47:23.023Z</time>
      </trkpt>
      <trkpt lat="62.06794" lon="5.59313">
        <ele>90.995092</ele>
        <time>2020-07-30T07:47:26.106Z</time>
      </trkpt>
      <trkpt lat="62.06786" lon="5.59327">
        <ele>91.187311</ele>
        <time>2020-07-30T07:47:29.022Z</time>
      </trkpt>
      <trkpt lat="62.06778" lon="5.59341">
        <ele>91.366165</ele>
        <time>2020-07-30T07:47:32.035Z</time>
      </trkpt>
      <trkpt lat="62.06772" lon="5.59356">
        <ele>91.54142</ele>
        <time>2020-07-30T07:47:35.033Z</time>
      </trkpt>
      <trkpt lat="62.06767" lon="5.59372">
        <ele>91.71005</ele>
        <time>2020-07-30T07:47:38.060Z</time>
      </trkpt>
      <trkpt lat="62.0676" lon="5.59389">
        <ele>91.894225</ele>
        <time>2020-07-30T07:47:41.068Z</time>
      </trkpt>
      <trkpt lat="62.06753" lon="5.59409">
        <ele>92.107316</ele>
        <time>2020-07-30T07:47:44.024Z</time>
      </trkpt>
      <trkpt lat="62.06746" lon="5.5943">
        <ele>92.329702</ele>
        <time>2020-07-30T07:47:47.024Z</time>
      </trkpt>
      <trkpt lat="62.06738" lon="5.59451">
        <ele>92.564917</ele>
        <time>2020-07-30T07:47:50.039Z</time>
      </trkpt>
      <trkpt lat="62.0673" lon="5.59471">
        <ele>92.782205</ele>
        <time>2020-07-30T07:47:53.046Z</time>
      </trkpt>
      <trkpt lat="62.06722" lon="5.59488">
        <ele>92.698122</ele>
        <time>2020-07-30T07:47:56.030Z</time>
      </trkpt>
      <trkpt lat="62.06715" lon="5.59507">
        <ele>92.615918</ele>
        <time>2020-07-30T07:47:59.039Z</time>
      </trkpt>
      <trkpt lat="62.06707" lon="5.59524">
        <ele>92.536049</ele>
        <time>2020-07-30T07:48:02.032Z</time>
      </trkpt>
      <trkpt lat="62.06698" lon="5.59538">
        <ele>92.453321</ele>
        <time>2020-07-30T07:48:05.040Z</time>
      </trkpt>
      <trkpt lat="62.06686" lon="5.59553">
        <ele>92.357006</ele>
        <time>2020-07-30T07:48:08.034Z</time>
      </trkpt>
      <trkpt lat="62.06678" lon="5.59562">
        <ele>92.287763</ele>
        <time>2020-07-30T07:48:10.033Z</time>
      </trkpt>
      <trkpt lat="62.06667" lon="5.59568">
        <ele>92.210373</ele>
        <time>2020-07-30T07:48:12.063Z</time>
      </trkpt>
      <trkpt lat="62.06656" lon="5.59575">
        <ele>92.123489</ele>
        <time>2020-07-30T07:48:14.054Z</time>
      </trkpt>
      <trkpt lat="62.06643" lon="5.59581">
        <ele>92.031507</ele>
        <time>2020-07-30T07:48:16.050Z</time>
      </trkpt>
      <trkpt lat="62.06631" lon="5.59586">
        <ele>91.936956</ele>
        <time>2020-07-30T07:48:18.021Z</time>
      </trkpt>
      <trkpt lat="62.06618" lon="5.59591">
        <ele>91.844604</ele>
        <time>2020-07-30T07:48:20.054Z</time>
      </trkpt>
      <trkpt lat="62.06605" lon="5.59595">
        <ele>91.744905</ele>
        <time>2020-07-30T07:48:22.022Z</time>
      </trkpt>
      <trkpt lat="62.0659" lon="5.59601">
        <ele>91.638282</ele>
        <time>2020-07-30T07:48:24.045Z</time>
      </trkpt>
      <trkpt lat="62.06575" lon="5.59605">
        <ele>91.526236</ele>
        <time>2020-07-30T07:48:26.054Z</time>
      </trkpt>
      <trkpt lat="62.06559" lon="5.59612">
        <ele>91.070279</ele>
        <time>2020-07-30T07:48:28.038Z</time>
      </trkpt>
      <trkpt lat="62.06543" lon="5.59619">
        <ele>90.371617</ele>
        <time>2020-07-30T07:48:30.072Z</time>
      </trkpt>
      <trkpt lat="62.06526" lon="5.59626">
        <ele>89.650295</ele>
        <time>2020-07-30T07:48:32.033Z</time>
      </trkpt>
      <trkpt lat="62.06509" lon="5.59634">
        <ele>88.91551</ele>
        <time>2020-07-30T07:48:34.022Z</time>
      </trkpt>
      <trkpt lat="62.06492" lon="5.59643">
        <ele>88.19836</ele>
        <time>2020-07-30T07:48:36.031Z</time>
      </trkpt>
      <trkpt lat="62.06476" lon="5.59653">
        <ele>87.481784</ele>
        <time>2020-07-30T07:48:38.034Z</time>
      </trkpt>
      <trkpt lat="62.06458" lon="5.59663">
        <ele>86.739914</ele>
        <time>2020-07-30T07:48:40.016Z</time>
      </trkpt>
      <trkpt lat="62.06442" lon="5.59672">
        <ele>86.009616</ele>
        <time>2020-07-30T07:48:42.047Z</time>
      </trkpt>
      <trkpt lat="62.06425" lon="5.5968">
        <ele>85.289342</ele>
        <time>2020-07-30T07:48:44.040Z</time>
      </trkpt>
      <trkpt lat="62.06408" lon="5.59689">
        <ele>84.57983</ele>
        <time>2020-07-30T07:48:46.021Z</time>
      </trkpt>
      <trkpt lat="62.06392" lon="5.59699">
        <ele>83.878305</ele>
        <time>2020-07-30T07:48:48.042Z</time>
      </trkpt>
      <trkpt lat="62.06377" lon="5.59708">
        <ele>83.156725</ele>
        <time>2020-07-30T07:48:50.040Z</time>
      </trkpt>
      <trkpt lat="62.06361" lon="5.59717">
        <ele>82.42112</ele>
        <time>2020-07-30T07:48:52.038Z</time>
      </trkpt>
      <trkpt lat="62.06345" lon="5.59727">
        <ele>81.694131</ele>
        <time>2020-07-30T07:48:54.045Z</time>
      </trkpt>
      <trkpt lat="62.0633" lon="5.59735">
        <ele>80.972398</ele>
        <time>2020-07-30T07:48:56.024Z</time>
      </trkpt>
      <trkpt lat="62.06314" lon="5.59743">
        <ele>80.237155</ele>
        <time>2020-07-30T07:48:58.054Z</time>
      </trkpt>
      <trkpt lat="62.06297" lon="5.59752">
        <ele>79.489147</ele>
        <time>2020-07-30T07:49:00.068Z</time>
      </trkpt>
      <trkpt lat="62.06282" lon="5.59761">
        <ele>78.763253</ele>
        <time>2020-07-30T07:49:02.046Z</time>
      </trkpt>
      <trkpt lat="62.06266" lon="5.5977">
        <ele>78.044329</ele>
        <time>2020-07-30T07:49:04.056Z</time>
      </trkpt>
      <trkpt lat="62.06251" lon="5.59778">
        <ele>77.353942</ele>
        <time>2020-07-30T07:49:06.046Z</time>
      </trkpt>
      <trkpt lat="62.06236" lon="5.59786">
        <ele>76.652838</ele>
        <time>2020-07-30T07:49:08.019Z</time>
      </trkpt>
      <trkpt lat="62.06221" lon="5.59794">
        <ele>75.961034</ele>
        <time>2020-07-30T07:49:10.020Z</time>
      </trkpt>
      <trkpt lat="62.06206" lon="5.59802">
        <ele>75.650899</ele>
        <time>2020-07-30T07:49:12.028Z</time>
      </trkpt>
      <trkpt lat="62.06191" lon="5.5981">
        <ele>75.37378</ele>
        <time>2020-07-30T07:49:14.041Z</time>
      </trkpt>
      <trkpt lat="62.06176" lon="5.59819">
        <ele>75.096237</ele>
        <time>2020-07-30T07:49:16.036Z</time>
      </trkpt>
      <trkpt lat="62.06161" lon="5.59826">
        <ele>74.82826</ele>
        <time>2020-07-30T07:49:18.040Z</time>
      </trkpt>
      <trkpt lat="62.06146" lon="5.59834">
        <ele>74.561642</ele>
        <time>2020-07-30T07:49:20.024Z</time>
      </trkpt>
      <trkpt lat="62.06132" lon="5.59841">
        <ele>74.293089</ele>
        <time>2020-07-30T07:49:22.034Z</time>
      </trkpt>
      <trkpt lat="62.06118" lon="5.59848">
        <ele>74.039031</ele>
        <time>2020-07-30T07:49:24.024Z</time>
      </trkpt>
      <trkpt lat="62.06104" lon="5.59856">
        <ele>73.782216</ele>
        <time>2020-07-30T07:49:26.074Z</time>
      </trkpt>
      <trkpt lat="62.0609" lon="5.59863">
        <ele>73.525448</ele>
        <time>2020-07-30T07:49:28.042Z</time>
      </trkpt>
      <trkpt lat="62.06076" lon="5.59869">
        <ele>73.269916</ele>
        <time>2020-07-30T07:49:30.041Z</time>
      </trkpt>
      <trkpt lat="62.06063" lon="5.59874">
        <ele>73.031627</ele>
        <time>2020-07-30T07:49:32.037Z</time>
      </trkpt>
      <trkpt lat="62.06051" lon="5.5988">
        <ele>72.80461</ele>
        <time>2020-07-30T07:49:34.016Z</time>
      </trkpt>
      <trkpt lat="62.06038" lon="5.59886">
        <ele>72.621604</ele>
        <time>2020-07-30T07:49:36.033Z</time>
      </trkpt>
      <trkpt lat="62.06025" lon="5.5989">
        <ele>72.48937</ele>
        <time>2020-07-30T07:49:38.040Z</time>
      </trkpt>
      <trkpt lat="62.06013" lon="5.59894">
        <ele>72.36062</ele>
        <time>2020-07-30T07:49:40.105Z</time>
      </trkpt>
      <trkpt lat="62.06001" lon="5.59897">
        <ele>72.237349</ele>
        <time>2020-07-30T07:49:42.052Z</time>
      </trkpt>
      <trkpt lat="62.05989" lon="5.59901">
        <ele>72.11782</ele>
        <time>2020-07-30T07:49:44.047Z</time>
      </trkpt>
      <trkpt lat="62.05978" lon="5.59905">
        <ele>72.005476</ele>
        <time>2020-07-30T07:49:46.028Z</time>
      </trkpt>
      <trkpt lat="62.05968" lon="5.59908">
        <ele>71.897342</ele>
        <time>2020-07-30T07:49:48.054Z</time>
      </trkpt>
      <trkpt lat="62.05958" lon="5.59911">
        <ele>71.794572</ele>
        <time>2020-07-30T07:49:50.027Z</time>
      </trkpt>
      <trkpt lat="62.05948" lon="5.59914">
        <ele>71.692056</ele>
        <time>2020-07-30T07:49:52.060Z</time>
      </trkpt>
      <trkpt lat="62.05938" lon="5.59916">
        <ele>71.589706</ele>
        <time>2020-07-30T07:49:54.022Z</time>
      </trkpt>
      <trkpt lat="62.05928" lon="5.59919">
        <ele>71.485206</ele>
        <time>2020-07-30T07:49:56.076Z</time>
      </trkpt>
      <trkpt lat="62.05918" lon="5.59921">
        <ele>71.383649</ele>
        <time>2020-07-30T07:49:58.030Z</time>
      </trkpt>
      <trkpt lat="62.05909" lon="5.59923">
        <ele>71.283395</ele>
        <time>2020-07-30T07:50:00.043Z</time>
      </trkpt>
      <trkpt lat="62.05899" lon="5.59927">
        <ele>71.182366</ele>
        <time>2020-07-30T07:50:02.022Z</time>
      </trkpt>
      <trkpt lat="62.05889" lon="5.59929">
        <ele>71.081948</ele>
        <time>2020-07-30T07:50:04.053Z</time>
      </trkpt>
      <trkpt lat="62.0588" lon="5.59932">
        <ele>70.98465</ele>
        <time>2020-07-30T07:50:06.056Z</time>
      </trkpt>
      <trkpt lat="62.0587" lon="5.59934">
        <ele>70.884343</ele>
        <time>2020-07-30T07:50:08.040Z</time>
      </trkpt>
      <trkpt lat="62.05861" lon="5.59935">
        <ele>70.789285</ele>
        <time>2020-07-30T07:50:10.066Z</time>
      </trkpt>
      <trkpt lat="62.05851" lon="5.59937">
        <ele>70.698304</ele>
        <time>2020-07-30T07:50:12.020Z</time>
      </trkpt>
      <trkpt lat="62.05842" lon="5.59939">
        <ele>70.608934</ele>
        <time>2020-07-30T07:50:14.022Z</time>
      </trkpt>
      <trkpt lat="62.05832" lon="5.59942">
        <ele>70.515624</ele>
        <time>2020-07-30T07:50:16.022Z</time>
      </trkpt>
      <trkpt lat="62.05823" lon="5.59944">
        <ele>70.420287</ele>
        <time>2020-07-30T07:50:18.040Z</time>
      </trkpt>
      <trkpt lat="62.05812" lon="5.59947">
        <ele>70.321373</ele>
        <time>2020-07-30T07:50:20.021Z</time>
      </trkpt>
      <trkpt lat="62.05802" lon="5.5995">
        <ele>70.224698</ele>
        <time>2020-07-30T07:50:22.033Z</time>
      </trkpt>
      <trkpt lat="62.05793" lon="5.59954">
        <ele>70.128677</ele>
        <time>2020-07-30T07:50:24.025Z</time>
      </trkpt>
      <trkpt lat="62.05783" lon="5.59957">
        <ele>70.036976</ele>
        <time>2020-07-30T07:50:26.026Z</time>
      </trkpt>
      <trkpt lat="62.05774" lon="5.59959">
        <ele>69.944779</ele>
        <time>2020-07-30T07:50:28.035Z</time>
      </trkpt>
      <trkpt lat="62.05764" lon="5.5996">
        <ele>69.853833</ele>
        <time>2020-07-30T07:50:30.034Z</time>
      </trkpt>
      <trkpt lat="62.05755" lon="5.59963">
        <ele>69.760577</ele>
        <time>2020-07-30T07:50:32.037Z</time>
      </trkpt>
      <trkpt lat="62.05745" lon="5.59966">
        <ele>69.669896</ele>
        <time>2020-07-30T07:50:34.051Z</time>
      </trkpt>
      <trkpt lat="62.05736" lon="5.59969">
        <ele>69.576285</ele>
        <time>2020-07-30T07:50:36.032Z</time>
      </trkpt>
      <trkpt lat="62.05726" lon="5.59971">
        <ele>69.480889</ele>
        <time>2020-07-30T07:50:38.030Z</time>
      </trkpt>
      <trkpt lat="62.05716" lon="5.59975">
        <ele>69.38114</ele>
        <time>2020-07-30T07:50:40.041Z</time>
      </trkpt>
      <trkpt lat="62.05706" lon="5.59978">
        <ele>69.283889</ele>
        <time>2020-07-30T07:50:42.038Z</time>
      </trkpt>
      <trkpt lat="62.05696" lon="5.59981">
        <ele>69.189258</ele>
        <time>2020-07-30T07:50:44.024Z</time>
      </trkpt>
      <trkpt lat="62.05686" lon="5.59984">
        <ele>69.108009</ele>
        <time>2020-07-30T07:50:46.030Z</time>
      </trkpt>
      <trkpt lat="62.05677" lon="5.59988">
        <ele>69.086041</ele>
        <time>2020-07-30T07:50:48.041Z</time>
      </trkpt>
      <trkpt lat="62.05668" lon="5.59992">
        <ele>69.064709</ele>
        <time>2020-07-30T07:50:50.018Z</time>
      </trkpt>
      <trkpt lat="62.05659" lon="5.59995">
        <ele>69.043721</ele>
        <time>2020-07-30T07:50:52.033Z</time>
      </trkpt>
      <trkpt lat="62.0565" lon="5.59999">
        <ele>69.023168</ele>
        <time>2020-07-30T07:50:54.074Z</time>
      </trkpt>
      <trkpt lat="62.05641" lon="5.60002">
        <ele>69.002328</ele>
        <time>2020-07-30T07:50:56.017Z</time>
      </trkpt>
      <trkpt lat="62.05632" lon="5.60006">
        <ele>68.980832</ele>
        <time>2020-07-30T07:50:58.032Z</time>
      </trkpt>
      <trkpt lat="62.05623" lon="5.60008">
        <ele>68.959061</ele>
        <time>2020-07-30T07:51:00.038Z</time>
      </trkpt>
      <trkpt lat="62.05614" lon="5.60011">
        <ele>68.938241</ele>
        <time>2020-07-30T07:51:02.021Z</time>
      </trkpt>
      <trkpt lat="62.05601" lon="5.60016">
        <ele>68.907843</ele>
        <time>2020-07-30T07:51:05.029Z</time>
      </trkpt>
      <trkpt lat="62.05588" lon="5.60021">
        <ele>68.878016</ele>
        <time>2020-07-30T07:51:08.019Z</time>
      </trkpt>
      <trkpt lat="62.05575" lon="5.60026">
        <ele>68.84869</ele>
        <time>2020-07-30T07:51:11.021Z</time>
      </trkpt>
      <trkpt lat="62.05563" lon="5.6003">
        <ele>68.819084</ele>
        <time>2020-07-30T07:51:14.021Z</time>
      </trkpt>
      <trkpt lat="62.0555" lon="5.60035">
        <ele>68.78946</ele>
        <time>2020-07-30T07:51:17.020Z</time>
      </trkpt>
      <trkpt lat="62.05537" lon="5.6004">
        <ele>68.760211</ele>
        <time>2020-07-30T07:51:20.020Z</time>
      </trkpt>
      <trkpt lat="62.05525" lon="5.60045">
        <ele>68.731434</ele>
        <time>2020-07-30T07:51:23.057Z</time>
      </trkpt>
      <trkpt lat="62.05513" lon="5.60049">
        <ele>68.703259</ele>
        <time>2020-07-30T07:51:26.043Z</time>
      </trkpt>
      <trkpt lat="62.05502" lon="5.60052">
        <ele>68.834013</ele>
        <time>2020-07-30T07:51:29.012Z</time>
      </trkpt>
      <trkpt lat="62.05491" lon="5.60058">
        <ele>69.009464</ele>
        <time>2020-07-30T07:51:32.023Z</time>
      </trkpt>
      <trkpt lat="62.05479" lon="5.60062">
        <ele>69.188345</ele>
        <time>2020-07-30T07:51:35.035Z</time>
      </trkpt>
      <trkpt lat="62.05469" lon="5.60065">
        <ele>69.34787</ele>
        <time>2020-07-30T07:51:38.014Z</time>
      </trkpt>
      <trkpt lat="62.05457" lon="5.60071">
        <ele>69.529854</ele>
        <time>2020-07-30T07:51:41.031Z</time>
      </trkpt>
      <trkpt lat="62.05444" lon="5.60077">
        <ele>69.724218</ele>
        <time>2020-07-30T07:51:44.017Z</time>
      </trkpt>
      <trkpt lat="62.05436" lon="5.6008">
        <ele>69.859358</ele>
        <time>2020-07-30T07:51:46.025Z</time>
      </trkpt>
      <trkpt lat="62.05426" lon="5.60084">
        <ele>70.000685</ele>
        <time>2020-07-30T07:51:48.038Z</time>
      </trkpt>
      <trkpt lat="62.05417" lon="5.60088">
        <ele>70.151292</ele>
        <time>2020-07-30T07:51:50.031Z</time>
      </trkpt>
      <trkpt lat="62.05406" lon="5.60093">
        <ele>70.306898</ele>
        <time>2020-07-30T07:51:52.036Z</time>
      </trkpt>
      <trkpt lat="62.05396" lon="5.60098">
        <ele>70.466538</ele>
        <time>2020-07-30T07:51:54.033Z</time>
      </trkpt>
      <trkpt lat="62.05386" lon="5.60104">
        <ele>70.630137</ele>
        <time>2020-07-30T07:51:56.044Z</time>
      </trkpt>
      <trkpt lat="62.05375" lon="5.6011">
        <ele>70.789368</ele>
        <time>2020-07-30T07:51:58.038Z</time>
      </trkpt>
      <trkpt lat="62.05366" lon="5.60116">
        <ele>70.935159</ele>
        <time>2020-07-30T07:52:00.015Z</time>
      </trkpt>
      <trkpt lat="62.05354" lon="5.60124">
        <ele>71.121497</ele>
        <time>2020-07-30T07:52:03.041Z</time>
      </trkpt>
      <trkpt lat="62.05344" lon="5.6013">
        <ele>71.279848</ele>
        <time>2020-07-30T07:52:06.029Z</time>
      </trkpt>
      <trkpt lat="62.05334" lon="5.60137">
        <ele>71.47368</ele>
        <time>2020-07-30T07:52:10.031Z</time>
      </trkpt>
      <trkpt lat="62.05324" lon="5.60144">
        <ele>71.709434</ele>
        <time>2020-07-30T07:52:14.029Z</time>
      </trkpt>
      <trkpt lat="62.05315" lon="5.60152">
        <ele>71.955644</ele>
        <time>2020-07-30T07:52:19.034Z</time>
      </trkpt>
      <trkpt lat="62.05306" lon="5.6016">
        <ele>72.207562</ele>
        <time>2020-07-30T07:52:24.036Z</time>
      </trkpt>
      <trkpt lat="62.05296" lon="5.6017">
        <ele>72.457802</ele>
        <time>2020-07-30T07:52:29.027Z</time>
      </trkpt>
      <trkpt lat="62.05287" lon="5.60176">
        <ele>72.69438</ele>
        <time>2020-07-30T07:52:34.064Z</time>
      </trkpt>
      <trkpt lat="62.05278" lon="5.60188">
        <ele>72.941534</ele>
        <time>2020-07-30T07:52:39.031Z</time>
      </trkpt>
      <trkpt lat="62.0527" lon="5.60196">
        <ele>73.175041</ele>
        <time>2020-07-30T07:52:43.072Z</time>
      </trkpt>
      <trkpt lat="62.05261" lon="5.60204">
        <ele>73.416184</ele>
        <time>2020-07-30T07:52:47.032Z</time>
      </trkpt>
      <trkpt lat="62.05251" lon="5.60212">
        <ele>73.676691</ele>
        <time>2020-07-30T07:52:51.072Z</time>
      </trkpt>
      <trkpt lat="62.0524" lon="5.60223">
        <ele>73.965646</ele>
        <time>2020-07-30T07:52:55.033Z</time>
      </trkpt>
      <trkpt lat="62.05231" lon="5.60231">
        <ele>74.194215</ele>
        <time>2020-07-30T07:52:58.054Z</time>
      </trkpt>
      <trkpt lat="62.05222" lon="5.6024">
        <ele>74.43764</ele>
        <time>2020-07-30T07:53:01.022Z</time>
      </trkpt>
      <trkpt lat="62.05213" lon="5.60249">
        <ele>74.679962</ele>
        <time>2020-07-30T07:53:04.088Z</time>
      </trkpt>
      <trkpt lat="62.05205" lon="5.60257">
        <ele>74.91347</ele>
        <time>2020-07-30T07:53:07.052Z</time>
      </trkpt>
      <trkpt lat="62.05196" lon="5.60266">
        <ele>75.148019</ele>
        <time>2020-07-30T07:53:10.035Z</time>
      </trkpt>
      <trkpt lat="62.05187" lon="5.60274">
        <ele>75.375253</ele>
        <time>2020-07-30T07:53:13.034Z</time>
      </trkpt>
      <trkpt lat="62.05178" lon="5.60282">
        <ele>75.62316</ele>
        <time>2020-07-30T07:53:16.037Z</time>
      </trkpt>
      <trkpt lat="62.05169" lon="5.6029">
        <ele>75.771354</ele>
        <time>2020-07-30T07:53:19.036Z</time>
      </trkpt>
      <trkpt lat="62.0516" lon="5.60299">
        <ele>75.66639</ele>
        <time>2020-07-30T07:53:22.060Z</time>
      </trkpt>
      <trkpt lat="62.0515" lon="5.60308">
        <ele>75.556958</ele>
        <time>2020-07-30T07:53:25.044Z</time>
      </trkpt>
      <trkpt lat="62.05141" lon="5.60316">
        <ele>75.447917</ele>
        <time>2020-07-30T07:53:28.026Z</time>
      </trkpt>
      <trkpt lat="62.05131" lon="5.60325">
        <ele>75.339068</ele>
        <time>2020-07-30T07:53:31.033Z</time>
      </trkpt>
      <trkpt lat="62.05122" lon="5.60335">
        <ele>75.226695</ele>
        <time>2020-07-30T07:53:34.036Z</time>
      </trkpt>
      <trkpt lat="62.05113" lon="5.60345">
        <ele>75.118482</ele>
        <time>2020-07-30T07:53:37.048Z</time>
      </trkpt>
      <trkpt lat="62.05103" lon="5.60354">
        <ele>75.003984</ele>
        <time>2020-07-30T07:53:40.033Z</time>
      </trkpt>
      <trkpt lat="62.05093" lon="5.60364">
        <ele>74.892271</ele>
        <time>2020-07-30T07:53:43.038Z</time>
      </trkpt>
      <trkpt lat="62.05083" lon="5.60375">
        <ele>74.7741</ele>
        <time>2020-07-30T07:53:46.056Z</time>
      </trkpt>
      <trkpt lat="62.05074" lon="5.60386">
        <ele>74.660096</ele>
        <time>2020-07-30T07:53:49.044Z</time>
      </trkpt>
      <trkpt lat="62.05063" lon="5.60398">
        <ele>74.534236</ele>
        <time>2020-07-30T07:53:52.063Z</time>
      </trkpt>
      <trkpt lat="62.05053" lon="5.60412">
        <ele>74.40122</ele>
        <time>2020-07-30T07:53:55.040Z</time>
      </trkpt>
      <trkpt lat="62.05042" lon="5.60428">
        <ele>74.2683</ele>
        <time>2020-07-30T07:53:58.032Z</time>
      </trkpt>
      <trkpt lat="62.05034" lon="5.60448">
        <ele>74.13172</ele>
        <time>2020-07-30T07:54:01.030Z</time>
      </trkpt>
      <trkpt lat="62.05027" lon="5.60463">
        <ele>74.032357</ele>
        <time>2020-07-30T07:54:03.020Z</time>
      </trkpt>
      <trkpt lat="62.05021" lon="5.60479">
        <ele>73.926428</ele>
        <time>2020-07-30T07:54:05.024Z</time>
      </trkpt>
      <trkpt lat="62.05014" lon="5.60496">
        <ele>73.83759</ele>
        <time>2020-07-30T07:54:07.073Z</time>
      </trkpt>
      <trkpt lat="62.05009" lon="5.60515">
        <ele>73.754642</ele>
        <time>2020-07-30T07:54:09.045Z</time>
      </trkpt>
      <trkpt lat="62.05003" lon="5.60535">
        <ele>73.670499</ele>
        <time>2020-07-30T07:54:11.063Z</time>
      </trkpt>
      <trkpt lat="62.04999" lon="5.60554">
        <ele>73.59272</ele>
        <time>2020-07-30T07:54:13.033Z</time>
      </trkpt>
      <trkpt lat="62.04995" lon="5.60573">
        <ele>73.515133</ele>
        <time>2020-07-30T07:54:15.097Z</time>
      </trkpt>
      <trkpt lat="62.04992" lon="5.60592">
        <ele>73.439854</ele>
        <time>2020-07-30T07:54:17.033Z</time>
      </trkpt>
      <trkpt lat="62.04989" lon="5.6061">
        <ele>73.368113</ele>
        <time>2020-07-30T07:54:19.021Z</time>
      </trkpt>
      <trkpt lat="62.04984" lon="5.60636">
        <ele>73.264201</ele>
        <time>2020-07-30T07:54:22.017Z</time>
      </trkpt>
      <trkpt lat="62.04979" lon="5.6066">
        <ele>73.167171</ele>
        <time>2020-07-30T07:54:25.023Z</time>
      </trkpt>
      <trkpt lat="62.04976" lon="5.60681">
        <ele>73.082137</ele>
        <time>2020-07-30T07:54:28.020Z</time>
      </trkpt>
      <trkpt lat="62.04972" lon="5.60705">
        <ele>72.990913</ele>
        <time>2020-07-30T07:54:31.081Z</time>
      </trkpt>
      <trkpt lat="62.04969" lon="5.60729">
        <ele>72.895196</ele>
        <time>2020-07-30T07:54:34.035Z</time>
      </trkpt>
      <trkpt lat="62.04965" lon="5.60756">
        <ele>72.790948</ele>
        <time>2020-07-30T07:54:37.068Z</time>
      </trkpt>
      <trkpt lat="62.04962" lon="5.60777">
        <ele>72.710495</ele>
        <time>2020-07-30T07:54:39.046Z</time>
      </trkpt>
      <trkpt lat="62.04958" lon="5.60799">
        <ele>72.624005</ele>
        <time>2020-07-30T07:54:41.033Z</time>
      </trkpt>
      <trkpt lat="62.04954" lon="5.60823">
        <ele>72.528883</ele>
        <time>2020-07-30T07:54:43.029Z</time>
      </trkpt>
      <trkpt lat="62.0495" lon="5.60849">
        <ele>72.328829</ele>
        <time>2020-07-30T07:54:45.021Z</time>
      </trkpt>
      <trkpt lat="62.04946" lon="5.60877">
        <ele>71.996218</ele>
        <time>2020-07-30T07:54:47.023Z</time>
      </trkpt>
      <trkpt lat="62.04942" lon="5.60906">
        <ele>71.647083</ele>
        <time>2020-07-30T07:54:49.058Z</time>
      </trkpt>
      <trkpt lat="62.04938" lon="5.60935">
        <ele>71.291006</ele>
        <time>2020-07-30T07:54:51.019Z</time>
      </trkpt>
      <trkpt lat="62.04933" lon="5.60965">
        <ele>70.928359</ele>
        <time>2020-07-30T07:54:53.032Z</time>
      </trkpt>
      <trkpt lat="62.04928" lon="5.60995">
        <ele>70.565451</ele>
        <time>2020-07-30T07:54:55.042Z</time>
      </trkpt>
      <trkpt lat="62.04923" lon="5.61024">
        <ele>70.21083</ele>
        <time>2020-07-30T07:54:57.032Z</time>
      </trkpt>
      <trkpt lat="62.04919" lon="5.61052">
        <ele>69.871979</ele>
        <time>2020-07-30T07:54:59.041Z</time>
      </trkpt>
      <trkpt lat="62.04914" lon="5.61079">
        <ele>69.540413</ele>
        <time>2020-07-30T07:55:01.056Z</time>
      </trkpt>
      <trkpt lat="62.0491" lon="5.61106">
        <ele>69.208461</ele>
        <time>2020-07-30T07:55:03.037Z</time>
      </trkpt>
      <trkpt lat="62.04906" lon="5.61134">
        <ele>68.873997</ele>
        <time>2020-07-30T07:55:05.053Z</time>
      </trkpt>
      <trkpt lat="62.04902" lon="5.61161">
        <ele>68.543122</ele>
        <time>2020-07-30T07:55:07.078Z</time>
      </trkpt>
      <trkpt lat="62.04899" lon="5.61188">
        <ele>68.217542</ele>
        <time>2020-07-30T07:55:09.041Z</time>
      </trkpt>
      <trkpt lat="62.04895" lon="5.61213">
        <ele>68.193427</ele>
        <time>2020-07-30T07:55:11.048Z</time>
      </trkpt>
      <trkpt lat="62.04893" lon="5.61234">
        <ele>68.471289</ele>
        <time>2020-07-30T07:55:13.036Z</time>
      </trkpt>
      <trkpt lat="62.04891" lon="5.61261">
        <ele>68.81753</ele>
        <time>2020-07-30T07:55:16.034Z</time>
      </trkpt>
      <trkpt lat="62.04892" lon="5.61285">
        <ele>69.122047</ele>
        <time>2020-07-30T07:55:19.025Z</time>
      </trkpt>
      <trkpt lat="62.04893" lon="5.61306">
        <ele>69.38826</ele>
        <time>2020-07-30T07:55:22.044Z</time>
      </trkpt>
      <trkpt lat="62.04893" lon="5.61327">
        <ele>69.663643</ele>
        <time>2020-07-30T07:55:25.036Z</time>
      </trkpt>
      <trkpt lat="62.04894" lon="5.61348">
        <ele>69.927527</ele>
        <time>2020-07-30T07:55:28.033Z</time>
      </trkpt>
      <trkpt lat="62.04894" lon="5.61367">
        <ele>70.176441</ele>
        <time>2020-07-30T07:55:31.032Z</time>
      </trkpt>
      <trkpt lat="62.04894" lon="5.61387">
        <ele>70.428518</ele>
        <time>2020-07-30T07:55:34.053Z</time>
      </trkpt>
      <trkpt lat="62.04895" lon="5.61408">
        <ele>70.696387</ele>
        <time>2020-07-30T07:55:37.062Z</time>
      </trkpt>
      <trkpt lat="62.04896" lon="5.6143">
        <ele>70.982136</ele>
        <time>2020-07-30T07:55:40.034Z</time>
      </trkpt>
      <trkpt lat="62.04896" lon="5.61453">
        <ele>71.275204</ele>
        <time>2020-07-30T07:55:43.026Z</time>
      </trkpt>
      <trkpt lat="62.04895" lon="5.61474">
        <ele>71.549309</ele>
        <time>2020-07-30T07:55:46.020Z</time>
      </trkpt>
      <trkpt lat="62.04896" lon="5.61497">
        <ele>71.836334</ele>
        <time>2020-07-30T07:55:49.064Z</time>
      </trkpt>
      <trkpt lat="62.04897" lon="5.61522">
        <ele>72.164964</ele>
        <time>2020-07-30T07:55:52.038Z</time>
      </trkpt>
      <trkpt lat="62.04899" lon="5.6155">
        <ele>72.518543</ele>
        <time>2020-07-30T07:55:55.035Z</time>
      </trkpt>
      <trkpt lat="62.049" lon="5.61572">
        <ele>72.80801</ele>
        <time>2020-07-30T07:55:57.025Z</time>
      </trkpt>
      <trkpt lat="62.04902" lon="5.61598">
        <ele>72.846224</ele>
        <time>2020-07-30T07:55:59.059Z</time>
      </trkpt>
      <trkpt lat="62.04905" lon="5.61626">
        <ele>72.625037</ele>
        <time>2020-07-30T07:56:01.021Z</time>
      </trkpt>
      <trkpt lat="62.04908" lon="5.61655">
        <ele>72.385738</ele>
        <time>2020-07-30T07:56:03.032Z</time>
      </trkpt>
      <trkpt lat="62.04913" lon="5.61687">
        <ele>72.126672</ele>
        <time>2020-07-30T07:56:05.027Z</time>
      </trkpt>
      <trkpt lat="62.04918" lon="5.61719">
        <ele>71.857571</ele>
        <time>2020-07-30T07:56:07.042Z</time>
      </trkpt>
      <trkpt lat="62.04924" lon="5.61752">
        <ele>71.579031</ele>
        <time>2020-07-30T07:56:09.045Z</time>
      </trkpt>
      <trkpt lat="62.0493" lon="5.61785">
        <ele>71.303094</ele>
        <time>2020-07-30T07:56:11.046Z</time>
      </trkpt>
      <trkpt lat="62.04936" lon="5.6182">
        <ele>71.008499</ele>
        <time>2020-07-30T07:56:13.059Z</time>
      </trkpt>
      <trkpt lat="62.04941" lon="5.61837">
        <ele>70.854009</ele>
        <time>2020-07-30T07:56:14.049Z</time>
      </trkpt>
      <trkpt lat="62.04947" lon="5.61853">
        <ele>70.695188</ele>
        <time>2020-07-30T07:56:15.040Z</time>
      </trkpt>
      <trkpt lat="62.04954" lon="5.61867">
        <ele>70.529697</ele>
        <time>2020-07-30T07:56:16.031Z</time>
      </trkpt>
      <trkpt lat="62.04963" lon="5.6188">
        <ele>70.357671</ele>
        <time>2020-07-30T07:56:17.044Z</time>
      </trkpt>
      <trkpt lat="62.04972" lon="5.61892">
        <ele>70.173352</ele>
        <time>2020-07-30T07:56:18.029Z</time>
      </trkpt>
      <trkpt lat="62.04982" lon="5.61902">
        <ele>69.989856</ele>
        <time>2020-07-30T07:56:19.030Z</time>
      </trkpt>
      <trkpt lat="62.04992" lon="5.61909">
        <ele>69.683912</ele>
        <time>2020-07-30T07:56:20.029Z</time>
      </trkpt>
      <trkpt lat="62.05003" lon="5.61912">
        <ele>69.35377</ele>
        <time>2020-07-30T07:56:21.050Z</time>
      </trkpt>
      <trkpt lat="62.05012" lon="5.61913">
        <ele>69.045498</ele>
        <time>2020-07-30T07:56:22.037Z</time>
      </trkpt>
      <trkpt lat="62.05021" lon="5.61915">
        <ele>68.753146</ele>
        <time>2020-07-30T07:56:23.022Z</time>
      </trkpt>
      <trkpt lat="62.05039" lon="5.61917">
        <ele>68.209689</ele>
        <time>2020-07-30T07:56:25.028Z</time>
      </trkpt>
      <trkpt lat="62.05054" lon="5.6192">
        <ele>67.706148</ele>
        <time>2020-07-30T07:56:27.043Z</time>
      </trkpt>
      <trkpt lat="62.0507" lon="5.61927">
        <ele>67.190903</ele>
        <time>2020-07-30T07:56:29.058Z</time>
      </trkpt>
      <trkpt lat="62.05085" lon="5.61935">
        <ele>66.69777</ele>
        <time>2020-07-30T07:56:31.042Z</time>
      </trkpt>
      <trkpt lat="62.05099" lon="5.61945">
        <ele>66.234821</ele>
        <time>2020-07-30T07:56:33.038Z</time>
      </trkpt>
      <trkpt lat="62.05114" lon="5.61958">
        <ele>65.728931</ele>
        <time>2020-07-30T07:56:35.033Z</time>
      </trkpt>
      <trkpt lat="62.05129" lon="5.61975">
        <ele>65.186707</ele>
        <time>2020-07-30T07:56:37.040Z</time>
      </trkpt>
      <trkpt lat="62.05137" lon="5.61986">
        <ele>64.89731</ele>
        <time>2020-07-30T07:56:38.038Z</time>
      </trkpt>
      <trkpt lat="62.05145" lon="5.61996">
        <ele>64.603989</ele>
        <time>2020-07-30T07:56:39.030Z</time>
      </trkpt>
      <trkpt lat="62.05153" lon="5.62007">
        <ele>64.303718</ele>
        <time>2020-07-30T07:56:40.052Z</time>
      </trkpt>
      <trkpt lat="62.05161" lon="5.62018">
        <ele>63.932932</ele>
        <time>2020-07-30T07:56:41.038Z</time>
      </trkpt>
      <trkpt lat="62.05169" lon="5.62029">
        <ele>63.544043</ele>
        <time>2020-07-30T07:56:42.065Z</time>
      </trkpt>
      <trkpt lat="62.05177" lon="5.62039">
        <ele>63.156114</ele>
        <time>2020-07-30T07:56:43.043Z</time>
      </trkpt>
      <trkpt lat="62.05186" lon="5.62049">
        <ele>62.761213</ele>
        <time>2020-07-30T07:56:44.045Z</time>
      </trkpt>
      <trkpt lat="62.05194" lon="5.6206">
        <ele>62.373284</ele>
        <time>2020-07-30T07:56:45.046Z</time>
      </trkpt>
      <trkpt lat="62.05202" lon="5.6207">
        <ele>61.982456</ele>
        <time>2020-07-30T07:56:46.061Z</time>
      </trkpt>
      <trkpt lat="62.05211" lon="5.62081">
        <ele>61.595072</ele>
        <time>2020-07-30T07:56:47.047Z</time>
      </trkpt>
      <trkpt lat="62.05219" lon="5.62091">
        <ele>61.211576</ele>
        <time>2020-07-30T07:56:48.072Z</time>
      </trkpt>
      <trkpt lat="62.05227" lon="5.62102">
        <ele>60.830577</ele>
        <time>2020-07-30T07:56:49.068Z</time>
      </trkpt>
      <trkpt lat="62.05235" lon="5.62112">
        <ele>60.454977</ele>
        <time>2020-07-30T07:56:50.038Z</time>
      </trkpt>
      <trkpt lat="62.05243" lon="5.62122">
        <ele>60.079379</ele>
        <time>2020-07-30T07:56:51.025Z</time>
      </trkpt>
      <trkpt lat="62.05251" lon="5.62133">
        <ele>59.699849</ele>
        <time>2020-07-30T07:56:52.034Z</time>
      </trkpt>
      <trkpt lat="62.05259" lon="5.62143">
        <ele>59.319822</ele>
        <time>2020-07-30T07:56:53.012Z</time>
      </trkpt>
      <trkpt lat="62.05267" lon="5.62153">
        <ele>58.939795</ele>
        <time>2020-07-30T07:56:54.029Z</time>
      </trkpt>
      <trkpt lat="62.05275" lon="5.62164">
        <ele>58.562245</ele>
        <time>2020-07-30T07:56:55.064Z</time>
      </trkpt>
      <trkpt lat="62.05283" lon="5.62174">
        <ele>58.187136</ele>
        <time>2020-07-30T07:56:56.030Z</time>
      </trkpt>
      <trkpt lat="62.05291" lon="5.62185">
        <ele>57.817445</ele>
        <time>2020-07-30T07:56:57.048Z</time>
      </trkpt>
      <trkpt lat="62.05306" lon="5.62205">
        <ele>57.103579</ele>
        <time>2020-07-30T07:56:59.056Z</time>
      </trkpt>
      <trkpt lat="62.0532" lon="5.62224">
        <ele>56.709775</ele>
        <time>2020-07-30T07:57:01.033Z</time>
      </trkpt>
      <trkpt lat="62.05334" lon="5.6224">
        <ele>56.396632</ele>
        <time>2020-07-30T07:57:03.053Z</time>
      </trkpt>
      <trkpt lat="62.05347" lon="5.62256">
        <ele>56.106577</ele>
        <time>2020-07-30T07:57:05.035Z</time>
      </trkpt>
      <trkpt lat="62.05358" lon="5.62271">
        <ele>55.834604</ele>
        <time>2020-07-30T07:57:07.034Z</time>
      </trkpt>
      <trkpt lat="62.05369" lon="5.62284">
        <ele>55.58229</ele>
        <time>2020-07-30T07:57:09.033Z</time>
      </trkpt>
      <trkpt lat="62.0538" lon="5.62295">
        <ele>55.355334</ele>
        <time>2020-07-30T07:57:11.045Z</time>
      </trkpt>
      <trkpt lat="62.0539" lon="5.623">
        <ele>55.1523</ele>
        <time>2020-07-30T07:57:13.040Z</time>
      </trkpt>
      <trkpt lat="62.05399" lon="5.62303">
        <ele>54.956303</ele>
        <time>2020-07-30T07:57:15.019Z</time>
      </trkpt>
      <trkpt lat="62.05409" lon="5.62304">
        <ele>54.761695</ele>
        <time>2020-07-30T07:57:17.036Z</time>
      </trkpt>
      <trkpt lat="62.05419" lon="5.62304">
        <ele>54.575051</ele>
        <time>2020-07-30T07:57:19.036Z</time>
      </trkpt>
      <trkpt lat="62.05428" lon="5.62303">
        <ele>54.392119</ele>
        <time>2020-07-30T07:57:21.050Z</time>
      </trkpt>
      <trkpt lat="62.0544" lon="5.62298">
        <ele>54.148026</ele>
        <time>2020-07-30T07:57:24.029Z</time>
      </trkpt>
      <trkpt lat="62.0545" lon="5.62291">
        <ele>53.935938</ele>
        <time>2020-07-30T07:57:27.047Z</time>
      </trkpt>
      <trkpt lat="62.05459" lon="5.62284">
        <ele>53.745335</ele>
        <time>2020-07-30T07:57:30.042Z</time>
      </trkpt>
      <trkpt lat="62.05469" lon="5.62275">
        <ele>53.535037</ele>
        <time>2020-07-30T07:57:34.020Z</time>
      </trkpt>
      <trkpt lat="62.05478" lon="5.62267">
        <ele>53.672278</ele>
        <time>2020-07-30T07:57:38.035Z</time>
      </trkpt>
      <trkpt lat="62.05488" lon="5.62257">
        <ele>54.331732</ele>
        <time>2020-07-30T07:57:43.030Z</time>
      </trkpt>
      <trkpt lat="62.05498" lon="5.62248">
        <ele>54.969148</ele>
        <time>2020-07-30T07:57:48.054Z</time>
      </trkpt>
      <trkpt lat="62.05508" lon="5.62239">
        <ele>55.633166</ele>
        <time>2020-07-30T07:57:53.041Z</time>
      </trkpt>
      <trkpt lat="62.05518" lon="5.62231">
        <ele>56.272321</ele>
        <time>2020-07-30T07:57:58.045Z</time>
      </trkpt>
      <trkpt lat="62.05527" lon="5.62222">
        <ele>56.87892</ele>
        <time>2020-07-30T07:58:03.038Z</time>
      </trkpt>
      <trkpt lat="62.05537" lon="5.62212">
        <ele>57.506277</ele>
        <time>2020-07-30T07:58:08.024Z</time>
      </trkpt>
      <trkpt lat="62.05546" lon="5.62204">
        <ele>58.084249</ele>
        <time>2020-07-30T07:58:13.032Z</time>
      </trkpt>
      <trkpt lat="62.05554" lon="5.62197">
        <ele>58.653887</ele>
        <time>2020-07-30T07:58:18.066Z</time>
      </trkpt>
      <trkpt lat="62.05564" lon="5.62189">
        <ele>59.289189</ele>
        <time>2020-07-30T07:58:23.063Z</time>
      </trkpt>
      <trkpt lat="62.05572" lon="5.6218">
        <ele>59.82913</ele>
        <time>2020-07-30T07:58:27.038Z</time>
      </trkpt>
      <trkpt lat="62.05582" lon="5.62172">
        <ele>60.436891</ele>
        <time>2020-07-30T07:58:32.028Z</time>
      </trkpt>
      <trkpt lat="62.05591" lon="5.62165">
        <ele>61.005048</ele>
        <time>2020-07-30T07:58:37.021Z</time>
      </trkpt>
      <trkpt lat="62.056" lon="5.62155">
        <ele>61.648082</ele>
        <time>2020-07-30T07:58:42.024Z</time>
      </trkpt>
      <trkpt lat="62.05609" lon="5.62146">
        <ele>62.244115</ele>
        <time>2020-07-30T07:58:47.077Z</time>
      </trkpt>
      <trkpt lat="62.05619" lon="5.62137">
        <ele>62.868318</ele>
        <time>2020-07-30T07:58:52.043Z</time>
      </trkpt>
      <trkpt lat="62.05628" lon="5.62129">
        <ele>63.424304</ele>
        <time>2020-07-30T07:58:56.033Z</time>
      </trkpt>
      <trkpt lat="62.05637" lon="5.62121">
        <ele>64.018805</ele>
        <time>2020-07-30T07:59:01.035Z</time>
      </trkpt>
      <trkpt lat="62.05647" lon="5.62113">
        <ele>64.812585</ele>
        <time>2020-07-30T07:59:07.056Z</time>
      </trkpt>
      <trkpt lat="62.05655" lon="5.62105">
        <ele>65.558437</ele>
        <time>2020-07-30T07:59:12.053Z</time>
      </trkpt>
      <trkpt lat="62.05663" lon="5.62098">
        <ele>66.298412</ele>
        <time>2020-07-30T07:59:17.032Z</time>
      </trkpt>
      <trkpt lat="62.05672" lon="5.6209">
        <ele>67.024841</ele>
        <time>2020-07-30T07:59:22.046Z</time>
      </trkpt>
      <trkpt lat="62.05681" lon="5.62081">
        <ele>67.846475</ele>
        <time>2020-07-30T07:59:28.034Z</time>
      </trkpt>
      <trkpt lat="62.0569" lon="5.62074">
        <ele>68.638567</ele>
        <time>2020-07-30T07:59:34.044Z</time>
      </trkpt>
      <trkpt lat="62.05699" lon="5.62065">
        <ele>69.43147</ele>
        <time>2020-07-30T07:59:40.022Z</time>
      </trkpt>
      <trkpt lat="62.05708" lon="5.62057">
        <ele>70.201619</ele>
        <time>2020-07-30T07:59:46.032Z</time>
      </trkpt>
      <trkpt lat="62.05716" lon="5.6205">
        <ele>70.951921</ele>
        <time>2020-07-30T07:59:52.025Z</time>
      </trkpt>
      <trkpt lat="62.05726" lon="5.62049">
        <ele>71.729821</ele>
        <time>2020-07-30T07:59:58.035Z</time>
      </trkpt>
      <trkpt lat="62.05735" lon="5.62044">
        <ele>72.518896</ele>
        <time>2020-07-30T08:00:04.023Z</time>
      </trkpt>
      <trkpt lat="62.05745" lon="5.62038">
        <ele>73.325182</ele>
        <time>2020-07-30T08:00:11.040Z</time>
      </trkpt>
      <trkpt lat="62.05755" lon="5.62039">
        <ele>74.118182</ele>
        <time>2020-07-30T08:00:18.042Z</time>
      </trkpt>
      <trkpt lat="62.05765" lon="5.62035">
        <ele>74.930154</ele>
        <time>2020-07-30T08:00:24.035Z</time>
      </trkpt>
      <trkpt lat="62.05774" lon="5.62032">
        <ele>75.707214</ele>
        <time>2020-07-30T08:00:30.031Z</time>
      </trkpt>
      <trkpt lat="62.05784" lon="5.62033">
        <ele>76.468152</ele>
        <time>2020-07-30T08:00:36.036Z</time>
      </trkpt>
      <trkpt lat="62.05793" lon="5.62034">
        <ele>77.254817</ele>
        <time>2020-07-30T08:00:42.038Z</time>
      </trkpt>
      <trkpt lat="62.05804" lon="5.62037">
        <ele>78.093612</ele>
        <time>2020-07-30T08:00:48.031Z</time>
      </trkpt>
      <trkpt lat="62.05813" lon="5.6204">
        <ele>78.737846</ele>
        <time>2020-07-30T08:00:54.055Z</time>
      </trkpt>
      <trkpt lat="62.05822" lon="5.62042">
        <ele>78.727558</ele>
        <time>2020-07-30T08:00:59.036Z</time>
      </trkpt>
      <trkpt lat="62.05831" lon="5.62043">
        <ele>78.71734</ele>
        <time>2020-07-30T08:01:03.046Z</time>
      </trkpt>
      <trkpt lat="62.05842" lon="5.62048">
        <ele>78.70457</ele>
        <time>2020-07-30T08:01:07.060Z</time>
      </trkpt>
      <trkpt lat="62.05854" lon="5.62051">
        <ele>78.69201</ele>
        <time>2020-07-30T08:01:11.044Z</time>
      </trkpt>
      <trkpt lat="62.05866" lon="5.62054">
        <ele>78.678345</ele>
        <time>2020-07-30T08:01:15.035Z</time>
      </trkpt>
      <trkpt lat="62.05876" lon="5.62059">
        <ele>78.665964</ele>
        <time>2020-07-30T08:01:18.052Z</time>
      </trkpt>
      <trkpt lat="62.05889" lon="5.62065">
        <ele>78.651861</ele>
        <time>2020-07-30T08:01:21.033Z</time>
      </trkpt>
      <trkpt lat="62.05898" lon="5.62069">
        <ele>78.641738</ele>
        <time>2020-07-30T08:01:23.028Z</time>
      </trkpt>
      <trkpt lat="62.05907" lon="5.62073">
        <ele>78.630759</ele>
        <time>2020-07-30T08:01:25.043Z</time>
      </trkpt>
      <trkpt lat="62.05918" lon="5.62078">
        <ele>78.618828</ele>
        <time>2020-07-30T08:01:27.064Z</time>
      </trkpt>
      <trkpt lat="62.05928" lon="5.62083">
        <ele>78.606486</ele>
        <time>2020-07-30T08:01:29.055Z</time>
      </trkpt>
      <trkpt lat="62.05939" lon="5.62089">
        <ele>78.593806</ele>
        <time>2020-07-30T08:01:31.023Z</time>
      </trkpt>
      <trkpt lat="62.0595" lon="5.62095">
        <ele>78.581234</ele>
        <time>2020-07-30T08:01:33.043Z</time>
      </trkpt>
      <trkpt lat="62.05962" lon="5.621">
        <ele>78.567822</ele>
        <time>2020-07-30T08:01:35.076Z</time>
      </trkpt>
      <trkpt lat="62.05974" lon="5.62106">
        <ele>78.553662</ele>
        <time>2020-07-30T08:01:37.020Z</time>
      </trkpt>
      <trkpt lat="62.05987" lon="5.62112">
        <ele>78.538616</ele>
        <time>2020-07-30T08:01:39.040Z</time>
      </trkpt>
      <trkpt lat="62.06" lon="5.6212">
        <ele>78.034466</ele>
        <time>2020-07-30T08:01:41.023Z</time>
      </trkpt>
      <trkpt lat="62.06014" lon="5.62127">
        <ele>77.478311</ele>
        <time>2020-07-30T08:01:43.053Z</time>
      </trkpt>
      <trkpt lat="62.06029" lon="5.62133">
        <ele>76.886998</ele>
        <time>2020-07-30T08:01:45.068Z</time>
      </trkpt>
      <trkpt lat="62.06045" lon="5.62142">
        <ele>76.249705</ele>
        <time>2020-07-30T08:01:47.050Z</time>
      </trkpt>
      <trkpt lat="62.06062" lon="5.6215">
        <ele>75.574896</ele>
        <time>2020-07-30T08:01:49.067Z</time>
      </trkpt>
      <trkpt lat="62.06079" lon="5.62159">
        <ele>74.878846</ele>
        <time>2020-07-30T08:01:51.042Z</time>
      </trkpt>
      <trkpt lat="62.06088" lon="5.62163">
        <ele>74.521788</ele>
        <time>2020-07-30T08:01:52.025Z</time>
      </trkpt>
      <trkpt lat="62.06097" lon="5.62167">
        <ele>74.157111</ele>
        <time>2020-07-30T08:01:53.037Z</time>
      </trkpt>
      <trkpt lat="62.06106" lon="5.62172">
        <ele>73.788622</ele>
        <time>2020-07-30T08:01:54.028Z</time>
      </trkpt>
      <trkpt lat="62.06115" lon="5.62176">
        <ele>73.416317</ele>
        <time>2020-07-30T08:01:55.024Z</time>
      </trkpt>
      <trkpt lat="62.06125" lon="5.6218">
        <ele>73.037504</ele>
        <time>2020-07-30T08:01:56.029Z</time>
      </trkpt>
      <trkpt lat="62.06135" lon="5.62185">
        <ele>72.653744</ele>
        <time>2020-07-30T08:01:57.051Z</time>
      </trkpt>
      <trkpt lat="62.06144" lon="5.62189">
        <ele>72.257356</ele>
        <time>2020-07-30T08:01:58.035Z</time>
      </trkpt>
      <trkpt lat="62.06154" lon="5.62194">
        <ele>71.859313</ele>
        <time>2020-07-30T08:01:59.036Z</time>
      </trkpt>
      <trkpt lat="62.06164" lon="5.622">
        <ele>71.46986</ele>
        <time>2020-07-30T08:02:00.053Z</time>
      </trkpt>
      <trkpt lat="62.06174" lon="5.62204">
        <ele>71.120672</ele>
        <time>2020-07-30T08:02:01.036Z</time>
      </trkpt>
      <trkpt lat="62.06184" lon="5.62209">
        <ele>70.775588</ele>
        <time>2020-07-30T08:02:02.059Z</time>
      </trkpt>
      <trkpt lat="62.06193" lon="5.62214">
        <ele>70.433894</ele>
        <time>2020-07-30T08:02:03.025Z</time>
      </trkpt>
      <trkpt lat="62.06202" lon="5.62219">
        <ele>70.103789</ele>
        <time>2020-07-30T08:02:04.026Z</time>
      </trkpt>
      <trkpt lat="62.06212" lon="5.62224">
        <ele>69.766552</ele>
        <time>2020-07-30T08:02:05.035Z</time>
      </trkpt>
      <trkpt lat="62.06221" lon="5.62229">
        <ele>69.434644</ele>
        <time>2020-07-30T08:02:06.036Z</time>
      </trkpt>
      <trkpt lat="62.0623" lon="5.62233">
        <ele>69.109871</ele>
        <time>2020-07-30T08:02:07.039Z</time>
      </trkpt>
      <trkpt lat="62.06239" lon="5.62238">
        <ele>68.785831</ele>
        <time>2020-07-30T08:02:08.022Z</time>
      </trkpt>
      <trkpt lat="62.06248" lon="5.62242">
        <ele>68.465538</ele>
        <time>2020-07-30T08:02:09.025Z</time>
      </trkpt>
      <trkpt lat="62.06257" lon="5.62246">
        <ele>68.145596</ele>
        <time>2020-07-30T08:02:10.035Z</time>
      </trkpt>
      <trkpt lat="62.06266" lon="5.6225">
        <ele>67.825302</ele>
        <time>2020-07-30T08:02:11.042Z</time>
      </trkpt>
      <trkpt lat="62.06275" lon="5.62255">
        <ele>67.504649</ele>
        <time>2020-07-30T08:02:12.033Z</time>
      </trkpt>
      <trkpt lat="62.06284" lon="5.62259">
        <ele>67.180247</ele>
        <time>2020-07-30T08:02:13.053Z</time>
      </trkpt>
      <trkpt lat="62.06293" lon="5.62264">
        <ele>66.856439</ele>
        <time>2020-07-30T08:02:14.037Z</time>
      </trkpt>
      <trkpt lat="62.06302" lon="5.6227">
        <ele>66.533053</ele>
        <time>2020-07-30T08:02:15.031Z</time>
      </trkpt>
      <trkpt lat="62.06312" lon="5.62275">
        <ele>66.195405</ele>
        <time>2020-07-30T08:02:16.054Z</time>
      </trkpt>
      <trkpt lat="62.06322" lon="5.6228">
        <ele>65.848074</ele>
        <time>2020-07-30T08:02:17.047Z</time>
      </trkpt>
      <trkpt lat="62.06332" lon="5.62284">
        <ele>65.477074</ele>
        <time>2020-07-30T08:02:18.035Z</time>
      </trkpt>
      <trkpt lat="62.06343" lon="5.62289">
        <ele>65.059391</ele>
        <time>2020-07-30T08:02:19.019Z</time>
      </trkpt>
      <trkpt lat="62.06354" lon="5.62295">
        <ele>64.627602</ele>
        <time>2020-07-30T08:02:20.042Z</time>
      </trkpt>
      <trkpt lat="62.06364" lon="5.62302">
        <ele>64.200275</ele>
        <time>2020-07-30T08:02:21.023Z</time>
      </trkpt>
      <trkpt lat="62.06375" lon="5.62309">
        <ele>63.772949</ele>
        <time>2020-07-30T08:02:22.075Z</time>
      </trkpt>
      <trkpt lat="62.06386" lon="5.62315">
        <ele>63.342101</ele>
        <time>2020-07-30T08:02:23.034Z</time>
      </trkpt>
      <trkpt lat="62.06396" lon="5.6232">
        <ele>62.921481</ele>
        <time>2020-07-30T08:02:24.039Z</time>
      </trkpt>
      <trkpt lat="62.06406" lon="5.62325">
        <ele>62.519765</ele>
        <time>2020-07-30T08:02:25.025Z</time>
      </trkpt>
      <trkpt lat="62.06416" lon="5.6233">
        <ele>62.131143</ele>
        <time>2020-07-30T08:02:26.038Z</time>
      </trkpt>
      <trkpt lat="62.06425" lon="5.62335">
        <ele>61.754733</ele>
        <time>2020-07-30T08:02:27.020Z</time>
      </trkpt>
      <trkpt lat="62.06434" lon="5.6234">
        <ele>61.386323</ele>
        <time>2020-07-30T08:02:28.037Z</time>
      </trkpt>
      <trkpt lat="62.06451" lon="5.62347">
        <ele>60.719704</ele>
        <time>2020-07-30T08:02:30.064Z</time>
      </trkpt>
      <trkpt lat="62.06467" lon="5.62353">
        <ele>60.100349</ele>
        <time>2020-07-30T08:02:32.035Z</time>
      </trkpt>
      <trkpt lat="62.06482" lon="5.62362">
        <ele>59.502993</ele>
        <time>2020-07-30T08:02:34.038Z</time>
      </trkpt>
      <trkpt lat="62.06497" lon="5.62369">
        <ele>58.905025</ele>
        <time>2020-07-30T08:02:36.021Z</time>
      </trkpt>
      <trkpt lat="62.0651" lon="5.62375">
        <ele>58.360369</ele>
        <time>2020-07-30T08:02:38.037Z</time>
      </trkpt>
      <trkpt lat="62.06523" lon="5.62379">
        <ele>57.967499</ele>
        <time>2020-07-30T08:02:40.044Z</time>
      </trkpt>
      <trkpt lat="62.06534" lon="5.62384">
        <ele>57.636911</ele>
        <time>2020-07-30T08:02:42.019Z</time>
      </trkpt>
      <trkpt lat="62.06545" lon="5.62389">
        <ele>57.340778</ele>
        <time>2020-07-30T08:02:44.084Z</time>
      </trkpt>
      <trkpt lat="62.06555" lon="5.62394">
        <ele>57.046268</ele>
        <time>2020-07-30T08:02:46.023Z</time>
      </trkpt>
      <trkpt lat="62.06565" lon="5.624">
        <ele>56.738185</ele>
        <time>2020-07-30T08:02:48.033Z</time>
      </trkpt>
      <trkpt lat="62.06577" lon="5.62404">
        <ele>56.407862</ele>
        <time>2020-07-30T08:02:50.046Z</time>
      </trkpt>
      <trkpt lat="62.06588" lon="5.6241">
        <ele>56.073672</ele>
        <time>2020-07-30T08:02:52.033Z</time>
      </trkpt>
      <trkpt lat="62.066" lon="5.62413">
        <ele>55.738261</ele>
        <time>2020-07-30T08:02:54.042Z</time>
      </trkpt>
      <trkpt lat="62.06611" lon="5.62415">
        <ele>55.410515</ele>
        <time>2020-07-30T08:02:56.064Z</time>
      </trkpt>
      <trkpt lat="62.06623" lon="5.62416">
        <ele>55.08358</ele>
        <time>2020-07-30T08:02:58.033Z</time>
      </trkpt>
      <trkpt lat="62.06634" lon="5.62417">
        <ele>54.759426</ele>
        <time>2020-07-30T08:03:00.043Z</time>
      </trkpt>
      <trkpt lat="62.06646" lon="5.62418">
        <ele>54.432542</ele>
        <time>2020-07-30T08:03:02.021Z</time>
      </trkpt>
      <trkpt lat="62.06657" lon="5.62418">
        <ele>54.10862</ele>
        <time>2020-07-30T08:03:04.027Z</time>
      </trkpt>
      <trkpt lat="62.06669" lon="5.62416">
        <ele>53.778589</ele>
        <time>2020-07-30T08:03:06.023Z</time>
      </trkpt>
      <trkpt lat="62.06681" lon="5.62414">
        <ele>53.436973</ele>
        <time>2020-07-30T08:03:08.037Z</time>
      </trkpt>
      <trkpt lat="62.06692" lon="5.62412">
        <ele>53.177217</ele>
        <time>2020-07-30T08:03:10.023Z</time>
      </trkpt>
      <trkpt lat="62.06704" lon="5.62408">
        <ele>53.390795</ele>
        <time>2020-07-30T08:03:12.031Z</time>
      </trkpt>
      <trkpt lat="62.06715" lon="5.62404">
        <ele>53.601286</ele>
        <time>2020-07-30T08:03:14.024Z</time>
      </trkpt>
      <trkpt lat="62.06725" lon="5.624">
        <ele>53.803591</ele>
        <time>2020-07-30T08:03:16.056Z</time>
      </trkpt>
      <trkpt lat="62.06735" lon="5.62396">
        <ele>53.996636</ele>
        <time>2020-07-30T08:03:18.032Z</time>
      </trkpt>
      <trkpt lat="62.06745" lon="5.62391">
        <ele>54.184988</ele>
        <time>2020-07-30T08:03:20.078Z</time>
      </trkpt>
      <trkpt lat="62.06755" lon="5.62387">
        <ele>54.365985</ele>
        <time>2020-07-30T08:03:22.066Z</time>
      </trkpt>
      <trkpt lat="62.06763" lon="5.62382">
        <ele>54.538423</ele>
        <time>2020-07-30T08:03:24.080Z</time>
      </trkpt>
      <trkpt lat="62.06772" lon="5.62378">
        <ele>54.709036</ele>
        <time>2020-07-30T08:03:26.028Z</time>
      </trkpt>
      <trkpt lat="62.06785" lon="5.62371">
        <ele>54.95284</ele>
        <time>2020-07-30T08:03:29.042Z</time>
      </trkpt>
      <trkpt lat="62.06798" lon="5.62363">
        <ele>55.205742</ele>
        <time>2020-07-30T08:03:32.042Z</time>
      </trkpt>
      <trkpt lat="62.0681" lon="5.62357">
        <ele>55.442239</ele>
        <time>2020-07-30T08:03:35.055Z</time>
      </trkpt>
      <trkpt lat="62.06822" lon="5.62352">
        <ele>55.671546</ele>
        <time>2020-07-30T08:03:38.073Z</time>
      </trkpt>
      <trkpt lat="62.06834" lon="5.62346">
        <ele>55.907623</ele>
        <time>2020-07-30T08:03:41.039Z</time>
      </trkpt>
      <trkpt lat="62.06846" lon="5.62341">
        <ele>56.134924</ele>
        <time>2020-07-30T08:03:44.031Z</time>
      </trkpt>
      <trkpt lat="62.06858" lon="5.62337">
        <ele>56.362225</ele>
        <time>2020-07-30T08:03:47.044Z</time>
      </trkpt>
      <trkpt lat="62.0687" lon="5.62332">
        <ele>56.628405</ele>
        <time>2020-07-30T08:03:50.083Z</time>
      </trkpt>
      <trkpt lat="62.06881" lon="5.62327">
        <ele>57.029491</ele>
        <time>2020-07-30T08:03:53.032Z</time>
      </trkpt>
      <trkpt lat="62.06894" lon="5.62321">
        <ele>57.452921</ele>
        <time>2020-07-30T08:03:56.074Z</time>
      </trkpt>
      <trkpt lat="62.06906" lon="5.62316">
        <ele>57.862211</ele>
        <time>2020-07-30T08:03:59.036Z</time>
      </trkpt>
      <trkpt lat="62.06917" lon="5.62311">
        <ele>58.250471</ele>
        <time>2020-07-30T08:04:02.042Z</time>
      </trkpt>
      <trkpt lat="62.06928" lon="5.62306">
        <ele>58.625268</ele>
        <time>2020-07-30T08:04:05.050Z</time>
      </trkpt>
      <trkpt lat="62.06938" lon="5.62301">
        <ele>58.973883</ele>
        <time>2020-07-30T08:04:08.023Z</time>
      </trkpt>
      <trkpt lat="62.06947" lon="5.62297">
        <ele>59.297797</ele>
        <time>2020-07-30T08:04:11.042Z</time>
      </trkpt>
      <trkpt lat="62.06956" lon="5.62293">
        <ele>59.606568</ele>
        <time>2020-07-30T08:04:14.039Z</time>
      </trkpt>
      <trkpt lat="62.06968" lon="5.62287">
        <ele>60.001313</ele>
        <time>2020-07-30T08:04:18.052Z</time>
      </trkpt>
      <trkpt lat="62.06979" lon="5.62281">
        <ele>60.385142</ele>
        <time>2020-07-30T08:04:22.038Z</time>
      </trkpt>
      <trkpt lat="62.0699" lon="5.62276">
        <ele>60.756321</ele>
        <time>2020-07-30T08:04:26.045Z</time>
      </trkpt>
      <trkpt lat="62.07" lon="5.62272">
        <ele>61.115723</ele>
        <time>2020-07-30T08:04:30.076Z</time>
      </trkpt>
      <trkpt lat="62.07011" lon="5.62267">
        <ele>61.479674</ele>
        <time>2020-07-30T08:04:34.036Z</time>
      </trkpt>
      <trkpt lat="62.0702" lon="5.62263">
        <ele>61.78877</ele>
        <time>2020-07-30T08:04:38.040Z</time>
      </trkpt>
      <trkpt lat="62.07029" lon="5.62259">
        <ele>62.096613</ele>
        <time>2020-07-30T08:04:42.025Z</time>
      </trkpt>
      <trkpt lat="62.07039" lon="5.62254">
        <ele>62.456953</ele>
        <time>2020-07-30T08:04:47.055Z</time>
      </trkpt>
      <trkpt lat="62.0705" lon="5.62249">
        <ele>62.498945</ele>
        <time>2020-07-30T08:04:52.026Z</time>
      </trkpt>
      <trkpt lat="62.0706" lon="5.62246">
        <ele>62.389952</ele>
        <time>2020-07-30T08:04:57.021Z</time>
      </trkpt>
      <trkpt lat="62.0707" lon="5.62243">
        <ele>62.290094</ele>
        <time>2020-07-30T08:05:01.044Z</time>
      </trkpt>
      <trkpt lat="62.07079" lon="5.6224">
        <ele>62.197946</ele>
        <time>2020-07-30T08:05:05.051Z</time>
      </trkpt>
      <trkpt lat="62.07088" lon="5.62235">
        <ele>62.101742</ele>
        <time>2020-07-30T08:05:09.057Z</time>
      </trkpt>
      <trkpt lat="62.07099" lon="5.6223">
        <ele>61.988157</ele>
        <time>2020-07-30T08:05:13.040Z</time>
      </trkpt>
      <trkpt lat="62.07108" lon="5.62225">
        <ele>61.895447</ele>
        <time>2020-07-30T08:05:16.070Z</time>
      </trkpt>
      <trkpt lat="62.07118" lon="5.62223">
        <ele>61.791755</ele>
        <time>2020-07-30T08:05:19.036Z</time>
      </trkpt>
      <trkpt lat="62.07129" lon="5.62221">
        <ele>61.686413</ele>
        <time>2020-07-30T08:05:22.044Z</time>
      </trkpt>
      <trkpt lat="62.07139" lon="5.62216">
        <ele>61.579938</ele>
        <time>2020-07-30T08:05:25.035Z</time>
      </trkpt>
      <trkpt lat="62.07148" lon="5.62205">
        <ele>61.472269</ele>
        <time>2020-07-30T08:05:28.027Z</time>
      </trkpt>
      <trkpt lat="62.07159" lon="5.62193">
        <ele>61.346825</ele>
        <time>2020-07-30T08:05:31.053Z</time>
      </trkpt>
      <trkpt lat="62.07171" lon="5.62188">
        <ele>61.223344</ele>
        <time>2020-07-30T08:05:33.020Z</time>
      </trkpt>
      <trkpt lat="62.07185" lon="5.62181">
        <ele>61.085112</ele>
        <time>2020-07-30T08:05:35.036Z</time>
      </trkpt>
      <trkpt lat="62.07199" lon="5.62173">
        <ele>60.932997</ele>
        <time>2020-07-30T08:05:37.080Z</time>
      </trkpt>
      <trkpt lat="62.07215" lon="5.62166">
        <ele>60.767151</ele>
        <time>2020-07-30T08:05:39.081Z</time>
      </trkpt>
      <trkpt lat="62.07232" lon="5.62159">
        <ele>59.890354</ele>
        <time>2020-07-30T08:05:41.059Z</time>
      </trkpt>
      <trkpt lat="62.07249" lon="5.62151">
        <ele>58.940276</ele>
        <time>2020-07-30T08:05:43.058Z</time>
      </trkpt>
      <trkpt lat="62.07266" lon="5.62143">
        <ele>58.008668</ele>
        <time>2020-07-30T08:05:45.035Z</time>
      </trkpt>
      <trkpt lat="62.07283" lon="5.62136">
        <ele>57.085584</ele>
        <time>2020-07-30T08:05:47.036Z</time>
      </trkpt>
      <trkpt lat="62.073" lon="5.62128">
        <ele>56.160905</ele>
        <time>2020-07-30T08:05:49.035Z</time>
      </trkpt>
      <trkpt lat="62.07316" lon="5.6212">
        <ele>55.242586</ele>
        <time>2020-07-30T08:05:51.051Z</time>
      </trkpt>
      <trkpt lat="62.07332" lon="5.62113">
        <ele>54.348044</ele>
        <time>2020-07-30T08:05:53.040Z</time>
      </trkpt>
      <trkpt lat="62.07348" lon="5.62102">
        <ele>53.471263</ele>
        <time>2020-07-30T08:05:55.055Z</time>
      </trkpt>
      <trkpt lat="62.07363" lon="5.62088">
        <ele>52.592754</ele>
        <time>2020-07-30T08:05:57.030Z</time>
      </trkpt>
      <trkpt lat="62.07377" lon="5.62074">
        <ele>51.72452</ele>
        <time>2020-07-30T08:05:59.044Z</time>
      </trkpt>
      <trkpt lat="62.07391" lon="5.6206">
        <ele>51.030182</ele>
        <time>2020-07-30T08:06:01.043Z</time>
      </trkpt>
      <trkpt lat="62.07404" lon="5.62046">
        <ele>51.053569</ele>
        <time>2020-07-30T08:06:03.033Z</time>
      </trkpt>
      <trkpt lat="62.07415" lon="5.62032">
        <ele>51.075427</ele>
        <time>2020-07-30T08:06:05.063Z</time>
      </trkpt>
      <trkpt lat="62.07426" lon="5.6202">
        <ele>51.095176</ele>
        <time>2020-07-30T08:06:07.033Z</time>
      </trkpt>
      <trkpt lat="62.07436" lon="5.62009">
        <ele>51.114056</ele>
        <time>2020-07-30T08:06:09.035Z</time>
      </trkpt>
      <trkpt lat="62.07445" lon="5.62">
        <ele>51.13106</ele>
        <time>2020-07-30T08:06:11.020Z</time>
      </trkpt>
      <trkpt lat="62.07454" lon="5.6199">
        <ele>51.147473</ele>
        <time>2020-07-30T08:06:13.055Z</time>
      </trkpt>
      <trkpt lat="62.07463" lon="5.6198">
        <ele>51.163301</ele>
        <time>2020-07-30T08:06:15.031Z</time>
      </trkpt>
      <trkpt lat="62.07471" lon="5.61971">
        <ele>51.178695</ele>
        <time>2020-07-30T08:06:17.039Z</time>
      </trkpt>
      <trkpt lat="62.0748" lon="5.6196">
        <ele>51.195214</ele>
        <time>2020-07-30T08:06:19.032Z</time>
      </trkpt>
      <trkpt lat="62.07489" lon="5.6195">
        <ele>51.211733</ele>
        <time>2020-07-30T08:06:21.032Z</time>
      </trkpt>
      <trkpt lat="62.07497" lon="5.61941">
        <ele>51.226839</ele>
        <time>2020-07-30T08:06:23.052Z</time>
      </trkpt>
      <trkpt lat="62.07505" lon="5.61932">
        <ele>51.242123</ele>
        <time>2020-07-30T08:06:25.022Z</time>
      </trkpt>
      <trkpt lat="62.07513" lon="5.61923">
        <ele>51.257624</ele>
        <time>2020-07-30T08:06:27.056Z</time>
      </trkpt>
      <trkpt lat="62.07522" lon="5.61912">
        <ele>51.27375</ele>
        <time>2020-07-30T08:06:29.043Z</time>
      </trkpt>
      <trkpt lat="62.0753" lon="5.61903">
        <ele>51.288962</ele>
        <time>2020-07-30T08:06:31.025Z</time>
      </trkpt>
      <trkpt lat="62.07538" lon="5.61894">
        <ele>51.303883</ele>
        <time>2020-07-30T08:06:33.076Z</time>
      </trkpt>
      <trkpt lat="62.07546" lon="5.61884">
        <ele>51.318807</ele>
        <time>2020-07-30T08:06:35.033Z</time>
      </trkpt>
      <trkpt lat="62.07557" lon="5.6187">
        <ele>51.56542</ele>
        <time>2020-07-30T08:06:38.037Z</time>
      </trkpt>
      <trkpt lat="62.07565" lon="5.6186">
        <ele>51.767842</ele>
        <time>2020-07-30T08:06:40.048Z</time>
      </trkpt>
      <trkpt lat="62.07574" lon="5.61849">
        <ele>51.974847</ele>
        <time>2020-07-30T08:06:42.046Z</time>
      </trkpt>
      <trkpt lat="62.07582" lon="5.6184">
        <ele>52.170321</ele>
        <time>2020-07-30T08:06:44.045Z</time>
      </trkpt>
      <trkpt lat="62.07593" lon="5.61826">
        <ele>52.449903</ele>
        <time>2020-07-30T08:06:47.038Z</time>
      </trkpt>
      <trkpt lat="62.07603" lon="5.61807">
        <ele>52.740902</ele>
        <time>2020-07-30T08:06:50.020Z</time>
      </trkpt>
      <trkpt lat="62.07611" lon="5.61785">
        <ele>53.029238</ele>
        <time>2020-07-30T08:06:53.045Z</time>
      </trkpt>
      <trkpt lat="62.07621" lon="5.61766">
        <ele>53.317742</ele>
        <time>2020-07-30T08:06:56.045Z</time>
      </trkpt>
      <trkpt lat="62.07631" lon="5.61748">
        <ele>53.599489</ele>
        <time>2020-07-30T08:06:59.056Z</time>
      </trkpt>
      <trkpt lat="62.0764" lon="5.61731">
        <ele>53.858525</ele>
        <time>2020-07-30T08:07:02.029Z</time>
      </trkpt>
      <trkpt lat="62.0765" lon="5.61717">
        <ele>54.110991</ele>
        <time>2020-07-30T08:07:05.049Z</time>
      </trkpt>
      <trkpt lat="62.07657" lon="5.61702">
        <ele>54.334415</ele>
        <time>2020-07-30T08:07:08.074Z</time>
      </trkpt>
      <trkpt lat="62.07665" lon="5.61686">
        <ele>54.567221</ele>
        <time>2020-07-30T08:07:11.088Z</time>
      </trkpt>
      <trkpt lat="62.07673" lon="5.6167">
        <ele>54.81433</ele>
        <time>2020-07-30T08:07:14.046Z</time>
      </trkpt>
      <trkpt lat="62.07682" lon="5.61651">
        <ele>55.081914</ele>
        <time>2020-07-30T08:07:17.047Z</time>
      </trkpt>
      <trkpt lat="62.07689" lon="5.61637">
        <ele>55.187752</ele>
        <time>2020-07-30T08:07:19.035Z</time>
      </trkpt>
      <trkpt lat="62.07696" lon="5.61623">
        <ele>55.073358</ele>
        <time>2020-07-30T08:07:21.038Z</time>
      </trkpt>
      <trkpt lat="62.07703" lon="5.61608">
        <ele>54.949918</ele>
        <time>2020-07-30T08:07:23.035Z</time>
      </trkpt>
      <trkpt lat="62.07712" lon="5.61591">
        <ele>54.81355</ele>
        <time>2020-07-30T08:07:25.049Z</time>
      </trkpt>
      <trkpt lat="62.07721" lon="5.61573">
        <ele>54.672624</ele>
        <time>2020-07-30T08:07:27.056Z</time>
      </trkpt>
      <trkpt lat="62.0773" lon="5.61556">
        <ele>54.52812</ele>
        <time>2020-07-30T08:07:29.038Z</time>
      </trkpt>
      <trkpt lat="62.07739" lon="5.61537">
        <ele>54.38467</ele>
        <time>2020-07-30T08:07:31.066Z</time>
      </trkpt>
      <trkpt lat="62.07748" lon="5.6152">
        <ele>54.242005</ele>
        <time>2020-07-30T08:07:33.030Z</time>
      </trkpt>
      <trkpt lat="62.07757" lon="5.61504">
        <ele>54.103976</ele>
        <time>2020-07-30T08:07:35.037Z</time>
      </trkpt>
      <trkpt lat="62.07766" lon="5.61488">
        <ele>53.968451</ele>
        <time>2020-07-30T08:07:37.067Z</time>
      </trkpt>
      <trkpt lat="62.07775" lon="5.61471">
        <ele>53.829995</ele>
        <time>2020-07-30T08:07:39.035Z</time>
      </trkpt>
      <trkpt lat="62.07783" lon="5.61455">
        <ele>53.693014</ele>
        <time>2020-07-30T08:07:41.031Z</time>
      </trkpt>
      <trkpt lat="62.07792" lon="5.61438">
        <ele>53.554475</ele>
        <time>2020-07-30T08:07:43.048Z</time>
      </trkpt>
      <trkpt lat="62.078" lon="5.61422">
        <ele>53.425148</ele>
        <time>2020-07-30T08:07:45.044Z</time>
      </trkpt>
      <trkpt lat="62.07809" lon="5.61406">
        <ele>53.295573</ele>
        <time>2020-07-30T08:07:47.039Z</time>
      </trkpt>
      <trkpt lat="62.07817" lon="5.6139">
        <ele>53.166246</ele>
        <time>2020-07-30T08:07:49.078Z</time>
      </trkpt>
      <trkpt lat="62.07825" lon="5.61375">
        <ele>53.085028</ele>
        <time>2020-07-30T08:07:51.024Z</time>
      </trkpt>
      <trkpt lat="62.07832" lon="5.61361">
        <ele>53.03684</ele>
        <time>2020-07-30T08:07:53.029Z</time>
      </trkpt>
      <trkpt lat="62.0784" lon="5.61347">
        <ele>52.990828</ele>
        <time>2020-07-30T08:07:55.036Z</time>
      </trkpt>
      <trkpt lat="62.07847" lon="5.61333">
        <ele>52.947267</ele>
        <time>2020-07-30T08:07:57.033Z</time>
      </trkpt>
      <trkpt lat="62.07854" lon="5.61318">
        <ele>52.899923</ele>
        <time>2020-07-30T08:07:59.059Z</time>
      </trkpt>
      <trkpt lat="62.07862" lon="5.61303">
        <ele>52.851211</ele>
        <time>2020-07-30T08:08:01.034Z</time>
      </trkpt>
      <trkpt lat="62.0787" lon="5.61286">
        <ele>52.799447</ele>
        <time>2020-07-30T08:08:03.042Z</time>
      </trkpt>
      <trkpt lat="62.07877" lon="5.61269">
        <ele>52.747523</ele>
        <time>2020-07-30T08:08:05.031Z</time>
      </trkpt>
      <trkpt lat="62.07884" lon="5.61253">
        <ele>52.699246</ele>
        <time>2020-07-30T08:08:07.020Z</time>
      </trkpt>
      <trkpt lat="62.07892" lon="5.61238">
        <ele>52.651663</ele>
        <time>2020-07-30T08:08:09.041Z</time>
      </trkpt>
      <trkpt lat="62.07899" lon="5.61224">
        <ele>52.605013</ele>
        <time>2020-07-30T08:08:11.040Z</time>
      </trkpt>
      <trkpt lat="62.07906" lon="5.6121">
        <ele>52.560696</ele>
        <time>2020-07-30T08:08:13.032Z</time>
      </trkpt>
      <trkpt lat="62.07913" lon="5.61194">
        <ele>52.514032</ele>
        <time>2020-07-30T08:08:15.034Z</time>
      </trkpt>
      <trkpt lat="62.0792" lon="5.61179">
        <ele>52.469271</ele>
        <time>2020-07-30T08:08:17.044Z</time>
      </trkpt>
      <trkpt lat="62.07926" lon="5.61165">
        <ele>52.425315</ele>
        <time>2020-07-30T08:08:19.088Z</time>
      </trkpt>
      <trkpt lat="62.07933" lon="5.6115">
        <ele>52.380721</ele>
        <time>2020-07-30T08:08:21.052Z</time>
      </trkpt>
      <trkpt lat="62.07939" lon="5.61134">
        <ele>52.336876</ele>
        <time>2020-07-30T08:08:23.047Z</time>
      </trkpt>
      <trkpt lat="62.07945" lon="5.61118">
        <ele>52.291096</ele>
        <time>2020-07-30T08:08:25.034Z</time>
      </trkpt>
      <trkpt lat="62.07951" lon="5.61102">
        <ele>52.258003</ele>
        <time>2020-07-30T08:08:27.032Z</time>
      </trkpt>
      <trkpt lat="62.07957" lon="5.61086">
        <ele>52.230833</ele>
        <time>2020-07-30T08:08:29.035Z</time>
      </trkpt>
      <trkpt lat="62.07964" lon="5.61069">
        <ele>52.203904</ele>
        <time>2020-07-30T08:08:31.037Z</time>
      </trkpt>
      <trkpt lat="62.0797" lon="5.61052">
        <ele>52.176838</ele>
        <time>2020-07-30T08:08:33.050Z</time>
      </trkpt>
      <trkpt lat="62.07976" lon="5.61035">
        <ele>52.149238</ele>
        <time>2020-07-30T08:08:35.087Z</time>
      </trkpt>
      <trkpt lat="62.07981" lon="5.61018">
        <ele>52.123286</ele>
        <time>2020-07-30T08:08:37.038Z</time>
      </trkpt>
      <trkpt lat="62.07987" lon="5.61002">
        <ele>52.097027</ele>
        <time>2020-07-30T08:08:39.038Z</time>
      </trkpt>
      <trkpt lat="62.07993" lon="5.60987">
        <ele>52.071904</ele>
        <time>2020-07-30T08:08:41.036Z</time>
      </trkpt>
      <trkpt lat="62.07999" lon="5.60971">
        <ele>52.045778</ele>
        <time>2020-07-30T08:08:43.030Z</time>
      </trkpt>
      <trkpt lat="62.08005" lon="5.60954">
        <ele>52.018904</ele>
        <time>2020-07-30T08:08:45.042Z</time>
      </trkpt>
      <trkpt lat="62.08012" lon="5.60937">
        <ele>51.990895</ele>
        <time>2020-07-30T08:08:47.044Z</time>
      </trkpt>
      <trkpt lat="62.08018" lon="5.60921">
        <ele>51.963527</ele>
        <time>2020-07-30T08:08:49.025Z</time>
      </trkpt>
      <trkpt lat="62.08024" lon="5.60904">
        <ele>51.936829</ele>
        <time>2020-07-30T08:08:51.018Z</time>
      </trkpt>
      <trkpt lat="62.0803" lon="5.60887">
        <ele>51.909927</ele>
        <time>2020-07-30T08:08:53.044Z</time>
      </trkpt>
      <trkpt lat="62.08036" lon="5.60869">
        <ele>51.880751</ele>
        <time>2020-07-30T08:08:55.022Z</time>
      </trkpt>
      <trkpt lat="62.08042" lon="5.60852">
        <ele>51.853012</ele>
        <time>2020-07-30T08:08:57.022Z</time>
      </trkpt>
      <trkpt lat="62.08049" lon="5.60835">
        <ele>51.825781</ele>
        <time>2020-07-30T08:08:59.041Z</time>
      </trkpt>
      <trkpt lat="62.08055" lon="5.60818">
        <ele>51.798852</ele>
        <time>2020-07-30T08:09:01.036Z</time>
      </trkpt>
      <trkpt lat="62.08061" lon="5.60802">
        <ele>51.74678</ele>
        <time>2020-07-30T08:09:03.063Z</time>
      </trkpt>
      <trkpt lat="62.08067" lon="5.60785">
        <ele>51.670368</ele>
        <time>2020-07-30T08:09:05.073Z</time>
      </trkpt>
      <trkpt lat="62.08073" lon="5.60768">
        <ele>51.595481</ele>
        <time>2020-07-30T08:09:07.041Z</time>
      </trkpt>
      <trkpt lat="62.08078" lon="5.6075">
        <ele>51.520582</ele>
        <time>2020-07-30T08:09:09.056Z</time>
      </trkpt>
      <trkpt lat="62.08084" lon="5.60734">
        <ele>51.447156</ele>
        <time>2020-07-30T08:09:11.032Z</time>
      </trkpt>
      <trkpt lat="62.08089" lon="5.60717">
        <ele>51.375475</ele>
        <time>2020-07-30T08:09:13.035Z</time>
      </trkpt>
      <trkpt lat="62.08095" lon="5.60701">
        <ele>51.304238</ele>
        <time>2020-07-30T08:09:15.076Z</time>
      </trkpt>
      <trkpt lat="62.081" lon="5.60684">
        <ele>51.232615</ele>
        <time>2020-07-30T08:09:17.040Z</time>
      </trkpt>
      <trkpt lat="62.08104" lon="5.60667">
        <ele>51.162875</ele>
        <time>2020-07-30T08:09:19.032Z</time>
      </trkpt>
      <trkpt lat="62.08109" lon="5.6065">
        <ele>51.092357</ele>
        <time>2020-07-30T08:09:21.059Z</time>
      </trkpt>
      <trkpt lat="62.08113" lon="5.60633">
        <ele>51.02337</ele>
        <time>2020-07-30T08:09:23.023Z</time>
      </trkpt>
      <trkpt lat="62.08118" lon="5.60616">
        <ele>50.953446</ele>
        <time>2020-07-30T08:09:25.039Z</time>
      </trkpt>
      <trkpt lat="62.08122" lon="5.60598">
        <ele>50.881277</ele>
        <time>2020-07-30T08:09:27.025Z</time>
      </trkpt>
      <trkpt lat="62.08127" lon="5.60579">
        <ele>50.806901</ele>
        <time>2020-07-30T08:09:29.075Z</time>
      </trkpt>
      <trkpt lat="62.08131" lon="5.6056">
        <ele>50.730959</ele>
        <time>2020-07-30T08:09:31.054Z</time>
      </trkpt>
      <trkpt lat="62.08136" lon="5.60541">
        <ele>50.651643</ele>
        <time>2020-07-30T08:09:33.065Z</time>
      </trkpt>
      <trkpt lat="62.08141" lon="5.60521">
        <ele>50.571021</ele>
        <time>2020-07-30T08:09:35.022Z</time>
      </trkpt>
      <trkpt lat="62.08147" lon="5.60501">
        <ele>50.489889</ele>
        <time>2020-07-30T08:09:37.041Z</time>
      </trkpt>
      <trkpt lat="62.08151" lon="5.60482">
        <ele>50.421082</ele>
        <time>2020-07-30T08:09:39.024Z</time>
      </trkpt>
      <trkpt lat="62.08156" lon="5.60464">
        <ele>50.562236</ele>
        <time>2020-07-30T08:09:41.047Z</time>
      </trkpt>
      <trkpt lat="62.0816" lon="5.60445">
        <ele>50.713091</ele>
        <time>2020-07-30T08:09:43.039Z</time>
      </trkpt>
      <trkpt lat="62.08165" lon="5.60426">
        <ele>50.864481</ele>
        <time>2020-07-30T08:09:45.035Z</time>
      </trkpt>
      <trkpt lat="62.08169" lon="5.60407">
        <ele>51.008773</ele>
        <time>2020-07-30T08:09:47.032Z</time>
      </trkpt>
      <trkpt lat="62.08173" lon="5.60389">
        <ele>51.147386</ele>
        <time>2020-07-30T08:09:49.070Z</time>
      </trkpt>
      <trkpt lat="62.08178" lon="5.60372">
        <ele>51.285482</ele>
        <time>2020-07-30T08:09:51.022Z</time>
      </trkpt>
      <trkpt lat="62.08184" lon="5.60346">
        <ele>51.488184</ele>
        <time>2020-07-30T08:09:54.059Z</time>
      </trkpt>
      <trkpt lat="62.08188" lon="5.60328">
        <ele>51.626789</ele>
        <time>2020-07-30T08:09:56.030Z</time>
      </trkpt>
      <trkpt lat="62.08192" lon="5.60309">
        <ele>51.770451</ele>
        <time>2020-07-30T08:09:58.031Z</time>
      </trkpt>
      <trkpt lat="62.08196" lon="5.60291">
        <ele>51.915379</ele>
        <time>2020-07-30T08:10:00.049Z</time>
      </trkpt>
      <trkpt lat="62.08201" lon="5.60272">
        <ele>52.063679</ele>
        <time>2020-07-30T08:10:02.029Z</time>
      </trkpt>
      <trkpt lat="62.08204" lon="5.60254">
        <ele>52.20168</ele>
        <time>2020-07-30T08:10:04.042Z</time>
      </trkpt>
      <trkpt lat="62.08208" lon="5.60236">
        <ele>52.340901</ele>
        <time>2020-07-30T08:10:06.030Z</time>
      </trkpt>
      <trkpt lat="62.08212" lon="5.60218">
        <ele>52.480121</ele>
        <time>2020-07-30T08:10:08.034Z</time>
      </trkpt>
      <trkpt lat="62.08216" lon="5.60199">
        <ele>52.621872</ele>
        <time>2020-07-30T08:10:10.042Z</time>
      </trkpt>
      <trkpt lat="62.0822" lon="5.60181">
        <ele>52.762988</ele>
        <time>2020-07-30T08:10:12.032Z</time>
      </trkpt>
      <trkpt lat="62.08224" lon="5.60163">
        <ele>52.901577</ele>
        <time>2020-07-30T08:10:14.031Z</time>
      </trkpt>
      <trkpt lat="62.08228" lon="5.60145">
        <ele>53.036419</ele>
        <time>2020-07-30T08:10:16.048Z</time>
      </trkpt>
      <trkpt lat="62.08232" lon="5.60127">
        <ele>53.143413</ele>
        <time>2020-07-30T08:10:18.062Z</time>
      </trkpt>
      <trkpt lat="62.08237" lon="5.60101">
        <ele>53.260901</ele>
        <time>2020-07-30T08:10:21.039Z</time>
      </trkpt>
      <trkpt lat="62.0824" lon="5.60084">
        <ele>53.341984</ele>
        <time>2020-07-30T08:10:23.016Z</time>
      </trkpt>
      <trkpt lat="62.08245" lon="5.60058">
        <ele>53.460515</ele>
        <time>2020-07-30T08:10:26.021Z</time>
      </trkpt>
      <trkpt lat="62.08251" lon="5.60031">
        <ele>53.579117</ele>
        <time>2020-07-30T08:10:29.041Z</time>
      </trkpt>
      <trkpt lat="62.08255" lon="5.60005">
        <ele>53.696656</ele>
        <time>2020-07-30T08:10:32.040Z</time>
      </trkpt>
      <trkpt lat="62.08261" lon="5.59979">
        <ele>53.8141</ele>
        <time>2020-07-30T08:10:35.052Z</time>
      </trkpt>
      <trkpt lat="62.08265" lon="5.59954">
        <ele>53.929181</ele>
        <time>2020-07-30T08:10:38.044Z</time>
      </trkpt>
      <trkpt lat="62.0827" lon="5.59927">
        <ele>54.048273</ele>
        <time>2020-07-30T08:10:41.035Z</time>
      </trkpt>
      <trkpt lat="62.08273" lon="5.59909">
        <ele>54.129143</ele>
        <time>2020-07-30T08:10:43.052Z</time>
      </trkpt>
      <trkpt lat="62.08275" lon="5.5989">
        <ele>54.212039</ele>
        <time>2020-07-30T08:10:45.046Z</time>
      </trkpt>
      <trkpt lat="62.08278" lon="5.59871">
        <ele>54.293327</ele>
        <time>2020-07-30T08:10:47.037Z</time>
      </trkpt>
      <trkpt lat="62.08281" lon="5.59845">
        <ele>54.404955</ele>
        <time>2020-07-30T08:10:50.036Z</time>
      </trkpt>
      <trkpt lat="62.08285" lon="5.59819">
        <ele>54.517341</ele>
        <time>2020-07-30T08:10:53.063Z</time>
      </trkpt>
      <trkpt lat="62.08289" lon="5.59794">
        <ele>54.627732</ele>
        <time>2020-07-30T08:10:56.040Z</time>
      </trkpt>
      <trkpt lat="62.08292" lon="5.59769">
        <ele>54.86857</ele>
        <time>2020-07-30T08:10:59.024Z</time>
      </trkpt>
      <trkpt lat="62.08296" lon="5.59744">
        <ele>55.39826</ele>
        <time>2020-07-30T08:11:02.035Z</time>
      </trkpt>
      <trkpt lat="62.083" lon="5.5972">
        <ele>55.886654</ele>
        <time>2020-07-30T08:11:05.035Z</time>
      </trkpt>
      <trkpt lat="62.08303" lon="5.597">
        <ele>56.321433</ele>
        <time>2020-07-30T08:11:08.043Z</time>
      </trkpt>
      <trkpt lat="62.08307" lon="5.59677">
        <ele>56.813051</ele>
        <time>2020-07-30T08:11:12.024Z</time>
      </trkpt>
      <trkpt lat="62.08311" lon="5.59656">
        <ele>57.256777</ele>
        <time>2020-07-30T08:11:16.052Z</time>
      </trkpt>
      <trkpt lat="62.08313" lon="5.59634">
        <ele>57.697177</ele>
        <time>2020-07-30T08:11:20.042Z</time>
      </trkpt>
      <trkpt lat="62.08315" lon="5.59613">
        <ele>58.123773</ele>
        <time>2020-07-30T08:11:24.025Z</time>
      </trkpt>
      <trkpt lat="62.08317" lon="5.59594">
        <ele>58.5151</ele>
        <time>2020-07-30T08:11:28.028Z</time>
      </trkpt>
      <trkpt lat="62.0832" lon="5.59572">
        <ele>58.969135</ele>
        <time>2020-07-30T08:11:33.035Z</time>
      </trkpt>
      <trkpt lat="62.08323" lon="5.5955">
        <ele>59.425081</ele>
        <time>2020-07-30T08:11:38.036Z</time>
      </trkpt>
      <trkpt lat="62.08327" lon="5.59529">
        <ele>59.88192</ele>
        <time>2020-07-30T08:11:43.056Z</time>
      </trkpt>
      <trkpt lat="62.0833" lon="5.59508">
        <ele>60.31776</ele>
        <time>2020-07-30T08:11:48.031Z</time>
      </trkpt>
      <trkpt lat="62.08332" lon="5.59487">
        <ele>60.747483</ele>
        <time>2020-07-30T08:11:53.031Z</time>
      </trkpt>
      <trkpt lat="62.08335" lon="5.59468">
        <ele>61.13109</ele>
        <time>2020-07-30T08:11:58.034Z</time>
      </trkpt>
      <trkpt lat="62.08337" lon="5.59449">
        <ele>61.541302</ele>
        <time>2020-07-30T08:12:03.032Z</time>
      </trkpt>
      <trkpt lat="62.08341" lon="5.5943">
        <ele>61.946013</ele>
        <time>2020-07-30T08:12:08.023Z</time>
      </trkpt>
      <trkpt lat="62.08344" lon="5.59412">
        <ele>62.33711</ele>
        <time>2020-07-30T08:12:13.078Z</time>
      </trkpt>
      <trkpt lat="62.08348" lon="5.59392">
        <ele>62.736541</ele>
        <time>2020-07-30T08:12:18.055Z</time>
      </trkpt>
      <trkpt lat="62.0835" lon="5.5937">
        <ele>63.166986</ele>
        <time>2020-07-30T08:12:23.028Z</time>
      </trkpt>
      <trkpt lat="62.08353" lon="5.5935">
        <ele>63.5676</ele>
        <time>2020-07-30T08:12:28.049Z</time>
      </trkpt>
      <trkpt lat="62.08356" lon="5.59329">
        <ele>63.987233</ele>
        <time>2020-07-30T08:12:33.031Z</time>
      </trkpt>
      <trkpt lat="62.0836" lon="5.59307">
        <ele>64.440594</ele>
        <time>2020-07-30T08:12:38.035Z</time>
      </trkpt>
      <trkpt lat="62.08364" lon="5.59285">
        <ele>64.890113</ele>
        <time>2020-07-30T08:12:43.036Z</time>
      </trkpt>
      <trkpt lat="62.08368" lon="5.59265">
        <ele>65.313507</ele>
        <time>2020-07-30T08:12:48.043Z</time>
      </trkpt>
      <trkpt lat="62.08372" lon="5.59243">
        <ele>65.764373</ele>
        <time>2020-07-30T08:12:53.041Z</time>
      </trkpt>
      <trkpt lat="62.08375" lon="5.59224">
        <ele>66.140917</ele>
        <time>2020-07-30T08:12:57.038Z</time>
      </trkpt>
      <trkpt lat="62.08377" lon="5.59202">
        <ele>66.567651</ele>
        <time>2020-07-30T08:13:02.022Z</time>
      </trkpt>
      <trkpt lat="62.0838" lon="5.59181">
        <ele>66.989583</ele>
        <time>2020-07-30T08:13:07.029Z</time>
      </trkpt>
      <trkpt lat="62.08384" lon="5.5916">
        <ele>67.416551</ele>
        <time>2020-07-30T08:13:12.061Z</time>
      </trkpt>
      <trkpt lat="62.08387" lon="5.59138">
        <ele>67.857981</ele>
        <time>2020-07-30T08:13:17.076Z</time>
      </trkpt>
      <trkpt lat="62.08389" lon="5.59119">
        <ele>68.247066</ele>
        <time>2020-07-30T08:13:22.046Z</time>
      </trkpt>
      <trkpt lat="62.08392" lon="5.59099">
        <ele>68.63386</ele>
        <time>2020-07-30T08:13:27.037Z</time>
      </trkpt>
      <trkpt lat="62.08396" lon="5.59078">
        <ele>69.060648</ele>
        <time>2020-07-30T08:13:33.029Z</time>
      </trkpt>
      <trkpt lat="62.08399" lon="5.59059">
        <ele>69.446998</ele>
        <time>2020-07-30T08:13:38.036Z</time>
      </trkpt>
      <trkpt lat="62.08402" lon="5.59039">
        <ele>69.858512</ele>
        <time>2020-07-30T08:13:43.071Z</time>
      </trkpt>
      <trkpt lat="62.08405" lon="5.59018">
        <ele>70.258241</ele>
        <time>2020-07-30T08:13:48.033Z</time>
      </trkpt>
      <trkpt lat="62.08408" lon="5.58998">
        <ele>70.639115</ele>
        <time>2020-07-30T08:13:53.036Z</time>
      </trkpt>
      <trkpt lat="62.0841" lon="5.58979">
        <ele>71.008875</ele>
        <time>2020-07-30T08:13:58.042Z</time>
      </trkpt>
      <trkpt lat="62.08414" lon="5.58959">
        <ele>71.402145</ele>
        <time>2020-07-30T08:14:03.036Z</time>
      </trkpt>
      <trkpt lat="62.08417" lon="5.5894">
        <ele>71.766579</ele>
        <time>2020-07-30T08:14:08.032Z</time>
      </trkpt>
      <trkpt lat="62.0842" lon="5.58919">
        <ele>72.186916</ele>
        <time>2020-07-30T08:14:13.037Z</time>
      </trkpt>
      <trkpt lat="62.08423" lon="5.58901">
        <ele>72.547712</ele>
        <time>2020-07-30T08:14:17.021Z</time>
      </trkpt>
      <trkpt lat="62.08427" lon="5.5888">
        <ele>72.950996</ele>
        <time>2020-07-30T08:14:22.041Z</time>
      </trkpt>
      <trkpt lat="62.0843" lon="5.58858">
        <ele>73.375417</ele>
        <time>2020-07-30T08:14:27.037Z</time>
      </trkpt>
      <trkpt lat="62.08433" lon="5.58836">
        <ele>73.807022</ele>
        <time>2020-07-30T08:14:32.039Z</time>
      </trkpt>
      <trkpt lat="62.08437" lon="5.58815">
        <ele>74.220859</ele>
        <time>2020-07-30T08:14:36.041Z</time>
      </trkpt>
      <trkpt lat="62.08439" lon="5.58793">
        <ele>74.635243</ele>
        <time>2020-07-30T08:14:40.060Z</time>
      </trkpt>
      <trkpt lat="62.08442" lon="5.5877">
        <ele>75.068758</ele>
        <time>2020-07-30T08:14:44.030Z</time>
      </trkpt>
      <trkpt lat="62.08446" lon="5.58747">
        <ele>75.528704</ele>
        <time>2020-07-30T08:14:48.034Z</time>
      </trkpt>
      <trkpt lat="62.08449" lon="5.58729">
        <ele>75.884159</ele>
        <time>2020-07-30T08:14:51.048Z</time>
      </trkpt>
      <trkpt lat="62.08452" lon="5.58711">
        <ele>76.240707</ele>
        <time>2020-07-30T08:14:54.061Z</time>
      </trkpt>
      <trkpt lat="62.08456" lon="5.58693">
        <ele>76.609631</ele>
        <time>2020-07-30T08:14:57.031Z</time>
      </trkpt>
      <trkpt lat="62.08458" lon="5.58671">
        <ele>76.882501</ele>
        <time>2020-07-30T08:15:01.035Z</time>
      </trkpt>
      <trkpt lat="62.08461" lon="5.58648">
        <ele>77.020649</ele>
        <time>2020-07-30T08:15:05.057Z</time>
      </trkpt>
      <trkpt lat="62.08465" lon="5.58626">
        <ele>77.155545</ele>
        <time>2020-07-30T08:15:09.026Z</time>
      </trkpt>
      <trkpt lat="62.08468" lon="5.58602">
        <ele>77.30131</ele>
        <time>2020-07-30T08:15:13.062Z</time>
      </trkpt>
      <trkpt lat="62.08471" lon="5.58584">
        <ele>77.416111</ele>
        <time>2020-07-30T08:15:16.083Z</time>
      </trkpt>
      <trkpt lat="62.08475" lon="5.58566">
        <ele>77.529677</ele>
        <time>2020-07-30T08:15:19.020Z</time>
      </trkpt>
      <trkpt lat="62.08477" lon="5.58546">
        <ele>77.647781</ele>
        <time>2020-07-30T08:15:22.024Z</time>
      </trkpt>
      <trkpt lat="62.08481" lon="5.58526">
        <ele>77.773731</ele>
        <time>2020-07-30T08:15:25.057Z</time>
      </trkpt>
      <trkpt lat="62.08484" lon="5.58504">
        <ele>77.90546</ele>
        <time>2020-07-30T08:15:28.053Z</time>
      </trkpt>
      <trkpt lat="62.08488" lon="5.58482">
        <ele>78.044104</ele>
        <time>2020-07-30T08:15:31.020Z</time>
      </trkpt>
      <trkpt lat="62.08492" lon="5.5846">
        <ele>78.181754</ele>
        <time>2020-07-30T08:15:34.038Z</time>
      </trkpt>
      <trkpt lat="62.08495" lon="5.58437">
        <ele>78.320458</ele>
        <time>2020-07-30T08:15:37.034Z</time>
      </trkpt>
      <trkpt lat="62.08499" lon="5.58416">
        <ele>78.455098</ele>
        <time>2020-07-30T08:15:40.048Z</time>
      </trkpt>
      <trkpt lat="62.08502" lon="5.58394">
        <ele>78.588813</ele>
        <time>2020-07-30T08:15:43.036Z</time>
      </trkpt>
      <trkpt lat="62.08505" lon="5.58374">
        <ele>78.710359</ele>
        <time>2020-07-30T08:15:46.035Z</time>
      </trkpt>
      <trkpt lat="62.08509" lon="5.58354">
        <ele>78.837865</ele>
        <time>2020-07-30T08:15:49.024Z</time>
      </trkpt>
      <trkpt lat="62.08512" lon="5.58335">
        <ele>78.959026</ele>
        <time>2020-07-30T08:15:52.083Z</time>
      </trkpt>
      <trkpt lat="62.08516" lon="5.58317">
        <ele>79.071122</ele>
        <time>2020-07-30T08:15:55.027Z</time>
      </trkpt>
      <trkpt lat="62.0852" lon="5.58299">
        <ele>79.193164</ele>
        <time>2020-07-30T08:15:58.051Z</time>
      </trkpt>
      <trkpt lat="62.08525" lon="5.58275">
        <ele>79.344922</ele>
        <time>2020-07-30T08:16:02.040Z</time>
      </trkpt>
      <trkpt lat="62.08529" lon="5.58258">
        <ele>79.462131</ele>
        <time>2020-07-30T08:16:05.037Z</time>
      </trkpt>
      <trkpt lat="62.08534" lon="5.58241">
        <ele>79.580037</ele>
        <time>2020-07-30T08:16:08.045Z</time>
      </trkpt>
      <trkpt lat="62.08538" lon="5.58223">
        <ele>79.701179</ele>
        <time>2020-07-30T08:16:11.049Z</time>
      </trkpt>
      <trkpt lat="62.08543" lon="5.58205">
        <ele>79.827081</ele>
        <time>2020-07-30T08:16:14.042Z</time>
      </trkpt>
      <trkpt lat="62.08549" lon="5.58183">
        <ele>79.978798</ele>
        <time>2020-07-30T08:16:18.033Z</time>
      </trkpt>
      <trkpt lat="62.08554" lon="5.58167">
        <ele>80.094374</ele>
        <time>2020-07-30T08:16:21.046Z</time>
      </trkpt>
      <trkpt lat="62.0856" lon="5.58146">
        <ele>80.241307</ele>
        <time>2020-07-30T08:16:25.033Z</time>
      </trkpt>
      <trkpt lat="62.08565" lon="5.58129">
        <ele>80.36033</ele>
        <time>2020-07-30T08:16:28.027Z</time>
      </trkpt>
      <trkpt lat="62.0857" lon="5.58112">
        <ele>80.482347</ele>
        <time>2020-07-30T08:16:31.021Z</time>
      </trkpt>
      <trkpt lat="62.08575" lon="5.58095">
        <ele>80.599777</ele>
        <time>2020-07-30T08:16:34.041Z</time>
      </trkpt>
      <trkpt lat="62.08581" lon="5.58076">
        <ele>80.740115</ele>
        <time>2020-07-30T08:16:38.021Z</time>
      </trkpt>
      <trkpt lat="62.08587" lon="5.58056">
        <ele>80.879957</ele>
        <time>2020-07-30T08:16:42.054Z</time>
      </trkpt>
      <trkpt lat="62.08593" lon="5.58037">
        <ele>81.016507</ele>
        <time>2020-07-30T08:16:46.032Z</time>
      </trkpt>
      <trkpt lat="62.08599" lon="5.58019">
        <ele>81.15095</ele>
        <time>2020-07-30T08:16:50.037Z</time>
      </trkpt>
      <trkpt lat="62.08606" lon="5.57999">
        <ele>81.296656</ele>
        <time>2020-07-30T08:16:54.046Z</time>
      </trkpt>
      <trkpt lat="62.08611" lon="5.57983">
        <ele>81.467705</ele>
        <time>2020-07-30T08:16:57.035Z</time>
      </trkpt>
      <trkpt lat="62.08617" lon="5.57962">
        <ele>81.752607</ele>
        <time>2020-07-30T08:17:01.044Z</time>
      </trkpt>
      <trkpt lat="62.08624" lon="5.57942">
        <ele>82.024316</ele>
        <time>2020-07-30T08:17:05.027Z</time>
      </trkpt>
      <trkpt lat="62.08629" lon="5.57922">
        <ele>82.296247</ele>
        <time>2020-07-30T08:17:09.037Z</time>
      </trkpt>
      <trkpt lat="62.08635" lon="5.579">
        <ele>82.585463</ele>
        <time>2020-07-30T08:17:13.024Z</time>
      </trkpt>
      <trkpt lat="62.0864" lon="5.57883">
        <ele>82.812364</ele>
        <time>2020-07-30T08:17:16.071Z</time>
      </trkpt>
      <trkpt lat="62.08646" lon="5.57867">
        <ele>83.035779</ele>
        <time>2020-07-30T08:17:19.059Z</time>
      </trkpt>
      <trkpt lat="62.08651" lon="5.5785">
        <ele>83.278409</ele>
        <time>2020-07-30T08:17:22.055Z</time>
      </trkpt>
      <trkpt lat="62.08658" lon="5.57832">
        <ele>83.542825</ele>
        <time>2020-07-30T08:17:25.045Z</time>
      </trkpt>
      <trkpt lat="62.08664" lon="5.57814">
        <ele>83.794815</ele>
        <time>2020-07-30T08:17:28.071Z</time>
      </trkpt>
      <trkpt lat="62.0867" lon="5.57796">
        <ele>84.045876</ele>
        <time>2020-07-30T08:17:31.033Z</time>
      </trkpt>
      <trkpt lat="62.08677" lon="5.57778">
        <ele>84.321628</ele>
        <time>2020-07-30T08:17:34.037Z</time>
      </trkpt>
      <trkpt lat="62.08684" lon="5.57757">
        <ele>84.60808</ele>
        <time>2020-07-30T08:17:37.042Z</time>
      </trkpt>
      <trkpt lat="62.08689" lon="5.57734">
        <ele>84.904639</ele>
        <time>2020-07-30T08:17:40.036Z</time>
      </trkpt>
      <trkpt lat="62.08695" lon="5.57713">
        <ele>85.178288</ele>
        <time>2020-07-30T08:17:43.051Z</time>
      </trkpt>
      <trkpt lat="62.08702" lon="5.57693">
        <ele>85.468926</ele>
        <time>2020-07-30T08:17:46.036Z</time>
      </trkpt>
      <trkpt lat="62.08711" lon="5.57673">
        <ele>85.756837</ele>
        <time>2020-07-30T08:17:49.046Z</time>
      </trkpt>
      <trkpt lat="62.08717" lon="5.57659">
        <ele>85.760494</ele>
        <time>2020-07-30T08:17:51.051Z</time>
      </trkpt>
      <trkpt lat="62.08724" lon="5.57646">
        <ele>85.764156</ele>
        <time>2020-07-30T08:17:53.036Z</time>
      </trkpt>
      <trkpt lat="62.08731" lon="5.57632">
        <ele>85.768074</ele>
        <time>2020-07-30T08:17:55.048Z</time>
      </trkpt>
      <trkpt lat="62.08738" lon="5.57616">
        <ele>85.772224</ele>
        <time>2020-07-30T08:17:57.051Z</time>
      </trkpt>
      <trkpt lat="62.08746" lon="5.576">
        <ele>85.776653</ele>
        <time>2020-07-30T08:17:59.043Z</time>
      </trkpt>
      <trkpt lat="62.08755" lon="5.57585">
        <ele>85.781077</ele>
        <time>2020-07-30T08:18:01.035Z</time>
      </trkpt>
      <trkpt lat="62.08764" lon="5.57571">
        <ele>85.785603</ele>
        <time>2020-07-30T08:18:03.038Z</time>
      </trkpt>
      <trkpt lat="62.08773" lon="5.57557">
        <ele>85.790053</ele>
        <time>2020-07-30T08:18:05.054Z</time>
      </trkpt>
      <trkpt lat="62.08781" lon="5.57543">
        <ele>85.794258</ele>
        <time>2020-07-30T08:18:07.041Z</time>
      </trkpt>
      <trkpt lat="62.0879" lon="5.5753">
        <ele>85.798447</ele>
        <time>2020-07-30T08:18:09.035Z</time>
      </trkpt>
      <trkpt lat="62.08799" lon="5.57518">
        <ele>85.802819</ele>
        <time>2020-07-30T08:18:11.034Z</time>
      </trkpt>
      <trkpt lat="62.08808" lon="5.57504">
        <ele>85.80729</ele>
        <time>2020-07-30T08:18:13.038Z</time>
      </trkpt>
      <trkpt lat="62.08818" lon="5.57492">
        <ele>85.811677</ele>
        <time>2020-07-30T08:18:15.026Z</time>
      </trkpt>
      <trkpt lat="62.08827" lon="5.5748">
        <ele>85.815816</ele>
        <time>2020-07-30T08:18:17.042Z</time>
      </trkpt>
      <trkpt lat="62.08836" lon="5.57469">
        <ele>85.820058</ele>
        <time>2020-07-30T08:18:19.037Z</time>
      </trkpt>
      <trkpt lat="62.08845" lon="5.5746">
        <ele>85.82408</ele>
        <time>2020-07-30T08:18:21.061Z</time>
      </trkpt>
      <trkpt lat="62.08855" lon="5.57451">
        <ele>85.828303</ele>
        <time>2020-07-30T08:18:23.028Z</time>
      </trkpt>
      <trkpt lat="62.08865" lon="5.57443">
        <ele>85.204997</ele>
        <time>2020-07-30T08:18:25.065Z</time>
      </trkpt>
      <trkpt lat="62.08876" lon="5.57435">
        <ele>84.527273</ele>
        <time>2020-07-30T08:18:27.035Z</time>
      </trkpt>
      <trkpt lat="62.08888" lon="5.57428">
        <ele>83.814107</ele>
        <time>2020-07-30T08:18:29.047Z</time>
      </trkpt>
      <trkpt lat="62.08901" lon="5.57422">
        <ele>83.065886</ele>
        <time>2020-07-30T08:18:31.042Z</time>
      </trkpt>
      <trkpt lat="62.08915" lon="5.57417">
        <ele>82.244284</ele>
        <time>2020-07-30T08:18:33.052Z</time>
      </trkpt>
      <trkpt lat="62.08931" lon="5.57414">
        <ele>81.340156</ele>
        <time>2020-07-30T08:18:35.041Z</time>
      </trkpt>
      <trkpt lat="62.08948" lon="5.57413">
        <ele>80.369568</ele>
        <time>2020-07-30T08:18:37.032Z</time>
      </trkpt>
      <trkpt lat="62.08957" lon="5.57414">
        <ele>79.840915</ele>
        <time>2020-07-30T08:18:38.039Z</time>
      </trkpt>
      <trkpt lat="62.08966" lon="5.57415">
        <ele>79.305255</ele>
        <time>2020-07-30T08:18:39.025Z</time>
      </trkpt>
      <trkpt lat="62.08976" lon="5.57417">
        <ele>78.758581</ele>
        <time>2020-07-30T08:18:40.039Z</time>
      </trkpt>
      <trkpt lat="62.08986" lon="5.57418">
        <ele>78.188815</ele>
        <time>2020-07-30T08:18:41.026Z</time>
      </trkpt>
      <trkpt lat="62.08996" lon="5.57421">
        <ele>77.606191</ele>
        <time>2020-07-30T08:18:42.063Z</time>
      </trkpt>
      <trkpt lat="62.09006" lon="5.57423">
        <ele>77.01668</ele>
        <time>2020-07-30T08:18:43.055Z</time>
      </trkpt>
      <trkpt lat="62.09016" lon="5.57426">
        <ele>76.40467</ele>
        <time>2020-07-30T08:18:44.034Z</time>
      </trkpt>
      <trkpt lat="62.09027" lon="5.57428">
        <ele>75.776354</ele>
        <time>2020-07-30T08:18:45.024Z</time>
      </trkpt>
      <trkpt lat="62.09039" lon="5.57429">
        <ele>75.148363</ele>
        <time>2020-07-30T08:18:46.033Z</time>
      </trkpt>
      <trkpt lat="62.0905" lon="5.5743">
        <ele>74.533235</ele>
        <time>2020-07-30T08:18:47.031Z</time>
      </trkpt>
      <trkpt lat="62.09061" lon="5.57429">
        <ele>73.912617</ele>
        <time>2020-07-30T08:18:48.042Z</time>
      </trkpt>
      <trkpt lat="62.09072" lon="5.57428">
        <ele>73.302111</ele>
        <time>2020-07-30T08:18:49.024Z</time>
      </trkpt>
      <trkpt lat="62.09083" lon="5.57425">
        <ele>72.694472</ele>
        <time>2020-07-30T08:18:50.033Z</time>
      </trkpt>
      <trkpt lat="62.09094" lon="5.57422">
        <ele>72.082673</ele>
        <time>2020-07-30T08:18:51.031Z</time>
      </trkpt>
      <trkpt lat="62.09105" lon="5.57418">
        <ele>71.485816</ele>
        <time>2020-07-30T08:18:52.062Z</time>
      </trkpt>
      <trkpt lat="62.09116" lon="5.57412">
        <ele>70.880963</ele>
        <time>2020-07-30T08:18:53.058Z</time>
      </trkpt>
      <trkpt lat="62.09126" lon="5.57406">
        <ele>70.281458</ele>
        <time>2020-07-30T08:18:54.023Z</time>
      </trkpt>
      <trkpt lat="62.09137" lon="5.57399">
        <ele>69.678301</ele>
        <time>2020-07-30T08:18:55.036Z</time>
      </trkpt>
      <trkpt lat="62.09147" lon="5.57391">
        <ele>69.06441</ele>
        <time>2020-07-30T08:18:56.069Z</time>
      </trkpt>
      <trkpt lat="62.09158" lon="5.57383">
        <ele>68.453205</ele>
        <time>2020-07-30T08:18:57.027Z</time>
      </trkpt>
      <trkpt lat="62.09168" lon="5.57375">
        <ele>67.842</ele>
        <time>2020-07-30T08:18:58.051Z</time>
      </trkpt>
      <trkpt lat="62.09179" lon="5.57368">
        <ele>67.222087</ele>
        <time>2020-07-30T08:18:59.046Z</time>
      </trkpt>
      <trkpt lat="62.0919" lon="5.5736">
        <ele>66.589667</ele>
        <time>2020-07-30T08:19:00.033Z</time>
      </trkpt>
      <trkpt lat="62.09201" lon="5.57354">
        <ele>65.963039</ele>
        <time>2020-07-30T08:19:01.040Z</time>
      </trkpt>
      <trkpt lat="62.09212" lon="5.57347">
        <ele>65.491697</ele>
        <time>2020-07-30T08:19:02.033Z</time>
      </trkpt>
      <trkpt lat="62.09223" lon="5.57342">
        <ele>65.192587</ele>
        <time>2020-07-30T08:19:03.037Z</time>
      </trkpt>
      <trkpt lat="62.09234" lon="5.57338">
        <ele>64.897084</ele>
        <time>2020-07-30T08:19:04.063Z</time>
      </trkpt>
      <trkpt lat="62.09246" lon="5.57336">
        <ele>64.596136</ele>
        <time>2020-07-30T08:19:05.036Z</time>
      </trkpt>
      <trkpt lat="62.09257" lon="5.57335">
        <ele>64.298165</ele>
        <time>2020-07-30T08:19:06.033Z</time>
      </trkpt>
      <trkpt lat="62.09269" lon="5.57333">
        <ele>64.000354</ele>
        <time>2020-07-30T08:19:07.050Z</time>
      </trkpt>
      <trkpt lat="62.0928" lon="5.57332">
        <ele>63.71072</ele>
        <time>2020-07-30T08:19:08.052Z</time>
      </trkpt>
      <trkpt lat="62.09291" lon="5.57332">
        <ele>63.426416</ele>
        <time>2020-07-30T08:19:09.063Z</time>
      </trkpt>
      <trkpt lat="62.09301" lon="5.57332">
        <ele>63.142205</ele>
        <time>2020-07-30T08:19:10.036Z</time>
      </trkpt>
      <trkpt lat="62.09312" lon="5.57332">
        <ele>62.860433</ele>
        <time>2020-07-30T08:19:11.036Z</time>
      </trkpt>
      <trkpt lat="62.09323" lon="5.57333">
        <ele>62.588985</ele>
        <time>2020-07-30T08:19:12.040Z</time>
      </trkpt>
      <trkpt lat="62.09333" lon="5.57335">
        <ele>62.330362</ele>
        <time>2020-07-30T08:19:13.034Z</time>
      </trkpt>
      <trkpt lat="62.09342" lon="5.57336">
        <ele>62.07938</ele>
        <time>2020-07-30T08:19:14.074Z</time>
      </trkpt>
      <trkpt lat="62.09351" lon="5.57338">
        <ele>61.836287</ele>
        <time>2020-07-30T08:19:15.042Z</time>
      </trkpt>
      <trkpt lat="62.09361" lon="5.57339">
        <ele>61.598396</ele>
        <time>2020-07-30T08:19:16.051Z</time>
      </trkpt>
      <trkpt lat="62.09369" lon="5.57341">
        <ele>61.365514</ele>
        <time>2020-07-30T08:19:17.042Z</time>
      </trkpt>
      <trkpt lat="62.09387" lon="5.57343">
        <ele>60.967556</ele>
        <time>2020-07-30T08:19:19.020Z</time>
      </trkpt>
      <trkpt lat="62.09402" lon="5.57345">
        <ele>61.393431</ele>
        <time>2020-07-30T08:19:21.040Z</time>
      </trkpt>
      <trkpt lat="62.09415" lon="5.57347">
        <ele>61.769098</ele>
        <time>2020-07-30T08:19:23.033Z</time>
      </trkpt>
      <trkpt lat="62.09427" lon="5.57348">
        <ele>62.093695</ele>
        <time>2020-07-30T08:19:25.072Z</time>
      </trkpt>
      <trkpt lat="62.09437" lon="5.5735">
        <ele>62.383388</ele>
        <time>2020-07-30T08:19:27.030Z</time>
      </trkpt>
      <trkpt lat="62.09447" lon="5.57352">
        <ele>62.650166</ele>
        <time>2020-07-30T08:19:29.065Z</time>
      </trkpt>
      <trkpt lat="62.09459" lon="5.57356">
        <ele>63.005257</ele>
        <time>2020-07-30T08:19:32.025Z</time>
      </trkpt>
      <trkpt lat="62.0947" lon="5.5736">
        <ele>63.320669</ele>
        <time>2020-07-30T08:19:35.070Z</time>
      </trkpt>
      <trkpt lat="62.0948" lon="5.57366">
        <ele>63.603015</ele>
        <time>2020-07-30T08:19:38.019Z</time>
      </trkpt>
      <trkpt lat="62.09491" lon="5.57374">
        <ele>63.927899</ele>
        <time>2020-07-30T08:19:42.075Z</time>
      </trkpt>
      <trkpt lat="62.09501" lon="5.57382">
        <ele>64.23401</ele>
        <time>2020-07-30T08:19:46.052Z</time>
      </trkpt>
      <trkpt lat="62.09512" lon="5.57389">
        <ele>64.555293</ele>
        <time>2020-07-30T08:19:50.036Z</time>
      </trkpt>
      <trkpt lat="62.09522" lon="5.57398">
        <ele>64.845848</ele>
        <time>2020-07-30T08:19:54.043Z</time>
      </trkpt>
      <trkpt lat="62.09529" lon="5.5741">
        <ele>65.109288</ele>
        <time>2020-07-30T08:19:58.125Z</time>
      </trkpt>
      <trkpt lat="62.09537" lon="5.57422">
        <ele>65.36663</ele>
        <time>2020-07-30T08:20:02.035Z</time>
      </trkpt>
      <trkpt lat="62.09545" lon="5.57431">
        <ele>65.620646</ele>
        <time>2020-07-30T08:20:06.040Z</time>
      </trkpt>
      <trkpt lat="62.09553" lon="5.57441">
        <ele>65.87534</ele>
        <time>2020-07-30T08:20:10.032Z</time>
      </trkpt>
      <trkpt lat="62.09561" lon="5.57452">
        <ele>66.276213</ele>
        <time>2020-07-30T08:20:14.021Z</time>
      </trkpt>
      <trkpt lat="62.09568" lon="5.57464">
        <ele>66.728977</ele>
        <time>2020-07-30T08:20:18.024Z</time>
      </trkpt>
      <trkpt lat="62.09576" lon="5.57478">
        <ele>67.271282</ele>
        <time>2020-07-30T08:20:23.046Z</time>
      </trkpt>
      <trkpt lat="62.09585" lon="5.57493">
        <ele>67.816014</ele>
        <time>2020-07-30T08:20:28.046Z</time>
      </trkpt>
      <trkpt lat="62.09591" lon="5.57512">
        <ele>68.367172</ele>
        <time>2020-07-30T08:20:33.031Z</time>
      </trkpt>
      <trkpt lat="62.09597" lon="5.57528">
        <ele>68.833024</ele>
        <time>2020-07-30T08:20:37.058Z</time>
      </trkpt>
      <trkpt lat="62.09603" lon="5.57543">
        <ele>69.297064</ele>
        <time>2020-07-30T08:20:41.020Z</time>
      </trkpt>
      <trkpt lat="62.09611" lon="5.5756">
        <ele>69.846232</ele>
        <time>2020-07-30T08:20:46.039Z</time>
      </trkpt>
      <trkpt lat="62.09617" lon="5.57579">
        <ele>70.407823</ele>
        <time>2020-07-30T08:20:51.035Z</time>
      </trkpt>
      <trkpt lat="62.09623" lon="5.57594">
        <ele>70.853245</ele>
        <time>2020-07-30T08:20:55.040Z</time>
      </trkpt>
      <trkpt lat="62.09629" lon="5.5761">
        <ele>71.33154</ele>
        <time>2020-07-30T08:20:59.020Z</time>
      </trkpt>
      <trkpt lat="62.09634" lon="5.57627">
        <ele>71.812944</ele>
        <time>2020-07-30T08:21:03.028Z</time>
      </trkpt>
      <trkpt lat="62.0964" lon="5.57648">
        <ele>72.36188</ele>
        <time>2020-07-30T08:21:08.022Z</time>
      </trkpt>
      <trkpt lat="62.09645" lon="5.57667">
        <ele>72.883936</ele>
        <time>2020-07-30T08:21:13.042Z</time>
      </trkpt>
      <trkpt lat="62.0965" lon="5.57687">
        <ele>73.401103</ele>
        <time>2020-07-30T08:21:18.035Z</time>
      </trkpt>
      <trkpt lat="62.09654" lon="5.57708">
        <ele>73.93602</ele>
        <time>2020-07-30T08:21:23.035Z</time>
      </trkpt>
      <trkpt lat="62.09657" lon="5.57726">
        <ele>74.392201</ele>
        <time>2020-07-30T08:21:27.049Z</time>
      </trkpt>
      <trkpt lat="62.09661" lon="5.57744">
        <ele>74.851281</ele>
        <time>2020-07-30T08:21:31.024Z</time>
      </trkpt>
      <trkpt lat="62.09665" lon="5.57762">
        <ele>75.263963</ele>
        <time>2020-07-30T08:21:35.049Z</time>
      </trkpt>
      <trkpt lat="62.09668" lon="5.5778">
        <ele>75.66953</ele>
        <time>2020-07-30T08:21:39.056Z</time>
      </trkpt>
      <trkpt lat="62.09671" lon="5.57798">
        <ele>76.079297</ele>
        <time>2020-07-30T08:21:43.035Z</time>
      </trkpt>
      <trkpt lat="62.09675" lon="5.57816">
        <ele>76.487106</ele>
        <time>2020-07-30T08:21:47.063Z</time>
      </trkpt>
      <trkpt lat="62.09677" lon="5.57834">
        <ele>76.892724</ele>
        <time>2020-07-30T08:21:51.053Z</time>
      </trkpt>
      <trkpt lat="62.09681" lon="5.57852">
        <ele>77.298062</ele>
        <time>2020-07-30T08:21:55.038Z</time>
      </trkpt>
      <trkpt lat="62.09685" lon="5.57872">
        <ele>77.756458</ele>
        <time>2020-07-30T08:22:00.049Z</time>
      </trkpt>
      <trkpt lat="62.09688" lon="5.57892">
        <ele>78.198211</ele>
        <time>2020-07-30T08:22:05.035Z</time>
      </trkpt>
      <trkpt lat="62.09691" lon="5.57911">
        <ele>78.626093</ele>
        <time>2020-07-30T08:22:10.036Z</time>
      </trkpt>
      <trkpt lat="62.09695" lon="5.57931">
        <ele>79.0669</ele>
        <time>2020-07-30T08:22:15.038Z</time>
      </trkpt>
      <trkpt lat="62.09699" lon="5.57949">
        <ele>79.498575</ele>
        <time>2020-07-30T08:22:20.034Z</time>
      </trkpt>
      <trkpt lat="62.09703" lon="5.5797">
        <ele>79.975172</ele>
        <time>2020-07-30T08:22:25.048Z</time>
      </trkpt>
      <trkpt lat="62.09707" lon="5.57991">
        <ele>80.438076</ele>
        <time>2020-07-30T08:22:30.049Z</time>
      </trkpt>
      <trkpt lat="62.0971" lon="5.58011">
        <ele>80.892698</ele>
        <time>2020-07-30T08:22:35.034Z</time>
      </trkpt>
      <trkpt lat="62.09714" lon="5.58032">
        <ele>81.346481</ele>
        <time>2020-07-30T08:22:40.053Z</time>
      </trkpt>
      <trkpt lat="62.09717" lon="5.58053">
        <ele>81.818783</ele>
        <time>2020-07-30T08:22:45.072Z</time>
      </trkpt>
      <trkpt lat="62.09721" lon="5.58074">
        <ele>82.29866</ele>
        <time>2020-07-30T08:22:50.083Z</time>
      </trkpt>
      <trkpt lat="62.09725" lon="5.58095">
        <ele>82.773295</ele>
        <time>2020-07-30T08:22:55.033Z</time>
      </trkpt>
      <trkpt lat="62.09728" lon="5.58115">
        <ele>83.100524</ele>
        <time>2020-07-30T08:23:00.020Z</time>
      </trkpt>
      <trkpt lat="62.09732" lon="5.58136">
        <ele>83.298778</ele>
        <time>2020-07-30T08:23:05.032Z</time>
      </trkpt>
      <trkpt lat="62.09736" lon="5.58156">
        <ele>83.502511</ele>
        <time>2020-07-30T08:23:10.079Z</time>
      </trkpt>
      <trkpt lat="62.09741" lon="5.58177">
        <ele>83.70397</ele>
        <time>2020-07-30T08:23:15.024Z</time>
      </trkpt>
      <trkpt lat="62.09745" lon="5.58195">
        <ele>83.88603</ele>
        <time>2020-07-30T08:23:20.060Z</time>
      </trkpt>
      <trkpt lat="62.09748" lon="5.58218">
        <ele>84.097233</ele>
        <time>2020-07-30T08:23:25.051Z</time>
      </trkpt>
      <trkpt lat="62.09751" lon="5.58239">
        <ele>84.296541</ele>
        <time>2020-07-30T08:23:30.045Z</time>
      </trkpt>
      <trkpt lat="62.09756" lon="5.5826">
        <ele>84.502782</ele>
        <time>2020-07-30T08:23:35.050Z</time>
      </trkpt>
      <trkpt lat="62.0976" lon="5.5828">
        <ele>84.696046</ele>
        <time>2020-07-30T08:23:40.042Z</time>
      </trkpt>
      <trkpt lat="62.09763" lon="5.58301">
        <ele>84.898845</ele>
        <time>2020-07-30T08:23:45.036Z</time>
      </trkpt>
      <trkpt lat="62.09766" lon="5.5832">
        <ele>85.076987</ele>
        <time>2020-07-30T08:23:49.053Z</time>
      </trkpt>
      <trkpt lat="62.09769" lon="5.58339">
        <ele>85.254283</ele>
        <time>2020-07-30T08:23:53.043Z</time>
      </trkpt>
      <trkpt lat="62.09772" lon="5.58359">
        <ele>85.441283</ele>
        <time>2020-07-30T08:23:57.036Z</time>
      </trkpt>
      <trkpt lat="62.09774" lon="5.5838">
        <ele>85.63077</ele>
        <time>2020-07-30T08:24:01.055Z</time>
      </trkpt>
      <trkpt lat="62.09777" lon="5.584">
        <ele>85.820861</ele>
        <time>2020-07-30T08:24:05.033Z</time>
      </trkpt>
      <trkpt lat="62.0978" lon="5.58422">
        <ele>86.022297</ele>
        <time>2020-07-30T08:24:09.069Z</time>
      </trkpt>
      <trkpt lat="62.09782" lon="5.58441">
        <ele>86.193974</ele>
        <time>2020-07-30T08:24:12.045Z</time>
      </trkpt>
      <trkpt lat="62.09784" lon="5.58461">
        <ele>86.374319</ele>
        <time>2020-07-30T08:24:15.050Z</time>
      </trkpt>
      <trkpt lat="62.09787" lon="5.58479">
        <ele>86.503465</ele>
        <time>2020-07-30T08:24:18.030Z</time>
      </trkpt>
      <trkpt lat="62.09789" lon="5.58505">
        <ele>86.632734</ele>
        <time>2020-07-30T08:24:22.037Z</time>
      </trkpt>
      <trkpt lat="62.09791" lon="5.58524">
        <ele>86.734099</ele>
        <time>2020-07-30T08:24:25.041Z</time>
      </trkpt>
      <trkpt lat="62.09792" lon="5.58545">
        <ele>86.837986</ele>
        <time>2020-07-30T08:24:28.036Z</time>
      </trkpt>
      <trkpt lat="62.09794" lon="5.58566">
        <ele>86.948621</ele>
        <time>2020-07-30T08:24:31.080Z</time>
      </trkpt>
      <trkpt lat="62.09796" lon="5.5859">
        <ele>87.070824</ele>
        <time>2020-07-30T08:24:34.072Z</time>
      </trkpt>
      <trkpt lat="62.09798" lon="5.58614">
        <ele>87.19192</ele>
        <time>2020-07-30T08:24:37.056Z</time>
      </trkpt>
      <trkpt lat="62.098" lon="5.58638">
        <ele>87.311541</ele>
        <time>2020-07-30T08:24:40.025Z</time>
      </trkpt>
      <trkpt lat="62.09802" lon="5.58663">
        <ele>87.443813</ele>
        <time>2020-07-30T08:24:43.055Z</time>
      </trkpt>
      <trkpt lat="62.09804" lon="5.5869">
        <ele>87.579956</ele>
        <time>2020-07-30T08:24:46.041Z</time>
      </trkpt>
      <trkpt lat="62.09806" lon="5.58715">
        <ele>87.708332</ele>
        <time>2020-07-30T08:24:49.057Z</time>
      </trkpt>
      <trkpt lat="62.09807" lon="5.58741">
        <ele>87.835438</ele>
        <time>2020-07-30T08:24:52.043Z</time>
      </trkpt>
      <trkpt lat="62.09809" lon="5.58765">
        <ele>87.961804</ele>
        <time>2020-07-30T08:24:55.037Z</time>
      </trkpt>
      <trkpt lat="62.09811" lon="5.58791">
        <ele>88.091176</ele>
        <time>2020-07-30T08:24:58.058Z</time>
      </trkpt>
      <trkpt lat="62.09812" lon="5.58815">
        <ele>88.216216</ele>
        <time>2020-07-30T08:25:01.041Z</time>
      </trkpt>
      <trkpt lat="62.09814" lon="5.5884">
        <ele>88.33877</ele>
        <time>2020-07-30T08:25:04.042Z</time>
      </trkpt>
      <trkpt lat="62.09816" lon="5.58864">
        <ele>88.587611</ele>
        <time>2020-07-30T08:25:07.043Z</time>
      </trkpt>
      <trkpt lat="62.09817" lon="5.58886">
        <ele>88.870331</ele>
        <time>2020-07-30T08:25:10.033Z</time>
      </trkpt>
      <trkpt lat="62.09819" lon="5.58908">
        <ele>89.150164</ele>
        <time>2020-07-30T08:25:13.029Z</time>
      </trkpt>
      <trkpt lat="62.0982" lon="5.5893">
        <ele>89.437106</ele>
        <time>2020-07-30T08:25:16.035Z</time>
      </trkpt>
      <trkpt lat="62.09822" lon="5.58952">
        <ele>89.718582</ele>
        <time>2020-07-30T08:25:19.043Z</time>
      </trkpt>
      <trkpt lat="62.09824" lon="5.58973">
        <ele>89.983109</ele>
        <time>2020-07-30T08:25:22.054Z</time>
      </trkpt>
      <trkpt lat="62.09825" lon="5.58993">
        <ele>90.240978</ele>
        <time>2020-07-30T08:25:25.034Z</time>
      </trkpt>
      <trkpt lat="62.09827" lon="5.59013">
        <ele>90.496364</ele>
        <time>2020-07-30T08:25:28.042Z</time>
      </trkpt>
      <trkpt lat="62.09829" lon="5.59033">
        <ele>90.749741</ele>
        <time>2020-07-30T08:25:31.063Z</time>
      </trkpt>
      <trkpt lat="62.0983" lon="5.59053">
        <ele>91.006033</ele>
        <time>2020-07-30T08:25:34.074Z</time>
      </trkpt>
      <trkpt lat="62.09831" lon="5.59073">
        <ele>91.256083</ele>
        <time>2020-07-30T08:25:37.041Z</time>
      </trkpt>
      <trkpt lat="62.09832" lon="5.59092">
        <ele>91.49942</ele>
        <time>2020-07-30T08:25:40.069Z</time>
      </trkpt>
      <trkpt lat="62.09833" lon="5.59111">
        <ele>91.742889</ele>
        <time>2020-07-30T08:25:43.068Z</time>
      </trkpt>
      <trkpt lat="62.09835" lon="5.59135">
        <ele>92.038921</ele>
        <time>2020-07-30T08:25:47.059Z</time>
      </trkpt>
      <trkpt lat="62.09836" lon="5.59155">
        <ele>92.291825</ele>
        <time>2020-07-30T08:25:51.045Z</time>
      </trkpt>
      <trkpt lat="62.09838" lon="5.59174">
        <ele>92.545701</ele>
        <time>2020-07-30T08:25:55.033Z</time>
      </trkpt>
      <trkpt lat="62.09839" lon="5.59195">
        <ele>92.805738</ele>
        <time>2020-07-30T08:25:59.049Z</time>
      </trkpt>
      <trkpt lat="62.0984" lon="5.59215">
        <ele>93.055476</ele>
        <time>2020-07-30T08:26:03.038Z</time>
      </trkpt>
      <trkpt lat="62.09842" lon="5.59237">
        <ele>93.407176</ele>
        <time>2020-07-30T08:26:08.055Z</time>
      </trkpt>
      <trkpt lat="62.09844" lon="5.59258">
        <ele>93.773425</ele>
        <time>2020-07-30T08:26:12.038Z</time>
      </trkpt>
      <trkpt lat="62.09846" lon="5.59278">
        <ele>94.144317</ele>
        <time>2020-07-30T08:26:16.022Z</time>
      </trkpt>
      <trkpt lat="62.09847" lon="5.59299">
        <ele>94.533607</ele>
        <time>2020-07-30T08:26:20.076Z</time>
      </trkpt>
      <trkpt lat="62.09849" lon="5.5932">
        <ele>94.913579</ele>
        <time>2020-07-30T08:26:24.054Z</time>
      </trkpt>
      <trkpt lat="62.09851" lon="5.59339">
        <ele>95.267437</ele>
        <time>2020-07-30T08:26:28.040Z</time>
      </trkpt>
      <trkpt lat="62.09852" lon="5.59363">
        <ele>95.696081</ele>
        <time>2020-07-30T08:26:33.041Z</time>
      </trkpt>
      <trkpt lat="62.09854" lon="5.59386">
        <ele>96.120885</ele>
        <time>2020-07-30T08:26:38.052Z</time>
      </trkpt>
      <trkpt lat="62.09855" lon="5.59405">
        <ele>96.466392</ele>
        <time>2020-07-30T08:26:42.050Z</time>
      </trkpt>
      <trkpt lat="62.09856" lon="5.59425">
        <ele>96.821472</ele>
        <time>2020-07-30T08:26:46.035Z</time>
      </trkpt>
      <trkpt lat="62.09858" lon="5.59445">
        <ele>97.184186</ele>
        <time>2020-07-30T08:26:50.043Z</time>
      </trkpt>
      <trkpt lat="62.09859" lon="5.59465">
        <ele>97.548036</ele>
        <time>2020-07-30T08:26:54.034Z</time>
      </trkpt>
      <trkpt lat="62.0986" lon="5.59485">
        <ele>97.909345</ele>
        <time>2020-07-30T08:26:58.066Z</time>
      </trkpt>
      <trkpt lat="62.09861" lon="5.59506">
        <ele>98.286733</ele>
        <time>2020-07-30T08:27:02.044Z</time>
      </trkpt>
      <trkpt lat="62.09863" lon="5.59527">
        <ele>98.664213</ele>
        <time>2020-07-30T08:27:06.074Z</time>
      </trkpt>
      <trkpt lat="62.09865" lon="5.59546">
        <ele>99.026279</ele>
        <time>2020-07-30T08:27:10.053Z</time>
      </trkpt>
      <trkpt lat="62.09867" lon="5.5957">
        <ele>99.461065</ele>
        <time>2020-07-30T08:27:15.051Z</time>
      </trkpt>
      <trkpt lat="62.09869" lon="5.59591">
        <ele>99.846334</ele>
        <time>2020-07-30T08:27:19.044Z</time>
      </trkpt>
      <trkpt lat="62.09871" lon="5.59612">
        <ele>100.225981</ele>
        <time>2020-07-30T08:27:23.038Z</time>
      </trkpt>
      <trkpt lat="62.09872" lon="5.59632">
        <ele>100.55994</ele>
        <time>2020-07-30T08:27:27.020Z</time>
      </trkpt>
      <trkpt lat="62.09873" lon="5.59653">
        <ele>100.902868</ele>
        <time>2020-07-30T08:27:31.045Z</time>
      </trkpt>
      <trkpt lat="62.09875" lon="5.59672">
        <ele>101.225099</ele>
        <time>2020-07-30T08:27:35.031Z</time>
      </trkpt>
      <trkpt lat="62.09876" lon="5.59691">
        <ele>101.551213</ele>
        <time>2020-07-30T08:27:39.044Z</time>
      </trkpt>
      <trkpt lat="62.09878" lon="5.59714">
        <ele>101.934291</ele>
        <time>2020-07-30T08:27:44.045Z</time>
      </trkpt>
      <trkpt lat="62.0988" lon="5.59737">
        <ele>102.320916</ele>
        <time>2020-07-30T08:27:49.054Z</time>
      </trkpt>
      <trkpt lat="62.09882" lon="5.59759">
        <ele>102.698043</ele>
        <time>2020-07-30T08:27:54.033Z</time>
      </trkpt>
      <trkpt lat="62.09883" lon="5.59782">
        <ele>103.089359</ele>
        <time>2020-07-30T08:27:59.047Z</time>
      </trkpt>
      <trkpt lat="62.09885" lon="5.59803">
        <ele>103.443451</ele>
        <time>2020-07-30T08:28:03.075Z</time>
      </trkpt>
      <trkpt lat="62.09886" lon="5.59827">
        <ele>103.840455</ele>
        <time>2020-07-30T08:28:07.038Z</time>
      </trkpt>
      <trkpt lat="62.09887" lon="5.59849">
        <ele>104.205417</ele>
        <time>2020-07-30T08:28:11.042Z</time>
      </trkpt>
      <trkpt lat="62.09889" lon="5.5987">
        <ele>104.562699</ele>
        <time>2020-07-30T08:28:15.038Z</time>
      </trkpt>
      <trkpt lat="62.09891" lon="5.59891">
        <ele>104.922369</ele>
        <time>2020-07-30T08:28:19.031Z</time>
      </trkpt>
      <trkpt lat="62.09893" lon="5.59911">
        <ele>105.270011</ele>
        <time>2020-07-30T08:28:23.032Z</time>
      </trkpt>
      <trkpt lat="62.09896" lon="5.5993">
        <ele>105.597775</ele>
        <time>2020-07-30T08:28:27.043Z</time>
      </trkpt>
      <trkpt lat="62.09899" lon="5.5995">
        <ele>105.936728</ele>
        <time>2020-07-30T08:28:31.040Z</time>
      </trkpt>
      <trkpt lat="62.09901" lon="5.59969">
        <ele>106.263997</ele>
        <time>2020-07-30T08:28:35.041Z</time>
      </trkpt>
      <trkpt lat="62.09903" lon="5.59988">
        <ele>106.565041</ele>
        <time>2020-07-30T08:28:39.033Z</time>
      </trkpt>
      <trkpt lat="62.09906" lon="5.6001">
        <ele>106.775662</ele>
        <time>2020-07-30T08:28:43.045Z</time>
      </trkpt>
      <trkpt lat="62.09909" lon="5.6003">
        <ele>106.97898</ele>
        <time>2020-07-30T08:28:47.053Z</time>
      </trkpt>
      <trkpt lat="62.09912" lon="5.60052">
        <ele>107.193854</ele>
        <time>2020-07-30T08:28:51.026Z</time>
      </trkpt>
      <trkpt lat="62.09915" lon="5.60074">
        <ele>107.413903</ele>
        <time>2020-07-30T08:28:55.041Z</time>
      </trkpt>
      <trkpt lat="62.09918" lon="5.60095">
        <ele>107.622482</ele>
        <time>2020-07-30T08:28:59.034Z</time>
      </trkpt>
      <trkpt lat="62.09921" lon="5.60119">
        <ele>107.862783</ele>
        <time>2020-07-30T08:29:03.043Z</time>
      </trkpt>
      <trkpt lat="62.09923" lon="5.60138">
        <ele>108.047963</ele>
        <time>2020-07-30T08:29:06.036Z</time>
      </trkpt>
      <trkpt lat="62.09926" lon="5.60162">
        <ele>108.286805</ele>
        <time>2020-07-30T08:29:10.079Z</time>
      </trkpt>
      <trkpt lat="62.0993" lon="5.60185">
        <ele>108.520644</ele>
        <time>2020-07-30T08:29:14.032Z</time>
      </trkpt>
      <trkpt lat="62.09934" lon="5.60207">
        <ele>108.744908</ele>
        <time>2020-07-30T08:29:18.029Z</time>
      </trkpt>
      <trkpt lat="62.09937" lon="5.60229">
        <ele>108.974092</ele>
        <time>2020-07-30T08:29:22.043Z</time>
      </trkpt>
      <trkpt lat="62.0994" lon="5.60252">
        <ele>109.196146</ele>
        <time>2020-07-30T08:29:26.041Z</time>
      </trkpt>
      <trkpt lat="62.09943" lon="5.60275">
        <ele>109.426242</ele>
        <time>2020-07-30T08:29:30.044Z</time>
      </trkpt>
      <trkpt lat="62.09947" lon="5.60297">
        <ele>109.655864</ele>
        <time>2020-07-30T08:29:34.041Z</time>
      </trkpt>
      <trkpt lat="62.0995" lon="5.60315">
        <ele>109.84026</ele>
        <time>2020-07-30T08:29:37.033Z</time>
      </trkpt>
      <trkpt lat="62.09953" lon="5.60334">
        <ele>110.027195</ele>
        <time>2020-07-30T08:29:40.049Z</time>
      </trkpt>
      <trkpt lat="62.09957" lon="5.60357">
        <ele>110.242081</ele>
        <time>2020-07-30T08:29:44.068Z</time>
      </trkpt>
      <trkpt lat="62.0996" lon="5.60376">
        <ele>110.363828</ele>
        <time>2020-07-30T08:29:47.075Z</time>
      </trkpt>
      <trkpt lat="62.09963" lon="5.60401">
        <ele>110.523411</ele>
        <time>2020-07-30T08:29:51.060Z</time>
      </trkpt>
      <trkpt lat="62.09966" lon="5.60425">
        <ele>110.680492</ele>
        <time>2020-07-30T08:29:55.034Z</time>
      </trkpt>
      <trkpt lat="62.09969" lon="5.60449">
        <ele>110.834214</ele>
        <time>2020-07-30T08:29:59.050Z</time>
      </trkpt>
      <trkpt lat="62.09971" lon="5.60468">
        <ele>110.955</ele>
        <time>2020-07-30T08:30:02.054Z</time>
      </trkpt>
      <trkpt lat="62.09974" lon="5.60488">
        <ele>111.084563</ele>
        <time>2020-07-30T08:30:05.029Z</time>
      </trkpt>
      <trkpt lat="62.09976" lon="5.60507">
        <ele>111.210017</ele>
        <time>2020-07-30T08:30:08.048Z</time>
      </trkpt>
      <trkpt lat="62.09979" lon="5.60527">
        <ele>111.33368</ele>
        <time>2020-07-30T08:30:11.024Z</time>
      </trkpt>
      <trkpt lat="62.09982" lon="5.60545">
        <ele>111.45356</ele>
        <time>2020-07-30T08:30:14.068Z</time>
      </trkpt>
      <trkpt lat="62.09984" lon="5.60563">
        <ele>111.574034</ele>
        <time>2020-07-30T08:30:17.028Z</time>
      </trkpt>
      <trkpt lat="62.09987" lon="5.60582">
        <ele>111.696505</ele>
        <time>2020-07-30T08:30:20.037Z</time>
      </trkpt>
      <trkpt lat="62.09991" lon="5.60601">
        <ele>111.821713</ele>
        <time>2020-07-30T08:30:23.075Z</time>
      </trkpt>
      <trkpt lat="62.09994" lon="5.6062">
        <ele>111.946664</ele>
        <time>2020-07-30T08:30:26.049Z</time>
      </trkpt>
      <trkpt lat="62.09997" lon="5.60638">
        <ele>112.06893</ele>
        <time>2020-07-30T08:30:29.043Z</time>
      </trkpt>
      <trkpt lat="62.10001" lon="5.60656">
        <ele>112.189112</ele>
        <time>2020-07-30T08:30:32.072Z</time>
      </trkpt>
      <trkpt lat="62.10004" lon="5.60674">
        <ele>112.31142</ele>
        <time>2020-07-30T08:30:35.072Z</time>
      </trkpt>
      <trkpt lat="62.10008" lon="5.60698">
        <ele>112.466577</ele>
        <time>2020-07-30T08:30:39.028Z</time>
      </trkpt>
      <trkpt lat="62.10011" lon="5.60716">
        <ele>112.593152</ele>
        <time>2020-07-30T08:30:42.066Z</time>
      </trkpt>
      <trkpt lat="62.10013" lon="5.60735">
        <ele>112.989355</ele>
        <time>2020-07-30T08:30:45.056Z</time>
      </trkpt>
      <trkpt lat="62.10016" lon="5.60754">
        <ele>113.395307</ele>
        <time>2020-07-30T08:30:48.034Z</time>
      </trkpt>
      <trkpt lat="62.10019" lon="5.60778">
        <ele>113.905137</ele>
        <time>2020-07-30T08:30:52.030Z</time>
      </trkpt>
      <trkpt lat="62.10022" lon="5.60801">
        <ele>114.405105</ele>
        <time>2020-07-30T08:30:56.056Z</time>
      </trkpt>
      <trkpt lat="62.10025" lon="5.60825">
        <ele>114.898596</ele>
        <time>2020-07-30T08:31:00.031Z</time>
      </trkpt>
      <trkpt lat="62.10028" lon="5.60848">
        <ele>115.392112</ele>
        <time>2020-07-30T08:31:04.039Z</time>
      </trkpt>
      <trkpt lat="62.1003" lon="5.60873">
        <ele>115.90982</ele>
        <time>2020-07-30T08:31:08.063Z</time>
      </trkpt>
      <trkpt lat="62.10032" lon="5.60892">
        <ele>116.317687</ele>
        <time>2020-07-30T08:31:11.081Z</time>
      </trkpt>
      <trkpt lat="62.10034" lon="5.60917">
        <ele>116.818138</ele>
        <time>2020-07-30T08:31:15.046Z</time>
      </trkpt>
      <trkpt lat="62.10036" lon="5.6094">
        <ele>117.305753</ele>
        <time>2020-07-30T08:31:19.029Z</time>
      </trkpt>
      <trkpt lat="62.10039" lon="5.60963">
        <ele>117.803574</ele>
        <time>2020-07-30T08:31:23.024Z</time>
      </trkpt>
      <trkpt lat="62.10041" lon="5.60988">
        <ele>118.320875</ele>
        <time>2020-07-30T08:31:27.043Z</time>
      </trkpt>
      <trkpt lat="62.10042" lon="5.61008">
        <ele>118.726908</ele>
        <time>2020-07-30T08:31:30.051Z</time>
      </trkpt>
      <trkpt lat="62.10043" lon="5.61032">
        <ele>119.236762</ele>
        <time>2020-07-30T08:31:34.049Z</time>
      </trkpt>
      <trkpt lat="62.10045" lon="5.61052">
        <ele>119.648205</ele>
        <time>2020-07-30T08:31:37.025Z</time>
      </trkpt>
      <trkpt lat="62.10045" lon="5.61072">
        <ele>120.056072</ele>
        <time>2020-07-30T08:31:40.067Z</time>
      </trkpt>
      <trkpt lat="62.10047" lon="5.61097">
        <ele>120.467243</ele>
        <time>2020-07-30T08:31:44.038Z</time>
      </trkpt>
      <trkpt lat="62.1005" lon="5.61122">
        <ele>120.513903</ele>
        <time>2020-07-30T08:31:48.024Z</time>
      </trkpt>
      <trkpt lat="62.10052" lon="5.61142">
        <ele>120.55184</ele>
        <time>2020-07-30T08:31:51.059Z</time>
      </trkpt>
      <trkpt lat="62.10054" lon="5.61162">
        <ele>120.589594</ele>
        <time>2020-07-30T08:31:54.031Z</time>
      </trkpt>
      <trkpt lat="62.10056" lon="5.61186">
        <ele>120.635706</ele>
        <time>2020-07-30T08:31:58.049Z</time>
      </trkpt>
      <trkpt lat="62.10059" lon="5.61205">
        <ele>120.671349</ele>
        <time>2020-07-30T08:32:01.039Z</time>
      </trkpt>
      <trkpt lat="62.10061" lon="5.61224">
        <ele>120.709183</ele>
        <time>2020-07-30T08:32:04.032Z</time>
      </trkpt>
      <trkpt lat="62.10063" lon="5.61244">
        <ele>120.745958</ele>
        <time>2020-07-30T08:32:07.040Z</time>
      </trkpt>
      <trkpt lat="62.10065" lon="5.61263">
        <ele>120.782412</ele>
        <time>2020-07-30T08:32:10.054Z</time>
      </trkpt>
      <trkpt lat="62.10068" lon="5.61288">
        <ele>120.829124</ele>
        <time>2020-07-30T08:32:14.062Z</time>
      </trkpt>
      <trkpt lat="62.1007" lon="5.61311">
        <ele>120.87268</ele>
        <time>2020-07-30T08:32:18.051Z</time>
      </trkpt>
      <trkpt lat="62.10073" lon="5.61335">
        <ele>120.91822</ele>
        <time>2020-07-30T08:32:22.055Z</time>
      </trkpt>
      <trkpt lat="62.10076" lon="5.61358">
        <ele>120.962784</ele>
        <time>2020-07-30T08:32:26.043Z</time>
      </trkpt>
      <trkpt lat="62.10079" lon="5.61382">
        <ele>121.009339</ele>
        <time>2020-07-30T08:32:30.041Z</time>
      </trkpt>
      <trkpt lat="62.10082" lon="5.61407">
        <ele>121.055954</ele>
        <time>2020-07-30T08:32:34.033Z</time>
      </trkpt>
      <trkpt lat="62.10084" lon="5.61426">
        <ele>121.091973</ele>
        <time>2020-07-30T08:32:37.035Z</time>
      </trkpt>
      <trkpt lat="62.10086" lon="5.61444">
        <ele>121.127613</ele>
        <time>2020-07-30T08:32:40.039Z</time>
      </trkpt>
      <trkpt lat="62.10089" lon="5.61468">
        <ele>121.204208</ele>
        <time>2020-07-30T08:32:44.074Z</time>
      </trkpt>
      <trkpt lat="62.10093" lon="5.61492">
        <ele>121.449194</ele>
        <time>2020-07-30T08:32:48.055Z</time>
      </trkpt>
      <trkpt lat="62.10095" lon="5.61514">
        <ele>121.675751</ele>
        <time>2020-07-30T08:32:52.036Z</time>
      </trkpt>
      <trkpt lat="62.10097" lon="5.61532">
        <ele>121.869104</ele>
        <time>2020-07-30T08:32:55.031Z</time>
      </trkpt>
      <trkpt lat="62.101" lon="5.61551">
        <ele>122.068671</ele>
        <time>2020-07-30T08:32:58.056Z</time>
      </trkpt>
      <trkpt lat="62.10102" lon="5.6157">
        <ele>122.26492</ele>
        <time>2020-07-30T08:33:01.057Z</time>
      </trkpt>
      <trkpt lat="62.10105" lon="5.61594">
        <ele>122.513066</ele>
        <time>2020-07-30T08:33:05.024Z</time>
      </trkpt>
      <trkpt lat="62.10108" lon="5.61613">
        <ele>122.707201</ele>
        <time>2020-07-30T08:33:08.029Z</time>
      </trkpt>
      <trkpt lat="62.10109" lon="5.61636">
        <ele>122.948862</ele>
        <time>2020-07-30T08:33:12.045Z</time>
      </trkpt>
      <trkpt lat="62.10111" lon="5.6166">
        <ele>123.186535</ele>
        <time>2020-07-30T08:33:16.033Z</time>
      </trkpt>
      <trkpt lat="62.10113" lon="5.61679">
        <ele>123.383722</ele>
        <time>2020-07-30T08:33:19.045Z</time>
      </trkpt>
      <trkpt lat="62.10116" lon="5.61704">
        <ele>123.637258</ele>
        <time>2020-07-30T08:33:23.066Z</time>
      </trkpt>
      <trkpt lat="62.10118" lon="5.61724">
        <ele>123.843261</ele>
        <time>2020-07-30T08:33:26.038Z</time>
      </trkpt>
      <trkpt lat="62.1012" lon="5.61744">
        <ele>124.056924</ele>
        <time>2020-07-30T08:33:29.043Z</time>
      </trkpt>
      <trkpt lat="62.10123" lon="5.61765">
        <ele>124.276769</ele>
        <time>2020-07-30T08:33:32.040Z</time>
      </trkpt>
      <trkpt lat="62.10126" lon="5.61787">
        <ele>124.501288</ele>
        <time>2020-07-30T08:33:35.033Z</time>
      </trkpt>
      <trkpt lat="62.10128" lon="5.61807">
        <ele>124.70978</ele>
        <time>2020-07-30T08:33:38.024Z</time>
      </trkpt>
      <trkpt lat="62.1013" lon="5.61828">
        <ele>124.923357</ele>
        <time>2020-07-30T08:33:41.042Z</time>
      </trkpt>
      <trkpt lat="62.10131" lon="5.61848">
        <ele>125.067142</ele>
        <time>2020-07-30T08:33:44.031Z</time>
      </trkpt>
      <trkpt lat="62.10132" lon="5.6187">
        <ele>125.143817</ele>
        <time>2020-07-30T08:33:47.058Z</time>
      </trkpt>
      <trkpt lat="62.10134" lon="5.61891">
        <ele>125.221877</ele>
        <time>2020-07-30T08:33:50.044Z</time>
      </trkpt>
      <trkpt lat="62.10137" lon="5.61913">
        <ele>125.304762</ele>
        <time>2020-07-30T08:33:53.023Z</time>
      </trkpt>
      <trkpt lat="62.10139" lon="5.61939">
        <ele>125.400261</ele>
        <time>2020-07-30T08:33:56.054Z</time>
      </trkpt>
      <trkpt lat="62.10141" lon="5.61965">
        <ele>125.495524</ele>
        <time>2020-07-30T08:33:59.051Z</time>
      </trkpt>
      <trkpt lat="62.10143" lon="5.6199">
        <ele>125.58609</ele>
        <time>2020-07-30T08:34:02.057Z</time>
      </trkpt>
      <trkpt lat="62.10145" lon="5.62014">
        <ele>125.674035</ele>
        <time>2020-07-30T08:34:05.052Z</time>
      </trkpt>
      <trkpt lat="62.10147" lon="5.62039">
        <ele>125.762782</ele>
        <time>2020-07-30T08:34:08.047Z</time>
      </trkpt>
      <trkpt lat="62.10148" lon="5.62063">
        <ele>125.852588</ele>
        <time>2020-07-30T08:34:11.030Z</time>
      </trkpt>
      <trkpt lat="62.1015" lon="5.62087">
        <ele>125.940139</ele>
        <time>2020-07-30T08:34:14.084Z</time>
      </trkpt>
      <trkpt lat="62.10151" lon="5.62112">
        <ele>126.03066</ele>
        <time>2020-07-30T08:34:17.026Z</time>
      </trkpt>
      <trkpt lat="62.10153" lon="5.62136">
        <ele>126.118231</ele>
        <time>2020-07-30T08:34:20.035Z</time>
      </trkpt>
      <trkpt lat="62.10154" lon="5.62161">
        <ele>126.206244</ele>
        <time>2020-07-30T08:34:23.038Z</time>
      </trkpt>
      <trkpt lat="62.10155" lon="5.62184">
        <ele>126.292746</ele>
        <time>2020-07-30T08:34:26.041Z</time>
      </trkpt>
      <trkpt lat="62.10156" lon="5.62208">
        <ele>126.378334</ele>
        <time>2020-07-30T08:34:29.044Z</time>
      </trkpt>
      <trkpt lat="62.10157" lon="5.62232">
        <ele>126.547412</ele>
        <time>2020-07-30T08:34:32.022Z</time>
      </trkpt>
      <trkpt lat="62.10158" lon="5.62256">
        <ele>126.769764</ele>
        <time>2020-07-30T08:34:35.071Z</time>
      </trkpt>
      <trkpt lat="62.10158" lon="5.62279">
        <ele>126.988712</ele>
        <time>2020-07-30T08:34:38.035Z</time>
      </trkpt>
      <trkpt lat="62.10158" lon="5.62301">
        <ele>127.190649</ele>
        <time>2020-07-30T08:34:41.034Z</time>
      </trkpt>
      <trkpt lat="62.10158" lon="5.62322">
        <ele>127.391607</ele>
        <time>2020-07-30T08:34:44.038Z</time>
      </trkpt>
      <trkpt lat="62.10158" lon="5.62345">
        <ele>127.604783</ele>
        <time>2020-07-30T08:34:47.053Z</time>
      </trkpt>
      <trkpt lat="62.10159" lon="5.62369">
        <ele>127.833053</ele>
        <time>2020-07-30T08:34:50.043Z</time>
      </trkpt>
      <trkpt lat="62.10159" lon="5.62393">
        <ele>128.053768</ele>
        <time>2020-07-30T08:34:53.061Z</time>
      </trkpt>
      <trkpt lat="62.10158" lon="5.62417">
        <ele>128.281161</ele>
        <time>2020-07-30T08:34:56.032Z</time>
      </trkpt>
      <trkpt lat="62.10158" lon="5.6244">
        <ele>128.502068</ele>
        <time>2020-07-30T08:34:59.034Z</time>
      </trkpt>
      <trkpt lat="62.10158" lon="5.62464">
        <ele>128.719938</ele>
        <time>2020-07-30T08:35:02.041Z</time>
      </trkpt>
      <trkpt lat="62.10158" lon="5.62487">
        <ele>128.937836</ele>
        <time>2020-07-30T08:35:05.045Z</time>
      </trkpt>
      <trkpt lat="62.10158" lon="5.62509">
        <ele>129.150063</ele>
        <time>2020-07-30T08:35:08.033Z</time>
      </trkpt>
      <trkpt lat="62.10158" lon="5.6253">
        <ele>129.34752</ele>
        <time>2020-07-30T08:35:11.034Z</time>
      </trkpt>
      <trkpt lat="62.10159" lon="5.62551">
        <ele>129.543824</ele>
        <time>2020-07-30T08:35:14.031Z</time>
      </trkpt>
      <trkpt lat="62.10159" lon="5.62571">
        <ele>129.726985</ele>
        <time>2020-07-30T08:35:17.045Z</time>
      </trkpt>
      <trkpt lat="62.10159" lon="5.62592">
        <ele>129.924227</ele>
        <time>2020-07-30T08:35:20.039Z</time>
      </trkpt>
      <trkpt lat="62.10159" lon="5.62613">
        <ele>130.162232</ele>
        <time>2020-07-30T08:35:23.059Z</time>
      </trkpt>
      <trkpt lat="62.10159" lon="5.62633">
        <ele>130.445325</ele>
        <time>2020-07-30T08:35:26.039Z</time>
      </trkpt>
      <trkpt lat="62.10159" lon="5.62656">
        <ele>130.751611</ele>
        <time>2020-07-30T08:35:29.031Z</time>
      </trkpt>
      <trkpt lat="62.10159" lon="5.62678">
        <ele>131.04969</ele>
        <time>2020-07-30T08:35:32.050Z</time>
      </trkpt>
      <trkpt lat="62.10159" lon="5.62699">
        <ele>131.340963</ele>
        <time>2020-07-30T08:35:35.076Z</time>
      </trkpt>
      <trkpt lat="62.10159" lon="5.62718">
        <ele>131.602426</ele>
        <time>2020-07-30T08:35:38.085Z</time>
      </trkpt>
      <trkpt lat="62.1016" lon="5.62738">
        <ele>131.876748</ele>
        <time>2020-07-30T08:35:41.032Z</time>
      </trkpt>
      <trkpt lat="62.1016" lon="5.62759">
        <ele>132.154641</ele>
        <time>2020-07-30T08:35:44.059Z</time>
      </trkpt>
      <trkpt lat="62.10159" lon="5.62779">
        <ele>132.425875</ele>
        <time>2020-07-30T08:35:47.036Z</time>
      </trkpt>
      <trkpt lat="62.10159" lon="5.628">
        <ele>132.710329</ele>
        <time>2020-07-30T08:35:50.024Z</time>
      </trkpt>
      <trkpt lat="62.10159" lon="5.62821">
        <ele>133.0058</ele>
        <time>2020-07-30T08:35:53.047Z</time>
      </trkpt>
      <trkpt lat="62.10159" lon="5.62843">
        <ele>133.294338</ele>
        <time>2020-07-30T08:35:56.054Z</time>
      </trkpt>
      <trkpt lat="62.1016" lon="5.62863">
        <ele>133.57952</ele>
        <time>2020-07-30T08:35:59.039Z</time>
      </trkpt>
      <trkpt lat="62.1016" lon="5.62884">
        <ele>133.862672</ele>
        <time>2020-07-30T08:36:02.043Z</time>
      </trkpt>
      <trkpt lat="62.1016" lon="5.62905">
        <ele>134.148724</ele>
        <time>2020-07-30T08:36:05.056Z</time>
      </trkpt>
      <trkpt lat="62.1016" lon="5.62927">
        <ele>134.450886</ele>
        <time>2020-07-30T08:36:08.056Z</time>
      </trkpt>
      <trkpt lat="62.1016" lon="5.62948">
        <ele>134.736701</ele>
        <time>2020-07-30T08:36:11.083Z</time>
      </trkpt>
      <trkpt lat="62.1016" lon="5.62969">
        <ele>135.013004</ele>
        <time>2020-07-30T08:36:14.057Z</time>
      </trkpt>
      <trkpt lat="62.1016" lon="5.62991">
        <ele>135.287214</ele>
        <time>2020-07-30T08:36:17.057Z</time>
      </trkpt>
      <trkpt lat="62.10161" lon="5.63012">
        <ele>135.454589</ele>
        <time>2020-07-30T08:36:20.050Z</time>
      </trkpt>
      <trkpt lat="62.10161" lon="5.63035">
        <ele>135.625632</ele>
        <time>2020-07-30T08:36:23.045Z</time>
      </trkpt>
      <trkpt lat="62.10162" lon="5.63058">
        <ele>135.801424</ele>
        <time>2020-07-30T08:36:26.071Z</time>
      </trkpt>
      <trkpt lat="62.10163" lon="5.6308">
        <ele>135.976665</ele>
        <time>2020-07-30T08:36:29.033Z</time>
      </trkpt>
      <trkpt lat="62.10163" lon="5.63103">
        <ele>136.150657</ele>
        <time>2020-07-30T08:36:32.020Z</time>
      </trkpt>
      <trkpt lat="62.10162" lon="5.63126">
        <ele>136.327775</ele>
        <time>2020-07-30T08:36:35.040Z</time>
      </trkpt>
      <trkpt lat="62.10163" lon="5.6315">
        <ele>136.510308</ele>
        <time>2020-07-30T08:36:38.055Z</time>
      </trkpt>
      <trkpt lat="62.10163" lon="5.63174">
        <ele>136.691197</ele>
        <time>2020-07-30T08:36:41.047Z</time>
      </trkpt>
      <trkpt lat="62.10162" lon="5.63199">
        <ele>136.885358</ele>
        <time>2020-07-30T08:36:44.058Z</time>
      </trkpt>
      <trkpt lat="62.10162" lon="5.63223">
        <ele>137.071785</ele>
        <time>2020-07-30T08:36:47.089Z</time>
      </trkpt>
      <trkpt lat="62.10161" lon="5.63247">
        <ele>137.251612</ele>
        <time>2020-07-30T08:36:50.058Z</time>
      </trkpt>
      <trkpt lat="62.1016" lon="5.63271">
        <ele>137.435386</ele>
        <time>2020-07-30T08:36:53.053Z</time>
      </trkpt>
      <trkpt lat="62.1016" lon="5.63295">
        <ele>137.622428</ele>
        <time>2020-07-30T08:36:56.036Z</time>
      </trkpt>
      <trkpt lat="62.10161" lon="5.63319">
        <ele>137.806639</ele>
        <time>2020-07-30T08:36:59.052Z</time>
      </trkpt>
      <trkpt lat="62.10162" lon="5.63342">
        <ele>137.985589</ele>
        <time>2020-07-30T08:37:02.055Z</time>
      </trkpt>
      <trkpt lat="62.10162" lon="5.63366">
        <ele>138.16659</ele>
        <time>2020-07-30T08:37:05.041Z</time>
      </trkpt>
      <trkpt lat="62.10162" lon="5.63389">
        <ele>138.397536</ele>
        <time>2020-07-30T08:37:08.048Z</time>
      </trkpt>
      <trkpt lat="62.10162" lon="5.63412">
        <ele>138.644094</ele>
        <time>2020-07-30T08:37:11.049Z</time>
      </trkpt>
      <trkpt lat="62.10163" lon="5.63437">
        <ele>138.899287</ele>
        <time>2020-07-30T08:37:14.042Z</time>
      </trkpt>
      <trkpt lat="62.10163" lon="5.6346">
        <ele>139.145121</ele>
        <time>2020-07-30T08:37:17.034Z</time>
      </trkpt>
      <trkpt lat="62.10164" lon="5.63483">
        <ele>139.392664</ele>
        <time>2020-07-30T08:37:20.037Z</time>
      </trkpt>
      <trkpt lat="62.10164" lon="5.63508">
        <ele>139.652885</ele>
        <time>2020-07-30T08:37:23.044Z</time>
      </trkpt>
      <trkpt lat="62.10165" lon="5.63531">
        <ele>139.89346</ele>
        <time>2020-07-30T08:37:26.025Z</time>
      </trkpt>
      <trkpt lat="62.10165" lon="5.63554">
        <ele>140.13787</ele>
        <time>2020-07-30T08:37:29.049Z</time>
      </trkpt>
      <trkpt lat="62.10165" lon="5.63577">
        <ele>140.381486</ele>
        <time>2020-07-30T08:37:32.082Z</time>
      </trkpt>
      <trkpt lat="62.10166" lon="5.636">
        <ele>140.622997</ele>
        <time>2020-07-30T08:37:35.023Z</time>
      </trkpt>
      <trkpt lat="62.10167" lon="5.63622">
        <ele>140.857953</ele>
        <time>2020-07-30T08:37:38.054Z</time>
      </trkpt>
      <trkpt lat="62.10167" lon="5.63644">
        <ele>141.088766</ele>
        <time>2020-07-30T08:37:41.047Z</time>
      </trkpt>
      <trkpt lat="62.10168" lon="5.63666">
        <ele>141.32303</ele>
        <time>2020-07-30T08:37:44.049Z</time>
      </trkpt>
      <trkpt lat="62.10169" lon="5.63688">
        <ele>141.553791</ele>
        <time>2020-07-30T08:37:47.041Z</time>
      </trkpt>
      <trkpt lat="62.1017" lon="5.63712">
        <ele>141.805973</ele>
        <time>2020-07-30T08:37:50.033Z</time>
      </trkpt>
      <trkpt lat="62.10171" lon="5.63737">
        <ele>142.068872</ele>
        <time>2020-07-30T08:37:53.040Z</time>
      </trkpt>
      <trkpt lat="62.10172" lon="5.63761">
        <ele>142.22401</ele>
        <time>2020-07-30T08:37:56.038Z</time>
      </trkpt>
      <trkpt lat="62.10174" lon="5.63785">
        <ele>142.128491</ele>
        <time>2020-07-30T08:37:59.033Z</time>
      </trkpt>
      <trkpt lat="62.10175" lon="5.63809">
        <ele>142.030777</ele>
        <time>2020-07-30T08:38:02.063Z</time>
      </trkpt>
      <trkpt lat="62.10176" lon="5.63832">
        <ele>141.936159</ele>
        <time>2020-07-30T08:38:05.037Z</time>
      </trkpt>
      <trkpt lat="62.10177" lon="5.63856">
        <ele>141.840042</ele>
        <time>2020-07-30T08:38:08.056Z</time>
      </trkpt>
      <trkpt lat="62.10179" lon="5.63881">
        <ele>141.74083</ele>
        <time>2020-07-30T08:38:11.036Z</time>
      </trkpt>
      <trkpt lat="62.10179" lon="5.63906">
        <ele>141.639988</ele>
        <time>2020-07-30T08:38:14.070Z</time>
      </trkpt>
      <trkpt lat="62.1018" lon="5.63932">
        <ele>141.535464</ele>
        <time>2020-07-30T08:38:17.025Z</time>
      </trkpt>
      <trkpt lat="62.10181" lon="5.63959">
        <ele>141.423973</ele>
        <time>2020-07-30T08:38:20.071Z</time>
      </trkpt>
      <trkpt lat="62.10182" lon="5.63985">
        <ele>141.318583</ele>
        <time>2020-07-30T08:38:23.054Z</time>
      </trkpt>
      <trkpt lat="62.10183" lon="5.6401">
        <ele>141.219105</ele>
        <time>2020-07-30T08:38:26.031Z</time>
      </trkpt>
      <trkpt lat="62.10184" lon="5.64034">
        <ele>141.124757</ele>
        <time>2020-07-30T08:38:29.046Z</time>
      </trkpt>
      <trkpt lat="62.10185" lon="5.64057">
        <ele>141.029683</ele>
        <time>2020-07-30T08:38:32.023Z</time>
      </trkpt>
      <trkpt lat="62.10186" lon="5.64081">
        <ele>140.933931</ele>
        <time>2020-07-30T08:38:35.044Z</time>
      </trkpt>
      <trkpt lat="62.10187" lon="5.64106">
        <ele>140.832833</ele>
        <time>2020-07-30T08:38:38.035Z</time>
      </trkpt>
      <trkpt lat="62.10188" lon="5.6413">
        <ele>140.734007</ele>
        <time>2020-07-30T08:38:41.026Z</time>
      </trkpt>
      <trkpt lat="62.10188" lon="5.64157">
        <ele>140.570163</ele>
        <time>2020-07-30T08:38:44.073Z</time>
      </trkpt>
      <trkpt lat="62.10189" lon="5.64181">
        <ele>140.406489</ele>
        <time>2020-07-30T08:38:47.029Z</time>
      </trkpt>
      <trkpt lat="62.10189" lon="5.64206">
        <ele>140.228078</ele>
        <time>2020-07-30T08:38:50.100Z</time>
      </trkpt>
      <trkpt lat="62.1019" lon="5.64232">
        <ele>140.049753</ele>
        <time>2020-07-30T08:38:53.074Z</time>
      </trkpt>
      <trkpt lat="62.10191" lon="5.64259">
        <ele>139.861563</ele>
        <time>2020-07-30T08:38:56.049Z</time>
      </trkpt>
      <trkpt lat="62.10193" lon="5.64286">
        <ele>139.675749</ele>
        <time>2020-07-30T08:38:59.040Z</time>
      </trkpt>
      <trkpt lat="62.10195" lon="5.64313">
        <ele>139.486314</ele>
        <time>2020-07-30T08:39:02.038Z</time>
      </trkpt>
      <trkpt lat="62.10197" lon="5.64341">
        <ele>139.295044</ele>
        <time>2020-07-30T08:39:05.051Z</time>
      </trkpt>
      <trkpt lat="62.10199" lon="5.64368">
        <ele>139.103113</ele>
        <time>2020-07-30T08:39:08.031Z</time>
      </trkpt>
      <trkpt lat="62.10201" lon="5.64387">
        <ele>138.969638</ele>
        <time>2020-07-30T08:39:10.044Z</time>
      </trkpt>
      <trkpt lat="62.10203" lon="5.64406">
        <ele>138.837744</ele>
        <time>2020-07-30T08:39:12.059Z</time>
      </trkpt>
      <trkpt lat="62.10204" lon="5.64425">
        <ele>138.703821</ele>
        <time>2020-07-30T08:39:14.081Z</time>
      </trkpt>
      <trkpt lat="62.10206" lon="5.64444">
        <ele>138.56833</ele>
        <time>2020-07-30T08:39:16.049Z</time>
      </trkpt>
      <trkpt lat="62.10209" lon="5.64464">
        <ele>138.428822</ele>
        <time>2020-07-30T08:39:18.039Z</time>
      </trkpt>
      <trkpt lat="62.10211" lon="5.64484">
        <ele>138.289633</ele>
        <time>2020-07-30T08:39:20.061Z</time>
      </trkpt>
      <trkpt lat="62.10214" lon="5.64503">
        <ele>138.148641</ele>
        <time>2020-07-30T08:39:22.047Z</time>
      </trkpt>
      <trkpt lat="62.10216" lon="5.64523">
        <ele>137.960524</ele>
        <time>2020-07-30T08:39:24.076Z</time>
      </trkpt>
      <trkpt lat="62.10219" lon="5.64543">
        <ele>137.697319</ele>
        <time>2020-07-30T08:39:26.028Z</time>
      </trkpt>
      <trkpt lat="62.10222" lon="5.64564">
        <ele>137.426599</ele>
        <time>2020-07-30T08:39:28.027Z</time>
      </trkpt>
      <trkpt lat="62.10225" lon="5.64584">
        <ele>137.157871</ele>
        <time>2020-07-30T08:39:30.048Z</time>
      </trkpt>
      <trkpt lat="62.10228" lon="5.64605">
        <ele>136.882358</ele>
        <time>2020-07-30T08:39:32.050Z</time>
      </trkpt>
      <trkpt lat="62.10232" lon="5.64626">
        <ele>136.609861</ele>
        <time>2020-07-30T08:39:34.039Z</time>
      </trkpt>
      <trkpt lat="62.10235" lon="5.64646">
        <ele>136.339725</ele>
        <time>2020-07-30T08:39:36.038Z</time>
      </trkpt>
      <trkpt lat="62.10239" lon="5.64666">
        <ele>136.0716</ele>
        <time>2020-07-30T08:39:38.055Z</time>
      </trkpt>
      <trkpt lat="62.10242" lon="5.64688">
        <ele>135.786545</ele>
        <time>2020-07-30T08:39:40.044Z</time>
      </trkpt>
      <trkpt lat="62.10246" lon="5.6471">
        <ele>135.491795</ele>
        <time>2020-07-30T08:39:42.037Z</time>
      </trkpt>
      <trkpt lat="62.1025" lon="5.6473">
        <ele>135.216985</ele>
        <time>2020-07-30T08:39:44.053Z</time>
      </trkpt>
      <trkpt lat="62.10254" lon="5.64751">
        <ele>134.937407</ele>
        <time>2020-07-30T08:39:46.040Z</time>
      </trkpt>
      <trkpt lat="62.10258" lon="5.64772">
        <ele>134.651019</ele>
        <time>2020-07-30T08:39:48.047Z</time>
      </trkpt>
      <trkpt lat="62.10262" lon="5.64793">
        <ele>134.362679</ele>
        <time>2020-07-30T08:39:50.035Z</time>
      </trkpt>
      <trkpt lat="62.10266" lon="5.64814">
        <ele>134.071936</ele>
        <time>2020-07-30T08:39:52.051Z</time>
      </trkpt>
      <trkpt lat="62.10271" lon="5.64835">
        <ele>133.781416</ele>
        <time>2020-07-30T08:39:54.030Z</time>
      </trkpt>
      <trkpt lat="62.10276" lon="5.64856">
        <ele>133.482761</ele>
        <time>2020-07-30T08:39:56.030Z</time>
      </trkpt>
      <trkpt lat="62.10282" lon="5.64877">
        <ele>133.219214</ele>
        <time>2020-07-30T08:39:58.052Z</time>
      </trkpt>
      <trkpt lat="62.10287" lon="5.64898">
        <ele>133.095051</ele>
        <time>2020-07-30T08:40:00.037Z</time>
      </trkpt>
      <trkpt lat="62.10293" lon="5.6492">
        <ele>132.969917</ele>
        <time>2020-07-30T08:40:02.045Z</time>
      </trkpt>
      <trkpt lat="62.103" lon="5.64941">
        <ele>132.841269</ele>
        <time>2020-07-30T08:40:04.024Z</time>
      </trkpt>
      <trkpt lat="62.10306" lon="5.64962">
        <ele>132.711171</ele>
        <time>2020-07-30T08:40:06.069Z</time>
      </trkpt>
      <trkpt lat="62.10313" lon="5.64984">
        <ele>132.576907</ele>
        <time>2020-07-30T08:40:08.052Z</time>
      </trkpt>
      <trkpt lat="62.1032" lon="5.65007">
        <ele>132.439676</ele>
        <time>2020-07-30T08:40:10.043Z</time>
      </trkpt>
      <trkpt lat="62.10326" lon="5.65029">
        <ele>132.309302</ele>
        <time>2020-07-30T08:40:12.038Z</time>
      </trkpt>
      <trkpt lat="62.10332" lon="5.65051">
        <ele>132.181863</ele>
        <time>2020-07-30T08:40:14.039Z</time>
      </trkpt>
      <trkpt lat="62.10337" lon="5.65073">
        <ele>132.055019</ele>
        <time>2020-07-30T08:40:16.033Z</time>
      </trkpt>
      <trkpt lat="62.10343" lon="5.65094">
        <ele>131.93112</ele>
        <time>2020-07-30T08:40:18.026Z</time>
      </trkpt>
      <trkpt lat="62.10349" lon="5.65114">
        <ele>131.810597</ele>
        <time>2020-07-30T08:40:20.032Z</time>
      </trkpt>
      <trkpt lat="62.10354" lon="5.65134">
        <ele>131.693064</ele>
        <time>2020-07-30T08:40:22.101Z</time>
      </trkpt>
      <trkpt lat="62.1036" lon="5.65154">
        <ele>131.576081</ele>
        <time>2020-07-30T08:40:24.041Z</time>
      </trkpt>
      <trkpt lat="62.10365" lon="5.65174">
        <ele>131.458216</ele>
        <time>2020-07-30T08:40:26.054Z</time>
      </trkpt>
      <trkpt lat="62.10371" lon="5.65194">
        <ele>131.340563</ele>
        <time>2020-07-30T08:40:28.047Z</time>
      </trkpt>
      <trkpt lat="62.10377" lon="5.65213">
        <ele>131.140084</ele>
        <time>2020-07-30T08:40:30.035Z</time>
      </trkpt>
      <trkpt lat="62.10382" lon="5.65234">
        <ele>130.883797</ele>
        <time>2020-07-30T08:40:32.038Z</time>
      </trkpt>
      <trkpt lat="62.10388" lon="5.65254">
        <ele>130.614331</ele>
        <time>2020-07-30T08:40:34.049Z</time>
      </trkpt>
      <trkpt lat="62.10394" lon="5.65276">
        <ele>130.339458</ele>
        <time>2020-07-30T08:40:36.031Z</time>
      </trkpt>
      <trkpt lat="62.10399" lon="5.65297">
        <ele>130.069266</ele>
        <time>2020-07-30T08:40:38.041Z</time>
      </trkpt>
      <trkpt lat="62.10405" lon="5.65319">
        <ele>129.80132</ele>
        <time>2020-07-30T08:40:40.037Z</time>
      </trkpt>
      <trkpt lat="62.10411" lon="5.6534">
        <ele>129.523071</ele>
        <time>2020-07-30T08:40:42.069Z</time>
      </trkpt>
      <trkpt lat="62.10417" lon="5.65362">
        <ele>129.239812</ele>
        <time>2020-07-30T08:40:44.034Z</time>
      </trkpt>
      <trkpt lat="62.10423" lon="5.65384">
        <ele>128.956552</ele>
        <time>2020-07-30T08:40:46.049Z</time>
      </trkpt>
      <trkpt lat="62.1043" lon="5.65406">
        <ele>128.671119</ele>
        <time>2020-07-30T08:40:48.032Z</time>
      </trkpt>
      <trkpt lat="62.10436" lon="5.65428">
        <ele>128.379118</ele>
        <time>2020-07-30T08:40:50.026Z</time>
      </trkpt>
      <trkpt lat="62.10443" lon="5.65451">
        <ele>128.086784</ele>
        <time>2020-07-30T08:40:52.034Z</time>
      </trkpt>
      <trkpt lat="62.10449" lon="5.65474">
        <ele>127.789438</ele>
        <time>2020-07-30T08:40:54.044Z</time>
      </trkpt>
      <trkpt lat="62.10456" lon="5.65497">
        <ele>127.492748</ele>
        <time>2020-07-30T08:40:56.051Z</time>
      </trkpt>
      <trkpt lat="62.10462" lon="5.6552">
        <ele>127.196128</ele>
        <time>2020-07-30T08:40:58.030Z</time>
      </trkpt>
      <trkpt lat="62.10468" lon="5.65543">
        <ele>126.917717</ele>
        <time>2020-07-30T08:41:00.051Z</time>
      </trkpt>
      <trkpt lat="62.10474" lon="5.65567">
        <ele>126.665915</ele>
        <time>2020-07-30T08:41:02.034Z</time>
      </trkpt>
      <trkpt lat="62.10481" lon="5.6559">
        <ele>126.416005</ele>
        <time>2020-07-30T08:41:04.025Z</time>
      </trkpt>
      <trkpt lat="62.10487" lon="5.65614">
        <ele>126.160467</ele>
        <time>2020-07-30T08:41:06.062Z</time>
      </trkpt>
      <trkpt lat="62.10494" lon="5.65638">
        <ele>125.902122</ele>
        <time>2020-07-30T08:41:08.034Z</time>
      </trkpt>
      <trkpt lat="62.105" lon="5.65662">
        <ele>125.64036</ele>
        <time>2020-07-30T08:41:10.036Z</time>
      </trkpt>
      <trkpt lat="62.10507" lon="5.65686">
        <ele>125.375756</ele>
        <time>2020-07-30T08:41:12.040Z</time>
      </trkpt>
      <trkpt lat="62.10514" lon="5.6571">
        <ele>125.115366</ele>
        <time>2020-07-30T08:41:14.027Z</time>
      </trkpt>
      <trkpt lat="62.10521" lon="5.65734">
        <ele>124.857824</ele>
        <time>2020-07-30T08:41:16.064Z</time>
      </trkpt>
      <trkpt lat="62.10527" lon="5.65759">
        <ele>124.598654</ele>
        <time>2020-07-30T08:41:18.029Z</time>
      </trkpt>
      <trkpt lat="62.10533" lon="5.65783">
        <ele>124.338414</ele>
        <time>2020-07-30T08:41:20.041Z</time>
      </trkpt>
      <trkpt lat="62.1054" lon="5.65808">
        <ele>124.074838</ele>
        <time>2020-07-30T08:41:22.053Z</time>
      </trkpt>
      <trkpt lat="62.10547" lon="5.65831">
        <ele>123.816832</ele>
        <time>2020-07-30T08:41:24.043Z</time>
      </trkpt>
      <trkpt lat="62.10553" lon="5.65856">
        <ele>123.554002</ele>
        <time>2020-07-30T08:41:26.039Z</time>
      </trkpt>
      <trkpt lat="62.10559" lon="5.6588">
        <ele>123.271312</ele>
        <time>2020-07-30T08:41:28.035Z</time>
      </trkpt>
      <trkpt lat="62.10566" lon="5.65904">
        <ele>122.973938</ele>
        <time>2020-07-30T08:41:30.038Z</time>
      </trkpt>
      <trkpt lat="62.10573" lon="5.65928">
        <ele>122.675667</ele>
        <time>2020-07-30T08:41:32.032Z</time>
      </trkpt>
      <trkpt lat="62.10579" lon="5.65952">
        <ele>122.379483</ele>
        <time>2020-07-30T08:41:34.068Z</time>
      </trkpt>
      <trkpt lat="62.10586" lon="5.65976">
        <ele>122.076665</ele>
        <time>2020-07-30T08:41:36.032Z</time>
      </trkpt>
      <trkpt lat="62.10593" lon="5.66001">
        <ele>121.773723</ele>
        <time>2020-07-30T08:41:38.061Z</time>
      </trkpt>
      <trkpt lat="62.10599" lon="5.66025">
        <ele>121.474326</ele>
        <time>2020-07-30T08:41:40.042Z</time>
      </trkpt>
      <trkpt lat="62.10606" lon="5.66049">
        <ele>121.174361</ele>
        <time>2020-07-30T08:41:42.048Z</time>
      </trkpt>
      <trkpt lat="62.10612" lon="5.66074">
        <ele>120.869187</ele>
        <time>2020-07-30T08:41:44.041Z</time>
      </trkpt>
      <trkpt lat="62.10619" lon="5.66099">
        <ele>120.56275</ele>
        <time>2020-07-30T08:41:46.027Z</time>
      </trkpt>
      <trkpt lat="62.10627" lon="5.66123">
        <ele>120.255666</ele>
        <time>2020-07-30T08:41:48.048Z</time>
      </trkpt>
      <trkpt lat="62.10633" lon="5.66147">
        <ele>119.949797</ele>
        <time>2020-07-30T08:41:50.053Z</time>
      </trkpt>
      <trkpt lat="62.10641" lon="5.66172">
        <ele>119.635156</ele>
        <time>2020-07-30T08:41:52.039Z</time>
      </trkpt>
      <trkpt lat="62.10648" lon="5.66198">
        <ele>119.28381</ele>
        <time>2020-07-30T08:41:54.033Z</time>
      </trkpt>
      <trkpt lat="62.10655" lon="5.66224">
        <ele>118.705101</ele>
        <time>2020-07-30T08:41:56.064Z</time>
      </trkpt>
      <trkpt lat="62.10662" lon="5.66251">
        <ele>118.117689</ele>
        <time>2020-07-30T08:41:58.024Z</time>
      </trkpt>
      <trkpt lat="62.1067" lon="5.66277">
        <ele>117.516176</ele>
        <time>2020-07-30T08:42:00.058Z</time>
      </trkpt>
      <trkpt lat="62.10678" lon="5.66304">
        <ele>116.909897</ele>
        <time>2020-07-30T08:42:02.034Z</time>
      </trkpt>
      <trkpt lat="62.10686" lon="5.66332">
        <ele>116.288386</ele>
        <time>2020-07-30T08:42:04.017Z</time>
      </trkpt>
      <trkpt lat="62.10693" lon="5.66361">
        <ele>115.648757</ele>
        <time>2020-07-30T08:42:06.038Z</time>
      </trkpt>
      <trkpt lat="62.10701" lon="5.6639">
        <ele>115.002081</ele>
        <time>2020-07-30T08:42:08.055Z</time>
      </trkpt>
      <trkpt lat="62.1071" lon="5.66418">
        <ele>114.354959</ele>
        <time>2020-07-30T08:42:10.078Z</time>
      </trkpt>
      <trkpt lat="62.10717" lon="5.66448">
        <ele>113.700726</ele>
        <time>2020-07-30T08:42:12.032Z</time>
      </trkpt>
      <trkpt lat="62.10725" lon="5.66478">
        <ele>113.045132</ele>
        <time>2020-07-30T08:42:14.040Z</time>
      </trkpt>
      <trkpt lat="62.10733" lon="5.66509">
        <ele>112.366771</ele>
        <time>2020-07-30T08:42:16.039Z</time>
      </trkpt>
      <trkpt lat="62.10742" lon="5.6654">
        <ele>111.730904</ele>
        <time>2020-07-30T08:42:18.051Z</time>
      </trkpt>
      <trkpt lat="62.1075" lon="5.66572">
        <ele>111.162911</ele>
        <time>2020-07-30T08:42:20.040Z</time>
      </trkpt>
      <trkpt lat="62.1076" lon="5.66603">
        <ele>110.593749</ele>
        <time>2020-07-30T08:42:22.036Z</time>
      </trkpt>
      <trkpt lat="62.1077" lon="5.66634">
        <ele>110.017317</ele>
        <time>2020-07-30T08:42:24.053Z</time>
      </trkpt>
      <trkpt lat="62.10775" lon="5.66649">
        <ele>109.722159</ele>
        <time>2020-07-30T08:42:25.048Z</time>
      </trkpt>
      <trkpt lat="62.1078" lon="5.66665">
        <ele>109.425078</ele>
        <time>2020-07-30T08:42:26.045Z</time>
      </trkpt>
      <trkpt lat="62.10786" lon="5.6668">
        <ele>109.126951</ele>
        <time>2020-07-30T08:42:27.075Z</time>
      </trkpt>
      <trkpt lat="62.10791" lon="5.66695">
        <ele>108.828272</ele>
        <time>2020-07-30T08:42:28.086Z</time>
      </trkpt>
      <trkpt lat="62.10797" lon="5.6671">
        <ele>108.527666</ele>
        <time>2020-07-30T08:42:29.069Z</time>
      </trkpt>
      <trkpt lat="62.10804" lon="5.66724">
        <ele>108.226107</ele>
        <time>2020-07-30T08:42:30.044Z</time>
      </trkpt>
      <trkpt lat="62.1081" lon="5.66739">
        <ele>107.92118</ele>
        <time>2020-07-30T08:42:31.053Z</time>
      </trkpt>
      <trkpt lat="62.10817" lon="5.66753">
        <ele>107.600308</ele>
        <time>2020-07-30T08:42:32.074Z</time>
      </trkpt>
      <trkpt lat="62.10824" lon="5.66768">
        <ele>107.277935</ele>
        <time>2020-07-30T08:42:33.025Z</time>
      </trkpt>
      <trkpt lat="62.10831" lon="5.66782">
        <ele>106.953461</ele>
        <time>2020-07-30T08:42:34.041Z</time>
      </trkpt>
      <trkpt lat="62.10839" lon="5.66796">
        <ele>106.621997</ele>
        <time>2020-07-30T08:42:35.056Z</time>
      </trkpt>
      <trkpt lat="62.10847" lon="5.6681">
        <ele>106.281453</ele>
        <time>2020-07-30T08:42:36.052Z</time>
      </trkpt>
      <trkpt lat="62.10855" lon="5.66823">
        <ele>105.85284</ele>
        <time>2020-07-30T08:42:37.059Z</time>
      </trkpt>
      <trkpt lat="62.10863" lon="5.66836">
        <ele>105.153122</ele>
        <time>2020-07-30T08:42:38.031Z</time>
      </trkpt>
      <trkpt lat="62.10872" lon="5.66848">
        <ele>104.442092</ele>
        <time>2020-07-30T08:42:39.061Z</time>
      </trkpt>
      <trkpt lat="62.10881" lon="5.66861">
        <ele>103.719227</ele>
        <time>2020-07-30T08:42:40.041Z</time>
      </trkpt>
      <trkpt lat="62.1089" lon="5.66872">
        <ele>102.997288</ele>
        <time>2020-07-30T08:42:41.042Z</time>
      </trkpt>
      <trkpt lat="62.109" lon="5.66884">
        <ele>102.250846</ele>
        <time>2020-07-30T08:42:42.064Z</time>
      </trkpt>
      <trkpt lat="62.1091" lon="5.66895">
        <ele>101.494063</ele>
        <time>2020-07-30T08:42:43.087Z</time>
      </trkpt>
      <trkpt lat="62.1092" lon="5.66907">
        <ele>100.720822</ele>
        <time>2020-07-30T08:42:44.035Z</time>
      </trkpt>
      <trkpt lat="62.1093" lon="5.66918">
        <ele>99.934082</ele>
        <time>2020-07-30T08:42:45.046Z</time>
      </trkpt>
      <trkpt lat="62.10941" lon="5.66929">
        <ele>99.133451</ele>
        <time>2020-07-30T08:42:46.054Z</time>
      </trkpt>
      <trkpt lat="62.10952" lon="5.6694">
        <ele>98.311395</ele>
        <time>2020-07-30T08:42:47.078Z</time>
      </trkpt>
      <trkpt lat="62.10963" lon="5.6695">
        <ele>97.480614</ele>
        <time>2020-07-30T08:42:48.047Z</time>
      </trkpt>
      <trkpt lat="62.10974" lon="5.6696">
        <ele>96.652261</ele>
        <time>2020-07-30T08:42:49.048Z</time>
      </trkpt>
      <trkpt lat="62.10986" lon="5.66969">
        <ele>95.807376</ele>
        <time>2020-07-30T08:42:50.076Z</time>
      </trkpt>
      <trkpt lat="62.10998" lon="5.66979">
        <ele>94.950977</ele>
        <time>2020-07-30T08:42:51.039Z</time>
      </trkpt>
      <trkpt lat="62.1101" lon="5.66988">
        <ele>94.07663</ele>
        <time>2020-07-30T08:42:52.035Z</time>
      </trkpt>
      <trkpt lat="62.11022" lon="5.66998">
        <ele>93.061724</ele>
        <time>2020-07-30T08:42:53.041Z</time>
      </trkpt>
      <trkpt lat="62.11034" lon="5.67007">
        <ele>91.977775</ele>
        <time>2020-07-30T08:42:54.051Z</time>
      </trkpt>
      <trkpt lat="62.11047" lon="5.67016">
        <ele>90.871689</ele>
        <time>2020-07-30T08:42:55.055Z</time>
      </trkpt>
      <trkpt lat="62.1106" lon="5.67024">
        <ele>89.760468</ele>
        <time>2020-07-30T08:42:56.041Z</time>
      </trkpt>
      <trkpt lat="62.11073" lon="5.67032">
        <ele>88.627682</ele>
        <time>2020-07-30T08:42:57.036Z</time>
      </trkpt>
      <trkpt lat="62.11086" lon="5.6704">
        <ele>87.501064</ele>
        <time>2020-07-30T08:42:58.041Z</time>
      </trkpt>
      <trkpt lat="62.111" lon="5.67048">
        <ele>86.349537</ele>
        <time>2020-07-30T08:42:59.041Z</time>
      </trkpt>
      <trkpt lat="62.11114" lon="5.67055">
        <ele>85.173094</ele>
        <time>2020-07-30T08:43:00.039Z</time>
      </trkpt>
      <trkpt lat="62.11128" lon="5.67063">
        <ele>83.984433</ele>
        <time>2020-07-30T08:43:01.037Z</time>
      </trkpt>
      <trkpt lat="62.11142" lon="5.67069">
        <ele>82.778513</ele>
        <time>2020-07-30T08:43:02.043Z</time>
      </trkpt>
      <trkpt lat="62.11157" lon="5.67075">
        <ele>81.552164</ele>
        <time>2020-07-30T08:43:03.043Z</time>
      </trkpt>
      <trkpt lat="62.11171" lon="5.6708">
        <ele>80.322494</ele>
        <time>2020-07-30T08:43:04.057Z</time>
      </trkpt>
      <trkpt lat="62.11186" lon="5.67085">
        <ele>79.087144</ele>
        <time>2020-07-30T08:43:05.077Z</time>
      </trkpt>
      <trkpt lat="62.11201" lon="5.67089">
        <ele>77.973207</ele>
        <time>2020-07-30T08:43:06.071Z</time>
      </trkpt>
      <trkpt lat="62.11216" lon="5.67094">
        <ele>76.861165</ele>
        <time>2020-07-30T08:43:07.046Z</time>
      </trkpt>
      <trkpt lat="62.11231" lon="5.67097">
        <ele>75.736225</ele>
        <time>2020-07-30T08:43:08.038Z</time>
      </trkpt>
      <trkpt lat="62.11246" lon="5.67101">
        <ele>74.612063</ele>
        <time>2020-07-30T08:43:09.056Z</time>
      </trkpt>
      <trkpt lat="62.11261" lon="5.67105">
        <ele>73.509816</ele>
        <time>2020-07-30T08:43:10.053Z</time>
      </trkpt>
      <trkpt lat="62.11276" lon="5.67108">
        <ele>72.429868</ele>
        <time>2020-07-30T08:43:11.040Z</time>
      </trkpt>
      <trkpt lat="62.1129" lon="5.67111">
        <ele>71.379901</ele>
        <time>2020-07-30T08:43:12.023Z</time>
      </trkpt>
      <trkpt lat="62.11304" lon="5.67114">
        <ele>70.367568</ele>
        <time>2020-07-30T08:43:13.035Z</time>
      </trkpt>
      <trkpt lat="62.11317" lon="5.67117">
        <ele>69.399808</ele>
        <time>2020-07-30T08:43:14.041Z</time>
      </trkpt>
      <trkpt lat="62.1133" lon="5.6712">
        <ele>68.460942</ele>
        <time>2020-07-30T08:43:15.043Z</time>
      </trkpt>
      <trkpt lat="62.11342" lon="5.67123">
        <ele>67.552036</ele>
        <time>2020-07-30T08:43:16.040Z</time>
      </trkpt>
      <trkpt lat="62.11354" lon="5.67126">
        <ele>66.650082</ele>
        <time>2020-07-30T08:43:17.033Z</time>
      </trkpt>
      <trkpt lat="62.11366" lon="5.67128">
        <ele>65.771969</ele>
        <time>2020-07-30T08:43:18.038Z</time>
      </trkpt>
      <trkpt lat="62.11378" lon="5.67132">
        <ele>65.154213</ele>
        <time>2020-07-30T08:43:19.069Z</time>
      </trkpt>
      <trkpt lat="62.1139" lon="5.67137">
        <ele>64.542529</ele>
        <time>2020-07-30T08:43:20.031Z</time>
      </trkpt>
      <trkpt lat="62.11401" lon="5.67143">
        <ele>63.94633</ele>
        <time>2020-07-30T08:43:21.078Z</time>
      </trkpt>
      <trkpt lat="62.11412" lon="5.67149">
        <ele>63.362698</ele>
        <time>2020-07-30T08:43:22.061Z</time>
      </trkpt>
      <trkpt lat="62.11423" lon="5.67155">
        <ele>62.77171</ele>
        <time>2020-07-30T08:43:23.047Z</time>
      </trkpt>
      <trkpt lat="62.11435" lon="5.67162">
        <ele>62.180092</ele>
        <time>2020-07-30T08:43:24.033Z</time>
      </trkpt>
      <trkpt lat="62.11446" lon="5.67169">
        <ele>61.583565</ele>
        <time>2020-07-30T08:43:25.053Z</time>
      </trkpt>
      <trkpt lat="62.11457" lon="5.67175">
        <ele>60.975954</ele>
        <time>2020-07-30T08:43:26.060Z</time>
      </trkpt>
      <trkpt lat="62.11469" lon="5.67182">
        <ele>60.357892</ele>
        <time>2020-07-30T08:43:27.032Z</time>
      </trkpt>
      <trkpt lat="62.11481" lon="5.67189">
        <ele>59.743475</ele>
        <time>2020-07-30T08:43:28.056Z</time>
      </trkpt>
      <trkpt lat="62.11493" lon="5.67194">
        <ele>59.135878</ele>
        <time>2020-07-30T08:43:29.058Z</time>
      </trkpt>
      <trkpt lat="62.11504" lon="5.67198">
        <ele>58.542552</ele>
        <time>2020-07-30T08:43:30.028Z</time>
      </trkpt>
      <trkpt lat="62.11515" lon="5.67202">
        <ele>57.962654</ele>
        <time>2020-07-30T08:43:31.022Z</time>
      </trkpt>
      <trkpt lat="62.11526" lon="5.67206">
        <ele>57.387763</ele>
        <time>2020-07-30T08:43:32.053Z</time>
      </trkpt>
      <trkpt lat="62.11537" lon="5.67211">
        <ele>56.828328</ele>
        <time>2020-07-30T08:43:33.053Z</time>
      </trkpt>
      <trkpt lat="62.11548" lon="5.67214">
        <ele>56.502277</ele>
        <time>2020-07-30T08:43:34.057Z</time>
      </trkpt>
      <trkpt lat="62.11558" lon="5.67218">
        <ele>56.320589</ele>
        <time>2020-07-30T08:43:35.055Z</time>
      </trkpt>
      <trkpt lat="62.11568" lon="5.67221">
        <ele>56.144555</ele>
        <time>2020-07-30T08:43:36.042Z</time>
      </trkpt>
      <trkpt lat="62.11577" lon="5.67224">
        <ele>55.983621</ele>
        <time>2020-07-30T08:43:37.033Z</time>
      </trkpt>
      <trkpt lat="62.11593" lon="5.67226">
        <ele>55.682972</ele>
        <time>2020-07-30T08:43:39.045Z</time>
      </trkpt>
      <trkpt lat="62.11609" lon="5.67228">
        <ele>55.403794</ele>
        <time>2020-07-30T08:43:41.012Z</time>
      </trkpt>
      <trkpt lat="62.11624" lon="5.67231">
        <ele>55.131697</ele>
        <time>2020-07-30T08:43:43.031Z</time>
      </trkpt>
      <trkpt lat="62.1164" lon="5.67233">
        <ele>54.852217</ele>
        <time>2020-07-30T08:43:45.052Z</time>
      </trkpt>
      <trkpt lat="62.11656" lon="5.67236">
        <ele>54.565595</ele>
        <time>2020-07-30T08:43:47.059Z</time>
      </trkpt>
      <trkpt lat="62.11673" lon="5.67239">
        <ele>54.270063</ele>
        <time>2020-07-30T08:43:49.036Z</time>
      </trkpt>
      <trkpt lat="62.11689" lon="5.67242">
        <ele>53.976366</ele>
        <time>2020-07-30T08:43:51.052Z</time>
      </trkpt>
      <trkpt lat="62.11705" lon="5.67244">
        <ele>53.69005</ele>
        <time>2020-07-30T08:43:53.058Z</time>
      </trkpt>
      <trkpt lat="62.11721" lon="5.67248">
        <ele>53.420595</ele>
        <time>2020-07-30T08:43:55.017Z</time>
      </trkpt>
      <trkpt lat="62.11737" lon="5.6725">
        <ele>53.331371</ele>
        <time>2020-07-30T08:43:57.034Z</time>
      </trkpt>
      <trkpt lat="62.11753" lon="5.67253">
        <ele>53.242655</ele>
        <time>2020-07-30T08:43:59.032Z</time>
      </trkpt>
      <trkpt lat="62.11769" lon="5.67255">
        <ele>53.154657</ele>
        <time>2020-07-30T08:44:01.036Z</time>
      </trkpt>
      <trkpt lat="62.11784" lon="5.67258">
        <ele>53.072633</ele>
        <time>2020-07-30T08:44:03.055Z</time>
      </trkpt>
      <trkpt lat="62.11798" lon="5.67261">
        <ele>52.997671</ele>
        <time>2020-07-30T08:44:05.038Z</time>
      </trkpt>
      <trkpt lat="62.1181" lon="5.67264">
        <ele>52.92973</ele>
        <time>2020-07-30T08:44:07.043Z</time>
      </trkpt>
      <trkpt lat="62.11821" lon="5.67266">
        <ele>52.868091</ele>
        <time>2020-07-30T08:44:09.032Z</time>
      </trkpt>
      <trkpt lat="62.11832" lon="5.67269">
        <ele>52.805902</ele>
        <time>2020-07-30T08:44:11.059Z</time>
      </trkpt>
      <trkpt lat="62.11842" lon="5.67269">
        <ele>52.748992</ele>
        <time>2020-07-30T08:44:13.037Z</time>
      </trkpt>
      <trkpt lat="62.11853" lon="5.67269">
        <ele>52.69208</ele>
        <time>2020-07-30T08:44:15.030Z</time>
      </trkpt>
      <trkpt lat="62.11863" lon="5.67269">
        <ele>52.634621</ele>
        <time>2020-07-30T08:44:17.053Z</time>
      </trkpt>
      <trkpt lat="62.11873" lon="5.67271">
        <ele>52.582027</ele>
        <time>2020-07-30T08:44:19.067Z</time>
      </trkpt>
      <trkpt lat="62.11882" lon="5.67271">
        <ele>52.527882</ele>
        <time>2020-07-30T08:44:21.055Z</time>
      </trkpt>
      <trkpt lat="62.11892" lon="5.67271">
        <ele>52.472075</ele>
        <time>2020-07-30T08:44:23.035Z</time>
      </trkpt>
      <trkpt lat="62.11903" lon="5.67272">
        <ele>52.410773</ele>
        <time>2020-07-30T08:44:25.037Z</time>
      </trkpt>
      <trkpt lat="62.11915" lon="5.67274">
        <ele>52.340828</ele>
        <time>2020-07-30T08:44:27.080Z</time>
      </trkpt>
      <trkpt lat="62.11927" lon="5.67275">
        <ele>52.263597</ele>
        <time>2020-07-30T08:44:29.033Z</time>
      </trkpt>
      <trkpt lat="62.11942" lon="5.67277">
        <ele>52.174673</ele>
        <time>2020-07-30T08:44:31.060Z</time>
      </trkpt>
      <trkpt lat="62.11957" lon="5.67279">
        <ele>52.082011</ele>
        <time>2020-07-30T08:44:33.024Z</time>
      </trkpt>
      <trkpt lat="62.11971" lon="5.67281">
        <ele>51.993715</ele>
        <time>2020-07-30T08:44:35.034Z</time>
      </trkpt>
      <trkpt lat="62.11985" lon="5.6728">
        <ele>51.909821</ele>
        <time>2020-07-30T08:44:37.060Z</time>
      </trkpt>
      <trkpt lat="62.11998" lon="5.67278">
        <ele>51.828859</ele>
        <time>2020-07-30T08:44:39.077Z</time>
      </trkpt>
      <trkpt lat="62.12011" lon="5.67277">
        <ele>51.750323</ele>
        <time>2020-07-30T08:44:41.029Z</time>
      </trkpt>
      <trkpt lat="62.12024" lon="5.67273">
        <ele>51.671355</ele>
        <time>2020-07-30T08:44:43.070Z</time>
      </trkpt>
      <trkpt lat="62.12035" lon="5.67273">
        <ele>51.60217</ele>
        <time>2020-07-30T08:44:45.064Z</time>
      </trkpt>
      <trkpt lat="62.12046" lon="5.67274">
        <ele>51.535433</ele>
        <time>2020-07-30T08:44:47.038Z</time>
      </trkpt>
      <trkpt lat="62.12057" lon="5.67273">
        <ele>51.465638</ele>
        <time>2020-07-30T08:44:49.058Z</time>
      </trkpt>
      <trkpt lat="62.12067" lon="5.67273">
        <ele>51.403166</ele>
        <time>2020-07-30T08:44:51.023Z</time>
      </trkpt>
      <trkpt lat="62.12077" lon="5.67272">
        <ele>51.34438</ele>
        <time>2020-07-30T08:44:53.040Z</time>
      </trkpt>
      <trkpt lat="62.12086" lon="5.67273">
        <ele>51.382276</ele>
        <time>2020-07-30T08:44:55.047Z</time>
      </trkpt>
      <trkpt lat="62.12099" lon="5.67276">
        <ele>51.479205</ele>
        <time>2020-07-30T08:44:58.041Z</time>
      </trkpt>
      <trkpt lat="62.12111" lon="5.67277">
        <ele>51.571341</ele>
        <time>2020-07-30T08:45:01.054Z</time>
      </trkpt>
      <trkpt lat="62.12123" lon="5.67278">
        <ele>51.656138</ele>
        <time>2020-07-30T08:45:04.042Z</time>
      </trkpt>
      <trkpt lat="62.12134" lon="5.6728">
        <ele>51.741849</ele>
        <time>2020-07-30T08:45:07.065Z</time>
      </trkpt>
      <trkpt lat="62.12146" lon="5.67282">
        <ele>51.82608</ele>
        <time>2020-07-30T08:45:10.028Z</time>
      </trkpt>
      <trkpt lat="62.12157" lon="5.67283">
        <ele>51.913764</ele>
        <time>2020-07-30T08:45:13.050Z</time>
      </trkpt>
      <trkpt lat="62.12169" lon="5.67284">
        <ele>51.999941</ele>
        <time>2020-07-30T08:45:16.044Z</time>
      </trkpt>
      <trkpt lat="62.12181" lon="5.67285">
        <ele>52.087613</ele>
        <time>2020-07-30T08:45:19.059Z</time>
      </trkpt>
      <trkpt lat="62.12193" lon="5.67286">
        <ele>52.177523</ele>
        <time>2020-07-30T08:45:22.057Z</time>
      </trkpt>
      <trkpt lat="62.12205" lon="5.67287">
        <ele>52.267446</ele>
        <time>2020-07-30T08:45:25.034Z</time>
      </trkpt>
      <trkpt lat="62.12217" lon="5.67289">
        <ele>52.359971</ele>
        <time>2020-07-30T08:45:28.046Z</time>
      </trkpt>
      <trkpt lat="62.12229" lon="5.67291">
        <ele>52.447798</ele>
        <time>2020-07-30T08:45:31.031Z</time>
      </trkpt>
      <trkpt lat="62.12241" lon="5.67291">
        <ele>52.531713</ele>
        <time>2020-07-30T08:45:34.081Z</time>
      </trkpt>
      <trkpt lat="62.12253" lon="5.6729">
        <ele>52.625298</ele>
        <time>2020-07-30T08:45:37.033Z</time>
      </trkpt>
      <trkpt lat="62.12266" lon="5.67289">
        <ele>52.66176</ele>
        <time>2020-07-30T08:45:40.069Z</time>
      </trkpt>
      <trkpt lat="62.12278" lon="5.67287">
        <ele>52.652598</ele>
        <time>2020-07-30T08:45:43.033Z</time>
      </trkpt>
      <trkpt lat="62.12291" lon="5.67287">
        <ele>52.643599</ele>
        <time>2020-07-30T08:45:46.040Z</time>
      </trkpt>
      <trkpt lat="62.12304" lon="5.67284">
        <ele>52.633698</ele>
        <time>2020-07-30T08:45:49.060Z</time>
      </trkpt>
      <trkpt lat="62.12317" lon="5.67283">
        <ele>52.624094</ele>
        <time>2020-07-30T08:45:52.044Z</time>
      </trkpt>
      <trkpt lat="62.1233" lon="5.67282">
        <ele>52.614727</ele>
        <time>2020-07-30T08:45:55.053Z</time>
      </trkpt>
      <trkpt lat="62.12344" lon="5.6728">
        <ele>52.60484</ele>
        <time>2020-07-30T08:45:58.045Z</time>
      </trkpt>
      <trkpt lat="62.12353" lon="5.67279">
        <ele>52.598169</ele>
        <time>2020-07-30T08:46:00.044Z</time>
      </trkpt>
      <trkpt lat="62.12362" lon="5.67277">
        <ele>52.591126</ele>
        <time>2020-07-30T08:46:02.082Z</time>
      </trkpt>
      <trkpt lat="62.12372" lon="5.67276">
        <ele>52.583873</ele>
        <time>2020-07-30T08:46:04.053Z</time>
      </trkpt>
      <trkpt lat="62.12382" lon="5.67275">
        <ele>52.576696</ele>
        <time>2020-07-30T08:46:06.049Z</time>
      </trkpt>
      <trkpt lat="62.12392" lon="5.67274">
        <ele>52.569585</ele>
        <time>2020-07-30T08:46:08.055Z</time>
      </trkpt>
      <trkpt lat="62.12402" lon="5.67273">
        <ele>52.562333</ele>
        <time>2020-07-30T08:46:10.044Z</time>
      </trkpt>
      <trkpt lat="62.12411" lon="5.67273">
        <ele>52.555165</ele>
        <time>2020-07-30T08:46:12.028Z</time>
      </trkpt>
      <trkpt lat="62.12421" lon="5.67272">
        <ele>52.547846</ele>
        <time>2020-07-30T08:46:14.042Z</time>
      </trkpt>
      <trkpt lat="62.12432" lon="5.67271">
        <ele>52.54038</ele>
        <time>2020-07-30T08:46:16.030Z</time>
      </trkpt>
      <trkpt lat="62.12441" lon="5.6727">
        <ele>52.532389</ele>
        <time>2020-07-30T08:46:18.055Z</time>
      </trkpt>
      <trkpt lat="62.12451" lon="5.6727">
        <ele>52.522746</ele>
        <time>2020-07-30T08:46:20.041Z</time>
      </trkpt>
      <trkpt lat="62.1246" lon="5.67269">
        <ele>52.513298</ele>
        <time>2020-07-30T08:46:22.040Z</time>
      </trkpt>
      <trkpt lat="62.1247" lon="5.67268">
        <ele>52.503657</ele>
        <time>2020-07-30T08:46:24.053Z</time>
      </trkpt>
      <trkpt lat="62.1248" lon="5.67268">
        <ele>52.494017</ele>
        <time>2020-07-30T08:46:26.040Z</time>
      </trkpt>
      <trkpt lat="62.12489" lon="5.67268">
        <ele>52.484377</ele>
        <time>2020-07-30T08:46:28.060Z</time>
      </trkpt>
      <trkpt lat="62.12498" lon="5.67268">
        <ele>52.475134</ele>
        <time>2020-07-30T08:46:30.052Z</time>
      </trkpt>
      <trkpt lat="62.12507" lon="5.67269">
        <ele>52.465985</ele>
        <time>2020-07-30T08:46:32.037Z</time>
      </trkpt>
      <trkpt lat="62.12517" lon="5.67269">
        <ele>52.456746</ele>
        <time>2020-07-30T08:46:34.046Z</time>
      </trkpt>
      <trkpt lat="62.12526" lon="5.67269">
        <ele>52.447408</ele>
        <time>2020-07-30T08:46:36.078Z</time>
      </trkpt>
      <trkpt lat="62.12535" lon="5.6727">
        <ele>52.437856</ele>
        <time>2020-07-30T08:46:38.032Z</time>
      </trkpt>
      <trkpt lat="62.12545" lon="5.67271">
        <ele>52.427808</ele>
        <time>2020-07-30T08:46:40.040Z</time>
      </trkpt>
      <trkpt lat="62.12555" lon="5.67272">
        <ele>52.417864</ele>
        <time>2020-07-30T08:46:42.027Z</time>
      </trkpt>
      <trkpt lat="62.12566" lon="5.67273">
        <ele>52.407504</ele>
        <time>2020-07-30T08:46:44.029Z</time>
      </trkpt>
      <trkpt lat="62.12576" lon="5.67274">
        <ele>52.397448</ele>
        <time>2020-07-30T08:46:46.041Z</time>
      </trkpt>
      <trkpt lat="62.12585" lon="5.67276">
        <ele>52.387564</ele>
        <time>2020-07-30T08:46:48.069Z</time>
      </trkpt>
      <trkpt lat="62.12595" lon="5.67278">
        <ele>52.377902</ele>
        <time>2020-07-30T08:46:50.055Z</time>
      </trkpt>
      <trkpt lat="62.12604" lon="5.67279">
        <ele>52.368426</ele>
        <time>2020-07-30T08:46:52.037Z</time>
      </trkpt>
      <trkpt lat="62.12614" lon="5.6728">
        <ele>52.358974</ele>
        <time>2020-07-30T08:46:54.060Z</time>
      </trkpt>
      <trkpt lat="62.12623" lon="5.67282">
        <ele>52.39312</ele>
        <time>2020-07-30T08:46:56.020Z</time>
      </trkpt>
      <trkpt lat="62.12632" lon="5.67283">
        <ele>52.45872</ele>
        <time>2020-07-30T08:46:58.046Z</time>
      </trkpt>
      <trkpt lat="62.12641" lon="5.67284">
        <ele>52.525669</ele>
        <time>2020-07-30T08:47:00.058Z</time>
      </trkpt>
      <trkpt lat="62.12651" lon="5.67285">
        <ele>52.594218</ele>
        <time>2020-07-30T08:47:02.064Z</time>
      </trkpt>
      <trkpt lat="62.1266" lon="5.67288">
        <ele>52.661099</ele>
        <time>2020-07-30T08:47:04.029Z</time>
      </trkpt>
      <trkpt lat="62.12669" lon="5.6729">
        <ele>52.729205</ele>
        <time>2020-07-30T08:47:06.047Z</time>
      </trkpt>
      <trkpt lat="62.12679" lon="5.67292">
        <ele>52.798756</ele>
        <time>2020-07-30T08:47:08.060Z</time>
      </trkpt>
      <trkpt lat="62.12688" lon="5.67295">
        <ele>52.866902</ele>
        <time>2020-07-30T08:47:10.047Z</time>
      </trkpt>
      <trkpt lat="62.12697" lon="5.67297">
        <ele>52.93369</ele>
        <time>2020-07-30T08:47:12.051Z</time>
      </trkpt>
      <trkpt lat="62.1271" lon="5.67302">
        <ele>53.029003</ele>
        <time>2020-07-30T08:47:15.055Z</time>
      </trkpt>
      <trkpt lat="62.12723" lon="5.67308">
        <ele>53.122983</ele>
        <time>2020-07-30T08:47:18.055Z</time>
      </trkpt>
      <trkpt lat="62.12735" lon="5.67313">
        <ele>53.216863</ele>
        <time>2020-07-30T08:47:21.044Z</time>
      </trkpt>
      <trkpt lat="62.12748" lon="5.67318">
        <ele>53.309192</ele>
        <time>2020-07-30T08:47:24.029Z</time>
      </trkpt>
      <trkpt lat="62.1276" lon="5.67323">
        <ele>53.399182</ele>
        <time>2020-07-30T08:47:27.023Z</time>
      </trkpt>
      <trkpt lat="62.12772" lon="5.67328">
        <ele>53.488586</ele>
        <time>2020-07-30T08:47:30.049Z</time>
      </trkpt>
      <trkpt lat="62.12785" lon="5.67333">
        <ele>53.582589</ele>
        <time>2020-07-30T08:47:33.045Z</time>
      </trkpt>
      <trkpt lat="62.12797" lon="5.67339">
        <ele>53.669993</ele>
        <time>2020-07-30T08:47:36.030Z</time>
      </trkpt>
      <trkpt lat="62.1281" lon="5.67344">
        <ele>53.716993</ele>
        <time>2020-07-30T08:47:39.073Z</time>
      </trkpt>
      <trkpt lat="62.12823" lon="5.6735">
        <ele>53.763233</ele>
        <time>2020-07-30T08:47:42.040Z</time>
      </trkpt>
      <trkpt lat="62.12836" lon="5.67356">
        <ele>53.810019</ele>
        <time>2020-07-30T08:47:45.031Z</time>
      </trkpt>
      <trkpt lat="62.12849" lon="5.6736">
        <ele>53.85713</ele>
        <time>2020-07-30T08:47:48.052Z</time>
      </trkpt>
      <trkpt lat="62.12862" lon="5.67365">
        <ele>53.90424</ele>
        <time>2020-07-30T08:47:51.053Z</time>
      </trkpt>
      <trkpt lat="62.12875" lon="5.6737">
        <ele>53.951146</ele>
        <time>2020-07-30T08:47:54.072Z</time>
      </trkpt>
      <trkpt lat="62.12885" lon="5.67374">
        <ele>53.984758</ele>
        <time>2020-07-30T08:47:56.045Z</time>
      </trkpt>
      <trkpt lat="62.12894" lon="5.67377">
        <ele>54.018067</ele>
        <time>2020-07-30T08:47:58.050Z</time>
      </trkpt>
      <trkpt lat="62.12903" lon="5.6738">
        <ele>54.051424</ele>
        <time>2020-07-30T08:48:00.030Z</time>
      </trkpt>
      <trkpt lat="62.12912" lon="5.67382">
        <ele>54.083943</ele>
        <time>2020-07-30T08:48:02.036Z</time>
      </trkpt>
      <trkpt lat="62.12925" lon="5.67386">
        <ele>54.130787</ele>
        <time>2020-07-30T08:48:05.086Z</time>
      </trkpt>
      <trkpt lat="62.12935" lon="5.67388">
        <ele>54.163937</ele>
        <time>2020-07-30T08:48:07.056Z</time>
      </trkpt>
      <trkpt lat="62.12948" lon="5.67392">
        <ele>54.211527</ele>
        <time>2020-07-30T08:48:10.048Z</time>
      </trkpt>
      <trkpt lat="62.12961" lon="5.67396">
        <ele>54.25881</ele>
        <time>2020-07-30T08:48:13.042Z</time>
      </trkpt>
      <trkpt lat="62.12974" lon="5.674">
        <ele>54.304065</ele>
        <time>2020-07-30T08:48:16.030Z</time>
      </trkpt>
      <trkpt lat="62.12983" lon="5.67403">
        <ele>54.323979</ele>
        <time>2020-07-30T08:48:18.077Z</time>
      </trkpt>
      <trkpt lat="62.12992" lon="5.67406">
        <ele>54.344185</ele>
        <time>2020-07-30T08:48:20.027Z</time>
      </trkpt>
      <trkpt lat="62.13002" lon="5.6741">
        <ele>54.365221</ele>
        <time>2020-07-30T08:48:22.036Z</time>
      </trkpt>
      <trkpt lat="62.13011" lon="5.67413">
        <ele>54.385243</ele>
        <time>2020-07-30T08:48:24.035Z</time>
      </trkpt>
      <trkpt lat="62.1302" lon="5.67417">
        <ele>54.405482</ele>
        <time>2020-07-30T08:48:26.038Z</time>
      </trkpt>
      <trkpt lat="62.13029" lon="5.67418">
        <ele>54.425521</ele>
        <time>2020-07-30T08:48:28.020Z</time>
      </trkpt>
      <trkpt lat="62.13042" lon="5.67422">
        <ele>54.454687</ele>
        <time>2020-07-30T08:48:31.030Z</time>
      </trkpt>
      <trkpt lat="62.13051" lon="5.67424">
        <ele>54.474818</ele>
        <time>2020-07-30T08:48:33.041Z</time>
      </trkpt>
      <trkpt lat="62.1306" lon="5.67427">
        <ele>54.49495</ele>
        <time>2020-07-30T08:48:35.032Z</time>
      </trkpt>
      <trkpt lat="62.1307" lon="5.6743">
        <ele>54.515095</ele>
        <time>2020-07-30T08:48:37.037Z</time>
      </trkpt>
      <trkpt lat="62.13078" lon="5.67434">
        <ele>54.534995</ele>
        <time>2020-07-30T08:48:39.060Z</time>
      </trkpt>
      <trkpt lat="62.13088" lon="5.67437">
        <ele>54.555251</ele>
        <time>2020-07-30T08:48:41.029Z</time>
      </trkpt>
      <trkpt lat="62.13096" lon="5.6744">
        <ele>54.574977</ele>
        <time>2020-07-30T08:48:43.024Z</time>
      </trkpt>
      <trkpt lat="62.13105" lon="5.67443">
        <ele>54.594982</ele>
        <time>2020-07-30T08:48:45.048Z</time>
      </trkpt>
      <trkpt lat="62.13115" lon="5.67446">
        <ele>54.616086</ele>
        <time>2020-07-30T08:48:47.037Z</time>
      </trkpt>
      <trkpt lat="62.13125" lon="5.6745">
        <ele>54.637423</ele>
        <time>2020-07-30T08:48:49.028Z</time>
      </trkpt>
      <trkpt lat="62.13134" lon="5.67453">
        <ele>54.659146</ele>
        <time>2020-07-30T08:48:51.031Z</time>
      </trkpt>
      <trkpt lat="62.13144" lon="5.67456">
        <ele>54.680637</ele>
        <time>2020-07-30T08:48:53.057Z</time>
      </trkpt>
      <trkpt lat="62.13154" lon="5.67458">
        <ele>54.671192</ele>
        <time>2020-07-30T08:48:55.034Z</time>
      </trkpt>
      <trkpt lat="62.13163" lon="5.67461">
        <ele>54.589082</ele>
        <time>2020-07-30T08:48:57.056Z</time>
      </trkpt>
      <trkpt lat="62.13172" lon="5.67465">
        <ele>54.506777</ele>
        <time>2020-07-30T08:48:59.033Z</time>
      </trkpt>
      <trkpt lat="62.13181" lon="5.67468">
        <ele>54.424787</ele>
        <time>2020-07-30T08:49:01.112Z</time>
      </trkpt>
      <trkpt lat="62.1319" lon="5.6747">
        <ele>54.344659</ele>
        <time>2020-07-30T08:49:03.035Z</time>
      </trkpt>
      <trkpt lat="62.13199" lon="5.67473">
        <ele>54.264161</ele>
        <time>2020-07-30T08:49:05.051Z</time>
      </trkpt>
      <trkpt lat="62.13208" lon="5.67477">
        <ele>54.180986</ele>
        <time>2020-07-30T08:49:07.070Z</time>
      </trkpt>
      <trkpt lat="62.13218" lon="5.6748">
        <ele>54.098813</ele>
        <time>2020-07-30T08:49:09.030Z</time>
      </trkpt>
      <trkpt lat="62.13227" lon="5.67482">
        <ele>54.017754</ele>
        <time>2020-07-30T08:49:11.033Z</time>
      </trkpt>
      <trkpt lat="62.13236" lon="5.67486">
        <ele>53.931899</ele>
        <time>2020-07-30T08:49:13.062Z</time>
      </trkpt>
      <trkpt lat="62.13245" lon="5.67489">
        <ele>53.850464</ele>
        <time>2020-07-30T08:49:15.041Z</time>
      </trkpt>
      <trkpt lat="62.13255" lon="5.67493">
        <ele>53.767077</ele>
        <time>2020-07-30T08:49:17.035Z</time>
      </trkpt>
      <trkpt lat="62.13264" lon="5.67496">
        <ele>53.681084</ele>
        <time>2020-07-30T08:49:19.023Z</time>
      </trkpt>
      <trkpt lat="62.13274" lon="5.675">
        <ele>53.597468</ele>
        <time>2020-07-30T08:49:21.057Z</time>
      </trkpt>
      <trkpt lat="62.13283" lon="5.67503">
        <ele>53.514768</ele>
        <time>2020-07-30T08:49:23.070Z</time>
      </trkpt>
      <trkpt lat="62.13292" lon="5.67506">
        <ele>53.430584</ele>
        <time>2020-07-30T08:49:25.058Z</time>
      </trkpt>
      <trkpt lat="62.13302" lon="5.6751">
        <ele>53.34734</ele>
        <time>2020-07-30T08:49:27.034Z</time>
      </trkpt>
      <trkpt lat="62.13311" lon="5.67513">
        <ele>53.263226</ele>
        <time>2020-07-30T08:49:29.054Z</time>
      </trkpt>
      <trkpt lat="62.1332" lon="5.67516">
        <ele>53.181348</ele>
        <time>2020-07-30T08:49:31.048Z</time>
      </trkpt>
      <trkpt lat="62.13329" lon="5.67519">
        <ele>53.117176</ele>
        <time>2020-07-30T08:49:33.067Z</time>
      </trkpt>
      <trkpt lat="62.13342" lon="5.67523">
        <ele>53.245185</ele>
        <time>2020-07-30T08:49:36.041Z</time>
      </trkpt>
      <trkpt lat="62.13355" lon="5.67528">
        <ele>53.378406</ele>
        <time>2020-07-30T08:49:39.038Z</time>
      </trkpt>
      <trkpt lat="62.13364" lon="5.67532">
        <ele>53.468562</ele>
        <time>2020-07-30T08:49:41.055Z</time>
      </trkpt>
      <trkpt lat="62.13373" lon="5.67535">
        <ele>53.558809</ele>
        <time>2020-07-30T08:49:43.032Z</time>
      </trkpt>
      <trkpt lat="62.13382" lon="5.6754">
        <ele>53.649748</ele>
        <time>2020-07-30T08:49:45.055Z</time>
      </trkpt>
      <trkpt lat="62.13395" lon="5.67546">
        <ele>53.781706</ele>
        <time>2020-07-30T08:49:48.059Z</time>
      </trkpt>
      <trkpt lat="62.13408" lon="5.67551">
        <ele>53.914927</ele>
        <time>2020-07-30T08:49:51.040Z</time>
      </trkpt>
      <trkpt lat="62.13421" lon="5.67556">
        <ele>54.046612</ele>
        <time>2020-07-30T08:49:54.058Z</time>
      </trkpt>
      <trkpt lat="62.13434" lon="5.67561">
        <ele>54.178387</ele>
        <time>2020-07-30T08:49:57.036Z</time>
      </trkpt>
      <trkpt lat="62.13447" lon="5.67566">
        <ele>54.30867</ele>
        <time>2020-07-30T08:50:00.041Z</time>
      </trkpt>
      <trkpt lat="62.13459" lon="5.67572">
        <ele>54.434503</ele>
        <time>2020-07-30T08:50:03.052Z</time>
      </trkpt>
      <trkpt lat="62.13472" lon="5.67576">
        <ele>54.560707</ele>
        <time>2020-07-30T08:50:06.055Z</time>
      </trkpt>
      <trkpt lat="62.13484" lon="5.67581">
        <ele>54.686183</ele>
        <time>2020-07-30T08:50:09.036Z</time>
      </trkpt>
      <trkpt lat="62.13496" lon="5.67587">
        <ele>54.808121</ele>
        <time>2020-07-30T08:50:12.048Z</time>
      </trkpt>
      <trkpt lat="62.13508" lon="5.67591">
        <ele>54.928288</ele>
        <time>2020-07-30T08:50:15.104Z</time>
      </trkpt>
      <trkpt lat="62.13521" lon="5.67595">
        <ele>55.040589</ele>
        <time>2020-07-30T08:50:18.052Z</time>
      </trkpt>
      <trkpt lat="62.13532" lon="5.67598">
        <ele>55.146043</ele>
        <time>2020-07-30T08:50:21.028Z</time>
      </trkpt>
      <trkpt lat="62.13544" lon="5.67603">
        <ele>55.256149</ele>
        <time>2020-07-30T08:50:24.059Z</time>
      </trkpt>
      <trkpt lat="62.13555" lon="5.67608">
        <ele>55.365045</ele>
        <time>2020-07-30T08:50:27.029Z</time>
      </trkpt>
      <trkpt lat="62.13567" lon="5.67613">
        <ele>55.469207</ele>
        <time>2020-07-30T08:50:30.040Z</time>
      </trkpt>
      <trkpt lat="62.13577" lon="5.67617">
        <ele>55.569169</ele>
        <time>2020-07-30T08:50:33.045Z</time>
      </trkpt>
      <trkpt lat="62.13588" lon="5.67622">
        <ele>55.671831</ele>
        <time>2020-07-30T08:50:36.034Z</time>
      </trkpt>
      <trkpt lat="62.13599" lon="5.67626">
        <ele>55.770354</ele>
        <time>2020-07-30T08:50:39.074Z</time>
      </trkpt>
      <trkpt lat="62.1361" lon="5.6763">
        <ele>55.876393</ele>
        <time>2020-07-30T08:50:42.049Z</time>
      </trkpt>
      <trkpt lat="62.13622" lon="5.67633">
        <ele>55.983841</ele>
        <time>2020-07-30T08:50:45.076Z</time>
      </trkpt>
      <trkpt lat="62.13634" lon="5.67636">
        <ele>56.094642</ele>
        <time>2020-07-30T08:50:48.038Z</time>
      </trkpt>
      <trkpt lat="62.13646" lon="5.67639">
        <ele>56.205011</ele>
        <time>2020-07-30T08:50:51.073Z</time>
      </trkpt>
      <trkpt lat="62.13658" lon="5.67639">
        <ele>56.31321</ele>
        <time>2020-07-30T08:50:54.054Z</time>
      </trkpt>
      <trkpt lat="62.13669" lon="5.67639">
        <ele>56.420462</ele>
        <time>2020-07-30T08:50:57.019Z</time>
      </trkpt>
      <trkpt lat="62.13682" lon="5.67638">
        <ele>56.532482</ele>
        <time>2020-07-30T08:51:00.033Z</time>
      </trkpt>
      <trkpt lat="62.13694" lon="5.67635">
        <ele>56.462763</ele>
        <time>2020-07-30T08:51:03.033Z</time>
      </trkpt>
      <trkpt lat="62.13706" lon="5.67632">
        <ele>56.363059</ele>
        <time>2020-07-30T08:51:06.060Z</time>
      </trkpt>
      <trkpt lat="62.13719" lon="5.67626">
        <ele>56.263812</ele>
        <time>2020-07-30T08:51:09.071Z</time>
      </trkpt>
      <trkpt lat="62.13731" lon="5.67621">
        <ele>56.163272</ele>
        <time>2020-07-30T08:51:12.048Z</time>
      </trkpt>
      <trkpt lat="62.13743" lon="5.67614">
        <ele>56.064611</ele>
        <time>2020-07-30T08:51:15.033Z</time>
      </trkpt>
      <trkpt lat="62.13755" lon="5.67606">
        <ele>55.96503</ele>
        <time>2020-07-30T08:51:18.040Z</time>
      </trkpt>
      <trkpt lat="62.13767" lon="5.67596">
        <ele>55.864067</ele>
        <time>2020-07-30T08:51:21.078Z</time>
      </trkpt>
      <trkpt lat="62.13778" lon="5.67584">
        <ele>55.76845</ele>
        <time>2020-07-30T08:51:24.036Z</time>
      </trkpt>
      <trkpt lat="62.13789" lon="5.67571">
        <ele>55.667155</ele>
        <time>2020-07-30T08:51:27.033Z</time>
      </trkpt>
      <trkpt lat="62.13797" lon="5.6756">
        <ele>55.595831</ele>
        <time>2020-07-30T08:51:29.052Z</time>
      </trkpt>
      <trkpt lat="62.13805" lon="5.6755">
        <ele>55.519722</ele>
        <time>2020-07-30T08:51:31.041Z</time>
      </trkpt>
      <trkpt lat="62.13814" lon="5.67539">
        <ele>55.443706</ele>
        <time>2020-07-30T08:51:33.047Z</time>
      </trkpt>
      <trkpt lat="62.13822" lon="5.67527">
        <ele>55.367557</ele>
        <time>2020-07-30T08:51:35.042Z</time>
      </trkpt>
      <trkpt lat="62.1383" lon="5.67516">
        <ele>55.289034</ele>
        <time>2020-07-30T08:51:37.064Z</time>
      </trkpt>
      <trkpt lat="62.13838" lon="5.67505">
        <ele>55.211962</ele>
        <time>2020-07-30T08:51:39.056Z</time>
      </trkpt>
      <trkpt lat="62.13847" lon="5.67492">
        <ele>55.132307</ele>
        <time>2020-07-30T08:51:41.041Z</time>
      </trkpt>
      <trkpt lat="62.13855" lon="5.6748">
        <ele>54.938806</ele>
        <time>2020-07-30T08:51:43.050Z</time>
      </trkpt>
      <trkpt lat="62.13863" lon="5.67469">
        <ele>54.749929</ele>
        <time>2020-07-30T08:51:45.093Z</time>
      </trkpt>
      <trkpt lat="62.13871" lon="5.67456">
        <ele>54.556954</ele>
        <time>2020-07-30T08:51:47.058Z</time>
      </trkpt>
      <trkpt lat="62.13879" lon="5.67444">
        <ele>54.357624</ele>
        <time>2020-07-30T08:51:49.028Z</time>
      </trkpt>
      <trkpt lat="62.13887" lon="5.67432">
        <ele>54.167811</ele>
        <time>2020-07-30T08:51:51.032Z</time>
      </trkpt>
      <trkpt lat="62.13895" lon="5.67421">
        <ele>53.980559</ele>
        <time>2020-07-30T08:51:53.074Z</time>
      </trkpt>
      <trkpt lat="62.13903" lon="5.67409">
        <ele>53.794984</ele>
        <time>2020-07-30T08:51:55.027Z</time>
      </trkpt>
      <trkpt lat="62.13911" lon="5.67398">
        <ele>53.609858</ele>
        <time>2020-07-30T08:51:57.065Z</time>
      </trkpt>
      <trkpt lat="62.13919" lon="5.67387">
        <ele>53.426237</ele>
        <time>2020-07-30T08:51:59.032Z</time>
      </trkpt>
      <trkpt lat="62.13927" lon="5.67376">
        <ele>53.24098</ele>
        <time>2020-07-30T08:52:01.045Z</time>
      </trkpt>
      <trkpt lat="62.13935" lon="5.67364">
        <ele>53.060163</ele>
        <time>2020-07-30T08:52:03.050Z</time>
      </trkpt>
      <trkpt lat="62.13943" lon="5.67353">
        <ele>52.87375</ele>
        <time>2020-07-30T08:52:05.029Z</time>
      </trkpt>
      <trkpt lat="62.13951" lon="5.67343">
        <ele>52.692327</ele>
        <time>2020-07-30T08:52:07.029Z</time>
      </trkpt>
      <trkpt lat="62.13959" lon="5.67333">
        <ele>52.51424</ele>
        <time>2020-07-30T08:52:09.030Z</time>
      </trkpt>
      <trkpt lat="62.13966" lon="5.67323">
        <ele>52.339466</ele>
        <time>2020-07-30T08:52:11.044Z</time>
      </trkpt>
      <trkpt lat="62.13974" lon="5.67313">
        <ele>52.162023</ele>
        <time>2020-07-30T08:52:13.054Z</time>
      </trkpt>
      <trkpt lat="62.13982" lon="5.67304">
        <ele>51.982508</ele>
        <time>2020-07-30T08:52:15.081Z</time>
      </trkpt>
      <trkpt lat="62.1399" lon="5.67294">
        <ele>51.802558</ele>
        <time>2020-07-30T08:52:17.025Z</time>
      </trkpt>
      <trkpt lat="62.14002" lon="5.67281">
        <ele>51.666835</ele>
        <time>2020-07-30T08:52:20.036Z</time>
      </trkpt>
      <trkpt lat="62.1401" lon="5.67272">
        <ele>51.743034</ele>
        <time>2020-07-30T08:52:22.067Z</time>
      </trkpt>
      <trkpt lat="62.14022" lon="5.67259">
        <ele>51.856486</ele>
        <time>2020-07-30T08:52:25.072Z</time>
      </trkpt>
      <trkpt lat="62.14034" lon="5.67248">
        <ele>51.967522</ele>
        <time>2020-07-30T08:52:28.065Z</time>
      </trkpt>
      <trkpt lat="62.14046" lon="5.67237">
        <ele>52.082339</ele>
        <time>2020-07-30T08:52:31.077Z</time>
      </trkpt>
      <trkpt lat="62.14059" lon="5.67227">
        <ele>52.193415</ele>
        <time>2020-07-30T08:52:34.078Z</time>
      </trkpt>
      <trkpt lat="62.14071" lon="5.67217">
        <ele>52.301828</ele>
        <time>2020-07-30T08:52:37.047Z</time>
      </trkpt>
      <trkpt lat="62.14083" lon="5.67208">
        <ele>52.414621</ele>
        <time>2020-07-30T08:52:40.029Z</time>
      </trkpt>
      <trkpt lat="62.14092" lon="5.67202">
        <ele>52.492484</ele>
        <time>2020-07-30T08:52:42.050Z</time>
      </trkpt>
      <trkpt lat="62.14101" lon="5.67196">
        <ele>52.573109</ele>
        <time>2020-07-30T08:52:44.058Z</time>
      </trkpt>
      <trkpt lat="62.1411" lon="5.6719">
        <ele>52.655377</ele>
        <time>2020-07-30T08:52:46.036Z</time>
      </trkpt>
      <trkpt lat="62.14119" lon="5.67184">
        <ele>52.734963</ele>
        <time>2020-07-30T08:52:48.042Z</time>
      </trkpt>
      <trkpt lat="62.14128" lon="5.67179">
        <ele>52.812483</ele>
        <time>2020-07-30T08:52:50.060Z</time>
      </trkpt>
      <trkpt lat="62.14141" lon="5.67172">
        <ele>52.924567</ele>
        <time>2020-07-30T08:52:53.037Z</time>
      </trkpt>
      <trkpt lat="62.14154" lon="5.67165">
        <ele>53.039854</ele>
        <time>2020-07-30T08:52:56.036Z</time>
      </trkpt>
      <trkpt lat="62.14163" lon="5.6716">
        <ele>53.115949</ele>
        <time>2020-07-30T08:52:58.051Z</time>
      </trkpt>
      <trkpt lat="62.14171" lon="5.67156">
        <ele>53.150956</ele>
        <time>2020-07-30T08:53:00.032Z</time>
      </trkpt>
      <trkpt lat="62.1418" lon="5.67152">
        <ele>53.139406</ele>
        <time>2020-07-30T08:53:02.031Z</time>
      </trkpt>
      <trkpt lat="62.14189" lon="5.67148">
        <ele>53.127493</ele>
        <time>2020-07-30T08:53:04.045Z</time>
      </trkpt>
      <trkpt lat="62.14203" lon="5.67143">
        <ele>53.110312</ele>
        <time>2020-07-30T08:53:07.045Z</time>
      </trkpt>
      <trkpt lat="62.14216" lon="5.67137">
        <ele>53.092905</ele>
        <time>2020-07-30T08:53:10.040Z</time>
      </trkpt>
      <trkpt lat="62.14225" lon="5.67133">
        <ele>53.080877</ele>
        <time>2020-07-30T08:53:12.085Z</time>
      </trkpt>
      <trkpt lat="62.14234" lon="5.6713">
        <ele>53.069177</ele>
        <time>2020-07-30T08:53:14.043Z</time>
      </trkpt>
      <trkpt lat="62.14243" lon="5.67126">
        <ele>53.057401</ele>
        <time>2020-07-30T08:53:16.042Z</time>
      </trkpt>
      <trkpt lat="62.14256" lon="5.67121">
        <ele>53.040407</ele>
        <time>2020-07-30T08:53:19.036Z</time>
      </trkpt>
      <trkpt lat="62.14269" lon="5.67116">
        <ele>53.023499</ele>
        <time>2020-07-30T08:53:22.038Z</time>
      </trkpt>
      <trkpt lat="62.14282" lon="5.6711">
        <ele>53.006481</ele>
        <time>2020-07-30T08:53:25.044Z</time>
      </trkpt>
      <trkpt lat="62.14295" lon="5.67105">
        <ele>52.989887</ele>
        <time>2020-07-30T08:53:28.061Z</time>
      </trkpt>
      <trkpt lat="62.14307" lon="5.671">
        <ele>52.973453</ele>
        <time>2020-07-30T08:53:31.038Z</time>
      </trkpt>
      <trkpt lat="62.1432" lon="5.67094">
        <ele>52.957344</ele>
        <time>2020-07-30T08:53:34.024Z</time>
      </trkpt>
      <trkpt lat="62.14332" lon="5.67088">
        <ele>52.941054</ele>
        <time>2020-07-30T08:53:37.026Z</time>
      </trkpt>
      <trkpt lat="62.14344" lon="5.67084">
        <ele>52.932665</ele>
        <time>2020-07-30T08:53:40.044Z</time>
      </trkpt>
      <trkpt lat="62.14357" lon="5.67079">
        <ele>53.053819</ele>
        <time>2020-07-30T08:53:43.051Z</time>
      </trkpt>
      <trkpt lat="62.1437" lon="5.67075">
        <ele>53.17362</ele>
        <time>2020-07-30T08:53:46.065Z</time>
      </trkpt>
      <trkpt lat="62.14382" lon="5.6707">
        <ele>53.29128</ele>
        <time>2020-07-30T08:53:49.044Z</time>
      </trkpt>
      <trkpt lat="62.14395" lon="5.67066">
        <ele>53.409724</ele>
        <time>2020-07-30T08:53:52.051Z</time>
      </trkpt>
      <trkpt lat="62.14407" lon="5.67059">
        <ele>53.529769</ele>
        <time>2020-07-30T08:53:55.038Z</time>
      </trkpt>
      <trkpt lat="62.14419" lon="5.67053">
        <ele>53.646948</ele>
        <time>2020-07-30T08:53:58.033Z</time>
      </trkpt>
      <trkpt lat="62.14431" lon="5.67049">
        <ele>53.754462</ele>
        <time>2020-07-30T08:54:01.058Z</time>
      </trkpt>
      <trkpt lat="62.14442" lon="5.67043">
        <ele>53.866595</ele>
        <time>2020-07-30T08:54:04.050Z</time>
      </trkpt>
      <trkpt lat="62.14454" lon="5.67037">
        <ele>53.974887</ele>
        <time>2020-07-30T08:54:07.048Z</time>
      </trkpt>
      <trkpt lat="62.14464" lon="5.67032">
        <ele>54.075676</ele>
        <time>2020-07-30T08:54:10.032Z</time>
      </trkpt>
      <trkpt lat="62.14474" lon="5.67027">
        <ele>54.172338</ele>
        <time>2020-07-30T08:54:13.038Z</time>
      </trkpt>
      <trkpt lat="62.14483" lon="5.6702">
        <ele>54.259497</ele>
        <time>2020-07-30T08:54:16.041Z</time>
      </trkpt>
      <trkpt lat="62.14493" lon="5.67012">
        <ele>54.358711</ele>
        <time>2020-07-30T08:54:19.036Z</time>
      </trkpt>
      <trkpt lat="62.14503" lon="5.67002">
        <ele>54.461305</ele>
        <time>2020-07-30T08:54:22.050Z</time>
      </trkpt>
      <trkpt lat="62.14513" lon="5.66993">
        <ele>54.565787</ele>
        <time>2020-07-30T08:54:25.038Z</time>
      </trkpt>
      <trkpt lat="62.14524" lon="5.66982">
        <ele>54.619336</ele>
        <time>2020-07-30T08:54:28.032Z</time>
      </trkpt>
      <trkpt lat="62.14534" lon="5.66971">
        <ele>54.635323</ele>
        <time>2020-07-30T08:54:31.054Z</time>
      </trkpt>
      <trkpt lat="62.14545" lon="5.66959">
        <ele>54.651681</ele>
        <time>2020-07-30T08:54:34.037Z</time>
      </trkpt>
      <trkpt lat="62.14556" lon="5.66945">
        <ele>54.668739</ele>
        <time>2020-07-30T08:54:37.040Z</time>
      </trkpt>
      <trkpt lat="62.14566" lon="5.6693">
        <ele>54.685513</ele>
        <time>2020-07-30T08:54:40.034Z</time>
      </trkpt>
      <trkpt lat="62.14576" lon="5.66915">
        <ele>54.702503</ele>
        <time>2020-07-30T08:54:43.046Z</time>
      </trkpt>
      <trkpt lat="62.14586" lon="5.66895">
        <ele>54.720813</ele>
        <time>2020-07-30T08:54:46.058Z</time>
      </trkpt>
      <trkpt lat="62.14596" lon="5.66876">
        <ele>54.73924</ele>
        <time>2020-07-30T08:54:49.065Z</time>
      </trkpt>
      <trkpt lat="62.14603" lon="5.66862">
        <ele>54.752131</ele>
        <time>2020-07-30T08:54:51.044Z</time>
      </trkpt>
      <trkpt lat="62.1461" lon="5.66849">
        <ele>54.765477</ele>
        <time>2020-07-30T08:54:53.060Z</time>
      </trkpt>
      <trkpt lat="62.14618" lon="5.66834">
        <ele>54.779523</ele>
        <time>2020-07-30T08:54:55.030Z</time>
      </trkpt>
      <trkpt lat="62.14625" lon="5.66816">
        <ele>54.794938</ele>
        <time>2020-07-30T08:54:57.038Z</time>
      </trkpt>
      <trkpt lat="62.14633" lon="5.66797">
        <ele>54.810863</ele>
        <time>2020-07-30T08:54:59.066Z</time>
      </trkpt>
      <trkpt lat="62.1464" lon="5.66776">
        <ele>54.827525</ele>
        <time>2020-07-30T08:55:01.045Z</time>
      </trkpt>
      <trkpt lat="62.14648" lon="5.66755">
        <ele>54.844573</ele>
        <time>2020-07-30T08:55:03.043Z</time>
      </trkpt>
      <trkpt lat="62.14655" lon="5.66734">
        <ele>54.844383</ele>
        <time>2020-07-30T08:55:05.063Z</time>
      </trkpt>
      <trkpt lat="62.14662" lon="5.66713">
        <ele>54.815725</ele>
        <time>2020-07-30T08:55:07.052Z</time>
      </trkpt>
      <trkpt lat="62.1467" lon="5.6669">
        <ele>54.784277</ele>
        <time>2020-07-30T08:55:09.059Z</time>
      </trkpt>
      <trkpt lat="62.14678" lon="5.66666">
        <ele>54.751649</ele>
        <time>2020-07-30T08:55:11.022Z</time>
      </trkpt>
      <trkpt lat="62.14687" lon="5.66643">
        <ele>54.718648</ele>
        <time>2020-07-30T08:55:13.034Z</time>
      </trkpt>
      <trkpt lat="62.14696" lon="5.66619">
        <ele>54.685278</ele>
        <time>2020-07-30T08:55:15.054Z</time>
      </trkpt>
      <trkpt lat="62.14705" lon="5.66597">
        <ele>54.652191</ele>
        <time>2020-07-30T08:55:17.037Z</time>
      </trkpt>
      <trkpt lat="62.14715" lon="5.66575">
        <ele>54.618622</ele>
        <time>2020-07-30T08:55:19.084Z</time>
      </trkpt>
      <trkpt lat="62.14726" lon="5.66555">
        <ele>54.58526</ele>
        <time>2020-07-30T08:55:21.044Z</time>
      </trkpt>
      <trkpt lat="62.14736" lon="5.66535">
        <ele>54.552232</ele>
        <time>2020-07-30T08:55:23.035Z</time>
      </trkpt>
      <trkpt lat="62.14747" lon="5.66516">
        <ele>54.519849</ele>
        <time>2020-07-30T08:55:25.041Z</time>
      </trkpt>
      <trkpt lat="62.14758" lon="5.66497">
        <ele>54.486474</ele>
        <time>2020-07-30T08:55:27.084Z</time>
      </trkpt>
      <trkpt lat="62.14769" lon="5.6648">
        <ele>54.453138</ele>
        <time>2020-07-30T08:55:29.044Z</time>
      </trkpt>
      <trkpt lat="62.14781" lon="5.66464">
        <ele>54.417634</ele>
        <time>2020-07-30T08:55:31.046Z</time>
      </trkpt>
      <trkpt lat="62.14793" lon="5.66449">
        <ele>54.377186</ele>
        <time>2020-07-30T08:55:33.082Z</time>
      </trkpt>
      <trkpt lat="62.14805" lon="5.66436">
        <ele>54.336611</ele>
        <time>2020-07-30T08:55:35.056Z</time>
      </trkpt>
      <trkpt lat="62.14817" lon="5.66424">
        <ele>54.297774</ele>
        <time>2020-07-30T08:55:37.071Z</time>
      </trkpt>
      <trkpt lat="62.14828" lon="5.66413">
        <ele>54.260114</ele>
        <time>2020-07-30T08:55:39.063Z</time>
      </trkpt>
      <trkpt lat="62.1484" lon="5.66404">
        <ele>54.224144</ele>
        <time>2020-07-30T08:55:41.041Z</time>
      </trkpt>
      <trkpt lat="62.14851" lon="5.66394">
        <ele>54.186518</ele>
        <time>2020-07-30T08:55:43.056Z</time>
      </trkpt>
      <trkpt lat="62.14864" lon="5.66385">
        <ele>54.148137</ele>
        <time>2020-07-30T08:55:45.032Z</time>
      </trkpt>
      <trkpt lat="62.14876" lon="5.66376">
        <ele>54.110571</ele>
        <time>2020-07-30T08:55:47.080Z</time>
      </trkpt>
      <trkpt lat="62.14888" lon="5.66368">
        <ele>54.072995</ele>
        <time>2020-07-30T08:55:49.032Z</time>
      </trkpt>
      <trkpt lat="62.14899" lon="5.66359">
        <ele>54.035803</ele>
        <time>2020-07-30T08:55:51.036Z</time>
      </trkpt>
      <trkpt lat="62.14911" lon="5.6635">
        <ele>53.99842</ele>
        <time>2020-07-30T08:55:53.053Z</time>
      </trkpt>
      <trkpt lat="62.14923" lon="5.66341">
        <ele>53.961834</ele>
        <time>2020-07-30T08:55:55.073Z</time>
      </trkpt>
      <trkpt lat="62.14934" lon="5.66333">
        <ele>53.925844</ele>
        <time>2020-07-30T08:55:57.040Z</time>
      </trkpt>
      <trkpt lat="62.14946" lon="5.66325">
        <ele>53.892087</ele>
        <time>2020-07-30T08:55:59.037Z</time>
      </trkpt>
      <trkpt lat="62.14958" lon="5.66317">
        <ele>53.873265</ele>
        <time>2020-07-30T08:56:01.035Z</time>
      </trkpt>
      <trkpt lat="62.14969" lon="5.66309">
        <ele>53.854875</ele>
        <time>2020-07-30T08:56:03.053Z</time>
      </trkpt>
      <trkpt lat="62.14979" lon="5.663">
        <ele>53.836931</ele>
        <time>2020-07-30T08:56:05.036Z</time>
      </trkpt>
      <trkpt lat="62.1499" lon="5.66292">
        <ele>53.818663</ele>
        <time>2020-07-30T08:56:07.035Z</time>
      </trkpt>
      <trkpt lat="62.15001" lon="5.66283">
        <ele>53.799375</ele>
        <time>2020-07-30T08:56:09.041Z</time>
      </trkpt>
      <trkpt lat="62.15013" lon="5.66273">
        <ele>53.780088</ele>
        <time>2020-07-30T08:56:11.031Z</time>
      </trkpt>
      <trkpt lat="62.15024" lon="5.66264">
        <ele>53.760477</ele>
        <time>2020-07-30T08:56:13.033Z</time>
      </trkpt>
      <trkpt lat="62.15036" lon="5.66255">
        <ele>53.740568</ele>
        <time>2020-07-30T08:56:15.026Z</time>
      </trkpt>
      <trkpt lat="62.15048" lon="5.66246">
        <ele>53.720188</ele>
        <time>2020-07-30T08:56:17.075Z</time>
      </trkpt>
      <trkpt lat="62.1506" lon="5.66237">
        <ele>53.700103</ele>
        <time>2020-07-30T08:56:19.059Z</time>
      </trkpt>
      <trkpt lat="62.15072" lon="5.66228">
        <ele>53.680245</ele>
        <time>2020-07-30T08:56:21.031Z</time>
      </trkpt>
      <trkpt lat="62.15084" lon="5.66219">
        <ele>53.660703</ele>
        <time>2020-07-30T08:56:23.052Z</time>
      </trkpt>
      <trkpt lat="62.15095" lon="5.6621">
        <ele>53.64159</ele>
        <time>2020-07-30T08:56:25.045Z</time>
      </trkpt>
      <trkpt lat="62.15106" lon="5.662">
        <ele>53.622694</ele>
        <time>2020-07-30T08:56:27.032Z</time>
      </trkpt>
      <trkpt lat="62.15116" lon="5.6619">
        <ele>53.547577</ele>
        <time>2020-07-30T08:56:29.073Z</time>
      </trkpt>
      <trkpt lat="62.15126" lon="5.66181">
        <ele>53.378562</ele>
        <time>2020-07-30T08:56:31.047Z</time>
      </trkpt>
      <trkpt lat="62.15137" lon="5.66171">
        <ele>53.197067</ele>
        <time>2020-07-30T08:56:33.044Z</time>
      </trkpt>
      <trkpt lat="62.15148" lon="5.6616">
        <ele>53.001585</ele>
        <time>2020-07-30T08:56:35.056Z</time>
      </trkpt>
      <trkpt lat="62.1516" lon="5.66149">
        <ele>52.795614</ele>
        <time>2020-07-30T08:56:37.034Z</time>
      </trkpt>
      <trkpt lat="62.15171" lon="5.66137">
        <ele>52.600664</ele>
        <time>2020-07-30T08:56:39.059Z</time>
      </trkpt>
      <trkpt lat="62.15182" lon="5.66125">
        <ele>52.40543</ele>
        <time>2020-07-30T08:56:41.047Z</time>
      </trkpt>
      <trkpt lat="62.15192" lon="5.66113">
        <ele>52.21788</ele>
        <time>2020-07-30T08:56:43.034Z</time>
      </trkpt>
      <trkpt lat="62.15202" lon="5.661">
        <ele>52.02979</ele>
        <time>2020-07-30T08:56:45.035Z</time>
      </trkpt>
      <trkpt lat="62.15212" lon="5.66087">
        <ele>51.848658</ele>
        <time>2020-07-30T08:56:47.033Z</time>
      </trkpt>
      <trkpt lat="62.15222" lon="5.66075">
        <ele>51.669773</ele>
        <time>2020-07-30T08:56:49.054Z</time>
      </trkpt>
      <trkpt lat="62.15231" lon="5.66063">
        <ele>51.494004</ele>
        <time>2020-07-30T08:56:51.044Z</time>
      </trkpt>
      <trkpt lat="62.15241" lon="5.6605">
        <ele>51.309394</ele>
        <time>2020-07-30T08:56:53.050Z</time>
      </trkpt>
      <trkpt lat="62.15251" lon="5.66038">
        <ele>51.124403</ele>
        <time>2020-07-30T08:56:55.065Z</time>
      </trkpt>
      <trkpt lat="62.15262" lon="5.66025">
        <ele>50.93295</ele>
        <time>2020-07-30T08:56:57.044Z</time>
      </trkpt>
      <trkpt lat="62.15272" lon="5.66012">
        <ele>50.766761</ele>
        <time>2020-07-30T08:56:59.085Z</time>
      </trkpt>
      <trkpt lat="62.15283" lon="5.65999">
        <ele>50.827177</ele>
        <time>2020-07-30T08:57:01.027Z</time>
      </trkpt>
      <trkpt lat="62.15293" lon="5.65987">
        <ele>50.88625</ele>
        <time>2020-07-30T08:57:03.054Z</time>
      </trkpt>
      <trkpt lat="62.15303" lon="5.65975">
        <ele>50.94498</ele>
        <time>2020-07-30T08:57:05.037Z</time>
      </trkpt>
      <trkpt lat="62.15314" lon="5.65963">
        <ele>51.004602</ele>
        <time>2020-07-30T08:57:07.098Z</time>
      </trkpt>
      <trkpt lat="62.15324" lon="5.65952">
        <ele>51.063693</ele>
        <time>2020-07-30T08:57:09.032Z</time>
      </trkpt>
      <trkpt lat="62.15335" lon="5.65941">
        <ele>51.124664</ele>
        <time>2020-07-30T08:57:11.065Z</time>
      </trkpt>
      <trkpt lat="62.15346" lon="5.65929">
        <ele>51.185399</ele>
        <time>2020-07-30T08:57:13.036Z</time>
      </trkpt>
      <trkpt lat="62.15356" lon="5.65917">
        <ele>51.244806</ele>
        <time>2020-07-30T08:57:15.043Z</time>
      </trkpt>
      <trkpt lat="62.15367" lon="5.65907">
        <ele>51.303941</ele>
        <time>2020-07-30T08:57:17.062Z</time>
      </trkpt>
      <trkpt lat="62.15377" lon="5.65898">
        <ele>51.358789</ele>
        <time>2020-07-30T08:57:19.064Z</time>
      </trkpt>
      <trkpt lat="62.15387" lon="5.65887">
        <ele>51.41788</ele>
        <time>2020-07-30T08:57:21.034Z</time>
      </trkpt>
      <trkpt lat="62.15398" lon="5.65875">
        <ele>51.477383</ele>
        <time>2020-07-30T08:57:23.045Z</time>
      </trkpt>
      <trkpt lat="62.15408" lon="5.65865">
        <ele>51.535305</ele>
        <time>2020-07-30T08:57:25.034Z</time>
      </trkpt>
      <trkpt lat="62.15419" lon="5.65855">
        <ele>51.5957</ele>
        <time>2020-07-30T08:57:27.043Z</time>
      </trkpt>
      <trkpt lat="62.1543" lon="5.65844">
        <ele>51.654079</ele>
        <time>2020-07-30T08:57:29.041Z</time>
      </trkpt>
      <trkpt lat="62.15441" lon="5.65833">
        <ele>51.620471</ele>
        <time>2020-07-30T08:57:31.033Z</time>
      </trkpt>
      <trkpt lat="62.15452" lon="5.65822">
        <ele>51.559166</ele>
        <time>2020-07-30T08:57:33.060Z</time>
      </trkpt>
      <trkpt lat="62.15463" lon="5.6581">
        <ele>51.498113</ele>
        <time>2020-07-30T08:57:35.064Z</time>
      </trkpt>
      <trkpt lat="62.15474" lon="5.658">
        <ele>51.437654</ele>
        <time>2020-07-30T08:57:37.052Z</time>
      </trkpt>
      <trkpt lat="62.15485" lon="5.65788">
        <ele>51.375145</ele>
        <time>2020-07-30T08:57:39.028Z</time>
      </trkpt>
      <trkpt lat="62.15496" lon="5.65778">
        <ele>51.314686</ele>
        <time>2020-07-30T08:57:41.032Z</time>
      </trkpt>
      <trkpt lat="62.15507" lon="5.65767">
        <ele>51.256794</ele>
        <time>2020-07-30T08:57:43.061Z</time>
      </trkpt>
      <trkpt lat="62.15516" lon="5.65756">
        <ele>51.201974</ele>
        <time>2020-07-30T08:57:45.039Z</time>
      </trkpt>
      <trkpt lat="62.15527" lon="5.65745">
        <ele>51.143953</ele>
        <time>2020-07-30T08:57:47.025Z</time>
      </trkpt>
      <trkpt lat="62.15538" lon="5.65734">
        <ele>51.081114</ele>
        <time>2020-07-30T08:57:49.028Z</time>
      </trkpt>
      <trkpt lat="62.1555" lon="5.65723">
        <ele>51.019095</ele>
        <time>2020-07-30T08:57:51.071Z</time>
      </trkpt>
      <trkpt lat="62.15561" lon="5.65712">
        <ele>50.95736</ele>
        <time>2020-07-30T08:57:53.044Z</time>
      </trkpt>
      <trkpt lat="62.15573" lon="5.65702">
        <ele>50.893769</ele>
        <time>2020-07-30T08:57:55.036Z</time>
      </trkpt>
      <trkpt lat="62.15584" lon="5.65691">
        <ele>50.829368</ele>
        <time>2020-07-30T08:57:57.053Z</time>
      </trkpt>
      <trkpt lat="62.15596" lon="5.6568">
        <ele>50.787568</ele>
        <time>2020-07-30T08:57:59.051Z</time>
      </trkpt>
      <trkpt lat="62.15608" lon="5.65668">
        <ele>51.062813</ele>
        <time>2020-07-30T08:58:01.059Z</time>
      </trkpt>
      <trkpt lat="62.1562" lon="5.65656">
        <ele>51.342378</ele>
        <time>2020-07-30T08:58:03.039Z</time>
      </trkpt>
      <trkpt lat="62.15631" lon="5.65644">
        <ele>51.616753</ele>
        <time>2020-07-30T08:58:05.039Z</time>
      </trkpt>
      <trkpt lat="62.15643" lon="5.65632">
        <ele>51.903453</ele>
        <time>2020-07-30T08:58:07.038Z</time>
      </trkpt>
      <trkpt lat="62.15655" lon="5.6562">
        <ele>52.186768</ele>
        <time>2020-07-30T08:58:09.035Z</time>
      </trkpt>
      <trkpt lat="62.15667" lon="5.65609">
        <ele>52.464512</ele>
        <time>2020-07-30T08:58:11.062Z</time>
      </trkpt>
      <trkpt lat="62.15678" lon="5.65598">
        <ele>52.736764</ele>
        <time>2020-07-30T08:58:13.052Z</time>
      </trkpt>
      <trkpt lat="62.1569" lon="5.65587">
        <ele>53.008601</ele>
        <time>2020-07-30T08:58:15.047Z</time>
      </trkpt>
      <trkpt lat="62.15701" lon="5.65576">
        <ele>53.270016</ele>
        <time>2020-07-30T08:58:17.039Z</time>
      </trkpt>
      <trkpt lat="62.15711" lon="5.65565">
        <ele>53.520175</ele>
        <time>2020-07-30T08:58:19.054Z</time>
      </trkpt>
      <trkpt lat="62.15721" lon="5.65555">
        <ele>53.759308</ele>
        <time>2020-07-30T08:58:21.035Z</time>
      </trkpt>
      <trkpt lat="62.15732" lon="5.65544">
        <ele>54.010332</ele>
        <time>2020-07-30T08:58:23.044Z</time>
      </trkpt>
      <trkpt lat="62.15742" lon="5.65534">
        <ele>54.26192</ele>
        <time>2020-07-30T08:58:25.045Z</time>
      </trkpt>
      <trkpt lat="62.15752" lon="5.65524">
        <ele>54.495295</ele>
        <time>2020-07-30T08:58:27.075Z</time>
      </trkpt>
      <trkpt lat="62.15762" lon="5.65515">
        <ele>54.627734</ele>
        <time>2020-07-30T08:58:29.033Z</time>
      </trkpt>
      <trkpt lat="62.15772" lon="5.65504">
        <ele>54.576938</ele>
        <time>2020-07-30T08:58:31.043Z</time>
      </trkpt>
      <trkpt lat="62.15783" lon="5.65492">
        <ele>54.523241</ele>
        <time>2020-07-30T08:58:33.047Z</time>
      </trkpt>
      <trkpt lat="62.15794" lon="5.6548">
        <ele>54.465737</ele>
        <time>2020-07-30T08:58:35.032Z</time>
      </trkpt>
      <trkpt lat="62.15806" lon="5.65467">
        <ele>54.405174</ele>
        <time>2020-07-30T08:58:37.031Z</time>
      </trkpt>
      <trkpt lat="62.15817" lon="5.65454">
        <ele>54.349089</ele>
        <time>2020-07-30T08:58:39.059Z</time>
      </trkpt>
      <trkpt lat="62.15827" lon="5.65442">
        <ele>54.293704</ele>
        <time>2020-07-30T08:58:41.103Z</time>
      </trkpt>
      <trkpt lat="62.15838" lon="5.65429">
        <ele>54.237232</ele>
        <time>2020-07-30T08:58:43.033Z</time>
      </trkpt>
      <trkpt lat="62.1585" lon="5.65417">
        <ele>54.180943</ele>
        <time>2020-07-30T08:58:45.028Z</time>
      </trkpt>
      <trkpt lat="62.15861" lon="5.65406">
        <ele>54.124124</ele>
        <time>2020-07-30T08:58:47.025Z</time>
      </trkpt>
      <trkpt lat="62.15872" lon="5.65395">
        <ele>54.06678</ele>
        <time>2020-07-30T08:58:49.032Z</time>
      </trkpt>
      <trkpt lat="62.15884" lon="5.65383">
        <ele>54.008325</ele>
        <time>2020-07-30T08:58:51.091Z</time>
      </trkpt>
      <trkpt lat="62.15896" lon="5.65371">
        <ele>53.950322</ele>
        <time>2020-07-30T08:58:53.046Z</time>
      </trkpt>
      <trkpt lat="62.15906" lon="5.6536">
        <ele>53.8965</ele>
        <time>2020-07-30T08:58:55.032Z</time>
      </trkpt>
      <trkpt lat="62.15917" lon="5.65349">
        <ele>53.841363</ele>
        <time>2020-07-30T08:58:57.027Z</time>
      </trkpt>
      <trkpt lat="62.15928" lon="5.65337">
        <ele>53.724725</ele>
        <time>2020-07-30T08:58:59.080Z</time>
      </trkpt>
      <trkpt lat="62.15939" lon="5.65326">
        <ele>53.591283</ele>
        <time>2020-07-30T08:59:01.055Z</time>
      </trkpt>
      <trkpt lat="62.1595" lon="5.65315">
        <ele>53.456191</ele>
        <time>2020-07-30T08:59:03.038Z</time>
      </trkpt>
      <trkpt lat="62.15961" lon="5.65303">
        <ele>53.319887</ele>
        <time>2020-07-30T08:59:05.093Z</time>
      </trkpt>
      <trkpt lat="62.15973" lon="5.6529">
        <ele>53.175494</ele>
        <time>2020-07-30T08:59:07.055Z</time>
      </trkpt>
      <trkpt lat="62.15984" lon="5.65278">
        <ele>53.039411</ele>
        <time>2020-07-30T08:59:09.043Z</time>
      </trkpt>
      <trkpt lat="62.15996" lon="5.65268">
        <ele>52.904238</ele>
        <time>2020-07-30T08:59:11.040Z</time>
      </trkpt>
      <trkpt lat="62.16007" lon="5.65257">
        <ele>52.768025</ele>
        <time>2020-07-30T08:59:13.050Z</time>
      </trkpt>
      <trkpt lat="62.16018" lon="5.65246">
        <ele>52.635445</ele>
        <time>2020-07-30T08:59:15.036Z</time>
      </trkpt>
      <trkpt lat="62.16029" lon="5.65235">
        <ele>52.501654</ele>
        <time>2020-07-30T08:59:17.053Z</time>
      </trkpt>
      <trkpt lat="62.1604" lon="5.65225">
        <ele>52.372494</ele>
        <time>2020-07-30T08:59:19.032Z</time>
      </trkpt>
      <trkpt lat="62.1605" lon="5.65214">
        <ele>52.248381</ele>
        <time>2020-07-30T08:59:21.073Z</time>
      </trkpt>
      <trkpt lat="62.1606" lon="5.65203">
        <ele>52.122826</ele>
        <time>2020-07-30T08:59:23.037Z</time>
      </trkpt>
      <trkpt lat="62.1607" lon="5.65194">
        <ele>51.997939</ele>
        <time>2020-07-30T08:59:25.038Z</time>
      </trkpt>
      <trkpt lat="62.16081" lon="5.65184">
        <ele>51.872837</ele>
        <time>2020-07-30T08:59:27.077Z</time>
      </trkpt>
      <trkpt lat="62.16091" lon="5.65173">
        <ele>52.037471</ele>
        <time>2020-07-30T08:59:29.071Z</time>
      </trkpt>
      <trkpt lat="62.161" lon="5.65164">
        <ele>52.233454</ele>
        <time>2020-07-30T08:59:31.074Z</time>
      </trkpt>
      <trkpt lat="62.1611" lon="5.65153">
        <ele>52.43799</ele>
        <time>2020-07-30T08:59:33.053Z</time>
      </trkpt>
      <trkpt lat="62.16119" lon="5.65142">
        <ele>52.642549</ele>
        <time>2020-07-30T08:59:35.037Z</time>
      </trkpt>
      <trkpt lat="62.16129" lon="5.65131">
        <ele>52.842086</ele>
        <time>2020-07-30T08:59:37.040Z</time>
      </trkpt>
      <trkpt lat="62.16138" lon="5.65119">
        <ele>53.043387</ele>
        <time>2020-07-30T08:59:39.038Z</time>
      </trkpt>
      <trkpt lat="62.16147" lon="5.65106">
        <ele>53.245039</ele>
        <time>2020-07-30T08:59:41.091Z</time>
      </trkpt>
      <trkpt lat="62.16156" lon="5.65093">
        <ele>53.453841</ele>
        <time>2020-07-30T08:59:43.062Z</time>
      </trkpt>
      <trkpt lat="62.16165" lon="5.65079">
        <ele>53.664163</ele>
        <time>2020-07-30T08:59:45.052Z</time>
      </trkpt>
      <trkpt lat="62.16173" lon="5.65064">
        <ele>53.872027</ele>
        <time>2020-07-30T08:59:47.027Z</time>
      </trkpt>
      <trkpt lat="62.16182" lon="5.65049">
        <ele>54.076238</ele>
        <time>2020-07-30T08:59:49.059Z</time>
      </trkpt>
      <trkpt lat="62.16191" lon="5.65034">
        <ele>54.291981</ele>
        <time>2020-07-30T08:59:51.033Z</time>
      </trkpt>
      <trkpt lat="62.162" lon="5.65017">
        <ele>54.529434</ele>
        <time>2020-07-30T08:59:53.044Z</time>
      </trkpt>
      <trkpt lat="62.1621" lon="5.65001">
        <ele>54.761371</ele>
        <time>2020-07-30T08:59:55.031Z</time>
      </trkpt>
      <trkpt lat="62.16219" lon="5.64984">
        <ele>54.989646</ele>
        <time>2020-07-30T08:59:57.052Z</time>
      </trkpt>
      <trkpt lat="62.16228" lon="5.64968">
        <ele>55.208881</ele>
        <time>2020-07-30T08:59:59.038Z</time>
      </trkpt>
      <trkpt lat="62.16237" lon="5.64953">
        <ele>55.285233</ele>
        <time>2020-07-30T09:00:01.065Z</time>
      </trkpt>
      <trkpt lat="62.16246" lon="5.64937">
        <ele>55.33158</ele>
        <time>2020-07-30T09:00:03.035Z</time>
      </trkpt>
      <trkpt lat="62.16255" lon="5.64923">
        <ele>55.377391</ele>
        <time>2020-07-30T09:00:05.055Z</time>
      </trkpt>
      <trkpt lat="62.16265" lon="5.64908">
        <ele>55.423944</ele>
        <time>2020-07-30T09:00:07.030Z</time>
      </trkpt>
      <trkpt lat="62.16274" lon="5.64894">
        <ele>55.46963</ele>
        <time>2020-07-30T09:00:09.035Z</time>
      </trkpt>
      <trkpt lat="62.16283" lon="5.6488">
        <ele>55.515862</ele>
        <time>2020-07-30T09:00:11.027Z</time>
      </trkpt>
      <trkpt lat="62.16293" lon="5.64865">
        <ele>55.562308</ele>
        <time>2020-07-30T09:00:13.038Z</time>
      </trkpt>
      <trkpt lat="62.16303" lon="5.64851">
        <ele>55.609731</ele>
        <time>2020-07-30T09:00:15.035Z</time>
      </trkpt>
      <trkpt lat="62.16312" lon="5.64836">
        <ele>55.656392</ele>
        <time>2020-07-30T09:00:17.069Z</time>
      </trkpt>
      <trkpt lat="62.16322" lon="5.64822">
        <ele>55.702851</ele>
        <time>2020-07-30T09:00:19.036Z</time>
      </trkpt>
      <trkpt lat="62.16331" lon="5.64808">
        <ele>55.750288</ele>
        <time>2020-07-30T09:00:21.044Z</time>
      </trkpt>
      <trkpt lat="62.16341" lon="5.64794">
        <ele>55.795542</ele>
        <time>2020-07-30T09:00:23.040Z</time>
      </trkpt>
      <trkpt lat="62.16351" lon="5.64781">
        <ele>55.842666</ele>
        <time>2020-07-30T09:00:25.045Z</time>
      </trkpt>
      <trkpt lat="62.1636" lon="5.64768">
        <ele>55.889029</ele>
        <time>2020-07-30T09:00:27.038Z</time>
      </trkpt>
      <trkpt lat="62.16371" lon="5.64755">
        <ele>55.935702</ele>
        <time>2020-07-30T09:00:29.064Z</time>
      </trkpt>
      <trkpt lat="62.16381" lon="5.64743">
        <ele>55.966143</ele>
        <time>2020-07-30T09:00:31.040Z</time>
      </trkpt>
      <trkpt lat="62.16391" lon="5.64731">
        <ele>55.956046</ele>
        <time>2020-07-30T09:00:33.064Z</time>
      </trkpt>
      <trkpt lat="62.16401" lon="5.64718">
        <ele>55.945873</ele>
        <time>2020-07-30T09:00:35.036Z</time>
      </trkpt>
      <trkpt lat="62.16411" lon="5.64707">
        <ele>55.935936</ele>
        <time>2020-07-30T09:00:37.034Z</time>
      </trkpt>
      <trkpt lat="62.16421" lon="5.64695">
        <ele>55.926127</ele>
        <time>2020-07-30T09:00:39.049Z</time>
      </trkpt>
      <trkpt lat="62.1643" lon="5.64683">
        <ele>55.916399</ele>
        <time>2020-07-30T09:00:41.040Z</time>
      </trkpt>
      <trkpt lat="62.1644" lon="5.64671">
        <ele>55.906308</ele>
        <time>2020-07-30T09:00:43.038Z</time>
      </trkpt>
      <trkpt lat="62.16451" lon="5.6466">
        <ele>55.896179</ele>
        <time>2020-07-30T09:00:45.058Z</time>
      </trkpt>
      <trkpt lat="62.16462" lon="5.64648">
        <ele>55.885679</ele>
        <time>2020-07-30T09:00:47.040Z</time>
      </trkpt>
      <trkpt lat="62.16473" lon="5.64637">
        <ele>55.875023</ele>
        <time>2020-07-30T09:00:49.049Z</time>
      </trkpt>
      <trkpt lat="62.16484" lon="5.64626">
        <ele>55.863814</ele>
        <time>2020-07-30T09:00:51.064Z</time>
      </trkpt>
      <trkpt lat="62.16496" lon="5.64615">
        <ele>55.852591</ele>
        <time>2020-07-30T09:00:53.054Z</time>
      </trkpt>
      <trkpt lat="62.16507" lon="5.64604">
        <ele>55.842039</ele>
        <time>2020-07-30T09:00:55.057Z</time>
      </trkpt>
      <trkpt lat="62.16517" lon="5.64594">
        <ele>55.832494</ele>
        <time>2020-07-30T09:00:57.055Z</time>
      </trkpt>
      <trkpt lat="62.16526" lon="5.64584">
        <ele>55.823473</ele>
        <time>2020-07-30T09:00:59.052Z</time>
      </trkpt>
      <trkpt lat="62.16535" lon="5.64575">
        <ele>55.815083</ele>
        <time>2020-07-30T09:01:01.042Z</time>
      </trkpt>
      <trkpt lat="62.16543" lon="5.64567">
        <ele>55.810453</ele>
        <time>2020-07-30T09:01:03.045Z</time>
      </trkpt>
      <trkpt lat="62.16556" lon="5.64558">
        <ele>55.806604</ele>
        <time>2020-07-30T09:01:06.080Z</time>
      </trkpt>
      <trkpt lat="62.16567" lon="5.64548">
        <ele>55.802916</ele>
        <time>2020-07-30T09:01:09.030Z</time>
      </trkpt>
      <trkpt lat="62.16577" lon="5.64541">
        <ele>55.799761</ele>
        <time>2020-07-30T09:01:12.073Z</time>
      </trkpt>
      <trkpt lat="62.16586" lon="5.64534">
        <ele>55.796942</ele>
        <time>2020-07-30T09:01:15.056Z</time>
      </trkpt>
      <trkpt lat="62.16596" lon="5.64527">
        <ele>55.794099</ele>
        <time>2020-07-30T09:01:18.038Z</time>
      </trkpt>
      <trkpt lat="62.16605" lon="5.6452">
        <ele>55.791132</ele>
        <time>2020-07-30T09:01:21.036Z</time>
      </trkpt>
      <trkpt lat="62.16614" lon="5.64512">
        <ele>55.788312</ele>
        <time>2020-07-30T09:01:24.044Z</time>
      </trkpt>
      <trkpt lat="62.16623" lon="5.64506">
        <ele>55.785589</ele>
        <time>2020-07-30T09:01:27.039Z</time>
      </trkpt>
      <trkpt lat="62.16632" lon="5.645">
        <ele>55.782742</ele>
        <time>2020-07-30T09:01:30.036Z</time>
      </trkpt>
      <trkpt lat="62.16641" lon="5.64494">
        <ele>55.779915</ele>
        <time>2020-07-30T09:01:33.035Z</time>
      </trkpt>
      <trkpt lat="62.1665" lon="5.64489">
        <ele>55.777099</ele>
        <time>2020-07-30T09:01:36.057Z</time>
      </trkpt>
      <trkpt lat="62.1666" lon="5.64482">
        <ele>55.774156</ele>
        <time>2020-07-30T09:01:39.062Z</time>
      </trkpt>
      <trkpt lat="62.16669" lon="5.64476">
        <ele>55.771337</ele>
        <time>2020-07-30T09:01:42.051Z</time>
      </trkpt>
      <trkpt lat="62.16678" lon="5.6447">
        <ele>55.76857</ele>
        <time>2020-07-30T09:01:45.058Z</time>
      </trkpt>
      <trkpt lat="62.16688" lon="5.64464">
        <ele>55.76556</ele>
        <time>2020-07-30T09:01:48.040Z</time>
      </trkpt>
      <trkpt lat="62.16697" lon="5.6446">
        <ele>55.762664</ele>
        <time>2020-07-30T09:01:51.063Z</time>
      </trkpt>
      <trkpt lat="62.16706" lon="5.64453">
        <ele>55.759864</ele>
        <time>2020-07-30T09:01:54.074Z</time>
      </trkpt>
      <trkpt lat="62.16716" lon="5.64445">
        <ele>55.638675</ele>
        <time>2020-07-30T09:01:57.032Z</time>
      </trkpt>
      <trkpt lat="62.16726" lon="5.64436">
        <ele>55.47797</ele>
        <time>2020-07-30T09:02:00.039Z</time>
      </trkpt>
      <trkpt lat="62.16736" lon="5.64429">
        <ele>55.330005</ele>
        <time>2020-07-30T09:02:03.034Z</time>
      </trkpt>
      <trkpt lat="62.16745" lon="5.64421">
        <ele>55.183583</ele>
        <time>2020-07-30T09:02:06.078Z</time>
      </trkpt>
      <trkpt lat="62.16755" lon="5.64412">
        <ele>55.032352</ele>
        <time>2020-07-30T09:02:09.046Z</time>
      </trkpt>
      <trkpt lat="62.16764" lon="5.64403">
        <ele>54.877377</ele>
        <time>2020-07-30T09:02:12.052Z</time>
      </trkpt>
      <trkpt lat="62.16774" lon="5.64395">
        <ele>54.728599</ele>
        <time>2020-07-30T09:02:15.053Z</time>
      </trkpt>
      <trkpt lat="62.16783" lon="5.64385">
        <ele>54.575182</ele>
        <time>2020-07-30T09:02:18.076Z</time>
      </trkpt>
      <trkpt lat="62.16793" lon="5.64375">
        <ele>54.419568</ele>
        <time>2020-07-30T09:02:21.091Z</time>
      </trkpt>
      <trkpt lat="62.16803" lon="5.64365">
        <ele>54.258807</ele>
        <time>2020-07-30T09:02:24.041Z</time>
      </trkpt>
      <trkpt lat="62.16813" lon="5.64356">
        <ele>54.099205</ele>
        <time>2020-07-30T09:02:27.052Z</time>
      </trkpt>
      <trkpt lat="62.16822" lon="5.64348">
        <ele>53.953894</ele>
        <time>2020-07-30T09:02:30.041Z</time>
      </trkpt>
      <trkpt lat="62.16831" lon="5.64338">
        <ele>53.805254</ele>
        <time>2020-07-30T09:02:33.062Z</time>
      </trkpt>
      <trkpt lat="62.16841" lon="5.64328">
        <ele>53.644599</ele>
        <time>2020-07-30T09:02:36.040Z</time>
      </trkpt>
      <trkpt lat="62.16851" lon="5.64318">
        <ele>53.476411</ele>
        <time>2020-07-30T09:02:39.033Z</time>
      </trkpt>
      <trkpt lat="62.16862" lon="5.64308">
        <ele>53.305536</ele>
        <time>2020-07-30T09:02:42.060Z</time>
      </trkpt>
      <trkpt lat="62.16874" lon="5.64302">
        <ele>53.123733</ele>
        <time>2020-07-30T09:02:45.029Z</time>
      </trkpt>
      <trkpt lat="62.16887" lon="5.64299">
        <ele>53.065032</ele>
        <time>2020-07-30T09:02:48.035Z</time>
      </trkpt>
      <trkpt lat="62.16898" lon="5.64299">
        <ele>53.013407</ele>
        <time>2020-07-30T09:02:51.031Z</time>
      </trkpt>
      <trkpt lat="62.16908" lon="5.64299">
        <ele>52.966295</ele>
        <time>2020-07-30T09:02:54.079Z</time>
      </trkpt>
      <trkpt lat="62.16918" lon="5.64304">
        <ele>52.919947</ele>
        <time>2020-07-30T09:02:57.043Z</time>
      </trkpt>
      <trkpt lat="62.16928" lon="5.6431">
        <ele>52.875048</ele>
        <time>2020-07-30T09:03:00.051Z</time>
      </trkpt>
      <trkpt lat="62.16937" lon="5.64315">
        <ele>52.831588</ele>
        <time>2020-07-30T09:03:03.040Z</time>
      </trkpt>
      <trkpt lat="62.16946" lon="5.64322">
        <ele>52.790285</ele>
        <time>2020-07-30T09:03:06.073Z</time>
      </trkpt>
      <trkpt lat="62.16956" lon="5.64333">
        <ele>52.737178</ele>
        <time>2020-07-30T09:03:10.037Z</time>
      </trkpt>
      <trkpt lat="62.16966" lon="5.64336">
        <ele>52.692869</ele>
        <time>2020-07-30T09:03:14.059Z</time>
      </trkpt>
      <trkpt lat="62.16955" lon="5.64336">
        <ele>52.641259</ele>
        <time>2020-07-30T09:29:26.442Z</time>
      </trkpt>
      <trkpt lat="62.16961" lon="5.6435">
        <ele>52.598002</ele>
        <time>2020-07-30T09:29:31.443Z</time>
      </trkpt>
      <trkpt lat="62.16969" lon="5.64362">
        <ele>52.556363</ele>
        <time>2020-07-30T09:29:35.456Z</time>
      </trkpt>
      <trkpt lat="62.16977" lon="5.64371">
        <ele>52.512439</ele>
        <time>2020-07-30T09:29:44.448Z</time>
      </trkpt>
      <trkpt lat="62.16987" lon="5.64369">
        <ele>52.470456</ele>
        <time>2020-07-30T09:29:50.454Z</time>
      </trkpt>
      <trkpt lat="62.16995" lon="5.64378">
        <ele>52.429449</ele>
        <time>2020-07-30T09:29:55.445Z</time>
      </trkpt>
      <trkpt lat="62.17011" lon="5.64403">
        <ele>52.340655</ele>
        <time>2020-07-30T09:30:51.460Z</time>
      </trkpt>
      <trkpt lat="62.17017" lon="5.64422">
        <ele>52.482103</ele>
        <time>2020-07-30T09:30:54.447Z</time>
      </trkpt>
      <trkpt lat="62.17022" lon="5.64438">
        <ele>52.911236</ele>
        <time>2020-07-30T09:30:57.446Z</time>
      </trkpt>
      <trkpt lat="62.17029" lon="5.64452">
        <ele>53.357009</ele>
        <time>2020-07-30T09:31:01.448Z</time>
      </trkpt>
      <trkpt lat="62.17037" lon="5.64468">
        <ele>53.835397</ele>
        <time>2020-07-30T09:31:05.467Z</time>
      </trkpt>
      <trkpt lat="62.17044" lon="5.64482">
        <ele>54.286343</ele>
        <time>2020-07-30T09:31:10.438Z</time>
      </trkpt>
      <trkpt lat="62.17053" lon="5.64492">
        <ele>54.75258</ele>
        <time>2020-07-30T09:31:14.458Z</time>
      </trkpt>
      <trkpt lat="62.17061" lon="5.64503">
        <ele>55.198926</ele>
        <time>2020-07-30T09:31:18.456Z</time>
      </trkpt>
      <trkpt lat="62.17069" lon="5.64518">
        <ele>55.669897</ele>
        <time>2020-07-30T09:31:23.452Z</time>
      </trkpt>
      <trkpt lat="62.1708" lon="5.64527">
        <ele>56.209705</ele>
        <time>2020-07-30T09:31:29.461Z</time>
      </trkpt>
      <trkpt lat="62.1709" lon="5.64535">
        <ele>56.709699</ele>
        <time>2020-07-30T09:31:34.453Z</time>
      </trkpt>
      <trkpt lat="62.171" lon="5.64541">
        <ele>57.198228</ele>
        <time>2020-07-30T09:31:38.452Z</time>
      </trkpt>
      <trkpt lat="62.17111" lon="5.64548">
        <ele>57.739633</ele>
        <time>2020-07-30T09:31:42.458Z</time>
      </trkpt>
      <trkpt lat="62.17123" lon="5.64551">
        <ele>58.293994</ele>
        <time>2020-07-30T09:31:46.471Z</time>
      </trkpt>
      <trkpt lat="62.17135" lon="5.64556">
        <ele>58.859132</ele>
        <time>2020-07-30T09:31:50.474Z</time>
      </trkpt>
      <trkpt lat="62.17149" lon="5.64559">
        <ele>59.484494</ele>
        <time>2020-07-30T09:31:54.451Z</time>
      </trkpt>
      <trkpt lat="62.17161" lon="5.64561">
        <ele>60.035427</ele>
        <time>2020-07-30T09:31:58.459Z</time>
      </trkpt>
      <trkpt lat="62.1717" lon="5.64563">
        <ele>60.456918</ele>
        <time>2020-07-30T09:32:01.459Z</time>
      </trkpt>
      <trkpt lat="62.17181" lon="5.64565">
        <ele>60.819068</ele>
        <time>2020-07-30T09:32:04.467Z</time>
      </trkpt>
      <trkpt lat="62.17193" lon="5.64566">
        <ele>61.115239</ele>
        <time>2020-07-30T09:32:06.462Z</time>
      </trkpt>
      <trkpt lat="62.17202" lon="5.64565">
        <ele>61.369552</ele>
        <time>2020-07-30T09:32:08.472Z</time>
      </trkpt>
      <trkpt lat="62.17215" lon="5.64565">
        <ele>61.707379</ele>
        <time>2020-07-30T09:32:11.449Z</time>
      </trkpt>
      <trkpt lat="62.17224" lon="5.64565">
        <ele>61.948308</ele>
        <time>2020-07-30T09:32:13.430Z</time>
      </trkpt>
      <trkpt lat="62.17237" lon="5.64565">
        <ele>62.270451</ele>
        <time>2020-07-30T09:32:16.471Z</time>
      </trkpt>
      <trkpt lat="62.17249" lon="5.64565">
        <ele>62.589976</ele>
        <time>2020-07-30T09:32:19.482Z</time>
      </trkpt>
      <trkpt lat="62.17262" lon="5.64565">
        <ele>62.930422</ele>
        <time>2020-07-30T09:32:22.475Z</time>
      </trkpt>
      <trkpt lat="62.17275" lon="5.64564">
        <ele>63.265999</ele>
        <time>2020-07-30T09:32:25.472Z</time>
      </trkpt>
      <trkpt lat="62.17287" lon="5.64564">
        <ele>63.588108</ele>
        <time>2020-07-30T09:32:28.469Z</time>
      </trkpt>
      <trkpt lat="62.173" lon="5.64564">
        <ele>63.925935</ele>
        <time>2020-07-30T09:32:31.448Z</time>
      </trkpt>
      <trkpt lat="62.17312" lon="5.64561">
        <ele>64.244919</ele>
        <time>2020-07-30T09:32:34.463Z</time>
      </trkpt>
      <trkpt lat="62.17324" lon="5.64558">
        <ele>64.560424</ele>
        <time>2020-07-30T09:32:37.470Z</time>
      </trkpt>
      <trkpt lat="62.17337" lon="5.64558">
        <ele>64.893015</ele>
        <time>2020-07-30T09:32:40.468Z</time>
      </trkpt>
      <trkpt lat="62.17349" lon="5.64557">
        <ele>65.22336</ele>
        <time>2020-07-30T09:32:43.465Z</time>
      </trkpt>
      <trkpt lat="62.17363" lon="5.64555">
        <ele>65.282194</ele>
        <time>2020-07-30T09:32:47.475Z</time>
      </trkpt>
      <trkpt lat="62.17372" lon="5.64554">
        <ele>65.261117</ele>
        <time>2020-07-30T09:32:49.460Z</time>
      </trkpt>
      <trkpt lat="62.17382" lon="5.64553">
        <ele>65.239604</ele>
        <time>2020-07-30T09:32:51.471Z</time>
      </trkpt>
      <trkpt lat="62.17391" lon="5.64551">
        <ele>65.219219</ele>
        <time>2020-07-30T09:32:53.463Z</time>
      </trkpt>
      <trkpt lat="62.17404" lon="5.64549">
        <ele>65.189997</ele>
        <time>2020-07-30T09:32:56.460Z</time>
      </trkpt>
      <trkpt lat="62.17416" lon="5.64548">
        <ele>65.160806</ele>
        <time>2020-07-30T09:32:59.449Z</time>
      </trkpt>
      <trkpt lat="62.1743" lon="5.64547">
        <ele>65.130487</ele>
        <time>2020-07-30T09:33:02.454Z</time>
      </trkpt>
      <trkpt lat="62.17443" lon="5.64545">
        <ele>65.100356</ele>
        <time>2020-07-30T09:33:05.449Z</time>
      </trkpt>
      <trkpt lat="62.17452" lon="5.64543">
        <ele>65.07997</ele>
        <time>2020-07-30T09:33:08.441Z</time>
      </trkpt>
      <trkpt lat="62.17462" lon="5.64542">
        <ele>65.057561</ele>
        <time>2020-07-30T09:33:10.448Z</time>
      </trkpt>
      <trkpt lat="62.17471" lon="5.64541">
        <ele>65.037208</ele>
        <time>2020-07-30T09:33:13.455Z</time>
      </trkpt>
      <trkpt lat="62.1748" lon="5.6454">
        <ele>65.016378</ele>
        <time>2020-07-30T09:33:15.453Z</time>
      </trkpt>
      <trkpt lat="62.1749" lon="5.64538">
        <ele>64.993924</ele>
        <time>2020-07-30T09:33:18.477Z</time>
      </trkpt>
      <trkpt lat="62.175" lon="5.64536">
        <ele>64.970777</ele>
        <time>2020-07-30T09:33:21.464Z</time>
      </trkpt>
      <trkpt lat="62.17512" lon="5.64534">
        <ele>64.944664</ele>
        <time>2020-07-30T09:33:23.463Z</time>
      </trkpt>
      <trkpt lat="62.17524" lon="5.64533">
        <ele>64.917525</ele>
        <time>2020-07-30T09:33:26.458Z</time>
      </trkpt>
      <trkpt lat="62.17535" lon="5.64531">
        <ele>64.874797</ele>
        <time>2020-07-30T09:33:29.468Z</time>
      </trkpt>
      <trkpt lat="62.17548" lon="5.64529">
        <ele>64.77955</ele>
        <time>2020-07-30T09:33:31.474Z</time>
      </trkpt>
      <trkpt lat="62.1756" lon="5.64529">
        <ele>64.686029</ele>
        <time>2020-07-30T09:33:34.454Z</time>
      </trkpt>
      <trkpt lat="62.17572" lon="5.64528">
        <ele>64.596272</ele>
        <time>2020-07-30T09:33:37.467Z</time>
      </trkpt>
      <trkpt lat="62.17585" lon="5.64526">
        <ele>64.498838</ele>
        <time>2020-07-30T09:33:39.474Z</time>
      </trkpt>
      <trkpt lat="62.17597" lon="5.64526">
        <ele>64.403064</ele>
        <time>2020-07-30T09:33:42.485Z</time>
      </trkpt>
      <trkpt lat="62.19081" lon="5.63765">
        <ele>55.889577</ele>
        <time>2020-07-30T09:39:35.074Z</time>
      </trkpt>
      <trkpt lat="62.19081" lon="5.63744">
        <ele>56.013128</ele>
        <time>2020-07-30T09:39:37.190Z</time>
      </trkpt>
      <trkpt lat="62.19082" lon="5.63722">
        <ele>56.146753</ele>
        <time>2020-07-30T09:39:40.372Z</time>
      </trkpt>
      <trkpt lat="62.19087" lon="5.63703">
        <ele>56.281431</ele>
        <time>2020-07-30T09:39:45.386Z</time>
      </trkpt>
      <trkpt lat="62.19093" lon="5.63684">
        <ele>56.455416</ele>
        <time>2020-07-30T09:39:50.382Z</time>
      </trkpt>
      <trkpt lat="62.191" lon="5.63666">
        <ele>56.626987</ele>
        <time>2020-07-30T09:39:54.352Z</time>
      </trkpt>
      <trkpt lat="62.19107" lon="5.63651">
        <ele>56.780624</ele>
        <time>2020-07-30T09:39:58.377Z</time>
      </trkpt>
      <trkpt lat="62.19112" lon="5.63634">
        <ele>56.926412</ele>
        <time>2020-07-30T09:40:03.401Z</time>
      </trkpt>
      <trkpt lat="62.19116" lon="5.63613">
        <ele>57.097027</ele>
        <time>2020-07-30T09:40:09.452Z</time>
      </trkpt>
      <trkpt lat="62.19122" lon="5.63596">
        <ele>57.253516</ele>
        <time>2020-07-30T09:40:16.430Z</time>
      </trkpt>
      <trkpt lat="62.19127" lon="5.63578">
        <ele>57.403118</ele>
        <time>2020-07-30T09:40:24.384Z</time>
      </trkpt>
      <trkpt lat="62.1913" lon="5.6352">
        <ele>57.827943</ele>
        <time>2020-07-30T09:42:45.416Z</time>
      </trkpt>
      <trkpt lat="62.19132" lon="5.63495">
        <ele>58.015207</ele>
        <time>2020-07-30T09:42:48.383Z</time>
      </trkpt>
      <trkpt lat="62.19132" lon="5.63473">
        <ele>58.17684</ele>
        <time>2020-07-30T09:42:51.387Z</time>
      </trkpt>
      <trkpt lat="62.19135" lon="5.63451">
        <ele>58.348474</ele>
        <time>2020-07-30T09:42:54.379Z</time>
      </trkpt>
      <trkpt lat="62.1914" lon="5.63432">
        <ele>58.508327</ele>
        <time>2020-07-30T09:42:57.386Z</time>
      </trkpt>
      <trkpt lat="62.19144" lon="5.63412">
        <ele>58.66676</ele>
        <time>2020-07-30T09:43:00.424Z</time>
      </trkpt>
      <trkpt lat="62.19149" lon="5.63396">
        <ele>58.809395</ele>
        <time>2020-07-30T09:43:03.393Z</time>
      </trkpt>
      <trkpt lat="62.19155" lon="5.63377">
        <ele>58.975865</ele>
        <time>2020-07-30T09:43:07.376Z</time>
      </trkpt>
      <trkpt lat="62.19161" lon="5.63362">
        <ele>59.046437</ele>
        <time>2020-07-30T09:43:11.384Z</time>
      </trkpt>
      <trkpt lat="62.19167" lon="5.63347">
        <ele>58.968469</ele>
        <time>2020-07-30T09:43:17.404Z</time>
      </trkpt>
      <trkpt lat="62.19174" lon="5.63334">
        <ele>58.89332</ele>
        <time>2020-07-30T09:43:24.391Z</time>
      </trkpt>
      <trkpt lat="62.19178" lon="5.63317">
        <ele>58.817601</ele>
        <time>2020-07-30T09:43:30.405Z</time>
      </trkpt>
      <trkpt lat="62.1918" lon="5.63297">
        <ele>58.737049</ele>
        <time>2020-07-30T09:43:36.383Z</time>
      </trkpt>
      <trkpt lat="62.19181" lon="5.63276">
        <ele>58.65697</ele>
        <time>2020-07-30T09:43:41.417Z</time>
      </trkpt>
      <trkpt lat="62.19182" lon="5.63253">
        <ele>58.568118</ele>
        <time>2020-07-30T09:43:47.388Z</time>
      </trkpt>
      <trkpt lat="62.19181" lon="5.63231">
        <ele>58.481972</ele>
        <time>2020-07-30T09:43:53.403Z</time>
      </trkpt>
      <trkpt lat="62.19182" lon="5.6321">
        <ele>58.4024</ele>
        <time>2020-07-30T09:43:59.406Z</time>
      </trkpt>
      <trkpt lat="62.19182" lon="5.63188">
        <ele>58.313683</ele>
        <time>2020-07-30T09:44:05.384Z</time>
      </trkpt>
      <trkpt lat="62.19181" lon="5.63166">
        <ele>58.231131</ele>
        <time>2020-07-30T09:44:10.415Z</time>
      </trkpt>
      <trkpt lat="62.19182" lon="5.63146">
        <ele>58.151503</ele>
        <time>2020-07-30T09:44:15.381Z</time>
      </trkpt>
      <trkpt lat="62.19183" lon="5.63122">
        <ele>58.059451</ele>
        <time>2020-07-30T09:44:20.445Z</time>
      </trkpt>
      <trkpt lat="62.19183" lon="5.63098">
        <ele>57.967251</ele>
        <time>2020-07-30T09:44:25.376Z</time>
      </trkpt>
      <trkpt lat="62.19184" lon="5.63078">
        <ele>57.887099</ele>
        <time>2020-07-30T09:44:29.389Z</time>
      </trkpt>
      <trkpt lat="62.19184" lon="5.63056">
        <ele>57.802159</ele>
        <time>2020-07-30T09:44:33.383Z</time>
      </trkpt>
      <trkpt lat="62.19185" lon="5.63031">
        <ele>57.707657</ele>
        <time>2020-07-30T09:44:37.398Z</time>
      </trkpt>
      <trkpt lat="62.19187" lon="5.63006">
        <ele>57.608669</ele>
        <time>2020-07-30T09:44:41.402Z</time>
      </trkpt>
      <trkpt lat="62.19187" lon="5.62985">
        <ele>57.858142</ele>
        <time>2020-07-30T09:44:44.384Z</time>
      </trkpt>
      <trkpt lat="62.19188" lon="5.62964">
        <ele>58.329071</ele>
        <time>2020-07-30T09:44:47.387Z</time>
      </trkpt>
      <trkpt lat="62.19188" lon="5.62942">
        <ele>58.810014</ele>
        <time>2020-07-30T09:44:50.397Z</time>
      </trkpt>
      <trkpt lat="62.19189" lon="5.62918">
        <ele>59.331849</ele>
        <time>2020-07-30T09:44:53.390Z</time>
      </trkpt>
      <trkpt lat="62.1919" lon="5.62895">
        <ele>59.852851</ele>
        <time>2020-07-30T09:44:56.386Z</time>
      </trkpt>
      <trkpt lat="62.19191" lon="5.62872">
        <ele>60.3514</ele>
        <time>2020-07-30T09:44:59.372Z</time>
      </trkpt>
      <trkpt lat="62.19193" lon="5.62849">
        <ele>60.849395</ele>
        <time>2020-07-30T09:45:02.372Z</time>
      </trkpt>
      <trkpt lat="62.19194" lon="5.62828">
        <ele>61.313097</ele>
        <time>2020-07-30T09:45:05.408Z</time>
      </trkpt>
      <trkpt lat="62.19194" lon="5.62808">
        <ele>61.768706</ele>
        <time>2020-07-30T09:45:08.400Z</time>
      </trkpt>
      <trkpt lat="62.19194" lon="5.62788">
        <ele>62.200245</ele>
        <time>2020-07-30T09:45:11.424Z</time>
      </trkpt>
      <trkpt lat="62.19193" lon="5.62763">
        <ele>62.746128</ele>
        <time>2020-07-30T09:45:15.391Z</time>
      </trkpt>
      <trkpt lat="62.19194" lon="5.6274">
        <ele>63.260589</ele>
        <time>2020-07-30T09:45:19.383Z</time>
      </trkpt>
      <trkpt lat="62.19193" lon="5.62719">
        <ele>63.724476</ele>
        <time>2020-07-30T09:45:23.395Z</time>
      </trkpt>
      <trkpt lat="62.19192" lon="5.62696">
        <ele>64.215997</ele>
        <time>2020-07-30T09:45:27.418Z</time>
      </trkpt>
      <trkpt lat="62.19191" lon="5.62673">
        <ele>64.730051</ele>
        <time>2020-07-30T09:45:31.388Z</time>
      </trkpt>
      <trkpt lat="62.19191" lon="5.62649">
        <ele>65.254072</ele>
        <time>2020-07-30T09:45:35.419Z</time>
      </trkpt>
      <trkpt lat="62.19191" lon="5.62625">
        <ele>65.786175</ele>
        <time>2020-07-30T09:45:39.373Z</time>
      </trkpt>
      <trkpt lat="62.1919" lon="5.62601">
        <ele>66.04035</ele>
        <time>2020-07-30T09:45:43.409Z</time>
      </trkpt>
      <trkpt lat="62.19189" lon="5.62577">
        <ele>66.078706</ele>
        <time>2020-07-30T09:45:47.381Z</time>
      </trkpt>
      <trkpt lat="62.19187" lon="5.62552">
        <ele>66.117405</ele>
        <time>2020-07-30T09:45:51.397Z</time>
      </trkpt>
      <trkpt lat="62.19184" lon="5.6253">
        <ele>66.154553</ele>
        <time>2020-07-30T09:45:55.376Z</time>
      </trkpt>
      <trkpt lat="62.1918" lon="5.62508">
        <ele>66.191948</ele>
        <time>2020-07-30T09:45:59.420Z</time>
      </trkpt>
      <trkpt lat="62.19174" lon="5.62489">
        <ele>66.228352</ele>
        <time>2020-07-30T09:46:03.389Z</time>
      </trkpt>
      <trkpt lat="62.19167" lon="5.62471">
        <ele>66.264967</ele>
        <time>2020-07-30T09:46:07.410Z</time>
      </trkpt>
      <trkpt lat="62.1916" lon="5.62454">
        <ele>66.300832</ele>
        <time>2020-07-30T09:46:11.421Z</time>
      </trkpt>
      <trkpt lat="62.19153" lon="5.62436">
        <ele>66.338056</ele>
        <time>2020-07-30T09:46:15.377Z</time>
      </trkpt>
      <trkpt lat="62.19146" lon="5.6242">
        <ele>66.371765</ele>
        <time>2020-07-30T09:46:19.387Z</time>
      </trkpt>
      <trkpt lat="62.1914" lon="5.62403">
        <ele>66.406731</ele>
        <time>2020-07-30T09:46:23.422Z</time>
      </trkpt>
      <trkpt lat="62.19134" lon="5.62382">
        <ele>66.445042</ele>
        <time>2020-07-30T09:46:27.386Z</time>
      </trkpt>
      <trkpt lat="62.19129" lon="5.62364">
        <ele>66.478427</ele>
        <time>2020-07-30T09:46:30.380Z</time>
      </trkpt>
      <trkpt lat="62.19123" lon="5.62343">
        <ele>66.51701</ele>
        <time>2020-07-30T09:46:33.408Z</time>
      </trkpt>
      <trkpt lat="62.19117" lon="5.62321">
        <ele>66.556494</ele>
        <time>2020-07-30T09:46:36.398Z</time>
      </trkpt>
      <trkpt lat="62.19111" lon="5.623">
        <ele>66.595702</ele>
        <time>2020-07-30T09:46:39.396Z</time>
      </trkpt>
      <trkpt lat="62.19105" lon="5.6228">
        <ele>66.655033</ele>
        <time>2020-07-30T09:46:42.397Z</time>
      </trkpt>
      <trkpt lat="62.19099" lon="5.62258">
        <ele>66.867854</ele>
        <time>2020-07-30T09:46:45.405Z</time>
      </trkpt>
      <trkpt lat="62.19092" lon="5.62239">
        <ele>67.0721</ele>
        <time>2020-07-30T09:46:48.376Z</time>
      </trkpt>
      <trkpt lat="62.19084" lon="5.62217">
        <ele>67.302836</ele>
        <time>2020-07-30T09:46:51.405Z</time>
      </trkpt>
      <trkpt lat="62.19075" lon="5.62196">
        <ele>67.539113</ele>
        <time>2020-07-30T09:46:54.411Z</time>
      </trkpt>
      <trkpt lat="62.19066" lon="5.62176">
        <ele>67.77175</ele>
        <time>2020-07-30T09:46:57.390Z</time>
      </trkpt>
      <trkpt lat="62.19057" lon="5.62157">
        <ele>67.995404</ele>
        <time>2020-07-30T09:47:00.407Z</time>
      </trkpt>
      <trkpt lat="62.19049" lon="5.62138">
        <ele>68.212171</ele>
        <time>2020-07-30T09:47:03.403Z</time>
      </trkpt>
      <trkpt lat="62.1904" lon="5.6212">
        <ele>68.431357</ele>
        <time>2020-07-30T09:47:06.378Z</time>
      </trkpt>
      <trkpt lat="62.19032" lon="5.621">
        <ele>68.656459</ele>
        <time>2020-07-30T09:47:09.392Z</time>
      </trkpt>
      <trkpt lat="62.19026" lon="5.62079">
        <ele>68.859958</ele>
        <time>2020-07-30T09:47:12.425Z</time>
      </trkpt>
      <trkpt lat="62.19022" lon="5.62054">
        <ele>69.079075</ele>
        <time>2020-07-30T09:47:15.383Z</time>
      </trkpt>
      <trkpt lat="62.19019" lon="5.62027">
        <ele>69.312108</ele>
        <time>2020-07-30T09:47:18.380Z</time>
      </trkpt>
      <trkpt lat="62.1902" lon="5.62007">
        <ele>69.477795</ele>
        <time>2020-07-30T09:47:20.397Z</time>
      </trkpt>
      <trkpt lat="62.19021" lon="5.61983">
        <ele>69.681499</ele>
        <time>2020-07-30T09:47:22.400Z</time>
      </trkpt>
      <trkpt lat="62.19024" lon="5.61954">
        <ele>69.722234</ele>
        <time>2020-07-30T09:47:24.393Z</time>
      </trkpt>
      <trkpt lat="62.19029" lon="5.61923">
        <ele>69.282133</ele>
        <time>2020-07-30T09:47:26.400Z</time>
      </trkpt>
      <trkpt lat="62.19035" lon="5.61889">
        <ele>68.790581</ele>
        <time>2020-07-30T09:47:28.435Z</time>
      </trkpt>
      <trkpt lat="62.19038" lon="5.61871">
        <ele>68.528978</ele>
        <time>2020-07-30T09:47:29.392Z</time>
      </trkpt>
      <trkpt lat="62.19041" lon="5.61852">
        <ele>68.256234</ele>
        <time>2020-07-30T09:47:30.376Z</time>
      </trkpt>
      <trkpt lat="62.19044" lon="5.61831">
        <ele>67.974513</ele>
        <time>2020-07-30T09:47:31.387Z</time>
      </trkpt>
      <trkpt lat="62.19046" lon="5.61811">
        <ele>67.697045</ele>
        <time>2020-07-30T09:47:32.389Z</time>
      </trkpt>
      <trkpt lat="62.19048" lon="5.61791">
        <ele>67.423248</ele>
        <time>2020-07-30T09:47:33.409Z</time>
      </trkpt>
      <trkpt lat="62.19049" lon="5.6177">
        <ele>67.14126</ele>
        <time>2020-07-30T09:47:34.409Z</time>
      </trkpt>
      <trkpt lat="62.19049" lon="5.61748">
        <ele>66.848476</ele>
        <time>2020-07-30T09:47:35.401Z</time>
      </trkpt>
      <trkpt lat="62.19049" lon="5.61726">
        <ele>66.5481</ele>
        <time>2020-07-30T09:47:36.393Z</time>
      </trkpt>
      <trkpt lat="62.19049" lon="5.61704">
        <ele>66.256654</ele>
        <time>2020-07-30T09:47:37.384Z</time>
      </trkpt>
      <trkpt lat="62.19048" lon="5.61683">
        <ele>65.975253</ele>
        <time>2020-07-30T09:47:38.389Z</time>
      </trkpt>
      <trkpt lat="62.19047" lon="5.61664">
        <ele>65.712537</ele>
        <time>2020-07-30T09:47:39.394Z</time>
      </trkpt>
      <trkpt lat="62.19046" lon="5.61629">
        <ele>65.245401</ele>
        <time>2020-07-30T09:47:41.376Z</time>
      </trkpt>
      <trkpt lat="62.19047" lon="5.61597">
        <ele>64.818085</ele>
        <time>2020-07-30T09:47:43.363Z</time>
      </trkpt>
      <trkpt lat="62.19048" lon="5.61572">
        <ele>64.607486</ele>
        <time>2020-07-30T09:47:45.400Z</time>
      </trkpt>
      <trkpt lat="62.1905" lon="5.61551">
        <ele>64.506585</ele>
        <time>2020-07-30T09:47:47.393Z</time>
      </trkpt>
      <trkpt lat="62.19054" lon="5.61524">
        <ele>64.374909</ele>
        <time>2020-07-30T09:47:50.384Z</time>
      </trkpt>
      <trkpt lat="62.19057" lon="5.61506">
        <ele>64.281843</ele>
        <time>2020-07-30T09:47:52.384Z</time>
      </trkpt>
      <trkpt lat="62.1906" lon="5.61487">
        <ele>64.187112</ele>
        <time>2020-07-30T09:47:54.395Z</time>
      </trkpt>
      <trkpt lat="62.19063" lon="5.61468">
        <ele>64.090681</ele>
        <time>2020-07-30T09:47:56.421Z</time>
      </trkpt>
      <trkpt lat="62.19067" lon="5.61449">
        <ele>63.992341</ele>
        <time>2020-07-30T09:47:58.376Z</time>
      </trkpt>
      <trkpt lat="62.19071" lon="5.6143">
        <ele>63.89442</ele>
        <time>2020-07-30T09:48:00.394Z</time>
      </trkpt>
      <trkpt lat="62.19075" lon="5.61412">
        <ele>63.799074</ele>
        <time>2020-07-30T09:48:02.377Z</time>
      </trkpt>
      <trkpt lat="62.19079" lon="5.61395">
        <ele>63.707605</ele>
        <time>2020-07-30T09:48:04.401Z</time>
      </trkpt>
      <trkpt lat="62.19082" lon="5.61376">
        <ele>63.614553</ele>
        <time>2020-07-30T09:48:06.384Z</time>
      </trkpt>
      <trkpt lat="62.19085" lon="5.61357">
        <ele>63.52118</ele>
        <time>2020-07-30T09:48:08.375Z</time>
      </trkpt>
      <trkpt lat="62.19087" lon="5.61337">
        <ele>63.424254</ele>
        <time>2020-07-30T09:48:10.426Z</time>
      </trkpt>
      <trkpt lat="62.19089" lon="5.61316">
        <ele>63.322611</ele>
        <time>2020-07-30T09:48:12.392Z</time>
      </trkpt>
      <trkpt lat="62.19091" lon="5.61297">
        <ele>63.227951</ele>
        <time>2020-07-30T09:48:14.419Z</time>
      </trkpt>
      <trkpt lat="62.19091" lon="5.61277">
        <ele>63.132439</ele>
        <time>2020-07-30T09:48:16.376Z</time>
      </trkpt>
      <trkpt lat="62.19091" lon="5.61256">
        <ele>63.032907</ele>
        <time>2020-07-30T09:48:18.398Z</time>
      </trkpt>
      <trkpt lat="62.19092" lon="5.61235">
        <ele>62.936105</ele>
        <time>2020-07-30T09:48:20.380Z</time>
      </trkpt>
      <trkpt lat="62.19092" lon="5.61214">
        <ele>62.898742</ele>
        <time>2020-07-30T09:48:22.397Z</time>
      </trkpt>
      <trkpt lat="62.19092" lon="5.61193">
        <ele>63.219148</ele>
        <time>2020-07-30T09:48:24.380Z</time>
      </trkpt>
      <trkpt lat="62.19093" lon="5.61173">
        <ele>63.535231</ele>
        <time>2020-07-30T09:48:26.397Z</time>
      </trkpt>
      <trkpt lat="62.19093" lon="5.61152">
        <ele>63.855621</ele>
        <time>2020-07-30T09:48:28.374Z</time>
      </trkpt>
      <trkpt lat="62.19092" lon="5.61131">
        <ele>64.171857</ele>
        <time>2020-07-30T09:48:30.386Z</time>
      </trkpt>
      <trkpt lat="62.19091" lon="5.61111">
        <ele>64.47267</ele>
        <time>2020-07-30T09:48:32.401Z</time>
      </trkpt>
      <trkpt lat="62.19089" lon="5.61084">
        <ele>64.894383</ele>
        <time>2020-07-30T09:48:35.420Z</time>
      </trkpt>
      <trkpt lat="62.19086" lon="5.6106">
        <ele>65.282544</ele>
        <time>2020-07-30T09:48:38.397Z</time>
      </trkpt>
      <trkpt lat="62.19082" lon="5.61034">
        <ele>65.693686</ele>
        <time>2020-07-30T09:48:41.381Z</time>
      </trkpt>
      <trkpt lat="62.19077" lon="5.61011">
        <ele>66.079573</ele>
        <time>2020-07-30T09:48:44.387Z</time>
      </trkpt>
      <trkpt lat="62.19074" lon="5.60991">
        <ele>66.402366</ele>
        <time>2020-07-30T09:48:47.385Z</time>
      </trkpt>
      <trkpt lat="62.19069" lon="5.60974">
        <ele>66.702541</ele>
        <time>2020-07-30T09:48:50.396Z</time>
      </trkpt>
      <trkpt lat="62.19063" lon="5.60954">
        <ele>67.076558</ele>
        <time>2020-07-30T09:48:54.401Z</time>
      </trkpt>
      <trkpt lat="62.19057" lon="5.60935">
        <ele>67.416081</ele>
        <time>2020-07-30T09:48:58.391Z</time>
      </trkpt>
      <trkpt lat="62.19052" lon="5.60918">
        <ele>67.721516</ele>
        <time>2020-07-30T09:49:02.382Z</time>
      </trkpt>
      <trkpt lat="62.19048" lon="5.60897">
        <ele>68.075468</ele>
        <time>2020-07-30T09:49:07.387Z</time>
      </trkpt>
      <trkpt lat="62.19045" lon="5.60878">
        <ele>68.372255</ele>
        <time>2020-07-30T09:49:11.396Z</time>
      </trkpt>
      <trkpt lat="62.19042" lon="5.60856">
        <ele>68.721047</ele>
        <time>2020-07-30T09:49:16.369Z</time>
      </trkpt>
      <trkpt lat="62.1904" lon="5.60836">
        <ele>69.635913</ele>
        <time>2020-07-30T09:49:20.396Z</time>
      </trkpt>
      <trkpt lat="62.19037" lon="5.60818">
        <ele>70.559623</ele>
        <time>2020-07-30T09:49:24.392Z</time>
      </trkpt>
      <trkpt lat="62.19034" lon="5.60794">
        <ele>71.681845</ele>
        <time>2020-07-30T09:49:29.395Z</time>
      </trkpt>
      <trkpt lat="62.19033" lon="5.60771">
        <ele>72.757263</ele>
        <time>2020-07-30T09:49:33.414Z</time>
      </trkpt>
      <trkpt lat="62.1903" lon="5.60751">
        <ele>73.739568</ele>
        <time>2020-07-30T09:49:37.407Z</time>
      </trkpt>
      <trkpt lat="62.19031" lon="5.6073">
        <ele>74.70324</ele>
        <time>2020-07-30T09:49:41.402Z</time>
      </trkpt>
      <trkpt lat="62.19031" lon="5.60707">
        <ele>75.773203</ele>
        <time>2020-07-30T09:49:45.372Z</time>
      </trkpt>
      <trkpt lat="62.19031" lon="5.60684">
        <ele>76.814302</ele>
        <time>2020-07-30T09:49:49.381Z</time>
      </trkpt>
      <trkpt lat="62.1903" lon="5.6066">
        <ele>77.9552</ele>
        <time>2020-07-30T09:49:53.390Z</time>
      </trkpt>
      <trkpt lat="62.19031" lon="5.60637">
        <ele>79.011298</ele>
        <time>2020-07-30T09:49:57.432Z</time>
      </trkpt>
      <trkpt lat="62.19032" lon="5.60615">
        <ele>80.033955</ele>
        <time>2020-07-30T09:50:01.419Z</time>
      </trkpt>
      <trkpt lat="62.19033" lon="5.60594">
        <ele>81.030102</ele>
        <time>2020-07-30T09:50:05.421Z</time>
      </trkpt>
      <trkpt lat="62.19035" lon="5.60572">
        <ele>82.069862</ele>
        <time>2020-07-30T09:50:09.402Z</time>
      </trkpt>
      <trkpt lat="62.19038" lon="5.60549">
        <ele>83.142287</ele>
        <time>2020-07-30T09:50:13.383Z</time>
      </trkpt>
      <trkpt lat="62.1904" lon="5.60528">
        <ele>84.145053</ele>
        <time>2020-07-30T09:50:17.386Z</time>
      </trkpt>
      <trkpt lat="62.19042" lon="5.60507">
        <ele>85.145409</ele>
        <time>2020-07-30T09:50:21.412Z</time>
      </trkpt>
      <trkpt lat="62.19044" lon="5.60487">
        <ele>86.062588</ele>
        <time>2020-07-30T09:50:25.377Z</time>
      </trkpt>
      <trkpt lat="62.19046" lon="5.60467">
        <ele>86.585271</ele>
        <time>2020-07-30T09:50:29.376Z</time>
      </trkpt>
      <trkpt lat="62.19048" lon="5.60444">
        <ele>86.61501</ele>
        <time>2020-07-30T09:50:34.419Z</time>
      </trkpt>
      <trkpt lat="62.1905" lon="5.60425">
        <ele>86.640207</ele>
        <time>2020-07-30T09:50:38.407Z</time>
      </trkpt>
      <trkpt lat="62.19053" lon="5.60407">
        <ele>86.665076</ele>
        <time>2020-07-30T09:50:42.400Z</time>
      </trkpt>
      <trkpt lat="62.19056" lon="5.60387">
        <ele>86.69192</ele>
        <time>2020-07-30T09:50:46.429Z</time>
      </trkpt>
      <trkpt lat="62.1906" lon="5.60369">
        <ele>86.71783</ele>
        <time>2020-07-30T09:50:50.441Z</time>
      </trkpt>
      <trkpt lat="62.19064" lon="5.60347">
        <ele>86.748674</ele>
        <time>2020-07-30T09:50:55.383Z</time>
      </trkpt>
      <trkpt lat="62.19068" lon="5.60329">
        <ele>86.774483</ele>
        <time>2020-07-30T09:50:59.382Z</time>
      </trkpt>
      <trkpt lat="62.19071" lon="5.60306">
        <ele>86.805115</ele>
        <time>2020-07-30T09:51:04.403Z</time>
      </trkpt>
      <trkpt lat="62.19075" lon="5.60287">
        <ele>86.831641</ele>
        <time>2020-07-30T09:51:09.379Z</time>
      </trkpt>
      <trkpt lat="62.19079" lon="5.60267">
        <ele>86.860246</ele>
        <time>2020-07-30T09:51:14.372Z</time>
      </trkpt>
      <trkpt lat="62.19084" lon="5.60248">
        <ele>86.888576</ele>
        <time>2020-07-30T09:51:19.382Z</time>
      </trkpt>
      <trkpt lat="62.19089" lon="5.6023">
        <ele>86.916514</ele>
        <time>2020-07-30T09:51:24.400Z</time>
      </trkpt>
      <trkpt lat="62.19094" lon="5.60209">
        <ele>86.946308</ele>
        <time>2020-07-30T09:51:30.410Z</time>
      </trkpt>
      <trkpt lat="62.19099" lon="5.60191">
        <ele>86.974051</ele>
        <time>2020-07-30T09:51:36.407Z</time>
      </trkpt>
      <trkpt lat="62.19105" lon="5.60173">
        <ele>87.001181</ele>
        <time>2020-07-30T09:51:41.413Z</time>
      </trkpt>
      <trkpt lat="62.1911" lon="5.60156">
        <ele>87.02714</ele>
        <time>2020-07-30T09:51:46.451Z</time>
      </trkpt>
      <trkpt lat="62.19115" lon="5.60141">
        <ele>87.0526</ele>
        <time>2020-07-30T09:51:51.399Z</time>
      </trkpt>
      <trkpt lat="62.19123" lon="5.60125">
        <ele>87.147983</ele>
        <time>2020-07-30T09:51:57.392Z</time>
      </trkpt>
      <trkpt lat="62.1913" lon="5.6011">
        <ele>87.372516</ele>
        <time>2020-07-30T09:52:03.387Z</time>
      </trkpt>
      <trkpt lat="62.19137" lon="5.60091">
        <ele>87.60578</ele>
        <time>2020-07-30T09:52:09.399Z</time>
      </trkpt>
      <trkpt lat="62.19143" lon="5.60076">
        <ele>87.808888</ele>
        <time>2020-07-30T09:52:14.378Z</time>
      </trkpt>
      <trkpt lat="62.19148" lon="5.60059">
        <ele>88.012816</ele>
        <time>2020-07-30T09:52:19.401Z</time>
      </trkpt>
      <trkpt lat="62.19154" lon="5.60042">
        <ele>88.219621</ele>
        <time>2020-07-30T09:52:24.373Z</time>
      </trkpt>
      <trkpt lat="62.19158" lon="5.60024">
        <ele>88.42389</ele>
        <time>2020-07-30T09:52:29.383Z</time>
      </trkpt>
      <trkpt lat="62.19162" lon="5.60005">
        <ele>88.631862</ele>
        <time>2020-07-30T09:52:34.381Z</time>
      </trkpt>
      <trkpt lat="62.19165" lon="5.59984">
        <ele>88.847173</ele>
        <time>2020-07-30T09:52:39.392Z</time>
      </trkpt>
      <trkpt lat="62.19169" lon="5.59963">
        <ele>89.077637</ele>
        <time>2020-07-30T09:52:44.397Z</time>
      </trkpt>
      <trkpt lat="62.19171" lon="5.59944">
        <ele>89.272803</ele>
        <time>2020-07-30T09:52:48.396Z</time>
      </trkpt>
      <trkpt lat="62.19173" lon="5.59921">
        <ele>89.506148</ele>
        <time>2020-07-30T09:52:53.434Z</time>
      </trkpt>
      <trkpt lat="62.19173" lon="5.59901">
        <ele>89.706751</ele>
        <time>2020-07-30T09:52:57.429Z</time>
      </trkpt>
      <trkpt lat="62.19173" lon="5.59879">
        <ele>89.926359</ele>
        <time>2020-07-30T09:53:01.385Z</time>
      </trkpt>
      <trkpt lat="62.19171" lon="5.59858">
        <ele>90.143782</ele>
        <time>2020-07-30T09:53:05.413Z</time>
      </trkpt>
      <trkpt lat="62.19169" lon="5.59835">
        <ele>90.369107</ele>
        <time>2020-07-30T09:53:09.390Z</time>
      </trkpt>
      <trkpt lat="62.19169" lon="5.59812">
        <ele>90.604566</ele>
        <time>2020-07-30T09:53:13.403Z</time>
      </trkpt>
      <trkpt lat="62.19168" lon="5.59787">
        <ele>90.856292</ele>
        <time>2020-07-30T09:53:17.387Z</time>
      </trkpt>
      <trkpt lat="62.19167" lon="5.59763">
        <ele>91.100053</ele>
        <time>2020-07-30T09:53:21.420Z</time>
      </trkpt>
      <trkpt lat="62.19167" lon="5.59738">
        <ele>91.348035</ele>
        <time>2020-07-30T09:53:25.390Z</time>
      </trkpt>
      <trkpt lat="62.19168" lon="5.59716">
        <ele>91.57708</ele>
        <time>2020-07-30T09:53:29.473Z</time>
      </trkpt>
      <trkpt lat="62.19167" lon="5.59695">
        <ele>91.790604</ele>
        <time>2020-07-30T09:53:33.445Z</time>
      </trkpt>
      <trkpt lat="62.19169" lon="5.5967">
        <ele>92.04777</ele>
        <time>2020-07-30T09:53:37.393Z</time>
      </trkpt>
      <trkpt lat="62.19171" lon="5.59646">
        <ele>92.296176</ele>
        <time>2020-07-30T09:53:41.389Z</time>
      </trkpt>
      <trkpt lat="62.19171" lon="5.59626">
        <ele>92.494657</ele>
        <time>2020-07-30T09:53:44.372Z</time>
      </trkpt>
      <trkpt lat="62.1917" lon="5.59607">
        <ele>92.691784</ele>
        <time>2020-07-30T09:53:47.388Z</time>
      </trkpt>
      <trkpt lat="62.19169" lon="5.59585">
        <ele>92.916897</ele>
        <time>2020-07-30T09:53:51.394Z</time>
      </trkpt>
      <trkpt lat="62.19169" lon="5.59563">
        <ele>93.138497</ele>
        <time>2020-07-30T09:53:55.406Z</time>
      </trkpt>
      <trkpt lat="62.1917" lon="5.59542">
        <ele>93.351454</ele>
        <time>2020-07-30T09:53:58.393Z</time>
      </trkpt>
      <trkpt lat="62.1917" lon="5.59519">
        <ele>93.588266</ele>
        <time>2020-07-30T09:54:01.374Z</time>
      </trkpt>
      <trkpt lat="62.19168" lon="5.59494">
        <ele>93.85006</ele>
        <time>2020-07-30T09:54:04.381Z</time>
      </trkpt>
      <trkpt lat="62.19167" lon="5.59473">
        <ele>94.05812</ele>
        <time>2020-07-30T09:54:06.390Z</time>
      </trkpt>
      <trkpt lat="62.19168" lon="5.59449">
        <ele>94.302192</ele>
        <time>2020-07-30T09:54:08.396Z</time>
      </trkpt>
      <trkpt lat="62.19169" lon="5.59425">
        <ele>94.551329</ele>
        <time>2020-07-30T09:54:10.385Z</time>
      </trkpt>
      <trkpt lat="62.1917" lon="5.59398">
        <ele>94.829692</ele>
        <time>2020-07-30T09:54:12.449Z</time>
      </trkpt>
      <trkpt lat="62.19171" lon="5.59368">
        <ele>93.742132</ele>
        <time>2020-07-30T09:54:14.409Z</time>
      </trkpt>
      <trkpt lat="62.19169" lon="5.59337">
        <ele>92.478768</ele>
        <time>2020-07-30T09:54:16.392Z</time>
      </trkpt>
      <trkpt lat="62.19167" lon="5.59302">
        <ele>91.029779</ele>
        <time>2020-07-30T09:54:18.395Z</time>
      </trkpt>
      <trkpt lat="62.19163" lon="5.59264">
        <ele>89.471407</ele>
        <time>2020-07-30T09:54:20.380Z</time>
      </trkpt>
      <trkpt lat="62.19161" lon="5.59245">
        <ele>88.676378</ele>
        <time>2020-07-30T09:54:21.377Z</time>
      </trkpt>
      <trkpt lat="62.19159" lon="5.59226">
        <ele>87.875131</ele>
        <time>2020-07-30T09:54:22.396Z</time>
      </trkpt>
      <trkpt lat="62.19157" lon="5.59206">
        <ele>87.064325</ele>
        <time>2020-07-30T09:54:23.459Z</time>
      </trkpt>
      <trkpt lat="62.19155" lon="5.59187">
        <ele>86.257403</ele>
        <time>2020-07-30T09:54:24.430Z</time>
      </trkpt>
      <trkpt lat="62.19154" lon="5.59167">
        <ele>85.433614</ele>
        <time>2020-07-30T09:54:25.378Z</time>
      </trkpt>
      <trkpt lat="62.19154" lon="5.59146">
        <ele>84.599178</ele>
        <time>2020-07-30T09:54:26.395Z</time>
      </trkpt>
      <trkpt lat="62.19155" lon="5.59126">
        <ele>83.795997</ele>
        <time>2020-07-30T09:54:27.404Z</time>
      </trkpt>
      <trkpt lat="62.19158" lon="5.59107">
        <ele>82.975476</ele>
        <time>2020-07-30T09:54:28.383Z</time>
      </trkpt>
      <trkpt lat="62.19163" lon="5.5909">
        <ele>82.180212</ele>
        <time>2020-07-30T09:54:29.386Z</time>
      </trkpt>
      <trkpt lat="62.19176" lon="5.5907">
        <ele>80.788309</ele>
        <time>2020-07-30T09:54:31.380Z</time>
      </trkpt>
      <trkpt lat="62.19192" lon="5.59072">
        <ele>79.395381</ele>
        <time>2020-07-30T09:54:33.481Z</time>
      </trkpt>
      <trkpt lat="62.19201" lon="5.59079">
        <ele>78.656061</ele>
        <time>2020-07-30T09:54:34.408Z</time>
      </trkpt>
      <trkpt lat="62.19209" lon="5.59087">
        <ele>77.964591</ele>
        <time>2020-07-30T09:54:35.409Z</time>
      </trkpt>
      <trkpt lat="62.19217" lon="5.59096">
        <ele>77.251262</ele>
        <time>2020-07-30T09:54:36.384Z</time>
      </trkpt>
      <trkpt lat="62.19225" lon="5.59109">
        <ele>76.502638</ele>
        <time>2020-07-30T09:54:37.385Z</time>
      </trkpt>
      <trkpt lat="62.19233" lon="5.59125">
        <ele>75.692651</ele>
        <time>2020-07-30T09:54:38.405Z</time>
      </trkpt>
      <trkpt lat="62.1924" lon="5.59143">
        <ele>74.879812</ele>
        <time>2020-07-30T09:54:39.405Z</time>
      </trkpt>
      <trkpt lat="62.19246" lon="5.59158">
        <ele>74.130622</ele>
        <time>2020-07-30T09:54:40.382Z</time>
      </trkpt>
      <trkpt lat="62.19253" lon="5.59172">
        <ele>73.450796</ele>
        <time>2020-07-30T09:54:41.376Z</time>
      </trkpt>
      <trkpt lat="62.1926" lon="5.59184">
        <ele>72.751743</ele>
        <time>2020-07-30T09:54:42.399Z</time>
      </trkpt>
      <trkpt lat="62.19268" lon="5.59193">
        <ele>72.046522</ele>
        <time>2020-07-30T09:54:43.399Z</time>
      </trkpt>
      <trkpt lat="62.19278" lon="5.59195">
        <ele>71.321487</ele>
        <time>2020-07-30T09:54:44.379Z</time>
      </trkpt>
      <trkpt lat="62.19288" lon="5.59187">
        <ele>70.488798</ele>
        <time>2020-07-30T09:54:45.426Z</time>
      </trkpt>
      <trkpt lat="62.19298" lon="5.59175">
        <ele>69.63117</ele>
        <time>2020-07-30T09:54:46.391Z</time>
      </trkpt>
      <trkpt lat="62.19306" lon="5.59158">
        <ele>68.796491</ele>
        <time>2020-07-30T09:54:47.372Z</time>
      </trkpt>
      <trkpt lat="62.19312" lon="5.5914">
        <ele>67.981678</ele>
        <time>2020-07-30T09:54:48.380Z</time>
      </trkpt>
      <trkpt lat="62.19318" lon="5.59121">
        <ele>67.187982</ele>
        <time>2020-07-30T09:54:49.448Z</time>
      </trkpt>
      <trkpt lat="62.19322" lon="5.59103">
        <ele>66.446149</ele>
        <time>2020-07-30T09:54:50.402Z</time>
      </trkpt>
      <trkpt lat="62.1933" lon="5.59069">
        <ele>65.763887</ele>
        <time>2020-07-30T09:54:52.382Z</time>
      </trkpt>
      <trkpt lat="62.19336" lon="5.5904">
        <ele>66.312753</ele>
        <time>2020-07-30T09:54:54.393Z</time>
      </trkpt>
      <trkpt lat="62.19342" lon="5.59012">
        <ele>66.806585</ele>
        <time>2020-07-30T09:54:56.396Z</time>
      </trkpt>
      <trkpt lat="62.19346" lon="5.58984">
        <ele>67.294928</ele>
        <time>2020-07-30T09:54:58.405Z</time>
      </trkpt>
      <trkpt lat="62.19348" lon="5.58958">
        <ele>67.731067</ele>
        <time>2020-07-30T09:55:00.391Z</time>
      </trkpt>
      <trkpt lat="62.19347" lon="5.58934">
        <ele>68.142505</ele>
        <time>2020-07-30T09:55:02.397Z</time>
      </trkpt>
      <trkpt lat="62.19346" lon="5.58912">
        <ele>68.51346</ele>
        <time>2020-07-30T09:55:04.402Z</time>
      </trkpt>
      <trkpt lat="62.19343" lon="5.58892">
        <ele>68.847994</ele>
        <time>2020-07-30T09:55:06.410Z</time>
      </trkpt>
      <trkpt lat="62.19341" lon="5.58866">
        <ele>69.293113</ele>
        <time>2020-07-30T09:55:09.393Z</time>
      </trkpt>
      <trkpt lat="62.19339" lon="5.58844">
        <ele>69.664334</ele>
        <time>2020-07-30T09:55:12.371Z</time>
      </trkpt>
      <trkpt lat="62.19338" lon="5.58822">
        <ele>70.038178</ele>
        <time>2020-07-30T09:55:15.405Z</time>
      </trkpt>
      <trkpt lat="62.19337" lon="5.588">
        <ele>70.403336</ele>
        <time>2020-07-30T09:55:18.390Z</time>
      </trkpt>
      <trkpt lat="62.19335" lon="5.58777">
        <ele>70.780061</ele>
        <time>2020-07-30T09:55:21.381Z</time>
      </trkpt>
      <trkpt lat="62.19335" lon="5.58754">
        <ele>71.171243</ele>
        <time>2020-07-30T09:55:24.378Z</time>
      </trkpt>
      <trkpt lat="62.19335" lon="5.58732">
        <ele>71.540539</ele>
        <time>2020-07-30T09:55:27.396Z</time>
      </trkpt>
      <trkpt lat="62.19336" lon="5.58709">
        <ele>71.915911</ele>
        <time>2020-07-30T09:55:30.399Z</time>
      </trkpt>
      <trkpt lat="62.19337" lon="5.58685">
        <ele>71.796658</ele>
        <time>2020-07-30T09:55:33.381Z</time>
      </trkpt>
      <trkpt lat="62.19338" lon="5.58661">
        <ele>71.576121</ele>
        <time>2020-07-30T09:55:36.390Z</time>
      </trkpt>
      <trkpt lat="62.19341" lon="5.58637">
        <ele>71.351469</ele>
        <time>2020-07-30T09:55:39.413Z</time>
      </trkpt>
      <trkpt lat="62.19344" lon="5.58614">
        <ele>71.123942</ele>
        <time>2020-07-30T09:55:42.441Z</time>
      </trkpt>
      <trkpt lat="62.19348" lon="5.58591">
        <ele>70.902825</ele>
        <time>2020-07-30T09:55:45.411Z</time>
      </trkpt>
      <trkpt lat="62.1935" lon="5.58569">
        <ele>70.700489</ele>
        <time>2020-07-30T09:55:48.395Z</time>
      </trkpt>
      <trkpt lat="62.19354" lon="5.58548">
        <ele>70.494464</ele>
        <time>2020-07-30T09:55:51.388Z</time>
      </trkpt>
      <trkpt lat="62.19358" lon="5.58527">
        <ele>70.28472</ele>
        <time>2020-07-30T09:55:54.429Z</time>
      </trkpt>
      <trkpt lat="62.19363" lon="5.58501">
        <ele>70.025093</ele>
        <time>2020-07-30T09:55:57.402Z</time>
      </trkpt>
      <trkpt lat="62.19367" lon="5.58483">
        <ele>69.842593</ele>
        <time>2020-07-30T09:55:59.400Z</time>
      </trkpt>
      <trkpt lat="62.19371" lon="5.58465">
        <ele>69.660724</ele>
        <time>2020-07-30T09:56:01.377Z</time>
      </trkpt>
      <trkpt lat="62.19376" lon="5.58445">
        <ele>69.454508</ele>
        <time>2020-07-30T09:56:03.397Z</time>
      </trkpt>
      <trkpt lat="62.19383" lon="5.58431">
        <ele>69.261475</ele>
        <time>2020-07-30T09:56:05.381Z</time>
      </trkpt>
      <trkpt lat="62.19392" lon="5.5842">
        <ele>69.060873</ele>
        <time>2020-07-30T09:56:07.427Z</time>
      </trkpt>
      <trkpt lat="62.19402" lon="5.58414">
        <ele>68.866299</ele>
        <time>2020-07-30T09:56:09.393Z</time>
      </trkpt>
      <trkpt lat="62.19415" lon="5.58411">
        <ele>68.603391</ele>
        <time>2020-07-30T09:56:12.389Z</time>
      </trkpt>
      <trkpt lat="62.19424" lon="5.58412">
        <ele>68.395368</ele>
        <time>2020-07-30T09:56:14.380Z</time>
      </trkpt>
      <trkpt lat="62.19433" lon="5.58412">
        <ele>68.050012</ele>
        <time>2020-07-30T09:56:16.389Z</time>
      </trkpt>
      <trkpt lat="62.19443" lon="5.58412">
        <ele>67.6663</ele>
        <time>2020-07-30T09:56:18.405Z</time>
      </trkpt>
      <trkpt lat="62.19457" lon="5.58409">
        <ele>67.150569</ele>
        <time>2020-07-30T09:56:21.397Z</time>
      </trkpt>
      <trkpt lat="62.19466" lon="5.58407">
        <ele>66.776715</ele>
        <time>2020-07-30T09:56:23.419Z</time>
      </trkpt>
      <trkpt lat="62.19477" lon="5.58403">
        <ele>66.355931</ele>
        <time>2020-07-30T09:56:25.390Z</time>
      </trkpt>
      <trkpt lat="62.19488" lon="5.58398">
        <ele>65.910572</ele>
        <time>2020-07-30T09:56:27.406Z</time>
      </trkpt>
      <trkpt lat="62.19499" lon="5.58392">
        <ele>65.496916</ele>
        <time>2020-07-30T09:56:29.386Z</time>
      </trkpt>
      <trkpt lat="62.19509" lon="5.58386">
        <ele>65.08419</ele>
        <time>2020-07-30T09:56:31.386Z</time>
      </trkpt>
      <trkpt lat="62.1952" lon="5.58381">
        <ele>64.650796</ele>
        <time>2020-07-30T09:56:33.385Z</time>
      </trkpt>
      <trkpt lat="62.19532" lon="5.58376">
        <ele>64.204735</ele>
        <time>2020-07-30T09:56:35.388Z</time>
      </trkpt>
      <trkpt lat="62.19543" lon="5.58371">
        <ele>63.751904</ele>
        <time>2020-07-30T09:56:37.393Z</time>
      </trkpt>
      <trkpt lat="62.19555" lon="5.58365">
        <ele>63.283316</ele>
        <time>2020-07-30T09:56:39.421Z</time>
      </trkpt>
      <trkpt lat="62.19567" lon="5.58358">
        <ele>62.80976</ele>
        <time>2020-07-30T09:56:41.383Z</time>
      </trkpt>
      <trkpt lat="62.19578" lon="5.58352">
        <ele>62.357199</ele>
        <time>2020-07-30T09:56:43.400Z</time>
      </trkpt>
      <trkpt lat="62.1959" lon="5.58344">
        <ele>61.908499</ele>
        <time>2020-07-30T09:56:45.378Z</time>
      </trkpt>
      <trkpt lat="62.196" lon="5.58336">
        <ele>61.560045</ele>
        <time>2020-07-30T09:56:47.389Z</time>
      </trkpt>
      <trkpt lat="62.19609" lon="5.58325">
        <ele>61.613325</ele>
        <time>2020-07-30T09:56:49.377Z</time>
      </trkpt>
      <trkpt lat="62.19619" lon="5.58314">
        <ele>61.669659</ele>
        <time>2020-07-30T09:56:51.372Z</time>
      </trkpt>
      <trkpt lat="62.19627" lon="5.583">
        <ele>61.724017</ele>
        <time>2020-07-30T09:56:53.391Z</time>
      </trkpt>
      <trkpt lat="62.19635" lon="5.58286">
        <ele>61.776172</ele>
        <time>2020-07-30T09:56:55.383Z</time>
      </trkpt>
      <trkpt lat="62.19643" lon="5.58275">
        <ele>61.825513</ele>
        <time>2020-07-30T09:56:57.396Z</time>
      </trkpt>
      <trkpt lat="62.19651" lon="5.58263">
        <ele>61.872749</ele>
        <time>2020-07-30T09:56:59.395Z</time>
      </trkpt>
      <trkpt lat="62.19661" lon="5.58246">
        <ele>61.937726</ele>
        <time>2020-07-30T09:57:02.390Z</time>
      </trkpt>
      <trkpt lat="62.1967" lon="5.58229">
        <ele>62.002909</ele>
        <time>2020-07-30T09:57:05.422Z</time>
      </trkpt>
      <trkpt lat="62.19679" lon="5.58213">
        <ele>62.060154</ele>
        <time>2020-07-30T09:57:08.375Z</time>
      </trkpt>
      <trkpt lat="62.19686" lon="5.58197">
        <ele>62.11492</ele>
        <time>2020-07-30T09:57:11.415Z</time>
      </trkpt>
      <trkpt lat="62.19695" lon="5.58183">
        <ele>62.168726</ele>
        <time>2020-07-30T09:57:14.379Z</time>
      </trkpt>
      <trkpt lat="62.19703" lon="5.58169">
        <ele>62.22482</ele>
        <time>2020-07-30T09:57:17.405Z</time>
      </trkpt>
      <trkpt lat="62.19711" lon="5.58153">
        <ele>62.280822</ele>
        <time>2020-07-30T09:57:20.399Z</time>
      </trkpt>
      <trkpt lat="62.1972" lon="5.58136">
        <ele>62.341397</ele>
        <time>2020-07-30T09:57:23.437Z</time>
      </trkpt>
      <trkpt lat="62.19728" lon="5.58118">
        <ele>62.401687</ele>
        <time>2020-07-30T09:57:26.382Z</time>
      </trkpt>
      <trkpt lat="62.19737" lon="5.58099">
        <ele>62.464096</ele>
        <time>2020-07-30T09:57:29.379Z</time>
      </trkpt>
      <trkpt lat="62.19747" lon="5.5808">
        <ele>62.471218</ele>
        <time>2020-07-30T09:57:32.390Z</time>
      </trkpt>
      <trkpt lat="62.19755" lon="5.58061">
        <ele>62.470187</ele>
        <time>2020-07-30T09:57:35.395Z</time>
      </trkpt>
      <trkpt lat="62.19763" lon="5.5804">
        <ele>62.469129</ele>
        <time>2020-07-30T09:57:38.404Z</time>
      </trkpt>
      <trkpt lat="62.19771" lon="5.58019">
        <ele>62.468069</ele>
        <time>2020-07-30T09:57:41.421Z</time>
      </trkpt>
      <trkpt lat="62.19777" lon="5.58002">
        <ele>62.467254</ele>
        <time>2020-07-30T09:57:43.376Z</time>
      </trkpt>
      <trkpt lat="62.19783" lon="5.57985">
        <ele>62.466428</ele>
        <time>2020-07-30T09:57:45.397Z</time>
      </trkpt>
      <trkpt lat="62.19789" lon="5.57968">
        <ele>62.46562</ele>
        <time>2020-07-30T09:57:47.415Z</time>
      </trkpt>
      <trkpt lat="62.19795" lon="5.57951">
        <ele>62.464759</ele>
        <time>2020-07-30T09:57:49.397Z</time>
      </trkpt>
      <trkpt lat="62.19801" lon="5.57935">
        <ele>62.463963</ele>
        <time>2020-07-30T09:57:51.416Z</time>
      </trkpt>
      <trkpt lat="62.19807" lon="5.57919">
        <ele>62.463169</ele>
        <time>2020-07-30T09:57:53.389Z</time>
      </trkpt>
      <trkpt lat="62.19813" lon="5.57903">
        <ele>62.462372</ele>
        <time>2020-07-30T09:57:55.388Z</time>
      </trkpt>
      <trkpt lat="62.19818" lon="5.57887">
        <ele>62.461589</ele>
        <time>2020-07-30T09:57:57.391Z</time>
      </trkpt>
      <trkpt lat="62.19824" lon="5.57871">
        <ele>62.460797</ele>
        <time>2020-07-30T09:57:59.384Z</time>
      </trkpt>
      <trkpt lat="62.1983" lon="5.57854">
        <ele>62.459988</ele>
        <time>2020-07-30T09:58:01.451Z</time>
      </trkpt>
      <trkpt lat="62.19835" lon="5.57837">
        <ele>62.459189</ele>
        <time>2020-07-30T09:58:03.419Z</time>
      </trkpt>
      <trkpt lat="62.19841" lon="5.57821">
        <ele>62.458427</ele>
        <time>2020-07-30T09:58:05.401Z</time>
      </trkpt>
      <trkpt lat="62.19848" lon="5.57798">
        <ele>62.457332</ele>
        <time>2020-07-30T09:58:08.400Z</time>
      </trkpt>
      <trkpt lat="62.19857" lon="5.57777">
        <ele>62.536387</ele>
        <time>2020-07-30T09:58:11.396Z</time>
      </trkpt>
      <trkpt lat="62.19864" lon="5.57764">
        <ele>62.598636</ele>
        <time>2020-07-30T09:58:13.383Z</time>
      </trkpt>
      <trkpt lat="62.19871" lon="5.57752">
        <ele>62.66093</ele>
        <time>2020-07-30T09:58:15.399Z</time>
      </trkpt>
      <trkpt lat="62.19882" lon="5.57739">
        <ele>62.74842</ele>
        <time>2020-07-30T09:58:18.400Z</time>
      </trkpt>
      <trkpt lat="62.19894" lon="5.57732">
        <ele>62.832746</ele>
        <time>2020-07-30T09:58:21.387Z</time>
      </trkpt>
      <trkpt lat="62.19907" lon="5.57727">
        <ele>62.923453</ele>
        <time>2020-07-30T09:58:24.398Z</time>
      </trkpt>
      <trkpt lat="62.19916" lon="5.57724">
        <ele>62.9862</ele>
        <time>2020-07-30T09:58:26.394Z</time>
      </trkpt>
      <trkpt lat="62.19926" lon="5.5772">
        <ele>63.059868</ele>
        <time>2020-07-30T09:58:28.401Z</time>
      </trkpt>
      <trkpt lat="62.19935" lon="5.57713">
        <ele>63.127069</ele>
        <time>2020-07-30T09:58:30.383Z</time>
      </trkpt>
      <trkpt lat="62.19945" lon="5.57706">
        <ele>63.197573</ele>
        <time>2020-07-30T09:58:32.388Z</time>
      </trkpt>
      <trkpt lat="62.19956" lon="5.57699">
        <ele>63.275974</ele>
        <time>2020-07-30T09:58:34.388Z</time>
      </trkpt>
      <trkpt lat="62.19967" lon="5.57691">
        <ele>63.357074</ele>
        <time>2020-07-30T09:58:36.381Z</time>
      </trkpt>
      <trkpt lat="62.19978" lon="5.57683">
        <ele>63.43886</ele>
        <time>2020-07-30T09:58:38.403Z</time>
      </trkpt>
      <trkpt lat="62.19989" lon="5.57675">
        <ele>63.522522</ele>
        <time>2020-07-30T09:58:40.432Z</time>
      </trkpt>
      <trkpt lat="62.20001" lon="5.57666">
        <ele>63.609312</ele>
        <time>2020-07-30T09:58:42.394Z</time>
      </trkpt>
      <trkpt lat="62.20014" lon="5.57655">
        <ele>63.702922</ele>
        <time>2020-07-30T09:58:44.408Z</time>
      </trkpt>
      <trkpt lat="62.20026" lon="5.57645">
        <ele>63.39301</ele>
        <time>2020-07-30T09:58:46.384Z</time>
      </trkpt>
      <trkpt lat="62.20038" lon="5.57635">
        <ele>63.083363</ele>
        <time>2020-07-30T09:58:48.421Z</time>
      </trkpt>
      <trkpt lat="62.2005" lon="5.57623">
        <ele>62.780665</ele>
        <time>2020-07-30T09:58:50.416Z</time>
      </trkpt>
      <trkpt lat="62.20062" lon="5.57611">
        <ele>62.475843</ele>
        <time>2020-07-30T09:58:52.372Z</time>
      </trkpt>
      <trkpt lat="62.20073" lon="5.57598">
        <ele>62.169312</ele>
        <time>2020-07-30T09:58:54.395Z</time>
      </trkpt>
      <trkpt lat="62.20085" lon="5.57585">
        <ele>61.859122</ele>
        <time>2020-07-30T09:58:56.382Z</time>
      </trkpt>
      <trkpt lat="62.20096" lon="5.57571">
        <ele>61.565201</ele>
        <time>2020-07-30T09:58:58.391Z</time>
      </trkpt>
      <trkpt lat="62.20105" lon="5.57557">
        <ele>61.298369</ele>
        <time>2020-07-30T09:59:00.421Z</time>
      </trkpt>
      <trkpt lat="62.20114" lon="5.57543">
        <ele>61.035919</ele>
        <time>2020-07-30T09:59:02.382Z</time>
      </trkpt>
      <trkpt lat="62.20123" lon="5.57531">
        <ele>60.780623</ele>
        <time>2020-07-30T09:59:04.449Z</time>
      </trkpt>
      <trkpt lat="62.20132" lon="5.57521">
        <ele>60.54567</ele>
        <time>2020-07-30T09:59:06.377Z</time>
      </trkpt>
      <trkpt lat="62.20139" lon="5.57507">
        <ele>60.317675</ele>
        <time>2020-07-30T09:59:08.397Z</time>
      </trkpt>
      <trkpt lat="62.20146" lon="5.57494">
        <ele>60.093842</ele>
        <time>2020-07-30T09:59:10.388Z</time>
      </trkpt>
      <trkpt lat="62.20153" lon="5.5748">
        <ele>59.879134</ele>
        <time>2020-07-30T09:59:12.423Z</time>
      </trkpt>
      <trkpt lat="62.20163" lon="5.57461">
        <ele>59.558919</ele>
        <time>2020-07-30T09:59:15.399Z</time>
      </trkpt>
      <trkpt lat="62.2017" lon="5.57449">
        <ele>59.253779</ele>
        <time>2020-07-30T09:59:17.407Z</time>
      </trkpt>
      <trkpt lat="62.20178" lon="5.57439">
        <ele>58.898024</ele>
        <time>2020-07-30T09:59:19.377Z</time>
      </trkpt>
      <trkpt lat="62.20191" lon="5.57429">
        <ele>58.359055</ele>
        <time>2020-07-30T09:59:22.380Z</time>
      </trkpt>
      <trkpt lat="62.20201" lon="5.57426">
        <ele>57.972923</ele>
        <time>2020-07-30T09:59:24.405Z</time>
      </trkpt>
      <trkpt lat="62.20212" lon="5.57425">
        <ele>57.544115</ele>
        <time>2020-07-30T09:59:26.387Z</time>
      </trkpt>
      <trkpt lat="62.20224" lon="5.57429">
        <ele>57.075409</ele>
        <time>2020-07-30T09:59:28.404Z</time>
      </trkpt>
      <trkpt lat="62.20236" lon="5.5744">
        <ele>56.574476</ele>
        <time>2020-07-30T09:59:30.390Z</time>
      </trkpt>
      <trkpt lat="62.20247" lon="5.57457">
        <ele>56.029861</ele>
        <time>2020-07-30T09:59:32.376Z</time>
      </trkpt>
      <trkpt lat="62.20259" lon="5.57479">
        <ele>55.43125</ele>
        <time>2020-07-30T09:59:34.390Z</time>
      </trkpt>
      <trkpt lat="62.20268" lon="5.57504">
        <ele>54.845368</ele>
        <time>2020-07-30T09:59:36.389Z</time>
      </trkpt>
      <trkpt lat="62.20277" lon="5.5753">
        <ele>54.258231</ele>
        <time>2020-07-30T09:59:38.399Z</time>
      </trkpt>
      <trkpt lat="62.20286" lon="5.57557">
        <ele>53.657174</ele>
        <time>2020-07-30T09:59:40.396Z</time>
      </trkpt>
      <trkpt lat="62.20295" lon="5.57584">
        <ele>53.064795</ele>
        <time>2020-07-30T09:59:42.389Z</time>
      </trkpt>
      <trkpt lat="62.20305" lon="5.57605">
        <ele>52.507491</ele>
        <time>2020-07-30T09:59:44.407Z</time>
      </trkpt>
      <trkpt lat="62.20316" lon="5.57619">
        <ele>52.831738</ele>
        <time>2020-07-30T09:59:46.378Z</time>
      </trkpt>
      <trkpt lat="62.20327" lon="5.57626">
        <ele>53.19851</ele>
        <time>2020-07-30T09:59:48.400Z</time>
      </trkpt>
      <trkpt lat="62.20337" lon="5.5763">
        <ele>53.533069</ele>
        <time>2020-07-30T09:59:50.378Z</time>
      </trkpt>
      <trkpt lat="62.20346" lon="5.57631">
        <ele>53.835848</ele>
        <time>2020-07-30T09:59:52.399Z</time>
      </trkpt>
      <trkpt lat="62.20355" lon="5.57628">
        <ele>54.138068</ele>
        <time>2020-07-30T09:59:54.387Z</time>
      </trkpt>
      <trkpt lat="62.20365" lon="5.57625">
        <ele>54.437721</ele>
        <time>2020-07-30T09:59:56.426Z</time>
      </trkpt>
      <trkpt lat="62.20376" lon="5.57619">
        <ele>54.82961</ele>
        <time>2020-07-30T09:59:59.419Z</time>
      </trkpt>
      <trkpt lat="62.20386" lon="5.57612">
        <ele>55.162709</ele>
        <time>2020-07-30T10:00:02.419Z</time>
      </trkpt>
      <trkpt lat="62.20395" lon="5.57602">
        <ele>55.483306</ele>
        <time>2020-07-30T10:00:05.393Z</time>
      </trkpt>
      <trkpt lat="62.20403" lon="5.57591">
        <ele>55.80333</ele>
        <time>2020-07-30T10:00:08.383Z</time>
      </trkpt>
      <trkpt lat="62.20413" lon="5.57578">
        <ele>56.181946</ele>
        <time>2020-07-30T10:00:12.383Z</time>
      </trkpt>
      <trkpt lat="62.20423" lon="5.57564">
        <ele>56.562692</ele>
        <time>2020-07-30T10:00:16.379Z</time>
      </trkpt>
      <trkpt lat="62.2043" lon="5.57547">
        <ele>56.915671</ele>
        <time>2020-07-30T10:00:20.389Z</time>
      </trkpt>
      <trkpt lat="62.20437" lon="5.57532">
        <ele>57.230923</ele>
        <time>2020-07-30T10:00:24.389Z</time>
      </trkpt>
      <trkpt lat="62.20444" lon="5.57517">
        <ele>57.569359</ele>
        <time>2020-07-30T10:00:28.409Z</time>
      </trkpt>
      <trkpt lat="62.20452" lon="5.57501">
        <ele>57.915658</ele>
        <time>2020-07-30T10:00:32.374Z</time>
      </trkpt>
      <trkpt lat="62.20458" lon="5.57483">
        <ele>58.253602</ele>
        <time>2020-07-30T10:00:36.399Z</time>
      </trkpt>
      <trkpt lat="62.20465" lon="5.57467">
        <ele>58.398569</ele>
        <time>2020-07-30T10:00:40.417Z</time>
      </trkpt>
      <trkpt lat="62.20473" lon="5.57451">
        <ele>58.504805</ele>
        <time>2020-07-30T10:00:44.413Z</time>
      </trkpt>
      <trkpt lat="62.20483" lon="5.57437">
        <ele>58.624015</ele>
        <time>2020-07-30T10:00:48.381Z</time>
      </trkpt>
      <trkpt lat="62.20491" lon="5.57426">
        <ele>58.721236</ele>
        <time>2020-07-30T10:00:51.377Z</time>
      </trkpt>
      <trkpt lat="62.20499" lon="5.57414">
        <ele>58.825373</ele>
        <time>2020-07-30T10:00:54.411Z</time>
      </trkpt>
      <trkpt lat="62.20508" lon="5.57401">
        <ele>58.932392</ele>
        <time>2020-07-30T10:00:57.412Z</time>
      </trkpt>
      <trkpt lat="62.20518" lon="5.5739">
        <ele>59.044186</ele>
        <time>2020-07-30T10:01:00.438Z</time>
      </trkpt>
      <trkpt lat="62.20528" lon="5.5738">
        <ele>59.155215</ele>
        <time>2020-07-30T10:01:03.391Z</time>
      </trkpt>
      <trkpt lat="62.20539" lon="5.5737">
        <ele>59.271068</ele>
        <time>2020-07-30T10:01:06.435Z</time>
      </trkpt>
      <trkpt lat="62.2055" lon="5.57361">
        <ele>59.39099</ele>
        <time>2020-07-30T10:01:09.384Z</time>
      </trkpt>
      <trkpt lat="62.20562" lon="5.57355">
        <ele>59.521346</ele>
        <time>2020-07-30T10:01:12.378Z</time>
      </trkpt>
      <trkpt lat="62.20571" lon="5.57348">
        <ele>59.61678</ele>
        <time>2020-07-30T10:01:14.399Z</time>
      </trkpt>
      <trkpt lat="62.20583" lon="5.57334">
        <ele>59.750312</ele>
        <time>2020-07-30T10:01:17.399Z</time>
      </trkpt>
      <trkpt lat="62.20594" lon="5.57322">
        <ele>59.875418</ele>
        <time>2020-07-30T10:01:20.382Z</time>
      </trkpt>
      <trkpt lat="62.20603" lon="5.57315">
        <ele>59.96819</ele>
        <time>2020-07-30T10:01:22.416Z</time>
      </trkpt>
      <trkpt lat="62.20611" lon="5.57308">
        <ele>60.063349</ele>
        <time>2020-07-30T10:01:24.394Z</time>
      </trkpt>
      <trkpt lat="62.20623" lon="5.57295">
        <ele>60.119291</ele>
        <time>2020-07-30T10:01:27.385Z</time>
      </trkpt>
      <trkpt lat="62.20633" lon="5.57283">
        <ele>60.113389</ele>
        <time>2020-07-30T10:01:30.390Z</time>
      </trkpt>
      <trkpt lat="62.2064" lon="5.57267">
        <ele>60.107951</ele>
        <time>2020-07-30T10:01:33.395Z</time>
      </trkpt>
      <trkpt lat="62.20646" lon="5.57248">
        <ele>60.102112</ele>
        <time>2020-07-30T10:01:36.410Z</time>
      </trkpt>
      <trkpt lat="62.20651" lon="5.57225">
        <ele>60.095845</ele>
        <time>2020-07-30T10:01:39.429Z</time>
      </trkpt>
      <trkpt lat="62.20657" lon="5.57202">
        <ele>60.089291</ele>
        <time>2020-07-30T10:01:42.380Z</time>
      </trkpt>
      <trkpt lat="62.20664" lon="5.5718">
        <ele>60.082585</ele>
        <time>2020-07-30T10:01:45.423Z</time>
      </trkpt>
      <trkpt lat="62.20672" lon="5.5716">
        <ele>60.076139</ele>
        <time>2020-07-30T10:01:48.404Z</time>
      </trkpt>
      <trkpt lat="62.2068" lon="5.57142">
        <ele>60.07001</ele>
        <time>2020-07-30T10:01:51.381Z</time>
      </trkpt>
      <trkpt lat="62.20689" lon="5.57131">
        <ele>60.064275</ele>
        <time>2020-07-30T10:01:54.448Z</time>
      </trkpt>
      <trkpt lat="62.20701" lon="5.5713">
        <ele>60.057922</ele>
        <time>2020-07-30T10:01:57.380Z</time>
      </trkpt>
      <trkpt lat="62.20709" lon="5.57142">
        <ele>60.052874</ele>
        <time>2020-07-30T10:02:01.393Z</time>
      </trkpt>
      <trkpt lat="62.20709" lon="5.57161">
        <ele>60.048075</ele>
        <time>2020-07-30T10:02:07.391Z</time>
      </trkpt>
      <trkpt lat="62.20706" lon="5.57181">
        <ele>60.042968</ele>
        <time>2020-07-30T10:02:12.420Z</time>
      </trkpt>
      <trkpt lat="62.20704" lon="5.57203">
        <ele>60.037459</ele>
        <time>2020-07-30T10:02:18.382Z</time>
      </trkpt>
      <trkpt lat="62.207" lon="5.57221">
        <ele>60.032471</ele>
        <time>2020-07-30T10:02:24.393Z</time>
      </trkpt>
      <trkpt lat="62.20699" lon="5.57244">
        <ele>60.072256</ele>
        <time>2020-07-30T10:02:30.397Z</time>
      </trkpt>
      <trkpt lat="62.20698" lon="5.57266">
        <ele>60.797653</ele>
        <time>2020-07-30T10:02:36.378Z</time>
      </trkpt>
      <trkpt lat="62.20698" lon="5.57289">
        <ele>61.568297</ele>
        <time>2020-07-30T10:02:41.382Z</time>
      </trkpt>
      <trkpt lat="62.20698" lon="5.57309">
        <ele>62.230599</ele>
        <time>2020-07-30T10:02:46.393Z</time>
      </trkpt>
      <trkpt lat="62.20701" lon="5.57331">
        <ele>62.976628</ele>
        <time>2020-07-30T10:02:51.397Z</time>
      </trkpt>
      <trkpt lat="62.20701" lon="5.57351">
        <ele>63.641636</ele>
        <time>2020-07-30T10:02:55.421Z</time>
      </trkpt>
      <trkpt lat="62.20703" lon="5.57374">
        <ele>64.388305</ele>
        <time>2020-07-30T10:03:00.385Z</time>
      </trkpt>
      <trkpt lat="62.20704" lon="5.57393">
        <ele>65.032811</ele>
        <time>2020-07-30T10:03:04.384Z</time>
      </trkpt>
      <trkpt lat="62.20706" lon="5.57416">
        <ele>65.81223</ele>
        <time>2020-07-30T10:03:09.375Z</time>
      </trkpt>
      <trkpt lat="62.20709" lon="5.57437">
        <ele>66.517859</ele>
        <time>2020-07-30T10:03:14.403Z</time>
      </trkpt>
      <trkpt lat="62.20712" lon="5.57456">
        <ele>67.192462</ele>
        <time>2020-07-30T10:03:19.377Z</time>
      </trkpt>
      <trkpt lat="62.20714" lon="5.57478">
        <ele>67.911852</ele>
        <time>2020-07-30T10:03:25.439Z</time>
      </trkpt>
      <trkpt lat="62.20716" lon="5.57498">
        <ele>68.612659</ele>
        <time>2020-07-30T10:03:30.400Z</time>
      </trkpt>
      <trkpt lat="62.20719" lon="5.5752">
        <ele>69.354105</ele>
        <time>2020-07-30T10:03:36.397Z</time>
      </trkpt>
      <trkpt lat="62.20723" lon="5.5754">
        <ele>70.07926</ele>
        <time>2020-07-30T10:03:43.382Z</time>
      </trkpt>
      <trkpt lat="62.20726" lon="5.5756">
        <ele>70.746136</ele>
        <time>2020-07-30T10:03:49.428Z</time>
      </trkpt>
      <trkpt lat="62.20729" lon="5.57577">
        <ele>71.38796</ele>
        <time>2020-07-30T10:03:55.394Z</time>
      </trkpt>
      <trkpt lat="62.20737" lon="5.57591">
        <ele>72.113097</ele>
        <time>2020-07-30T10:04:01.397Z</time>
      </trkpt>
      <trkpt lat="62.20746" lon="5.57602">
        <ele>72.82563</ele>
        <time>2020-07-30T10:04:07.393Z</time>
      </trkpt>
      <trkpt lat="62.20755" lon="5.57613">
        <ele>73.533925</ele>
        <time>2020-07-30T10:04:13.412Z</time>
      </trkpt>
      <trkpt lat="62.20763" lon="5.57623">
        <ele>74.195076</ele>
        <time>2020-07-30T10:04:19.401Z</time>
      </trkpt>
      <trkpt lat="62.20769" lon="5.57639">
        <ele>74.932596</ele>
        <time>2020-07-30T10:04:25.410Z</time>
      </trkpt>
      <trkpt lat="62.20776" lon="5.57655">
        <ele>75.643578</ele>
        <time>2020-07-30T10:04:31.406Z</time>
      </trkpt>
      <trkpt lat="62.20782" lon="5.5767">
        <ele>76.344029</ele>
        <time>2020-07-30T10:04:36.389Z</time>
      </trkpt>
      <trkpt lat="62.20787" lon="5.57688">
        <ele>77.017432</ele>
        <time>2020-07-30T10:04:41.398Z</time>
      </trkpt>
      <trkpt lat="62.20791" lon="5.57707">
        <ele>77.729511</ele>
        <time>2020-07-30T10:04:46.402Z</time>
      </trkpt>
      <trkpt lat="62.20795" lon="5.57728">
        <ele>78.486497</ele>
        <time>2020-07-30T10:04:52.381Z</time>
      </trkpt>
      <trkpt lat="62.208" lon="5.57746">
        <ele>79.183327</ele>
        <time>2020-07-30T10:04:57.405Z</time>
      </trkpt>
      <trkpt lat="62.20806" lon="5.57762">
        <ele>79.870716</ele>
        <time>2020-07-30T10:05:02.405Z</time>
      </trkpt>
      <trkpt lat="62.20812" lon="5.57777">
        <ele>80.527628</ele>
        <time>2020-07-30T10:05:07.380Z</time>
      </trkpt>
      <trkpt lat="62.20819" lon="5.57793">
        <ele>81.264938</ele>
        <time>2020-07-30T10:05:12.408Z</time>
      </trkpt>
      <trkpt lat="62.20826" lon="5.57809">
        <ele>82.052189</ele>
        <time>2020-07-30T10:05:17.385Z</time>
      </trkpt>
      <trkpt lat="62.20833" lon="5.57823">
        <ele>82.720819</ele>
        <time>2020-07-30T10:05:21.406Z</time>
      </trkpt>
      <trkpt lat="62.20841" lon="5.57835">
        <ele>83.411096</ele>
        <time>2020-07-30T10:05:26.387Z</time>
      </trkpt>
      <trkpt lat="62.20849" lon="5.57844">
        <ele>84.079899</ele>
        <time>2020-07-30T10:05:30.389Z</time>
      </trkpt>
      <trkpt lat="62.20858" lon="5.57857">
        <ele>84.842488</ele>
        <time>2020-07-30T10:05:35.419Z</time>
      </trkpt>
      <trkpt lat="62.20867" lon="5.57867">
        <ele>85.557092</ele>
        <time>2020-07-30T10:05:40.417Z</time>
      </trkpt>
      <trkpt lat="62.20877" lon="5.57874">
        <ele>86.17741</ele>
        <time>2020-07-30T10:05:46.384Z</time>
      </trkpt>
      <trkpt lat="62.20886" lon="5.57878">
        <ele>86.694887</ele>
        <time>2020-07-30T10:05:51.392Z</time>
      </trkpt>
      <trkpt lat="62.20897" lon="5.57878">
        <ele>87.308578</ele>
        <time>2020-07-30T10:05:57.418Z</time>
      </trkpt>
      <trkpt lat="62.20907" lon="5.57878">
        <ele>87.900028</ele>
        <time>2020-07-30T10:06:03.394Z</time>
      </trkpt>
      <trkpt lat="62.20917" lon="5.57874">
        <ele>88.469273</ele>
        <time>2020-07-30T10:06:09.385Z</time>
      </trkpt>
      <trkpt lat="62.20926" lon="5.57872">
        <ele>88.980218</ele>
        <time>2020-07-30T10:06:14.386Z</time>
      </trkpt>
      <trkpt lat="62.20936" lon="5.57868">
        <ele>89.547897</ele>
        <time>2020-07-30T10:06:20.396Z</time>
      </trkpt>
      <trkpt lat="62.20946" lon="5.57867">
        <ele>90.128092</ele>
        <time>2020-07-30T10:06:27.437Z</time>
      </trkpt>
      <trkpt lat="62.20955" lon="5.57864">
        <ele>90.646451</ele>
        <time>2020-07-30T10:06:33.425Z</time>
      </trkpt>
      <trkpt lat="62.20965" lon="5.57862">
        <ele>91.20179</ele>
        <time>2020-07-30T10:06:39.385Z</time>
      </trkpt>
      <trkpt lat="62.20974" lon="5.57861">
        <ele>91.72605</ele>
        <time>2020-07-30T10:06:45.404Z</time>
      </trkpt>
      <trkpt lat="62.20985" lon="5.57858">
        <ele>92.29789</ele>
        <time>2020-07-30T10:06:52.398Z</time>
      </trkpt>
      <trkpt lat="62.20993" lon="5.57852">
        <ele>92.807053</ele>
        <time>2020-07-30T10:06:59.400Z</time>
      </trkpt>
      <trkpt lat="62.21003" lon="5.57852">
        <ele>93.364591</ele>
        <time>2020-07-30T10:07:06.397Z</time>
      </trkpt>
      <trkpt lat="62.21013" lon="5.57851">
        <ele>93.910942</ele>
        <time>2020-07-30T10:07:12.384Z</time>
      </trkpt>
      <trkpt lat="62.21022" lon="5.57848">
        <ele>94.456409</ele>
        <time>2020-07-30T10:07:18.417Z</time>
      </trkpt>
      <trkpt lat="62.21032" lon="5.57849">
        <ele>95.008169</ele>
        <time>2020-07-30T10:07:26.384Z</time>
      </trkpt>
      <trkpt lat="62.21042" lon="5.57846">
        <ele>95.548422</ele>
        <time>2020-07-30T10:07:33.428Z</time>
      </trkpt>
      <trkpt lat="62.21051" lon="5.57844">
        <ele>96.285207</ele>
        <time>2020-07-30T10:07:40.376Z</time>
      </trkpt>
      <trkpt lat="62.21061" lon="5.57844">
        <ele>97.344166</ele>
        <time>2020-07-30T10:07:47.394Z</time>
      </trkpt>
      <trkpt lat="62.21071" lon="5.57843">
        <ele>98.340744</ele>
        <time>2020-07-30T10:07:53.414Z</time>
      </trkpt>
      <trkpt lat="62.21081" lon="5.57843">
        <ele>99.378107</ele>
        <time>2020-07-30T10:08:00.424Z</time>
      </trkpt>
      <trkpt lat="62.21091" lon="5.5784">
        <ele>100.424227</ele>
        <time>2020-07-30T10:08:07.412Z</time>
      </trkpt>
      <trkpt lat="62.21101" lon="5.57838">
        <ele>101.473803</ele>
        <time>2020-07-30T10:08:14.393Z</time>
      </trkpt>
      <trkpt lat="62.2111" lon="5.57835">
        <ele>102.443887</ele>
        <time>2020-07-30T10:08:23.384Z</time>
      </trkpt>
      <trkpt lat="62.21119" lon="5.57833">
        <ele>103.422032</ele>
        <time>2020-07-30T10:08:32.415Z</time>
      </trkpt>
      <trkpt lat="62.21129" lon="5.57832">
        <ele>104.400177</ele>
        <time>2020-07-30T10:08:40.433Z</time>
      </trkpt>
      <trkpt lat="62.21138" lon="5.57832">
        <ele>105.39605</ele>
        <time>2020-07-30T10:08:49.402Z</time>
      </trkpt>
      <trkpt lat="62.21147" lon="5.57829">
        <ele>106.336824</ele>
        <time>2020-07-30T10:08:57.390Z</time>
      </trkpt>
      <trkpt lat="62.21157" lon="5.57829">
        <ele>107.363815</ele>
        <time>2020-07-30T10:09:05.410Z</time>
      </trkpt>
      <trkpt lat="62.21167" lon="5.57828">
        <ele>108.383706</ele>
        <time>2020-07-30T10:09:11.438Z</time>
      </trkpt>
      <trkpt lat="62.21176" lon="5.57826">
        <ele>109.350156</ele>
        <time>2020-07-30T10:09:18.383Z</time>
      </trkpt>
      <trkpt lat="62.21186" lon="5.57824">
        <ele>110.321819</ele>
        <time>2020-07-30T10:09:26.406Z</time>
      </trkpt>
      <trkpt lat="62.21195" lon="5.57829">
        <ele>111.353371</ele>
        <time>2020-07-30T10:09:35.420Z</time>
      </trkpt>
      <trkpt lat="62.21206" lon="5.57829">
        <ele>112.411612</ele>
        <time>2020-07-30T10:09:43.421Z</time>
      </trkpt>
      <trkpt lat="62.21215" lon="5.57832">
        <ele>113.417265</ele>
        <time>2020-07-30T10:09:51.403Z</time>
      </trkpt>
      <trkpt lat="62.21225" lon="5.57834">
        <ele>114.399228</ele>
        <time>2020-07-30T10:09:58.394Z</time>
      </trkpt>
      <trkpt lat="62.21234" lon="5.57835">
        <ele>115.23767</ele>
        <time>2020-07-30T10:10:06.379Z</time>
      </trkpt>
      <trkpt lat="62.21243" lon="5.57839">
        <ele>116.050961</ele>
        <time>2020-07-30T10:10:13.429Z</time>
      </trkpt>
      <trkpt lat="62.21252" lon="5.57841">
        <ele>116.836358</ele>
        <time>2020-07-30T10:10:21.405Z</time>
      </trkpt>
      <trkpt lat="62.21262" lon="5.57847">
        <ele>117.674579</ele>
        <time>2020-07-30T10:10:30.404Z</time>
      </trkpt>
      <trkpt lat="62.2127" lon="5.57851">
        <ele>118.468168</ele>
        <time>2020-07-30T10:10:37.411Z</time>
      </trkpt>
      <trkpt lat="62.2128" lon="5.57857">
        <ele>119.307296</ele>
        <time>2020-07-30T10:10:45.406Z</time>
      </trkpt>
      <trkpt lat="62.21289" lon="5.57864">
        <ele>120.204781</ele>
        <time>2020-07-30T10:10:54.387Z</time>
      </trkpt>
      <trkpt lat="62.21298" lon="5.57871">
        <ele>121.028636</ele>
        <time>2020-07-30T10:11:02.386Z</time>
      </trkpt>
      <trkpt lat="62.21306" lon="5.5788">
        <ele>121.817344</ele>
        <time>2020-07-30T10:11:11.405Z</time>
      </trkpt>
      <trkpt lat="62.21315" lon="5.57885">
        <ele>122.630465</ele>
        <time>2020-07-30T10:11:19.388Z</time>
      </trkpt>
      <trkpt lat="62.21323" lon="5.57897">
        <ele>123.443449</ele>
        <time>2020-07-30T10:11:27.383Z</time>
      </trkpt>
      <trkpt lat="62.21332" lon="5.57906">
        <ele>124.280364</ele>
        <time>2020-07-30T10:11:35.414Z</time>
      </trkpt>
      <trkpt lat="62.21341" lon="5.57915">
        <ele>125.138787</ele>
        <time>2020-07-30T10:11:42.436Z</time>
      </trkpt>
      <trkpt lat="62.21349" lon="5.57926">
        <ele>125.985635</ele>
        <time>2020-07-30T10:11:50.426Z</time>
      </trkpt>
      <trkpt lat="62.21357" lon="5.57935">
        <ele>126.774557</ele>
        <time>2020-07-30T10:11:58.408Z</time>
      </trkpt>
      <trkpt lat="62.21365" lon="5.57943">
        <ele>127.566864</ele>
        <time>2020-07-30T10:12:06.428Z</time>
      </trkpt>
      <trkpt lat="62.21374" lon="5.57952">
        <ele>128.431386</ele>
        <time>2020-07-30T10:12:15.423Z</time>
      </trkpt>
      <trkpt lat="62.21383" lon="5.57957">
        <ele>129.231682</ele>
        <time>2020-07-30T10:12:22.417Z</time>
      </trkpt>
      <trkpt lat="62.21392" lon="5.57959">
        <ele>130.028833</ele>
        <time>2020-07-30T10:12:29.408Z</time>
      </trkpt>
      <trkpt lat="62.21402" lon="5.57959">
        <ele>131.038963</ele>
        <time>2020-07-30T10:12:37.383Z</time>
      </trkpt>
      <trkpt lat="62.21411" lon="5.57958">
        <ele>132.036809</ele>
        <time>2020-07-30T10:12:44.432Z</time>
      </trkpt>
      <trkpt lat="62.2142" lon="5.57952">
        <ele>133.034865</ele>
        <time>2020-07-30T10:12:52.396Z</time>
      </trkpt>
      <trkpt lat="62.2143" lon="5.57948">
        <ele>134.113961</ele>
        <time>2020-07-30T10:13:00.394Z</time>
      </trkpt>
      <trkpt lat="62.2144" lon="5.57941">
        <ele>135.162921</ele>
        <time>2020-07-30T10:13:08.390Z</time>
      </trkpt>
      <trkpt lat="62.21448" lon="5.5793">
        <ele>136.154163</ele>
        <time>2020-07-30T10:13:16.389Z</time>
      </trkpt>
      <trkpt lat="62.21455" lon="5.57917">
        <ele>137.123721</ele>
        <time>2020-07-30T10:13:24.410Z</time>
      </trkpt>
      <trkpt lat="62.21463" lon="5.57903">
        <ele>138.213506</ele>
        <time>2020-07-30T10:13:32.379Z</time>
      </trkpt>
      <trkpt lat="62.2147" lon="5.57889">
        <ele>139.235985</ele>
        <time>2020-07-30T10:13:40.399Z</time>
      </trkpt>
      <trkpt lat="62.21478" lon="5.57877">
        <ele>140.27262</ele>
        <time>2020-07-30T10:13:47.404Z</time>
      </trkpt>
      <trkpt lat="62.21484" lon="5.57864">
        <ele>141.230657</ele>
        <time>2020-07-30T10:13:53.416Z</time>
      </trkpt>
      <trkpt lat="62.21491" lon="5.57849">
        <ele>142.245283</ele>
        <time>2020-07-30T10:14:00.390Z</time>
      </trkpt>
      <trkpt lat="62.21497" lon="5.57834">
        <ele>143.234798</ele>
        <time>2020-07-30T10:14:08.402Z</time>
      </trkpt>
      <trkpt lat="62.21506" lon="5.57822">
        <ele>144.291472</ele>
        <time>2020-07-30T10:14:16.384Z</time>
      </trkpt>
      <trkpt lat="62.21513" lon="5.5781">
        <ele>145.262408</ele>
        <time>2020-07-30T10:14:23.402Z</time>
      </trkpt>
      <trkpt lat="62.21519" lon="5.57796">
        <ele>146.252299</ele>
        <time>2020-07-30T10:14:30.430Z</time>
      </trkpt>
      <trkpt lat="62.21527" lon="5.57781">
        <ele>147.293825</ele>
        <time>2020-07-30T10:14:38.419Z</time>
      </trkpt>
      <trkpt lat="62.21533" lon="5.57766">
        <ele>148.319685</ele>
        <time>2020-07-30T10:14:46.401Z</time>
      </trkpt>
      <trkpt lat="62.2154" lon="5.57752">
        <ele>149.239667</ele>
        <time>2020-07-30T10:14:54.420Z</time>
      </trkpt>
      <trkpt lat="62.21547" lon="5.57738">
        <ele>149.855217</ele>
        <time>2020-07-30T10:15:02.382Z</time>
      </trkpt>
      <trkpt lat="62.21555" lon="5.57725">
        <ele>150.442627</ele>
        <time>2020-07-30T10:15:10.397Z</time>
      </trkpt>
      <trkpt lat="62.21562" lon="5.57712">
        <ele>151.019077</ele>
        <time>2020-07-30T10:15:18.388Z</time>
      </trkpt>
      <trkpt lat="62.2157" lon="5.57699">
        <ele>151.60999</ele>
        <time>2020-07-30T10:15:26.382Z</time>
      </trkpt>
      <trkpt lat="62.21576" lon="5.57684">
        <ele>152.208459</ele>
        <time>2020-07-30T10:15:34.390Z</time>
      </trkpt>
      <trkpt lat="62.21585" lon="5.57672">
        <ele>152.831247</ele>
        <time>2020-07-30T10:15:42.415Z</time>
      </trkpt>
      <trkpt lat="62.21592" lon="5.57657">
        <ele>153.447026</ele>
        <time>2020-07-30T10:15:50.416Z</time>
      </trkpt>
      <trkpt lat="62.216" lon="5.57644">
        <ele>154.065992</ele>
        <time>2020-07-30T10:15:58.404Z</time>
      </trkpt>
      <trkpt lat="62.21608" lon="5.57632">
        <ele>154.631441</ele>
        <time>2020-07-30T10:16:05.392Z</time>
      </trkpt>
      <trkpt lat="62.21616" lon="5.57627">
        <ele>155.17945</ele>
        <time>2020-07-30T10:16:12.405Z</time>
      </trkpt>
      <trkpt lat="62.21625" lon="5.5763">
        <ele>155.748985</ele>
        <time>2020-07-30T10:16:20.385Z</time>
      </trkpt>
      <trkpt lat="62.21634" lon="5.5764">
        <ele>156.347415</ele>
        <time>2020-07-30T10:16:28.411Z</time>
      </trkpt>
      <trkpt lat="62.21639" lon="5.57658">
        <ele>156.971464</ele>
        <time>2020-07-30T10:16:36.393Z</time>
      </trkpt>
      <trkpt lat="62.2164" lon="5.5768">
        <ele>157.590337</ele>
        <time>2020-07-30T10:16:43.385Z</time>
      </trkpt>
      <trkpt lat="62.21637" lon="5.577">
        <ele>158.175717</ele>
        <time>2020-07-30T10:16:50.439Z</time>
      </trkpt>
      <trkpt lat="62.21635" lon="5.57719">
        <ele>158.742399</ele>
        <time>2020-07-30T10:16:57.397Z</time>
      </trkpt>
      <trkpt lat="62.21631" lon="5.57739">
        <ele>159.352341</ele>
        <time>2020-07-30T10:17:04.395Z</time>
      </trkpt>
      <trkpt lat="62.21628" lon="5.57759">
        <ele>159.966718</ele>
        <time>2020-07-30T10:17:11.420Z</time>
      </trkpt>
      <trkpt lat="62.21625" lon="5.57778">
        <ele>160.648971</ele>
        <time>2020-07-30T10:17:18.381Z</time>
      </trkpt>
      <trkpt lat="62.21621" lon="5.57799">
        <ele>161.49827</ele>
        <time>2020-07-30T10:17:25.431Z</time>
      </trkpt>
      <trkpt lat="62.21619" lon="5.57818">
        <ele>162.252948</ele>
        <time>2020-07-30T10:17:32.401Z</time>
      </trkpt>
      <trkpt lat="62.21616" lon="5.57839">
        <ele>163.066434</ele>
        <time>2020-07-30T10:17:40.380Z</time>
      </trkpt>
      <trkpt lat="62.21613" lon="5.57857">
        <ele>163.810317</ele>
        <time>2020-07-30T10:17:47.393Z</time>
      </trkpt>
      <trkpt lat="62.2161" lon="5.57877">
        <ele>164.594041</ele>
        <time>2020-07-30T10:17:55.387Z</time>
      </trkpt>
      <trkpt lat="62.21608" lon="5.57898">
        <ele>165.408289</ele>
        <time>2020-07-30T10:18:03.407Z</time>
      </trkpt>
      <trkpt lat="62.21606" lon="5.57919">
        <ele>166.200928</ele>
        <time>2020-07-30T10:18:11.420Z</time>
      </trkpt>
      <trkpt lat="62.21601" lon="5.57938">
        <ele>167.016654</ele>
        <time>2020-07-30T10:18:19.388Z</time>
      </trkpt>
      <trkpt lat="62.21599" lon="5.57959">
        <ele>167.83528</ele>
        <time>2020-07-30T10:18:27.398Z</time>
      </trkpt>
      <trkpt lat="62.21596" lon="5.57979">
        <ele>168.61687</ele>
        <time>2020-07-30T10:18:35.395Z</time>
      </trkpt>
      <trkpt lat="62.21594" lon="5.57999">
        <ele>169.407429</ele>
        <time>2020-07-30T10:18:43.408Z</time>
      </trkpt>
      <trkpt lat="62.21592" lon="5.58019">
        <ele>170.168457</ele>
        <time>2020-07-30T10:18:50.408Z</time>
      </trkpt>
      <trkpt lat="62.2159" lon="5.58038">
        <ele>170.894502</ele>
        <time>2020-07-30T10:18:57.399Z</time>
      </trkpt>
      <trkpt lat="62.21587" lon="5.58058">
        <ele>171.682904</ele>
        <time>2020-07-30T10:19:05.390Z</time>
      </trkpt>
      <trkpt lat="62.21584" lon="5.58077">
        <ele>172.450738</ele>
        <time>2020-07-30T10:19:13.418Z</time>
      </trkpt>
      <trkpt lat="62.2158" lon="5.58097">
        <ele>173.252002</ele>
        <time>2020-07-30T10:19:20.405Z</time>
      </trkpt>
      <trkpt lat="62.21577" lon="5.58117">
        <ele>174.067228</ele>
        <time>2020-07-30T10:19:27.379Z</time>
      </trkpt>
      <trkpt lat="62.21573" lon="5.58135">
        <ele>174.825844</ele>
        <time>2020-07-30T10:19:33.427Z</time>
      </trkpt>
      <trkpt lat="62.21569" lon="5.58153">
        <ele>175.615141</ele>
        <time>2020-07-30T10:19:39.411Z</time>
      </trkpt>
      <trkpt lat="62.21565" lon="5.58172">
        <ele>176.450806</ele>
        <time>2020-07-30T10:19:46.390Z</time>
      </trkpt>
      <trkpt lat="62.2156" lon="5.58191">
        <ele>177.265251</ele>
        <time>2020-07-30T10:19:53.428Z</time>
      </trkpt>
      <trkpt lat="62.21556" lon="5.58209">
        <ele>178.086486</ele>
        <time>2020-07-30T10:20:00.384Z</time>
      </trkpt>
      <trkpt lat="62.21551" lon="5.58226">
        <ele>178.867259</ele>
        <time>2020-07-30T10:20:07.421Z</time>
      </trkpt>
      <trkpt lat="62.21546" lon="5.58243">
        <ele>179.658078</ele>
        <time>2020-07-30T10:20:15.398Z</time>
      </trkpt>
      <trkpt lat="62.2154" lon="5.5826">
        <ele>180.462068</ele>
        <time>2020-07-30T10:20:23.426Z</time>
      </trkpt>
      <trkpt lat="62.21535" lon="5.58277">
        <ele>181.259612</ele>
        <time>2020-07-30T10:20:31.385Z</time>
      </trkpt>
      <trkpt lat="62.21531" lon="5.58296">
        <ele>182.110122</ele>
        <time>2020-07-30T10:20:39.392Z</time>
      </trkpt>
      <trkpt lat="62.21526" lon="5.58313">
        <ele>182.879657</ele>
        <time>2020-07-30T10:20:47.403Z</time>
      </trkpt>
      <trkpt lat="62.21521" lon="5.5833">
        <ele>183.667624</ele>
        <time>2020-07-30T10:20:54.397Z</time>
      </trkpt>
      <trkpt lat="62.21517" lon="5.58349">
        <ele>184.514307</ele>
        <time>2020-07-30T10:21:03.413Z</time>
      </trkpt>
      <trkpt lat="62.21512" lon="5.58368">
        <ele>185.360238</ele>
        <time>2020-07-30T10:21:11.398Z</time>
      </trkpt>
      <trkpt lat="62.21508" lon="5.58387">
        <ele>186.171182</ele>
        <time>2020-07-30T10:21:19.396Z</time>
      </trkpt>
      <trkpt lat="62.21505" lon="5.58407">
        <ele>187.026672</ele>
        <time>2020-07-30T10:21:28.385Z</time>
      </trkpt>
      <trkpt lat="62.215" lon="5.58424">
        <ele>187.798734</ele>
        <time>2020-07-30T10:21:35.411Z</time>
      </trkpt>
      <trkpt lat="62.21495" lon="5.58443">
        <ele>188.637965</ele>
        <time>2020-07-30T10:21:43.387Z</time>
      </trkpt>
      <trkpt lat="62.21492" lon="5.58461">
        <ele>189.425749</ele>
        <time>2020-07-30T10:21:50.397Z</time>
      </trkpt>
      <trkpt lat="62.21489" lon="5.58481">
        <ele>190.242292</ele>
        <time>2020-07-30T10:21:58.414Z</time>
      </trkpt>
      <trkpt lat="62.21486" lon="5.58502">
        <ele>191.064957</ele>
        <time>2020-07-30T10:22:06.400Z</time>
      </trkpt>
      <trkpt lat="62.21482" lon="5.58522">
        <ele>191.884298</ele>
        <time>2020-07-30T10:22:14.408Z</time>
      </trkpt>
      <trkpt lat="62.2148" lon="5.58543">
        <ele>192.701791</ele>
        <time>2020-07-30T10:22:22.409Z</time>
      </trkpt>
      <trkpt lat="62.21476" lon="5.58563">
        <ele>193.505716</ele>
        <time>2020-07-30T10:22:30.399Z</time>
      </trkpt>
      <trkpt lat="62.21473" lon="5.58581">
        <ele>194.24578</ele>
        <time>2020-07-30T10:22:37.406Z</time>
      </trkpt>
      <trkpt lat="62.21471" lon="5.58601">
        <ele>195.027383</ele>
        <time>2020-07-30T10:22:45.399Z</time>
      </trkpt>
      <trkpt lat="62.21469" lon="5.58621">
        <ele>195.783854</ele>
        <time>2020-07-30T10:22:53.385Z</time>
      </trkpt>
      <trkpt lat="62.21466" lon="5.5864">
        <ele>196.546434</ele>
        <time>2020-07-30T10:23:01.387Z</time>
      </trkpt>
      <trkpt lat="62.21465" lon="5.58659">
        <ele>197.283152</ele>
        <time>2020-07-30T10:23:08.393Z</time>
      </trkpt>
      <trkpt lat="62.21462" lon="5.58678">
        <ele>198.018856</ele>
        <time>2020-07-30T10:23:15.382Z</time>
      </trkpt>
      <trkpt lat="62.21458" lon="5.58697">
        <ele>198.829493</ele>
        <time>2020-07-30T10:23:23.423Z</time>
      </trkpt>
      <trkpt lat="62.21454" lon="5.58716">
        <ele>199.585049</ele>
        <time>2020-07-30T10:23:30.410Z</time>
      </trkpt>
      <trkpt lat="62.21451" lon="5.58736">
        <ele>200.384856</ele>
        <time>2020-07-30T10:23:37.409Z</time>
      </trkpt>
      <trkpt lat="62.21453" lon="5.58755">
        <ele>201.128627</ele>
        <time>2020-07-30T10:23:44.396Z</time>
      </trkpt>
      <trkpt lat="62.2145" lon="5.58775">
        <ele>201.921736</ele>
        <time>2020-07-30T10:23:51.417Z</time>
      </trkpt>
      <trkpt lat="62.21463" lon="5.58848">
        <ele>204.919616</ele>
        <time>2020-07-30T10:28:55.372Z</time>
      </trkpt>
      <trkpt lat="62.21462" lon="5.58889">
        <ele>206.535561</ele>
        <time>2020-07-30T10:29:15.384Z</time>
      </trkpt>
      <trkpt lat="62.21461" lon="5.58929">
        <ele>208.106625</ele>
        <time>2020-07-30T10:29:33.388Z</time>
      </trkpt>
      <trkpt lat="62.21461" lon="5.58969">
        <ele>209.657575</ele>
        <time>2020-07-30T10:29:42.430Z</time>
      </trkpt>
      <trkpt lat="62.2149" lon="5.59239">
        <ele>220.417032</ele>
        <time>2020-07-30T10:31:30.397Z</time>
      </trkpt>
      <trkpt lat="62.21643" lon="5.59779">
        <ele>239.515112</ele>
        <time>2020-07-30T10:34:52.389Z</time>
      </trkpt>
      <trkpt lat="62.21648" lon="5.59799">
        <ele>240.128714</ele>
        <time>2020-07-30T10:34:58.385Z</time>
      </trkpt>
      <trkpt lat="62.21652" lon="5.59817">
        <ele>240.666859</ele>
        <time>2020-07-30T10:35:03.386Z</time>
      </trkpt>
      <trkpt lat="62.21657" lon="5.59835">
        <ele>241.245949</ele>
        <time>2020-07-30T10:35:08.387Z</time>
      </trkpt>
      <trkpt lat="62.21662" lon="5.59854">
        <ele>241.824031</ele>
        <time>2020-07-30T10:35:13.376Z</time>
      </trkpt>
      <trkpt lat="62.21667" lon="5.59872">
        <ele>242.376329</ele>
        <time>2020-07-30T10:35:18.388Z</time>
      </trkpt>
      <trkpt lat="62.21672" lon="5.5989">
        <ele>242.601589</ele>
        <time>2020-07-30T10:35:23.429Z</time>
      </trkpt>
      <trkpt lat="62.21677" lon="5.59906">
        <ele>242.394418</ele>
        <time>2020-07-30T10:35:27.421Z</time>
      </trkpt>
      <trkpt lat="62.21682" lon="5.59923">
        <ele>242.182492</ele>
        <time>2020-07-30T10:35:32.415Z</time>
      </trkpt>
      <trkpt lat="62.21687" lon="5.59942">
        <ele>241.949182</ele>
        <time>2020-07-30T10:35:37.392Z</time>
      </trkpt>
      <trkpt lat="62.21692" lon="5.59961">
        <ele>241.711493</ele>
        <time>2020-07-30T10:35:42.386Z</time>
      </trkpt>
      <trkpt lat="62.21697" lon="5.59978">
        <ele>241.493198</ele>
        <time>2020-07-30T10:35:47.398Z</time>
      </trkpt>
      <trkpt lat="62.21703" lon="5.60001">
        <ele>241.217422</ele>
        <time>2020-07-30T10:35:52.397Z</time>
      </trkpt>
      <trkpt lat="62.21708" lon="5.60023">
        <ele>240.94849</ele>
        <time>2020-07-30T10:35:55.410Z</time>
      </trkpt>
      <trkpt lat="62.21712" lon="5.60043">
        <ele>240.713541</ele>
        <time>2020-07-30T10:35:57.402Z</time>
      </trkpt>
      <trkpt lat="62.21716" lon="5.60069">
        <ele>240.419885</ele>
        <time>2020-07-30T10:35:59.391Z</time>
      </trkpt>
      <trkpt lat="62.2172" lon="5.60101">
        <ele>240.074158</ele>
        <time>2020-07-30T10:36:01.398Z</time>
      </trkpt>
      <trkpt lat="62.21722" lon="5.60137">
        <ele>239.688051</ele>
        <time>2020-07-30T10:36:03.386Z</time>
      </trkpt>
      <trkpt lat="62.21722" lon="5.60157">
        <ele>239.473438</ele>
        <time>2020-07-30T10:36:04.398Z</time>
      </trkpt>
      <trkpt lat="62.21723" lon="5.60177">
        <ele>239.249207</ele>
        <time>2020-07-30T10:36:05.392Z</time>
      </trkpt>
      <trkpt lat="62.21723" lon="5.602">
        <ele>239.012371</ele>
        <time>2020-07-30T10:36:06.414Z</time>
      </trkpt>
      <trkpt lat="62.21724" lon="5.60223">
        <ele>238.763941</ele>
        <time>2020-07-30T10:36:07.402Z</time>
      </trkpt>
      <trkpt lat="62.21725" lon="5.60247">
        <ele>238.407116</ele>
        <time>2020-07-30T10:36:08.421Z</time>
      </trkpt>
      <trkpt lat="62.21726" lon="5.60271">
        <ele>237.728313</ele>
        <time>2020-07-30T10:36:09.457Z</time>
      </trkpt>
      <trkpt lat="62.21726" lon="5.60298">
        <ele>237.011619</ele>
        <time>2020-07-30T10:36:10.381Z</time>
      </trkpt>
      <trkpt lat="62.21726" lon="5.60324">
        <ele>236.281225</ele>
        <time>2020-07-30T10:36:11.388Z</time>
      </trkpt>
      <trkpt lat="62.21726" lon="5.60352">
        <ele>235.531614</ele>
        <time>2020-07-30T10:36:12.404Z</time>
      </trkpt>
      <trkpt lat="62.21726" lon="5.6038">
        <ele>234.768394</ele>
        <time>2020-07-30T10:36:13.386Z</time>
      </trkpt>
      <trkpt lat="62.21726" lon="5.60408">
        <ele>233.999704</ele>
        <time>2020-07-30T10:36:14.388Z</time>
      </trkpt>
      <trkpt lat="62.21726" lon="5.60436">
        <ele>233.217007</ele>
        <time>2020-07-30T10:36:15.389Z</time>
      </trkpt>
      <trkpt lat="62.21727" lon="5.60466">
        <ele>232.407465</ele>
        <time>2020-07-30T10:36:16.398Z</time>
      </trkpt>
      <trkpt lat="62.21728" lon="5.60496">
        <ele>231.57239</ele>
        <time>2020-07-30T10:36:17.455Z</time>
      </trkpt>
      <trkpt lat="62.2173" lon="5.60527">
        <ele>230.718546</ele>
        <time>2020-07-30T10:36:18.388Z</time>
      </trkpt>
      <trkpt lat="62.21733" lon="5.60559">
        <ele>229.850838</ele>
        <time>2020-07-30T10:36:19.396Z</time>
      </trkpt>
      <trkpt lat="62.21735" lon="5.60589">
        <ele>228.993925</ele>
        <time>2020-07-30T10:36:20.407Z</time>
      </trkpt>
      <trkpt lat="62.21738" lon="5.6062">
        <ele>228.134385</ele>
        <time>2020-07-30T10:36:21.419Z</time>
      </trkpt>
      <trkpt lat="62.21741" lon="5.60651">
        <ele>226.826945</ele>
        <time>2020-07-30T10:36:22.413Z</time>
      </trkpt>
      <trkpt lat="62.21744" lon="5.60681">
        <ele>225.44149</ele>
        <time>2020-07-30T10:36:23.404Z</time>
      </trkpt>
      <trkpt lat="62.21748" lon="5.60711">
        <ele>224.071067</ele>
        <time>2020-07-30T10:36:24.405Z</time>
      </trkpt>
      <trkpt lat="62.21751" lon="5.60742">
        <ele>222.692048</ele>
        <time>2020-07-30T10:36:25.391Z</time>
      </trkpt>
      <trkpt lat="62.21755" lon="5.60772">
        <ele>221.290824</ele>
        <time>2020-07-30T10:36:26.395Z</time>
      </trkpt>
      <trkpt lat="62.21759" lon="5.60804">
        <ele>219.856468</ele>
        <time>2020-07-30T10:36:27.404Z</time>
      </trkpt>
      <trkpt lat="62.21763" lon="5.60835">
        <ele>218.414126</ele>
        <time>2020-07-30T10:36:28.392Z</time>
      </trkpt>
      <trkpt lat="62.21768" lon="5.60866">
        <ele>216.980253</ele>
        <time>2020-07-30T10:36:29.421Z</time>
      </trkpt>
      <trkpt lat="62.21772" lon="5.60897">
        <ele>215.554418</ele>
        <time>2020-07-30T10:36:30.392Z</time>
      </trkpt>
      <trkpt lat="62.21776" lon="5.60927">
        <ele>214.168399</ele>
        <time>2020-07-30T10:36:31.396Z</time>
      </trkpt>
      <trkpt lat="62.2178" lon="5.60957">
        <ele>212.763838</ele>
        <time>2020-07-30T10:36:32.409Z</time>
      </trkpt>
      <trkpt lat="62.21783" lon="5.60989">
        <ele>211.337462</ele>
        <time>2020-07-30T10:36:33.399Z</time>
      </trkpt>
      <trkpt lat="62.21787" lon="5.61021">
        <ele>209.707768</ele>
        <time>2020-07-30T10:36:34.391Z</time>
      </trkpt>
      <trkpt lat="62.21789" lon="5.61053">
        <ele>208.000346</ele>
        <time>2020-07-30T10:36:35.382Z</time>
      </trkpt>
      <trkpt lat="62.21791" lon="5.61087">
        <ele>206.277331</ele>
        <time>2020-07-30T10:36:36.417Z</time>
      </trkpt>
      <trkpt lat="62.21792" lon="5.6112">
        <ele>204.554619</ele>
        <time>2020-07-30T10:36:37.381Z</time>
      </trkpt>
      <trkpt lat="62.21793" lon="5.61153">
        <ele>202.841298</ele>
        <time>2020-07-30T10:36:38.380Z</time>
      </trkpt>
      <trkpt lat="62.21793" lon="5.61186">
        <ele>201.118554</ele>
        <time>2020-07-30T10:36:39.407Z</time>
      </trkpt>
      <trkpt lat="62.21792" lon="5.6122">
        <ele>199.399685</ele>
        <time>2020-07-30T10:36:40.417Z</time>
      </trkpt>
      <trkpt lat="62.2179" lon="5.61253">
        <ele>197.661338</ele>
        <time>2020-07-30T10:36:41.386Z</time>
      </trkpt>
      <trkpt lat="62.21788" lon="5.61287">
        <ele>195.917877</ele>
        <time>2020-07-30T10:36:42.396Z</time>
      </trkpt>
      <trkpt lat="62.21786" lon="5.61321">
        <ele>194.150273</ele>
        <time>2020-07-30T10:36:43.393Z</time>
      </trkpt>
      <trkpt lat="62.21784" lon="5.61354">
        <ele>192.396773</ele>
        <time>2020-07-30T10:36:44.390Z</time>
      </trkpt>
      <trkpt lat="62.21783" lon="5.61388">
        <ele>190.659615</ele>
        <time>2020-07-30T10:36:45.401Z</time>
      </trkpt>
      <trkpt lat="62.21782" lon="5.61421">
        <ele>188.998404</ele>
        <time>2020-07-30T10:36:46.401Z</time>
      </trkpt>
      <trkpt lat="62.21782" lon="5.61454">
        <ele>187.364439</ele>
        <time>2020-07-30T10:36:47.385Z</time>
      </trkpt>
      <trkpt lat="62.21781" lon="5.61486">
        <ele>185.76666</ele>
        <time>2020-07-30T10:36:48.388Z</time>
      </trkpt>
      <trkpt lat="62.21782" lon="5.61517">
        <ele>184.182264</ele>
        <time>2020-07-30T10:36:49.390Z</time>
      </trkpt>
      <trkpt lat="62.21783" lon="5.61549">
        <ele>182.597508</ele>
        <time>2020-07-30T10:36:50.382Z</time>
      </trkpt>
      <trkpt lat="62.21785" lon="5.6158">
        <ele>181.026619</ele>
        <time>2020-07-30T10:36:51.443Z</time>
      </trkpt>
      <trkpt lat="62.21788" lon="5.61611">
        <ele>179.474297</ele>
        <time>2020-07-30T10:36:52.414Z</time>
      </trkpt>
      <trkpt lat="62.21791" lon="5.6164">
        <ele>177.957216</ele>
        <time>2020-07-30T10:36:53.396Z</time>
      </trkpt>
      <trkpt lat="62.21795" lon="5.6167">
        <ele>176.421507</ele>
        <time>2020-07-30T10:36:54.415Z</time>
      </trkpt>
      <trkpt lat="62.21799" lon="5.61699">
        <ele>174.848353</ele>
        <time>2020-07-30T10:36:55.419Z</time>
      </trkpt>
      <trkpt lat="62.21805" lon="5.61729">
        <ele>173.262883</ele>
        <time>2020-07-30T10:36:56.399Z</time>
      </trkpt>
      <trkpt lat="62.21812" lon="5.61758">
        <ele>171.640529</ele>
        <time>2020-07-30T10:36:57.395Z</time>
      </trkpt>
      <trkpt lat="62.21818" lon="5.61787">
        <ele>170.097947</ele>
        <time>2020-07-30T10:36:58.407Z</time>
      </trkpt>
      <trkpt lat="62.21824" lon="5.61816">
        <ele>168.550901</ele>
        <time>2020-07-30T10:36:59.391Z</time>
      </trkpt>
      <trkpt lat="62.21831" lon="5.61845">
        <ele>166.990121</ele>
        <time>2020-07-30T10:37:00.401Z</time>
      </trkpt>
      <trkpt lat="62.21838" lon="5.61873">
        <ele>165.436402</ele>
        <time>2020-07-30T10:37:01.406Z</time>
      </trkpt>
      <trkpt lat="62.21845" lon="5.61901">
        <ele>163.891807</ele>
        <time>2020-07-30T10:37:02.381Z</time>
      </trkpt>
      <trkpt lat="62.21852" lon="5.6193">
        <ele>162.362379</ele>
        <time>2020-07-30T10:37:03.430Z</time>
      </trkpt>
      <trkpt lat="62.21857" lon="5.61959">
        <ele>160.856816</ele>
        <time>2020-07-30T10:37:04.404Z</time>
      </trkpt>
      <trkpt lat="62.21862" lon="5.61988">
        <ele>159.383253</ele>
        <time>2020-07-30T10:37:05.414Z</time>
      </trkpt>
      <trkpt lat="62.21865" lon="5.62017">
        <ele>157.932412</ele>
        <time>2020-07-30T10:37:06.384Z</time>
      </trkpt>
      <trkpt lat="62.21866" lon="5.62046">
        <ele>156.523045</ele>
        <time>2020-07-30T10:37:07.398Z</time>
      </trkpt>
      <trkpt lat="62.21866" lon="5.62076">
        <ele>155.095965</ele>
        <time>2020-07-30T10:37:08.389Z</time>
      </trkpt>
      <trkpt lat="62.21866" lon="5.62105">
        <ele>153.677961</ele>
        <time>2020-07-30T10:37:09.387Z</time>
      </trkpt>
      <trkpt lat="62.21865" lon="5.62135">
        <ele>152.289747</ele>
        <time>2020-07-30T10:37:10.395Z</time>
      </trkpt>
      <trkpt lat="62.21865" lon="5.62164">
        <ele>150.937056</ele>
        <time>2020-07-30T10:37:11.439Z</time>
      </trkpt>
      <trkpt lat="62.21865" lon="5.62193">
        <ele>149.611964</ele>
        <time>2020-07-30T10:37:12.388Z</time>
      </trkpt>
      <trkpt lat="62.21866" lon="5.62222">
        <ele>148.282273</ele>
        <time>2020-07-30T10:37:13.407Z</time>
      </trkpt>
      <trkpt lat="62.21866" lon="5.62251">
        <ele>146.961008</ele>
        <time>2020-07-30T10:37:14.395Z</time>
      </trkpt>
      <trkpt lat="62.21866" lon="5.62279">
        <ele>145.649866</ele>
        <time>2020-07-30T10:37:15.395Z</time>
      </trkpt>
      <trkpt lat="62.21865" lon="5.62308">
        <ele>144.336904</ele>
        <time>2020-07-30T10:37:16.431Z</time>
      </trkpt>
      <trkpt lat="62.21864" lon="5.62337">
        <ele>143.002094</ele>
        <time>2020-07-30T10:37:17.403Z</time>
      </trkpt>
      <trkpt lat="62.21863" lon="5.62365">
        <ele>141.689266</ele>
        <time>2020-07-30T10:37:18.401Z</time>
      </trkpt>
      <trkpt lat="62.21861" lon="5.62394">
        <ele>140.360646</ele>
        <time>2020-07-30T10:37:19.395Z</time>
      </trkpt>
      <trkpt lat="62.21859" lon="5.62423">
        <ele>138.999861</ele>
        <time>2020-07-30T10:37:20.400Z</time>
      </trkpt>
      <trkpt lat="62.21857" lon="5.62453">
        <ele>137.614778</ele>
        <time>2020-07-30T10:37:21.396Z</time>
      </trkpt>
      <trkpt lat="62.21855" lon="5.62482">
        <ele>136.231278</ele>
        <time>2020-07-30T10:37:22.413Z</time>
      </trkpt>
      <trkpt lat="62.21853" lon="5.62512">
        <ele>134.895059</ele>
        <time>2020-07-30T10:37:23.389Z</time>
      </trkpt>
      <trkpt lat="62.2185" lon="5.62541">
        <ele>133.644536</ele>
        <time>2020-07-30T10:37:24.395Z</time>
      </trkpt>
      <trkpt lat="62.21848" lon="5.6257">
        <ele>132.398209</ele>
        <time>2020-07-30T10:37:25.431Z</time>
      </trkpt>
      <trkpt lat="62.21846" lon="5.62598">
        <ele>131.185441</ele>
        <time>2020-07-30T10:37:26.390Z</time>
      </trkpt>
      <trkpt lat="62.21844" lon="5.62626">
        <ele>129.989444</ele>
        <time>2020-07-30T10:37:27.399Z</time>
      </trkpt>
      <trkpt lat="62.21842" lon="5.62653">
        <ele>128.832628</ele>
        <time>2020-07-30T10:37:28.417Z</time>
      </trkpt>
      <trkpt lat="62.2184" lon="5.62679">
        <ele>127.699555</ele>
        <time>2020-07-30T10:37:29.417Z</time>
      </trkpt>
      <trkpt lat="62.21838" lon="5.62705">
        <ele>126.586108</ele>
        <time>2020-07-30T10:37:30.388Z</time>
      </trkpt>
      <trkpt lat="62.21837" lon="5.6273">
        <ele>125.503434</ele>
        <time>2020-07-30T10:37:31.404Z</time>
      </trkpt>
      <trkpt lat="62.21835" lon="5.62756">
        <ele>124.395374</ele>
        <time>2020-07-30T10:37:32.388Z</time>
      </trkpt>
      <trkpt lat="62.21833" lon="5.62783">
        <ele>123.238336</ele>
        <time>2020-07-30T10:37:33.424Z</time>
      </trkpt>
      <trkpt lat="62.21831" lon="5.6281">
        <ele>122.067429</ele>
        <time>2020-07-30T10:37:34.389Z</time>
      </trkpt>
      <trkpt lat="62.21829" lon="5.62837">
        <ele>120.918517</ele>
        <time>2020-07-30T10:37:35.397Z</time>
      </trkpt>
      <trkpt lat="62.21827" lon="5.62864">
        <ele>119.751848</ele>
        <time>2020-07-30T10:37:36.393Z</time>
      </trkpt>
      <trkpt lat="62.21824" lon="5.62891">
        <ele>118.606977</ele>
        <time>2020-07-30T10:37:37.390Z</time>
      </trkpt>
      <trkpt lat="62.21821" lon="5.62918">
        <ele>117.476696</ele>
        <time>2020-07-30T10:37:38.381Z</time>
      </trkpt>
      <trkpt lat="62.21818" lon="5.62945">
        <ele>116.356039</ele>
        <time>2020-07-30T10:37:39.381Z</time>
      </trkpt>
      <trkpt lat="62.21813" lon="5.62972">
        <ele>115.208643</ele>
        <time>2020-07-30T10:37:40.399Z</time>
      </trkpt>
      <trkpt lat="62.21808" lon="5.62999">
        <ele>114.026782</ele>
        <time>2020-07-30T10:37:41.403Z</time>
      </trkpt>
      <trkpt lat="62.21801" lon="5.63026">
        <ele>112.826845</ele>
        <time>2020-07-30T10:37:42.384Z</time>
      </trkpt>
      <trkpt lat="62.21795" lon="5.63053">
        <ele>111.60887</ele>
        <time>2020-07-30T10:37:43.392Z</time>
      </trkpt>
      <trkpt lat="62.2179" lon="5.6308">
        <ele>110.409056</ele>
        <time>2020-07-30T10:37:44.410Z</time>
      </trkpt>
      <trkpt lat="62.21785" lon="5.63108">
        <ele>109.222393</ele>
        <time>2020-07-30T10:37:45.403Z</time>
      </trkpt>
      <trkpt lat="62.21782" lon="5.63137">
        <ele>108.013466</ele>
        <time>2020-07-30T10:37:46.391Z</time>
      </trkpt>
      <trkpt lat="62.21779" lon="5.63166">
        <ele>106.81567</ele>
        <time>2020-07-30T10:37:47.392Z</time>
      </trkpt>
      <trkpt lat="62.21778" lon="5.63195">
        <ele>105.647728</ele>
        <time>2020-07-30T10:37:48.409Z</time>
      </trkpt>
      <trkpt lat="62.21777" lon="5.63225">
        <ele>104.459514</ele>
        <time>2020-07-30T10:37:49.399Z</time>
      </trkpt>
      <trkpt lat="62.21777" lon="5.63256">
        <ele>103.201997</ele>
        <time>2020-07-30T10:37:50.391Z</time>
      </trkpt>
      <trkpt lat="62.21777" lon="5.63286">
        <ele>101.844187</ele>
        <time>2020-07-30T10:37:51.419Z</time>
      </trkpt>
      <trkpt lat="62.21775" lon="5.63316">
        <ele>100.50148</ele>
        <time>2020-07-30T10:37:52.388Z</time>
      </trkpt>
      <trkpt lat="62.21773" lon="5.63346">
        <ele>99.176711</ele>
        <time>2020-07-30T10:37:53.399Z</time>
      </trkpt>
      <trkpt lat="62.21769" lon="5.63375">
        <ele>97.846033</ele>
        <time>2020-07-30T10:37:54.399Z</time>
      </trkpt>
      <trkpt lat="62.21765" lon="5.63403">
        <ele>96.525761</ele>
        <time>2020-07-30T10:37:55.443Z</time>
      </trkpt>
      <trkpt lat="62.2176" lon="5.63431">
        <ele>95.176483</ele>
        <time>2020-07-30T10:37:56.384Z</time>
      </trkpt>
      <trkpt lat="62.21754" lon="5.6346">
        <ele>93.787204</ele>
        <time>2020-07-30T10:37:57.406Z</time>
      </trkpt>
      <trkpt lat="62.21749" lon="5.63489">
        <ele>92.390772</ele>
        <time>2020-07-30T10:37:58.419Z</time>
      </trkpt>
      <trkpt lat="62.21744" lon="5.63518">
        <ele>91.032529</ele>
        <time>2020-07-30T10:37:59.420Z</time>
      </trkpt>
      <trkpt lat="62.21739" lon="5.63545">
        <ele>89.751479</ele>
        <time>2020-07-30T10:38:00.429Z</time>
      </trkpt>
      <trkpt lat="62.21734" lon="5.63572">
        <ele>88.493143</ele>
        <time>2020-07-30T10:38:01.397Z</time>
      </trkpt>
      <trkpt lat="62.21731" lon="5.63599">
        <ele>87.226158</ele>
        <time>2020-07-30T10:38:02.403Z</time>
      </trkpt>
      <trkpt lat="62.21728" lon="5.63628">
        <ele>86.002202</ele>
        <time>2020-07-30T10:38:03.413Z</time>
      </trkpt>
      <trkpt lat="62.21726" lon="5.63657">
        <ele>84.893178</ele>
        <time>2020-07-30T10:38:04.397Z</time>
      </trkpt>
      <trkpt lat="62.21724" lon="5.63687">
        <ele>83.779293</ele>
        <time>2020-07-30T10:38:05.418Z</time>
      </trkpt>
      <trkpt lat="62.21722" lon="5.63717">
        <ele>82.644189</ele>
        <time>2020-07-30T10:38:06.399Z</time>
      </trkpt>
      <trkpt lat="62.21722" lon="5.63749">
        <ele>81.458027</ele>
        <time>2020-07-30T10:38:07.408Z</time>
      </trkpt>
      <trkpt lat="62.21723" lon="5.6378">
        <ele>80.275294</ele>
        <time>2020-07-30T10:38:08.383Z</time>
      </trkpt>
      <trkpt lat="62.21723" lon="5.63812">
        <ele>79.092209</ele>
        <time>2020-07-30T10:38:09.405Z</time>
      </trkpt>
      <trkpt lat="62.21725" lon="5.63843">
        <ele>77.924873</ele>
        <time>2020-07-30T10:38:10.417Z</time>
      </trkpt>
      <trkpt lat="62.21727" lon="5.63874">
        <ele>76.756579</ele>
        <time>2020-07-30T10:38:11.405Z</time>
      </trkpt>
      <trkpt lat="62.21728" lon="5.63905">
        <ele>75.625186</ele>
        <time>2020-07-30T10:38:12.378Z</time>
      </trkpt>
      <trkpt lat="62.21729" lon="5.63935">
        <ele>74.494234</ele>
        <time>2020-07-30T10:38:13.393Z</time>
      </trkpt>
      <trkpt lat="62.21728" lon="5.63965">
        <ele>73.378175</ele>
        <time>2020-07-30T10:38:14.402Z</time>
      </trkpt>
      <trkpt lat="62.21726" lon="5.63994">
        <ele>72.271676</ele>
        <time>2020-07-30T10:38:15.409Z</time>
      </trkpt>
      <trkpt lat="62.21724" lon="5.64023">
        <ele>71.332416</ele>
        <time>2020-07-30T10:38:16.419Z</time>
      </trkpt>
      <trkpt lat="62.2172" lon="5.64052">
        <ele>70.480943</ele>
        <time>2020-07-30T10:38:17.401Z</time>
      </trkpt>
      <trkpt lat="62.21716" lon="5.64079">
        <ele>69.637082</ele>
        <time>2020-07-30T10:38:18.410Z</time>
      </trkpt>
      <trkpt lat="62.21711" lon="5.64106">
        <ele>68.80225</ele>
        <time>2020-07-30T10:38:19.384Z</time>
      </trkpt>
      <trkpt lat="62.21706" lon="5.64132">
        <ele>67.976453</ele>
        <time>2020-07-30T10:38:20.413Z</time>
      </trkpt>
      <trkpt lat="62.21701" lon="5.64157">
        <ele>67.161372</ele>
        <time>2020-07-30T10:38:21.395Z</time>
      </trkpt>
      <trkpt lat="62.21696" lon="5.64183">
        <ele>66.346289</ele>
        <time>2020-07-30T10:38:22.411Z</time>
      </trkpt>
      <trkpt lat="62.2169" lon="5.64208">
        <ele>65.54976</ele>
        <time>2020-07-30T10:38:23.397Z</time>
      </trkpt>
      <trkpt lat="62.21685" lon="5.64233">
        <ele>64.761245</ele>
        <time>2020-07-30T10:38:24.392Z</time>
      </trkpt>
      <trkpt lat="62.2168" lon="5.64257">
        <ele>63.980797</ele>
        <time>2020-07-30T10:38:25.412Z</time>
      </trkpt>
      <trkpt lat="62.21675" lon="5.64281">
        <ele>63.208159</ele>
        <time>2020-07-30T10:38:26.389Z</time>
      </trkpt>
      <trkpt lat="62.2167" lon="5.64305">
        <ele>62.443386</ele>
        <time>2020-07-30T10:38:27.396Z</time>
      </trkpt>
      <trkpt lat="62.21666" lon="5.64329">
        <ele>61.699432</ele>
        <time>2020-07-30T10:38:28.388Z</time>
      </trkpt>
      <trkpt lat="62.21661" lon="5.64352">
        <ele>60.947661</ele>
        <time>2020-07-30T10:38:29.399Z</time>
      </trkpt>
      <trkpt lat="62.21656" lon="5.64376">
        <ele>60.356073</ele>
        <time>2020-07-30T10:38:30.403Z</time>
      </trkpt>
      <trkpt lat="62.21652" lon="5.64399">
        <ele>59.851951</ele>
        <time>2020-07-30T10:38:31.423Z</time>
      </trkpt>
      <trkpt lat="62.21647" lon="5.64424">
        <ele>59.320728</ele>
        <time>2020-07-30T10:38:32.389Z</time>
      </trkpt>
      <trkpt lat="62.21642" lon="5.64449">
        <ele>58.776612</ele>
        <time>2020-07-30T10:38:33.410Z</time>
      </trkpt>
      <trkpt lat="62.21638" lon="5.64476">
        <ele>58.21585</ele>
        <time>2020-07-30T10:38:34.383Z</time>
      </trkpt>
      <trkpt lat="62.21633" lon="5.64503">
        <ele>57.652035</ele>
        <time>2020-07-30T10:38:35.406Z</time>
      </trkpt>
      <trkpt lat="62.21629" lon="5.6453">
        <ele>57.091755</ele>
        <time>2020-07-30T10:38:36.406Z</time>
      </trkpt>
      <trkpt lat="62.21625" lon="5.64556">
        <ele>56.534648</ele>
        <time>2020-07-30T10:38:37.409Z</time>
      </trkpt>
      <trkpt lat="62.21622" lon="5.64582">
        <ele>56.001456</ele>
        <time>2020-07-30T10:38:38.411Z</time>
      </trkpt>
      <trkpt lat="62.21618" lon="5.64607">
        <ele>55.477783</ele>
        <time>2020-07-30T10:38:39.385Z</time>
      </trkpt>
      <trkpt lat="62.21615" lon="5.64632">
        <ele>54.972439</ele>
        <time>2020-07-30T10:38:40.384Z</time>
      </trkpt>
      <trkpt lat="62.21612" lon="5.64656">
        <ele>54.466392</ele>
        <time>2020-07-30T10:38:41.418Z</time>
      </trkpt>
      <trkpt lat="62.21608" lon="5.64681">
        <ele>53.959146</ele>
        <time>2020-07-30T10:38:42.439Z</time>
      </trkpt>
      <trkpt lat="62.21605" lon="5.64706">
        <ele>53.448095</ele>
        <time>2020-07-30T10:38:43.385Z</time>
      </trkpt>
      <trkpt lat="62.21602" lon="5.64731">
        <ele>52.982261</ele>
        <time>2020-07-30T10:38:44.398Z</time>
      </trkpt>
      <trkpt lat="62.21598" lon="5.64756">
        <ele>52.752022</ele>
        <time>2020-07-30T10:38:45.399Z</time>
      </trkpt>
      <trkpt lat="62.21595" lon="5.64781">
        <ele>52.52142</ele>
        <time>2020-07-30T10:38:46.403Z</time>
      </trkpt>
      <trkpt lat="62.21592" lon="5.64806">
        <ele>52.296006</ele>
        <time>2020-07-30T10:38:47.398Z</time>
      </trkpt>
      <trkpt lat="62.2159" lon="5.64831">
        <ele>52.072748</ele>
        <time>2020-07-30T10:38:48.408Z</time>
      </trkpt>
      <trkpt lat="62.21587" lon="5.64856">
        <ele>51.849037</ele>
        <time>2020-07-30T10:38:49.418Z</time>
      </trkpt>
      <trkpt lat="62.21584" lon="5.6488">
        <ele>51.626558</ele>
        <time>2020-07-30T10:38:50.431Z</time>
      </trkpt>
      <trkpt lat="62.21581" lon="5.64905">
        <ele>51.402379</ele>
        <time>2020-07-30T10:38:51.408Z</time>
      </trkpt>
      <trkpt lat="62.21578" lon="5.64929">
        <ele>51.18255</ele>
        <time>2020-07-30T10:38:52.377Z</time>
      </trkpt>
      <trkpt lat="62.21576" lon="5.64953">
        <ele>50.964433</ele>
        <time>2020-07-30T10:38:53.392Z</time>
      </trkpt>
      <trkpt lat="62.21573" lon="5.64978">
        <ele>50.74799</ele>
        <time>2020-07-30T10:38:54.391Z</time>
      </trkpt>
      <trkpt lat="62.21571" lon="5.65001">
        <ele>50.534573</ele>
        <time>2020-07-30T10:38:55.406Z</time>
      </trkpt>
      <trkpt lat="62.21568" lon="5.65024">
        <ele>50.328425</ele>
        <time>2020-07-30T10:38:56.388Z</time>
      </trkpt>
      <trkpt lat="62.21566" lon="5.65046">
        <ele>50.133773</ele>
        <time>2020-07-30T10:38:57.391Z</time>
      </trkpt>
      <trkpt lat="62.21564" lon="5.65067">
        <ele>49.944277</ele>
        <time>2020-07-30T10:38:58.386Z</time>
      </trkpt>
      <trkpt lat="62.21563" lon="5.65087">
        <ele>49.768042</ele>
        <time>2020-07-30T10:38:59.388Z</time>
      </trkpt>
      <trkpt lat="62.21563" lon="5.65106">
        <ele>49.696912</ele>
        <time>2020-07-30T10:39:00.418Z</time>
      </trkpt>
      <trkpt lat="62.21565" lon="5.65142">
        <ele>50.25089</ele>
        <time>2020-07-30T10:39:02.406Z</time>
      </trkpt>
      <trkpt lat="62.21569" lon="5.65174">
        <ele>50.774648</ele>
        <time>2020-07-30T10:39:04.428Z</time>
      </trkpt>
      <trkpt lat="62.21573" lon="5.65206">
        <ele>51.280877</ele>
        <time>2020-07-30T10:39:06.417Z</time>
      </trkpt>
      <trkpt lat="62.21577" lon="5.65235">
        <ele>51.747941</ele>
        <time>2020-07-30T10:39:08.398Z</time>
      </trkpt>
      <trkpt lat="62.21581" lon="5.65263">
        <ele>52.203871</ele>
        <time>2020-07-30T10:39:10.408Z</time>
      </trkpt>
      <trkpt lat="62.21585" lon="5.65293">
        <ele>52.69564</ele>
        <time>2020-07-30T10:39:12.387Z</time>
      </trkpt>
      <trkpt lat="62.21588" lon="5.65322">
        <ele>53.161846</ele>
        <time>2020-07-30T10:39:14.399Z</time>
      </trkpt>
      <trkpt lat="62.2159" lon="5.65349">
        <ele>53.58882</ele>
        <time>2020-07-30T10:39:16.419Z</time>
      </trkpt>
      <trkpt lat="62.21593" lon="5.65376">
        <ele>54.01732</ele>
        <time>2020-07-30T10:39:18.382Z</time>
      </trkpt>
      <trkpt lat="62.21594" lon="5.654">
        <ele>54.382038</ele>
        <time>2020-07-30T10:39:20.408Z</time>
      </trkpt>
      <trkpt lat="62.21595" lon="5.6542">
        <ele>54.702757</ele>
        <time>2020-07-30T10:39:22.385Z</time>
      </trkpt>
      <trkpt lat="62.21598" lon="5.65447">
        <ele>55.124498</ele>
        <time>2020-07-30T10:39:25.386Z</time>
      </trkpt>
      <trkpt lat="62.21596" lon="5.65472">
        <ele>55.523563</ele>
        <time>2020-07-30T10:39:28.412Z</time>
      </trkpt>
      <trkpt lat="62.21594" lon="5.65494">
        <ele>55.793534</ele>
        <time>2020-07-30T10:39:31.405Z</time>
      </trkpt>
      <trkpt lat="62.21592" lon="5.65515">
        <ele>56.003161</ele>
        <time>2020-07-30T10:39:34.408Z</time>
      </trkpt>
      <trkpt lat="62.21591" lon="5.65538">
        <ele>56.24186</ele>
        <time>2020-07-30T10:39:38.390Z</time>
      </trkpt>
      <trkpt lat="62.2159" lon="5.65561">
        <ele>56.479546</ele>
        <time>2020-07-30T10:39:42.398Z</time>
      </trkpt>
      <trkpt lat="62.21589" lon="5.65584">
        <ele>56.720025</ele>
        <time>2020-07-30T10:39:46.384Z</time>
      </trkpt>
      <trkpt lat="62.21588" lon="5.6561">
        <ele>56.980966</ele>
        <time>2020-07-30T10:39:50.388Z</time>
      </trkpt>
      <trkpt lat="62.21587" lon="5.65631">
        <ele>57.194356</ele>
        <time>2020-07-30T10:39:53.398Z</time>
      </trkpt>
      <trkpt lat="62.21586" lon="5.65652">
        <ele>57.410483</ele>
        <time>2020-07-30T10:39:56.414Z</time>
      </trkpt>
      <trkpt lat="62.21585" lon="5.65674">
        <ele>57.641071</ele>
        <time>2020-07-30T10:39:59.402Z</time>
      </trkpt>
      <trkpt lat="62.21584" lon="5.65695">
        <ele>57.851045</ele>
        <time>2020-07-30T10:40:02.419Z</time>
      </trkpt>
      <trkpt lat="62.21583" lon="5.65714">
        <ele>58.048796</ele>
        <time>2020-07-30T10:40:05.405Z</time>
      </trkpt>
      <trkpt lat="62.21581" lon="5.65738">
        <ele>58.300253</ele>
        <time>2020-07-30T10:40:09.391Z</time>
      </trkpt>
      <trkpt lat="62.2158" lon="5.65762">
        <ele>58.542265</ele>
        <time>2020-07-30T10:40:13.377Z</time>
      </trkpt>
      <trkpt lat="62.21579" lon="5.65784">
        <ele>58.773151</ele>
        <time>2020-07-30T10:40:17.378Z</time>
      </trkpt>
      <trkpt lat="62.21577" lon="5.65805">
        <ele>58.989876</ele>
        <time>2020-07-30T10:40:21.384Z</time>
      </trkpt>
      <trkpt lat="62.21576" lon="5.65827">
        <ele>59.218057</ele>
        <time>2020-07-30T10:40:25.424Z</time>
      </trkpt>
      <trkpt lat="62.21575" lon="5.6585">
        <ele>59.45056</ele>
        <time>2020-07-30T10:40:29.382Z</time>
      </trkpt>
      <trkpt lat="62.21574" lon="5.65871">
        <ele>59.841806</ele>
        <time>2020-07-30T10:40:33.390Z</time>
      </trkpt>
      <trkpt lat="62.21572" lon="5.65893">
        <ele>60.460338</ele>
        <time>2020-07-30T10:40:37.386Z</time>
      </trkpt>
      <trkpt lat="62.21571" lon="5.65915">
        <ele>61.083275</ele>
        <time>2020-07-30T10:40:41.396Z</time>
      </trkpt>
      <trkpt lat="62.2157" lon="5.65938">
        <ele>61.728911</ele>
        <time>2020-07-30T10:40:45.420Z</time>
      </trkpt>
      <trkpt lat="62.21568" lon="5.65961">
        <ele>62.380809</ele>
        <time>2020-07-30T10:40:49.441Z</time>
      </trkpt>
      <trkpt lat="62.21567" lon="5.65986">
        <ele>63.070409</ele>
        <time>2020-07-30T10:40:53.400Z</time>
      </trkpt>
      <trkpt lat="62.21565" lon="5.6601">
        <ele>63.77336</ele>
        <time>2020-07-30T10:40:57.387Z</time>
      </trkpt>
      <trkpt lat="62.21562" lon="5.66033">
        <ele>64.425337</ele>
        <time>2020-07-30T10:41:01.402Z</time>
      </trkpt>
      <trkpt lat="62.21561" lon="5.66056">
        <ele>65.094852</ele>
        <time>2020-07-30T10:41:05.424Z</time>
      </trkpt>
      <trkpt lat="62.2156" lon="5.66077">
        <ele>65.689065</ele>
        <time>2020-07-30T10:41:09.464Z</time>
      </trkpt>
      <trkpt lat="62.21559" lon="5.66098">
        <ele>66.269343</ele>
        <time>2020-07-30T10:41:13.385Z</time>
      </trkpt>
      <trkpt lat="62.21558" lon="5.6612">
        <ele>66.892713</ele>
        <time>2020-07-30T10:41:17.386Z</time>
      </trkpt>
      <trkpt lat="62.21557" lon="5.66143">
        <ele>67.523173</ele>
        <time>2020-07-30T10:41:21.405Z</time>
      </trkpt>
      <trkpt lat="62.21555" lon="5.66166">
        <ele>68.185795</ele>
        <time>2020-07-30T10:41:25.414Z</time>
      </trkpt>
      <trkpt lat="62.21553" lon="5.66188">
        <ele>68.825403</ele>
        <time>2020-07-30T10:41:29.386Z</time>
      </trkpt>
      <trkpt lat="62.21552" lon="5.66208">
        <ele>69.36711</ele>
        <time>2020-07-30T10:41:33.403Z</time>
      </trkpt>
      <trkpt lat="62.21551" lon="5.66229">
        <ele>69.961325</ele>
        <time>2020-07-30T10:41:38.384Z</time>
      </trkpt>
      <trkpt lat="62.21549" lon="5.6625">
        <ele>70.588302</ele>
        <time>2020-07-30T10:41:44.384Z</time>
      </trkpt>
      <trkpt lat="62.21548" lon="5.66269">
        <ele>71.25937</ele>
        <time>2020-07-30T10:41:50.409Z</time>
      </trkpt>
      <trkpt lat="62.21547" lon="5.66289">
        <ele>71.906839</ele>
        <time>2020-07-30T10:41:56.381Z</time>
      </trkpt>
      <trkpt lat="62.21546" lon="5.66308">
        <ele>72.549025</ele>
        <time>2020-07-30T10:42:02.388Z</time>
      </trkpt>
      <trkpt lat="62.21545" lon="5.6633">
        <ele>73.300754</ele>
        <time>2020-07-30T10:42:08.412Z</time>
      </trkpt>
      <trkpt lat="62.21543" lon="5.66352">
        <ele>74.035378</ele>
        <time>2020-07-30T10:42:14.399Z</time>
      </trkpt>
      <trkpt lat="62.21543" lon="5.66374">
        <ele>74.786356</ele>
        <time>2020-07-30T10:42:20.417Z</time>
      </trkpt>
      <trkpt lat="62.21542" lon="5.66395">
        <ele>75.480709</ele>
        <time>2020-07-30T10:42:26.418Z</time>
      </trkpt>
      <trkpt lat="62.21539" lon="5.66416">
        <ele>76.221104</ele>
        <time>2020-07-30T10:42:33.407Z</time>
      </trkpt>
      <trkpt lat="62.21538" lon="5.66438">
        <ele>76.94733</ele>
        <time>2020-07-30T10:42:40.391Z</time>
      </trkpt>
      <trkpt lat="62.21536" lon="5.66458">
        <ele>77.629249</ele>
        <time>2020-07-30T10:42:46.406Z</time>
      </trkpt>
      <trkpt lat="62.21536" lon="5.6648">
        <ele>78.36685</ele>
        <time>2020-07-30T10:42:53.424Z</time>
      </trkpt>
      <trkpt lat="62.21535" lon="5.665">
        <ele>79.036448</ele>
        <time>2020-07-30T10:43:00.436Z</time>
      </trkpt>
      <trkpt lat="62.21533" lon="5.66519">
        <ele>79.690894</ele>
        <time>2020-07-30T10:43:06.420Z</time>
      </trkpt>
      <trkpt lat="62.21532" lon="5.66541">
        <ele>80.42445</ele>
        <time>2020-07-30T10:43:13.415Z</time>
      </trkpt>
      <trkpt lat="62.21531" lon="5.66563">
        <ele>81.158005</ele>
        <time>2020-07-30T10:43:20.409Z</time>
      </trkpt>
      <trkpt lat="62.21531" lon="5.66583">
        <ele>81.832484</ele>
        <time>2020-07-30T10:43:27.382Z</time>
      </trkpt>
      <trkpt lat="62.2153" lon="5.66603">
        <ele>82.499854</ele>
        <time>2020-07-30T10:43:33.387Z</time>
      </trkpt>
      <trkpt lat="62.2153" lon="5.66623">
        <ele>83.170992</ele>
        <time>2020-07-30T10:43:39.408Z</time>
      </trkpt>
      <trkpt lat="62.21529" lon="5.66645">
        <ele>83.740741</ele>
        <time>2020-07-30T10:43:46.646Z</time>
      </trkpt>
      <trkpt lat="62.21528" lon="5.66667">
        <ele>84.285206</ele>
        <time>2020-07-30T10:43:53.424Z</time>
      </trkpt>
      <trkpt lat="62.21526" lon="5.66687">
        <ele>84.774668</ele>
        <time>2020-07-30T10:43:59.380Z</time>
      </trkpt>
      <trkpt lat="62.21525" lon="5.66707">
        <ele>85.253009</ele>
        <time>2020-07-30T10:44:05.395Z</time>
      </trkpt>
      <trkpt lat="62.21524" lon="5.66726">
        <ele>85.715722</ele>
        <time>2020-07-30T10:44:11.428Z</time>
      </trkpt>
      <trkpt lat="62.21523" lon="5.66747">
        <ele>86.21715</ele>
        <time>2020-07-30T10:44:17.442Z</time>
      </trkpt>
      <trkpt lat="62.21522" lon="5.66769">
        <ele>86.754892</ele>
        <time>2020-07-30T10:44:24.385Z</time>
      </trkpt>
      <trkpt lat="62.2152" lon="5.6679">
        <ele>87.269605</ele>
        <time>2020-07-30T10:44:30.387Z</time>
      </trkpt>
      <trkpt lat="62.21519" lon="5.66811">
        <ele>87.777462</ele>
        <time>2020-07-30T10:44:36.414Z</time>
      </trkpt>
      <trkpt lat="62.21518" lon="5.66831">
        <ele>88.244188</ele>
        <time>2020-07-30T10:44:41.424Z</time>
      </trkpt>
      <trkpt lat="62.21517" lon="5.66852">
        <ele>88.748008</ele>
        <time>2020-07-30T10:44:47.408Z</time>
      </trkpt>
      <trkpt lat="62.21516" lon="5.66873">
        <ele>89.256517</ele>
        <time>2020-07-30T10:44:53.389Z</time>
      </trkpt>
      <trkpt lat="62.21515" lon="5.66895">
        <ele>89.791888</ele>
        <time>2020-07-30T10:44:59.392Z</time>
      </trkpt>
      <trkpt lat="62.21514" lon="5.66917">
        <ele>90.339148</ele>
        <time>2020-07-30T10:45:05.418Z</time>
      </trkpt>
      <trkpt lat="62.21512" lon="5.66939">
        <ele>90.860246</ele>
        <time>2020-07-30T10:45:11.385Z</time>
      </trkpt>
      <trkpt lat="62.21511" lon="5.66959">
        <ele>91.343656</ele>
        <time>2020-07-30T10:45:17.391Z</time>
      </trkpt>
      <trkpt lat="62.2151" lon="5.66981">
        <ele>91.865228</ele>
        <time>2020-07-30T10:45:23.401Z</time>
      </trkpt>
      <trkpt lat="62.21508" lon="5.67">
        <ele>92.356314</ele>
        <time>2020-07-30T10:45:28.449Z</time>
      </trkpt>
      <trkpt lat="62.21507" lon="5.67023">
        <ele>92.783691</ele>
        <time>2020-07-30T10:45:34.390Z</time>
      </trkpt>
      <trkpt lat="62.21506" lon="5.67044">
        <ele>93.095424</ele>
        <time>2020-07-30T10:45:39.428Z</time>
      </trkpt>
      <trkpt lat="62.21505" lon="5.67064">
        <ele>93.407452</ele>
        <time>2020-07-30T10:45:44.398Z</time>
      </trkpt>
      <trkpt lat="62.21503" lon="5.67085">
        <ele>93.735089</ele>
        <time>2020-07-30T10:45:49.410Z</time>
      </trkpt>
      <trkpt lat="62.21502" lon="5.67108">
        <ele>94.094367</ele>
        <time>2020-07-30T10:45:54.417Z</time>
      </trkpt>
      <trkpt lat="62.215" lon="5.67131">
        <ele>94.449828</ele>
        <time>2020-07-30T10:45:59.416Z</time>
      </trkpt>
      <trkpt lat="62.21498" lon="5.67152">
        <ele>94.774703</ele>
        <time>2020-07-30T10:46:04.383Z</time>
      </trkpt>
      <trkpt lat="62.21497" lon="5.67172">
        <ele>95.086732</ele>
        <time>2020-07-30T10:46:09.413Z</time>
      </trkpt>
      <trkpt lat="62.21496" lon="5.67194">
        <ele>95.419818</ele>
        <time>2020-07-30T10:46:14.387Z</time>
      </trkpt>
      <trkpt lat="62.21495" lon="5.67217">
        <ele>95.774264</ele>
        <time>2020-07-30T10:46:19.423Z</time>
      </trkpt>
      <trkpt lat="62.21494" lon="5.67238">
        <ele>96.099526</ele>
        <time>2020-07-30T10:46:24.394Z</time>
      </trkpt>
      <trkpt lat="62.21493" lon="5.6726">
        <ele>96.440809</ele>
        <time>2020-07-30T10:46:29.431Z</time>
      </trkpt>
      <trkpt lat="62.21491" lon="5.67282">
        <ele>96.78017</ele>
        <time>2020-07-30T10:46:34.446Z</time>
      </trkpt>
      <trkpt lat="62.2149" lon="5.67304">
        <ele>97.11454</ele>
        <time>2020-07-30T10:46:39.412Z</time>
      </trkpt>
      <trkpt lat="62.21489" lon="5.67324">
        <ele>97.426898</ele>
        <time>2020-07-30T10:46:44.437Z</time>
      </trkpt>
      <trkpt lat="62.21488" lon="5.67346">
        <ele>97.768875</ele>
        <time>2020-07-30T10:46:49.398Z</time>
      </trkpt>
      <trkpt lat="62.21486" lon="5.67368">
        <ele>98.105852</ele>
        <time>2020-07-30T10:46:54.398Z</time>
      </trkpt>
      <trkpt lat="62.21484" lon="5.67388">
        <ele>98.426926</ele>
        <time>2020-07-30T10:46:59.378Z</time>
      </trkpt>
      <trkpt lat="62.21483" lon="5.67409">
        <ele>99.075903</ele>
        <time>2020-07-30T10:47:04.407Z</time>
      </trkpt>
      <trkpt lat="62.21481" lon="5.67431">
        <ele>99.788533</ele>
        <time>2020-07-30T10:47:09.397Z</time>
      </trkpt>
      <trkpt lat="62.2148" lon="5.67451">
        <ele>100.460539</ele>
        <time>2020-07-30T10:47:14.383Z</time>
      </trkpt>
      <trkpt lat="62.21478" lon="5.67472">
        <ele>101.203721</ele>
        <time>2020-07-30T10:47:20.407Z</time>
      </trkpt>
      <trkpt lat="62.21477" lon="5.67496">
        <ele>101.983924</ele>
        <time>2020-07-30T10:47:26.386Z</time>
      </trkpt>
      <trkpt lat="62.21477" lon="5.67518">
        <ele>102.727049</ele>
        <time>2020-07-30T10:47:31.388Z</time>
      </trkpt>
      <trkpt lat="62.21475" lon="5.67541">
        <ele>103.481101</ele>
        <time>2020-07-30T10:47:37.391Z</time>
      </trkpt>
      <trkpt lat="62.21473" lon="5.67562">
        <ele>104.187155</ele>
        <time>2020-07-30T10:47:43.383Z</time>
      </trkpt>
      <trkpt lat="62.21472" lon="5.67581">
        <ele>104.840625</ele>
        <time>2020-07-30T10:47:49.406Z</time>
      </trkpt>
      <trkpt lat="62.2147" lon="5.67601">
        <ele>105.525552</ele>
        <time>2020-07-30T10:47:55.408Z</time>
      </trkpt>
      <trkpt lat="62.21467" lon="5.67622">
        <ele>106.246355</ele>
        <time>2020-07-30T10:48:02.418Z</time>
      </trkpt>
      <trkpt lat="62.21466" lon="5.67641">
        <ele>106.886292</ele>
        <time>2020-07-30T10:48:08.388Z</time>
      </trkpt>
      <trkpt lat="62.21464" lon="5.67661">
        <ele>107.534608</ele>
        <time>2020-07-30T10:48:14.431Z</time>
      </trkpt>
      <trkpt lat="62.21464" lon="5.67681">
        <ele>108.218027</ele>
        <time>2020-07-30T10:48:21.399Z</time>
      </trkpt>
      <trkpt lat="62.21463" lon="5.67701">
        <ele>108.865522</ele>
        <time>2020-07-30T10:48:27.393Z</time>
      </trkpt>
      <trkpt lat="62.21462" lon="5.67721">
        <ele>109.551851</ele>
        <time>2020-07-30T10:48:34.386Z</time>
      </trkpt>
      <trkpt lat="62.21461" lon="5.6774">
        <ele>110.19605</ele>
        <time>2020-07-30T10:48:41.406Z</time>
      </trkpt>
      <trkpt lat="62.21459" lon="5.67763">
        <ele>110.939108</ele>
        <time>2020-07-30T10:48:48.404Z</time>
      </trkpt>
      <trkpt lat="62.21458" lon="5.67783">
        <ele>111.572314</ele>
        <time>2020-07-30T10:48:54.400Z</time>
      </trkpt>
      <trkpt lat="62.21457" lon="5.67804">
        <ele>112.164714</ele>
        <time>2020-07-30T10:49:00.399Z</time>
      </trkpt>
      <trkpt lat="62.21457" lon="5.67823">
        <ele>112.721379</ele>
        <time>2020-07-30T10:49:06.387Z</time>
      </trkpt>
      <trkpt lat="62.21456" lon="5.67844">
        <ele>113.306147</ele>
        <time>2020-07-30T10:49:13.385Z</time>
      </trkpt>
      <trkpt lat="62.21455" lon="5.67865">
        <ele>113.911825</ele>
        <time>2020-07-30T10:49:20.405Z</time>
      </trkpt>
      <trkpt lat="62.21454" lon="5.67886">
        <ele>114.507723</ele>
        <time>2020-07-30T10:49:27.387Z</time>
      </trkpt>
      <trkpt lat="62.21452" lon="5.67906">
        <ele>115.095218</ele>
        <time>2020-07-30T10:49:34.391Z</time>
      </trkpt>
      <trkpt lat="62.21452" lon="5.67926">
        <ele>115.65552</ele>
        <time>2020-07-30T10:49:40.400Z</time>
      </trkpt>
      <trkpt lat="62.21452" lon="5.67946">
        <ele>116.223512</ele>
        <time>2020-07-30T10:49:46.401Z</time>
      </trkpt>
      <trkpt lat="62.21451" lon="5.67966">
        <ele>116.797702</ele>
        <time>2020-07-30T10:49:52.400Z</time>
      </trkpt>
      <trkpt lat="62.21449" lon="5.67987">
        <ele>117.403485</ele>
        <time>2020-07-30T10:49:59.407Z</time>
      </trkpt>
      <trkpt lat="62.21448" lon="5.68007">
        <ele>117.993909</ele>
        <time>2020-07-30T10:50:05.438Z</time>
      </trkpt>
      <trkpt lat="62.21446" lon="5.68027">
        <ele>118.547827</ele>
        <time>2020-07-30T10:50:10.384Z</time>
      </trkpt>
      <trkpt lat="62.21441" lon="5.68044">
        <ele>119.147662</ele>
        <time>2020-07-30T10:50:15.419Z</time>
      </trkpt>
      <trkpt lat="62.2144" lon="5.68065">
        <ele>119.727387</ele>
        <time>2020-07-30T10:50:20.378Z</time>
      </trkpt>
      <trkpt lat="62.21438" lon="5.68086">
        <ele>120.348461</ele>
        <time>2020-07-30T10:50:25.382Z</time>
      </trkpt>
      <trkpt lat="62.21437" lon="5.68106">
        <ele>120.918154</ele>
        <time>2020-07-30T10:50:29.405Z</time>
      </trkpt>
      <trkpt lat="62.21436" lon="5.68126">
        <ele>121.501495</ele>
        <time>2020-07-30T10:50:33.390Z</time>
      </trkpt>
      <trkpt lat="62.21435" lon="5.6815">
        <ele>122.164414</ele>
        <time>2020-07-30T10:50:38.406Z</time>
      </trkpt>
      <trkpt lat="62.21434" lon="5.68173">
        <ele>122.982164</ele>
        <time>2020-07-30T10:50:43.432Z</time>
      </trkpt>
      <trkpt lat="62.21434" lon="5.68195">
        <ele>123.747487</ele>
        <time>2020-07-30T10:50:48.398Z</time>
      </trkpt>
      <trkpt lat="62.21432" lon="5.68218">
        <ele>124.558628</ele>
        <time>2020-07-30T10:50:54.388Z</time>
      </trkpt>
      <trkpt lat="62.21431" lon="5.6824">
        <ele>125.364922</ele>
        <time>2020-07-30T10:51:00.398Z</time>
      </trkpt>
      <trkpt lat="62.21429" lon="5.6826">
        <ele>126.085033</ele>
        <time>2020-07-30T10:51:06.419Z</time>
      </trkpt>
      <trkpt lat="62.21428" lon="5.6828">
        <ele>126.789341</ele>
        <time>2020-07-30T10:51:12.394Z</time>
      </trkpt>
      <trkpt lat="62.21428" lon="5.683">
        <ele>127.47546</ele>
        <time>2020-07-30T10:51:18.430Z</time>
      </trkpt>
      <trkpt lat="62.21427" lon="5.68322">
        <ele>128.2627</ele>
        <time>2020-07-30T10:51:25.394Z</time>
      </trkpt>
      <trkpt lat="62.21427" lon="5.68343">
        <ele>129.017448</ele>
        <time>2020-07-30T10:51:32.386Z</time>
      </trkpt>
      <trkpt lat="62.21427" lon="5.68363">
        <ele>129.697995</ele>
        <time>2020-07-30T10:51:39.399Z</time>
      </trkpt>
      <trkpt lat="62.21426" lon="5.68384">
        <ele>130.473956</ele>
        <time>2020-07-30T10:51:47.382Z</time>
      </trkpt>
      <trkpt lat="62.21426" lon="5.68404">
        <ele>131.16193</ele>
        <time>2020-07-30T10:51:54.394Z</time>
      </trkpt>
      <trkpt lat="62.21428" lon="5.68424">
        <ele>131.887109</ele>
        <time>2020-07-30T10:52:01.429Z</time>
      </trkpt>
      <trkpt lat="62.21429" lon="5.68444">
        <ele>132.593797</ele>
        <time>2020-07-30T10:52:07.370Z</time>
      </trkpt>
      <trkpt lat="62.21429" lon="5.68465">
        <ele>133.3227</ele>
        <time>2020-07-30T10:52:14.394Z</time>
      </trkpt>
      <trkpt lat="62.21432" lon="5.68486">
        <ele>134.10985</ele>
        <time>2020-07-30T10:52:21.387Z</time>
      </trkpt>
      <trkpt lat="62.21433" lon="5.68507">
        <ele>134.855883</ele>
        <time>2020-07-30T10:52:28.410Z</time>
      </trkpt>
      <trkpt lat="62.21435" lon="5.68526">
        <ele>135.534168</ele>
        <time>2020-07-30T10:52:34.405Z</time>
      </trkpt>
      <trkpt lat="62.21437" lon="5.68547">
        <ele>136.479065</ele>
        <time>2020-07-30T10:52:40.429Z</time>
      </trkpt>
      <trkpt lat="62.21438" lon="5.68566">
        <ele>137.520572</ele>
        <time>2020-07-30T10:52:46.422Z</time>
      </trkpt>
      <trkpt lat="62.21441" lon="5.68587">
        <ele>138.612076</ele>
        <time>2020-07-30T10:52:52.379Z</time>
      </trkpt>
      <trkpt lat="62.21444" lon="5.68607">
        <ele>139.75073</ele>
        <time>2020-07-30T10:52:58.408Z</time>
      </trkpt>
      <trkpt lat="62.21447" lon="5.68629">
        <ele>140.917792</ele>
        <time>2020-07-30T10:53:05.416Z</time>
      </trkpt>
      <trkpt lat="62.21449" lon="5.68649">
        <ele>141.958406</ele>
        <time>2020-07-30T10:53:11.410Z</time>
      </trkpt>
      <trkpt lat="62.21453" lon="5.68668">
        <ele>143.071034</ele>
        <time>2020-07-30T10:53:18.379Z</time>
      </trkpt>
      <trkpt lat="62.21455" lon="5.6869">
        <ele>144.235771</ele>
        <time>2020-07-30T10:53:26.419Z</time>
      </trkpt>
      <trkpt lat="62.21458" lon="5.6871">
        <ele>145.314144</ele>
        <time>2020-07-30T10:53:33.420Z</time>
      </trkpt>
      <trkpt lat="62.2146" lon="5.68731">
        <ele>146.414662</ele>
        <time>2020-07-30T10:53:40.384Z</time>
      </trkpt>
      <trkpt lat="62.21465" lon="5.6875">
        <ele>147.541502</ele>
        <time>2020-07-30T10:53:47.426Z</time>
      </trkpt>
      <trkpt lat="62.2147" lon="5.68768">
        <ele>148.600439</ele>
        <time>2020-07-30T10:53:55.415Z</time>
      </trkpt>
      <trkpt lat="62.21476" lon="5.68783">
        <ele>149.631879</ele>
        <time>2020-07-30T10:54:02.397Z</time>
      </trkpt>
      <trkpt lat="62.2148" lon="5.68801">
        <ele>150.704392</ele>
        <time>2020-07-30T10:54:09.385Z</time>
      </trkpt>
      <trkpt lat="62.21484" lon="5.68821">
        <ele>151.829689</ele>
        <time>2020-07-30T10:54:16.439Z</time>
      </trkpt>
      <trkpt lat="62.21487" lon="5.68842">
        <ele>152.968479</ele>
        <time>2020-07-30T10:54:23.427Z</time>
      </trkpt>
      <trkpt lat="62.21493" lon="5.68859">
        <ele>154.117906</ele>
        <time>2020-07-30T10:54:30.430Z</time>
      </trkpt>
      <trkpt lat="62.21498" lon="5.68877">
        <ele>155.160682</ele>
        <time>2020-07-30T10:54:36.404Z</time>
      </trkpt>
      <trkpt lat="62.21504" lon="5.68891">
        <ele>156.000313</ele>
        <time>2020-07-30T10:54:42.397Z</time>
      </trkpt>
      <trkpt lat="62.21508" lon="5.68909">
        <ele>156.419045</ele>
        <time>2020-07-30T10:54:49.383Z</time>
      </trkpt>
      <trkpt lat="62.21512" lon="5.68927">
        <ele>156.846634</ele>
        <time>2020-07-30T10:54:56.402Z</time>
      </trkpt>
      <trkpt lat="62.21516" lon="5.68947">
        <ele>157.288649</ele>
        <time>2020-07-30T10:55:03.419Z</time>
      </trkpt>
      <trkpt lat="62.21518" lon="5.68968">
        <ele>157.735767</ele>
        <time>2020-07-30T10:55:09.387Z</time>
      </trkpt>
      <trkpt lat="62.2152" lon="5.68987">
        <ele>158.154393</ele>
        <time>2020-07-30T10:55:16.400Z</time>
      </trkpt>
      <trkpt lat="62.21524" lon="5.69006">
        <ele>158.594128</ele>
        <time>2020-07-30T10:55:24.384Z</time>
      </trkpt>
      <trkpt lat="62.21528" lon="5.69026">
        <ele>159.044688</ele>
        <time>2020-07-30T10:55:32.388Z</time>
      </trkpt>
      <trkpt lat="62.21532" lon="5.69044">
        <ele>159.472246</ele>
        <time>2020-07-30T10:55:38.417Z</time>
      </trkpt>
      <trkpt lat="62.21536" lon="5.69062">
        <ele>159.881253</ele>
        <time>2020-07-30T10:55:44.399Z</time>
      </trkpt>
      <trkpt lat="62.2154" lon="5.69082">
        <ele>160.341364</ele>
        <time>2020-07-30T10:55:51.403Z</time>
      </trkpt>
      <trkpt lat="62.21545" lon="5.69098">
        <ele>160.760047</ele>
        <time>2020-07-30T10:55:57.389Z</time>
      </trkpt>
      <trkpt lat="62.21549" lon="5.69116">
        <ele>161.174258</ele>
        <time>2020-07-30T10:56:03.417Z</time>
      </trkpt>
      <trkpt lat="62.21553" lon="5.69135">
        <ele>161.606174</ele>
        <time>2020-07-30T10:56:10.388Z</time>
      </trkpt>
      <trkpt lat="62.21556" lon="5.69155">
        <ele>162.048627</ele>
        <time>2020-07-30T10:56:17.396Z</time>
      </trkpt>
      <trkpt lat="62.2156" lon="5.69175">
        <ele>162.512599</ele>
        <time>2020-07-30T10:56:24.404Z</time>
      </trkpt>
      <trkpt lat="62.21565" lon="5.69192">
        <ele>162.950185</ele>
        <time>2020-07-30T10:56:31.381Z</time>
      </trkpt>
      <trkpt lat="62.21573" lon="5.69209">
        <ele>163.432371</ele>
        <time>2020-07-30T10:56:37.390Z</time>
      </trkpt>
      <trkpt lat="62.21581" lon="5.69225">
        <ele>163.936395</ele>
        <time>2020-07-30T10:56:42.404Z</time>
      </trkpt>
      <trkpt lat="62.21588" lon="5.69244">
        <ele>163.834601</ele>
        <time>2020-07-30T10:56:47.441Z</time>
      </trkpt>
      <trkpt lat="62.21596" lon="5.69259">
        <ele>163.629726</ele>
        <time>2020-07-30T10:56:52.443Z</time>
      </trkpt>
      <trkpt lat="62.21604" lon="5.69273">
        <ele>163.43214</ele>
        <time>2020-07-30T10:56:56.407Z</time>
      </trkpt>
      <trkpt lat="62.21613" lon="5.69288">
        <ele>163.210946</ele>
        <time>2020-07-30T10:57:00.407Z</time>
      </trkpt>
      <trkpt lat="62.21621" lon="5.69299">
        <ele>163.020085</ele>
        <time>2020-07-30T10:57:04.419Z</time>
      </trkpt>
      <trkpt lat="62.21631" lon="5.69309">
        <ele>162.82179</ele>
        <time>2020-07-30T10:57:07.431Z</time>
      </trkpt>
      <trkpt lat="62.2164" lon="5.69322">
        <ele>162.611931</ele>
        <time>2020-07-30T10:57:10.404Z</time>
      </trkpt>
      <trkpt lat="62.21648" lon="5.69332">
        <ele>162.433573</ele>
        <time>2020-07-30T10:57:12.393Z</time>
      </trkpt>
      <trkpt lat="62.21658" lon="5.6934">
        <ele>162.219912</ele>
        <time>2020-07-30T10:57:14.408Z</time>
      </trkpt>
      <trkpt lat="62.21669" lon="5.69346">
        <ele>162.004723</ele>
        <time>2020-07-30T10:57:16.397Z</time>
      </trkpt>
      <trkpt lat="62.2168" lon="5.69351">
        <ele>161.794729</ele>
        <time>2020-07-30T10:57:18.381Z</time>
      </trkpt>
      <trkpt lat="62.21692" lon="5.69355">
        <ele>161.557438</ele>
        <time>2020-07-30T10:57:20.413Z</time>
      </trkpt>
      <trkpt lat="62.21706" lon="5.69356">
        <ele>161.29583</ele>
        <time>2020-07-30T10:57:22.390Z</time>
      </trkpt>
      <trkpt lat="62.21721" lon="5.69355">
        <ele>160.993904</ele>
        <time>2020-07-30T10:57:24.389Z</time>
      </trkpt>
      <trkpt lat="62.21738" lon="5.69354">
        <ele>160.672665</ele>
        <time>2020-07-30T10:57:26.425Z</time>
      </trkpt>
      <trkpt lat="62.21747" lon="5.69354">
        <ele>160.343547</ele>
        <time>2020-07-30T10:57:27.404Z</time>
      </trkpt>
      <trkpt lat="62.21757" lon="5.69355">
        <ele>159.689392</ele>
        <time>2020-07-30T10:57:28.376Z</time>
      </trkpt>
      <trkpt lat="62.21766" lon="5.69355">
        <ele>159.048736</ele>
        <time>2020-07-30T10:57:29.406Z</time>
      </trkpt>
      <trkpt lat="62.21775" lon="5.69357">
        <ele>158.42637</ele>
        <time>2020-07-30T10:57:30.392Z</time>
      </trkpt>
      <trkpt lat="62.21792" lon="5.69363">
        <ele>157.239076</ele>
        <time>2020-07-30T10:57:32.412Z</time>
      </trkpt>
      <trkpt lat="62.21808" lon="5.69373">
        <ele>156.111152</ele>
        <time>2020-07-30T10:57:34.389Z</time>
      </trkpt>
      <trkpt lat="62.21822" lon="5.69387">
        <ele>155.082637</ele>
        <time>2020-07-30T10:57:36.384Z</time>
      </trkpt>
      <trkpt lat="62.21834" lon="5.69402">
        <ele>154.134118</ele>
        <time>2020-07-30T10:57:38.392Z</time>
      </trkpt>
      <trkpt lat="62.21845" lon="5.69421">
        <ele>153.193048</ele>
        <time>2020-07-30T10:57:40.402Z</time>
      </trkpt>
      <trkpt lat="62.21854" lon="5.6944">
        <ele>152.318576</ele>
        <time>2020-07-30T10:57:42.410Z</time>
      </trkpt>
      <trkpt lat="62.21862" lon="5.69459">
        <ele>151.493808</ele>
        <time>2020-07-30T10:57:44.415Z</time>
      </trkpt>
      <trkpt lat="62.21869" lon="5.69479">
        <ele>150.702497</ele>
        <time>2020-07-30T10:57:46.398Z</time>
      </trkpt>
      <trkpt lat="62.21874" lon="5.69499">
        <ele>149.976903</ele>
        <time>2020-07-30T10:57:48.400Z</time>
      </trkpt>
      <trkpt lat="62.2188" lon="5.69516">
        <ele>149.311858</ele>
        <time>2020-07-30T10:57:50.394Z</time>
      </trkpt>
      <trkpt lat="62.21885" lon="5.69532">
        <ele>148.685765</ele>
        <time>2020-07-30T10:57:52.410Z</time>
      </trkpt>
      <trkpt lat="62.21892" lon="5.69555">
        <ele>148.427848</ele>
        <time>2020-07-30T10:57:55.398Z</time>
      </trkpt>
      <trkpt lat="62.21898" lon="5.69576">
        <ele>148.622173</ele>
        <time>2020-07-30T10:57:58.393Z</time>
      </trkpt>
      <trkpt lat="62.21904" lon="5.69595">
        <ele>148.814645</ele>
        <time>2020-07-30T10:58:01.412Z</time>
      </trkpt>
      <trkpt lat="62.21909" lon="5.69612">
        <ele>148.977845</ele>
        <time>2020-07-30T10:58:04.382Z</time>
      </trkpt>
      <trkpt lat="62.21914" lon="5.69629">
        <ele>149.146247</ele>
        <time>2020-07-30T10:58:07.404Z</time>
      </trkpt>
      <trkpt lat="62.2192" lon="5.69649">
        <ele>149.330216</ele>
        <time>2020-07-30T10:58:10.405Z</time>
      </trkpt>
      <trkpt lat="62.21925" lon="5.69668">
        <ele>149.509894</ele>
        <time>2020-07-30T10:58:13.420Z</time>
      </trkpt>
      <trkpt lat="62.21931" lon="5.69686">
        <ele>149.695417</ele>
        <time>2020-07-30T10:58:16.388Z</time>
      </trkpt>
      <trkpt lat="62.21937" lon="5.69706">
        <ele>149.882455</ele>
        <time>2020-07-30T10:58:19.407Z</time>
      </trkpt>
      <trkpt lat="62.21943" lon="5.69725">
        <ele>150.07392</ele>
        <time>2020-07-30T10:58:22.413Z</time>
      </trkpt>
      <trkpt lat="62.2195" lon="5.69746">
        <ele>150.276376</ele>
        <time>2020-07-30T10:58:25.383Z</time>
      </trkpt>
      <trkpt lat="62.21956" lon="5.69766">
        <ele>150.466867</ele>
        <time>2020-07-30T10:58:28.438Z</time>
      </trkpt>
      <trkpt lat="62.21961" lon="5.69785">
        <ele>150.650293</ele>
        <time>2020-07-30T10:58:31.390Z</time>
      </trkpt>
      <trkpt lat="62.21966" lon="5.69805">
        <ele>150.835125</ele>
        <time>2020-07-30T10:58:34.387Z</time>
      </trkpt>
      <trkpt lat="62.21971" lon="5.69824">
        <ele>151.014865</ele>
        <time>2020-07-30T10:58:37.427Z</time>
      </trkpt>
      <trkpt lat="62.21977" lon="5.69843">
        <ele>151.195851</ele>
        <time>2020-07-30T10:58:40.385Z</time>
      </trkpt>
      <trkpt lat="62.21982" lon="5.69861">
        <ele>151.367714</ele>
        <time>2020-07-30T10:58:43.420Z</time>
      </trkpt>
      <trkpt lat="62.21987" lon="5.69879">
        <ele>151.938129</ele>
        <time>2020-07-30T10:58:46.399Z</time>
      </trkpt>
      <trkpt lat="62.21992" lon="5.69898">
        <ele>152.832701</ele>
        <time>2020-07-30T10:58:50.387Z</time>
      </trkpt>
      <trkpt lat="62.21998" lon="5.69918">
        <ele>153.796281</ele>
        <time>2020-07-30T10:58:55.398Z</time>
      </trkpt>
      <trkpt lat="62.22003" lon="5.69939">
        <ele>154.738467</ele>
        <time>2020-07-30T10:59:00.404Z</time>
      </trkpt>
      <trkpt lat="62.22008" lon="5.69956">
        <ele>155.587137</ele>
        <time>2020-07-30T10:59:05.427Z</time>
      </trkpt>
      <trkpt lat="62.22013" lon="5.69974">
        <ele>156.40179</ele>
        <time>2020-07-30T10:59:10.384Z</time>
      </trkpt>
      <trkpt lat="62.22018" lon="5.69992">
        <ele>157.269928</ele>
        <time>2020-07-30T10:59:16.397Z</time>
      </trkpt>
      <trkpt lat="62.22022" lon="5.70009">
        <ele>158.054725</ele>
        <time>2020-07-30T10:59:23.382Z</time>
      </trkpt>
      <trkpt lat="62.22027" lon="5.70028">
        <ele>158.967569</ele>
        <time>2020-07-30T10:59:30.422Z</time>
      </trkpt>
      <trkpt lat="62.22034" lon="5.70047">
        <ele>159.911311</ele>
        <time>2020-07-30T10:59:36.397Z</time>
      </trkpt>
      <trkpt lat="62.22038" lon="5.70065">
        <ele>160.766531</ele>
        <time>2020-07-30T10:59:42.391Z</time>
      </trkpt>
      <trkpt lat="62.22043" lon="5.70085">
        <ele>161.642252</ele>
        <time>2020-07-30T10:59:48.407Z</time>
      </trkpt>
      <trkpt lat="62.22047" lon="5.70105">
        <ele>162.536818</ele>
        <time>2020-07-30T10:59:55.399Z</time>
      </trkpt>
      <trkpt lat="62.22051" lon="5.70122">
        <ele>163.344335</ele>
        <time>2020-07-30T11:00:02.393Z</time>
      </trkpt>
      <trkpt lat="62.22057" lon="5.70139">
        <ele>164.189613</ele>
        <time>2020-07-30T11:00:08.387Z</time>
      </trkpt>
      <trkpt lat="62.22059" lon="5.70161">
        <ele>165.086803</ele>
        <time>2020-07-30T11:00:16.431Z</time>
      </trkpt>
      <trkpt lat="62.22063" lon="5.70181">
        <ele>165.977353</ele>
        <time>2020-07-30T11:00:24.403Z</time>
      </trkpt>
      <trkpt lat="62.22068" lon="5.70197">
        <ele>166.802459</ele>
        <time>2020-07-30T11:00:31.386Z</time>
      </trkpt>
      <trkpt lat="62.22074" lon="5.70214">
        <ele>167.511368</ele>
        <time>2020-07-30T11:00:38.401Z</time>
      </trkpt>
      <trkpt lat="62.22079" lon="5.70233">
        <ele>168.164247</ele>
        <time>2020-07-30T11:00:45.419Z</time>
      </trkpt>
      <trkpt lat="62.22083" lon="5.70252">
        <ele>168.785665</ele>
        <time>2020-07-30T11:00:52.406Z</time>
      </trkpt>
      <trkpt lat="62.22087" lon="5.70271">
        <ele>169.400785</ele>
        <time>2020-07-30T11:01:00.424Z</time>
      </trkpt>
      <trkpt lat="62.22092" lon="5.70287">
        <ele>169.971324</ele>
        <time>2020-07-30T11:01:07.392Z</time>
      </trkpt>
      <trkpt lat="62.22097" lon="5.70304">
        <ele>170.559862</ele>
        <time>2020-07-30T11:01:14.404Z</time>
      </trkpt>
      <trkpt lat="62.22103" lon="5.7032">
        <ele>171.170031</ele>
        <time>2020-07-30T11:01:22.397Z</time>
      </trkpt>
      <trkpt lat="62.22106" lon="5.70338">
        <ele>171.744082</ele>
        <time>2020-07-30T11:01:30.393Z</time>
      </trkpt>
      <trkpt lat="62.22108" lon="5.70358">
        <ele>172.347162</ele>
        <time>2020-07-30T11:01:38.391Z</time>
      </trkpt>
      <trkpt lat="62.22114" lon="5.70374">
        <ele>172.921205</ele>
        <time>2020-07-30T11:01:46.390Z</time>
      </trkpt>
      <trkpt lat="62.22119" lon="5.70391">
        <ele>173.56462</ele>
        <time>2020-07-30T11:01:54.408Z</time>
      </trkpt>
      <trkpt lat="62.22124" lon="5.7041">
        <ele>174.197768</ele>
        <time>2020-07-30T11:02:02.391Z</time>
      </trkpt>
      <trkpt lat="62.22129" lon="5.70426">
        <ele>174.776893</ele>
        <time>2020-07-30T11:02:08.384Z</time>
      </trkpt>
      <trkpt lat="62.22134" lon="5.70443">
        <ele>175.353996</ele>
        <time>2020-07-30T11:02:15.423Z</time>
      </trkpt>
      <trkpt lat="62.22139" lon="5.7046">
        <ele>175.950582</ele>
        <time>2020-07-30T11:02:22.400Z</time>
      </trkpt>
      <trkpt lat="62.22144" lon="5.70476">
        <ele>176.53077</ele>
        <time>2020-07-30T11:02:29.394Z</time>
      </trkpt>
      <trkpt lat="62.22149" lon="5.70494">
        <ele>177.153405</ele>
        <time>2020-07-30T11:02:36.416Z</time>
      </trkpt>
      <trkpt lat="62.22153" lon="5.70512">
        <ele>177.7554</ele>
        <time>2020-07-30T11:02:42.405Z</time>
      </trkpt>
      <trkpt lat="62.2216" lon="5.70527">
        <ele>178.343783</ele>
        <time>2020-07-30T11:02:49.402Z</time>
      </trkpt>
      <trkpt lat="62.22164" lon="5.70544">
        <ele>178.820653</ele>
        <time>2020-07-30T11:02:56.421Z</time>
      </trkpt>
      <trkpt lat="62.22167" lon="5.70565">
        <ele>179.239009</ele>
        <time>2020-07-30T11:03:03.409Z</time>
      </trkpt>
      <trkpt lat="62.22171" lon="5.70583">
        <ele>179.62198</ele>
        <time>2020-07-30T11:03:10.449Z</time>
      </trkpt>
      <trkpt lat="62.22175" lon="5.70602">
        <ele>180.032833</ele>
        <time>2020-07-30T11:03:17.394Z</time>
      </trkpt>
      <trkpt lat="62.2218" lon="5.70622">
        <ele>180.459538</ele>
        <time>2020-07-30T11:03:24.401Z</time>
      </trkpt>
      <trkpt lat="62.22185" lon="5.70641">
        <ele>180.880048</ele>
        <time>2020-07-30T11:03:31.399Z</time>
      </trkpt>
      <trkpt lat="62.22189" lon="5.7066">
        <ele>181.290965</ele>
        <time>2020-07-30T11:03:38.378Z</time>
      </trkpt>
      <trkpt lat="62.22194" lon="5.70679">
        <ele>181.710947</ele>
        <time>2020-07-30T11:03:45.386Z</time>
      </trkpt>
      <trkpt lat="62.22199" lon="5.70696">
        <ele>182.089701</ele>
        <time>2020-07-30T11:03:51.400Z</time>
      </trkpt>
      <trkpt lat="62.22204" lon="5.70712">
        <ele>182.479392</ele>
        <time>2020-07-30T11:03:57.403Z</time>
      </trkpt>
      <trkpt lat="62.2221" lon="5.70731">
        <ele>182.914935</ele>
        <time>2020-07-30T11:04:03.389Z</time>
      </trkpt>
      <trkpt lat="62.22216" lon="5.70749">
        <ele>183.323955</ele>
        <time>2020-07-30T11:04:09.407Z</time>
      </trkpt>
      <trkpt lat="62.22221" lon="5.70765">
        <ele>183.715211</ele>
        <time>2020-07-30T11:04:14.402Z</time>
      </trkpt>
      <trkpt lat="62.22227" lon="5.70781">
        <ele>184.106805</ele>
        <time>2020-07-30T11:04:19.425Z</time>
      </trkpt>
      <trkpt lat="62.22233" lon="5.70796">
        <ele>184.480089</ele>
        <time>2020-07-30T11:04:24.421Z</time>
      </trkpt>
      <trkpt lat="62.22239" lon="5.7081">
        <ele>184.856834</ele>
        <time>2020-07-30T11:04:29.419Z</time>
      </trkpt>
      <trkpt lat="62.22245" lon="5.70824">
        <ele>185.228039</ele>
        <time>2020-07-30T11:04:34.398Z</time>
      </trkpt>
      <trkpt lat="62.22252" lon="5.70838">
        <ele>185.633224</ele>
        <time>2020-07-30T11:04:39.389Z</time>
      </trkpt>
      <trkpt lat="62.22259" lon="5.70852">
        <ele>186.022951</ele>
        <time>2020-07-30T11:04:44.400Z</time>
      </trkpt>
      <trkpt lat="62.22266" lon="5.70865">
        <ele>186.446246</ele>
        <time>2020-07-30T11:04:49.390Z</time>
      </trkpt>
      <trkpt lat="62.22273" lon="5.70882">
        <ele>186.929062</ele>
        <time>2020-07-30T11:04:54.392Z</time>
      </trkpt>
      <trkpt lat="62.2228" lon="5.70897">
        <ele>187.42112</ele>
        <time>2020-07-30T11:04:59.447Z</time>
      </trkpt>
      <trkpt lat="62.22287" lon="5.70912">
        <ele>187.903674</ele>
        <time>2020-07-30T11:05:04.419Z</time>
      </trkpt>
      <trkpt lat="62.22295" lon="5.70929">
        <ele>188.413476</ele>
        <time>2020-07-30T11:05:09.393Z</time>
      </trkpt>
      <trkpt lat="62.22304" lon="5.7094">
        <ele>188.897241</ele>
        <time>2020-07-30T11:05:14.418Z</time>
      </trkpt>
      <trkpt lat="62.22312" lon="5.70951">
        <ele>189.337372</ele>
        <time>2020-07-30T11:05:19.407Z</time>
      </trkpt>
      <trkpt lat="62.22321" lon="5.70962">
        <ele>189.826341</ele>
        <time>2020-07-30T11:05:24.403Z</time>
      </trkpt>
      <trkpt lat="62.2233" lon="5.70972">
        <ele>190.311035</ele>
        <time>2020-07-30T11:05:29.385Z</time>
      </trkpt>
      <trkpt lat="62.2234" lon="5.70984">
        <ele>190.844746</ele>
        <time>2020-07-30T11:05:34.384Z</time>
      </trkpt>
      <trkpt lat="62.22349" lon="5.70994">
        <ele>191.325289</ele>
        <time>2020-07-30T11:05:38.407Z</time>
      </trkpt>
      <trkpt lat="62.22357" lon="5.71003">
        <ele>191.752666</ele>
        <time>2020-07-30T11:05:42.415Z</time>
      </trkpt>
      <trkpt lat="62.22364" lon="5.71013">
        <ele>192.176793</ele>
        <time>2020-07-30T11:05:46.397Z</time>
      </trkpt>
      <trkpt lat="62.22373" lon="5.71023">
        <ele>192.633451</ele>
        <time>2020-07-30T11:05:50.401Z</time>
      </trkpt>
      <trkpt lat="62.22382" lon="5.71035">
        <ele>193.159111</ele>
        <time>2020-07-30T11:05:55.379Z</time>
      </trkpt>
      <trkpt lat="62.22391" lon="5.71044">
        <ele>193.601383</ele>
        <time>2020-07-30T11:05:59.414Z</time>
      </trkpt>
      <trkpt lat="62.224" lon="5.71056">
        <ele>194.123743</ele>
        <time>2020-07-30T11:06:04.407Z</time>
      </trkpt>
      <trkpt lat="62.22408" lon="5.71069">
        <ele>194.595721</ele>
        <time>2020-07-30T11:06:09.394Z</time>
      </trkpt>
      <trkpt lat="62.22416" lon="5.7108">
        <ele>195.011996</ele>
        <time>2020-07-30T11:06:14.400Z</time>
      </trkpt>
      <trkpt lat="62.22424" lon="5.71091">
        <ele>195.433884</ele>
        <time>2020-07-30T11:06:19.391Z</time>
      </trkpt>
      <trkpt lat="62.22433" lon="5.71103">
        <ele>195.887056</ele>
        <time>2020-07-30T11:06:25.402Z</time>
      </trkpt>
      <trkpt lat="62.22442" lon="5.71116">
        <ele>196.358592</ele>
        <time>2020-07-30T11:06:31.377Z</time>
      </trkpt>
      <trkpt lat="62.2245" lon="5.71129">
        <ele>196.797204</ele>
        <time>2020-07-30T11:06:36.401Z</time>
      </trkpt>
      <trkpt lat="62.22459" lon="5.7114">
        <ele>197.246666</ele>
        <time>2020-07-30T11:06:41.386Z</time>
      </trkpt>
      <trkpt lat="62.22468" lon="5.71153">
        <ele>197.694746</ele>
        <time>2020-07-30T11:06:46.408Z</time>
      </trkpt>
      <trkpt lat="62.22476" lon="5.71166">
        <ele>198.144881</ele>
        <time>2020-07-30T11:06:51.400Z</time>
      </trkpt>
      <trkpt lat="62.22484" lon="5.71178">
        <ele>198.580895</ele>
        <time>2020-07-30T11:06:56.411Z</time>
      </trkpt>
      <trkpt lat="62.22492" lon="5.71193">
        <ele>199.031408</ele>
        <time>2020-07-30T11:07:02.442Z</time>
      </trkpt>
      <trkpt lat="62.22499" lon="5.71208">
        <ele>199.463035</ele>
        <time>2020-07-30T11:07:08.410Z</time>
      </trkpt>
      <trkpt lat="62.22506" lon="5.71221">
        <ele>199.877269</ele>
        <time>2020-07-30T11:07:14.421Z</time>
      </trkpt>
      <trkpt lat="62.22514" lon="5.71233">
        <ele>200.273279</ele>
        <time>2020-07-30T11:07:19.401Z</time>
      </trkpt>
      <trkpt lat="62.2252" lon="5.71248">
        <ele>200.692614</ele>
        <time>2020-07-30T11:07:25.423Z</time>
      </trkpt>
      <trkpt lat="62.22527" lon="5.71265">
        <ele>201.147918</ele>
        <time>2020-07-30T11:07:31.403Z</time>
      </trkpt>
      <trkpt lat="62.22534" lon="5.71279">
        <ele>201.562037</ele>
        <time>2020-07-30T11:07:37.401Z</time>
      </trkpt>
      <trkpt lat="62.22541" lon="5.71295">
        <ele>202.016348</ele>
        <time>2020-07-30T11:07:44.382Z</time>
      </trkpt>
      <trkpt lat="62.22549" lon="5.71308">
        <ele>202.45369</ele>
        <time>2020-07-30T11:07:50.416Z</time>
      </trkpt>
      <trkpt lat="62.22556" lon="5.71323">
        <ele>202.919223</ele>
        <time>2020-07-30T11:07:56.402Z</time>
      </trkpt>
      <trkpt lat="62.22563" lon="5.71336">
        <ele>203.356094</ele>
        <time>2020-07-30T11:08:01.400Z</time>
      </trkpt>
      <trkpt lat="62.2257" lon="5.71352">
        <ele>203.86194</ele>
        <time>2020-07-30T11:08:07.389Z</time>
      </trkpt>
      <trkpt lat="62.22577" lon="5.71368">
        <ele>204.361779</ele>
        <time>2020-07-30T11:08:13.397Z</time>
      </trkpt>
      <trkpt lat="62.22584" lon="5.71385">
        <ele>204.850241</ele>
        <time>2020-07-30T11:08:19.393Z</time>
      </trkpt>
      <trkpt lat="62.2259" lon="5.71402">
        <ele>205.318863</ele>
        <time>2020-07-30T11:08:25.408Z</time>
      </trkpt>
      <trkpt lat="62.22595" lon="5.71419">
        <ele>205.77087</ele>
        <time>2020-07-30T11:08:31.394Z</time>
      </trkpt>
      <trkpt lat="62.22602" lon="5.71436">
        <ele>206.285435</ele>
        <time>2020-07-30T11:08:37.402Z</time>
      </trkpt>
      <trkpt lat="62.22608" lon="5.71452">
        <ele>206.748727</ele>
        <time>2020-07-30T11:08:42.405Z</time>
      </trkpt>
      <trkpt lat="62.22615" lon="5.7147">
        <ele>207.249566</ele>
        <time>2020-07-30T11:08:48.387Z</time>
      </trkpt>
      <trkpt lat="62.2262" lon="5.71485">
        <ele>207.686127</ele>
        <time>2020-07-30T11:08:53.393Z</time>
      </trkpt>
      <trkpt lat="62.22626" lon="5.71504">
        <ele>208.195044</ele>
        <time>2020-07-30T11:08:59.402Z</time>
      </trkpt>
      <trkpt lat="62.22632" lon="5.71521">
        <ele>208.66355</ele>
        <time>2020-07-30T11:09:05.398Z</time>
      </trkpt>
      <trkpt lat="62.22637" lon="5.71537">
        <ele>209.105489</ele>
        <time>2020-07-30T11:09:11.396Z</time>
      </trkpt>
      <trkpt lat="62.22643" lon="5.71553">
        <ele>209.555807</ele>
        <time>2020-07-30T11:09:17.394Z</time>
      </trkpt>
      <trkpt lat="62.22649" lon="5.7157">
        <ele>210.037302</ele>
        <time>2020-07-30T11:09:23.392Z</time>
      </trkpt>
      <trkpt lat="62.22656" lon="5.71587">
        <ele>210.533472</ele>
        <time>2020-07-30T11:09:29.411Z</time>
      </trkpt>
      <trkpt lat="62.22662" lon="5.71606">
        <ele>211.062629</ele>
        <time>2020-07-30T11:09:35.386Z</time>
      </trkpt>
      <trkpt lat="62.22667" lon="5.71623">
        <ele>212.069868</ele>
        <time>2020-07-30T11:09:41.408Z</time>
      </trkpt>
      <trkpt lat="62.22674" lon="5.7164">
        <ele>213.173457</ele>
        <time>2020-07-30T11:09:47.410Z</time>
      </trkpt>
      <trkpt lat="62.2268" lon="5.71657">
        <ele>214.207035</ele>
        <time>2020-07-30T11:09:53.380Z</time>
      </trkpt>
      <trkpt lat="62.22686" lon="5.71673">
        <ele>215.225466</ele>
        <time>2020-07-30T11:09:59.403Z</time>
      </trkpt>
      <trkpt lat="62.22692" lon="5.7169">
        <ele>216.281938</ele>
        <time>2020-07-30T11:10:05.413Z</time>
      </trkpt>
      <trkpt lat="62.22699" lon="5.71706">
        <ele>217.292206</ele>
        <time>2020-07-30T11:10:11.402Z</time>
      </trkpt>
      <trkpt lat="62.22706" lon="5.71722">
        <ele>218.351725</ele>
        <time>2020-07-30T11:10:17.431Z</time>
      </trkpt>
      <trkpt lat="62.22712" lon="5.7174">
        <ele>219.44316</ele>
        <time>2020-07-30T11:10:23.389Z</time>
      </trkpt>
      <trkpt lat="62.22716" lon="5.71758">
        <ele>220.457758</ele>
        <time>2020-07-30T11:10:29.383Z</time>
      </trkpt>
      <trkpt lat="62.22721" lon="5.71775">
        <ele>221.420031</ele>
        <time>2020-07-30T11:10:35.402Z</time>
      </trkpt>
      <trkpt lat="62.22727" lon="5.71791">
        <ele>222.438023</ele>
        <time>2020-07-30T11:10:41.391Z</time>
      </trkpt>
      <trkpt lat="62.22733" lon="5.71809">
        <ele>223.467265</ele>
        <time>2020-07-30T11:10:48.412Z</time>
      </trkpt>
      <trkpt lat="62.22739" lon="5.71824">
        <ele>224.470728</ele>
        <time>2020-07-30T11:10:56.399Z</time>
      </trkpt>
      <trkpt lat="62.22747" lon="5.71839">
        <ele>225.566685</ele>
        <time>2020-07-30T11:11:04.386Z</time>
      </trkpt>
      <trkpt lat="62.22753" lon="5.71853">
        <ele>226.516615</ele>
        <time>2020-07-30T11:11:10.406Z</time>
      </trkpt>
      <trkpt lat="62.22759" lon="5.71869">
        <ele>227.474347</ele>
        <time>2020-07-30T11:11:17.428Z</time>
      </trkpt>
      <trkpt lat="62.22764" lon="5.71886">
        <ele>228.503582</ele>
        <time>2020-07-30T11:11:23.419Z</time>
      </trkpt>
      <trkpt lat="62.2277" lon="5.71904">
        <ele>229.542726</ele>
        <time>2020-07-30T11:11:30.416Z</time>
      </trkpt>
      <trkpt lat="62.22776" lon="5.71921">
        <ele>230.190953</ele>
        <time>2020-07-30T11:11:37.414Z</time>
      </trkpt>
      <trkpt lat="62.22781" lon="5.71937">
        <ele>230.62748</ele>
        <time>2020-07-30T11:11:43.395Z</time>
      </trkpt>
      <trkpt lat="62.22787" lon="5.71954">
        <ele>231.106443</ele>
        <time>2020-07-30T11:11:50.396Z</time>
      </trkpt>
      <trkpt lat="62.22793" lon="5.71968">
        <ele>231.545827</ele>
        <time>2020-07-30T11:11:56.392Z</time>
      </trkpt>
      <trkpt lat="62.22799" lon="5.71985">
        <ele>232.016436</ele>
        <time>2020-07-30T11:12:04.417Z</time>
      </trkpt>
      <trkpt lat="62.22805" lon="5.72001">
        <ele>232.479108</ele>
        <time>2020-07-30T11:12:12.435Z</time>
      </trkpt>
      <trkpt lat="62.2281" lon="5.72017">
        <ele>232.919048</ele>
        <time>2020-07-30T11:12:19.390Z</time>
      </trkpt>
      <trkpt lat="62.22816" lon="5.72035">
        <ele>233.422908</ele>
        <time>2020-07-30T11:12:26.387Z</time>
      </trkpt>
      <trkpt lat="62.22823" lon="5.7205">
        <ele>233.895139</ele>
        <time>2020-07-30T11:12:33.476Z</time>
      </trkpt>
      <trkpt lat="62.22828" lon="5.72066">
        <ele>234.349504</ele>
        <time>2020-07-30T11:12:40.405Z</time>
      </trkpt>
      <trkpt lat="62.22833" lon="5.72083">
        <ele>234.809342</ele>
        <time>2020-07-30T11:12:48.445Z</time>
      </trkpt>
      <trkpt lat="62.2284" lon="5.721">
        <ele>235.296001</ele>
        <time>2020-07-30T11:12:55.395Z</time>
      </trkpt>
      <trkpt lat="62.22844" lon="5.72118">
        <ele>235.769658</ele>
        <time>2020-07-30T11:13:03.402Z</time>
      </trkpt>
      <trkpt lat="62.22851" lon="5.72135">
        <ele>236.264644</ele>
        <time>2020-07-30T11:13:11.422Z</time>
      </trkpt>
      <trkpt lat="62.22857" lon="5.7215">
        <ele>236.707045</ele>
        <time>2020-07-30T11:13:19.398Z</time>
      </trkpt>
      <trkpt lat="62.22861" lon="5.72166">
        <ele>237.144475</ele>
        <time>2020-07-30T11:13:26.409Z</time>
      </trkpt>
      <trkpt lat="62.22867" lon="5.72183">
        <ele>237.619138</ele>
        <time>2020-07-30T11:13:34.385Z</time>
      </trkpt>
      <trkpt lat="62.22873" lon="5.72198">
        <ele>238.064104</ele>
        <time>2020-07-30T11:13:41.403Z</time>
      </trkpt>
      <trkpt lat="62.22879" lon="5.72216">
        <ele>238.560693</ele>
        <time>2020-07-30T11:13:49.403Z</time>
      </trkpt>
      <trkpt lat="62.22884" lon="5.72234">
        <ele>239.167502</ele>
        <time>2020-07-30T11:13:57.429Z</time>
      </trkpt>
      <trkpt lat="62.2289" lon="5.7225">
        <ele>239.75681</ele>
        <time>2020-07-30T11:14:04.423Z</time>
      </trkpt>
      <trkpt lat="62.22896" lon="5.72264">
        <ele>240.316755</ele>
        <time>2020-07-30T11:14:11.399Z</time>
      </trkpt>
      <trkpt lat="62.22901" lon="5.72282">
        <ele>240.908009</ele>
        <time>2020-07-30T11:14:19.406Z</time>
      </trkpt>
      <trkpt lat="62.22905" lon="5.72302">
        <ele>241.520168</ele>
        <time>2020-07-30T11:14:27.393Z</time>
      </trkpt>
      <trkpt lat="62.2291" lon="5.7232">
        <ele>242.132694</ele>
        <time>2020-07-30T11:14:35.384Z</time>
      </trkpt>
      <trkpt lat="62.22915" lon="5.72336">
        <ele>242.718625</ele>
        <time>2020-07-30T11:14:43.429Z</time>
      </trkpt>
      <trkpt lat="62.2292" lon="5.72352">
        <ele>243.274699</ele>
        <time>2020-07-30T11:14:50.401Z</time>
      </trkpt>
      <trkpt lat="62.22926" lon="5.7237">
        <ele>243.87835</ele>
        <time>2020-07-30T11:14:58.392Z</time>
      </trkpt>
      <trkpt lat="62.22931" lon="5.72387">
        <ele>244.497387</ele>
        <time>2020-07-30T11:15:06.405Z</time>
      </trkpt>
      <trkpt lat="62.22936" lon="5.72406">
        <ele>245.091893</ele>
        <time>2020-07-30T11:15:13.408Z</time>
      </trkpt>
      <trkpt lat="62.22939" lon="5.72423">
        <ele>245.654966</ele>
        <time>2020-07-30T11:15:20.389Z</time>
      </trkpt>
      <trkpt lat="62.22944" lon="5.72441">
        <ele>246.254413</ele>
        <time>2020-07-30T11:15:27.429Z</time>
      </trkpt>
      <trkpt lat="62.2295" lon="5.72459">
        <ele>246.868541</ele>
        <time>2020-07-30T11:15:34.382Z</time>
      </trkpt>
      <trkpt lat="62.22954" lon="5.72478">
        <ele>247.468213</ele>
        <time>2020-07-30T11:15:42.391Z</time>
      </trkpt>
      <trkpt lat="62.2296" lon="5.72493">
        <ele>248.04732</ele>
        <time>2020-07-30T11:15:49.399Z</time>
      </trkpt>
      <trkpt lat="62.22964" lon="5.7251">
        <ele>248.602918</ele>
        <time>2020-07-30T11:15:56.408Z</time>
      </trkpt>
      <trkpt lat="62.22968" lon="5.72529">
        <ele>249.207946</ele>
        <time>2020-07-30T11:16:04.421Z</time>
      </trkpt>
      <trkpt lat="62.22973" lon="5.72547">
        <ele>249.787211</ele>
        <time>2020-07-30T11:16:11.407Z</time>
      </trkpt>
      <trkpt lat="62.22977" lon="5.72565">
        <ele>250.246962</ele>
        <time>2020-07-30T11:16:18.393Z</time>
      </trkpt>
      <trkpt lat="62.22982" lon="5.72582">
        <ele>250.70394</ele>
        <time>2020-07-30T11:16:25.411Z</time>
      </trkpt>
      <trkpt lat="62.22987" lon="5.72601">
        <ele>251.198932</ele>
        <time>2020-07-30T11:16:33.455Z</time>
      </trkpt>
      <trkpt lat="62.22993" lon="5.72616">
        <ele>251.644199</ele>
        <time>2020-07-30T11:16:39.392Z</time>
      </trkpt>
      <trkpt lat="62.22998" lon="5.72634">
        <ele>252.112371</ele>
        <time>2020-07-30T11:16:46.427Z</time>
      </trkpt>
      <trkpt lat="62.23003" lon="5.72651">
        <ele>252.583422</ele>
        <time>2020-07-30T11:16:53.390Z</time>
      </trkpt>
      <trkpt lat="62.23008" lon="5.72668">
        <ele>253.035216</ele>
        <time>2020-07-30T11:17:00.405Z</time>
      </trkpt>
      <trkpt lat="62.23014" lon="5.72685">
        <ele>253.496023</ele>
        <time>2020-07-30T11:17:07.397Z</time>
      </trkpt>
      <trkpt lat="62.2302" lon="5.72702">
        <ele>253.989253</ele>
        <time>2020-07-30T11:17:14.431Z</time>
      </trkpt>
      <trkpt lat="62.23025" lon="5.7272">
        <ele>254.460902</ele>
        <time>2020-07-30T11:17:21.389Z</time>
      </trkpt>
      <trkpt lat="62.23031" lon="5.72737">
        <ele>254.952712</ele>
        <time>2020-07-30T11:17:28.409Z</time>
      </trkpt>
      <trkpt lat="62.23037" lon="5.72753">
        <ele>255.421249</ele>
        <time>2020-07-30T11:17:34.389Z</time>
      </trkpt>
      <trkpt lat="62.23043" lon="5.72768">
        <ele>255.876207</ele>
        <time>2020-07-30T11:17:41.411Z</time>
      </trkpt>
      <trkpt lat="62.2305" lon="5.72784">
        <ele>256.36051</ele>
        <time>2020-07-30T11:17:48.398Z</time>
      </trkpt>
      <trkpt lat="62.23056" lon="5.72801">
        <ele>256.833683</ele>
        <time>2020-07-30T11:17:54.397Z</time>
      </trkpt>
      <trkpt lat="62.23062" lon="5.72818">
        <ele>257.332079</ele>
        <time>2020-07-30T11:18:00.407Z</time>
      </trkpt>
      <trkpt lat="62.2307" lon="5.72834">
        <ele>257.8398</ele>
        <time>2020-07-30T11:18:06.423Z</time>
      </trkpt>
      <trkpt lat="62.23076" lon="5.7285">
        <ele>258.337821</ele>
        <time>2020-07-30T11:18:12.398Z</time>
      </trkpt>
      <trkpt lat="62.23083" lon="5.72868">
        <ele>258.445711</ele>
        <time>2020-07-30T11:18:18.386Z</time>
      </trkpt>
      <trkpt lat="62.2309" lon="5.72883">
        <ele>258.408804</ele>
        <time>2020-07-30T11:18:24.413Z</time>
      </trkpt>
      <trkpt lat="62.23096" lon="5.72896">
        <ele>258.374186</ele>
        <time>2020-07-30T11:18:29.385Z</time>
      </trkpt>
      <trkpt lat="62.23104" lon="5.72911">
        <ele>258.336422</ele>
        <time>2020-07-30T11:18:34.406Z</time>
      </trkpt>
      <trkpt lat="62.23111" lon="5.72927">
        <ele>258.296551</ele>
        <time>2020-07-30T11:18:39.409Z</time>
      </trkpt>
      <trkpt lat="62.23119" lon="5.72944">
        <ele>258.256452</ele>
        <time>2020-07-30T11:18:44.423Z</time>
      </trkpt>
      <trkpt lat="62.23126" lon="5.72961">
        <ele>258.216354</ele>
        <time>2020-07-30T11:18:49.388Z</time>
      </trkpt>
      <trkpt lat="62.23132" lon="5.72975">
        <ele>258.180719</ele>
        <time>2020-07-30T11:18:53.419Z</time>
      </trkpt>
      <trkpt lat="62.23138" lon="5.7299">
        <ele>258.146353</ele>
        <time>2020-07-30T11:18:57.400Z</time>
      </trkpt>
      <trkpt lat="62.23145" lon="5.73008">
        <ele>258.106724</ele>
        <time>2020-07-30T11:19:02.399Z</time>
      </trkpt>
      <trkpt lat="62.23151" lon="5.73023">
        <ele>258.072068</ele>
        <time>2020-07-30T11:19:06.426Z</time>
      </trkpt>
      <trkpt lat="62.23159" lon="5.7304">
        <ele>258.031333</ele>
        <time>2020-07-30T11:19:10.400Z</time>
      </trkpt>
      <trkpt lat="62.23166" lon="5.73058">
        <ele>257.988945</ele>
        <time>2020-07-30T11:19:14.401Z</time>
      </trkpt>
      <trkpt lat="62.23173" lon="5.73073">
        <ele>257.952433</ele>
        <time>2020-07-30T11:19:17.441Z</time>
      </trkpt>
      <trkpt lat="62.2318" lon="5.7309">
        <ele>257.911326</ele>
        <time>2020-07-30T11:19:20.393Z</time>
      </trkpt>
      <trkpt lat="62.23189" lon="5.73111">
        <ele>257.862669</ele>
        <time>2020-07-30T11:19:23.388Z</time>
      </trkpt>
      <trkpt lat="62.23196" lon="5.73126">
        <ele>257.825899</ele>
        <time>2020-07-30T11:19:25.422Z</time>
      </trkpt>
      <trkpt lat="62.23203" lon="5.73143">
        <ele>257.635517</ele>
        <time>2020-07-30T11:19:27.410Z</time>
      </trkpt>
      <trkpt lat="62.23212" lon="5.73161">
        <ele>257.125657</ele>
        <time>2020-07-30T11:19:29.395Z</time>
      </trkpt>
      <trkpt lat="62.23221" lon="5.7318">
        <ele>256.568687</ele>
        <time>2020-07-30T11:19:31.422Z</time>
      </trkpt>
      <trkpt lat="62.23231" lon="5.73202">
        <ele>255.968791</ele>
        <time>2020-07-30T11:19:33.391Z</time>
      </trkpt>
      <trkpt lat="62.23242" lon="5.73226">
        <ele>255.307585</ele>
        <time>2020-07-30T11:19:35.409Z</time>
      </trkpt>
      <trkpt lat="62.23252" lon="5.73252">
        <ele>254.614212</ele>
        <time>2020-07-30T11:19:37.413Z</time>
      </trkpt>
      <trkpt lat="62.23264" lon="5.73279">
        <ele>253.877155</ele>
        <time>2020-07-30T11:19:39.397Z</time>
      </trkpt>
      <trkpt lat="62.2327" lon="5.73293">
        <ele>253.490315</ele>
        <time>2020-07-30T11:19:40.410Z</time>
      </trkpt>
      <trkpt lat="62.23277" lon="5.73307">
        <ele>253.099164</ele>
        <time>2020-07-30T11:19:41.392Z</time>
      </trkpt>
      <trkpt lat="62.23283" lon="5.73322">
        <ele>252.708033</ele>
        <time>2020-07-30T11:19:42.422Z</time>
      </trkpt>
      <trkpt lat="62.23289" lon="5.73336">
        <ele>252.305198</ele>
        <time>2020-07-30T11:19:43.405Z</time>
      </trkpt>
      <trkpt lat="62.23296" lon="5.7335">
        <ele>251.886542</ele>
        <time>2020-07-30T11:19:44.408Z</time>
      </trkpt>
      <trkpt lat="62.23304" lon="5.73365">
        <ele>251.465549</ele>
        <time>2020-07-30T11:19:45.411Z</time>
      </trkpt>
      <trkpt lat="62.23311" lon="5.7338">
        <ele>251.02562</ele>
        <time>2020-07-30T11:19:46.402Z</time>
      </trkpt>
      <trkpt lat="62.23318" lon="5.73396">
        <ele>250.578715</ele>
        <time>2020-07-30T11:19:47.392Z</time>
      </trkpt>
      <trkpt lat="62.23325" lon="5.73412">
        <ele>250.137943</ele>
        <time>2020-07-30T11:19:48.386Z</time>
      </trkpt>
      <trkpt lat="62.23333" lon="5.73428">
        <ele>249.753744</ele>
        <time>2020-07-30T11:19:49.388Z</time>
      </trkpt>
      <trkpt lat="62.2334" lon="5.73444">
        <ele>249.372942</ele>
        <time>2020-07-30T11:19:50.416Z</time>
      </trkpt>
      <trkpt lat="62.23347" lon="5.7346">
        <ele>248.988368</ele>
        <time>2020-07-30T11:19:51.408Z</time>
      </trkpt>
      <trkpt lat="62.23355" lon="5.73476">
        <ele>248.602583</ele>
        <time>2020-07-30T11:19:52.389Z</time>
      </trkpt>
      <trkpt lat="62.23362" lon="5.73493">
        <ele>248.216894</ele>
        <time>2020-07-30T11:19:53.394Z</time>
      </trkpt>
      <trkpt lat="62.2337" lon="5.73509">
        <ele>247.832322</ele>
        <time>2020-07-30T11:19:54.391Z</time>
      </trkpt>
      <trkpt lat="62.23377" lon="5.73525">
        <ele>247.450164</ele>
        <time>2020-07-30T11:19:55.417Z</time>
      </trkpt>
      <trkpt lat="62.23384" lon="5.73541">
        <ele>247.069482</ele>
        <time>2020-07-30T11:19:56.401Z</time>
      </trkpt>
      <trkpt lat="62.23391" lon="5.73557">
        <ele>246.682484</ele>
        <time>2020-07-30T11:19:57.420Z</time>
      </trkpt>
      <trkpt lat="62.23399" lon="5.73574">
        <ele>246.295566</ele>
        <time>2020-07-30T11:19:58.389Z</time>
      </trkpt>
      <trkpt lat="62.23406" lon="5.7359">
        <ele>245.913638</ele>
        <time>2020-07-30T11:19:59.405Z</time>
      </trkpt>
      <trkpt lat="62.23413" lon="5.73607">
        <ele>245.531711</ele>
        <time>2020-07-30T11:20:00.408Z</time>
      </trkpt>
      <trkpt lat="62.2342" lon="5.73623">
        <ele>245.154699</ele>
        <time>2020-07-30T11:20:01.398Z</time>
      </trkpt>
      <trkpt lat="62.23426" lon="5.7364">
        <ele>244.782326</ele>
        <time>2020-07-30T11:20:02.398Z</time>
      </trkpt>
      <trkpt lat="62.23433" lon="5.73657">
        <ele>244.40519</ele>
        <time>2020-07-30T11:20:03.383Z</time>
      </trkpt>
      <trkpt lat="62.2344" lon="5.73673">
        <ele>244.03196</ele>
        <time>2020-07-30T11:20:04.387Z</time>
      </trkpt>
      <trkpt lat="62.23447" lon="5.73689">
        <ele>243.658691</ele>
        <time>2020-07-30T11:20:05.391Z</time>
      </trkpt>
      <trkpt lat="62.23454" lon="5.73704">
        <ele>243.30381</ele>
        <time>2020-07-30T11:20:06.416Z</time>
      </trkpt>
      <trkpt lat="62.23461" lon="5.7372">
        <ele>242.958721</ele>
        <time>2020-07-30T11:20:07.404Z</time>
      </trkpt>
      <trkpt lat="62.23468" lon="5.73735">
        <ele>242.612372</ele>
        <time>2020-07-30T11:20:08.403Z</time>
      </trkpt>
      <trkpt lat="62.23475" lon="5.73751">
        <ele>242.270859</ele>
        <time>2020-07-30T11:20:09.425Z</time>
      </trkpt>
      <trkpt lat="62.23482" lon="5.73767">
        <ele>241.929347</ele>
        <time>2020-07-30T11:20:10.398Z</time>
      </trkpt>
      <trkpt lat="62.23489" lon="5.73782">
        <ele>241.59132</ele>
        <time>2020-07-30T11:20:11.398Z</time>
      </trkpt>
      <trkpt lat="62.23496" lon="5.73797">
        <ele>241.254449</ele>
        <time>2020-07-30T11:20:12.440Z</time>
      </trkpt>
      <trkpt lat="62.23502" lon="5.73812">
        <ele>240.921105</ele>
        <time>2020-07-30T11:20:13.401Z</time>
      </trkpt>
      <trkpt lat="62.23509" lon="5.73827">
        <ele>240.592214</ele>
        <time>2020-07-30T11:20:14.414Z</time>
      </trkpt>
      <trkpt lat="62.23516" lon="5.73841">
        <ele>240.267798</ele>
        <time>2020-07-30T11:20:15.418Z</time>
      </trkpt>
      <trkpt lat="62.23522" lon="5.73856">
        <ele>239.939137</ele>
        <time>2020-07-30T11:20:16.395Z</time>
      </trkpt>
      <trkpt lat="62.23529" lon="5.7387">
        <ele>239.620996</ele>
        <time>2020-07-30T11:20:17.425Z</time>
      </trkpt>
      <trkpt lat="62.23535" lon="5.73885">
        <ele>239.29694</ele>
        <time>2020-07-30T11:20:18.398Z</time>
      </trkpt>
      <trkpt lat="62.23542" lon="5.73899">
        <ele>238.972961</ele>
        <time>2020-07-30T11:20:19.405Z</time>
      </trkpt>
      <trkpt lat="62.23548" lon="5.73914">
        <ele>238.657164</ele>
        <time>2020-07-30T11:20:20.387Z</time>
      </trkpt>
      <trkpt lat="62.23554" lon="5.73928">
        <ele>238.347223</ele>
        <time>2020-07-30T11:20:21.432Z</time>
      </trkpt>
      <trkpt lat="62.2356" lon="5.73942">
        <ele>238.036123</ele>
        <time>2020-07-30T11:20:22.407Z</time>
      </trkpt>
      <trkpt lat="62.23567" lon="5.73957">
        <ele>237.721507</ele>
        <time>2020-07-30T11:20:23.400Z</time>
      </trkpt>
      <trkpt lat="62.23573" lon="5.73971">
        <ele>237.409206</ele>
        <time>2020-07-30T11:20:24.387Z</time>
      </trkpt>
      <trkpt lat="62.23579" lon="5.73985">
        <ele>237.046059</ele>
        <time>2020-07-30T11:20:25.401Z</time>
      </trkpt>
      <trkpt lat="62.23586" lon="5.73998">
        <ele>236.6794</ele>
        <time>2020-07-30T11:20:26.427Z</time>
      </trkpt>
      <trkpt lat="62.23599" lon="5.74025">
        <ele>235.945677</ele>
        <time>2020-07-30T11:20:28.412Z</time>
      </trkpt>
      <trkpt lat="62.23611" lon="5.74052">
        <ele>235.230612</ele>
        <time>2020-07-30T11:20:30.409Z</time>
      </trkpt>
      <trkpt lat="62.23624" lon="5.74078">
        <ele>234.51142</ele>
        <time>2020-07-30T11:20:32.418Z</time>
      </trkpt>
      <trkpt lat="62.23637" lon="5.74105">
        <ele>233.770788</ele>
        <time>2020-07-30T11:20:34.428Z</time>
      </trkpt>
      <trkpt lat="62.23644" lon="5.74118">
        <ele>233.392903</ele>
        <time>2020-07-30T11:20:35.400Z</time>
      </trkpt>
      <trkpt lat="62.23651" lon="5.74131">
        <ele>233.016283</ele>
        <time>2020-07-30T11:20:36.394Z</time>
      </trkpt>
      <trkpt lat="62.23658" lon="5.74144">
        <ele>232.638421</ele>
        <time>2020-07-30T11:20:37.413Z</time>
      </trkpt>
      <trkpt lat="62.23665" lon="5.74156">
        <ele>232.251057</ele>
        <time>2020-07-30T11:20:38.382Z</time>
      </trkpt>
      <trkpt lat="62.23673" lon="5.74169">
        <ele>231.857273</ele>
        <time>2020-07-30T11:20:39.395Z</time>
      </trkpt>
      <trkpt lat="62.23681" lon="5.74182">
        <ele>231.457004</ele>
        <time>2020-07-30T11:20:40.400Z</time>
      </trkpt>
      <trkpt lat="62.23689" lon="5.74195">
        <ele>231.047915</ele>
        <time>2020-07-30T11:20:41.406Z</time>
      </trkpt>
      <trkpt lat="62.23697" lon="5.74208">
        <ele>230.633268</ele>
        <time>2020-07-30T11:20:42.406Z</time>
      </trkpt>
      <trkpt lat="62.23705" lon="5.74221">
        <ele>230.208653</ele>
        <time>2020-07-30T11:20:43.416Z</time>
      </trkpt>
      <trkpt lat="62.23713" lon="5.74234">
        <ele>229.704208</ele>
        <time>2020-07-30T11:20:44.417Z</time>
      </trkpt>
      <trkpt lat="62.23722" lon="5.74248">
        <ele>229.128524</ele>
        <time>2020-07-30T11:20:45.432Z</time>
      </trkpt>
      <trkpt lat="62.23731" lon="5.74261">
        <ele>228.542603</ele>
        <time>2020-07-30T11:20:46.398Z</time>
      </trkpt>
      <trkpt lat="62.2374" lon="5.74275">
        <ele>227.965374</ele>
        <time>2020-07-30T11:20:47.430Z</time>
      </trkpt>
      <trkpt lat="62.23748" lon="5.74289">
        <ele>227.383844</ele>
        <time>2020-07-30T11:20:48.410Z</time>
      </trkpt>
      <trkpt lat="62.23757" lon="5.74302">
        <ele>226.799347</ele>
        <time>2020-07-30T11:20:49.407Z</time>
      </trkpt>
      <trkpt lat="62.23766" lon="5.74315">
        <ele>226.217818</ele>
        <time>2020-07-30T11:20:50.401Z</time>
      </trkpt>
      <trkpt lat="62.23775" lon="5.74329">
        <ele>225.6319</ele>
        <time>2020-07-30T11:20:51.433Z</time>
      </trkpt>
      <trkpt lat="62.23784" lon="5.74343">
        <ele>225.047452</ele>
        <time>2020-07-30T11:20:52.412Z</time>
      </trkpt>
      <trkpt lat="62.23793" lon="5.74357">
        <ele>224.452743</ele>
        <time>2020-07-30T11:20:53.400Z</time>
      </trkpt>
      <trkpt lat="62.23802" lon="5.74371">
        <ele>223.840407</ele>
        <time>2020-07-30T11:20:54.419Z</time>
      </trkpt>
      <trkpt lat="62.23811" lon="5.74387">
        <ele>223.210052</ele>
        <time>2020-07-30T11:20:55.390Z</time>
      </trkpt>
      <trkpt lat="62.2382" lon="5.74403">
        <ele>222.573449</ele>
        <time>2020-07-30T11:20:56.422Z</time>
      </trkpt>
      <trkpt lat="62.23829" lon="5.74419">
        <ele>221.950091</ele>
        <time>2020-07-30T11:20:57.398Z</time>
      </trkpt>
      <trkpt lat="62.23837" lon="5.74436">
        <ele>221.324381</ele>
        <time>2020-07-30T11:20:58.406Z</time>
      </trkpt>
      <trkpt lat="62.23846" lon="5.74452">
        <ele>220.702701</ele>
        <time>2020-07-30T11:20:59.405Z</time>
      </trkpt>
      <trkpt lat="62.23855" lon="5.74469">
        <ele>220.014824</ele>
        <time>2020-07-30T11:21:00.446Z</time>
      </trkpt>
      <trkpt lat="62.23863" lon="5.74486">
        <ele>219.232588</ele>
        <time>2020-07-30T11:21:01.402Z</time>
      </trkpt>
      <trkpt lat="62.23872" lon="5.74503">
        <ele>218.426252</ele>
        <time>2020-07-30T11:21:02.401Z</time>
      </trkpt>
      <trkpt lat="62.2388" lon="5.74521">
        <ele>217.628891</ele>
        <time>2020-07-30T11:21:03.420Z</time>
      </trkpt>
      <trkpt lat="62.23889" lon="5.74539">
        <ele>216.830013</ele>
        <time>2020-07-30T11:21:04.390Z</time>
      </trkpt>
      <trkpt lat="62.23897" lon="5.74558">
        <ele>216.024386</ele>
        <time>2020-07-30T11:21:05.400Z</time>
      </trkpt>
      <trkpt lat="62.23905" lon="5.74576">
        <ele>215.228032</ele>
        <time>2020-07-30T11:21:06.420Z</time>
      </trkpt>
      <trkpt lat="62.23913" lon="5.74595">
        <ele>214.413325</ele>
        <time>2020-07-30T11:21:07.389Z</time>
      </trkpt>
      <trkpt lat="62.23922" lon="5.74614">
        <ele>213.598623</ele>
        <time>2020-07-30T11:21:08.401Z</time>
      </trkpt>
      <trkpt lat="62.23929" lon="5.74634">
        <ele>212.792454</ele>
        <time>2020-07-30T11:21:09.392Z</time>
      </trkpt>
      <trkpt lat="62.23937" lon="5.74654">
        <ele>211.976213</ele>
        <time>2020-07-30T11:21:10.400Z</time>
      </trkpt>
      <trkpt lat="62.23945" lon="5.74674">
        <ele>211.159353</ele>
        <time>2020-07-30T11:21:11.413Z</time>
      </trkpt>
      <trkpt lat="62.23952" lon="5.74695">
        <ele>210.332679</ele>
        <time>2020-07-30T11:21:12.401Z</time>
      </trkpt>
      <trkpt lat="62.2396" lon="5.74716">
        <ele>209.493635</ele>
        <time>2020-07-30T11:21:13.389Z</time>
      </trkpt>
      <trkpt lat="62.23967" lon="5.74738">
        <ele>208.634572</ele>
        <time>2020-07-30T11:21:14.428Z</time>
      </trkpt>
      <trkpt lat="62.23975" lon="5.7476">
        <ele>207.833476</ele>
        <time>2020-07-30T11:21:15.401Z</time>
      </trkpt>
      <trkpt lat="62.23982" lon="5.74782">
        <ele>207.092146</ele>
        <time>2020-07-30T11:21:16.396Z</time>
      </trkpt>
      <trkpt lat="62.2399" lon="5.74804">
        <ele>206.340298</ele>
        <time>2020-07-30T11:21:17.405Z</time>
      </trkpt>
      <trkpt lat="62.23997" lon="5.74825">
        <ele>205.597724</ele>
        <time>2020-07-30T11:21:18.411Z</time>
      </trkpt>
      <trkpt lat="62.24005" lon="5.74847">
        <ele>204.862675</ele>
        <time>2020-07-30T11:21:19.404Z</time>
      </trkpt>
      <trkpt lat="62.24012" lon="5.74867">
        <ele>204.137687</ele>
        <time>2020-07-30T11:21:20.408Z</time>
      </trkpt>
      <trkpt lat="62.2402" lon="5.74888">
        <ele>203.389581</ele>
        <time>2020-07-30T11:21:21.406Z</time>
      </trkpt>
      <trkpt lat="62.24028" lon="5.7491">
        <ele>202.633469</ele>
        <time>2020-07-30T11:21:22.427Z</time>
      </trkpt>
      <trkpt lat="62.24036" lon="5.74932">
        <ele>201.870839</ele>
        <time>2020-07-30T11:21:23.398Z</time>
      </trkpt>
      <trkpt lat="62.24043" lon="5.74954">
        <ele>201.120314</ele>
        <time>2020-07-30T11:21:24.409Z</time>
      </trkpt>
      <trkpt lat="62.24051" lon="5.74975">
        <ele>200.378995</ele>
        <time>2020-07-30T11:21:25.412Z</time>
      </trkpt>
      <trkpt lat="62.24058" lon="5.74996">
        <ele>199.67393</ele>
        <time>2020-07-30T11:21:26.437Z</time>
      </trkpt>
      <trkpt lat="62.24064" lon="5.75015">
        <ele>199.01672</ele>
        <time>2020-07-30T11:21:27.432Z</time>
      </trkpt>
      <trkpt lat="62.24071" lon="5.75033">
        <ele>198.391922</ele>
        <time>2020-07-30T11:21:28.398Z</time>
      </trkpt>
      <trkpt lat="62.24076" lon="5.75049">
        <ele>197.845321</ele>
        <time>2020-07-30T11:21:29.400Z</time>
      </trkpt>
      <trkpt lat="62.24084" lon="5.75072">
        <ele>197.259739</ele>
        <time>2020-07-30T11:21:31.400Z</time>
      </trkpt>
      <trkpt lat="62.2409" lon="5.75089">
        <ele>196.876738</ele>
        <time>2020-07-30T11:21:34.408Z</time>
      </trkpt>
      <trkpt lat="62.24099" lon="5.75112">
        <ele>196.392131</ele>
        <time>2020-07-30T11:21:37.393Z</time>
      </trkpt>
      <trkpt lat="62.24105" lon="5.7513">
        <ele>196.020237</ele>
        <time>2020-07-30T11:21:39.406Z</time>
      </trkpt>
      <trkpt lat="62.24111" lon="5.75148">
        <ele>195.633423</ele>
        <time>2020-07-30T11:21:41.412Z</time>
      </trkpt>
      <trkpt lat="62.24118" lon="5.75169">
        <ele>195.214903</ele>
        <time>2020-07-30T11:21:43.402Z</time>
      </trkpt>
      <trkpt lat="62.24125" lon="5.75189">
        <ele>194.778911</ele>
        <time>2020-07-30T11:21:45.396Z</time>
      </trkpt>
      <trkpt lat="62.24133" lon="5.75211">
        <ele>194.326149</ele>
        <time>2020-07-30T11:21:47.396Z</time>
      </trkpt>
      <trkpt lat="62.24141" lon="5.75232">
        <ele>193.863103</ele>
        <time>2020-07-30T11:21:49.405Z</time>
      </trkpt>
      <trkpt lat="62.24149" lon="5.75255">
        <ele>193.383227</ele>
        <time>2020-07-30T11:21:51.399Z</time>
      </trkpt>
      <trkpt lat="62.24157" lon="5.75279">
        <ele>192.89016</ele>
        <time>2020-07-30T11:21:53.408Z</time>
      </trkpt>
      <trkpt lat="62.24165" lon="5.75302">
        <ele>192.391702</ele>
        <time>2020-07-30T11:21:55.428Z</time>
      </trkpt>
      <trkpt lat="62.24174" lon="5.75327">
        <ele>191.885699</ele>
        <time>2020-07-30T11:21:57.402Z</time>
      </trkpt>
      <trkpt lat="62.24181" lon="5.75351">
        <ele>191.390143</ele>
        <time>2020-07-30T11:21:59.398Z</time>
      </trkpt>
      <trkpt lat="62.24189" lon="5.75376">
        <ele>190.981712</ele>
        <time>2020-07-30T11:22:01.404Z</time>
      </trkpt>
      <trkpt lat="62.24198" lon="5.75401">
        <ele>190.758362</ele>
        <time>2020-07-30T11:22:03.419Z</time>
      </trkpt>
      <trkpt lat="62.24207" lon="5.75425">
        <ele>190.534496</ele>
        <time>2020-07-30T11:22:05.390Z</time>
      </trkpt>
      <trkpt lat="62.24216" lon="5.75449">
        <ele>190.312494</ele>
        <time>2020-07-30T11:22:07.413Z</time>
      </trkpt>
      <trkpt lat="62.24225" lon="5.75475">
        <ele>190.081507</ele>
        <time>2020-07-30T11:22:09.387Z</time>
      </trkpt>
      <trkpt lat="62.24234" lon="5.755">
        <ele>189.857643</ele>
        <time>2020-07-30T11:22:11.389Z</time>
      </trkpt>
      <trkpt lat="62.24243" lon="5.75524">
        <ele>189.632825</ele>
        <time>2020-07-30T11:22:13.418Z</time>
      </trkpt>
      <trkpt lat="62.24251" lon="5.75549">
        <ele>189.409338</ele>
        <time>2020-07-30T11:22:15.412Z</time>
      </trkpt>
      <trkpt lat="62.2426" lon="5.75573">
        <ele>189.187937</ele>
        <time>2020-07-30T11:22:17.407Z</time>
      </trkpt>
      <trkpt lat="62.24269" lon="5.75597">
        <ele>188.968995</ele>
        <time>2020-07-30T11:22:19.383Z</time>
      </trkpt>
      <trkpt lat="62.24278" lon="5.7562">
        <ele>188.752997</ele>
        <time>2020-07-30T11:22:21.442Z</time>
      </trkpt>
      <trkpt lat="62.24286" lon="5.75643">
        <ele>188.542794</ele>
        <time>2020-07-30T11:22:23.398Z</time>
      </trkpt>
      <trkpt lat="62.24294" lon="5.75667">
        <ele>188.33135</ele>
        <time>2020-07-30T11:22:25.427Z</time>
      </trkpt>
      <trkpt lat="62.24302" lon="5.7569">
        <ele>188.09194</ele>
        <time>2020-07-30T11:22:27.417Z</time>
      </trkpt>
      <trkpt lat="62.2431" lon="5.75712">
        <ele>187.854418</ele>
        <time>2020-07-30T11:22:29.400Z</time>
      </trkpt>
      <trkpt lat="62.24318" lon="5.75735">
        <ele>187.610641</ele>
        <time>2020-07-30T11:22:31.388Z</time>
      </trkpt>
      <trkpt lat="62.24326" lon="5.75757">
        <ele>187.374491</ele>
        <time>2020-07-30T11:22:33.437Z</time>
      </trkpt>
      <trkpt lat="62.24335" lon="5.7578">
        <ele>187.125276</ele>
        <time>2020-07-30T11:22:35.411Z</time>
      </trkpt>
      <trkpt lat="62.24343" lon="5.75803">
        <ele>186.872241</ele>
        <time>2020-07-30T11:22:37.401Z</time>
      </trkpt>
      <trkpt lat="62.24352" lon="5.75826">
        <ele>186.617197</ele>
        <time>2020-07-30T11:22:39.382Z</time>
      </trkpt>
      <trkpt lat="62.2436" lon="5.7585">
        <ele>186.363602</ele>
        <time>2020-07-30T11:22:41.404Z</time>
      </trkpt>
      <trkpt lat="62.24368" lon="5.75874">
        <ele>186.110699</ele>
        <time>2020-07-30T11:22:43.428Z</time>
      </trkpt>
      <trkpt lat="62.24376" lon="5.75897">
        <ele>185.866951</ele>
        <time>2020-07-30T11:22:45.399Z</time>
      </trkpt>
      <trkpt lat="62.24383" lon="5.75919">
        <ele>185.633678</ele>
        <time>2020-07-30T11:22:47.464Z</time>
      </trkpt>
      <trkpt lat="62.24391" lon="5.75941">
        <ele>185.395061</ele>
        <time>2020-07-30T11:22:49.397Z</time>
      </trkpt>
      <trkpt lat="62.24398" lon="5.75964">
        <ele>185.164301</ele>
        <time>2020-07-30T11:22:51.392Z</time>
      </trkpt>
      <trkpt lat="62.24405" lon="5.75985">
        <ele>184.888456</ele>
        <time>2020-07-30T11:22:53.405Z</time>
      </trkpt>
      <trkpt lat="62.24412" lon="5.76006">
        <ele>184.238327</ele>
        <time>2020-07-30T11:22:55.428Z</time>
      </trkpt>
      <trkpt lat="62.2442" lon="5.76026">
        <ele>183.566966</ele>
        <time>2020-07-30T11:22:57.413Z</time>
      </trkpt>
      <trkpt lat="62.24428" lon="5.76048">
        <ele>182.892537</ele>
        <time>2020-07-30T11:22:59.399Z</time>
      </trkpt>
      <trkpt lat="62.24436" lon="5.76069">
        <ele>182.193918</ele>
        <time>2020-07-30T11:23:01.415Z</time>
      </trkpt>
      <trkpt lat="62.24444" lon="5.76092">
        <ele>181.493489</ele>
        <time>2020-07-30T11:23:03.450Z</time>
      </trkpt>
      <trkpt lat="62.24452" lon="5.76116">
        <ele>180.71903</ele>
        <time>2020-07-30T11:23:05.401Z</time>
      </trkpt>
      <trkpt lat="62.24461" lon="5.76146">
        <ele>179.848649</ele>
        <time>2020-07-30T11:23:07.423Z</time>
      </trkpt>
      <trkpt lat="62.24466" lon="5.76162">
        <ele>179.365145</ele>
        <time>2020-07-30T11:23:08.405Z</time>
      </trkpt>
      <trkpt lat="62.2447" lon="5.76181">
        <ele>178.844348</ele>
        <time>2020-07-30T11:23:09.389Z</time>
      </trkpt>
      <trkpt lat="62.24474" lon="5.76201">
        <ele>178.300777</ele>
        <time>2020-07-30T11:23:10.405Z</time>
      </trkpt>
      <trkpt lat="62.24478" lon="5.76221">
        <ele>177.74819</ele>
        <time>2020-07-30T11:23:11.392Z</time>
      </trkpt>
      <trkpt lat="62.24483" lon="5.76241">
        <ele>177.184192</ele>
        <time>2020-07-30T11:23:12.412Z</time>
      </trkpt>
      <trkpt lat="62.24487" lon="5.76262">
        <ele>176.613401</ele>
        <time>2020-07-30T11:23:13.406Z</time>
      </trkpt>
      <trkpt lat="62.24491" lon="5.76282">
        <ele>176.05169</ele>
        <time>2020-07-30T11:23:14.397Z</time>
      </trkpt>
      <trkpt lat="62.24496" lon="5.76303">
        <ele>175.474093</ele>
        <time>2020-07-30T11:23:15.424Z</time>
      </trkpt>
      <trkpt lat="62.245" lon="5.76324">
        <ele>174.681283</ele>
        <time>2020-07-30T11:23:16.416Z</time>
      </trkpt>
      <trkpt lat="62.24505" lon="5.76344">
        <ele>173.813631</ele>
        <time>2020-07-30T11:23:17.404Z</time>
      </trkpt>
      <trkpt lat="62.24509" lon="5.76362">
        <ele>173.006332</ele>
        <time>2020-07-30T11:23:18.400Z</time>
      </trkpt>
      <trkpt lat="62.24513" lon="5.7638">
        <ele>172.221004</ele>
        <time>2020-07-30T11:23:19.404Z</time>
      </trkpt>
      <trkpt lat="62.24517" lon="5.76398">
        <ele>171.442746</ele>
        <time>2020-07-30T11:23:20.415Z</time>
      </trkpt>
      <trkpt lat="62.24521" lon="5.76418">
        <ele>170.621379</ele>
        <time>2020-07-30T11:23:21.407Z</time>
      </trkpt>
      <trkpt lat="62.24525" lon="5.76438">
        <ele>169.754335</ele>
        <time>2020-07-30T11:23:22.410Z</time>
      </trkpt>
      <trkpt lat="62.2453" lon="5.76459">
        <ele>168.855282</ele>
        <time>2020-07-30T11:23:23.403Z</time>
      </trkpt>
      <trkpt lat="62.24535" lon="5.7648">
        <ele>167.913602</ele>
        <time>2020-07-30T11:23:24.398Z</time>
      </trkpt>
      <trkpt lat="62.24539" lon="5.76502">
        <ele>166.986152</ele>
        <time>2020-07-30T11:23:25.407Z</time>
      </trkpt>
      <trkpt lat="62.24543" lon="5.76523">
        <ele>166.08308</ele>
        <time>2020-07-30T11:23:26.390Z</time>
      </trkpt>
      <trkpt lat="62.24547" lon="5.76545">
        <ele>165.15002</ele>
        <time>2020-07-30T11:23:27.391Z</time>
      </trkpt>
      <trkpt lat="62.24551" lon="5.76568">
        <ele>164.198905</ele>
        <time>2020-07-30T11:23:28.402Z</time>
      </trkpt>
      <trkpt lat="62.24554" lon="5.76592">
        <ele>163.237737</ele>
        <time>2020-07-30T11:23:29.387Z</time>
      </trkpt>
      <trkpt lat="62.24557" lon="5.76616">
        <ele>162.266088</ele>
        <time>2020-07-30T11:23:30.407Z</time>
      </trkpt>
      <trkpt lat="62.24558" lon="5.76641">
        <ele>161.286865</ele>
        <time>2020-07-30T11:23:31.419Z</time>
      </trkpt>
      <trkpt lat="62.24559" lon="5.76666">
        <ele>160.311121</ele>
        <time>2020-07-30T11:23:32.407Z</time>
      </trkpt>
      <trkpt lat="62.2456" lon="5.76691">
        <ele>158.973869</ele>
        <time>2020-07-30T11:23:33.422Z</time>
      </trkpt>
      <trkpt lat="62.2456" lon="5.76716">
        <ele>157.54497</ele>
        <time>2020-07-30T11:23:34.416Z</time>
      </trkpt>
      <trkpt lat="62.24561" lon="5.76741">
        <ele>156.105825</ele>
        <time>2020-07-30T11:23:35.385Z</time>
      </trkpt>
      <trkpt lat="62.24561" lon="5.76767">
        <ele>154.67626</ele>
        <time>2020-07-30T11:23:36.395Z</time>
      </trkpt>
      <trkpt lat="62.24562" lon="5.76791">
        <ele>153.286107</ele>
        <time>2020-07-30T11:23:37.427Z</time>
      </trkpt>
      <trkpt lat="62.24562" lon="5.76815">
        <ele>151.937537</ele>
        <time>2020-07-30T11:23:38.392Z</time>
      </trkpt>
      <trkpt lat="62.24563" lon="5.76838">
        <ele>150.645804</ele>
        <time>2020-07-30T11:23:39.397Z</time>
      </trkpt>
      <trkpt lat="62.24563" lon="5.7686">
        <ele>149.404361</ele>
        <time>2020-07-30T11:23:40.397Z</time>
      </trkpt>
      <trkpt lat="62.24563" lon="5.76882">
        <ele>148.151642</ele>
        <time>2020-07-30T11:23:41.395Z</time>
      </trkpt>
      <trkpt lat="62.24563" lon="5.76904">
        <ele>146.921476</ele>
        <time>2020-07-30T11:23:42.409Z</time>
      </trkpt>
      <trkpt lat="62.24564" lon="5.76926">
        <ele>145.706592</ele>
        <time>2020-07-30T11:23:43.448Z</time>
      </trkpt>
      <trkpt lat="62.24565" lon="5.76947">
        <ele>144.507803</ele>
        <time>2020-07-30T11:23:44.410Z</time>
      </trkpt>
      <trkpt lat="62.24566" lon="5.76968">
        <ele>143.307059</ele>
        <time>2020-07-30T11:23:45.429Z</time>
      </trkpt>
      <trkpt lat="62.24567" lon="5.76989">
        <ele>142.121989</ele>
        <time>2020-07-30T11:23:46.400Z</time>
      </trkpt>
      <trkpt lat="62.24568" lon="5.7701">
        <ele>140.938246</ele>
        <time>2020-07-30T11:23:47.405Z</time>
      </trkpt>
      <trkpt lat="62.2457" lon="5.77031">
        <ele>139.712642</ele>
        <time>2020-07-30T11:23:48.412Z</time>
      </trkpt>
      <trkpt lat="62.24572" lon="5.77052">
        <ele>138.475978</ele>
        <time>2020-07-30T11:23:49.395Z</time>
      </trkpt>
      <trkpt lat="62.24574" lon="5.77074">
        <ele>137.420059</ele>
        <time>2020-07-30T11:23:50.417Z</time>
      </trkpt>
      <trkpt lat="62.24576" lon="5.77096">
        <ele>136.358561</ele>
        <time>2020-07-30T11:23:51.407Z</time>
      </trkpt>
      <trkpt lat="62.24579" lon="5.77118">
        <ele>135.268684</ele>
        <time>2020-07-30T11:23:52.396Z</time>
      </trkpt>
      <trkpt lat="62.24582" lon="5.7714">
        <ele>134.165079</ele>
        <time>2020-07-30T11:23:53.417Z</time>
      </trkpt>
      <trkpt lat="62.24585" lon="5.77163">
        <ele>133.050287</ele>
        <time>2020-07-30T11:23:54.419Z</time>
      </trkpt>
      <trkpt lat="62.24587" lon="5.77186">
        <ele>131.935496</ele>
        <time>2020-07-30T11:23:55.403Z</time>
      </trkpt>
      <trkpt lat="62.2459" lon="5.77209">
        <ele>130.825547</ele>
        <time>2020-07-30T11:23:56.391Z</time>
      </trkpt>
      <trkpt lat="62.24593" lon="5.77231">
        <ele>129.722425</ele>
        <time>2020-07-30T11:23:57.421Z</time>
      </trkpt>
      <trkpt lat="62.24595" lon="5.77254">
        <ele>128.602447</ele>
        <time>2020-07-30T11:23:58.384Z</time>
      </trkpt>
      <trkpt lat="62.24598" lon="5.77277">
        <ele>127.49427</ele>
        <time>2020-07-30T11:23:59.393Z</time>
      </trkpt>
      <trkpt lat="62.24601" lon="5.77299">
        <ele>126.388666</ele>
        <time>2020-07-30T11:24:00.409Z</time>
      </trkpt>
      <trkpt lat="62.24604" lon="5.77322">
        <ele>125.286965</ele>
        <time>2020-07-30T11:24:01.432Z</time>
      </trkpt>
      <trkpt lat="62.24606" lon="5.77344">
        <ele>124.209281</ele>
        <time>2020-07-30T11:24:02.434Z</time>
      </trkpt>
      <trkpt lat="62.24609" lon="5.77365">
        <ele>123.167809</ele>
        <time>2020-07-30T11:24:03.413Z</time>
      </trkpt>
      <trkpt lat="62.24612" lon="5.77385">
        <ele>122.164568</ele>
        <time>2020-07-30T11:24:04.439Z</time>
      </trkpt>
      <trkpt lat="62.24615" lon="5.77405">
        <ele>121.181017</ele>
        <time>2020-07-30T11:24:05.391Z</time>
      </trkpt>
      <trkpt lat="62.24618" lon="5.77425">
        <ele>120.2013</ele>
        <time>2020-07-30T11:24:06.436Z</time>
      </trkpt>
      <trkpt lat="62.24621" lon="5.77444">
        <ele>119.021693</ele>
        <time>2020-07-30T11:24:07.396Z</time>
      </trkpt>
      <trkpt lat="62.24625" lon="5.77464">
        <ele>117.776419</ele>
        <time>2020-07-30T11:24:08.397Z</time>
      </trkpt>
      <trkpt lat="62.2463" lon="5.77484">
        <ele>116.484249</ele>
        <time>2020-07-30T11:24:09.439Z</time>
      </trkpt>
      <trkpt lat="62.24634" lon="5.77505">
        <ele>115.159885</ele>
        <time>2020-07-30T11:24:10.410Z</time>
      </trkpt>
      <trkpt lat="62.24639" lon="5.77525">
        <ele>113.824115</ele>
        <time>2020-07-30T11:24:11.392Z</time>
      </trkpt>
      <trkpt lat="62.24645" lon="5.77545">
        <ele>112.475615</ele>
        <time>2020-07-30T11:24:12.423Z</time>
      </trkpt>
      <trkpt lat="62.2465" lon="5.77565">
        <ele>111.121885</ele>
        <time>2020-07-30T11:24:13.400Z</time>
      </trkpt>
      <trkpt lat="62.24656" lon="5.77584">
        <ele>109.786905</ele>
        <time>2020-07-30T11:24:14.471Z</time>
      </trkpt>
      <trkpt lat="62.24663" lon="5.77603">
        <ele>108.47561</ele>
        <time>2020-07-30T11:24:15.408Z</time>
      </trkpt>
      <trkpt lat="62.24669" lon="5.7762">
        <ele>107.161744</ele>
        <time>2020-07-30T11:24:16.450Z</time>
      </trkpt>
      <trkpt lat="62.24677" lon="5.77638">
        <ele>105.778689</ele>
        <time>2020-07-30T11:24:17.395Z</time>
      </trkpt>
      <trkpt lat="62.24684" lon="5.77656">
        <ele>104.387579</ele>
        <time>2020-07-30T11:24:18.398Z</time>
      </trkpt>
      <trkpt lat="62.24692" lon="5.77672">
        <ele>102.995297</ele>
        <time>2020-07-30T11:24:19.410Z</time>
      </trkpt>
      <trkpt lat="62.24701" lon="5.77689">
        <ele>101.564191</ele>
        <time>2020-07-30T11:24:20.421Z</time>
      </trkpt>
      <trkpt lat="62.2471" lon="5.77705">
        <ele>100.102969</ele>
        <time>2020-07-30T11:24:21.397Z</time>
      </trkpt>
      <trkpt lat="62.24719" lon="5.77721">
        <ele>98.652854</ele>
        <time>2020-07-30T11:24:22.400Z</time>
      </trkpt>
      <trkpt lat="62.24728" lon="5.77737">
        <ele>97.284483</ele>
        <time>2020-07-30T11:24:23.418Z</time>
      </trkpt>
      <trkpt lat="62.24736" lon="5.77754">
        <ele>96.062681</ele>
        <time>2020-07-30T11:24:24.420Z</time>
      </trkpt>
      <trkpt lat="62.24745" lon="5.7777">
        <ele>94.872242</ele>
        <time>2020-07-30T11:24:25.405Z</time>
      </trkpt>
      <trkpt lat="62.24753" lon="5.77787">
        <ele>93.639921</ele>
        <time>2020-07-30T11:24:26.407Z</time>
      </trkpt>
      <trkpt lat="62.24763" lon="5.77805">
        <ele>92.28285</ele>
        <time>2020-07-30T11:24:27.447Z</time>
      </trkpt>
      <trkpt lat="62.24773" lon="5.77823">
        <ele>90.944932</ele>
        <time>2020-07-30T11:24:28.399Z</time>
      </trkpt>
      <trkpt lat="62.24783" lon="5.7784">
        <ele>89.624498</ele>
        <time>2020-07-30T11:24:29.407Z</time>
      </trkpt>
      <trkpt lat="62.24792" lon="5.77858">
        <ele>88.292908</ele>
        <time>2020-07-30T11:24:30.429Z</time>
      </trkpt>
      <trkpt lat="62.24802" lon="5.77876">
        <ele>86.948631</ele>
        <time>2020-07-30T11:24:31.402Z</time>
      </trkpt>
      <trkpt lat="62.24812" lon="5.77894">
        <ele>85.577258</ele>
        <time>2020-07-30T11:24:32.410Z</time>
      </trkpt>
      <trkpt lat="62.24822" lon="5.77912">
        <ele>84.202734</ele>
        <time>2020-07-30T11:24:33.401Z</time>
      </trkpt>
      <trkpt lat="62.24832" lon="5.7793">
        <ele>82.845675</ele>
        <time>2020-07-30T11:24:34.388Z</time>
      </trkpt>
      <trkpt lat="62.24841" lon="5.77948">
        <ele>81.537966</ele>
        <time>2020-07-30T11:24:35.394Z</time>
      </trkpt>
      <trkpt lat="62.24851" lon="5.77965">
        <ele>80.222337</ele>
        <time>2020-07-30T11:24:36.397Z</time>
      </trkpt>
      <trkpt lat="62.2486" lon="5.77983">
        <ele>78.917835</ele>
        <time>2020-07-30T11:24:37.415Z</time>
      </trkpt>
      <trkpt lat="62.2487" lon="5.78">
        <ele>77.855856</ele>
        <time>2020-07-30T11:24:38.399Z</time>
      </trkpt>
      <trkpt lat="62.24879" lon="5.78018">
        <ele>76.806242</ele>
        <time>2020-07-30T11:24:39.425Z</time>
      </trkpt>
      <trkpt lat="62.24889" lon="5.78036">
        <ele>75.708695</ele>
        <time>2020-07-30T11:24:40.396Z</time>
      </trkpt>
      <trkpt lat="62.24899" lon="5.78055">
        <ele>74.603533</ele>
        <time>2020-07-30T11:24:41.424Z</time>
      </trkpt>
      <trkpt lat="62.24909" lon="5.78074">
        <ele>73.493256</ele>
        <time>2020-07-30T11:24:42.399Z</time>
      </trkpt>
      <trkpt lat="62.2492" lon="5.78093">
        <ele>72.36165</ele>
        <time>2020-07-30T11:24:43.388Z</time>
      </trkpt>
      <trkpt lat="62.2493" lon="5.78112">
        <ele>71.233777</ele>
        <time>2020-07-30T11:24:44.418Z</time>
      </trkpt>
      <trkpt lat="62.2494" lon="5.78132">
        <ele>70.106999</ele>
        <time>2020-07-30T11:24:45.433Z</time>
      </trkpt>
      <trkpt lat="62.2495" lon="5.78151">
        <ele>69.019569</ele>
        <time>2020-07-30T11:24:46.411Z</time>
      </trkpt>
      <trkpt lat="62.24959" lon="5.7817">
        <ele>67.962816</ele>
        <time>2020-07-30T11:24:47.418Z</time>
      </trkpt>
      <trkpt lat="62.24968" lon="5.78187">
        <ele>66.920703</ele>
        <time>2020-07-30T11:24:48.396Z</time>
      </trkpt>
      <trkpt lat="62.24977" lon="5.78205">
        <ele>65.893595</ele>
        <time>2020-07-30T11:24:49.405Z</time>
      </trkpt>
      <trkpt lat="62.24986" lon="5.78223">
        <ele>64.89173</ele>
        <time>2020-07-30T11:24:50.392Z</time>
      </trkpt>
      <trkpt lat="62.24995" lon="5.78241">
        <ele>63.887184</ele>
        <time>2020-07-30T11:24:51.439Z</time>
      </trkpt>
      <trkpt lat="62.25003" lon="5.78259">
        <ele>63.202151</ele>
        <time>2020-07-30T11:24:52.391Z</time>
      </trkpt>
      <trkpt lat="62.25012" lon="5.78276">
        <ele>62.531163</ele>
        <time>2020-07-30T11:24:53.403Z</time>
      </trkpt>
      <trkpt lat="62.2502" lon="5.78293">
        <ele>61.881638</ele>
        <time>2020-07-30T11:24:54.400Z</time>
      </trkpt>
      <trkpt lat="62.25028" lon="5.7831">
        <ele>61.248408</ele>
        <time>2020-07-30T11:24:55.406Z</time>
      </trkpt>
      <trkpt lat="62.25036" lon="5.78327">
        <ele>60.619188</ele>
        <time>2020-07-30T11:24:56.424Z</time>
      </trkpt>
      <trkpt lat="62.25044" lon="5.78344">
        <ele>59.997724</ele>
        <time>2020-07-30T11:24:57.423Z</time>
      </trkpt>
      <trkpt lat="62.25051" lon="5.78361">
        <ele>59.37645</ele>
        <time>2020-07-30T11:24:58.388Z</time>
      </trkpt>
      <trkpt lat="62.25059" lon="5.78377">
        <ele>58.760598</ele>
        <time>2020-07-30T11:24:59.426Z</time>
      </trkpt>
      <trkpt lat="62.25067" lon="5.78393">
        <ele>58.142549</ele>
        <time>2020-07-30T11:25:00.416Z</time>
      </trkpt>
      <trkpt lat="62.25075" lon="5.78409">
        <ele>57.515782</ele>
        <time>2020-07-30T11:25:01.397Z</time>
      </trkpt>
      <trkpt lat="62.25083" lon="5.78426">
        <ele>56.893651</ele>
        <time>2020-07-30T11:25:02.402Z</time>
      </trkpt>
      <trkpt lat="62.2509" lon="5.78442">
        <ele>56.275938</ele>
        <time>2020-07-30T11:25:03.402Z</time>
      </trkpt>
      <trkpt lat="62.25098" lon="5.78459">
        <ele>55.656355</ele>
        <time>2020-07-30T11:25:04.409Z</time>
      </trkpt>
      <trkpt lat="62.25106" lon="5.78475">
        <ele>55.046631</ele>
        <time>2020-07-30T11:25:05.397Z</time>
      </trkpt>
      <trkpt lat="62.25113" lon="5.78491">
        <ele>54.438541</ele>
        <time>2020-07-30T11:25:06.399Z</time>
      </trkpt>
      <trkpt lat="62.25121" lon="5.78507">
        <ele>53.845614</ele>
        <time>2020-07-30T11:25:07.388Z</time>
      </trkpt>
      <trkpt lat="62.25128" lon="5.78522">
        <ele>53.546685</ele>
        <time>2020-07-30T11:25:08.424Z</time>
      </trkpt>
      <trkpt lat="62.25135" lon="5.78536">
        <ele>53.407159</ele>
        <time>2020-07-30T11:25:09.420Z</time>
      </trkpt>
      <trkpt lat="62.25142" lon="5.7855">
        <ele>53.270635</ele>
        <time>2020-07-30T11:25:10.392Z</time>
      </trkpt>
      <trkpt lat="62.25149" lon="5.78564">
        <ele>53.137566</ele>
        <time>2020-07-30T11:25:11.399Z</time>
      </trkpt>
      <trkpt lat="62.25155" lon="5.78577">
        <ele>53.006456</ele>
        <time>2020-07-30T11:25:12.403Z</time>
      </trkpt>
      <trkpt lat="62.25169" lon="5.78601">
        <ele>52.75567</ele>
        <time>2020-07-30T11:25:14.399Z</time>
      </trkpt>
      <trkpt lat="62.25182" lon="5.78621">
        <ele>52.526769</ele>
        <time>2020-07-30T11:25:16.415Z</time>
      </trkpt>
      <trkpt lat="62.25195" lon="5.78637">
        <ele>52.311738</ele>
        <time>2020-07-30T11:25:18.443Z</time>
      </trkpt>
      <trkpt lat="62.25207" lon="5.78656">
        <ele>52.098033</ele>
        <time>2020-07-30T11:25:20.401Z</time>
      </trkpt>
      <trkpt lat="62.25218" lon="5.78677">
        <ele>51.889468</ele>
        <time>2020-07-30T11:25:22.417Z</time>
      </trkpt>
      <trkpt lat="62.25228" lon="5.78696">
        <ele>51.698964</ele>
        <time>2020-07-30T11:25:24.384Z</time>
      </trkpt>
      <trkpt lat="62.25237" lon="5.78715">
        <ele>51.514515</ele>
        <time>2020-07-30T11:25:26.414Z</time>
      </trkpt>
      <trkpt lat="62.25247" lon="5.78735">
        <ele>51.325224</ele>
        <time>2020-07-30T11:25:28.388Z</time>
      </trkpt>
      <trkpt lat="62.25256" lon="5.78754">
        <ele>51.13985</ele>
        <time>2020-07-30T11:25:30.389Z</time>
      </trkpt>
      <trkpt lat="62.25265" lon="5.78772">
        <ele>51.216871</ele>
        <time>2020-07-30T11:25:32.396Z</time>
      </trkpt>
      <trkpt lat="62.25275" lon="5.78789">
        <ele>51.483773</ele>
        <time>2020-07-30T11:25:34.394Z</time>
      </trkpt>
      <trkpt lat="62.25283" lon="5.78806">
        <ele>51.743269</ele>
        <time>2020-07-30T11:25:36.424Z</time>
      </trkpt>
      <trkpt lat="62.25291" lon="5.78824">
        <ele>51.994883</ele>
        <time>2020-07-30T11:25:38.389Z</time>
      </trkpt>
      <trkpt lat="62.25299" lon="5.7884">
        <ele>52.223166</ele>
        <time>2020-07-30T11:25:40.384Z</time>
      </trkpt>
      <trkpt lat="62.25305" lon="5.78855">
        <ele>52.432732</ele>
        <time>2020-07-30T11:25:42.412Z</time>
      </trkpt>
      <trkpt lat="62.25315" lon="5.78873">
        <ele>52.715757</ele>
        <time>2020-07-30T11:25:45.421Z</time>
      </trkpt>
      <trkpt lat="62.25323" lon="5.78891">
        <ele>52.970495</ele>
        <time>2020-07-30T11:25:48.412Z</time>
      </trkpt>
      <trkpt lat="62.25332" lon="5.78907">
        <ele>53.22406</ele>
        <time>2020-07-30T11:25:51.404Z</time>
      </trkpt>
      <trkpt lat="62.2534" lon="5.78923">
        <ele>53.463695</ele>
        <time>2020-07-30T11:25:54.412Z</time>
      </trkpt>
      <trkpt lat="62.25348" lon="5.78938">
        <ele>53.693936</ele>
        <time>2020-07-30T11:25:57.398Z</time>
      </trkpt>
      <trkpt lat="62.25355" lon="5.78951">
        <ele>53.903181</ele>
        <time>2020-07-30T11:26:00.389Z</time>
      </trkpt>
      <trkpt lat="62.25364" lon="5.78966">
        <ele>54.152285</ele>
        <time>2020-07-30T11:26:04.399Z</time>
      </trkpt>
      <trkpt lat="62.25373" lon="5.78981">
        <ele>54.401863</ele>
        <time>2020-07-30T11:26:08.397Z</time>
      </trkpt>
      <trkpt lat="62.25381" lon="5.78996">
        <ele>54.646479</ele>
        <time>2020-07-30T11:26:12.399Z</time>
      </trkpt>
      <trkpt lat="62.25389" lon="5.79011">
        <ele>54.874795</ele>
        <time>2020-07-30T11:26:16.398Z</time>
      </trkpt>
      <trkpt lat="62.25398" lon="5.79026">
        <ele>55.343584</ele>
        <time>2020-07-30T11:26:20.399Z</time>
      </trkpt>
      <trkpt lat="62.25406" lon="5.79041">
        <ele>56.061905</ele>
        <time>2020-07-30T11:26:24.392Z</time>
      </trkpt>
      <trkpt lat="62.25413" lon="5.79054">
        <ele>56.68411</ele>
        <time>2020-07-30T11:26:28.403Z</time>
      </trkpt>
      <trkpt lat="62.2542" lon="5.79067">
        <ele>57.321511</ele>
        <time>2020-07-30T11:26:32.398Z</time>
      </trkpt>
      <trkpt lat="62.25428" lon="5.7908">
        <ele>57.966497</ele>
        <time>2020-07-30T11:26:36.400Z</time>
      </trkpt>
      <trkpt lat="62.25437" lon="5.79094">
        <ele>58.683741</ele>
        <time>2020-07-30T11:26:41.423Z</time>
      </trkpt>
      <trkpt lat="62.25444" lon="5.79111">
        <ele>59.389378</ele>
        <time>2020-07-30T11:26:47.427Z</time>
      </trkpt>
      <trkpt lat="62.2545" lon="5.79126">
        <ele>59.997209</ele>
        <time>2020-07-30T11:26:52.393Z</time>
      </trkpt>
      <trkpt lat="62.25456" lon="5.79139">
        <ele>60.612224</ele>
        <time>2020-07-30T11:26:57.392Z</time>
      </trkpt>
      <trkpt lat="62.25464" lon="5.79151">
        <ele>61.224251</ele>
        <time>2020-07-30T11:27:02.423Z</time>
      </trkpt>
      <trkpt lat="62.25471" lon="5.79163">
        <ele>61.83097</ele>
        <time>2020-07-30T11:27:07.404Z</time>
      </trkpt>
      <trkpt lat="62.25478" lon="5.79175">
        <ele>62.44488</ele>
        <time>2020-07-30T11:27:13.428Z</time>
      </trkpt>
      <trkpt lat="62.25485" lon="5.79191">
        <ele>63.121238</ele>
        <time>2020-07-30T11:27:21.385Z</time>
      </trkpt>
      <trkpt lat="62.25492" lon="5.79205">
        <ele>63.762122</ele>
        <time>2020-07-30T11:27:28.388Z</time>
      </trkpt>
      <trkpt lat="62.25499" lon="5.79219">
        <ele>64.406566</ele>
        <time>2020-07-30T11:27:34.400Z</time>
      </trkpt>
      <trkpt lat="62.25505" lon="5.79233">
        <ele>65.018832</ele>
        <time>2020-07-30T11:27:40.393Z</time>
      </trkpt>
      <trkpt lat="62.25513" lon="5.7925">
        <ele>65.738284</ele>
        <time>2020-07-30T11:27:47.423Z</time>
      </trkpt>
      <trkpt lat="62.2552" lon="5.79263">
        <ele>66.33996</ele>
        <time>2020-07-30T11:27:53.405Z</time>
      </trkpt>
      <trkpt lat="62.25527" lon="5.79277">
        <ele>66.972398</ele>
        <time>2020-07-30T11:27:59.396Z</time>
      </trkpt>
      <trkpt lat="62.25534" lon="5.79289">
        <ele>66.941382</ele>
        <time>2020-07-30T11:28:04.397Z</time>
      </trkpt>
      <trkpt lat="62.25542" lon="5.79301">
        <ele>66.845342</ele>
        <time>2020-07-30T11:28:09.402Z</time>
      </trkpt>
      <trkpt lat="62.2555" lon="5.79315">
        <ele>66.744474</ele>
        <time>2020-07-30T11:28:15.408Z</time>
      </trkpt>
      <trkpt lat="62.25559" lon="5.79327">
        <ele>66.643756</ele>
        <time>2020-07-30T11:28:20.388Z</time>
      </trkpt>
      <trkpt lat="62.25567" lon="5.79337">
        <ele>66.556882</ele>
        <time>2020-07-30T11:28:24.399Z</time>
      </trkpt>
      <trkpt lat="62.25576" lon="5.79347">
        <ele>66.459994</ele>
        <time>2020-07-30T11:28:28.400Z</time>
      </trkpt>
      <trkpt lat="62.25586" lon="5.7936">
        <ele>66.34994</ele>
        <time>2020-07-30T11:28:32.416Z</time>
      </trkpt>
      <trkpt lat="62.25594" lon="5.7937">
        <ele>66.256384</ele>
        <time>2020-07-30T11:28:35.413Z</time>
      </trkpt>
      <trkpt lat="62.25604" lon="5.79381">
        <ele>66.147765</ele>
        <time>2020-07-30T11:28:38.415Z</time>
      </trkpt>
      <trkpt lat="62.25616" lon="5.79393">
        <ele>66.024196</ele>
        <time>2020-07-30T11:28:41.394Z</time>
      </trkpt>
      <trkpt lat="62.25624" lon="5.79403">
        <ele>65.935356</ele>
        <time>2020-07-30T11:28:43.396Z</time>
      </trkpt>
      <trkpt lat="62.25632" lon="5.79415">
        <ele>65.839215</ele>
        <time>2020-07-30T11:28:45.415Z</time>
      </trkpt>
      <trkpt lat="62.2564" lon="5.79429">
        <ele>65.742912</ele>
        <time>2020-07-30T11:28:47.391Z</time>
      </trkpt>
      <trkpt lat="62.25648" lon="5.79441">
        <ele>65.645155</ele>
        <time>2020-07-30T11:28:49.414Z</time>
      </trkpt>
      <trkpt lat="62.25657" lon="5.79452">
        <ele>65.546101</ele>
        <time>2020-07-30T11:28:51.389Z</time>
      </trkpt>
      <trkpt lat="62.25666" lon="5.79463">
        <ele>65.447101</ele>
        <time>2020-07-30T11:28:53.412Z</time>
      </trkpt>
      <trkpt lat="62.25675" lon="5.79473">
        <ele>65.351884</ele>
        <time>2020-07-30T11:28:55.411Z</time>
      </trkpt>
      <trkpt lat="62.25683" lon="5.79483">
        <ele>65.435599</ele>
        <time>2020-07-30T11:28:57.434Z</time>
      </trkpt>
      <trkpt lat="62.25694" lon="5.79495">
        <ele>65.961411</ele>
        <time>2020-07-30T11:29:00.421Z</time>
      </trkpt>
      <trkpt lat="62.25704" lon="5.79507">
        <ele>66.43167</ele>
        <time>2020-07-30T11:29:03.426Z</time>
      </trkpt>
      <trkpt lat="62.25713" lon="5.79518">
        <ele>66.82416</ele>
        <time>2020-07-30T11:29:06.384Z</time>
      </trkpt>
      <trkpt lat="62.25722" lon="5.7953">
        <ele>67.28535</ele>
        <time>2020-07-30T11:29:10.387Z</time>
      </trkpt>
      <trkpt lat="62.25731" lon="5.79541">
        <ele>67.696913</ele>
        <time>2020-07-30T11:29:14.395Z</time>
      </trkpt>
      <trkpt lat="62.25739" lon="5.79549">
        <ele>68.086221</ele>
        <time>2020-07-30T11:29:18.409Z</time>
      </trkpt>
      <trkpt lat="62.25749" lon="5.79561">
        <ele>68.538525</ele>
        <time>2020-07-30T11:29:23.416Z</time>
      </trkpt>
      <trkpt lat="62.25757" lon="5.79571">
        <ele>68.931992</ele>
        <time>2020-07-30T11:29:27.413Z</time>
      </trkpt>
      <trkpt lat="62.25765" lon="5.79582">
        <ele>69.306879</ele>
        <time>2020-07-30T11:29:31.407Z</time>
      </trkpt>
      <trkpt lat="62.25774" lon="5.79591">
        <ele>69.73798</ele>
        <time>2020-07-30T11:29:36.401Z</time>
      </trkpt>
      <trkpt lat="62.25783" lon="5.79602">
        <ele>70.16737</ele>
        <time>2020-07-30T11:29:41.391Z</time>
      </trkpt>
      <trkpt lat="62.25792" lon="5.79611">
        <ele>70.560536</ele>
        <time>2020-07-30T11:29:46.432Z</time>
      </trkpt>
      <trkpt lat="62.25801" lon="5.79618">
        <ele>70.967988</ele>
        <time>2020-07-30T11:29:51.423Z</time>
      </trkpt>
      <trkpt lat="62.25809" lon="5.79629">
        <ele>71.344631</ele>
        <time>2020-07-30T11:29:56.400Z</time>
      </trkpt>
      <trkpt lat="62.25815" lon="5.79646">
        <ele>71.759499</ele>
        <time>2020-07-30T11:30:02.411Z</time>
      </trkpt>
      <trkpt lat="62.25822" lon="5.79659">
        <ele>72.156702</ele>
        <time>2020-07-30T11:30:08.446Z</time>
      </trkpt>
      <trkpt lat="62.25832" lon="5.79668">
        <ele>72.572572</ele>
        <time>2020-07-30T11:30:13.402Z</time>
      </trkpt>
      <trkpt lat="62.2584" lon="5.79676">
        <ele>72.677106</ele>
        <time>2020-07-30T11:30:17.406Z</time>
      </trkpt>
      <trkpt lat="62.25849" lon="5.7968">
        <ele>72.629706</ele>
        <time>2020-07-30T11:30:21.434Z</time>
      </trkpt>
      <trkpt lat="62.25858" lon="5.79686">
        <ele>72.581867</ele>
        <time>2020-07-30T11:30:25.405Z</time>
      </trkpt>
      <trkpt lat="62.25867" lon="5.7969">
        <ele>72.532089</ele>
        <time>2020-07-30T11:30:29.400Z</time>
      </trkpt>
      <trkpt lat="62.25877" lon="5.79695">
        <ele>72.481289</ele>
        <time>2020-07-30T11:30:33.406Z</time>
      </trkpt>
      <trkpt lat="62.25888" lon="5.79698">
        <ele>72.423816</ele>
        <time>2020-07-30T11:30:37.419Z</time>
      </trkpt>
      <trkpt lat="62.259" lon="5.79701">
        <ele>72.360818</ele>
        <time>2020-07-30T11:30:41.385Z</time>
      </trkpt>
      <trkpt lat="62.25912" lon="5.79699">
        <ele>72.296357</ele>
        <time>2020-07-30T11:30:45.424Z</time>
      </trkpt>
      <trkpt lat="62.25921" lon="5.79696">
        <ele>72.246683</ele>
        <time>2020-07-30T11:30:48.426Z</time>
      </trkpt>
      <trkpt lat="62.25931" lon="5.79692">
        <ele>72.194628</ele>
        <time>2020-07-30T11:30:51.396Z</time>
      </trkpt>
      <trkpt lat="62.25942" lon="5.79689">
        <ele>72.137673</ele>
        <time>2020-07-30T11:30:54.406Z</time>
      </trkpt>
      <trkpt lat="62.25953" lon="5.79684">
        <ele>72.080535</ele>
        <time>2020-07-30T11:30:57.394Z</time>
      </trkpt>
      <trkpt lat="62.25964" lon="5.79679">
        <ele>72.020587</ele>
        <time>2020-07-30T11:31:00.400Z</time>
      </trkpt>
      <trkpt lat="62.25975" lon="5.79672">
        <ele>71.960619</ele>
        <time>2020-07-30T11:31:03.388Z</time>
      </trkpt>
      <trkpt lat="62.25986" lon="5.79663">
        <ele>71.900412</ele>
        <time>2020-07-30T11:31:06.424Z</time>
      </trkpt>
      <trkpt lat="62.25997" lon="5.79653">
        <ele>71.835383</ele>
        <time>2020-07-30T11:31:09.402Z</time>
      </trkpt>
      <trkpt lat="62.26008" lon="5.79641">
        <ele>71.77306</ele>
        <time>2020-07-30T11:31:12.402Z</time>
      </trkpt>
      <trkpt lat="62.26018" lon="5.79629">
        <ele>71.627269</ele>
        <time>2020-07-30T11:31:15.387Z</time>
      </trkpt>
      <trkpt lat="62.26027" lon="5.79616">
        <ele>71.480552</ele>
        <time>2020-07-30T11:31:18.388Z</time>
      </trkpt>
      <trkpt lat="62.26037" lon="5.79602">
        <ele>71.330343</ele>
        <time>2020-07-30T11:31:21.398Z</time>
      </trkpt>
      <trkpt lat="62.26046" lon="5.79586">
        <ele>71.178415</ele>
        <time>2020-07-30T11:31:24.407Z</time>
      </trkpt>
      <trkpt lat="62.26055" lon="5.7957">
        <ele>71.024073</ele>
        <time>2020-07-30T11:31:27.405Z</time>
      </trkpt>
      <trkpt lat="62.26065" lon="5.79554">
        <ele>70.857537</ele>
        <time>2020-07-30T11:31:30.393Z</time>
      </trkpt>
      <trkpt lat="62.26076" lon="5.79537">
        <ele>70.681096</ele>
        <time>2020-07-30T11:31:33.396Z</time>
      </trkpt>
      <trkpt lat="62.26085" lon="5.79527">
        <ele>70.556438</ele>
        <time>2020-07-30T11:31:35.399Z</time>
      </trkpt>
      <trkpt lat="62.26093" lon="5.7952">
        <ele>70.432001</ele>
        <time>2020-07-30T11:31:37.406Z</time>
      </trkpt>
      <trkpt lat="62.26102" lon="5.79513">
        <ele>70.307885</ele>
        <time>2020-07-30T11:31:39.390Z</time>
      </trkpt>
      <trkpt lat="62.26111" lon="5.79509">
        <ele>70.187869</ele>
        <time>2020-07-30T11:31:41.389Z</time>
      </trkpt>
      <trkpt lat="62.26124" lon="5.79506">
        <ele>70.022018</ele>
        <time>2020-07-30T11:31:44.420Z</time>
      </trkpt>
      <trkpt lat="62.26136" lon="5.79505">
        <ele>69.867673</ele>
        <time>2020-07-30T11:31:47.405Z</time>
      </trkpt>
      <trkpt lat="62.26146" lon="5.79507">
        <ele>69.736636</ele>
        <time>2020-07-30T11:31:50.397Z</time>
      </trkpt>
      <trkpt lat="62.26155" lon="5.79511">
        <ele>69.60652</ele>
        <time>2020-07-30T11:31:53.396Z</time>
      </trkpt>
      <trkpt lat="62.26166" lon="5.79518">
        <ele>69.468872</ele>
        <time>2020-07-30T11:31:56.392Z</time>
      </trkpt>
      <trkpt lat="62.26175" lon="5.79528">
        <ele>69.467114</ele>
        <time>2020-07-30T11:31:59.444Z</time>
      </trkpt>
      <trkpt lat="62.26184" lon="5.79538">
        <ele>69.547856</ele>
        <time>2020-07-30T11:32:02.441Z</time>
      </trkpt>
      <trkpt lat="62.26193" lon="5.79548">
        <ele>69.631574</ele>
        <time>2020-07-30T11:32:05.421Z</time>
      </trkpt>
      <trkpt lat="62.26203" lon="5.79557">
        <ele>69.716551</ele>
        <time>2020-07-30T11:32:08.386Z</time>
      </trkpt>
      <trkpt lat="62.26214" lon="5.79568">
        <ele>69.807992</ele>
        <time>2020-07-30T11:32:11.403Z</time>
      </trkpt>
      <trkpt lat="62.26225" lon="5.79578">
        <ele>69.901579</ele>
        <time>2020-07-30T11:32:14.392Z</time>
      </trkpt>
      <trkpt lat="62.26236" lon="5.79588">
        <ele>69.994153</ele>
        <time>2020-07-30T11:32:17.400Z</time>
      </trkpt>
      <trkpt lat="62.26247" lon="5.79601">
        <ele>70.094045</ele>
        <time>2020-07-30T11:32:20.416Z</time>
      </trkpt>
      <trkpt lat="62.26258" lon="5.79615">
        <ele>70.195859</ele>
        <time>2020-07-30T11:32:23.428Z</time>
      </trkpt>
      <trkpt lat="62.2627" lon="5.79628">
        <ele>70.29699</ele>
        <time>2020-07-30T11:32:26.390Z</time>
      </trkpt>
      <trkpt lat="62.26281" lon="5.79643">
        <ele>70.400617</ele>
        <time>2020-07-30T11:32:29.407Z</time>
      </trkpt>
      <trkpt lat="62.26288" lon="5.79656">
        <ele>70.472798</ele>
        <time>2020-07-30T11:32:31.425Z</time>
      </trkpt>
      <trkpt lat="62.26297" lon="5.79673">
        <ele>70.568254</ele>
        <time>2020-07-30T11:32:34.389Z</time>
      </trkpt>
      <trkpt lat="62.26305" lon="5.79689">
        <ele>70.65669</ele>
        <time>2020-07-30T11:32:37.397Z</time>
      </trkpt>
      <trkpt lat="62.26314" lon="5.79703">
        <ele>70.738035</ele>
        <time>2020-07-30T11:32:40.399Z</time>
      </trkpt>
      <trkpt lat="62.26321" lon="5.79717">
        <ele>70.813078</ele>
        <time>2020-07-30T11:32:43.397Z</time>
      </trkpt>
      <trkpt lat="62.26329" lon="5.79734">
        <ele>70.628208</ele>
        <time>2020-07-30T11:32:47.436Z</time>
      </trkpt>
      <trkpt lat="62.26337" lon="5.79751">
        <ele>70.391136</ele>
        <time>2020-07-30T11:32:51.405Z</time>
      </trkpt>
      <trkpt lat="62.26345" lon="5.79769">
        <ele>70.137446</ele>
        <time>2020-07-30T11:32:55.432Z</time>
      </trkpt>
      <trkpt lat="62.26352" lon="5.79782">
        <ele>69.941895</ele>
        <time>2020-07-30T11:32:58.415Z</time>
      </trkpt>
      <trkpt lat="62.26359" lon="5.79796">
        <ele>69.734724</ele>
        <time>2020-07-30T11:33:01.390Z</time>
      </trkpt>
      <trkpt lat="62.26367" lon="5.79812">
        <ele>69.503852</ele>
        <time>2020-07-30T11:33:04.404Z</time>
      </trkpt>
      <trkpt lat="62.26376" lon="5.7983">
        <ele>69.23634</ele>
        <time>2020-07-30T11:33:07.386Z</time>
      </trkpt>
      <trkpt lat="62.26384" lon="5.79846">
        <ele>69.016691</ele>
        <time>2020-07-30T11:33:09.438Z</time>
      </trkpt>
      <trkpt lat="62.26392" lon="5.79864">
        <ele>68.760801</ele>
        <time>2020-07-30T11:33:11.389Z</time>
      </trkpt>
      <trkpt lat="62.26401" lon="5.79884">
        <ele>68.480984</ele>
        <time>2020-07-30T11:33:13.412Z</time>
      </trkpt>
      <trkpt lat="62.26411" lon="5.79904">
        <ele>68.192871</ele>
        <time>2020-07-30T11:33:15.407Z</time>
      </trkpt>
      <trkpt lat="62.26421" lon="5.79925">
        <ele>67.896726</ele>
        <time>2020-07-30T11:33:17.390Z</time>
      </trkpt>
      <trkpt lat="62.26433" lon="5.79946">
        <ele>67.577056</ele>
        <time>2020-07-30T11:33:19.402Z</time>
      </trkpt>
      <trkpt lat="62.26445" lon="5.79968">
        <ele>67.241886</ele>
        <time>2020-07-30T11:33:21.384Z</time>
      </trkpt>
      <trkpt lat="62.26458" lon="5.7999">
        <ele>66.958569</ele>
        <time>2020-07-30T11:33:23.401Z</time>
      </trkpt>
      <trkpt lat="62.26472" lon="5.80012">
        <ele>66.816952</ele>
        <time>2020-07-30T11:33:25.420Z</time>
      </trkpt>
      <trkpt lat="62.26486" lon="5.80035">
        <ele>66.673712</ele>
        <time>2020-07-30T11:33:27.413Z</time>
      </trkpt>
      <trkpt lat="62.26494" lon="5.80047">
        <ele>66.600006</ele>
        <time>2020-07-30T11:33:28.420Z</time>
      </trkpt>
      <trkpt lat="62.26501" lon="5.80059">
        <ele>66.523916</ele>
        <time>2020-07-30T11:33:29.411Z</time>
      </trkpt>
      <trkpt lat="62.26508" lon="5.80072">
        <ele>66.448878</ele>
        <time>2020-07-30T11:33:30.388Z</time>
      </trkpt>
      <trkpt lat="62.26516" lon="5.80084">
        <ele>66.373202</ele>
        <time>2020-07-30T11:33:31.395Z</time>
      </trkpt>
      <trkpt lat="62.26523" lon="5.80096">
        <ele>66.298438</ele>
        <time>2020-07-30T11:33:32.405Z</time>
      </trkpt>
      <trkpt lat="62.2653" lon="5.80108">
        <ele>66.224962</ele>
        <time>2020-07-30T11:33:33.415Z</time>
      </trkpt>
      <trkpt lat="62.26537" lon="5.8012">
        <ele>66.152057</ele>
        <time>2020-07-30T11:33:34.395Z</time>
      </trkpt>
      <trkpt lat="62.26551" lon="5.80144">
        <ele>66.009627</ele>
        <time>2020-07-30T11:33:36.420Z</time>
      </trkpt>
      <trkpt lat="62.26565" lon="5.80166">
        <ele>65.871019</ele>
        <time>2020-07-30T11:33:38.410Z</time>
      </trkpt>
      <trkpt lat="62.26577" lon="5.80186">
        <ele>65.747482</ele>
        <time>2020-07-30T11:33:40.412Z</time>
      </trkpt>
      <trkpt lat="62.26587" lon="5.80203">
        <ele>65.643239</ele>
        <time>2020-07-30T11:33:42.399Z</time>
      </trkpt>
      <trkpt lat="62.26595" lon="5.80217">
        <ele>65.558615</ele>
        <time>2020-07-30T11:33:44.396Z</time>
      </trkpt>
      <trkpt lat="62.26603" lon="5.8023">
        <ele>66.033573</ele>
        <time>2020-07-30T11:33:47.421Z</time>
      </trkpt>
      <trkpt lat="62.26611" lon="5.80243">
        <ele>66.587942</ele>
        <time>2020-07-30T11:33:52.410Z</time>
      </trkpt>
      <trkpt lat="62.26619" lon="5.80257">
        <ele>67.164579</ele>
        <time>2020-07-30T11:33:58.419Z</time>
      </trkpt>
      <trkpt lat="62.26627" lon="5.80269">
        <ele>67.701229</ele>
        <time>2020-07-30T11:34:04.421Z</time>
      </trkpt>
      <trkpt lat="62.26636" lon="5.80281">
        <ele>68.28883</ele>
        <time>2020-07-30T11:34:10.402Z</time>
      </trkpt>
      <trkpt lat="62.26644" lon="5.80291">
        <ele>68.808379</ele>
        <time>2020-07-30T11:34:15.422Z</time>
      </trkpt>
      <trkpt lat="62.26652" lon="5.80302">
        <ele>69.36935</ele>
        <time>2020-07-30T11:34:21.396Z</time>
      </trkpt>
      <trkpt lat="62.2666" lon="5.80315">
        <ele>69.922634</ele>
        <time>2020-07-30T11:34:27.435Z</time>
      </trkpt>
      <trkpt lat="62.26669" lon="5.80327">
        <ele>70.495579</ele>
        <time>2020-07-30T11:34:34.413Z</time>
      </trkpt>
      <trkpt lat="62.26676" lon="5.80339">
        <ele>71.00962</ele>
        <time>2020-07-30T11:34:41.409Z</time>
      </trkpt>
      <trkpt lat="62.26684" lon="5.8035">
        <ele>71.533908</ele>
        <time>2020-07-30T11:34:48.388Z</time>
      </trkpt>
      <trkpt lat="62.26692" lon="5.80362">
        <ele>72.064656</ele>
        <time>2020-07-30T11:34:55.393Z</time>
      </trkpt>
      <trkpt lat="62.26699" lon="5.80375">
        <ele>72.58428</ele>
        <time>2020-07-30T11:35:02.397Z</time>
      </trkpt>
      <trkpt lat="62.26707" lon="5.80386">
        <ele>73.102965</ele>
        <time>2020-07-30T11:35:09.439Z</time>
      </trkpt>
      <trkpt lat="62.26715" lon="5.80398">
        <ele>73.675489</ele>
        <time>2020-07-30T11:35:16.397Z</time>
      </trkpt>
      <trkpt lat="62.26723" lon="5.80409">
        <ele>74.188099</ele>
        <time>2020-07-30T11:35:22.386Z</time>
      </trkpt>
      <trkpt lat="62.26731" lon="5.8042">
        <ele>74.719859</ele>
        <time>2020-07-30T11:35:28.404Z</time>
      </trkpt>
      <trkpt lat="62.26739" lon="5.8043">
        <ele>75.229207</ele>
        <time>2020-07-30T11:35:34.408Z</time>
      </trkpt>
      <trkpt lat="62.26748" lon="5.80442">
        <ele>75.598895</ele>
        <time>2020-07-30T11:35:41.397Z</time>
      </trkpt>
      <trkpt lat="62.26756" lon="5.80453">
        <ele>75.638131</ele>
        <time>2020-07-30T11:35:47.425Z</time>
      </trkpt>
      <trkpt lat="62.26766" lon="5.80466">
        <ele>75.680564</ele>
        <time>2020-07-30T11:35:53.396Z</time>
      </trkpt>
      <trkpt lat="62.26774" lon="5.80476">
        <ele>75.719275</ele>
        <time>2020-07-30T11:35:58.417Z</time>
      </trkpt>
      <trkpt lat="62.26782" lon="5.80486">
        <ele>75.75444</ele>
        <time>2020-07-30T11:36:02.403Z</time>
      </trkpt>
      <trkpt lat="62.26791" lon="5.80497">
        <ele>75.794223</ele>
        <time>2020-07-30T11:36:06.405Z</time>
      </trkpt>
      <trkpt lat="62.26801" lon="5.80509">
        <ele>75.839079</ele>
        <time>2020-07-30T11:36:10.399Z</time>
      </trkpt>
      <trkpt lat="62.2681" lon="5.80519">
        <ele>75.878733</ele>
        <time>2020-07-30T11:36:13.396Z</time>
      </trkpt>
      <trkpt lat="62.26821" lon="5.8053">
        <ele>75.923691</ele>
        <time>2020-07-30T11:36:16.413Z</time>
      </trkpt>
      <trkpt lat="62.26832" lon="5.80542">
        <ele>75.973457</ele>
        <time>2020-07-30T11:36:19.404Z</time>
      </trkpt>
      <trkpt lat="62.26841" lon="5.80551">
        <ele>76.008762</ele>
        <time>2020-07-30T11:36:21.387Z</time>
      </trkpt>
      <trkpt lat="62.26849" lon="5.80561">
        <ele>76.045691</ele>
        <time>2020-07-30T11:36:23.411Z</time>
      </trkpt>
      <trkpt lat="62.26857" lon="5.80571">
        <ele>76.083897</ele>
        <time>2020-07-30T11:36:25.409Z</time>
      </trkpt>
      <trkpt lat="62.26867" lon="5.80582">
        <ele>76.123717</ele>
        <time>2020-07-30T11:36:27.385Z</time>
      </trkpt>
      <trkpt lat="62.26876" lon="5.80592">
        <ele>76.163366</ele>
        <time>2020-07-30T11:36:29.428Z</time>
      </trkpt>
      <trkpt lat="62.26885" lon="5.80602">
        <ele>76.202593</ele>
        <time>2020-07-30T11:36:31.410Z</time>
      </trkpt>
      <trkpt lat="62.26893" lon="5.80611">
        <ele>76.239787</ele>
        <time>2020-07-30T11:36:33.408Z</time>
      </trkpt>
      <trkpt lat="62.26902" lon="5.8062">
        <ele>76.276901</ele>
        <time>2020-07-30T11:36:35.439Z</time>
      </trkpt>
      <trkpt lat="62.2691" lon="5.8063">
        <ele>76.233744</ele>
        <time>2020-07-30T11:36:37.405Z</time>
      </trkpt>
      <trkpt lat="62.2692" lon="5.80641">
        <ele>76.16999</ele>
        <time>2020-07-30T11:36:40.410Z</time>
      </trkpt>
      <trkpt lat="62.2693" lon="5.80651">
        <ele>76.114727</ele>
        <time>2020-07-30T11:36:43.403Z</time>
      </trkpt>
      <trkpt lat="62.26938" lon="5.80662">
        <ele>76.062512</ele>
        <time>2020-07-30T11:36:46.392Z</time>
      </trkpt>
      <trkpt lat="62.26946" lon="5.80671">
        <ele>76.014076</ele>
        <time>2020-07-30T11:36:49.429Z</time>
      </trkpt>
      <trkpt lat="62.26958" lon="5.8067">
        <ele>75.951558</ele>
        <time>2020-07-30T11:36:53.437Z</time>
      </trkpt>
      <trkpt lat="62.26965" lon="5.80649">
        <ele>75.886563</ele>
        <time>2020-07-30T11:36:56.400Z</time>
      </trkpt>
      <trkpt lat="62.26965" lon="5.80624">
        <ele>75.824939</ele>
        <time>2020-07-30T11:36:59.395Z</time>
      </trkpt>
      <trkpt lat="62.26964" lon="5.80603">
        <ele>75.771813</ele>
        <time>2020-07-30T11:37:02.413Z</time>
      </trkpt>
      <trkpt lat="62.26964" lon="5.80583">
        <ele>75.723624</ele>
        <time>2020-07-30T11:37:05.423Z</time>
      </trkpt>
      <trkpt lat="62.26963" lon="5.80561">
        <ele>75.669344</ele>
        <time>2020-07-30T11:37:09.411Z</time>
      </trkpt>
      <trkpt lat="62.26962" lon="5.80537">
        <ele>75.607876</ele>
        <time>2020-07-30T11:37:13.386Z</time>
      </trkpt>
      <trkpt lat="62.26962" lon="5.80516">
        <ele>75.557065</ele>
        <time>2020-07-30T11:37:16.395Z</time>
      </trkpt>
      <trkpt lat="62.26961" lon="5.80497">
        <ele>75.508581</ele>
        <time>2020-07-30T11:37:19.408Z</time>
      </trkpt>
      <trkpt lat="62.26962" lon="5.80473">
        <ele>75.45001</ele>
        <time>2020-07-30T11:37:23.395Z</time>
      </trkpt>
      <trkpt lat="62.26962" lon="5.80453">
        <ele>75.398829</ele>
        <time>2020-07-30T11:37:26.473Z</time>
      </trkpt>
      <trkpt lat="62.26962" lon="5.80433">
        <ele>75.351029</ele>
        <time>2020-07-30T11:37:29.377Z</time>
      </trkpt>
      <trkpt lat="62.26966" lon="5.8041">
        <ele>75.618724</ele>
        <time>2020-07-30T11:37:33.404Z</time>
      </trkpt>
      <trkpt lat="62.26974" lon="5.804">
        <ele>76.108909</ele>
        <time>2020-07-30T11:37:38.408Z</time>
      </trkpt>
      <trkpt lat="62.26983" lon="5.80408">
        <ele>76.596814</ele>
        <time>2020-07-30T11:37:43.389Z</time>
      </trkpt>
      <trkpt lat="62.26991" lon="5.80416">
        <ele>77.097058</ele>
        <time>2020-07-30T11:37:48.392Z</time>
      </trkpt>
      <trkpt lat="62.27" lon="5.80423">
        <ele>77.58177</ele>
        <time>2020-07-30T11:37:55.399Z</time>
      </trkpt>
      <trkpt lat="62.27009" lon="5.80426">
        <ele>78.091882</ele>
        <time>2020-07-30T11:38:01.406Z</time>
      </trkpt>
      <trkpt lat="62.27019" lon="5.80431">
        <ele>78.614063</ele>
        <time>2020-07-30T11:38:08.393Z</time>
      </trkpt>
      <trkpt lat="62.27028" lon="5.80432">
        <ele>79.101303</ele>
        <time>2020-07-30T11:38:14.395Z</time>
      </trkpt>
      <trkpt lat="62.27038" lon="5.80433">
        <ele>79.641773</ele>
        <time>2020-07-30T11:38:21.416Z</time>
      </trkpt>
      <trkpt lat="62.27047" lon="5.80436">
        <ele>80.121193</ele>
        <time>2020-07-30T11:38:28.413Z</time>
      </trkpt>
      <trkpt lat="62.27057" lon="5.80438">
        <ele>80.615041</ele>
        <time>2020-07-30T11:38:35.382Z</time>
      </trkpt>
      <trkpt lat="62.27067" lon="5.80437">
        <ele>81.149241</ele>
        <time>2020-07-30T11:38:42.409Z</time>
      </trkpt>
      <trkpt lat="62.27077" lon="5.80433">
        <ele>81.694897</ele>
        <time>2020-07-30T11:38:48.388Z</time>
      </trkpt>
      <trkpt lat="62.27086" lon="5.80428">
        <ele>82.181191</ele>
        <time>2020-07-30T11:38:53.429Z</time>
      </trkpt>
      <trkpt lat="62.27092" lon="5.80411">
        <ele>82.705675</ele>
        <time>2020-07-30T11:38:59.425Z</time>
      </trkpt>
      <trkpt lat="62.27091" lon="5.8039">
        <ele>83.227801</ele>
        <time>2020-07-30T11:39:05.442Z</time>
      </trkpt>
      <trkpt lat="62.27091" lon="5.80359">
        <ele>83.992785</ele>
        <time>2020-07-30T11:46:04.392Z</time>
      </trkpt>
      <trkpt lat="62.27088" lon="5.8034">
        <ele>84.49443</ele>
        <time>2020-07-30T11:46:09.386Z</time>
      </trkpt>
      <trkpt lat="62.27084" lon="5.8032">
        <ele>84.602873</ele>
        <time>2020-07-30T11:46:15.397Z</time>
      </trkpt>
      <trkpt lat="62.27079" lon="5.80299">
        <ele>83.958329</ele>
        <time>2020-07-30T11:46:20.403Z</time>
      </trkpt>
      <trkpt lat="62.27075" lon="5.80282">
        <ele>83.422257</ele>
        <time>2020-07-30T11:46:24.440Z</time>
      </trkpt>
      <trkpt lat="62.2707" lon="5.80264">
        <ele>82.828107</ele>
        <time>2020-07-30T11:46:28.418Z</time>
      </trkpt>
      <trkpt lat="62.27065" lon="5.80245">
        <ele>82.241108</ele>
        <time>2020-07-30T11:46:31.395Z</time>
      </trkpt>
      <trkpt lat="62.27058" lon="5.80224">
        <ele>81.559117</ele>
        <time>2020-07-30T11:46:34.466Z</time>
      </trkpt>
      <trkpt lat="62.27052" lon="5.80203">
        <ele>80.872445</ele>
        <time>2020-07-30T11:46:37.400Z</time>
      </trkpt>
      <trkpt lat="62.27047" lon="5.80181">
        <ele>80.186866</ele>
        <time>2020-07-30T11:46:40.385Z</time>
      </trkpt>
      <trkpt lat="62.27043" lon="5.80156">
        <ele>79.473819</ele>
        <time>2020-07-30T11:46:43.421Z</time>
      </trkpt>
      <trkpt lat="62.2704" lon="5.8013">
        <ele>78.727598</ele>
        <time>2020-07-30T11:46:46.417Z</time>
      </trkpt>
      <trkpt lat="62.27037" lon="5.80106">
        <ele>78.02064</ele>
        <time>2020-07-30T11:46:49.378Z</time>
      </trkpt>
      <trkpt lat="62.27033" lon="5.80083">
        <ele>77.350224</ele>
        <time>2020-07-30T11:46:52.386Z</time>
      </trkpt>
      <trkpt lat="62.27029" lon="5.80061">
        <ele>76.717757</ele>
        <time>2020-07-30T11:46:55.392Z</time>
      </trkpt>
      <trkpt lat="62.27023" lon="5.8004">
        <ele>76.033116</ele>
        <time>2020-07-30T11:46:58.394Z</time>
      </trkpt>
      <trkpt lat="62.27017" lon="5.80017">
        <ele>75.30323</ele>
        <time>2020-07-30T11:47:01.388Z</time>
      </trkpt>
      <trkpt lat="62.27012" lon="5.79998">
        <ele>74.708675</ele>
        <time>2020-07-30T11:47:03.407Z</time>
      </trkpt>
      <trkpt lat="62.27009" lon="5.79976">
        <ele>74.096893</ele>
        <time>2020-07-30T11:47:05.437Z</time>
      </trkpt>
      <trkpt lat="62.27006" lon="5.79952">
        <ele>73.578423</ele>
        <time>2020-07-30T11:47:07.416Z</time>
      </trkpt>
      <trkpt lat="62.27002" lon="5.79927">
        <ele>73.034076</ele>
        <time>2020-07-30T11:47:09.390Z</time>
      </trkpt>
      <trkpt lat="62.26999" lon="5.79902">
        <ele>72.486911</ele>
        <time>2020-07-30T11:47:11.405Z</time>
      </trkpt>
      <trkpt lat="62.26996" lon="5.7988">
        <ele>72.003522</ele>
        <time>2020-07-30T11:47:13.406Z</time>
      </trkpt>
      <trkpt lat="62.26994" lon="5.79857">
        <ele>71.506826</ele>
        <time>2020-07-30T11:47:15.405Z</time>
      </trkpt>
      <trkpt lat="62.26992" lon="5.79831">
        <ele>70.950386</ele>
        <time>2020-07-30T11:47:17.399Z</time>
      </trkpt>
      <trkpt lat="62.2699" lon="5.79803">
        <ele>70.376779</ele>
        <time>2020-07-30T11:47:19.400Z</time>
      </trkpt>
      <trkpt lat="62.2699" lon="5.79774">
        <ele>69.76969</ele>
        <time>2020-07-30T11:47:21.401Z</time>
      </trkpt>
      <trkpt lat="62.2699" lon="5.79744">
        <ele>69.121403</ele>
        <time>2020-07-30T11:47:23.411Z</time>
      </trkpt>
      <trkpt lat="62.26992" lon="5.79713">
        <ele>68.46421</ele>
        <time>2020-07-30T11:47:25.402Z</time>
      </trkpt>
      <trkpt lat="62.26995" lon="5.79682">
        <ele>67.80175</ele>
        <time>2020-07-30T11:47:27.422Z</time>
      </trkpt>
      <trkpt lat="62.26998" lon="5.79652">
        <ele>67.159522</ele>
        <time>2020-07-30T11:47:29.390Z</time>
      </trkpt>
      <trkpt lat="62.27" lon="5.79623">
        <ele>66.547266</ele>
        <time>2020-07-30T11:47:31.400Z</time>
      </trkpt>
      <trkpt lat="62.27003" lon="5.79595">
        <ele>66.062869</ele>
        <time>2020-07-30T11:47:33.381Z</time>
      </trkpt>
      <trkpt lat="62.27007" lon="5.7957">
        <ele>66.03227</ele>
        <time>2020-07-30T11:47:35.410Z</time>
      </trkpt>
      <trkpt lat="62.27012" lon="5.79546">
        <ele>66.002464</ele>
        <time>2020-07-30T11:47:37.386Z</time>
      </trkpt>
      <trkpt lat="62.27018" lon="5.79523">
        <ele>65.97204</ele>
        <time>2020-07-30T11:47:39.408Z</time>
      </trkpt>
      <trkpt lat="62.27026" lon="5.79505">
        <ele>65.943707</ele>
        <time>2020-07-30T11:47:41.434Z</time>
      </trkpt>
      <trkpt lat="62.27033" lon="5.7949">
        <ele>65.920014</ele>
        <time>2020-07-30T11:47:43.406Z</time>
      </trkpt>
      <trkpt lat="62.27042" lon="5.79477">
        <ele>65.892893</ele>
        <time>2020-07-30T11:47:46.410Z</time>
      </trkpt>
      <trkpt lat="62.2705" lon="5.79467">
        <ele>65.87067</ele>
        <time>2020-07-30T11:47:49.409Z</time>
      </trkpt>
      <trkpt lat="62.27059" lon="5.79458">
        <ele>65.846374</ele>
        <time>2020-07-30T11:47:52.403Z</time>
      </trkpt>
      <trkpt lat="62.27069" lon="5.79451">
        <ele>65.820084</ele>
        <time>2020-07-30T11:47:55.388Z</time>
      </trkpt>
      <trkpt lat="62.27079" lon="5.79443">
        <ele>65.794448</ele>
        <time>2020-07-30T11:47:58.388Z</time>
      </trkpt>
      <trkpt lat="62.27088" lon="5.79435">
        <ele>65.770349</ele>
        <time>2020-07-30T11:48:01.384Z</time>
      </trkpt>
      <trkpt lat="62.27098" lon="5.79428">
        <ele>65.745291</ele>
        <time>2020-07-30T11:48:04.429Z</time>
      </trkpt>
      <trkpt lat="62.27109" lon="5.7942">
        <ele>65.716981</ele>
        <time>2020-07-30T11:48:07.447Z</time>
      </trkpt>
      <trkpt lat="62.2712" lon="5.79414">
        <ele>65.689083</ele>
        <time>2020-07-30T11:48:10.395Z</time>
      </trkpt>
      <trkpt lat="62.2713" lon="5.79408">
        <ele>65.662749</ele>
        <time>2020-07-30T11:48:13.404Z</time>
      </trkpt>
      <trkpt lat="62.27141" lon="5.79402">
        <ele>65.63446</ele>
        <time>2020-07-30T11:48:16.396Z</time>
      </trkpt>
      <trkpt lat="62.2715" lon="5.79398">
        <ele>65.898154</ele>
        <time>2020-07-30T11:48:19.430Z</time>
      </trkpt>
      <trkpt lat="62.27159" lon="5.79396">
        <ele>66.269241</ele>
        <time>2020-07-30T11:48:22.405Z</time>
      </trkpt>
      <trkpt lat="62.27171" lon="5.79393">
        <ele>66.739368</ele>
        <time>2020-07-30T11:48:26.384Z</time>
      </trkpt>
      <trkpt lat="62.2718" lon="5.79392">
        <ele>67.113793</ele>
        <time>2020-07-30T11:48:29.388Z</time>
      </trkpt>
      <trkpt lat="62.27192" lon="5.79392">
        <ele>67.62627</ele>
        <time>2020-07-30T11:48:33.410Z</time>
      </trkpt>
      <trkpt lat="62.27202" lon="5.79393">
        <ele>68.040719</ele>
        <time>2020-07-30T11:48:36.402Z</time>
      </trkpt>
      <trkpt lat="62.27213" lon="5.79395">
        <ele>68.477246</ele>
        <time>2020-07-30T11:48:39.415Z</time>
      </trkpt>
      <trkpt lat="62.27222" lon="5.79398">
        <ele>68.853802</ele>
        <time>2020-07-30T11:48:42.411Z</time>
      </trkpt>
      <trkpt lat="62.27232" lon="5.79402">
        <ele>69.283542</ele>
        <time>2020-07-30T11:48:45.417Z</time>
      </trkpt>
      <trkpt lat="62.27244" lon="5.79407">
        <ele>69.766386</ele>
        <time>2020-07-30T11:48:48.384Z</time>
      </trkpt>
      <trkpt lat="62.27254" lon="5.79409">
        <ele>70.200093</ele>
        <time>2020-07-30T11:48:51.377Z</time>
      </trkpt>
      <trkpt lat="62.27264" lon="5.79412">
        <ele>70.605339</ele>
        <time>2020-07-30T11:48:54.399Z</time>
      </trkpt>
      <trkpt lat="62.27273" lon="5.79415">
        <ele>70.972787</ele>
        <time>2020-07-30T11:48:57.392Z</time>
      </trkpt>
      <trkpt lat="62.27283" lon="5.79417">
        <ele>71.377099</ele>
        <time>2020-07-30T11:49:00.394Z</time>
      </trkpt>
      <trkpt lat="62.27292" lon="5.79419">
        <ele>71.773051</ele>
        <time>2020-07-30T11:49:03.421Z</time>
      </trkpt>
      <trkpt lat="62.27302" lon="5.79422">
        <ele>72.150432</ele>
        <time>2020-07-30T11:49:06.388Z</time>
      </trkpt>
      <trkpt lat="62.27312" lon="5.79428">
        <ele>72.584939</ele>
        <time>2020-07-30T11:49:09.393Z</time>
      </trkpt>
      <trkpt lat="62.27321" lon="5.79434">
        <ele>72.969006</ele>
        <time>2020-07-30T11:49:12.404Z</time>
      </trkpt>
      <trkpt lat="62.27332" lon="5.79443">
        <ele>73.243111</ele>
        <time>2020-07-30T11:49:16.404Z</time>
      </trkpt>
      <trkpt lat="62.27342" lon="5.79452">
        <ele>73.507661</ele>
        <time>2020-07-30T11:49:20.423Z</time>
      </trkpt>
      <trkpt lat="62.27351" lon="5.79462">
        <ele>73.727582</ele>
        <time>2020-07-30T11:49:23.401Z</time>
      </trkpt>
      <trkpt lat="62.27359" lon="5.79474">
        <ele>73.947668</ele>
        <time>2020-07-30T11:49:26.426Z</time>
      </trkpt>
      <trkpt lat="62.27368" lon="5.79488">
        <ele>74.20181</ele>
        <time>2020-07-30T11:49:29.382Z</time>
      </trkpt>
      <trkpt lat="62.27377" lon="5.79503">
        <ele>74.451205</ele>
        <time>2020-07-30T11:49:32.436Z</time>
      </trkpt>
      <trkpt lat="62.27385" lon="5.79517">
        <ele>74.678721</ele>
        <time>2020-07-30T11:49:35.399Z</time>
      </trkpt>
      <trkpt lat="62.27393" lon="5.79532">
        <ele>74.923297</ele>
        <time>2020-07-30T11:49:38.390Z</time>
      </trkpt>
      <trkpt lat="62.27402" lon="5.79547">
        <ele>75.173971</ele>
        <time>2020-07-30T11:49:41.385Z</time>
      </trkpt>
      <trkpt lat="62.27411" lon="5.79567">
        <ele>75.472196</ele>
        <time>2020-07-30T11:49:44.392Z</time>
      </trkpt>
      <trkpt lat="62.27419" lon="5.79585">
        <ele>75.734242</ele>
        <time>2020-07-30T11:49:47.437Z</time>
      </trkpt>
      <trkpt lat="62.27427" lon="5.79602">
        <ele>75.97326</ele>
        <time>2020-07-30T11:49:50.402Z</time>
      </trkpt>
      <trkpt lat="62.27435" lon="5.7962">
        <ele>76.23835</ele>
        <time>2020-07-30T11:49:53.410Z</time>
      </trkpt>
      <trkpt lat="62.27443" lon="5.79639">
        <ele>76.518892</ele>
        <time>2020-07-30T11:49:56.401Z</time>
      </trkpt>
      <trkpt lat="62.27452" lon="5.79656">
        <ele>76.772467</ele>
        <time>2020-07-30T11:49:59.425Z</time>
      </trkpt>
      <trkpt lat="62.27459" lon="5.79673">
        <ele>77.019172</ele>
        <time>2020-07-30T11:50:02.398Z</time>
      </trkpt>
      <trkpt lat="62.27468" lon="5.79693">
        <ele>76.362028</ele>
        <time>2020-07-30T11:50:05.392Z</time>
      </trkpt>
      <trkpt lat="62.27474" lon="5.79711">
        <ele>75.74169</ele>
        <time>2020-07-30T11:50:07.389Z</time>
      </trkpt>
      <trkpt lat="62.27481" lon="5.7973">
        <ele>75.096927</ele>
        <time>2020-07-30T11:50:09.455Z</time>
      </trkpt>
      <trkpt lat="62.27487" lon="5.79748">
        <ele>74.498017</ele>
        <time>2020-07-30T11:50:11.405Z</time>
      </trkpt>
      <trkpt lat="62.27492" lon="5.79764">
        <ele>73.957449</ele>
        <time>2020-07-30T11:50:13.393Z</time>
      </trkpt>
      <trkpt lat="62.27498" lon="5.7978">
        <ele>73.425698</ele>
        <time>2020-07-30T11:50:15.407Z</time>
      </trkpt>
      <trkpt lat="62.27504" lon="5.798">
        <ele>72.746179</ele>
        <time>2020-07-30T11:50:18.401Z</time>
      </trkpt>
      <trkpt lat="62.27511" lon="5.79819">
        <ele>72.079724</ele>
        <time>2020-07-30T11:50:21.386Z</time>
      </trkpt>
      <trkpt lat="62.27518" lon="5.79834">
        <ele>71.484584</ele>
        <time>2020-07-30T11:50:24.392Z</time>
      </trkpt>
      <trkpt lat="62.27526" lon="5.79847">
        <ele>70.923833</ele>
        <time>2020-07-30T11:50:27.389Z</time>
      </trkpt>
      <trkpt lat="62.27536" lon="5.79856">
        <ele>70.277762</ele>
        <time>2020-07-30T11:50:31.398Z</time>
      </trkpt>
      <trkpt lat="62.27546" lon="5.79864">
        <ele>69.645977</ele>
        <time>2020-07-30T11:50:34.398Z</time>
      </trkpt>
      <trkpt lat="62.27555" lon="5.79874">
        <ele>69.029455</ele>
        <time>2020-07-30T11:50:36.430Z</time>
      </trkpt>
      <trkpt lat="62.27566" lon="5.79884">
        <ele>68.36844</ele>
        <time>2020-07-30T11:50:38.398Z</time>
      </trkpt>
      <trkpt lat="62.27575" lon="5.79894">
        <ele>67.733682</ele>
        <time>2020-07-30T11:50:40.404Z</time>
      </trkpt>
      <trkpt lat="62.27584" lon="5.79903">
        <ele>67.177275</ele>
        <time>2020-07-30T11:50:42.443Z</time>
      </trkpt>
      <trkpt lat="62.27593" lon="5.79913">
        <ele>66.591798</ele>
        <time>2020-07-30T11:50:44.389Z</time>
      </trkpt>
      <trkpt lat="62.27602" lon="5.79923">
        <ele>66.19162</ele>
        <time>2020-07-30T11:50:46.385Z</time>
      </trkpt>
      <trkpt lat="62.27611" lon="5.79927">
        <ele>65.872207</ele>
        <time>2020-07-30T11:50:48.397Z</time>
      </trkpt>
      <trkpt lat="62.2762" lon="5.79921">
        <ele>65.568337</ele>
        <time>2020-07-30T11:50:50.420Z</time>
      </trkpt>
      <trkpt lat="62.27629" lon="5.79905">
        <ele>65.190224</ele>
        <time>2020-07-30T11:50:52.405Z</time>
      </trkpt>
      <trkpt lat="62.27636" lon="5.79885">
        <ele>64.791871</ele>
        <time>2020-07-30T11:50:54.401Z</time>
      </trkpt>
      <trkpt lat="62.27641" lon="5.79862">
        <ele>64.407811</ele>
        <time>2020-07-30T11:50:56.410Z</time>
      </trkpt>
      <trkpt lat="62.27645" lon="5.79839">
        <ele>64.017433</ele>
        <time>2020-07-30T11:50:58.410Z</time>
      </trkpt>
      <trkpt lat="62.27653" lon="5.79816">
        <ele>63.573804</ele>
        <time>2020-07-30T11:51:00.394Z</time>
      </trkpt>
      <trkpt lat="62.27664" lon="5.79802">
        <ele>63.150554</ele>
        <time>2020-07-30T11:51:02.438Z</time>
      </trkpt>
      <trkpt lat="62.27675" lon="5.798">
        <ele>62.775935</ele>
        <time>2020-07-30T11:51:04.426Z</time>
      </trkpt>
      <trkpt lat="62.27684" lon="5.79799">
        <ele>62.468952</ele>
        <time>2020-07-30T11:51:06.398Z</time>
      </trkpt>
      <trkpt lat="62.27695" lon="5.79801">
        <ele>62.097523</ele>
        <time>2020-07-30T11:51:09.414Z</time>
      </trkpt>
      <trkpt lat="62.27705" lon="5.79805">
        <ele>61.773913</ele>
        <time>2020-07-30T11:51:12.386Z</time>
      </trkpt>
      <trkpt lat="62.27716" lon="5.79813">
        <ele>61.388774</ele>
        <time>2020-07-30T11:51:16.421Z</time>
      </trkpt>
      <trkpt lat="62.27724" lon="5.79824">
        <ele>61.074179</ele>
        <time>2020-07-30T11:51:21.407Z</time>
      </trkpt>
      <trkpt lat="62.27732" lon="5.79831">
        <ele>60.765973</ele>
        <time>2020-07-30T11:51:37.410Z</time>
      </trkpt>
      <trkpt lat="62.27739" lon="5.79814">
        <ele>60.530057</ele>
        <time>2020-07-30T11:51:41.403Z</time>
      </trkpt>
      <trkpt lat="62.27748" lon="5.79802">
        <ele>60.887121</ele>
        <time>2020-07-30T11:51:45.403Z</time>
      </trkpt>
      <trkpt lat="62.27759" lon="5.79807">
        <ele>61.257525</ele>
        <time>2020-07-30T11:51:49.380Z</time>
      </trkpt>
      <trkpt lat="62.27768" lon="5.79822">
        <ele>61.60722</ele>
        <time>2020-07-30T11:51:53.392Z</time>
      </trkpt>
      <trkpt lat="62.27775" lon="5.79838">
        <ele>61.960394</ele>
        <time>2020-07-30T11:51:57.384Z</time>
      </trkpt>
      <trkpt lat="62.27782" lon="5.79858">
        <ele>62.33295</ele>
        <time>2020-07-30T11:52:01.391Z</time>
      </trkpt>
      <trkpt lat="62.27787" lon="5.79881">
        <ele>62.713298</ele>
        <time>2020-07-30T11:52:05.425Z</time>
      </trkpt>
      <trkpt lat="62.27792" lon="5.79903">
        <ele>63.089373</ele>
        <time>2020-07-30T11:52:09.409Z</time>
      </trkpt>
      <trkpt lat="62.27796" lon="5.79926">
        <ele>63.468134</ele>
        <time>2020-07-30T11:52:13.400Z</time>
      </trkpt>
      <trkpt lat="62.27799" lon="5.79951">
        <ele>63.858924</ele>
        <time>2020-07-30T11:52:17.391Z</time>
      </trkpt>
      <trkpt lat="62.278" lon="5.79973">
        <ele>64.192842</ele>
        <time>2020-07-30T11:52:20.392Z</time>
      </trkpt>
      <trkpt lat="62.27801" lon="5.79995">
        <ele>64.522325</ele>
        <time>2020-07-30T11:52:23.399Z</time>
      </trkpt>
      <trkpt lat="62.27801" lon="5.80017">
        <ele>64.862711</ele>
        <time>2020-07-30T11:52:26.399Z</time>
      </trkpt>
      <trkpt lat="62.278" lon="5.80039">
        <ele>65.194721</ele>
        <time>2020-07-30T11:52:29.396Z</time>
      </trkpt>
      <trkpt lat="62.278" lon="5.80059">
        <ele>65.507714</ele>
        <time>2020-07-30T11:52:32.389Z</time>
      </trkpt>
      <trkpt lat="62.27802" lon="5.80084">
        <ele>65.884061</ele>
        <time>2020-07-30T11:52:36.402Z</time>
      </trkpt>
      <trkpt lat="62.27805" lon="5.80105">
        <ele>66.219273</ele>
        <time>2020-07-30T11:52:40.385Z</time>
      </trkpt>
      <trkpt lat="62.27808" lon="5.80126">
        <ele>66.599961</ele>
        <time>2020-07-30T11:52:44.398Z</time>
      </trkpt>
      <trkpt lat="62.27812" lon="5.80149">
        <ele>67.029271</ele>
        <time>2020-07-30T11:52:48.383Z</time>
      </trkpt>
      <trkpt lat="62.27817" lon="5.8017">
        <ele>67.457795</ele>
        <time>2020-07-30T11:52:52.417Z</time>
      </trkpt>
      <trkpt lat="62.27822" lon="5.80192">
        <ele>67.894483</ele>
        <time>2020-07-30T11:52:56.396Z</time>
      </trkpt>
      <trkpt lat="62.27826" lon="5.80214">
        <ele>68.306956</ele>
        <time>2020-07-30T11:53:00.386Z</time>
      </trkpt>
      <trkpt lat="62.2783" lon="5.80234">
        <ele>68.691751</ele>
        <time>2020-07-30T11:53:04.413Z</time>
      </trkpt>
      <trkpt lat="62.27833" lon="5.80253">
        <ele>69.059815</ele>
        <time>2020-07-30T11:53:08.396Z</time>
      </trkpt>
      <trkpt lat="62.27836" lon="5.80275">
        <ele>69.474315</ele>
        <time>2020-07-30T11:53:13.433Z</time>
      </trkpt>
      <trkpt lat="62.27839" lon="5.80294">
        <ele>69.823722</ele>
        <time>2020-07-30T11:53:17.418Z</time>
      </trkpt>
      <trkpt lat="62.27843" lon="5.80313">
        <ele>70.186144</ele>
        <time>2020-07-30T11:53:21.416Z</time>
      </trkpt>
      <trkpt lat="62.27846" lon="5.80331">
        <ele>70.532194</ele>
        <time>2020-07-30T11:53:25.400Z</time>
      </trkpt>
      <trkpt lat="62.27851" lon="5.80348">
        <ele>70.89759</ele>
        <time>2020-07-30T11:53:30.376Z</time>
      </trkpt>
      <trkpt lat="62.27856" lon="5.80366">
        <ele>71.263437</ele>
        <time>2020-07-30T11:53:36.408Z</time>
      </trkpt>
      <trkpt lat="62.27864" lon="5.80379">
        <ele>71.626871</ele>
        <time>2020-07-30T11:53:41.403Z</time>
      </trkpt>
      <trkpt lat="62.27872" lon="5.80395">
        <ele>72.057157</ele>
        <time>2020-07-30T11:53:46.414Z</time>
      </trkpt>
      <trkpt lat="62.27878" lon="5.8041">
        <ele>72.405789</ele>
        <time>2020-07-30T11:53:50.396Z</time>
      </trkpt>
      <trkpt lat="62.27884" lon="5.80429">
        <ele>72.826363</ele>
        <time>2020-07-30T11:53:55.415Z</time>
      </trkpt>
      <trkpt lat="62.27887" lon="5.80452">
        <ele>73.253249</ele>
        <time>2020-07-30T11:54:00.406Z</time>
      </trkpt>
      <trkpt lat="62.2789" lon="5.80471">
        <ele>73.495127</ele>
        <time>2020-07-30T11:54:04.390Z</time>
      </trkpt>
      <trkpt lat="62.27892" lon="5.80493">
        <ele>73.763394</ele>
        <time>2020-07-30T11:54:08.399Z</time>
      </trkpt>
      <trkpt lat="62.27894" lon="5.80515">
        <ele>74.037734</ele>
        <time>2020-07-30T11:54:12.397Z</time>
      </trkpt>
      <trkpt lat="62.27895" lon="5.80537">
        <ele>74.311587</ele>
        <time>2020-07-30T11:54:16.380Z</time>
      </trkpt>
      <trkpt lat="62.27895" lon="5.80559">
        <ele>74.585336</ele>
        <time>2020-07-30T11:54:20.384Z</time>
      </trkpt>
      <trkpt lat="62.27894" lon="5.80581">
        <ele>74.851165</ele>
        <time>2020-07-30T11:54:24.414Z</time>
      </trkpt>
      <trkpt lat="62.27894" lon="5.80603">
        <ele>75.113722</ele>
        <time>2020-07-30T11:54:28.421Z</time>
      </trkpt>
      <trkpt lat="62.27891" lon="5.80625">
        <ele>75.402375</ele>
        <time>2020-07-30T11:54:32.400Z</time>
      </trkpt>
      <trkpt lat="62.27891" lon="5.8065">
        <ele>75.700358</ele>
        <time>2020-07-30T11:54:36.446Z</time>
      </trkpt>
      <trkpt lat="62.27894" lon="5.80671">
        <ele>75.971742</ele>
        <time>2020-07-30T11:54:40.416Z</time>
      </trkpt>
      <trkpt lat="62.27898" lon="5.80692">
        <ele>76.245292</ele>
        <time>2020-07-30T11:54:44.386Z</time>
      </trkpt>
      <trkpt lat="62.27901" lon="5.80714">
        <ele>76.531968</ele>
        <time>2020-07-30T11:54:48.415Z</time>
      </trkpt>
      <trkpt lat="62.27903" lon="5.80735">
        <ele>76.788888</ele>
        <time>2020-07-30T11:54:51.382Z</time>
      </trkpt>
      <trkpt lat="62.27906" lon="5.80756">
        <ele>77.06107</ele>
        <time>2020-07-30T11:54:54.410Z</time>
      </trkpt>
      <trkpt lat="62.2791" lon="5.80778">
        <ele>77.348007</ele>
        <time>2020-07-30T11:54:57.421Z</time>
      </trkpt>
      <trkpt lat="62.27912" lon="5.80803">
        <ele>77.653694</ele>
        <time>2020-07-30T11:55:00.409Z</time>
      </trkpt>
      <trkpt lat="62.27915" lon="5.80826">
        <ele>77.950815</ele>
        <time>2020-07-30T11:55:03.423Z</time>
      </trkpt>
      <trkpt lat="62.27918" lon="5.80849">
        <ele>77.961329</ele>
        <time>2020-07-30T11:55:06.378Z</time>
      </trkpt>
      <trkpt lat="62.27921" lon="5.80872">
        <ele>77.951479</ele>
        <time>2020-07-30T11:55:09.473Z</time>
      </trkpt>
      <trkpt lat="62.27924" lon="5.80898">
        <ele>77.940664</ele>
        <time>2020-07-30T11:55:12.391Z</time>
      </trkpt>
      <trkpt lat="62.27926" lon="5.80917">
        <ele>77.932736</ele>
        <time>2020-07-30T11:55:14.401Z</time>
      </trkpt>
      <trkpt lat="62.27928" lon="5.80944">
        <ele>77.921388</ele>
        <time>2020-07-30T11:55:17.401Z</time>
      </trkpt>
      <trkpt lat="62.2793" lon="5.80963">
        <ele>77.913416</ele>
        <time>2020-07-30T11:55:19.385Z</time>
      </trkpt>
      <trkpt lat="62.27932" lon="5.80991">
        <ele>77.901947</ele>
        <time>2020-07-30T11:55:22.399Z</time>
      </trkpt>
      <trkpt lat="62.27933" lon="5.8101">
        <ele>77.893855</ele>
        <time>2020-07-30T11:55:24.433Z</time>
      </trkpt>
      <trkpt lat="62.27936" lon="5.81039">
        <ele>77.882099</ele>
        <time>2020-07-30T11:55:27.434Z</time>
      </trkpt>
      <trkpt lat="62.27938" lon="5.81068">
        <ele>77.870143</ele>
        <time>2020-07-30T11:55:30.400Z</time>
      </trkpt>
      <trkpt lat="62.27939" lon="5.81095">
        <ele>77.858949</ele>
        <time>2020-07-30T11:55:33.388Z</time>
      </trkpt>
      <trkpt lat="62.2794" lon="5.81119">
        <ele>77.849094</ele>
        <time>2020-07-30T11:55:36.403Z</time>
      </trkpt>
      <trkpt lat="62.27941" lon="5.81141">
        <ele>77.839831</ele>
        <time>2020-07-30T11:55:39.388Z</time>
      </trkpt>
      <trkpt lat="62.27942" lon="5.81164">
        <ele>77.830399</ele>
        <time>2020-07-30T11:55:42.431Z</time>
      </trkpt>
      <trkpt lat="62.27944" lon="5.81189">
        <ele>77.820208</ele>
        <time>2020-07-30T11:55:45.396Z</time>
      </trkpt>
      <trkpt lat="62.27945" lon="5.81215">
        <ele>77.759921</ele>
        <time>2020-07-30T11:55:48.415Z</time>
      </trkpt>
      <trkpt lat="62.27947" lon="5.81242">
        <ele>77.539719</ele>
        <time>2020-07-30T11:55:51.395Z</time>
      </trkpt>
      <trkpt lat="62.27947" lon="5.81268">
        <ele>77.325109</ele>
        <time>2020-07-30T11:55:54.420Z</time>
      </trkpt>
      <trkpt lat="62.27947" lon="5.81297">
        <ele>77.09245</ele>
        <time>2020-07-30T11:55:57.417Z</time>
      </trkpt>
      <trkpt lat="62.27948" lon="5.81316">
        <ele>76.93503</ele>
        <time>2020-07-30T11:55:59.439Z</time>
      </trkpt>
      <trkpt lat="62.27948" lon="5.81336">
        <ele>76.770096</ele>
        <time>2020-07-30T11:56:01.387Z</time>
      </trkpt>
      <trkpt lat="62.27947" lon="5.81357">
        <ele>76.598463</ele>
        <time>2020-07-30T11:56:03.401Z</time>
      </trkpt>
      <trkpt lat="62.27947" lon="5.81379">
        <ele>76.417966</ele>
        <time>2020-07-30T11:56:05.386Z</time>
      </trkpt>
      <trkpt lat="62.27947" lon="5.81401">
        <ele>76.23605</ele>
        <time>2020-07-30T11:56:07.427Z</time>
      </trkpt>
      <trkpt lat="62.27948" lon="5.81422">
        <ele>76.063202</ele>
        <time>2020-07-30T11:56:09.410Z</time>
      </trkpt>
      <trkpt lat="62.2795" lon="5.81444">
        <ele>75.886278</ele>
        <time>2020-07-30T11:56:11.409Z</time>
      </trkpt>
      <trkpt lat="62.27952" lon="5.81464">
        <ele>75.715407</ele>
        <time>2020-07-30T11:56:13.410Z</time>
      </trkpt>
      <trkpt lat="62.27953" lon="5.81484">
        <ele>75.553074</ele>
        <time>2020-07-30T11:56:15.459Z</time>
      </trkpt>
      <trkpt lat="62.27956" lon="5.81504">
        <ele>75.383</ele>
        <time>2020-07-30T11:56:17.390Z</time>
      </trkpt>
      <trkpt lat="62.27958" lon="5.81525">
        <ele>75.205416</ele>
        <time>2020-07-30T11:56:19.389Z</time>
      </trkpt>
      <trkpt lat="62.2796" lon="5.81548">
        <ele>75.01706</ele>
        <time>2020-07-30T11:56:21.417Z</time>
      </trkpt>
      <trkpt lat="62.27962" lon="5.8157">
        <ele>74.828337</ele>
        <time>2020-07-30T11:56:23.392Z</time>
      </trkpt>
      <trkpt lat="62.27966" lon="5.81593">
        <ele>74.645098</ele>
        <time>2020-07-30T11:56:25.390Z</time>
      </trkpt>
      <trkpt lat="62.27969" lon="5.81615">
        <ele>74.549178</ele>
        <time>2020-07-30T11:56:27.418Z</time>
      </trkpt>
      <trkpt lat="62.27973" lon="5.81636">
        <ele>74.453132</ele>
        <time>2020-07-30T11:56:29.400Z</time>
      </trkpt>
      <trkpt lat="62.27978" lon="5.81657">
        <ele>74.351772</ele>
        <time>2020-07-30T11:56:31.439Z</time>
      </trkpt>
      <trkpt lat="62.27983" lon="5.81678">
        <ele>74.251879</ele>
        <time>2020-07-30T11:56:33.390Z</time>
      </trkpt>
      <trkpt lat="62.27989" lon="5.81698">
        <ele>74.152534</ele>
        <time>2020-07-30T11:56:35.402Z</time>
      </trkpt>
      <trkpt lat="62.27994" lon="5.81719">
        <ele>74.054818</ele>
        <time>2020-07-30T11:56:37.401Z</time>
      </trkpt>
      <trkpt lat="62.27999" lon="5.81739">
        <ele>73.957642</ele>
        <time>2020-07-30T11:56:39.412Z</time>
      </trkpt>
      <trkpt lat="62.28003" lon="5.8176">
        <ele>73.862771</ele>
        <time>2020-07-30T11:56:41.409Z</time>
      </trkpt>
      <trkpt lat="62.28006" lon="5.81781">
        <ele>73.767726</ele>
        <time>2020-07-30T11:56:43.404Z</time>
      </trkpt>
      <trkpt lat="62.28009" lon="5.81802">
        <ele>73.674747</ele>
        <time>2020-07-30T11:56:45.439Z</time>
      </trkpt>
      <trkpt lat="62.28011" lon="5.81821">
        <ele>73.589358</ele>
        <time>2020-07-30T11:56:47.411Z</time>
      </trkpt>
      <trkpt lat="62.28012" lon="5.81841">
        <ele>73.505577</ele>
        <time>2020-07-30T11:56:49.401Z</time>
      </trkpt>
      <trkpt lat="62.28012" lon="5.81869">
        <ele>73.38619</ele>
        <time>2020-07-30T11:56:52.400Z</time>
      </trkpt>
      <trkpt lat="62.28015" lon="5.81895">
        <ele>73.275477</ele>
        <time>2020-07-30T11:56:55.392Z</time>
      </trkpt>
      <trkpt lat="62.28022" lon="5.81916">
        <ele>73.164911</ele>
        <time>2020-07-30T11:56:58.387Z</time>
      </trkpt>
      <trkpt lat="62.28031" lon="5.81932">
        <ele>73.056792</ele>
        <time>2020-07-30T11:57:01.405Z</time>
      </trkpt>
      <trkpt lat="62.28039" lon="5.81947">
        <ele>72.850359</ele>
        <time>2020-07-30T11:57:04.421Z</time>
      </trkpt>
      <trkpt lat="62.28046" lon="5.81968">
        <ele>72.549561</ele>
        <time>2020-07-30T11:57:08.403Z</time>
      </trkpt>
      <trkpt lat="62.28051" lon="5.81984">
        <ele>72.316805</ele>
        <time>2020-07-30T11:57:11.391Z</time>
      </trkpt>
      <trkpt lat="62.28056" lon="5.82003">
        <ele>72.039173</ele>
        <time>2020-07-30T11:57:14.388Z</time>
      </trkpt>
      <trkpt lat="62.28064" lon="5.82026">
        <ele>71.6963</ele>
        <time>2020-07-30T11:57:17.396Z</time>
      </trkpt>
      <trkpt lat="62.2807" lon="5.82044">
        <ele>71.429934</ele>
        <time>2020-07-30T11:57:19.418Z</time>
      </trkpt>
      <trkpt lat="62.28079" lon="5.82061">
        <ele>71.126538</ele>
        <time>2020-07-30T11:57:21.425Z</time>
      </trkpt>
      <trkpt lat="62.28088" lon="5.82078">
        <ele>70.812023</ele>
        <time>2020-07-30T11:57:23.394Z</time>
      </trkpt>
      <trkpt lat="62.28098" lon="5.82095">
        <ele>70.493412</ele>
        <time>2020-07-30T11:57:25.398Z</time>
      </trkpt>
      <trkpt lat="62.28108" lon="5.82111">
        <ele>70.160859</ele>
        <time>2020-07-30T11:57:27.390Z</time>
      </trkpt>
      <trkpt lat="62.28117" lon="5.82127">
        <ele>69.853168</ele>
        <time>2020-07-30T11:57:29.406Z</time>
      </trkpt>
      <trkpt lat="62.28127" lon="5.82144">
        <ele>69.530083</ele>
        <time>2020-07-30T11:57:31.427Z</time>
      </trkpt>
      <trkpt lat="62.28136" lon="5.82159">
        <ele>69.237499</ele>
        <time>2020-07-30T11:57:33.383Z</time>
      </trkpt>
      <trkpt lat="62.28143" lon="5.82174">
        <ele>68.969597</ele>
        <time>2020-07-30T11:57:35.407Z</time>
      </trkpt>
      <trkpt lat="62.28151" lon="5.82193">
        <ele>68.666349</ele>
        <time>2020-07-30T11:57:37.387Z</time>
      </trkpt>
      <trkpt lat="62.28158" lon="5.82216">
        <ele>68.307157</ele>
        <time>2020-07-30T11:57:39.447Z</time>
      </trkpt>
      <trkpt lat="62.28164" lon="5.82241">
        <ele>67.476563</ele>
        <time>2020-07-30T11:57:41.400Z</time>
      </trkpt>
      <trkpt lat="62.28168" lon="5.82268">
        <ele>66.640885</ele>
        <time>2020-07-30T11:57:43.414Z</time>
      </trkpt>
      <trkpt lat="62.28171" lon="5.82294">
        <ele>65.847231</ele>
        <time>2020-07-30T11:57:45.406Z</time>
      </trkpt>
      <trkpt lat="62.28173" lon="5.8232">
        <ele>65.089796</ele>
        <time>2020-07-30T11:57:47.403Z</time>
      </trkpt>
      <trkpt lat="62.28175" lon="5.82347">
        <ele>64.290957</ele>
        <time>2020-07-30T11:57:49.402Z</time>
      </trkpt>
      <trkpt lat="62.28177" lon="5.82379">
        <ele>63.320979</ele>
        <time>2020-07-30T11:57:51.418Z</time>
      </trkpt>
      <trkpt lat="62.28178" lon="5.82418">
        <ele>62.182628</ele>
        <time>2020-07-30T11:57:53.416Z</time>
      </trkpt>
      <trkpt lat="62.28178" lon="5.82439">
        <ele>61.559396</ele>
        <time>2020-07-30T11:57:54.415Z</time>
      </trkpt>
      <trkpt lat="62.28179" lon="5.82461">
        <ele>60.929541</ele>
        <time>2020-07-30T11:57:55.395Z</time>
      </trkpt>
      <trkpt lat="62.2818" lon="5.82482">
        <ele>60.291305</ele>
        <time>2020-07-30T11:57:56.417Z</time>
      </trkpt>
      <trkpt lat="62.2818" lon="5.82504">
        <ele>59.644615</ele>
        <time>2020-07-30T11:57:57.456Z</time>
      </trkpt>
      <trkpt lat="62.2818" lon="5.82526">
        <ele>59.013344</ele>
        <time>2020-07-30T11:57:58.420Z</time>
      </trkpt>
      <trkpt lat="62.2818" lon="5.82546">
        <ele>58.414368</ele>
        <time>2020-07-30T11:57:59.383Z</time>
      </trkpt>
      <trkpt lat="62.28179" lon="5.82566">
        <ele>57.831364</ele>
        <time>2020-07-30T11:58:00.409Z</time>
      </trkpt>
      <trkpt lat="62.28176" lon="5.82603">
        <ele>57.120218</ele>
        <time>2020-07-30T11:58:02.415Z</time>
      </trkpt>
      <trkpt lat="62.28169" lon="5.82634">
        <ele>57.5508</ele>
        <time>2020-07-30T11:58:04.416Z</time>
      </trkpt>
      <trkpt lat="62.28163" lon="5.82662">
        <ele>57.948501</ele>
        <time>2020-07-30T11:58:06.410Z</time>
      </trkpt>
      <trkpt lat="62.28155" lon="5.82687">
        <ele>58.330565</ele>
        <time>2020-07-30T11:58:08.385Z</time>
      </trkpt>
      <trkpt lat="62.28148" lon="5.82709">
        <ele>58.673173</ele>
        <time>2020-07-30T11:58:10.388Z</time>
      </trkpt>
      <trkpt lat="62.28143" lon="5.82728">
        <ele>58.946174</ele>
        <time>2020-07-30T11:58:12.393Z</time>
      </trkpt>
      <trkpt lat="62.28137" lon="5.82748">
        <ele>59.24305</ele>
        <time>2020-07-30T11:58:15.401Z</time>
      </trkpt>
      <trkpt lat="62.28131" lon="5.82762">
        <ele>59.487915</ele>
        <time>2020-07-30T11:58:18.381Z</time>
      </trkpt>
      <trkpt lat="62.28123" lon="5.82774">
        <ele>59.756337</ele>
        <time>2020-07-30T11:58:22.389Z</time>
      </trkpt>
      <trkpt lat="62.2812" lon="5.82797">
        <ele>60.05468</ele>
        <time>2020-07-30T11:58:28.385Z</time>
      </trkpt>
      <trkpt lat="62.28124" lon="5.82818">
        <ele>60.333839</ele>
        <time>2020-07-30T11:58:32.407Z</time>
      </trkpt>
      <trkpt lat="62.28131" lon="5.82836">
        <ele>60.631599</ele>
        <time>2020-07-30T11:58:37.427Z</time>
      </trkpt>
      <trkpt lat="62.28136" lon="5.82853">
        <ele>60.883855</ele>
        <time>2020-07-30T11:58:42.432Z</time>
      </trkpt>
      <trkpt lat="62.28142" lon="5.82871">
        <ele>61.161005</ele>
        <time>2020-07-30T11:58:48.446Z</time>
      </trkpt>
      <trkpt lat="62.28148" lon="5.82887">
        <ele>61.411799</ele>
        <time>2020-07-30T11:58:53.396Z</time>
      </trkpt>
      <trkpt lat="62.28153" lon="5.82903">
        <ele>61.65682</ele>
        <time>2020-07-30T11:58:58.417Z</time>
      </trkpt>
      <trkpt lat="62.28158" lon="5.82922">
        <ele>61.954409</ele>
        <time>2020-07-30T11:59:04.392Z</time>
      </trkpt>
      <trkpt lat="62.28163" lon="5.82938">
        <ele>62.320189</ele>
        <time>2020-07-30T11:59:10.387Z</time>
      </trkpt>
      <trkpt lat="62.28168" lon="5.82955">
        <ele>62.709979</ele>
        <time>2020-07-30T11:59:16.411Z</time>
      </trkpt>
      <trkpt lat="62.28173" lon="5.82974">
        <ele>63.10115</ele>
        <time>2020-07-30T11:59:23.416Z</time>
      </trkpt>
      <trkpt lat="62.28178" lon="5.8299">
        <ele>63.46327</ele>
        <time>2020-07-30T11:59:29.404Z</time>
      </trkpt>
      <trkpt lat="62.28183" lon="5.83009">
        <ele>63.880412</ele>
        <time>2020-07-30T11:59:36.402Z</time>
      </trkpt>
      <trkpt lat="62.28189" lon="5.83028">
        <ele>64.30068</ele>
        <time>2020-07-30T11:59:43.397Z</time>
      </trkpt>
      <trkpt lat="62.28194" lon="5.83046">
        <ele>64.687443</ele>
        <time>2020-07-30T11:59:50.401Z</time>
      </trkpt>
      <trkpt lat="62.28199" lon="5.83065">
        <ele>65.094417</ele>
        <time>2020-07-30T11:59:57.397Z</time>
      </trkpt>
      <trkpt lat="62.28204" lon="5.83083">
        <ele>65.494868</ele>
        <time>2020-07-30T12:00:03.391Z</time>
      </trkpt>
      <trkpt lat="62.28209" lon="5.83103">
        <ele>65.927221</ele>
        <time>2020-07-30T12:00:08.430Z</time>
      </trkpt>
      <trkpt lat="62.28216" lon="5.83126">
        <ele>66.428266</ele>
        <time>2020-07-30T12:00:12.397Z</time>
      </trkpt>
      <trkpt lat="62.28221" lon="5.83143">
        <ele>66.801002</ele>
        <time>2020-07-30T12:00:14.385Z</time>
      </trkpt>
      <trkpt lat="62.28227" lon="5.83164">
        <ele>67.271391</ele>
        <time>2020-07-30T12:00:16.425Z</time>
      </trkpt>
      <trkpt lat="62.28235" lon="5.83189">
        <ele>67.827418</ele>
        <time>2020-07-30T12:00:18.406Z</time>
      </trkpt>
      <trkpt lat="62.28243" lon="5.83217">
        <ele>68.440512</ele>
        <time>2020-07-30T12:00:20.387Z</time>
      </trkpt>
      <trkpt lat="62.28251" lon="5.83249">
        <ele>69.099626</ele>
        <time>2020-07-30T12:00:22.412Z</time>
      </trkpt>
      <trkpt lat="62.28261" lon="5.83283">
        <ele>68.245763</ele>
        <time>2020-07-30T12:00:24.396Z</time>
      </trkpt>
      <trkpt lat="62.28266" lon="5.83301">
        <ele>67.785939</ele>
        <time>2020-07-30T12:00:25.413Z</time>
      </trkpt>
      <trkpt lat="62.28271" lon="5.8332">
        <ele>67.315062</ele>
        <time>2020-07-30T12:00:26.394Z</time>
      </trkpt>
      <trkpt lat="62.28277" lon="5.83338">
        <ele>66.845479</ele>
        <time>2020-07-30T12:00:27.408Z</time>
      </trkpt>
      <trkpt lat="62.28282" lon="5.83358">
        <ele>66.361128</ele>
        <time>2020-07-30T12:00:28.396Z</time>
      </trkpt>
      <trkpt lat="62.28287" lon="5.83379">
        <ele>65.854946</ele>
        <time>2020-07-30T12:00:29.408Z</time>
      </trkpt>
      <trkpt lat="62.28292" lon="5.83399">
        <ele>65.34026</ele>
        <time>2020-07-30T12:00:30.399Z</time>
      </trkpt>
      <trkpt lat="62.28298" lon="5.8342">
        <ele>64.824743</ele>
        <time>2020-07-30T12:00:31.396Z</time>
      </trkpt>
      <trkpt lat="62.28304" lon="5.83441">
        <ele>64.312431</ele>
        <time>2020-07-30T12:00:32.443Z</time>
      </trkpt>
      <trkpt lat="62.28309" lon="5.83461">
        <ele>63.801963</ele>
        <time>2020-07-30T12:00:33.438Z</time>
      </trkpt>
      <trkpt lat="62.28315" lon="5.83481">
        <ele>63.298849</ele>
        <time>2020-07-30T12:00:34.419Z</time>
      </trkpt>
      <trkpt lat="62.28321" lon="5.835">
        <ele>62.803046</ele>
        <time>2020-07-30T12:00:35.409Z</time>
      </trkpt>
      <trkpt lat="62.28326" lon="5.83519">
        <ele>62.326106</ele>
        <time>2020-07-30T12:00:36.409Z</time>
      </trkpt>
      <trkpt lat="62.28331" lon="5.83538">
        <ele>61.857084</ele>
        <time>2020-07-30T12:00:37.411Z</time>
      </trkpt>
      <trkpt lat="62.28336" lon="5.83557">
        <ele>61.395403</ele>
        <time>2020-07-30T12:00:38.387Z</time>
      </trkpt>
      <trkpt lat="62.28341" lon="5.83575">
        <ele>60.952902</ele>
        <time>2020-07-30T12:00:39.425Z</time>
      </trkpt>
      <trkpt lat="62.28345" lon="5.83592">
        <ele>60.790288</ele>
        <time>2020-07-30T12:00:40.399Z</time>
      </trkpt>
      <trkpt lat="62.28354" lon="5.83624">
        <ele>60.80177</ele>
        <time>2020-07-30T12:00:42.401Z</time>
      </trkpt>
      <trkpt lat="62.28362" lon="5.83654">
        <ele>60.812484</ele>
        <time>2020-07-30T12:00:44.400Z</time>
      </trkpt>
      <trkpt lat="62.2837" lon="5.83682">
        <ele>60.822549</ele>
        <time>2020-07-30T12:00:46.411Z</time>
      </trkpt>
      <trkpt lat="62.28377" lon="5.83708">
        <ele>60.831448</ele>
        <time>2020-07-30T12:00:48.385Z</time>
      </trkpt>
      <trkpt lat="62.28383" lon="5.8373">
        <ele>60.839463</ele>
        <time>2020-07-30T12:00:50.384Z</time>
      </trkpt>
      <trkpt lat="62.2839" lon="5.83749">
        <ele>60.846528</ele>
        <time>2020-07-30T12:00:52.398Z</time>
      </trkpt>
      <trkpt lat="62.28395" lon="5.83765">
        <ele>60.852675</ele>
        <time>2020-07-30T12:00:54.383Z</time>
      </trkpt>
      <trkpt lat="62.28402" lon="5.83787">
        <ele>60.860914</ele>
        <time>2020-07-30T12:00:57.403Z</time>
      </trkpt>
      <trkpt lat="62.2841" lon="5.83804">
        <ele>60.868123</ele>
        <time>2020-07-30T12:01:00.383Z</time>
      </trkpt>
      <trkpt lat="62.28417" lon="5.83818">
        <ele>60.874466</ele>
        <time>2020-07-30T12:01:03.403Z</time>
      </trkpt>
      <trkpt lat="62.28425" lon="5.83833">
        <ele>60.881675</ele>
        <time>2020-07-30T12:01:07.397Z</time>
      </trkpt>
      <trkpt lat="62.28434" lon="5.83846">
        <ele>60.888658</ele>
        <time>2020-07-30T12:01:11.425Z</time>
      </trkpt>
      <trkpt lat="62.28443" lon="5.83859">
        <ele>60.895893</ele>
        <time>2020-07-30T12:01:15.384Z</time>
      </trkpt>
      <trkpt lat="62.28451" lon="5.83872">
        <ele>60.902466</ele>
        <time>2020-07-30T12:01:19.393Z</time>
      </trkpt>
      <trkpt lat="62.28459" lon="5.83882">
        <ele>61.10923</ele>
        <time>2020-07-30T12:01:23.402Z</time>
      </trkpt>
      <trkpt lat="62.28467" lon="5.83895">
        <ele>61.53341</ele>
        <time>2020-07-30T12:01:28.434Z</time>
      </trkpt>
      <trkpt lat="62.28475" lon="5.83905">
        <ele>61.911568</ele>
        <time>2020-07-30T12:01:33.384Z</time>
      </trkpt>
      <trkpt lat="62.28483" lon="5.83917">
        <ele>62.298349</ele>
        <time>2020-07-30T12:01:38.411Z</time>
      </trkpt>
      <trkpt lat="62.28491" lon="5.83929">
        <ele>62.678563</ele>
        <time>2020-07-30T12:01:43.412Z</time>
      </trkpt>
      <trkpt lat="62.28498" lon="5.8394">
        <ele>63.055456</ele>
        <time>2020-07-30T12:01:48.398Z</time>
      </trkpt>
      <trkpt lat="62.28506" lon="5.83952">
        <ele>63.451043</ele>
        <time>2020-07-30T12:01:53.400Z</time>
      </trkpt>
      <trkpt lat="62.28515" lon="5.83965">
        <ele>63.86749</ele>
        <time>2020-07-30T12:01:58.446Z</time>
      </trkpt>
      <trkpt lat="62.28522" lon="5.83976">
        <ele>64.237981</ele>
        <time>2020-07-30T12:02:02.389Z</time>
      </trkpt>
      <trkpt lat="62.28531" lon="5.83988">
        <ele>64.667011</ele>
        <time>2020-07-30T12:02:06.411Z</time>
      </trkpt>
      <trkpt lat="62.28539" lon="5.83998">
        <ele>65.033082</ele>
        <time>2020-07-30T12:02:09.392Z</time>
      </trkpt>
      <trkpt lat="62.28548" lon="5.84014">
        <ele>65.496377</ele>
        <time>2020-07-30T12:02:13.381Z</time>
      </trkpt>
      <trkpt lat="62.28555" lon="5.84028">
        <ele>65.902897</ele>
        <time>2020-07-30T12:02:16.417Z</time>
      </trkpt>
      <trkpt lat="62.28563" lon="5.84047">
        <ele>66.380751</ele>
        <time>2020-07-30T12:02:19.383Z</time>
      </trkpt>
      <trkpt lat="62.28572" lon="5.84065">
        <ele>66.880967</ele>
        <time>2020-07-30T12:02:22.396Z</time>
      </trkpt>
      <trkpt lat="62.28581" lon="5.84086">
        <ele>67.408576</ele>
        <time>2020-07-30T12:02:25.401Z</time>
      </trkpt>
      <trkpt lat="62.28588" lon="5.84099">
        <ele>67.772462</ele>
        <time>2020-07-30T12:02:27.430Z</time>
      </trkpt>
      <trkpt lat="62.28594" lon="5.84113">
        <ele>68.144064</ele>
        <time>2020-07-30T12:02:29.431Z</time>
      </trkpt>
      <trkpt lat="62.286" lon="5.84127">
        <ele>68.105254</ele>
        <time>2020-07-30T12:02:31.405Z</time>
      </trkpt>
      <trkpt lat="62.28606" lon="5.84143">
        <ele>67.992849</ele>
        <time>2020-07-30T12:02:33.432Z</time>
      </trkpt>
      <trkpt lat="62.28614" lon="5.84165">
        <ele>67.828829</ele>
        <time>2020-07-30T12:02:36.418Z</time>
      </trkpt>
      <trkpt lat="62.28622" lon="5.84187">
        <ele>67.670558</ele>
        <time>2020-07-30T12:02:39.413Z</time>
      </trkpt>
      <trkpt lat="62.28629" lon="5.84207">
        <ele>67.52775</ele>
        <time>2020-07-30T12:02:42.454Z</time>
      </trkpt>
      <trkpt lat="62.28635" lon="5.84226">
        <ele>67.396819</ele>
        <time>2020-07-30T12:02:45.430Z</time>
      </trkpt>
      <trkpt lat="62.2864" lon="5.84243">
        <ele>67.276536</ele>
        <time>2020-07-30T12:02:48.401Z</time>
      </trkpt>
      <trkpt lat="62.28647" lon="5.8426">
        <ele>67.149615</ele>
        <time>2020-07-30T12:02:51.427Z</time>
      </trkpt>
      <trkpt lat="62.28653" lon="5.84277">
        <ele>67.028579</ele>
        <time>2020-07-30T12:02:54.423Z</time>
      </trkpt>
      <trkpt lat="62.28658" lon="5.84294">
        <ele>66.913008</ele>
        <time>2020-07-30T12:02:57.406Z</time>
      </trkpt>
      <trkpt lat="62.28663" lon="5.8431">
        <ele>66.800282</ele>
        <time>2020-07-30T12:03:00.402Z</time>
      </trkpt>
      <trkpt lat="62.28668" lon="5.84326">
        <ele>66.688169</ele>
        <time>2020-07-30T12:03:03.445Z</time>
      </trkpt>
      <trkpt lat="62.28674" lon="5.84343">
        <ele>66.569265</ele>
        <time>2020-07-30T12:03:06.425Z</time>
      </trkpt>
      <trkpt lat="62.28681" lon="5.84361">
        <ele>66.434453</ele>
        <time>2020-07-30T12:03:09.404Z</time>
      </trkpt>
      <trkpt lat="62.28688" lon="5.84379">
        <ele>66.304531</ele>
        <time>2020-07-30T12:03:12.421Z</time>
      </trkpt>
      <trkpt lat="62.28695" lon="5.84397">
        <ele>66.165273</ele>
        <time>2020-07-30T12:03:15.394Z</time>
      </trkpt>
      <trkpt lat="62.28703" lon="5.84413">
        <ele>66.027762</ele>
        <time>2020-07-30T12:03:18.398Z</time>
      </trkpt>
      <trkpt lat="62.28713" lon="5.84431">
        <ele>65.798624</ele>
        <time>2020-07-30T12:03:21.405Z</time>
      </trkpt>
      <trkpt lat="62.2872" lon="5.84443">
        <ele>65.611581</ele>
        <time>2020-07-30T12:03:23.428Z</time>
      </trkpt>
      <trkpt lat="62.28728" lon="5.84456">
        <ele>65.399414</ele>
        <time>2020-07-30T12:03:25.391Z</time>
      </trkpt>
      <trkpt lat="62.28737" lon="5.8447">
        <ele>65.164687</ele>
        <time>2020-07-30T12:03:27.394Z</time>
      </trkpt>
      <trkpt lat="62.28747" lon="5.84484">
        <ele>64.914045</ele>
        <time>2020-07-30T12:03:29.388Z</time>
      </trkpt>
      <trkpt lat="62.28758" lon="5.845">
        <ele>64.641362</ele>
        <time>2020-07-30T12:03:31.427Z</time>
      </trkpt>
      <trkpt lat="62.2877" lon="5.84516">
        <ele>64.356106</ele>
        <time>2020-07-30T12:03:33.397Z</time>
      </trkpt>
      <trkpt lat="62.28781" lon="5.84532">
        <ele>64.065775</ele>
        <time>2020-07-30T12:03:35.420Z</time>
      </trkpt>
      <trkpt lat="62.28793" lon="5.84549">
        <ele>63.774387</ele>
        <time>2020-07-30T12:03:37.403Z</time>
      </trkpt>
      <trkpt lat="62.28804" lon="5.84566">
        <ele>63.491703</ele>
        <time>2020-07-30T12:03:39.388Z</time>
      </trkpt>
      <trkpt lat="62.28815" lon="5.84581">
        <ele>63.217943</ele>
        <time>2020-07-30T12:03:41.413Z</time>
      </trkpt>
      <trkpt lat="62.28825" lon="5.84597">
        <ele>62.968556</ele>
        <time>2020-07-30T12:03:43.406Z</time>
      </trkpt>
      <trkpt lat="62.28833" lon="5.84611">
        <ele>62.740505</ele>
        <time>2020-07-30T12:03:45.410Z</time>
      </trkpt>
      <trkpt lat="62.28841" lon="5.84624">
        <ele>62.536814</ele>
        <time>2020-07-30T12:03:47.414Z</time>
      </trkpt>
      <trkpt lat="62.28851" lon="5.84643">
        <ele>62.26551</ele>
        <time>2020-07-30T12:03:50.389Z</time>
      </trkpt>
      <trkpt lat="62.2886" lon="5.8466">
        <ele>62.375589</ele>
        <time>2020-07-30T12:03:53.388Z</time>
      </trkpt>
      <trkpt lat="62.28868" lon="5.84676">
        <ele>62.527545</ele>
        <time>2020-07-30T12:03:56.448Z</time>
      </trkpt>
      <trkpt lat="62.28877" lon="5.84692">
        <ele>62.669156</ele>
        <time>2020-07-30T12:03:59.420Z</time>
      </trkpt>
      <trkpt lat="62.28885" lon="5.84708">
        <ele>62.812703</ele>
        <time>2020-07-30T12:04:02.428Z</time>
      </trkpt>
      <trkpt lat="62.28893" lon="5.84722">
        <ele>62.94298</ele>
        <time>2020-07-30T12:04:05.388Z</time>
      </trkpt>
      <trkpt lat="62.289" lon="5.84735">
        <ele>63.068747</ele>
        <time>2020-07-30T12:04:08.415Z</time>
      </trkpt>
      <trkpt lat="62.28908" lon="5.84748">
        <ele>63.194131</ele>
        <time>2020-07-30T12:04:11.395Z</time>
      </trkpt>
      <trkpt lat="62.28915" lon="5.84761">
        <ele>63.312258</ele>
        <time>2020-07-30T12:04:14.399Z</time>
      </trkpt>
      <trkpt lat="62.28922" lon="5.84774">
        <ele>63.431161</ele>
        <time>2020-07-30T12:04:17.387Z</time>
      </trkpt>
      <trkpt lat="62.2893" lon="5.84791">
        <ele>63.573498</ele>
        <time>2020-07-30T12:04:21.410Z</time>
      </trkpt>
      <trkpt lat="62.28938" lon="5.84809">
        <ele>63.729057</ele>
        <time>2020-07-30T12:04:25.396Z</time>
      </trkpt>
      <trkpt lat="62.28946" lon="5.84824">
        <ele>63.864609</ele>
        <time>2020-07-30T12:04:29.385Z</time>
      </trkpt>
      <trkpt lat="62.28955" lon="5.84839">
        <ele>64.010567</ele>
        <time>2020-07-30T12:04:33.399Z</time>
      </trkpt>
      <trkpt lat="62.28963" lon="5.84854">
        <ele>64.14962</ele>
        <time>2020-07-30T12:04:36.423Z</time>
      </trkpt>
      <trkpt lat="62.28973" lon="5.84872">
        <ele>64.321432</ele>
        <time>2020-07-30T12:04:39.423Z</time>
      </trkpt>
      <trkpt lat="62.28981" lon="5.84885">
        <ele>64.447059</ele>
        <time>2020-07-30T12:04:41.408Z</time>
      </trkpt>
      <trkpt lat="62.28989" lon="5.849">
        <ele>64.60325</ele>
        <time>2020-07-30T12:04:43.391Z</time>
      </trkpt>
      <trkpt lat="62.28998" lon="5.84914">
        <ele>64.84222</ele>
        <time>2020-07-30T12:04:45.409Z</time>
      </trkpt>
      <trkpt lat="62.29007" lon="5.8493">
        <ele>65.098259</ele>
        <time>2020-07-30T12:04:47.410Z</time>
      </trkpt>
      <trkpt lat="62.29016" lon="5.84946">
        <ele>65.36064</ele>
        <time>2020-07-30T12:04:49.390Z</time>
      </trkpt>
      <trkpt lat="62.29025" lon="5.84963">
        <ele>65.622352</ele>
        <time>2020-07-30T12:04:51.396Z</time>
      </trkpt>
      <trkpt lat="62.29033" lon="5.84979">
        <ele>65.88205</ele>
        <time>2020-07-30T12:04:53.407Z</time>
      </trkpt>
      <trkpt lat="62.29042" lon="5.84995">
        <ele>66.135721</ele>
        <time>2020-07-30T12:04:55.407Z</time>
      </trkpt>
      <trkpt lat="62.2905" lon="5.85009">
        <ele>66.358757</ele>
        <time>2020-07-30T12:04:57.401Z</time>
      </trkpt>
      <trkpt lat="62.29057" lon="5.85023">
        <ele>66.576194</ele>
        <time>2020-07-30T12:04:59.388Z</time>
      </trkpt>
      <trkpt lat="62.29065" lon="5.85038">
        <ele>66.798294</ele>
        <time>2020-07-30T12:05:01.423Z</time>
      </trkpt>
      <trkpt lat="62.29072" lon="5.85051">
        <ele>67.002144</ele>
        <time>2020-07-30T12:05:03.407Z</time>
      </trkpt>
      <trkpt lat="62.2908" lon="5.85067">
        <ele>67.252206</ele>
        <time>2020-07-30T12:05:06.419Z</time>
      </trkpt>
      <trkpt lat="62.29087" lon="5.85082">
        <ele>67.472671</ele>
        <time>2020-07-30T12:05:09.455Z</time>
      </trkpt>
      <trkpt lat="62.29095" lon="5.85097">
        <ele>67.713863</ele>
        <time>2020-07-30T12:05:13.389Z</time>
      </trkpt>
      <trkpt lat="62.29104" lon="5.85111">
        <ele>67.952536</ele>
        <time>2020-07-30T12:05:17.382Z</time>
      </trkpt>
      <trkpt lat="62.29113" lon="5.85124">
        <ele>68.194162</ele>
        <time>2020-07-30T12:05:21.443Z</time>
      </trkpt>
      <trkpt lat="62.29122" lon="5.85136">
        <ele>68.440708</ele>
        <time>2020-07-30T12:05:25.401Z</time>
      </trkpt>
      <trkpt lat="62.29131" lon="5.85147">
        <ele>68.639546</ele>
        <time>2020-07-30T12:05:28.384Z</time>
      </trkpt>
      <trkpt lat="62.29137" lon="5.85161">
        <ele>68.821988</ele>
        <time>2020-07-30T12:05:31.419Z</time>
      </trkpt>
      <trkpt lat="62.29142" lon="5.85177">
        <ele>69.009337</ele>
        <time>2020-07-30T12:05:34.414Z</time>
      </trkpt>
      <trkpt lat="62.29151" lon="5.85186">
        <ele>69.201051</ele>
        <time>2020-07-30T12:05:37.397Z</time>
      </trkpt>
      <trkpt lat="62.29163" lon="5.8518">
        <ele>69.441067</ele>
        <time>2020-07-30T12:05:41.401Z</time>
      </trkpt>
      <trkpt lat="62.29173" lon="5.85166">
        <ele>69.682451</ele>
        <time>2020-07-30T12:05:44.418Z</time>
      </trkpt>
      <trkpt lat="62.29185" lon="5.85157">
        <ele>69.936806</ele>
        <time>2020-07-30T12:05:47.397Z</time>
      </trkpt>
      <trkpt lat="62.29198" lon="5.8515">
        <ele>70.193664</ele>
        <time>2020-07-30T12:05:50.442Z</time>
      </trkpt>
      <trkpt lat="62.2921" lon="5.85141">
        <ele>70.44896</ele>
        <time>2020-07-30T12:05:53.413Z</time>
      </trkpt>
      <trkpt lat="62.29221" lon="5.85128">
        <ele>70.704708</ele>
        <time>2020-07-30T12:05:56.407Z</time>
      </trkpt>
      <trkpt lat="62.29229" lon="5.85119">
        <ele>70.895088</ele>
        <time>2020-07-30T12:05:58.408Z</time>
      </trkpt>
      <trkpt lat="62.29238" lon="5.85106">
        <ele>71.109251</ele>
        <time>2020-07-30T12:06:00.435Z</time>
      </trkpt>
      <trkpt lat="62.29247" lon="5.85094">
        <ele>71.318543</ele>
        <time>2020-07-30T12:06:02.422Z</time>
      </trkpt>
      <trkpt lat="62.29256" lon="5.85082">
        <ele>71.519613</ele>
        <time>2020-07-30T12:06:04.399Z</time>
      </trkpt>
      <trkpt lat="62.29264" lon="5.8507">
        <ele>71.715179</ele>
        <time>2020-07-30T12:06:06.391Z</time>
      </trkpt>
      <trkpt lat="62.29272" lon="5.85059">
        <ele>71.912545</ele>
        <time>2020-07-30T12:06:08.425Z</time>
      </trkpt>
      <trkpt lat="62.2928" lon="5.85047">
        <ele>72.107591</ele>
        <time>2020-07-30T12:06:10.394Z</time>
      </trkpt>
      <trkpt lat="62.29288" lon="5.85036">
        <ele>72.406236</ele>
        <time>2020-07-30T12:06:12.426Z</time>
      </trkpt>
      <trkpt lat="62.29295" lon="5.85025">
        <ele>72.730496</ele>
        <time>2020-07-30T12:06:14.419Z</time>
      </trkpt>
      <trkpt lat="62.29303" lon="5.85014">
        <ele>73.070463</ele>
        <time>2020-07-30T12:06:16.388Z</time>
      </trkpt>
      <trkpt lat="62.29312" lon="5.85002">
        <ele>73.439898</ele>
        <time>2020-07-30T12:06:18.403Z</time>
      </trkpt>
      <trkpt lat="62.2932" lon="5.84991">
        <ele>73.778108</ele>
        <time>2020-07-30T12:06:20.394Z</time>
      </trkpt>
      <trkpt lat="62.29328" lon="5.84979">
        <ele>74.127338</ele>
        <time>2020-07-30T12:06:22.405Z</time>
      </trkpt>
      <trkpt lat="62.29337" lon="5.84967">
        <ele>74.4911</ele>
        <time>2020-07-30T12:06:24.387Z</time>
      </trkpt>
      <trkpt lat="62.29346" lon="5.84955">
        <ele>74.860534</ele>
        <time>2020-07-30T12:06:26.406Z</time>
      </trkpt>
      <trkpt lat="62.29354" lon="5.84943">
        <ele>75.215668</ele>
        <time>2020-07-30T12:06:28.412Z</time>
      </trkpt>
      <trkpt lat="62.29363" lon="5.84931">
        <ele>75.566371</ele>
        <time>2020-07-30T12:06:30.404Z</time>
      </trkpt>
      <trkpt lat="62.29371" lon="5.8492">
        <ele>75.919716</ele>
        <time>2020-07-30T12:06:32.390Z</time>
      </trkpt>
      <trkpt lat="62.29379" lon="5.84908">
        <ele>76.275563</ele>
        <time>2020-07-30T12:06:34.391Z</time>
      </trkpt>
      <trkpt lat="62.29388" lon="5.84897">
        <ele>76.630582</ele>
        <time>2020-07-30T12:06:36.397Z</time>
      </trkpt>
      <trkpt lat="62.29397" lon="5.84885">
        <ele>76.997651</ele>
        <time>2020-07-30T12:06:38.420Z</time>
      </trkpt>
      <trkpt lat="62.29405" lon="5.84873">
        <ele>77.359976</ele>
        <time>2020-07-30T12:06:40.379Z</time>
      </trkpt>
      <trkpt lat="62.29414" lon="5.84861">
        <ele>77.711246</ele>
        <time>2020-07-30T12:06:42.402Z</time>
      </trkpt>
      <trkpt lat="62.29422" lon="5.84849">
        <ele>78.062216</ele>
        <time>2020-07-30T12:06:44.428Z</time>
      </trkpt>
      <trkpt lat="62.2943" lon="5.84838">
        <ele>78.397884</ele>
        <time>2020-07-30T12:06:46.393Z</time>
      </trkpt>
      <trkpt lat="62.29437" lon="5.84827">
        <ele>78.321585</ele>
        <time>2020-07-30T12:06:48.407Z</time>
      </trkpt>
      <trkpt lat="62.29448" lon="5.84809">
        <ele>77.876862</ele>
        <time>2020-07-30T12:06:51.403Z</time>
      </trkpt>
      <trkpt lat="62.29455" lon="5.84796">
        <ele>77.562951</ele>
        <time>2020-07-30T12:06:53.381Z</time>
      </trkpt>
      <trkpt lat="62.29463" lon="5.84782">
        <ele>77.239679</ele>
        <time>2020-07-30T12:06:55.420Z</time>
      </trkpt>
      <trkpt lat="62.2947" lon="5.84768">
        <ele>76.916886</ele>
        <time>2020-07-30T12:06:57.399Z</time>
      </trkpt>
      <trkpt lat="62.29478" lon="5.84753">
        <ele>76.583514</ele>
        <time>2020-07-30T12:06:59.456Z</time>
      </trkpt>
      <trkpt lat="62.29486" lon="5.84738">
        <ele>76.225961</ele>
        <time>2020-07-30T12:07:01.399Z</time>
      </trkpt>
      <trkpt lat="62.29494" lon="5.84722">
        <ele>75.865376</ele>
        <time>2020-07-30T12:07:03.402Z</time>
      </trkpt>
      <trkpt lat="62.29502" lon="5.84707">
        <ele>75.52023</ele>
        <time>2020-07-30T12:07:05.420Z</time>
      </trkpt>
      <trkpt lat="62.29509" lon="5.84692">
        <ele>75.189795</ele>
        <time>2020-07-30T12:07:07.397Z</time>
      </trkpt>
      <trkpt lat="62.29516" lon="5.84677">
        <ele>74.872774</ele>
        <time>2020-07-30T12:07:09.392Z</time>
      </trkpt>
      <trkpt lat="62.29523" lon="5.84664">
        <ele>74.56291</ele>
        <time>2020-07-30T12:07:11.405Z</time>
      </trkpt>
      <trkpt lat="62.29531" lon="5.84649">
        <ele>74.227712</ele>
        <time>2020-07-30T12:07:13.410Z</time>
      </trkpt>
      <trkpt lat="62.29541" lon="5.84629">
        <ele>73.771174</ele>
        <time>2020-07-30T12:07:16.428Z</time>
      </trkpt>
      <trkpt lat="62.29548" lon="5.84617">
        <ele>73.477039</ele>
        <time>2020-07-30T12:07:18.443Z</time>
      </trkpt>
      <trkpt lat="62.29556" lon="5.84605">
        <ele>73.16368</ele>
        <time>2020-07-30T12:07:20.396Z</time>
      </trkpt>
      <trkpt lat="62.29563" lon="5.84593">
        <ele>72.852239</ele>
        <time>2020-07-30T12:07:22.394Z</time>
      </trkpt>
      <trkpt lat="62.29571" lon="5.84581">
        <ele>72.62489</ele>
        <time>2020-07-30T12:07:24.397Z</time>
      </trkpt>
      <trkpt lat="62.29579" lon="5.84569">
        <ele>72.643884</ele>
        <time>2020-07-30T12:07:26.395Z</time>
      </trkpt>
      <trkpt lat="62.29587" lon="5.84557">
        <ele>72.662774</ele>
        <time>2020-07-30T12:07:28.389Z</time>
      </trkpt>
      <trkpt lat="62.29595" lon="5.84545">
        <ele>72.681822</ele>
        <time>2020-07-30T12:07:30.394Z</time>
      </trkpt>
      <trkpt lat="62.29602" lon="5.84533">
        <ele>72.700443</ele>
        <time>2020-07-30T12:07:32.401Z</time>
      </trkpt>
      <trkpt lat="62.2961" lon="5.84522">
        <ele>72.71875</ele>
        <time>2020-07-30T12:07:34.396Z</time>
      </trkpt>
      <trkpt lat="62.29618" lon="5.84511">
        <ele>72.737499</ele>
        <time>2020-07-30T12:07:36.420Z</time>
      </trkpt>
      <trkpt lat="62.29626" lon="5.845">
        <ele>72.75567</ele>
        <time>2020-07-30T12:07:38.417Z</time>
      </trkpt>
      <trkpt lat="62.29634" lon="5.84489">
        <ele>72.773875</ele>
        <time>2020-07-30T12:07:40.384Z</time>
      </trkpt>
      <trkpt lat="62.29641" lon="5.84477">
        <ele>72.7925</ele>
        <time>2020-07-30T12:07:42.425Z</time>
      </trkpt>
      <trkpt lat="62.29649" lon="5.84466">
        <ele>72.811236</ele>
        <time>2020-07-30T12:07:44.403Z</time>
      </trkpt>
      <trkpt lat="62.2966" lon="5.84449">
        <ele>72.838019</ele>
        <time>2020-07-30T12:07:47.381Z</time>
      </trkpt>
      <trkpt lat="62.29668" lon="5.84438">
        <ele>72.856054</ele>
        <time>2020-07-30T12:07:49.423Z</time>
      </trkpt>
      <trkpt lat="62.29675" lon="5.84425">
        <ele>72.87426</ele>
        <time>2020-07-30T12:07:51.389Z</time>
      </trkpt>
      <trkpt lat="62.29683" lon="5.84413">
        <ele>72.892791</ele>
        <time>2020-07-30T12:07:53.425Z</time>
      </trkpt>
      <trkpt lat="62.2969" lon="5.84399">
        <ele>72.912566</ele>
        <time>2020-07-30T12:07:55.386Z</time>
      </trkpt>
      <trkpt lat="62.29697" lon="5.84386">
        <ele>72.931083</ele>
        <time>2020-07-30T12:07:57.389Z</time>
      </trkpt>
      <trkpt lat="62.29705" lon="5.84371">
        <ele>72.950674</ele>
        <time>2020-07-30T12:07:59.422Z</time>
      </trkpt>
      <trkpt lat="62.29712" lon="5.84357">
        <ele>72.970288</ele>
        <time>2020-07-30T12:08:01.399Z</time>
      </trkpt>
      <trkpt lat="62.2972" lon="5.8434">
        <ele>72.746106</ele>
        <time>2020-07-30T12:08:03.388Z</time>
      </trkpt>
      <trkpt lat="62.29727" lon="5.84324">
        <ele>72.464259</ele>
        <time>2020-07-30T12:08:05.380Z</time>
      </trkpt>
      <trkpt lat="62.29734" lon="5.84307">
        <ele>72.182455</ele>
        <time>2020-07-30T12:08:07.400Z</time>
      </trkpt>
      <trkpt lat="62.29742" lon="5.8429">
        <ele>71.899755</ele>
        <time>2020-07-30T12:08:09.397Z</time>
      </trkpt>
      <trkpt lat="62.29749" lon="5.84273">
        <ele>71.60715</ele>
        <time>2020-07-30T12:08:11.397Z</time>
      </trkpt>
      <trkpt lat="62.29756" lon="5.84256">
        <ele>71.328644</ele>
        <time>2020-07-30T12:08:13.383Z</time>
      </trkpt>
      <trkpt lat="62.29763" lon="5.84237">
        <ele>71.036565</ele>
        <time>2020-07-30T12:08:15.391Z</time>
      </trkpt>
      <trkpt lat="62.2977" lon="5.8422">
        <ele>70.751652</ele>
        <time>2020-07-30T12:08:17.417Z</time>
      </trkpt>
      <trkpt lat="62.29777" lon="5.84203">
        <ele>70.475225</ele>
        <time>2020-07-30T12:08:19.392Z</time>
      </trkpt>
      <trkpt lat="62.29783" lon="5.84187">
        <ele>70.212155</ele>
        <time>2020-07-30T12:08:21.454Z</time>
      </trkpt>
      <trkpt lat="62.29789" lon="5.84171">
        <ele>69.964667</ele>
        <time>2020-07-30T12:08:23.392Z</time>
      </trkpt>
      <trkpt lat="62.29795" lon="5.84156">
        <ele>69.713408</ele>
        <time>2020-07-30T12:08:25.400Z</time>
      </trkpt>
      <trkpt lat="62.29802" lon="5.84141">
        <ele>69.463984</ele>
        <time>2020-07-30T12:08:27.422Z</time>
      </trkpt>
      <trkpt lat="62.29808" lon="5.84126">
        <ele>69.223581</ele>
        <time>2020-07-30T12:08:29.405Z</time>
      </trkpt>
      <trkpt lat="62.29817" lon="5.84105">
        <ele>68.874193</ele>
        <time>2020-07-30T12:08:32.399Z</time>
      </trkpt>
      <trkpt lat="62.29823" lon="5.84091">
        <ele>68.631939</ele>
        <time>2020-07-30T12:08:34.397Z</time>
      </trkpt>
      <trkpt lat="62.2983" lon="5.84078">
        <ele>68.392513</ele>
        <time>2020-07-30T12:08:36.410Z</time>
      </trkpt>
      <trkpt lat="62.2984" lon="5.84059">
        <ele>68.178776</ele>
        <time>2020-07-30T12:08:39.406Z</time>
      </trkpt>
      <trkpt lat="62.29847" lon="5.84048">
        <ele>68.124115</ele>
        <time>2020-07-30T12:08:41.396Z</time>
      </trkpt>
      <trkpt lat="62.29858" lon="5.84032">
        <ele>68.045766</ele>
        <time>2020-07-30T12:08:44.398Z</time>
      </trkpt>
      <trkpt lat="62.29866" lon="5.84022">
        <ele>67.991643</ele>
        <time>2020-07-30T12:08:46.408Z</time>
      </trkpt>
      <trkpt lat="62.29877" lon="5.8401">
        <ele>67.912302</ele>
        <time>2020-07-30T12:08:49.420Z</time>
      </trkpt>
      <trkpt lat="62.29886" lon="5.84002">
        <ele>67.856516</ele>
        <time>2020-07-30T12:08:51.401Z</time>
      </trkpt>
      <trkpt lat="62.29895" lon="5.83996">
        <ele>67.801889</ele>
        <time>2020-07-30T12:08:53.403Z</time>
      </trkpt>
      <trkpt lat="62.29904" lon="5.83991">
        <ele>67.74554</ele>
        <time>2020-07-30T12:08:55.401Z</time>
      </trkpt>
      <trkpt lat="62.29913" lon="5.83986">
        <ele>67.689486</ele>
        <time>2020-07-30T12:08:57.385Z</time>
      </trkpt>
      <trkpt lat="62.29922" lon="5.83983">
        <ele>67.630249</ele>
        <time>2020-07-30T12:08:59.398Z</time>
      </trkpt>
      <trkpt lat="62.29932" lon="5.83981">
        <ele>67.570387</ele>
        <time>2020-07-30T12:09:01.409Z</time>
      </trkpt>
      <trkpt lat="62.29942" lon="5.8398">
        <ele>67.51005</ele>
        <time>2020-07-30T12:09:03.396Z</time>
      </trkpt>
      <trkpt lat="62.29953" lon="5.8398">
        <ele>67.448014</ele>
        <time>2020-07-30T12:09:05.424Z</time>
      </trkpt>
      <trkpt lat="62.29963" lon="5.8398">
        <ele>67.387132</ele>
        <time>2020-07-30T12:09:07.388Z</time>
      </trkpt>
      <trkpt lat="62.29973" lon="5.83982">
        <ele>67.326193</ele>
        <time>2020-07-30T12:09:09.442Z</time>
      </trkpt>
      <trkpt lat="62.29985" lon="5.83986">
        <ele>67.253424</ele>
        <time>2020-07-30T12:09:11.405Z</time>
      </trkpt>
      <trkpt lat="62.29996" lon="5.83992">
        <ele>67.184693</ele>
        <time>2020-07-30T12:09:13.398Z</time>
      </trkpt>
      <trkpt lat="62.30006" lon="5.83998">
        <ele>66.997746</ele>
        <time>2020-07-30T12:09:15.387Z</time>
      </trkpt>
      <trkpt lat="62.30074" lon="5.84134">
        <ele>62.365886</ele>
        <time>2020-07-30T12:09:40.509Z</time>
      </trkpt>
      <trkpt lat="62.30092" lon="5.84183">
        <ele>60.904834</ele>
        <time>2020-07-30T12:09:42.405Z</time>
      </trkpt>
      <trkpt lat="62.3011" lon="5.84241">
        <ele>59.290418</ele>
        <time>2020-07-30T12:09:45.387Z</time>
      </trkpt>
      <trkpt lat="62.30118" lon="5.84264">
        <ele>58.603301</ele>
        <time>2020-07-30T12:09:47.388Z</time>
      </trkpt>
      <trkpt lat="62.30123" lon="5.84288">
        <ele>58.144905</ele>
        <time>2020-07-30T12:09:50.397Z</time>
      </trkpt>
      <trkpt lat="62.30126" lon="5.84307">
        <ele>58.340803</ele>
        <time>2020-07-30T12:09:52.381Z</time>
      </trkpt>
      <trkpt lat="62.30128" lon="5.84327">
        <ele>58.539516</ele>
        <time>2020-07-30T12:09:54.396Z</time>
      </trkpt>
      <trkpt lat="62.30131" lon="5.84348">
        <ele>58.745563</ele>
        <time>2020-07-30T12:09:56.382Z</time>
      </trkpt>
      <trkpt lat="62.30133" lon="5.84369">
        <ele>58.956552</ele>
        <time>2020-07-30T12:09:58.402Z</time>
      </trkpt>
      <trkpt lat="62.30135" lon="5.84391">
        <ele>59.170114</ele>
        <time>2020-07-30T12:10:00.390Z</time>
      </trkpt>
      <trkpt lat="62.30137" lon="5.84412">
        <ele>59.377302</ele>
        <time>2020-07-30T12:10:02.387Z</time>
      </trkpt>
      <trkpt lat="62.30138" lon="5.84433">
        <ele>59.583173</ele>
        <time>2020-07-30T12:10:04.402Z</time>
      </trkpt>
      <trkpt lat="62.3014" lon="5.84453">
        <ele>59.78524</ele>
        <time>2020-07-30T12:10:06.397Z</time>
      </trkpt>
      <trkpt lat="62.30142" lon="5.84475">
        <ele>59.997951</ele>
        <time>2020-07-30T12:10:08.463Z</time>
      </trkpt>
      <trkpt lat="62.30144" lon="5.84497">
        <ele>60.211104</ele>
        <time>2020-07-30T12:10:10.428Z</time>
      </trkpt>
      <trkpt lat="62.30145" lon="5.8452">
        <ele>60.435412</ele>
        <time>2020-07-30T12:10:12.387Z</time>
      </trkpt>
      <trkpt lat="62.30147" lon="5.84543">
        <ele>60.663298</ele>
        <time>2020-07-30T12:10:14.395Z</time>
      </trkpt>
      <trkpt lat="62.30149" lon="5.84565">
        <ele>60.87904</ele>
        <time>2020-07-30T12:10:16.401Z</time>
      </trkpt>
      <trkpt lat="62.30151" lon="5.84587">
        <ele>61.097437</ele>
        <time>2020-07-30T12:10:18.414Z</time>
      </trkpt>
      <trkpt lat="62.30153" lon="5.84609">
        <ele>61.309618</ele>
        <time>2020-07-30T12:10:20.432Z</time>
      </trkpt>
      <trkpt lat="62.30155" lon="5.8463">
        <ele>61.517076</ele>
        <time>2020-07-30T12:10:22.399Z</time>
      </trkpt>
      <trkpt lat="62.30158" lon="5.84651">
        <ele>61.732974</ele>
        <time>2020-07-30T12:10:24.411Z</time>
      </trkpt>
      <trkpt lat="62.3016" lon="5.84673">
        <ele>61.999216</ele>
        <time>2020-07-30T12:10:26.409Z</time>
      </trkpt>
      <trkpt lat="62.30162" lon="5.84693">
        <ele>62.297161</ele>
        <time>2020-07-30T12:10:28.404Z</time>
      </trkpt>
      <trkpt lat="62.30164" lon="5.84713">
        <ele>62.588072</ele>
        <time>2020-07-30T12:10:30.421Z</time>
      </trkpt>
      <trkpt lat="62.30168" lon="5.84741">
        <ele>63.00384</ele>
        <time>2020-07-30T12:10:33.384Z</time>
      </trkpt>
      <trkpt lat="62.30172" lon="5.84768">
        <ele>63.408507</ele>
        <time>2020-07-30T12:10:36.411Z</time>
      </trkpt>
      <trkpt lat="62.30174" lon="5.84786">
        <ele>63.691724</ele>
        <time>2020-07-30T12:10:38.415Z</time>
      </trkpt>
      <trkpt lat="62.30178" lon="5.84813">
        <ele>64.093349</ele>
        <time>2020-07-30T12:10:41.390Z</time>
      </trkpt>
      <trkpt lat="62.30184" lon="5.84838">
        <ele>64.494057</ele>
        <time>2020-07-30T12:10:44.396Z</time>
      </trkpt>
      <trkpt lat="62.3019" lon="5.84863">
        <ele>64.900634</ele>
        <time>2020-07-30T12:10:47.401Z</time>
      </trkpt>
      <trkpt lat="62.30196" lon="5.84886">
        <ele>65.289855</ele>
        <time>2020-07-30T12:10:50.410Z</time>
      </trkpt>
      <trkpt lat="62.30203" lon="5.84909">
        <ele>65.67955</ele>
        <time>2020-07-30T12:10:53.432Z</time>
      </trkpt>
      <trkpt lat="62.30211" lon="5.84931">
        <ele>66.068087</ele>
        <time>2020-07-30T12:10:56.383Z</time>
      </trkpt>
      <trkpt lat="62.30219" lon="5.84951">
        <ele>66.447175</ele>
        <time>2020-07-30T12:10:59.441Z</time>
      </trkpt>
      <trkpt lat="62.30226" lon="5.8497">
        <ele>66.81125</ele>
        <time>2020-07-30T12:11:02.383Z</time>
      </trkpt>
      <trkpt lat="62.30234" lon="5.84989">
        <ele>67.169683</ele>
        <time>2020-07-30T12:11:05.405Z</time>
      </trkpt>
      <trkpt lat="62.30242" lon="5.85006">
        <ele>67.443896</ele>
        <time>2020-07-30T12:11:08.415Z</time>
      </trkpt>
      <trkpt lat="62.3025" lon="5.85024">
        <ele>67.551873</ele>
        <time>2020-07-30T12:11:11.405Z</time>
      </trkpt>
      <trkpt lat="62.30258" lon="5.85042">
        <ele>67.664386</ele>
        <time>2020-07-30T12:11:14.410Z</time>
      </trkpt>
      <trkpt lat="62.30267" lon="5.8506">
        <ele>67.779621</ele>
        <time>2020-07-30T12:11:17.418Z</time>
      </trkpt>
      <trkpt lat="62.30275" lon="5.85078">
        <ele>67.894111</ele>
        <time>2020-07-30T12:11:20.415Z</time>
      </trkpt>
      <trkpt lat="62.30284" lon="5.85096">
        <ele>68.007926</ele>
        <time>2020-07-30T12:11:23.398Z</time>
      </trkpt>
      <trkpt lat="62.30292" lon="5.85114">
        <ele>68.11981</ele>
        <time>2020-07-30T12:11:26.393Z</time>
      </trkpt>
      <trkpt lat="62.303" lon="5.85132">
        <ele>68.231625</ele>
        <time>2020-07-30T12:11:29.397Z</time>
      </trkpt>
      <trkpt lat="62.30308" lon="5.85151">
        <ele>68.340607</ele>
        <time>2020-07-30T12:11:32.393Z</time>
      </trkpt>
      <trkpt lat="62.30314" lon="5.8517">
        <ele>68.444542</ele>
        <time>2020-07-30T12:11:35.411Z</time>
      </trkpt>
      <trkpt lat="62.30321" lon="5.85188">
        <ele>68.549979</ele>
        <time>2020-07-30T12:11:38.403Z</time>
      </trkpt>
      <trkpt lat="62.30327" lon="5.85205">
        <ele>68.64405</ele>
        <time>2020-07-30T12:11:41.438Z</time>
      </trkpt>
      <trkpt lat="62.30333" lon="5.85223">
        <ele>68.740753</ele>
        <time>2020-07-30T12:11:44.389Z</time>
      </trkpt>
      <trkpt lat="62.30338" lon="5.85239">
        <ele>68.831771</ele>
        <time>2020-07-30T12:11:47.386Z</time>
      </trkpt>
      <trkpt lat="62.30343" lon="5.85257">
        <ele>68.922704</ele>
        <time>2020-07-30T12:11:50.391Z</time>
      </trkpt>
      <trkpt lat="62.30347" lon="5.85275">
        <ele>69.011721</ele>
        <time>2020-07-30T12:11:53.413Z</time>
      </trkpt>
      <trkpt lat="62.30353" lon="5.85297">
        <ele>69.123652</ele>
        <time>2020-07-30T12:11:57.411Z</time>
      </trkpt>
      <trkpt lat="62.30357" lon="5.85318">
        <ele>69.078294</ele>
        <time>2020-07-30T12:12:01.399Z</time>
      </trkpt>
      <trkpt lat="62.30362" lon="5.8534">
        <ele>69.028535</ele>
        <time>2020-07-30T12:12:05.383Z</time>
      </trkpt>
      <trkpt lat="62.30366" lon="5.8536">
        <ele>68.984398</ele>
        <time>2020-07-30T12:12:09.392Z</time>
      </trkpt>
      <trkpt lat="62.30371" lon="5.85376">
        <ele>68.942035</ele>
        <time>2020-07-30T12:12:13.397Z</time>
      </trkpt>
      <trkpt lat="62.30375" lon="5.85399">
        <ele>68.892129</ele>
        <time>2020-07-30T12:12:18.387Z</time>
      </trkpt>
      <trkpt lat="62.30386" lon="5.85403">
        <ele>68.843548</ele>
        <time>2020-07-30T12:12:22.397Z</time>
      </trkpt>
      <trkpt lat="62.30395" lon="5.85409">
        <ele>68.801492</ele>
        <time>2020-07-30T12:12:25.408Z</time>
      </trkpt>
      <trkpt lat="62.30403" lon="5.8543">
        <ele>68.742332</ele>
        <time>2020-07-30T12:12:28.419Z</time>
      </trkpt>
      <trkpt lat="62.30411" lon="5.85447">
        <ele>68.693254</ele>
        <time>2020-07-30T12:12:30.384Z</time>
      </trkpt>
      <trkpt lat="62.30422" lon="5.85461">
        <ele>68.634472</ele>
        <time>2020-07-30T12:12:32.393Z</time>
      </trkpt>
      <trkpt lat="62.30436" lon="5.8547">
        <ele>68.568797</ele>
        <time>2020-07-30T12:12:34.406Z</time>
      </trkpt>
      <trkpt lat="62.30453" lon="5.85477">
        <ele>68.493264</ele>
        <time>2020-07-30T12:12:36.401Z</time>
      </trkpt>
      <trkpt lat="62.30469" lon="5.85488">
        <ele>68.41731</ele>
        <time>2020-07-30T12:12:38.383Z</time>
      </trkpt>
      <trkpt lat="62.30481" lon="5.85506">
        <ele>68.350671</ele>
        <time>2020-07-30T12:12:40.384Z</time>
      </trkpt>
      <trkpt lat="62.30491" lon="5.85533">
        <ele>68.421406</ele>
        <time>2020-07-30T12:12:42.416Z</time>
      </trkpt>
      <trkpt lat="62.305" lon="5.85556">
        <ele>68.581357</ele>
        <time>2020-07-30T12:12:44.400Z</time>
      </trkpt>
      <trkpt lat="62.30509" lon="5.85572">
        <ele>68.721651</ele>
        <time>2020-07-30T12:12:46.410Z</time>
      </trkpt>
      <trkpt lat="62.30519" lon="5.85585">
        <ele>68.857212</ele>
        <time>2020-07-30T12:12:48.403Z</time>
      </trkpt>
      <trkpt lat="62.3053" lon="5.85597">
        <ele>68.998701</ele>
        <time>2020-07-30T12:12:50.398Z</time>
      </trkpt>
      <trkpt lat="62.3054" lon="5.85606">
        <ele>69.124512</ele>
        <time>2020-07-30T12:12:52.396Z</time>
      </trkpt>
      <trkpt lat="62.30552" lon="5.85617">
        <ele>69.27168</ele>
        <time>2020-07-30T12:12:55.405Z</time>
      </trkpt>
      <trkpt lat="62.30562" lon="5.85621">
        <ele>69.392423</ele>
        <time>2020-07-30T12:12:58.399Z</time>
      </trkpt>
      <trkpt lat="62.30572" lon="5.85621">
        <ele>69.504059</ele>
        <time>2020-07-30T12:13:01.398Z</time>
      </trkpt>
      <trkpt lat="62.30581" lon="5.85618">
        <ele>69.611743</ele>
        <time>2020-07-30T12:13:04.403Z</time>
      </trkpt>
      <trkpt lat="62.3059" lon="5.85617">
        <ele>69.723652</ele>
        <time>2020-07-30T12:13:07.430Z</time>
      </trkpt>
      <trkpt lat="62.306" lon="5.85616">
        <ele>69.836586</ele>
        <time>2020-07-30T12:13:10.394Z</time>
      </trkpt>
      <trkpt lat="62.30609" lon="5.85617">
        <ele>69.941364</ele>
        <time>2020-07-30T12:13:13.393Z</time>
      </trkpt>
      <trkpt lat="62.30621" lon="5.85613">
        <ele>70.075406</ele>
        <time>2020-07-30T12:13:17.389Z</time>
      </trkpt>
      <trkpt lat="62.30631" lon="5.85608">
        <ele>70.196024</ele>
        <time>2020-07-30T12:13:21.385Z</time>
      </trkpt>
      <trkpt lat="62.30641" lon="5.85601">
        <ele>70.3199</ele>
        <time>2020-07-30T12:13:25.391Z</time>
      </trkpt>
      <trkpt lat="62.3065" lon="5.85587">
        <ele>70.415513</ele>
        <time>2020-07-30T12:13:29.412Z</time>
      </trkpt>
      <trkpt lat="62.30659" lon="5.85571">
        <ele>70.43363</ele>
        <time>2020-07-30T12:13:32.386Z</time>
      </trkpt>
      <trkpt lat="62.30666" lon="5.85558">
        <ele>70.448543</ele>
        <time>2020-07-30T12:13:34.386Z</time>
      </trkpt>
      <trkpt lat="62.30674" lon="5.85543">
        <ele>70.464855</ele>
        <time>2020-07-30T12:13:36.417Z</time>
      </trkpt>
      <trkpt lat="62.30682" lon="5.85528">
        <ele>70.481964</ele>
        <time>2020-07-30T12:13:38.400Z</time>
      </trkpt>
      <trkpt lat="62.3069" lon="5.85513">
        <ele>70.49866</ele>
        <time>2020-07-30T12:13:40.386Z</time>
      </trkpt>
      <trkpt lat="62.30697" lon="5.85498">
        <ele>70.514869</ele>
        <time>2020-07-30T12:13:42.403Z</time>
      </trkpt>
      <trkpt lat="62.30704" lon="5.85484">
        <ele>70.52983</ele>
        <time>2020-07-30T12:13:44.397Z</time>
      </trkpt>
      <trkpt lat="62.30713" lon="5.85466">
        <ele>70.549344</ele>
        <time>2020-07-30T12:13:47.397Z</time>
      </trkpt>
      <trkpt lat="62.3072" lon="5.8545">
        <ele>70.565684</ele>
        <time>2020-07-30T12:13:50.392Z</time>
      </trkpt>
      <trkpt lat="62.30728" lon="5.8543">
        <ele>70.585082</ele>
        <time>2020-07-30T12:13:53.397Z</time>
      </trkpt>
      <trkpt lat="62.30733" lon="5.85414">
        <ele>70.600031</ele>
        <time>2020-07-30T12:13:55.388Z</time>
      </trkpt>
      <trkpt lat="62.3074" lon="5.85397">
        <ele>70.615589</ele>
        <time>2020-07-30T12:13:57.398Z</time>
      </trkpt>
      <trkpt lat="62.30745" lon="5.8538">
        <ele>70.63077</ele>
        <time>2020-07-30T12:13:59.405Z</time>
      </trkpt>
      <trkpt lat="62.3075" lon="5.85363">
        <ele>70.645902</ele>
        <time>2020-07-30T12:14:01.416Z</time>
      </trkpt>
      <trkpt lat="62.30755" lon="5.85345">
        <ele>70.660959</ele>
        <time>2020-07-30T12:14:03.391Z</time>
      </trkpt>
      <trkpt lat="62.30759" lon="5.85328">
        <ele>70.67576</ele>
        <time>2020-07-30T12:14:05.385Z</time>
      </trkpt>
      <trkpt lat="62.30763" lon="5.85309">
        <ele>70.690632</ele>
        <time>2020-07-30T12:14:07.434Z</time>
      </trkpt>
      <trkpt lat="62.30769" lon="5.85285">
        <ele>70.493415</ele>
        <time>2020-07-30T12:14:10.420Z</time>
      </trkpt>
      <trkpt lat="62.30773" lon="5.8526">
        <ele>70.229676</ele>
        <time>2020-07-30T12:14:13.385Z</time>
      </trkpt>
      <trkpt lat="62.30776" lon="5.85241">
        <ele>70.032836</ele>
        <time>2020-07-30T12:14:15.442Z</time>
      </trkpt>
      <trkpt lat="62.30778" lon="5.85221">
        <ele>69.836189</ele>
        <time>2020-07-30T12:14:17.388Z</time>
      </trkpt>
      <trkpt lat="62.3078" lon="5.85202">
        <ele>69.641472</ele>
        <time>2020-07-30T12:14:19.399Z</time>
      </trkpt>
      <trkpt lat="62.30782" lon="5.85183">
        <ele>69.445877</ele>
        <time>2020-07-30T12:14:21.436Z</time>
      </trkpt>
      <trkpt lat="62.30786" lon="5.85157">
        <ele>69.18308</ele>
        <time>2020-07-30T12:14:24.399Z</time>
      </trkpt>
      <trkpt lat="62.30789" lon="5.85136">
        <ele>68.959546</ele>
        <time>2020-07-30T12:14:27.398Z</time>
      </trkpt>
      <trkpt lat="62.30795" lon="5.85114">
        <ele>68.712044</ele>
        <time>2020-07-30T12:14:30.388Z</time>
      </trkpt>
      <trkpt lat="62.30802" lon="5.85094">
        <ele>68.468453</ele>
        <time>2020-07-30T12:14:33.435Z</time>
      </trkpt>
      <trkpt lat="62.30809" lon="5.85077">
        <ele>68.237026</ele>
        <time>2020-07-30T12:14:36.448Z</time>
      </trkpt>
      <trkpt lat="62.30817" lon="5.85065">
        <ele>68.026873</ele>
        <time>2020-07-30T12:14:39.421Z</time>
      </trkpt>
      <trkpt lat="62.30827" lon="5.85051">
        <ele>67.776321</ele>
        <time>2020-07-30T12:14:43.440Z</time>
      </trkpt>
      <trkpt lat="62.30836" lon="5.85044">
        <ele>67.57708</ele>
        <time>2020-07-30T12:14:46.398Z</time>
      </trkpt>
      <trkpt lat="62.30846" lon="5.85039">
        <ele>67.367121</ele>
        <time>2020-07-30T12:14:49.400Z</time>
      </trkpt>
      <trkpt lat="62.30855" lon="5.85035">
        <ele>67.160204</ele>
        <time>2020-07-30T12:14:52.426Z</time>
      </trkpt>
      <trkpt lat="62.30864" lon="5.8503">
        <ele>66.967181</ele>
        <time>2020-07-30T12:14:55.397Z</time>
      </trkpt>
      <trkpt lat="62.30873" lon="5.85024">
        <ele>66.722422</ele>
        <time>2020-07-30T12:14:58.427Z</time>
      </trkpt>
      <trkpt lat="62.30883" lon="5.8502">
        <ele>66.461265</ele>
        <time>2020-07-30T12:15:01.400Z</time>
      </trkpt>
      <trkpt lat="62.30892" lon="5.85016">
        <ele>66.204248</ele>
        <time>2020-07-30T12:15:04.378Z</time>
      </trkpt>
      <trkpt lat="62.30901" lon="5.85013">
        <ele>65.954264</ele>
        <time>2020-07-30T12:15:07.425Z</time>
      </trkpt>
      <trkpt lat="62.30911" lon="5.8501">
        <ele>65.679403</ele>
        <time>2020-07-30T12:15:10.416Z</time>
      </trkpt>
      <trkpt lat="62.30923" lon="5.85008">
        <ele>65.353215</ele>
        <time>2020-07-30T12:15:13.433Z</time>
      </trkpt>
      <trkpt lat="62.30932" lon="5.85006">
        <ele>65.101438</ele>
        <time>2020-07-30T12:15:15.407Z</time>
      </trkpt>
      <trkpt lat="62.30941" lon="5.85004">
        <ele>64.841454</ele>
        <time>2020-07-30T12:15:17.398Z</time>
      </trkpt>
      <trkpt lat="62.3095" lon="5.85002">
        <ele>64.587199</ele>
        <time>2020-07-30T12:15:19.386Z</time>
      </trkpt>
      <trkpt lat="62.30963" lon="5.85003">
        <ele>64.226673</ele>
        <time>2020-07-30T12:15:22.391Z</time>
      </trkpt>
      <trkpt lat="62.30975" lon="5.85007">
        <ele>63.896306</ele>
        <time>2020-07-30T12:15:25.400Z</time>
      </trkpt>
      <trkpt lat="62.30986" lon="5.85018">
        <ele>63.574753</ele>
        <time>2020-07-30T12:15:28.408Z</time>
      </trkpt>
      <trkpt lat="62.30997" lon="5.85028">
        <ele>63.251235</ele>
        <time>2020-07-30T12:15:31.404Z</time>
      </trkpt>
      <trkpt lat="62.31007" lon="5.8504">
        <ele>62.925383</ele>
        <time>2020-07-30T12:15:34.388Z</time>
      </trkpt>
      <trkpt lat="62.31017" lon="5.85053">
        <ele>62.605298</ele>
        <time>2020-07-30T12:15:37.410Z</time>
      </trkpt>
      <trkpt lat="62.31026" lon="5.85067">
        <ele>62.296658</ele>
        <time>2020-07-30T12:15:40.397Z</time>
      </trkpt>
      <trkpt lat="62.31034" lon="5.85085">
        <ele>61.991389</ele>
        <time>2020-07-30T12:15:43.454Z</time>
      </trkpt>
      <trkpt lat="62.3104" lon="5.85104">
        <ele>62.010764</ele>
        <time>2020-07-30T12:15:46.424Z</time>
      </trkpt>
      <trkpt lat="62.31044" lon="5.85125">
        <ele>62.096908</ele>
        <time>2020-07-30T12:15:49.402Z</time>
      </trkpt>
      <trkpt lat="62.31048" lon="5.85148">
        <ele>62.186884</ele>
        <time>2020-07-30T12:15:52.406Z</time>
      </trkpt>
      <trkpt lat="62.31049" lon="5.85169">
        <ele>62.265331</ele>
        <time>2020-07-30T12:15:55.388Z</time>
      </trkpt>
      <trkpt lat="62.3105" lon="5.8519">
        <ele>62.345422</ele>
        <time>2020-07-30T12:15:58.407Z</time>
      </trkpt>
      <trkpt lat="62.31049" lon="5.8521">
        <ele>62.420901</ele>
        <time>2020-07-30T12:16:01.431Z</time>
      </trkpt>
      <trkpt lat="62.31048" lon="5.85235">
        <ele>62.514845</ele>
        <time>2020-07-30T12:16:05.397Z</time>
      </trkpt>
      <trkpt lat="62.31047" lon="5.85257">
        <ele>62.596897</ele>
        <time>2020-07-30T12:16:08.397Z</time>
      </trkpt>
      <trkpt lat="62.31046" lon="5.85279">
        <ele>62.679076</ele>
        <time>2020-07-30T12:16:11.386Z</time>
      </trkpt>
      <trkpt lat="62.31047" lon="5.85302">
        <ele>62.765061</ele>
        <time>2020-07-30T12:16:14.388Z</time>
      </trkpt>
      <trkpt lat="62.31048" lon="5.85326">
        <ele>62.855434</ele>
        <time>2020-07-30T12:16:17.409Z</time>
      </trkpt>
      <trkpt lat="62.3105" lon="5.8535">
        <ele>62.946504</ele>
        <time>2020-07-30T12:16:20.380Z</time>
      </trkpt>
      <trkpt lat="62.31053" lon="5.85376">
        <ele>63.047039</ele>
        <time>2020-07-30T12:16:23.409Z</time>
      </trkpt>
      <trkpt lat="62.31057" lon="5.85398">
        <ele>63.1386</ele>
        <time>2020-07-30T12:16:26.378Z</time>
      </trkpt>
      <trkpt lat="62.31062" lon="5.85419">
        <ele>63.224148</ele>
        <time>2020-07-30T12:16:29.387Z</time>
      </trkpt>
      <trkpt lat="62.31068" lon="5.85443">
        <ele>63.325263</ele>
        <time>2020-07-30T12:16:32.395Z</time>
      </trkpt>
      <trkpt lat="62.31073" lon="5.8546">
        <ele>63.389071</ele>
        <time>2020-07-30T12:16:34.410Z</time>
      </trkpt>
      <trkpt lat="62.31079" lon="5.85479">
        <ele>63.414285</ele>
        <time>2020-07-30T12:16:36.389Z</time>
      </trkpt>
      <trkpt lat="62.31087" lon="5.85497">
        <ele>63.440767</ele>
        <time>2020-07-30T12:16:38.396Z</time>
      </trkpt>
      <trkpt lat="62.31095" lon="5.85516">
        <ele>63.468742</ele>
        <time>2020-07-30T12:16:40.388Z</time>
      </trkpt>
      <trkpt lat="62.31103" lon="5.85532">
        <ele>63.492792</ele>
        <time>2020-07-30T12:16:42.407Z</time>
      </trkpt>
      <trkpt lat="62.31111" lon="5.85546">
        <ele>63.516447</ele>
        <time>2020-07-30T12:16:44.397Z</time>
      </trkpt>
      <trkpt lat="62.31117" lon="5.85559">
        <ele>63.537248</ele>
        <time>2020-07-30T12:16:46.394Z</time>
      </trkpt>
      <trkpt lat="62.31126" lon="5.85575">
        <ele>63.564488</ele>
        <time>2020-07-30T12:16:49.389Z</time>
      </trkpt>
      <trkpt lat="62.31134" lon="5.8559">
        <ele>63.587642</ele>
        <time>2020-07-30T12:16:52.400Z</time>
      </trkpt>
      <trkpt lat="62.31142" lon="5.85608">
        <ele>63.615188</ele>
        <time>2020-07-30T12:16:56.408Z</time>
      </trkpt>
      <trkpt lat="62.31149" lon="5.85624">
        <ele>63.639081</ele>
        <time>2020-07-30T12:16:59.393Z</time>
      </trkpt>
      <trkpt lat="62.31156" lon="5.8564">
        <ele>63.661908</ele>
        <time>2020-07-30T12:17:02.407Z</time>
      </trkpt>
      <trkpt lat="62.31161" lon="5.85655">
        <ele>63.683028</ele>
        <time>2020-07-30T12:17:05.399Z</time>
      </trkpt>
      <trkpt lat="62.31169" lon="5.85676">
        <ele>63.71091</ele>
        <time>2020-07-30T12:17:09.396Z</time>
      </trkpt>
      <trkpt lat="62.31177" lon="5.85694">
        <ele>63.737866</ele>
        <time>2020-07-30T12:17:13.416Z</time>
      </trkpt>
      <trkpt lat="62.31183" lon="5.85711">
        <ele>63.760938</ele>
        <time>2020-07-30T12:17:17.393Z</time>
      </trkpt>
      <trkpt lat="62.31189" lon="5.85727">
        <ele>63.782415</ele>
        <time>2020-07-30T12:17:21.406Z</time>
      </trkpt>
      <trkpt lat="62.31196" lon="5.85743">
        <ele>63.845635</ele>
        <time>2020-07-30T12:17:25.385Z</time>
      </trkpt>
      <trkpt lat="62.31203" lon="5.85763">
        <ele>64.054579</ele>
        <time>2020-07-30T12:17:29.389Z</time>
      </trkpt>
      <trkpt lat="62.3121" lon="5.85778">
        <ele>64.232062</ele>
        <time>2020-07-30T12:17:32.400Z</time>
      </trkpt>
      <trkpt lat="62.31218" lon="5.85794">
        <ele>64.428871</ele>
        <time>2020-07-30T12:17:35.387Z</time>
      </trkpt>
      <trkpt lat="62.31227" lon="5.85814">
        <ele>64.66498</ele>
        <time>2020-07-30T12:17:38.399Z</time>
      </trkpt>
      <trkpt lat="62.31234" lon="5.85828">
        <ele>64.837181</ele>
        <time>2020-07-30T12:17:40.403Z</time>
      </trkpt>
      <trkpt lat="62.31242" lon="5.85841">
        <ele>65.011534</ele>
        <time>2020-07-30T12:17:42.411Z</time>
      </trkpt>
      <trkpt lat="62.3125" lon="5.85854">
        <ele>65.191998</ele>
        <time>2020-07-30T12:17:44.398Z</time>
      </trkpt>
      <trkpt lat="62.31257" lon="5.85868">
        <ele>65.369031</ele>
        <time>2020-07-30T12:17:46.404Z</time>
      </trkpt>
      <trkpt lat="62.31265" lon="5.8588">
        <ele>65.538204</ele>
        <time>2020-07-30T12:17:48.398Z</time>
      </trkpt>
      <trkpt lat="62.31272" lon="5.85891">
        <ele>65.702645</ele>
        <time>2020-07-30T12:17:50.477Z</time>
      </trkpt>
      <trkpt lat="62.3128" lon="5.85903">
        <ele>65.871273</ele>
        <time>2020-07-30T12:17:52.403Z</time>
      </trkpt>
      <trkpt lat="62.31287" lon="5.85915">
        <ele>66.03324</ele>
        <time>2020-07-30T12:17:54.400Z</time>
      </trkpt>
      <trkpt lat="62.31297" lon="5.8593">
        <ele>66.249003</ele>
        <time>2020-07-30T12:17:57.399Z</time>
      </trkpt>
      <trkpt lat="62.31307" lon="5.85944">
        <ele>66.458942</ele>
        <time>2020-07-30T12:18:00.384Z</time>
      </trkpt>
      <trkpt lat="62.31316" lon="5.85956">
        <ele>66.647433</ele>
        <time>2020-07-30T12:18:03.422Z</time>
      </trkpt>
      <trkpt lat="62.31325" lon="5.8597">
        <ele>66.85105</ele>
        <time>2020-07-30T12:18:07.386Z</time>
      </trkpt>
      <trkpt lat="62.31333" lon="5.85984">
        <ele>67.032149</ele>
        <time>2020-07-30T12:18:11.407Z</time>
      </trkpt>
      <trkpt lat="62.31343" lon="5.85996">
        <ele>67.107372</ele>
        <time>2020-07-30T12:18:16.399Z</time>
      </trkpt>
      <trkpt lat="62.31351" lon="5.86008">
        <ele>67.175342</ele>
        <time>2020-07-30T12:18:22.431Z</time>
      </trkpt>
      <trkpt lat="62.31359" lon="5.86017">
        <ele>67.240408</ele>
        <time>2020-07-30T12:18:28.392Z</time>
      </trkpt>
      <trkpt lat="62.31368" lon="5.86028">
        <ele>67.307655</ele>
        <time>2020-07-30T12:18:34.403Z</time>
      </trkpt>
      <trkpt lat="62.31377" lon="5.86037">
        <ele>67.378861</ele>
        <time>2020-07-30T12:18:40.400Z</time>
      </trkpt>
      <trkpt lat="62.31386" lon="5.86047">
        <ele>67.446645</ele>
        <time>2020-07-30T12:18:46.414Z</time>
      </trkpt>
      <trkpt lat="62.31395" lon="5.86051">
        <ele>67.510146</ele>
        <time>2020-07-30T12:18:52.394Z</time>
      </trkpt>
      <trkpt lat="62.31404" lon="5.86054">
        <ele>67.572837</ele>
        <time>2020-07-30T12:18:58.420Z</time>
      </trkpt>
      <trkpt lat="62.31414" lon="5.86048">
        <ele>67.643522</ele>
        <time>2020-07-30T12:19:03.377Z</time>
      </trkpt>
      <trkpt lat="62.31426" lon="5.86037">
        <ele>67.734928</ele>
        <time>2020-07-30T12:19:06.386Z</time>
      </trkpt>
      <trkpt lat="62.31437" lon="5.86027">
        <ele>67.816113</ele>
        <time>2020-07-30T12:19:09.417Z</time>
      </trkpt>
      <trkpt lat="62.31446" lon="5.86021">
        <ele>67.883513</ele>
        <time>2020-07-30T12:19:11.392Z</time>
      </trkpt>
      <trkpt lat="62.31456" lon="5.86012">
        <ele>67.959212</ele>
        <time>2020-07-30T12:19:13.388Z</time>
      </trkpt>
      <trkpt lat="62.31467" lon="5.86004">
        <ele>68.036624</ele>
        <time>2020-07-30T12:19:15.381Z</time>
      </trkpt>
      <trkpt lat="62.31476" lon="5.85996">
        <ele>68.10418</ele>
        <time>2020-07-30T12:19:17.441Z</time>
      </trkpt>
      <trkpt lat="62.31488" lon="5.85988">
        <ele>68.190151</ele>
        <time>2020-07-30T12:19:20.399Z</time>
      </trkpt>
      <trkpt lat="62.31497" lon="5.85981">
        <ele>68.256501</ele>
        <time>2020-07-30T12:19:22.411Z</time>
      </trkpt>
      <trkpt lat="62.31508" lon="5.85972">
        <ele>67.947204</ele>
        <time>2020-07-30T12:19:24.446Z</time>
      </trkpt>
      <trkpt lat="62.31519" lon="5.85961">
        <ele>67.568438</ele>
        <time>2020-07-30T12:19:26.429Z</time>
      </trkpt>
      <trkpt lat="62.31531" lon="5.85947">
        <ele>67.164829</ele>
        <time>2020-07-30T12:19:28.396Z</time>
      </trkpt>
      <trkpt lat="62.31542" lon="5.85932">
        <ele>66.761339</ele>
        <time>2020-07-30T12:19:30.402Z</time>
      </trkpt>
      <trkpt lat="62.31551" lon="5.85915">
        <ele>66.394328</ele>
        <time>2020-07-30T12:19:32.405Z</time>
      </trkpt>
      <trkpt lat="62.3156" lon="5.85899">
        <ele>66.059051</ele>
        <time>2020-07-30T12:19:34.410Z</time>
      </trkpt>
      <trkpt lat="62.31566" lon="5.85885">
        <ele>65.769137</ele>
        <time>2020-07-30T12:19:36.413Z</time>
      </trkpt>
      <trkpt lat="62.31574" lon="5.85865">
        <ele>65.412172</ele>
        <time>2020-07-30T12:19:39.404Z</time>
      </trkpt>
      <trkpt lat="62.31579" lon="5.85848">
        <ele>65.133652</ele>
        <time>2020-07-30T12:19:42.405Z</time>
      </trkpt>
      <trkpt lat="62.31584" lon="5.85831">
        <ele>64.853586</ele>
        <time>2020-07-30T12:19:45.406Z</time>
      </trkpt>
      <trkpt lat="62.31589" lon="5.8581">
        <ele>64.518569</ele>
        <time>2020-07-30T12:19:49.436Z</time>
      </trkpt>
      <trkpt lat="62.31594" lon="5.8579">
        <ele>64.194905</ele>
        <time>2020-07-30T12:19:54.432Z</time>
      </trkpt>
      <trkpt lat="62.31599" lon="5.8577">
        <ele>63.872887</ele>
        <time>2020-07-30T12:19:58.389Z</time>
      </trkpt>
      <trkpt lat="62.31604" lon="5.85753">
        <ele>63.58859</ele>
        <time>2020-07-30T12:20:01.411Z</time>
      </trkpt>
      <trkpt lat="62.31609" lon="5.85734">
        <ele>63.28453</ele>
        <time>2020-07-30T12:20:04.416Z</time>
      </trkpt>
      <trkpt lat="62.31614" lon="5.85716">
        <ele>62.976505</ele>
        <time>2020-07-30T12:20:07.434Z</time>
      </trkpt>
      <trkpt lat="62.3162" lon="5.85698">
        <ele>62.817727</ele>
        <time>2020-07-30T12:20:10.386Z</time>
      </trkpt>
      <trkpt lat="62.31626" lon="5.8568">
        <ele>62.829717</ele>
        <time>2020-07-30T12:20:14.423Z</time>
      </trkpt>
      <trkpt lat="62.31633" lon="5.85663">
        <ele>62.841807</ele>
        <time>2020-07-30T12:20:18.408Z</time>
      </trkpt>
      <trkpt lat="62.31641" lon="5.85651">
        <ele>62.852718</ele>
        <time>2020-07-30T12:20:22.418Z</time>
      </trkpt>
      <trkpt lat="62.31649" lon="5.85642">
        <ele>62.863114</ele>
        <time>2020-07-30T12:20:26.417Z</time>
      </trkpt>
      <trkpt lat="62.31661" lon="5.85634">
        <ele>62.876679</ele>
        <time>2020-07-30T12:20:30.417Z</time>
      </trkpt>
      <trkpt lat="62.31672" lon="5.85626">
        <ele>62.890085</ele>
        <time>2020-07-30T12:20:34.400Z</time>
      </trkpt>
      <trkpt lat="62.31681" lon="5.85623">
        <ele>62.900621</ele>
        <time>2020-07-30T12:20:41.425Z</time>
      </trkpt>
      <trkpt lat="62.31691" lon="5.85626">
        <ele>62.912108</ele>
        <time>2020-07-30T12:20:45.425Z</time>
      </trkpt>
      <trkpt lat="62.317" lon="5.85636">
        <ele>62.923028</ele>
        <time>2020-07-30T12:20:48.402Z</time>
      </trkpt>
      <trkpt lat="62.31707" lon="5.8565">
        <ele>62.934454</ele>
        <time>2020-07-30T12:20:51.420Z</time>
      </trkpt>
      <trkpt lat="62.31714" lon="5.85664">
        <ele>62.945633</ele>
        <time>2020-07-30T12:20:54.404Z</time>
      </trkpt>
      <trkpt lat="62.3172" lon="5.85681">
        <ele>62.956372</ele>
        <time>2020-07-30T12:20:57.442Z</time>
      </trkpt>
      <trkpt lat="62.31726" lon="5.85697">
        <ele>62.967335</ele>
        <time>2020-07-30T12:21:00.440Z</time>
      </trkpt>
      <trkpt lat="62.31732" lon="5.85712">
        <ele>62.978157</ele>
        <time>2020-07-30T12:21:03.390Z</time>
      </trkpt>
      <trkpt lat="62.31738" lon="5.85728">
        <ele>62.988925</ele>
        <time>2020-07-30T12:21:06.399Z</time>
      </trkpt>
      <trkpt lat="62.31744" lon="5.85745">
        <ele>62.99965</ele>
        <time>2020-07-30T12:21:09.384Z</time>
      </trkpt>
      <trkpt lat="62.31749" lon="5.85761">
        <ele>63.010432</ele>
        <time>2020-07-30T12:21:12.415Z</time>
      </trkpt>
      <trkpt lat="62.31756" lon="5.85781">
        <ele>62.922029</ele>
        <time>2020-07-30T12:21:15.393Z</time>
      </trkpt>
      <trkpt lat="62.31763" lon="5.85803">
        <ele>62.699909</ele>
        <time>2020-07-30T12:21:18.399Z</time>
      </trkpt>
      <trkpt lat="62.31771" lon="5.85827">
        <ele>62.461518</ele>
        <time>2020-07-30T12:21:21.404Z</time>
      </trkpt>
      <trkpt lat="62.31776" lon="5.85844">
        <ele>62.293111</ele>
        <time>2020-07-30T12:21:23.408Z</time>
      </trkpt>
      <trkpt lat="62.31781" lon="5.85862">
        <ele>62.113221</ele>
        <time>2020-07-30T12:21:25.404Z</time>
      </trkpt>
      <trkpt lat="62.31787" lon="5.85882">
        <ele>61.920586</ele>
        <time>2020-07-30T12:21:27.420Z</time>
      </trkpt>
      <trkpt lat="62.31793" lon="5.85899">
        <ele>61.73802</ele>
        <time>2020-07-30T12:21:29.395Z</time>
      </trkpt>
      <trkpt lat="62.318" lon="5.85915">
        <ele>61.561092</ele>
        <time>2020-07-30T12:21:31.424Z</time>
      </trkpt>
      <trkpt lat="62.31806" lon="5.85932">
        <ele>61.378711</ele>
        <time>2020-07-30T12:21:33.400Z</time>
      </trkpt>
      <trkpt lat="62.31814" lon="5.85948">
        <ele>61.187972</ele>
        <time>2020-07-30T12:21:35.403Z</time>
      </trkpt>
      <trkpt lat="62.31821" lon="5.85962">
        <ele>61.013273</ele>
        <time>2020-07-30T12:21:37.402Z</time>
      </trkpt>
      <trkpt lat="62.31831" lon="5.8598">
        <ele>60.78103</ele>
        <time>2020-07-30T12:21:40.400Z</time>
      </trkpt>
      <trkpt lat="62.31841" lon="5.85997">
        <ele>60.562807</ele>
        <time>2020-07-30T12:21:43.399Z</time>
      </trkpt>
      <trkpt lat="62.3185" lon="5.86013">
        <ele>60.357599</ele>
        <time>2020-07-30T12:21:46.391Z</time>
      </trkpt>
      <trkpt lat="62.31858" lon="5.86029">
        <ele>60.15536</ele>
        <time>2020-07-30T12:21:49.426Z</time>
      </trkpt>
      <trkpt lat="62.31867" lon="5.86044">
        <ele>59.955266</ele>
        <time>2020-07-30T12:21:52.406Z</time>
      </trkpt>
      <trkpt lat="62.31876" lon="5.86058">
        <ele>59.787399</ele>
        <time>2020-07-30T12:21:55.423Z</time>
      </trkpt>
      <trkpt lat="62.31884" lon="5.86072">
        <ele>59.692103</ele>
        <time>2020-07-30T12:21:58.396Z</time>
      </trkpt>
      <trkpt lat="62.31893" lon="5.86087">
        <ele>59.594204</ele>
        <time>2020-07-30T12:22:01.417Z</time>
      </trkpt>
      <trkpt lat="62.31902" lon="5.86101">
        <ele>59.493559</ele>
        <time>2020-07-30T12:22:04.402Z</time>
      </trkpt>
      <trkpt lat="62.3191" lon="5.86118">
        <ele>59.388994</ele>
        <time>2020-07-30T12:22:07.421Z</time>
      </trkpt>
      <trkpt lat="62.3192" lon="5.86135">
        <ele>59.280894</ele>
        <time>2020-07-30T12:22:10.401Z</time>
      </trkpt>
      <trkpt lat="62.31928" lon="5.86154">
        <ele>59.17192</ele>
        <time>2020-07-30T12:22:13.401Z</time>
      </trkpt>
      <trkpt lat="62.31935" lon="5.86175">
        <ele>59.064603</ele>
        <time>2020-07-30T12:22:16.406Z</time>
      </trkpt>
      <trkpt lat="62.3194" lon="5.86198">
        <ele>58.955774</ele>
        <time>2020-07-30T12:22:19.441Z</time>
      </trkpt>
      <trkpt lat="62.31946" lon="5.86223">
        <ele>58.837458</ele>
        <time>2020-07-30T12:22:22.401Z</time>
      </trkpt>
      <trkpt lat="62.3195" lon="5.86242">
        <ele>58.751423</ele>
        <time>2020-07-30T12:22:24.402Z</time>
      </trkpt>
      <trkpt lat="62.31955" lon="5.86261">
        <ele>58.664242</ele>
        <time>2020-07-30T12:22:26.396Z</time>
      </trkpt>
      <trkpt lat="62.31958" lon="5.86278">
        <ele>58.583126</ele>
        <time>2020-07-30T12:22:28.414Z</time>
      </trkpt>
      <trkpt lat="62.31964" lon="5.86303">
        <ele>58.468307</ele>
        <time>2020-07-30T12:22:31.402Z</time>
      </trkpt>
      <trkpt lat="62.31969" lon="5.86326">
        <ele>58.360258</ele>
        <time>2020-07-30T12:22:34.435Z</time>
      </trkpt>
      <trkpt lat="62.31975" lon="5.86351">
        <ele>58.246436</ele>
        <time>2020-07-30T12:22:37.397Z</time>
      </trkpt>
      <trkpt lat="62.31981" lon="5.86375">
        <ele>58.418944</ele>
        <time>2020-07-30T12:22:40.389Z</time>
      </trkpt>
      <trkpt lat="62.31987" lon="5.86399">
        <ele>58.778361</ele>
        <time>2020-07-30T12:22:43.389Z</time>
      </trkpt>
      <trkpt lat="62.31993" lon="5.86419">
        <ele>59.09209</ele>
        <time>2020-07-30T12:22:46.403Z</time>
      </trkpt>
      <trkpt lat="62.32" lon="5.86436">
        <ele>59.391153</ele>
        <time>2020-07-30T12:22:49.391Z</time>
      </trkpt>
      <trkpt lat="62.32007" lon="5.86452">
        <ele>59.687886</ele>
        <time>2020-07-30T12:22:52.408Z</time>
      </trkpt>
      <trkpt lat="62.32013" lon="5.86469">
        <ele>59.983896</ele>
        <time>2020-07-30T12:22:55.417Z</time>
      </trkpt>
      <trkpt lat="62.32022" lon="5.86485">
        <ele>60.308244</ele>
        <time>2020-07-30T12:22:58.407Z</time>
      </trkpt>
      <trkpt lat="62.3203" lon="5.86503">
        <ele>60.649114</ele>
        <time>2020-07-30T12:23:01.415Z</time>
      </trkpt>
      <trkpt lat="62.32038" lon="5.86522">
        <ele>60.985874</ele>
        <time>2020-07-30T12:23:04.414Z</time>
      </trkpt>
      <trkpt lat="62.32046" lon="5.8654">
        <ele>61.306021</ele>
        <time>2020-07-30T12:23:07.409Z</time>
      </trkpt>
      <trkpt lat="62.32055" lon="5.86556">
        <ele>61.653365</ele>
        <time>2020-07-30T12:23:11.408Z</time>
      </trkpt>
      <trkpt lat="62.32067" lon="5.86566">
        <ele>62.016006</ele>
        <time>2020-07-30T12:23:14.386Z</time>
      </trkpt>
      <trkpt lat="62.32076" lon="5.8657">
        <ele>62.283501</ele>
        <time>2020-07-30T12:23:16.400Z</time>
      </trkpt>
      <trkpt lat="62.32085" lon="5.86574">
        <ele>62.553231</ele>
        <time>2020-07-30T12:23:18.394Z</time>
      </trkpt>
      <trkpt lat="62.32098" lon="5.86581">
        <ele>62.924529</ele>
        <time>2020-07-30T12:23:21.392Z</time>
      </trkpt>
      <trkpt lat="62.3211" lon="5.86587">
        <ele>63.287459</ele>
        <time>2020-07-30T12:23:24.386Z</time>
      </trkpt>
      <trkpt lat="62.32122" lon="5.86594">
        <ele>63.623037</ele>
        <time>2020-07-30T12:23:27.425Z</time>
      </trkpt>
      <trkpt lat="62.32133" lon="5.86598">
        <ele>63.947085</ele>
        <time>2020-07-30T12:23:30.419Z</time>
      </trkpt>
      <trkpt lat="62.32145" lon="5.86603">
        <ele>64.281062</ele>
        <time>2020-07-30T12:23:33.388Z</time>
      </trkpt>
      <trkpt lat="62.32157" lon="5.8661">
        <ele>64.639984</ele>
        <time>2020-07-30T12:23:36.396Z</time>
      </trkpt>
      <trkpt lat="62.32169" lon="5.86615">
        <ele>64.9942</ele>
        <time>2020-07-30T12:23:39.393Z</time>
      </trkpt>
      <trkpt lat="62.32182" lon="5.8662">
        <ele>65.35798</ele>
        <time>2020-07-30T12:23:42.384Z</time>
      </trkpt>
      <trkpt lat="62.32195" lon="5.86625">
        <ele>65.725203</ele>
        <time>2020-07-30T12:23:45.388Z</time>
      </trkpt>
      <trkpt lat="62.32207" lon="5.8663">
        <ele>66.067672</ele>
        <time>2020-07-30T12:23:48.414Z</time>
      </trkpt>
      <trkpt lat="62.32218" lon="5.86635">
        <ele>66.379708</ele>
        <time>2020-07-30T12:23:51.405Z</time>
      </trkpt>
      <trkpt lat="62.3223" lon="5.86637">
        <ele>66.710832</ele>
        <time>2020-07-30T12:23:54.405Z</time>
      </trkpt>
      <trkpt lat="62.32242" lon="5.86636">
        <ele>67.061359</ele>
        <time>2020-07-30T12:23:57.409Z</time>
      </trkpt>
      <trkpt lat="62.32256" lon="5.86634">
        <ele>67.434187</ele>
        <time>2020-07-30T12:24:00.405Z</time>
      </trkpt>
      <trkpt lat="62.32265" lon="5.86632">
        <ele>67.69088</ele>
        <time>2020-07-30T12:24:02.411Z</time>
      </trkpt>
      <trkpt lat="62.32278" lon="5.86629">
        <ele>68.053523</ele>
        <time>2020-07-30T12:24:05.406Z</time>
      </trkpt>
      <trkpt lat="62.32288" lon="5.86625">
        <ele>68.346564</ele>
        <time>2020-07-30T12:24:08.430Z</time>
      </trkpt>
      <trkpt lat="62.32298" lon="5.86621">
        <ele>68.68292</ele>
        <time>2020-07-30T12:24:11.395Z</time>
      </trkpt>
      <trkpt lat="62.3231" lon="5.86613">
        <ele>69.136462</ele>
        <time>2020-07-30T12:24:14.407Z</time>
      </trkpt>
      <trkpt lat="62.3232" lon="5.86608">
        <ele>69.510347</ele>
        <time>2020-07-30T12:24:16.401Z</time>
      </trkpt>
      <trkpt lat="62.32331" lon="5.86603">
        <ele>69.922483</ele>
        <time>2020-07-30T12:24:18.461Z</time>
      </trkpt>
      <trkpt lat="62.32343" lon="5.86597">
        <ele>70.352263</ele>
        <time>2020-07-30T12:24:20.398Z</time>
      </trkpt>
      <trkpt lat="62.32355" lon="5.86592">
        <ele>70.784408</ele>
        <time>2020-07-30T12:24:22.389Z</time>
      </trkpt>
      <trkpt lat="62.32367" lon="5.86589">
        <ele>71.209479</ele>
        <time>2020-07-30T12:24:24.401Z</time>
      </trkpt>
      <trkpt lat="62.32379" lon="5.86586">
        <ele>71.618018</ele>
        <time>2020-07-30T12:24:26.403Z</time>
      </trkpt>
      <trkpt lat="62.32389" lon="5.86582">
        <ele>72.005496</ele>
        <time>2020-07-30T12:24:28.419Z</time>
      </trkpt>
      <trkpt lat="62.32399" lon="5.8658">
        <ele>72.352496</ele>
        <time>2020-07-30T12:24:30.430Z</time>
      </trkpt>
      <trkpt lat="62.32409" lon="5.86576">
        <ele>72.703911</ele>
        <time>2020-07-30T12:24:32.410Z</time>
      </trkpt>
      <trkpt lat="62.32422" lon="5.86571">
        <ele>73.183782</ele>
        <time>2020-07-30T12:24:35.406Z</time>
      </trkpt>
      <trkpt lat="62.32435" lon="5.86568">
        <ele>73.65822</ele>
        <time>2020-07-30T12:24:38.385Z</time>
      </trkpt>
      <trkpt lat="62.32448" lon="5.86564">
        <ele>74.103556</ele>
        <time>2020-07-30T12:24:41.424Z</time>
      </trkpt>
      <trkpt lat="62.3246" lon="5.86559">
        <ele>74.549964</ele>
        <time>2020-07-30T12:24:44.394Z</time>
      </trkpt>
      <trkpt lat="62.32471" lon="5.86557">
        <ele>74.708097</ele>
        <time>2020-07-30T12:24:47.401Z</time>
      </trkpt>
      <trkpt lat="62.32484" lon="5.86554">
        <ele>74.538411</ele>
        <time>2020-07-30T12:24:51.392Z</time>
      </trkpt>
      <trkpt lat="62.32495" lon="5.8655">
        <ele>74.372608</ele>
        <time>2020-07-30T12:24:54.407Z</time>
      </trkpt>
      <trkpt lat="62.32507" lon="5.86547">
        <ele>74.216563</ele>
        <time>2020-07-30T12:24:57.387Z</time>
      </trkpt>
      <trkpt lat="62.32519" lon="5.86544">
        <ele>74.048322</ele>
        <time>2020-07-30T12:25:00.428Z</time>
      </trkpt>
      <trkpt lat="62.32528" lon="5.86543">
        <ele>73.923416</ele>
        <time>2020-07-30T12:25:02.410Z</time>
      </trkpt>
      <trkpt lat="62.32537" lon="5.8654">
        <ele>73.795107</ele>
        <time>2020-07-30T12:25:04.390Z</time>
      </trkpt>
      <trkpt lat="62.32546" lon="5.86538">
        <ele>73.668492</ele>
        <time>2020-07-30T12:25:06.394Z</time>
      </trkpt>
      <trkpt lat="62.32559" lon="5.86536">
        <ele>73.484449</ele>
        <time>2020-07-30T12:25:09.384Z</time>
      </trkpt>
      <trkpt lat="62.32572" lon="5.86533">
        <ele>73.313163</ele>
        <time>2020-07-30T12:25:12.401Z</time>
      </trkpt>
      <trkpt lat="62.32584" lon="5.86532">
        <ele>73.145746</ele>
        <time>2020-07-30T12:25:15.417Z</time>
      </trkpt>
      <trkpt lat="62.32596" lon="5.8653">
        <ele>72.978297</ele>
        <time>2020-07-30T12:25:18.384Z</time>
      </trkpt>
      <trkpt lat="62.32608" lon="5.86528">
        <ele>72.805085</ele>
        <time>2020-07-30T12:25:21.408Z</time>
      </trkpt>
      <trkpt lat="62.3262" lon="5.86525">
        <ele>72.638069</ele>
        <time>2020-07-30T12:25:24.414Z</time>
      </trkpt>
      <trkpt lat="62.32631" lon="5.86521">
        <ele>72.484218</ele>
        <time>2020-07-30T12:25:27.401Z</time>
      </trkpt>
      <trkpt lat="62.32641" lon="5.86517">
        <ele>72.343173</ele>
        <time>2020-07-30T12:25:30.398Z</time>
      </trkpt>
      <trkpt lat="62.32653" lon="5.86513">
        <ele>72.542424</ele>
        <time>2020-07-30T12:25:34.396Z</time>
      </trkpt>
      <trkpt lat="62.32663" lon="5.8651">
        <ele>72.890079</ele>
        <time>2020-07-30T12:25:38.388Z</time>
      </trkpt>
      <trkpt lat="62.32673" lon="5.86505">
        <ele>73.234751</ele>
        <time>2020-07-30T12:25:42.399Z</time>
      </trkpt>
      <trkpt lat="62.32682" lon="5.86501">
        <ele>73.535583</ele>
        <time>2020-07-30T12:25:46.414Z</time>
      </trkpt>
      <trkpt lat="62.32692" lon="5.86498">
        <ele>73.875235</ele>
        <time>2020-07-30T12:25:50.420Z</time>
      </trkpt>
      <trkpt lat="62.32701" lon="5.86493">
        <ele>74.179661</ele>
        <time>2020-07-30T12:25:54.402Z</time>
      </trkpt>
      <trkpt lat="62.3271" lon="5.86488">
        <ele>74.511152</ele>
        <time>2020-07-30T12:25:59.397Z</time>
      </trkpt>
      <trkpt lat="62.32719" lon="5.86484">
        <ele>74.823455</ele>
        <time>2020-07-30T12:26:05.389Z</time>
      </trkpt>
      <trkpt lat="62.32729" lon="5.8648">
        <ele>75.140368</ele>
        <time>2020-07-30T12:26:11.451Z</time>
      </trkpt>
      <trkpt lat="62.32738" lon="5.86475">
        <ele>75.47037</ele>
        <time>2020-07-30T12:26:17.419Z</time>
      </trkpt>
      <trkpt lat="62.32748" lon="5.86471">
        <ele>75.784304</ele>
        <time>2020-07-30T12:26:24.399Z</time>
      </trkpt>
      <trkpt lat="62.32757" lon="5.86469">
        <ele>76.116374</ele>
        <time>2020-07-30T12:26:31.408Z</time>
      </trkpt>
      <trkpt lat="62.32767" lon="5.86467">
        <ele>76.426737</ele>
        <time>2020-07-30T12:26:38.410Z</time>
      </trkpt>
      <trkpt lat="62.32776" lon="5.86461">
        <ele>76.752962</ele>
        <time>2020-07-30T12:26:45.463Z</time>
      </trkpt>
      <trkpt lat="62.32788" lon="5.86456">
        <ele>77.155221</ele>
        <time>2020-07-30T12:26:49.396Z</time>
      </trkpt>
      <trkpt lat="62.328" lon="5.86448">
        <ele>77.569481</ele>
        <time>2020-07-30T12:26:52.432Z</time>
      </trkpt>
      <trkpt lat="62.32811" lon="5.86436">
        <ele>77.994599</ele>
        <time>2020-07-30T12:26:55.409Z</time>
      </trkpt>
      <trkpt lat="62.3282" lon="5.86425">
        <ele>78.304981</ele>
        <time>2020-07-30T12:26:57.419Z</time>
      </trkpt>
      <trkpt lat="62.3283" lon="5.86412">
        <ele>78.295726</ele>
        <time>2020-07-30T12:26:59.382Z</time>
      </trkpt>
      <trkpt lat="62.32843" lon="5.86396">
        <ele>78.285124</ele>
        <time>2020-07-30T12:27:01.411Z</time>
      </trkpt>
      <trkpt lat="62.32856" lon="5.86384">
        <ele>78.274643</ele>
        <time>2020-07-30T12:27:03.390Z</time>
      </trkpt>
      <trkpt lat="62.32868" lon="5.86372">
        <ele>78.264158</ele>
        <time>2020-07-30T12:27:05.419Z</time>
      </trkpt>
      <trkpt lat="62.32882" lon="5.86359">
        <ele>78.253471</ele>
        <time>2020-07-30T12:27:07.393Z</time>
      </trkpt>
      <trkpt lat="62.32894" lon="5.86348">
        <ele>78.243244</ele>
        <time>2020-07-30T12:27:09.383Z</time>
      </trkpt>
      <trkpt lat="62.32907" lon="5.86338">
        <ele>78.233357</ele>
        <time>2020-07-30T12:27:11.400Z</time>
      </trkpt>
      <trkpt lat="62.32918" lon="5.86329">
        <ele>78.224371</ele>
        <time>2020-07-30T12:27:13.444Z</time>
      </trkpt>
      <trkpt lat="62.32928" lon="5.86321">
        <ele>78.216377</ele>
        <time>2020-07-30T12:27:15.377Z</time>
      </trkpt>
      <trkpt lat="62.32937" lon="5.86315">
        <ele>78.209267</ele>
        <time>2020-07-30T12:27:17.401Z</time>
      </trkpt>
      <trkpt lat="62.3295" lon="5.86306">
        <ele>78.19958</ele>
        <time>2020-07-30T12:27:20.409Z</time>
      </trkpt>
      <trkpt lat="62.32961" lon="5.86296">
        <ele>78.190233</ele>
        <time>2020-07-30T12:27:23.398Z</time>
      </trkpt>
      <trkpt lat="62.32973" lon="5.86287">
        <ele>78.181139</ele>
        <time>2020-07-30T12:27:26.398Z</time>
      </trkpt>
      <trkpt lat="62.32983" lon="5.86279">
        <ele>78.17304</ele>
        <time>2020-07-30T12:27:29.406Z</time>
      </trkpt>
      <trkpt lat="62.32994" lon="5.86269">
        <ele>78.400885</ele>
        <time>2020-07-30T12:27:32.419Z</time>
      </trkpt>
      <trkpt lat="62.33006" lon="5.8626">
        <ele>78.672328</ele>
        <time>2020-07-30T12:27:35.401Z</time>
      </trkpt>
      <trkpt lat="62.33015" lon="5.86251">
        <ele>78.902288</ele>
        <time>2020-07-30T12:27:38.409Z</time>
      </trkpt>
      <trkpt lat="62.33024" lon="5.86243">
        <ele>79.111712</ele>
        <time>2020-07-30T12:27:41.415Z</time>
      </trkpt>
      <trkpt lat="62.33034" lon="5.86232">
        <ele>79.36659</ele>
        <time>2020-07-30T12:27:45.388Z</time>
      </trkpt>
      <trkpt lat="62.33044" lon="5.8622">
        <ele>79.610273</ele>
        <time>2020-07-30T12:27:48.403Z</time>
      </trkpt>
      <trkpt lat="62.33052" lon="5.86211">
        <ele>79.815815</ele>
        <time>2020-07-30T12:27:50.406Z</time>
      </trkpt>
      <trkpt lat="62.33061" lon="5.86203">
        <ele>80.043633</ele>
        <time>2020-07-30T12:27:52.397Z</time>
      </trkpt>
      <trkpt lat="62.33071" lon="5.86195">
        <ele>80.26624</ele>
        <time>2020-07-30T12:27:54.389Z</time>
      </trkpt>
      <trkpt lat="62.33082" lon="5.86187">
        <ele>80.525096</ele>
        <time>2020-07-30T12:27:57.406Z</time>
      </trkpt>
      <trkpt lat="62.3309" lon="5.86179">
        <ele>80.737156</ele>
        <time>2020-07-30T12:28:03.400Z</time>
      </trkpt>
      <trkpt lat="62.33099" lon="5.86168">
        <ele>80.958041</ele>
        <time>2020-07-30T12:28:10.412Z</time>
      </trkpt>
      <trkpt lat="62.33105" lon="5.8615">
        <ele>81.184816</ele>
        <time>2020-07-30T12:28:15.406Z</time>
      </trkpt>
      <trkpt lat="62.33111" lon="5.86136">
        <ele>81.386403</ele>
        <time>2020-07-30T12:28:20.395Z</time>
      </trkpt>
      <trkpt lat="62.33122" lon="5.86139">
        <ele>81.642665</ele>
        <time>2020-07-30T12:28:25.420Z</time>
      </trkpt>
      <trkpt lat="62.33132" lon="5.86143">
        <ele>81.853633</ele>
        <time>2020-07-30T12:28:28.418Z</time>
      </trkpt>
      <trkpt lat="62.33142" lon="5.86131">
        <ele>82.115863</ele>
        <time>2020-07-30T12:28:31.428Z</time>
      </trkpt>
      <trkpt lat="62.33151" lon="5.86115">
        <ele>81.814719</ele>
        <time>2020-07-30T12:28:34.396Z</time>
      </trkpt>
      <trkpt lat="62.33161" lon="5.86097">
        <ele>81.32423</ele>
        <time>2020-07-30T12:28:37.400Z</time>
      </trkpt>
      <trkpt lat="62.33171" lon="5.86079">
        <ele>80.813847</ele>
        <time>2020-07-30T12:28:40.397Z</time>
      </trkpt>
      <trkpt lat="62.33177" lon="5.86067">
        <ele>80.458135</ele>
        <time>2020-07-30T12:28:42.434Z</time>
      </trkpt>
      <trkpt lat="62.33187" lon="5.86047">
        <ele>79.945176</ele>
        <time>2020-07-30T12:28:45.403Z</time>
      </trkpt>
      <trkpt lat="62.33196" lon="5.86028">
        <ele>79.439143</ele>
        <time>2020-07-30T12:28:48.394Z</time>
      </trkpt>
      <trkpt lat="62.33202" lon="5.86015">
        <ele>79.083186</ele>
        <time>2020-07-30T12:28:50.391Z</time>
      </trkpt>
      <trkpt lat="62.3321" lon="5.86">
        <ele>78.685709</ele>
        <time>2020-07-30T12:28:52.388Z</time>
      </trkpt>
      <trkpt lat="62.33218" lon="5.85983">
        <ele>78.253344</ele>
        <time>2020-07-30T12:28:54.397Z</time>
      </trkpt>
      <trkpt lat="62.33226" lon="5.85965">
        <ele>77.776845</ele>
        <time>2020-07-30T12:28:56.389Z</time>
      </trkpt>
      <trkpt lat="62.33235" lon="5.85947">
        <ele>77.290554</ele>
        <time>2020-07-30T12:28:58.405Z</time>
      </trkpt>
      <trkpt lat="62.33243" lon="5.85928">
        <ele>76.81179</ele>
        <time>2020-07-30T12:29:00.432Z</time>
      </trkpt>
      <trkpt lat="62.33252" lon="5.8591">
        <ele>76.327324</ele>
        <time>2020-07-30T12:29:02.407Z</time>
      </trkpt>
      <trkpt lat="62.3326" lon="5.85889">
        <ele>75.831705</ele>
        <time>2020-07-30T12:29:04.397Z</time>
      </trkpt>
      <trkpt lat="62.33269" lon="5.85869">
        <ele>75.340908</ele>
        <time>2020-07-30T12:29:06.400Z</time>
      </trkpt>
      <trkpt lat="62.33277" lon="5.85849">
        <ele>74.7041</ele>
        <time>2020-07-30T12:29:08.407Z</time>
      </trkpt>
      <trkpt lat="62.33286" lon="5.85831">
        <ele>73.906097</ele>
        <time>2020-07-30T12:29:10.406Z</time>
      </trkpt>
      <trkpt lat="62.33295" lon="5.85811">
        <ele>73.071908</ele>
        <time>2020-07-30T12:29:12.385Z</time>
      </trkpt>
      <trkpt lat="62.33305" lon="5.85788">
        <ele>72.153313</ele>
        <time>2020-07-30T12:29:14.404Z</time>
      </trkpt>
      <trkpt lat="62.33315" lon="5.85764">
        <ele>71.188932</ele>
        <time>2020-07-30T12:29:16.431Z</time>
      </trkpt>
      <trkpt lat="62.33328" lon="5.85743">
        <ele>70.178351</ele>
        <time>2020-07-30T12:29:18.404Z</time>
      </trkpt>
      <trkpt lat="62.33341" lon="5.85727">
        <ele>69.191109</ele>
        <time>2020-07-30T12:29:20.404Z</time>
      </trkpt>
      <trkpt lat="62.33355" lon="5.85713">
        <ele>68.215204</ele>
        <time>2020-07-30T12:29:22.386Z</time>
      </trkpt>
      <trkpt lat="62.3337" lon="5.85701">
        <ele>67.208631</ele>
        <time>2020-07-30T12:29:24.429Z</time>
      </trkpt>
      <trkpt lat="62.33385" lon="5.8569">
        <ele>66.192967</ele>
        <time>2020-07-30T12:29:26.441Z</time>
      </trkpt>
      <trkpt lat="62.334" lon="5.85681">
        <ele>65.160337</ele>
        <time>2020-07-30T12:29:28.443Z</time>
      </trkpt>
      <trkpt lat="62.33416" lon="5.85669">
        <ele>64.092412</ele>
        <time>2020-07-30T12:29:30.412Z</time>
      </trkpt>
      <trkpt lat="62.33433" lon="5.85657">
        <ele>63.488974</ele>
        <time>2020-07-30T12:29:32.409Z</time>
      </trkpt>
      <trkpt lat="62.33449" lon="5.85647">
        <ele>63.349698</ele>
        <time>2020-07-30T12:29:34.401Z</time>
      </trkpt>
      <trkpt lat="62.33465" lon="5.85634">
        <ele>63.215644</ele>
        <time>2020-07-30T12:29:36.387Z</time>
      </trkpt>
      <trkpt lat="62.33479" lon="5.85623">
        <ele>63.092294</ele>
        <time>2020-07-30T12:29:38.396Z</time>
      </trkpt>
      <trkpt lat="62.33491" lon="5.85613">
        <ele>62.99357</ele>
        <time>2020-07-30T12:29:40.463Z</time>
      </trkpt>
      <trkpt lat="62.335" lon="5.85605">
        <ele>62.911508</ele>
        <time>2020-07-30T12:29:42.430Z</time>
      </trkpt>
      <trkpt lat="62.33509" lon="5.85598">
        <ele>62.837798</ele>
        <time>2020-07-30T12:29:44.393Z</time>
      </trkpt>
      <trkpt lat="62.33521" lon="5.85589">
        <ele>62.736865</ele>
        <time>2020-07-30T12:29:47.411Z</time>
      </trkpt>
      <trkpt lat="62.3353" lon="5.85582">
        <ele>62.653702</ele>
        <time>2020-07-30T12:29:50.424Z</time>
      </trkpt>
      <trkpt lat="62.33539" lon="5.85576">
        <ele>62.580444</ele>
        <time>2020-07-30T12:29:53.387Z</time>
      </trkpt>
      <trkpt lat="62.3355" lon="5.85569">
        <ele>62.486779</ele>
        <time>2020-07-30T12:29:57.403Z</time>
      </trkpt>
      <trkpt lat="62.3356" lon="5.85564">
        <ele>62.406897</ele>
        <time>2020-07-30T12:30:01.389Z</time>
      </trkpt>
      <trkpt lat="62.33569" lon="5.85558">
        <ele>62.330111</ele>
        <time>2020-07-30T12:30:05.400Z</time>
      </trkpt>
      <trkpt lat="62.33578" lon="5.8555">
        <ele>62.249855</ele>
        <time>2020-07-30T12:30:09.397Z</time>
      </trkpt>
      <trkpt lat="62.33587" lon="5.8554">
        <ele>62.169842</ele>
        <time>2020-07-30T12:30:13.397Z</time>
      </trkpt>
      <trkpt lat="62.33597" lon="5.85535">
        <ele>62.068829</ele>
        <time>2020-07-30T12:30:17.394Z</time>
      </trkpt>
      <trkpt lat="62.33606" lon="5.8553">
        <ele>61.911704</ele>
        <time>2020-07-30T12:30:21.428Z</time>
      </trkpt>
      <trkpt lat="62.33616" lon="5.85525">
        <ele>61.751164</ele>
        <time>2020-07-30T12:30:25.419Z</time>
      </trkpt>
      <trkpt lat="62.33627" lon="5.85524">
        <ele>61.58136</ele>
        <time>2020-07-30T12:30:29.399Z</time>
      </trkpt>
      <trkpt lat="62.33639" lon="5.8552">
        <ele>61.39126</ele>
        <time>2020-07-30T12:30:33.396Z</time>
      </trkpt>
      <trkpt lat="62.33649" lon="5.85517">
        <ele>61.233948</ele>
        <time>2020-07-30T12:30:36.387Z</time>
      </trkpt>
      <trkpt lat="62.33658" lon="5.85514">
        <ele>61.079328</ele>
        <time>2020-07-30T12:30:39.397Z</time>
      </trkpt>
      <trkpt lat="62.3367" lon="5.8551">
        <ele>60.894233</ele>
        <time>2020-07-30T12:30:43.410Z</time>
      </trkpt>
      <trkpt lat="62.33681" lon="5.85507">
        <ele>60.720793</ele>
        <time>2020-07-30T12:30:47.405Z</time>
      </trkpt>
      <trkpt lat="62.33692" lon="5.85503">
        <ele>60.541927</ele>
        <time>2020-07-30T12:30:51.394Z</time>
      </trkpt>
      <trkpt lat="62.33702" lon="5.85502">
        <ele>60.37865</ele>
        <time>2020-07-30T12:30:55.405Z</time>
      </trkpt>
      <trkpt lat="62.33721" lon="5.85494">
        <ele>60.080123</ele>
        <time>2020-07-30T12:31:48.402Z</time>
      </trkpt>
      <trkpt lat="62.33723" lon="5.85473">
        <ele>59.923624</ele>
        <time>2020-07-30T12:31:57.444Z</time>
      </trkpt>
      <trkpt lat="62.3372" lon="5.85455">
        <ele>59.779021</ele>
        <time>2020-07-30T12:32:04.421Z</time>
      </trkpt>
      <trkpt lat="62.33724" lon="5.85434">
        <ele>59.608969</ele>
        <time>2020-07-30T12:32:24.438Z</time>
      </trkpt>
      <trkpt lat="62.33734" lon="5.85426">
        <ele>59.447168</ele>
        <time>2020-07-30T12:32:31.394Z</time>
      </trkpt>
      <trkpt lat="62.33739" lon="5.85396">
        <ele>59.100106</ele>
        <time>2020-07-30T12:32:54.399Z</time>
      </trkpt>
      <trkpt lat="62.33732" lon="5.8538">
        <ele>58.642979</ele>
        <time>2020-07-30T12:32:57.422Z</time>
      </trkpt>
      <trkpt lat="62.33729" lon="5.85354">
        <ele>58.054241</ele>
        <time>2020-07-30T12:33:00.445Z</time>
      </trkpt>
      <trkpt lat="62.33728" lon="5.85334">
        <ele>57.624961</ele>
        <time>2020-07-30T12:33:02.399Z</time>
      </trkpt>
      <trkpt lat="62.33727" lon="5.85309">
        <ele>57.063145</ele>
        <time>2020-07-30T12:33:05.408Z</time>
      </trkpt>
      <trkpt lat="62.3373" lon="5.85286">
        <ele>56.559678</ele>
        <time>2020-07-30T12:33:08.426Z</time>
      </trkpt>
      <trkpt lat="62.33737" lon="5.85269">
        <ele>56.059288</ele>
        <time>2020-07-30T12:33:11.429Z</time>
      </trkpt>
      <trkpt lat="62.33746" lon="5.85263">
        <ele>55.601909</ele>
        <time>2020-07-30T12:33:14.394Z</time>
      </trkpt>
      <trkpt lat="62.33755" lon="5.85263">
        <ele>55.17347</ele>
        <time>2020-07-30T12:33:17.421Z</time>
      </trkpt>
      <trkpt lat="62.33765" lon="5.85262">
        <ele>54.692845</ele>
        <time>2020-07-30T12:33:21.429Z</time>
      </trkpt>
      <trkpt lat="62.33754" lon="5.85243">
        <ele>54.01834</ele>
        <time>2020-07-30T13:11:16.395Z</time>
      </trkpt>
      <trkpt lat="62.33745" lon="5.85251">
        <ele>53.542583</ele>
        <time>2020-07-30T13:11:20.430Z</time>
      </trkpt>
      <trkpt lat="62.33736" lon="5.85262">
        <ele>53.087861</ele>
        <time>2020-07-30T13:11:24.395Z</time>
      </trkpt>
      <trkpt lat="62.33726" lon="5.85271">
        <ele>52.575145</ele>
        <time>2020-07-30T13:11:28.412Z</time>
      </trkpt>
      <trkpt lat="62.33725" lon="5.85291">
        <ele>52.143189</ele>
        <time>2020-07-30T13:11:31.443Z</time>
      </trkpt>
      <trkpt lat="62.33724" lon="5.85312">
        <ele>51.686663</ele>
        <time>2020-07-30T13:11:35.401Z</time>
      </trkpt>
      <trkpt lat="62.33723" lon="5.85333">
        <ele>51.212283</ele>
        <time>2020-07-30T13:11:40.401Z</time>
      </trkpt>
      <trkpt lat="62.33723" lon="5.85356">
        <ele>50.830547</ele>
        <time>2020-07-30T13:11:46.405Z</time>
      </trkpt>
      <trkpt lat="62.33729" lon="5.85375">
        <ele>50.995869</ele>
        <time>2020-07-30T13:11:51.388Z</time>
      </trkpt>
      <trkpt lat="62.33738" lon="5.85388">
        <ele>51.171059</ele>
        <time>2020-07-30T13:11:56.447Z</time>
      </trkpt>
      <trkpt lat="62.33747" lon="5.85392">
        <ele>51.322385</ele>
        <time>2020-07-30T13:12:00.412Z</time>
      </trkpt>
      <trkpt lat="62.33757" lon="5.85386">
        <ele>51.477325</ele>
        <time>2020-07-30T13:12:04.385Z</time>
      </trkpt>
      <trkpt lat="62.33766" lon="5.85379">
        <ele>51.636193</ele>
        <time>2020-07-30T13:12:08.401Z</time>
      </trkpt>
      <trkpt lat="62.33777" lon="5.85372">
        <ele>51.817824</ele>
        <time>2020-07-30T13:12:12.402Z</time>
      </trkpt>
      <trkpt lat="62.33786" lon="5.85365">
        <ele>51.964463</ele>
        <time>2020-07-30T13:12:15.399Z</time>
      </trkpt>
      <trkpt lat="62.33796" lon="5.85357">
        <ele>52.140473</ele>
        <time>2020-07-30T13:12:19.406Z</time>
      </trkpt>
      <trkpt lat="62.33806" lon="5.85347">
        <ele>52.317378</ele>
        <time>2020-07-30T13:12:24.407Z</time>
      </trkpt>
      <trkpt lat="62.33817" lon="5.85339">
        <ele>52.498121</ele>
        <time>2020-07-30T13:12:28.412Z</time>
      </trkpt>
      <trkpt lat="62.33828" lon="5.85332">
        <ele>52.677154</ele>
        <time>2020-07-30T13:12:32.409Z</time>
      </trkpt>
      <trkpt lat="62.33839" lon="5.85323">
        <ele>52.86389</ele>
        <time>2020-07-30T13:12:36.442Z</time>
      </trkpt>
      <trkpt lat="62.3385" lon="5.85314">
        <ele>53.054264</ele>
        <time>2020-07-30T13:12:40.423Z</time>
      </trkpt>
      <trkpt lat="62.33859" lon="5.85305">
        <ele>53.211961</ele>
        <time>2020-07-30T13:12:43.398Z</time>
      </trkpt>
      <trkpt lat="62.33868" lon="5.85295">
        <ele>53.374318</ele>
        <time>2020-07-30T13:12:46.435Z</time>
      </trkpt>
      <trkpt lat="62.33877" lon="5.85285">
        <ele>53.539335</ele>
        <time>2020-07-30T13:12:49.406Z</time>
      </trkpt>
      <trkpt lat="62.33887" lon="5.85275">
        <ele>53.600552</ele>
        <time>2020-07-30T13:12:52.403Z</time>
      </trkpt>
      <trkpt lat="62.33897" lon="5.85263">
        <ele>53.369803</ele>
        <time>2020-07-30T13:12:55.419Z</time>
      </trkpt>
      <trkpt lat="62.33908" lon="5.85249">
        <ele>53.115926</ele>
        <time>2020-07-30T13:12:58.450Z</time>
      </trkpt>
      <trkpt lat="62.3392" lon="5.85236">
        <ele>52.853776</ele>
        <time>2020-07-30T13:13:01.408Z</time>
      </trkpt>
      <trkpt lat="62.33928" lon="5.85226">
        <ele>52.665344</ele>
        <time>2020-07-30T13:13:03.397Z</time>
      </trkpt>
      <trkpt lat="62.33937" lon="5.85216">
        <ele>52.471632</ele>
        <time>2020-07-30T13:13:05.397Z</time>
      </trkpt>
      <trkpt lat="62.33946" lon="5.85205">
        <ele>52.272653</ele>
        <time>2020-07-30T13:13:07.404Z</time>
      </trkpt>
      <trkpt lat="62.33954" lon="5.85194">
        <ele>52.077216</ele>
        <time>2020-07-30T13:13:09.392Z</time>
      </trkpt>
      <trkpt lat="62.33962" lon="5.85184">
        <ele>51.891292</ele>
        <time>2020-07-30T13:13:11.401Z</time>
      </trkpt>
      <trkpt lat="62.33973" lon="5.85168">
        <ele>51.630946</ele>
        <time>2020-07-30T13:13:14.409Z</time>
      </trkpt>
      <trkpt lat="62.33979" lon="5.85147">
        <ele>51.401752</ele>
        <time>2020-07-30T13:13:17.438Z</time>
      </trkpt>
      <trkpt lat="62.33983" lon="5.85127">
        <ele>51.19982</ele>
        <time>2020-07-30T13:13:21.389Z</time>
      </trkpt>
      <trkpt lat="62.33992" lon="5.85118">
        <ele>51.011544</ele>
        <time>2020-07-30T13:13:26.404Z</time>
      </trkpt>
      <trkpt lat="62.34001" lon="5.85113">
        <ele>50.824743</ele>
        <time>2020-07-30T13:13:30.406Z</time>
      </trkpt>
      <trkpt lat="62.3401" lon="5.85113">
        <ele>50.640416</ele>
        <time>2020-07-30T13:13:34.402Z</time>
      </trkpt>
      <trkpt lat="62.34019" lon="5.85119">
        <ele>50.457438</ele>
        <time>2020-07-30T13:13:38.403Z</time>
      </trkpt>
      <trkpt lat="62.34026" lon="5.85135">
        <ele>50.255781</ele>
        <time>2020-07-30T13:13:42.412Z</time>
      </trkpt>
      <trkpt lat="62.34036" lon="5.85134">
        <ele>50.1304</ele>
        <time>2020-07-30T13:13:47.414Z</time>
      </trkpt>
      <trkpt lat="62.34044" lon="5.85123">
        <ele>50.309453</ele>
        <time>2020-07-30T13:13:50.406Z</time>
      </trkpt>
      <trkpt lat="62.34051" lon="5.85112">
        <ele>50.482398</ele>
        <time>2020-07-30T13:13:53.405Z</time>
      </trkpt>
      <trkpt lat="62.34059" lon="5.85102">
        <ele>50.653434</ele>
        <time>2020-07-30T13:13:56.401Z</time>
      </trkpt>
      <trkpt lat="62.34067" lon="5.8509">
        <ele>50.83605</ele>
        <time>2020-07-30T13:13:59.389Z</time>
      </trkpt>
      <trkpt lat="62.34074" lon="5.85078">
        <ele>51.005362</ele>
        <time>2020-07-30T13:14:02.424Z</time>
      </trkpt>
      <trkpt lat="62.34081" lon="5.85066">
        <ele>51.178767</ele>
        <time>2020-07-30T13:14:05.420Z</time>
      </trkpt>
      <trkpt lat="62.3409" lon="5.85055">
        <ele>51.387151</ele>
        <time>2020-07-30T13:14:09.415Z</time>
      </trkpt>
      <trkpt lat="62.34099" lon="5.85062">
        <ele>51.565001</ele>
        <time>2020-07-30T13:14:13.393Z</time>
      </trkpt>
      <trkpt lat="62.3411" lon="5.85058">
        <ele>51.77983</ele>
        <time>2020-07-30T13:14:17.395Z</time>
      </trkpt>
      <trkpt lat="62.34119" lon="5.85066">
        <ele>51.967205</ele>
        <time>2020-07-30T13:14:23.392Z</time>
      </trkpt>
      <trkpt lat="62.34128" lon="5.85053">
        <ele>52.162679</ele>
        <time>2020-07-30T13:14:31.403Z</time>
      </trkpt>
      <trkpt lat="62.34119" lon="5.85042">
        <ele>52.349322</ele>
        <time>2020-07-30T13:22:40.401Z</time>
      </trkpt>
      <trkpt lat="62.34113" lon="5.85025">
        <ele>52.548698</ele>
        <time>2020-07-30T13:22:44.385Z</time>
      </trkpt>
      <trkpt lat="62.34103" lon="5.85031">
        <ele>52.7373</ele>
        <time>2020-07-30T13:22:49.424Z</time>
      </trkpt>
      <trkpt lat="62.34095" lon="5.85047">
        <ele>52.938245</ele>
        <time>2020-07-30T13:22:53.442Z</time>
      </trkpt>
      <trkpt lat="62.34086" lon="5.85061">
        <ele>53.154872</ele>
        <time>2020-07-30T13:22:57.386Z</time>
      </trkpt>
      <trkpt lat="62.34077" lon="5.85076">
        <ele>53.376707</ele>
        <time>2020-07-30T13:23:01.402Z</time>
      </trkpt>
      <trkpt lat="62.34067" lon="5.85088">
        <ele>53.590844</ele>
        <time>2020-07-30T13:23:05.387Z</time>
      </trkpt>
      <trkpt lat="62.34059" lon="5.85097">
        <ele>53.757251</ele>
        <time>2020-07-30T13:23:08.416Z</time>
      </trkpt>
      <trkpt lat="62.34051" lon="5.85107">
        <ele>53.924878</ele>
        <time>2020-07-30T13:23:11.421Z</time>
      </trkpt>
      <trkpt lat="62.34043" lon="5.85118">
        <ele>54.093693</ele>
        <time>2020-07-30T13:23:14.388Z</time>
      </trkpt>
      <trkpt lat="62.34034" lon="5.85134">
        <ele>54.303819</ele>
        <time>2020-07-30T13:23:18.395Z</time>
      </trkpt>
      <trkpt lat="62.3403" lon="5.85154">
        <ele>54.49536</ele>
        <time>2020-07-30T13:23:22.400Z</time>
      </trkpt>
      <trkpt lat="62.34032" lon="5.85174">
        <ele>54.665009</ele>
        <time>2020-07-30T13:23:25.393Z</time>
      </trkpt>
      <trkpt lat="62.34034" lon="5.85197">
        <ele>54.861698</ele>
        <time>2020-07-30T13:23:28.401Z</time>
      </trkpt>
      <trkpt lat="62.34038" lon="5.85218">
        <ele>55.050538</ele>
        <time>2020-07-30T13:23:31.404Z</time>
      </trkpt>
      <trkpt lat="62.34043" lon="5.85235">
        <ele>55.222952</ele>
        <time>2020-07-30T13:23:34.392Z</time>
      </trkpt>
      <trkpt lat="62.34049" lon="5.85255">
        <ele>55.428795</ele>
        <time>2020-07-30T13:23:38.425Z</time>
      </trkpt>
      <trkpt lat="62.34049" lon="5.85281">
        <ele>55.644177</ele>
        <time>2020-07-30T13:23:42.425Z</time>
      </trkpt>
      <trkpt lat="62.34052" lon="5.85302">
        <ele>55.825402</ele>
        <time>2020-07-30T13:23:46.404Z</time>
      </trkpt>
      <trkpt lat="62.34056" lon="5.85322">
        <ele>56.013902</ele>
        <time>2020-07-30T13:23:50.402Z</time>
      </trkpt>
      <trkpt lat="62.3406" lon="5.85343">
        <ele>56.201221</ele>
        <time>2020-07-30T13:23:54.400Z</time>
      </trkpt>
      <trkpt lat="62.34066" lon="5.8536">
        <ele>56.38406</ele>
        <time>2020-07-30T13:23:58.432Z</time>
      </trkpt>
      <trkpt lat="62.34075" lon="5.85372">
        <ele>56.581188</ele>
        <time>2020-07-30T13:24:02.383Z</time>
      </trkpt>
      <trkpt lat="62.34084" lon="5.85384">
        <ele>56.773682</ele>
        <time>2020-07-30T13:24:06.402Z</time>
      </trkpt>
      <trkpt lat="62.34092" lon="5.85398">
        <ele>57.376144</ele>
        <time>2020-07-30T13:24:10.416Z</time>
      </trkpt>
      <trkpt lat="62.34099" lon="5.85417">
        <ele>58.026198</ele>
        <time>2020-07-30T13:24:14.419Z</time>
      </trkpt>
      <trkpt lat="62.34101" lon="5.85438">
        <ele>58.645895</ele>
        <time>2020-07-30T13:24:18.401Z</time>
      </trkpt>
      <trkpt lat="62.34103" lon="5.85458">
        <ele>59.216033</ele>
        <time>2020-07-30T13:24:22.431Z</time>
      </trkpt>
      <trkpt lat="62.34104" lon="5.85479">
        <ele>59.810065</ele>
        <time>2020-07-30T13:24:27.425Z</time>
      </trkpt>
      <trkpt lat="62.34104" lon="5.85501">
        <ele>60.435635</ele>
        <time>2020-07-30T13:24:32.416Z</time>
      </trkpt>
      <trkpt lat="62.34105" lon="5.85522">
        <ele>61.044597</ele>
        <time>2020-07-30T13:24:37.391Z</time>
      </trkpt>
      <trkpt lat="62.34106" lon="5.85543">
        <ele>61.633458</ele>
        <time>2020-07-30T13:24:42.392Z</time>
      </trkpt>
      <trkpt lat="62.34106" lon="5.85564">
        <ele>62.220729</ele>
        <time>2020-07-30T13:24:47.398Z</time>
      </trkpt>
      <trkpt lat="62.34107" lon="5.85586">
        <ele>62.848857</ele>
        <time>2020-07-30T13:24:53.438Z</time>
      </trkpt>
      <trkpt lat="62.34108" lon="5.85608">
        <ele>63.492414</ele>
        <time>2020-07-30T13:24:59.398Z</time>
      </trkpt>
      <trkpt lat="62.34109" lon="5.85628">
        <ele>64.050219</ele>
        <time>2020-07-30T13:25:05.387Z</time>
      </trkpt>
      <trkpt lat="62.3411" lon="5.8565">
        <ele>64.666021</ele>
        <time>2020-07-30T13:25:12.411Z</time>
      </trkpt>
      <trkpt lat="62.34112" lon="5.85669">
        <ele>65.222588</ele>
        <time>2020-07-30T13:25:18.399Z</time>
      </trkpt>
      <trkpt lat="62.34112" lon="5.85689">
        <ele>65.793827</ele>
        <time>2020-07-30T13:25:25.384Z</time>
      </trkpt>
      <trkpt lat="62.34113" lon="5.85709">
        <ele>66.368279</ele>
        <time>2020-07-30T13:25:32.392Z</time>
      </trkpt>
      <trkpt lat="62.3411" lon="5.85731">
        <ele>66.982455</ele>
        <time>2020-07-30T13:25:39.406Z</time>
      </trkpt>
      <trkpt lat="62.34109" lon="5.85752">
        <ele>67.607437</ele>
        <time>2020-07-30T13:25:46.428Z</time>
      </trkpt>
      <trkpt lat="62.34108" lon="5.85772">
        <ele>68.156702</ele>
        <time>2020-07-30T13:25:52.396Z</time>
      </trkpt>
      <trkpt lat="62.34106" lon="5.85791">
        <ele>68.709607</ele>
        <time>2020-07-30T13:25:58.428Z</time>
      </trkpt>
      <trkpt lat="62.34102" lon="5.85809">
        <ele>69.276692</ele>
        <time>2020-07-30T13:26:04.395Z</time>
      </trkpt>
      <trkpt lat="62.34097" lon="5.85825">
        <ele>69.837318</ele>
        <time>2020-07-30T13:26:10.392Z</time>
      </trkpt>
      <trkpt lat="62.34094" lon="5.85844">
        <ele>70.405015</ele>
        <time>2020-07-30T13:26:16.397Z</time>
      </trkpt>
      <trkpt lat="62.34091" lon="5.85864">
        <ele>70.972941</ele>
        <time>2020-07-30T13:26:22.419Z</time>
      </trkpt>
      <trkpt lat="62.34086" lon="5.85882">
        <ele>71.571131</ele>
        <time>2020-07-30T13:26:28.410Z</time>
      </trkpt>
      <trkpt lat="62.34081" lon="5.85901">
        <ele>72.203019</ele>
        <time>2020-07-30T13:26:34.403Z</time>
      </trkpt>
      <trkpt lat="62.34076" lon="5.85917">
        <ele>72.754717</ele>
        <time>2020-07-30T13:26:38.436Z</time>
      </trkpt>
      <trkpt lat="62.34071" lon="5.85935">
        <ele>73.325577</ele>
        <time>2020-07-30T13:26:42.414Z</time>
      </trkpt>
      <trkpt lat="62.34066" lon="5.85951">
        <ele>73.890149</ele>
        <time>2020-07-30T13:26:46.430Z</time>
      </trkpt>
      <trkpt lat="62.34059" lon="5.85969">
        <ele>74.547903</ele>
        <time>2020-07-30T13:26:51.393Z</time>
      </trkpt>
      <trkpt lat="62.34053" lon="5.85987">
        <ele>75.17705</ele>
        <time>2020-07-30T13:26:56.436Z</time>
      </trkpt>
      <trkpt lat="62.34047" lon="5.86005">
        <ele>75.8018</ele>
        <time>2020-07-30T13:27:01.427Z</time>
      </trkpt>
      <trkpt lat="62.34042" lon="5.86021">
        <ele>76.358187</ele>
        <time>2020-07-30T13:27:06.420Z</time>
      </trkpt>
      <trkpt lat="62.34037" lon="5.8604">
        <ele>76.974813</ele>
        <time>2020-07-30T13:27:12.386Z</time>
      </trkpt>
      <trkpt lat="62.34031" lon="5.86058">
        <ele>77.573011</ele>
        <time>2020-07-30T13:27:18.410Z</time>
      </trkpt>
      <trkpt lat="62.34026" lon="5.86073">
        <ele>78.125752</ele>
        <time>2020-07-30T13:27:24.425Z</time>
      </trkpt>
      <trkpt lat="62.34021" lon="5.8609">
        <ele>78.675062</ele>
        <time>2020-07-30T13:27:30.407Z</time>
      </trkpt>
      <trkpt lat="62.34016" lon="5.86109">
        <ele>79.210145</ele>
        <time>2020-07-30T13:27:37.393Z</time>
      </trkpt>
      <trkpt lat="62.34009" lon="5.86126">
        <ele>79.746399</ele>
        <time>2020-07-30T13:27:44.419Z</time>
      </trkpt>
      <trkpt lat="62.34005" lon="5.86144">
        <ele>80.241007</ele>
        <time>2020-07-30T13:27:50.437Z</time>
      </trkpt>
      <trkpt lat="62.33999" lon="5.86161">
        <ele>80.740577</ele>
        <time>2020-07-30T13:27:56.420Z</time>
      </trkpt>
      <trkpt lat="62.33992" lon="5.86175">
        <ele>81.235308</ele>
        <time>2020-07-30T13:28:02.411Z</time>
      </trkpt>
      <trkpt lat="62.33986" lon="5.86191">
        <ele>81.727893</ele>
        <time>2020-07-30T13:28:08.416Z</time>
      </trkpt>
      <trkpt lat="62.3398" lon="5.86207">
        <ele>82.220814</ele>
        <time>2020-07-30T13:28:14.410Z</time>
      </trkpt>
      <trkpt lat="62.33974" lon="5.86224">
        <ele>82.742649</ele>
        <time>2020-07-30T13:28:20.404Z</time>
      </trkpt>
      <trkpt lat="62.33967" lon="5.8624">
        <ele>83.268265</ele>
        <time>2020-07-30T13:28:26.394Z</time>
      </trkpt>
      <trkpt lat="62.33959" lon="5.86252">
        <ele>83.767889</ele>
        <time>2020-07-30T13:28:31.431Z</time>
      </trkpt>
      <trkpt lat="62.3395" lon="5.86263">
        <ele>84.280871</ele>
        <time>2020-07-30T13:28:36.401Z</time>
      </trkpt>
      <trkpt lat="62.33942" lon="5.86274">
        <ele>84.799699</ele>
        <time>2020-07-30T13:28:41.406Z</time>
      </trkpt>
      <trkpt lat="62.33933" lon="5.86281">
        <ele>85.26421</ele>
        <time>2020-07-30T13:28:46.396Z</time>
      </trkpt>
      <trkpt lat="62.33923" lon="5.86287">
        <ele>85.806197</ele>
        <time>2020-07-30T13:28:52.403Z</time>
      </trkpt>
      <trkpt lat="62.33914" lon="5.86296">
        <ele>86.308512</ele>
        <time>2020-07-30T13:28:57.398Z</time>
      </trkpt>
      <trkpt lat="62.33907" lon="5.86309">
        <ele>86.823642</ele>
        <time>2020-07-30T13:29:02.425Z</time>
      </trkpt>
      <trkpt lat="62.33899" lon="5.86321">
        <ele>87.321705</ele>
        <time>2020-07-30T13:29:07.425Z</time>
      </trkpt>
      <trkpt lat="62.33892" lon="5.86335">
        <ele>87.788245</ele>
        <time>2020-07-30T13:29:12.407Z</time>
      </trkpt>
      <trkpt lat="62.33886" lon="5.86353">
        <ele>88.432631</ele>
        <time>2020-07-30T13:29:18.384Z</time>
      </trkpt>
      <trkpt lat="62.33881" lon="5.86371">
        <ele>89.031095</ele>
        <time>2020-07-30T13:29:23.420Z</time>
      </trkpt>
      <trkpt lat="62.33877" lon="5.86392">
        <ele>89.718877</ele>
        <time>2020-07-30T13:29:29.396Z</time>
      </trkpt>
      <trkpt lat="62.33875" lon="5.86412">
        <ele>90.335275</ele>
        <time>2020-07-30T13:29:34.405Z</time>
      </trkpt>
      <trkpt lat="62.33874" lon="5.86433">
        <ele>90.972439</ele>
        <time>2020-07-30T13:29:39.437Z</time>
      </trkpt>
      <trkpt lat="62.33874" lon="5.86454">
        <ele>91.596376</ele>
        <time>2020-07-30T13:29:44.399Z</time>
      </trkpt>
      <trkpt lat="62.33874" lon="5.86475">
        <ele>92.228967</ele>
        <time>2020-07-30T13:29:50.417Z</time>
      </trkpt>
      <trkpt lat="62.33876" lon="5.86495">
        <ele>92.833816</ele>
        <time>2020-07-30T13:29:56.396Z</time>
      </trkpt>
      <trkpt lat="62.33879" lon="5.86517">
        <ele>93.501296</ele>
        <time>2020-07-30T13:30:02.388Z</time>
      </trkpt>
      <trkpt lat="62.33881" lon="5.86537">
        <ele>94.13385</ele>
        <time>2020-07-30T13:30:08.390Z</time>
      </trkpt>
      <trkpt lat="62.33883" lon="5.86559">
        <ele>94.775806</ele>
        <time>2020-07-30T13:30:14.395Z</time>
      </trkpt>
      <trkpt lat="62.33886" lon="5.86578">
        <ele>95.383124</ele>
        <time>2020-07-30T13:30:20.403Z</time>
      </trkpt>
      <trkpt lat="62.33887" lon="5.86599">
        <ele>96.007791</ele>
        <time>2020-07-30T13:30:27.405Z</time>
      </trkpt>
      <trkpt lat="62.33889" lon="5.8662">
        <ele>96.675269</ele>
        <time>2020-07-30T13:30:34.396Z</time>
      </trkpt>
      <trkpt lat="62.33891" lon="5.86639">
        <ele>97.250783</ele>
        <time>2020-07-30T13:30:41.398Z</time>
      </trkpt>
      <trkpt lat="62.33894" lon="5.8666">
        <ele>97.902733</ele>
        <time>2020-07-30T13:30:48.410Z</time>
      </trkpt>
      <trkpt lat="62.33897" lon="5.86681">
        <ele>98.536477</ele>
        <time>2020-07-30T13:30:55.445Z</time>
      </trkpt>
      <trkpt lat="62.33898" lon="5.86703">
        <ele>99.200112</ele>
        <time>2020-07-30T13:31:02.390Z</time>
      </trkpt>
      <trkpt lat="62.339" lon="5.86722">
        <ele>99.857053</ele>
        <time>2020-07-30T13:31:08.406Z</time>
      </trkpt>
      <trkpt lat="62.33901" lon="5.86742">
        <ele>100.571493</ele>
        <time>2020-07-30T13:31:14.399Z</time>
      </trkpt>
      <trkpt lat="62.33902" lon="5.86762">
        <ele>101.285927</ele>
        <time>2020-07-30T13:31:20.399Z</time>
      </trkpt>
      <trkpt lat="62.33903" lon="5.86782">
        <ele>101.996786</ele>
        <time>2020-07-30T13:31:26.405Z</time>
      </trkpt>
      <trkpt lat="62.33904" lon="5.86801">
        <ele>102.692397</ele>
        <time>2020-07-30T13:31:33.407Z</time>
      </trkpt>
      <trkpt lat="62.33903" lon="5.86821">
        <ele>103.413564</ele>
        <time>2020-07-30T13:31:40.411Z</time>
      </trkpt>
      <trkpt lat="62.33902" lon="5.86841">
        <ele>104.132768</ele>
        <time>2020-07-30T13:31:46.395Z</time>
      </trkpt>
      <trkpt lat="62.33901" lon="5.86863">
        <ele>104.93092</ele>
        <time>2020-07-30T13:31:53.399Z</time>
      </trkpt>
      <trkpt lat="62.33901" lon="5.86885">
        <ele>105.725483</ele>
        <time>2020-07-30T13:32:00.449Z</time>
      </trkpt>
      <trkpt lat="62.33899" lon="5.86906">
        <ele>106.489476</ele>
        <time>2020-07-30T13:32:07.400Z</time>
      </trkpt>
      <trkpt lat="62.33897" lon="5.86927">
        <ele>107.277511</ele>
        <time>2020-07-30T13:32:14.394Z</time>
      </trkpt>
      <trkpt lat="62.33894" lon="5.86946">
        <ele>107.998494</ele>
        <time>2020-07-30T13:32:20.387Z</time>
      </trkpt>
      <trkpt lat="62.3389" lon="5.86964">
        <ele>108.713753</ele>
        <time>2020-07-30T13:32:27.421Z</time>
      </trkpt>
      <trkpt lat="62.33885" lon="5.86981">
        <ele>109.432292</ele>
        <time>2020-07-30T13:32:33.436Z</time>
      </trkpt>
      <trkpt lat="62.33881" lon="5.87">
        <ele>110.193767</ele>
        <time>2020-07-30T13:32:39.390Z</time>
      </trkpt>
      <trkpt lat="62.33876" lon="5.87021">
        <ele>111.007635</ele>
        <time>2020-07-30T13:32:45.415Z</time>
      </trkpt>
      <trkpt lat="62.33874" lon="5.87041">
        <ele>111.766695</ele>
        <time>2020-07-30T13:32:51.395Z</time>
      </trkpt>
      <trkpt lat="62.33868" lon="5.87059">
        <ele>112.550497</ele>
        <time>2020-07-30T13:32:57.424Z</time>
      </trkpt>
      <trkpt lat="62.33868" lon="5.8708">
        <ele>113.317476</ele>
        <time>2020-07-30T13:33:03.386Z</time>
      </trkpt>
      <trkpt lat="62.33878" lon="5.87085">
        <ele>113.797745</ele>
        <time>2020-07-30T13:33:08.408Z</time>
      </trkpt>
      <trkpt lat="62.33887" lon="5.87094">
        <ele>114.232795</ele>
        <time>2020-07-30T13:33:14.413Z</time>
      </trkpt>
      <trkpt lat="62.33897" lon="5.871">
        <ele>114.630261</ele>
        <time>2020-07-30T13:33:20.434Z</time>
      </trkpt>
      <trkpt lat="62.33906" lon="5.87108">
        <ele>115.044933</ele>
        <time>2020-07-30T13:33:26.401Z</time>
      </trkpt>
      <trkpt lat="62.33915" lon="5.87112">
        <ele>115.430792</ele>
        <time>2020-07-30T13:33:32.408Z</time>
      </trkpt>
      <trkpt lat="62.33925" lon="5.87114">
        <ele>115.819126</ele>
        <time>2020-07-30T13:33:38.414Z</time>
      </trkpt>
      <trkpt lat="62.33934" lon="5.87113">
        <ele>116.209766</ele>
        <time>2020-07-30T13:33:44.440Z</time>
      </trkpt>
      <trkpt lat="62.33944" lon="5.87136">
        <ele>116.791899</ele>
        <time>2020-07-30T13:34:23.443Z</time>
      </trkpt>
      <trkpt lat="62.33941" lon="5.87158">
        <ele>117.222297</ele>
        <time>2020-07-30T13:34:28.399Z</time>
      </trkpt>
      <trkpt lat="62.3394" lon="5.8718">
        <ele>117.64984</ele>
        <time>2020-07-30T13:34:33.399Z</time>
      </trkpt>
      <trkpt lat="62.33938" lon="5.87202">
        <ele>118.061754</ele>
        <time>2020-07-30T13:34:38.396Z</time>
      </trkpt>
      <trkpt lat="62.33936" lon="5.87224">
        <ele>118.503516</ele>
        <time>2020-07-30T13:34:44.417Z</time>
      </trkpt>
      <trkpt lat="62.33934" lon="5.87246">
        <ele>118.930604</ele>
        <time>2020-07-30T13:34:50.417Z</time>
      </trkpt>
      <trkpt lat="62.33931" lon="5.87267">
        <ele>119.347605</ele>
        <time>2020-07-30T13:34:56.403Z</time>
      </trkpt>
      <trkpt lat="62.3393" lon="5.87289">
        <ele>119.770378</ele>
        <time>2020-07-30T13:35:02.435Z</time>
      </trkpt>
      <trkpt lat="62.33926" lon="5.87307">
        <ele>120.140838</ele>
        <time>2020-07-30T13:35:07.395Z</time>
      </trkpt>
      <trkpt lat="62.33923" lon="5.87325">
        <ele>120.519972</ele>
        <time>2020-07-30T13:35:12.420Z</time>
      </trkpt>
      <trkpt lat="62.33918" lon="5.87342">
        <ele>120.896473</ele>
        <time>2020-07-30T13:35:18.395Z</time>
      </trkpt>
      <trkpt lat="62.33913" lon="5.87359">
        <ele>120.896473</ele>
        <time>2020-07-30T13:35:23.410Z</time>
      </trkpt>
      <trkpt lat="62.33908" lon="5.8738">
        <ele>120.896473</ele>
        <time>2020-07-30T13:35:29.408Z</time>
      </trkpt>
      <trkpt lat="62.33904" lon="5.87401">
        <ele>120.896473</ele>
        <time>2020-07-30T13:35:35.398Z</time>
      </trkpt>
      <trkpt lat="62.33901" lon="5.87421">
        <ele>120.896473</ele>
        <time>2020-07-30T13:35:40.409Z</time>
      </trkpt>
      <trkpt lat="62.33899" lon="5.8744">
        <ele>120.896473</ele>
        <time>2020-07-30T13:35:45.383Z</time>
      </trkpt>
      <trkpt lat="62.33896" lon="5.87461">
        <ele>120.896473</ele>
        <time>2020-07-30T13:35:51.416Z</time>
      </trkpt>
      <trkpt lat="62.33892" lon="5.8748">
        <ele>120.896473</ele>
        <time>2020-07-30T13:35:57.415Z</time>
      </trkpt>
      <trkpt lat="62.33894" lon="5.875">
        <ele>120.896473</ele>
        <time>2020-07-30T13:36:03.394Z</time>
      </trkpt>
      <trkpt lat="62.33902" lon="5.8751">
        <ele>120.896473</ele>
        <time>2020-07-30T13:36:08.421Z</time>
      </trkpt>
      <trkpt lat="62.33912" lon="5.87511">
        <ele>120.896473</ele>
        <time>2020-07-30T13:36:14.404Z</time>
      </trkpt>
      <trkpt lat="62.3392" lon="5.87503">
        <ele>120.896473</ele>
        <time>2020-07-30T13:36:20.413Z</time>
      </trkpt>
      <trkpt lat="62.33927" lon="5.87486">
        <ele>120.896473</ele>
        <time>2020-07-30T13:36:26.433Z</time>
      </trkpt>
      <trkpt lat="62.33931" lon="5.87467">
        <ele>120.896473</ele>
        <time>2020-07-30T13:36:31.402Z</time>
      </trkpt>
      <trkpt lat="62.33932" lon="5.87447">
        <ele>120.896473</ele>
        <time>2020-07-30T13:36:36.409Z</time>
      </trkpt>
      <trkpt lat="62.33932" lon="5.87438">
        <ele>120.896473</ele>
        <time>2020-07-30T13:37:17.428Z</time>
      </trkpt>
    </trkseg>
  </trk>
</gpx>